<?xml version="1.0" encoding="UTF-8"?>
<gpx version="1.1" creator="https://www.youtrack.es" xsi:schemaLocation="http://www.topografix.com/GPX/1/1 http://www.topografix.com/GPX/1/1/gpx.xsd http://www.garmin.com/xmlschemas/GpxExtensions/v3 http://www.garmin.com/xmlschemas/GpxExtensionsv3.xsd http://www.garmin.com/xmlschemas/TrackPointExtension/v1 http://www.garmin.com/xmlschemas/TrackPointExtensionv1.xsd" xmlns:gpxtpx="http://www.garmin.com/xmlschemas/TrackPointExtension/v1" xmlns:gpxx="http://www.garmin.com/xmlschemas/GpxExtensions/v3" xmlns:xsi="http://www.w3.org/2001/XMLSchema-instance">
  <metadata>
    <link href="https://www.youtrack.es">
      <text>YouTrack.es</text>
    </link>
    <time>2026-05-08T12:46:34Z</time>
  </metadata>
  <trk>
    <src>https://www.youtrack.es</src>
    <link href="https://www.youtrack.es/ruta/37147-salida-only-guapos-">
      <text>YouTrack.es</text>
    </link>
    <trkseg>
      <trkpt lat="41.5350880" lon="1.8730750">
        <ele>152.8</ele>
        <time>2022-06-28T15:14:13Z</time>
      </trkpt>
      <trkpt lat="41.5349600" lon="1.8731920">
        <ele>176.4</ele>
        <time>2022-06-28T15:14:17Z</time>
      </trkpt>
      <trkpt lat="41.5348660" lon="1.8732770">
        <ele>175.6</ele>
        <time>2022-06-28T15:14:19Z</time>
      </trkpt>
      <trkpt lat="41.5347980" lon="1.8733940">
        <ele>175.4</ele>
        <time>2022-06-28T15:14:21Z</time>
      </trkpt>
      <trkpt lat="41.5347690" lon="1.8734600">
        <ele>175.8</ele>
        <time>2022-06-28T15:14:22Z</time>
      </trkpt>
      <trkpt lat="41.5347760" lon="1.8736430">
        <ele>176.2</ele>
        <time>2022-06-28T15:14:24Z</time>
      </trkpt>
      <trkpt lat="41.5347650" lon="1.8737830">
        <ele>176.4</ele>
        <time>2022-06-28T15:14:26Z</time>
      </trkpt>
      <trkpt lat="41.5347380" lon="1.8739450">
        <ele>176.6</ele>
        <time>2022-06-28T15:14:29Z</time>
      </trkpt>
      <trkpt lat="41.5347360" lon="1.8739960">
        <ele>177.0</ele>
        <time>2022-06-28T15:14:30Z</time>
      </trkpt>
      <trkpt lat="41.5347220" lon="1.8740410">
        <ele>177.2</ele>
        <time>2022-06-28T15:14:31Z</time>
      </trkpt>
      <trkpt lat="41.5347110" lon="1.8740720">
        <ele>178.2</ele>
        <time>2022-06-28T15:14:32Z</time>
      </trkpt>
      <trkpt lat="41.5347030" lon="1.8740950">
        <ele>178.6</ele>
        <time>2022-06-28T15:14:33Z</time>
      </trkpt>
      <trkpt lat="41.5346700" lon="1.8741080">
        <ele>179.0</ele>
        <time>2022-06-28T15:14:34Z</time>
      </trkpt>
      <trkpt lat="41.5346150" lon="1.8741170">
        <ele>179.2</ele>
        <time>2022-06-28T15:14:35Z</time>
      </trkpt>
      <trkpt lat="41.5345480" lon="1.8741250">
        <ele>179.4</ele>
        <time>2022-06-28T15:14:36Z</time>
      </trkpt>
      <trkpt lat="41.5344900" lon="1.8741400">
        <ele>179.6</ele>
        <time>2022-06-28T15:14:37Z</time>
      </trkpt>
      <trkpt lat="41.5343810" lon="1.8741820">
        <ele>180.0</ele>
        <time>2022-06-28T15:14:39Z</time>
      </trkpt>
      <trkpt lat="41.5343250" lon="1.8742040">
        <ele>180.0</ele>
        <time>2022-06-28T15:14:40Z</time>
      </trkpt>
      <trkpt lat="41.5339110" lon="1.8743200">
        <ele>180.0</ele>
        <time>2022-06-28T15:14:46Z</time>
      </trkpt>
      <trkpt lat="41.5338440" lon="1.8743330">
        <ele>179.6</ele>
        <time>2022-06-28T15:14:47Z</time>
      </trkpt>
      <trkpt lat="41.5337290" lon="1.8743350">
        <ele>179.2</ele>
        <time>2022-06-28T15:14:50Z</time>
      </trkpt>
      <trkpt lat="41.5337210" lon="1.8743340">
        <ele>178.4</ele>
        <time>2022-06-28T15:14:53Z</time>
      </trkpt>
      <trkpt lat="41.5337020" lon="1.8743450">
        <ele>178.2</ele>
        <time>2022-06-28T15:14:54Z</time>
      </trkpt>
      <trkpt lat="41.5335700" lon="1.8743980">
        <ele>178.0</ele>
        <time>2022-06-28T15:14:58Z</time>
      </trkpt>
      <trkpt lat="41.5334850" lon="1.8744230">
        <ele>177.8</ele>
        <time>2022-06-28T15:14:59Z</time>
      </trkpt>
      <trkpt lat="41.5333230" lon="1.8744660">
        <ele>177.2</ele>
        <time>2022-06-28T15:15:01Z</time>
      </trkpt>
      <trkpt lat="41.5331550" lon="1.8745220">
        <ele>176.2</ele>
        <time>2022-06-28T15:15:03Z</time>
      </trkpt>
      <trkpt lat="41.5330750" lon="1.8745520">
        <ele>176.0</ele>
        <time>2022-06-28T15:15:04Z</time>
      </trkpt>
      <trkpt lat="41.5327900" lon="1.8746370">
        <ele>175.0</ele>
        <time>2022-06-28T15:15:08Z</time>
      </trkpt>
      <trkpt lat="41.5327240" lon="1.8746490">
        <ele>174.4</ele>
        <time>2022-06-28T15:15:09Z</time>
      </trkpt>
      <trkpt lat="41.5326120" lon="1.8746680">
        <ele>173.0</ele>
        <time>2022-06-28T15:15:11Z</time>
      </trkpt>
      <trkpt lat="41.5325430" lon="1.8747020">
        <ele>172.4</ele>
        <time>2022-06-28T15:15:13Z</time>
      </trkpt>
      <trkpt lat="41.5325250" lon="1.8747350">
        <ele>172.2</ele>
        <time>2022-06-28T15:15:14Z</time>
      </trkpt>
      <trkpt lat="41.5325210" lon="1.8747970">
        <ele>172.0</ele>
        <time>2022-06-28T15:15:16Z</time>
      </trkpt>
      <trkpt lat="41.5325420" lon="1.8748400">
        <ele>172.0</ele>
        <time>2022-06-28T15:15:17Z</time>
      </trkpt>
      <trkpt lat="41.5326600" lon="1.8750870">
        <ele>172.8</ele>
        <time>2022-06-28T15:15:23Z</time>
      </trkpt>
      <trkpt lat="41.5327420" lon="1.8752490">
        <ele>173.4</ele>
        <time>2022-06-28T15:15:27Z</time>
      </trkpt>
      <trkpt lat="41.5327620" lon="1.8752920">
        <ele>173.8</ele>
        <time>2022-06-28T15:15:28Z</time>
      </trkpt>
      <trkpt lat="41.5328020" lon="1.8753730">
        <ele>174.4</ele>
        <time>2022-06-28T15:15:30Z</time>
      </trkpt>
      <trkpt lat="41.5328150" lon="1.8754110">
        <ele>174.6</ele>
        <time>2022-06-28T15:15:31Z</time>
      </trkpt>
      <trkpt lat="41.5328250" lon="1.8754720">
        <ele>175.8</ele>
        <time>2022-06-28T15:15:33Z</time>
      </trkpt>
      <trkpt lat="41.5327820" lon="1.8754880">
        <ele>176.6</ele>
        <time>2022-06-28T15:15:35Z</time>
      </trkpt>
      <trkpt lat="41.5326920" lon="1.8754990">
        <ele>176.8</ele>
        <time>2022-06-28T15:15:38Z</time>
      </trkpt>
      <trkpt lat="41.5325070" lon="1.8754840">
        <ele>176.6</ele>
        <time>2022-06-28T15:15:42Z</time>
      </trkpt>
      <trkpt lat="41.5321520" lon="1.8754550">
        <ele>175.6</ele>
        <time>2022-06-28T15:15:49Z</time>
      </trkpt>
      <trkpt lat="41.5319310" lon="1.8755000">
        <ele>175.0</ele>
        <time>2022-06-28T15:15:54Z</time>
      </trkpt>
      <trkpt lat="41.5318780" lon="1.8755070">
        <ele>175.0</ele>
        <time>2022-06-28T15:15:55Z</time>
      </trkpt>
      <trkpt lat="41.5318190" lon="1.8749740">
        <ele>174.6</ele>
        <time>2022-06-28T15:15:57Z</time>
      </trkpt>
      <trkpt lat="41.5318010" lon="1.8746040">
        <ele>174.4</ele>
        <time>2022-06-28T15:15:58Z</time>
      </trkpt>
      <trkpt lat="41.5317880" lon="1.8741390">
        <ele>173.8</ele>
        <time>2022-06-28T15:16:00Z</time>
      </trkpt>
      <trkpt lat="41.5317690" lon="1.8740880">
        <ele>173.6</ele>
        <time>2022-06-28T15:16:01Z</time>
      </trkpt>
      <trkpt lat="41.5317530" lon="1.8741710">
        <ele>173.4</ele>
        <time>2022-06-28T15:16:05Z</time>
      </trkpt>
      <trkpt lat="41.5317370" lon="1.8744180">
        <ele>173.4</ele>
        <time>2022-06-28T15:16:10Z</time>
      </trkpt>
      <trkpt lat="41.5317200" lon="1.8746870">
        <ele>173.6</ele>
        <time>2022-06-28T15:16:14Z</time>
      </trkpt>
      <trkpt lat="41.5317300" lon="1.8748330">
        <ele>173.8</ele>
        <time>2022-06-28T15:16:16Z</time>
      </trkpt>
      <trkpt lat="41.5317800" lon="1.8750230">
        <ele>173.8</ele>
        <time>2022-06-28T15:16:20Z</time>
      </trkpt>
      <trkpt lat="41.5317950" lon="1.8751150">
        <ele>173.6</ele>
        <time>2022-06-28T15:16:24Z</time>
      </trkpt>
      <trkpt lat="41.5317760" lon="1.8753260">
        <ele>173.6</ele>
        <time>2022-06-28T15:16:29Z</time>
      </trkpt>
      <trkpt lat="41.5317520" lon="1.8755730">
        <ele>173.4</ele>
        <time>2022-06-28T15:16:33Z</time>
      </trkpt>
      <trkpt lat="41.5317300" lon="1.8756390">
        <ele>173.4</ele>
        <time>2022-06-28T15:16:34Z</time>
      </trkpt>
      <trkpt lat="41.5316930" lon="1.8757180">
        <ele>173.2</ele>
        <time>2022-06-28T15:16:35Z</time>
      </trkpt>
      <trkpt lat="41.5315810" lon="1.8759010">
        <ele>172.8</ele>
        <time>2022-06-28T15:16:38Z</time>
      </trkpt>
      <trkpt lat="41.5313330" lon="1.8762870">
        <ele>171.0</ele>
        <time>2022-06-28T15:16:43Z</time>
      </trkpt>
      <trkpt lat="41.5312920" lon="1.8763590">
        <ele>171.0</ele>
        <time>2022-06-28T15:16:44Z</time>
      </trkpt>
      <trkpt lat="41.5311840" lon="1.8765520">
        <ele>170.0</ele>
        <time>2022-06-28T15:16:46Z</time>
      </trkpt>
      <trkpt lat="41.5309670" lon="1.8769790">
        <ele>169.0</ele>
        <time>2022-06-28T15:16:50Z</time>
      </trkpt>
      <trkpt lat="41.5307900" lon="1.8773360">
        <ele>167.4</ele>
        <time>2022-06-28T15:16:53Z</time>
      </trkpt>
      <trkpt lat="41.5305600" lon="1.8777640">
        <ele>166.6</ele>
        <time>2022-06-28T15:16:57Z</time>
      </trkpt>
      <trkpt lat="41.5303950" lon="1.8780320">
        <ele>165.2</ele>
        <time>2022-06-28T15:17:00Z</time>
      </trkpt>
      <trkpt lat="41.5302740" lon="1.8782210">
        <ele>164.6</ele>
        <time>2022-06-28T15:17:02Z</time>
      </trkpt>
      <trkpt lat="41.5300920" lon="1.8784910">
        <ele>164.2</ele>
        <time>2022-06-28T15:17:05Z</time>
      </trkpt>
      <trkpt lat="41.5298190" lon="1.8789570">
        <ele>163.6</ele>
        <time>2022-06-28T15:17:10Z</time>
      </trkpt>
      <trkpt lat="41.5296640" lon="1.8793330">
        <ele>163.4</ele>
        <time>2022-06-28T15:17:14Z</time>
      </trkpt>
      <trkpt lat="41.5296320" lon="1.8793930">
        <ele>163.2</ele>
        <time>2022-06-28T15:17:15Z</time>
      </trkpt>
      <trkpt lat="41.5295580" lon="1.8794700">
        <ele>163.2</ele>
        <time>2022-06-28T15:17:17Z</time>
      </trkpt>
      <trkpt lat="41.5294840" lon="1.8794830">
        <ele>163.0</ele>
        <time>2022-06-28T15:17:19Z</time>
      </trkpt>
      <trkpt lat="41.5293360" lon="1.8794870">
        <ele>163.2</ele>
        <time>2022-06-28T15:17:22Z</time>
      </trkpt>
      <trkpt lat="41.5292860" lon="1.8795010">
        <ele>163.2</ele>
        <time>2022-06-28T15:17:23Z</time>
      </trkpt>
      <trkpt lat="41.5292380" lon="1.8795360">
        <ele>163.2</ele>
        <time>2022-06-28T15:17:24Z</time>
      </trkpt>
      <trkpt lat="41.5291880" lon="1.8795940">
        <ele>163.4</ele>
        <time>2022-06-28T15:17:25Z</time>
      </trkpt>
      <trkpt lat="41.5291620" lon="1.8796450">
        <ele>163.6</ele>
        <time>2022-06-28T15:17:26Z</time>
      </trkpt>
      <trkpt lat="41.5291360" lon="1.8798110">
        <ele>164.0</ele>
        <time>2022-06-28T15:17:28Z</time>
      </trkpt>
      <trkpt lat="41.5291800" lon="1.8799740">
        <ele>164.2</ele>
        <time>2022-06-28T15:17:30Z</time>
      </trkpt>
      <trkpt lat="41.5292220" lon="1.8800470">
        <ele>164.2</ele>
        <time>2022-06-28T15:17:31Z</time>
      </trkpt>
      <trkpt lat="41.5292770" lon="1.8801130">
        <ele>164.2</ele>
        <time>2022-06-28T15:17:32Z</time>
      </trkpt>
      <trkpt lat="41.5293750" lon="1.8802410">
        <ele>164.2</ele>
        <time>2022-06-28T15:17:34Z</time>
      </trkpt>
      <trkpt lat="41.5294210" lon="1.8803480">
        <ele>164.2</ele>
        <time>2022-06-28T15:17:35Z</time>
      </trkpt>
      <trkpt lat="41.5294350" lon="1.8804530">
        <ele>164.2</ele>
        <time>2022-06-28T15:17:36Z</time>
      </trkpt>
      <trkpt lat="41.5294190" lon="1.8806530">
        <ele>164.0</ele>
        <time>2022-06-28T15:17:38Z</time>
      </trkpt>
      <trkpt lat="41.5293660" lon="1.8808670">
        <ele>163.6</ele>
        <time>2022-06-28T15:17:40Z</time>
      </trkpt>
      <trkpt lat="41.5292800" lon="1.8810670">
        <ele>163.6</ele>
        <time>2022-06-28T15:17:42Z</time>
      </trkpt>
      <trkpt lat="41.5290380" lon="1.8814520">
        <ele>162.6</ele>
        <time>2022-06-28T15:17:46Z</time>
      </trkpt>
      <trkpt lat="41.5289600" lon="1.8815720">
        <ele>162.0</ele>
        <time>2022-06-28T15:17:47Z</time>
      </trkpt>
      <trkpt lat="41.5287660" lon="1.8818640">
        <ele>160.8</ele>
        <time>2022-06-28T15:17:50Z</time>
      </trkpt>
      <trkpt lat="41.5286220" lon="1.8820790">
        <ele>160.2</ele>
        <time>2022-06-28T15:17:52Z</time>
      </trkpt>
      <trkpt lat="41.5284550" lon="1.8822760">
        <ele>159.0</ele>
        <time>2022-06-28T15:17:54Z</time>
      </trkpt>
      <trkpt lat="41.5282820" lon="1.8824790">
        <ele>158.0</ele>
        <time>2022-06-28T15:17:56Z</time>
      </trkpt>
      <trkpt lat="41.5281800" lon="1.8826080">
        <ele>157.4</ele>
        <time>2022-06-28T15:17:57Z</time>
      </trkpt>
      <trkpt lat="41.5281130" lon="1.8826950">
        <ele>156.8</ele>
        <time>2022-06-28T15:17:58Z</time>
      </trkpt>
      <trkpt lat="41.5279360" lon="1.8829100">
        <ele>155.4</ele>
        <time>2022-06-28T15:18:00Z</time>
      </trkpt>
      <trkpt lat="41.5276380" lon="1.8832470">
        <ele>154.0</ele>
        <time>2022-06-28T15:18:03Z</time>
      </trkpt>
      <trkpt lat="41.5274780" lon="1.8834570">
        <ele>152.6</ele>
        <time>2022-06-28T15:18:05Z</time>
      </trkpt>
      <trkpt lat="41.5273070" lon="1.8837080">
        <ele>151.4</ele>
        <time>2022-06-28T15:18:07Z</time>
      </trkpt>
      <trkpt lat="41.5272100" lon="1.8838650">
        <ele>150.8</ele>
        <time>2022-06-28T15:18:08Z</time>
      </trkpt>
      <trkpt lat="41.5271500" lon="1.8839760">
        <ele>150.2</ele>
        <time>2022-06-28T15:18:09Z</time>
      </trkpt>
      <trkpt lat="41.5270060" lon="1.8842640">
        <ele>148.2</ele>
        <time>2022-06-28T15:18:11Z</time>
      </trkpt>
      <trkpt lat="41.5268850" lon="1.8845770">
        <ele>146.6</ele>
        <time>2022-06-28T15:18:13Z</time>
      </trkpt>
      <trkpt lat="41.5267530" lon="1.8850880">
        <ele>145.2</ele>
        <time>2022-06-28T15:18:16Z</time>
      </trkpt>
      <trkpt lat="41.5267240" lon="1.8852640">
        <ele>145.0</ele>
        <time>2022-06-28T15:18:17Z</time>
      </trkpt>
      <trkpt lat="41.5266690" lon="1.8856140">
        <ele>144.0</ele>
        <time>2022-06-28T15:18:19Z</time>
      </trkpt>
      <trkpt lat="41.5266280" lon="1.8859600">
        <ele>142.8</ele>
        <time>2022-06-28T15:18:21Z</time>
      </trkpt>
      <trkpt lat="41.5265970" lon="1.8862900">
        <ele>141.2</ele>
        <time>2022-06-28T15:18:23Z</time>
      </trkpt>
      <trkpt lat="41.5265520" lon="1.8869110">
        <ele>140.6</ele>
        <time>2022-06-28T15:18:27Z</time>
      </trkpt>
      <trkpt lat="41.5265580" lon="1.8870560">
        <ele>140.6</ele>
        <time>2022-06-28T15:18:28Z</time>
      </trkpt>
      <trkpt lat="41.5265850" lon="1.8872230">
        <ele>140.6</ele>
        <time>2022-06-28T15:18:29Z</time>
      </trkpt>
      <trkpt lat="41.5266470" lon="1.8874600">
        <ele>140.6</ele>
        <time>2022-06-28T15:18:31Z</time>
      </trkpt>
      <trkpt lat="41.5268940" lon="1.8882030">
        <ele>141.0</ele>
        <time>2022-06-28T15:18:37Z</time>
      </trkpt>
      <trkpt lat="41.5271450" lon="1.8888830">
        <ele>141.8</ele>
        <time>2022-06-28T15:18:43Z</time>
      </trkpt>
      <trkpt lat="41.5271880" lon="1.8889920">
        <ele>141.8</ele>
        <time>2022-06-28T15:18:44Z</time>
      </trkpt>
      <trkpt lat="41.5273450" lon="1.8893000">
        <ele>142.2</ele>
        <time>2022-06-28T15:18:47Z</time>
      </trkpt>
      <trkpt lat="41.5274130" lon="1.8893850">
        <ele>142.2</ele>
        <time>2022-06-28T15:18:48Z</time>
      </trkpt>
      <trkpt lat="41.5277120" lon="1.8896540">
        <ele>142.6</ele>
        <time>2022-06-28T15:18:52Z</time>
      </trkpt>
      <trkpt lat="41.5277800" lon="1.8897300">
        <ele>142.6</ele>
        <time>2022-06-28T15:18:53Z</time>
      </trkpt>
      <trkpt lat="41.5278850" lon="1.8899260">
        <ele>142.8</ele>
        <time>2022-06-28T15:18:55Z</time>
      </trkpt>
      <trkpt lat="41.5279080" lon="1.8900390">
        <ele>142.8</ele>
        <time>2022-06-28T15:18:56Z</time>
      </trkpt>
      <trkpt lat="41.5279150" lon="1.8901530">
        <ele>142.8</ele>
        <time>2022-06-28T15:18:57Z</time>
      </trkpt>
      <trkpt lat="41.5279120" lon="1.8903760">
        <ele>143.2</ele>
        <time>2022-06-28T15:18:59Z</time>
      </trkpt>
      <trkpt lat="41.5279110" lon="1.8904850">
        <ele>143.6</ele>
        <time>2022-06-28T15:19:00Z</time>
      </trkpt>
      <trkpt lat="41.5279120" lon="1.8905900">
        <ele>143.8</ele>
        <time>2022-06-28T15:19:01Z</time>
      </trkpt>
      <trkpt lat="41.5279420" lon="1.8907890">
        <ele>144.2</ele>
        <time>2022-06-28T15:19:03Z</time>
      </trkpt>
      <trkpt lat="41.5280100" lon="1.8909660">
        <ele>144.4</ele>
        <time>2022-06-28T15:19:05Z</time>
      </trkpt>
      <trkpt lat="41.5281010" lon="1.8911200">
        <ele>145.0</ele>
        <time>2022-06-28T15:19:07Z</time>
      </trkpt>
      <trkpt lat="41.5284470" lon="1.8916270">
        <ele>145.4</ele>
        <time>2022-06-28T15:19:14Z</time>
      </trkpt>
      <trkpt lat="41.5285080" lon="1.8916800">
        <ele>145.6</ele>
        <time>2022-06-28T15:19:15Z</time>
      </trkpt>
      <trkpt lat="41.5285730" lon="1.8917140">
        <ele>145.6</ele>
        <time>2022-06-28T15:19:16Z</time>
      </trkpt>
      <trkpt lat="41.5287170" lon="1.8917250">
        <ele>145.4</ele>
        <time>2022-06-28T15:19:18Z</time>
      </trkpt>
      <trkpt lat="41.5289990" lon="1.8916160">
        <ele>145.6</ele>
        <time>2022-06-28T15:19:22Z</time>
      </trkpt>
      <trkpt lat="41.5295300" lon="1.8913700">
        <ele>145.6</ele>
        <time>2022-06-28T15:19:30Z</time>
      </trkpt>
      <trkpt lat="41.5296620" lon="1.8913040">
        <ele>145.8</ele>
        <time>2022-06-28T15:19:32Z</time>
      </trkpt>
      <trkpt lat="41.5300520" lon="1.8911210">
        <ele>146.6</ele>
        <time>2022-06-28T15:19:38Z</time>
      </trkpt>
      <trkpt lat="41.5302480" lon="1.8910600">
        <ele>147.0</ele>
        <time>2022-06-28T15:19:41Z</time>
      </trkpt>
      <trkpt lat="41.5307980" lon="1.8909400">
        <ele>147.4</ele>
        <time>2022-06-28T15:19:49Z</time>
      </trkpt>
      <trkpt lat="41.5309460" lon="1.8909120">
        <ele>147.6</ele>
        <time>2022-06-28T15:19:51Z</time>
      </trkpt>
      <trkpt lat="41.5310190" lon="1.8908980">
        <ele>147.4</ele>
        <time>2022-06-28T15:19:52Z</time>
      </trkpt>
      <trkpt lat="41.5315920" lon="1.8907780">
        <ele>147.0</ele>
        <time>2022-06-28T15:20:00Z</time>
      </trkpt>
      <trkpt lat="41.5317440" lon="1.8907430">
        <ele>147.0</ele>
        <time>2022-06-28T15:20:02Z</time>
      </trkpt>
      <trkpt lat="41.5318220" lon="1.8907270">
        <ele>147.0</ele>
        <time>2022-06-28T15:20:03Z</time>
      </trkpt>
      <trkpt lat="41.5323020" lon="1.8906280">
        <ele>146.4</ele>
        <time>2022-06-28T15:20:09Z</time>
      </trkpt>
      <trkpt lat="41.5325340" lon="1.8905570">
        <ele>146.0</ele>
        <time>2022-06-28T15:20:12Z</time>
      </trkpt>
      <trkpt lat="41.5326780" lon="1.8904750">
        <ele>145.8</ele>
        <time>2022-06-28T15:20:14Z</time>
      </trkpt>
      <trkpt lat="41.5328110" lon="1.8903550">
        <ele>145.2</ele>
        <time>2022-06-28T15:20:16Z</time>
      </trkpt>
      <trkpt lat="41.5330250" lon="1.8901470">
        <ele>144.2</ele>
        <time>2022-06-28T15:20:19Z</time>
      </trkpt>
      <trkpt lat="41.5331820" lon="1.8900030">
        <ele>143.2</ele>
        <time>2022-06-28T15:20:21Z</time>
      </trkpt>
      <trkpt lat="41.5332610" lon="1.8899240">
        <ele>142.8</ele>
        <time>2022-06-28T15:20:22Z</time>
      </trkpt>
      <trkpt lat="41.5333410" lon="1.8898450">
        <ele>142.0</ele>
        <time>2022-06-28T15:20:23Z</time>
      </trkpt>
      <trkpt lat="41.5335010" lon="1.8896870">
        <ele>141.0</ele>
        <time>2022-06-28T15:20:25Z</time>
      </trkpt>
      <trkpt lat="41.5336560" lon="1.8895250">
        <ele>139.8</ele>
        <time>2022-06-28T15:20:27Z</time>
      </trkpt>
      <trkpt lat="41.5338130" lon="1.8893710">
        <ele>139.0</ele>
        <time>2022-06-28T15:20:29Z</time>
      </trkpt>
      <trkpt lat="41.5338910" lon="1.8892900">
        <ele>138.2</ele>
        <time>2022-06-28T15:20:30Z</time>
      </trkpt>
      <trkpt lat="41.5339660" lon="1.8892020">
        <ele>137.6</ele>
        <time>2022-06-28T15:20:31Z</time>
      </trkpt>
      <trkpt lat="41.5340330" lon="1.8890990">
        <ele>137.0</ele>
        <time>2022-06-28T15:20:32Z</time>
      </trkpt>
      <trkpt lat="41.5340860" lon="1.8889790">
        <ele>136.0</ele>
        <time>2022-06-28T15:20:33Z</time>
      </trkpt>
      <trkpt lat="41.5341420" lon="1.8887210">
        <ele>134.8</ele>
        <time>2022-06-28T15:20:35Z</time>
      </trkpt>
      <trkpt lat="41.5341410" lon="1.8886130">
        <ele>134.6</ele>
        <time>2022-06-28T15:20:36Z</time>
      </trkpt>
      <trkpt lat="41.5341350" lon="1.8883110">
        <ele>133.0</ele>
        <time>2022-06-28T15:20:38Z</time>
      </trkpt>
      <trkpt lat="41.5341430" lon="1.8881730">
        <ele>132.8</ele>
        <time>2022-06-28T15:20:39Z</time>
      </trkpt>
      <trkpt lat="41.5341850" lon="1.8880450">
        <ele>132.2</ele>
        <time>2022-06-28T15:20:40Z</time>
      </trkpt>
      <trkpt lat="41.5342480" lon="1.8879310">
        <ele>131.6</ele>
        <time>2022-06-28T15:20:41Z</time>
      </trkpt>
      <trkpt lat="41.5343290" lon="1.8878390">
        <ele>130.8</ele>
        <time>2022-06-28T15:20:42Z</time>
      </trkpt>
      <trkpt lat="41.5344300" lon="1.8877770">
        <ele>130.6</ele>
        <time>2022-06-28T15:20:43Z</time>
      </trkpt>
      <trkpt lat="41.5345400" lon="1.8877270">
        <ele>130.0</ele>
        <time>2022-06-28T15:20:44Z</time>
      </trkpt>
      <trkpt lat="41.5346560" lon="1.8876890">
        <ele>128.8</ele>
        <time>2022-06-28T15:20:45Z</time>
      </trkpt>
      <trkpt lat="41.5347710" lon="1.8876410">
        <ele>128.2</ele>
        <time>2022-06-28T15:20:46Z</time>
      </trkpt>
      <trkpt lat="41.5348780" lon="1.8875770">
        <ele>127.2</ele>
        <time>2022-06-28T15:20:47Z</time>
      </trkpt>
      <trkpt lat="41.5350610" lon="1.8874070">
        <ele>125.4</ele>
        <time>2022-06-28T15:20:49Z</time>
      </trkpt>
      <trkpt lat="41.5352300" lon="1.8872360">
        <ele>124.0</ele>
        <time>2022-06-28T15:20:51Z</time>
      </trkpt>
      <trkpt lat="41.5353950" lon="1.8871250">
        <ele>123.4</ele>
        <time>2022-06-28T15:20:53Z</time>
      </trkpt>
      <trkpt lat="41.5354970" lon="1.8870470">
        <ele>123.2</ele>
        <time>2022-06-28T15:20:54Z</time>
      </trkpt>
      <trkpt lat="41.5355750" lon="1.8869690">
        <ele>123.0</ele>
        <time>2022-06-28T15:20:55Z</time>
      </trkpt>
      <trkpt lat="41.5356430" lon="1.8868790">
        <ele>122.6</ele>
        <time>2022-06-28T15:20:56Z</time>
      </trkpt>
      <trkpt lat="41.5357740" lon="1.8866920">
        <ele>122.0</ele>
        <time>2022-06-28T15:20:58Z</time>
      </trkpt>
      <trkpt lat="41.5359450" lon="1.8864000">
        <ele>121.0</ele>
        <time>2022-06-28T15:21:01Z</time>
      </trkpt>
      <trkpt lat="41.5360330" lon="1.8861890">
        <ele>120.6</ele>
        <time>2022-06-28T15:21:03Z</time>
      </trkpt>
      <trkpt lat="41.5361100" lon="1.8859690">
        <ele>120.4</ele>
        <time>2022-06-28T15:21:05Z</time>
      </trkpt>
      <trkpt lat="41.5362350" lon="1.8857870">
        <ele>120.2</ele>
        <time>2022-06-28T15:21:07Z</time>
      </trkpt>
      <trkpt lat="41.5363020" lon="1.8857080">
        <ele>119.8</ele>
        <time>2022-06-28T15:21:08Z</time>
      </trkpt>
      <trkpt lat="41.5365620" lon="1.8853730">
        <ele>119.0</ele>
        <time>2022-06-28T15:21:12Z</time>
      </trkpt>
      <trkpt lat="41.5366350" lon="1.8852990">
        <ele>118.8</ele>
        <time>2022-06-28T15:21:13Z</time>
      </trkpt>
      <trkpt lat="41.5367100" lon="1.8852310">
        <ele>118.6</ele>
        <time>2022-06-28T15:21:14Z</time>
      </trkpt>
      <trkpt lat="41.5367850" lon="1.8851630">
        <ele>118.4</ele>
        <time>2022-06-28T15:21:15Z</time>
      </trkpt>
      <trkpt lat="41.5369080" lon="1.8849920">
        <ele>118.0</ele>
        <time>2022-06-28T15:21:17Z</time>
      </trkpt>
      <trkpt lat="41.5370070" lon="1.8847940">
        <ele>117.4</ele>
        <time>2022-06-28T15:21:19Z</time>
      </trkpt>
      <trkpt lat="41.5371430" lon="1.8846270">
        <ele>117.0</ele>
        <time>2022-06-28T15:21:21Z</time>
      </trkpt>
      <trkpt lat="41.5372890" lon="1.8844690">
        <ele>116.6</ele>
        <time>2022-06-28T15:21:23Z</time>
      </trkpt>
      <trkpt lat="41.5375100" lon="1.8842100">
        <ele>115.6</ele>
        <time>2022-06-28T15:21:26Z</time>
      </trkpt>
      <trkpt lat="41.5376710" lon="1.8840590">
        <ele>114.8</ele>
        <time>2022-06-28T15:21:28Z</time>
      </trkpt>
      <trkpt lat="41.5377500" lon="1.8839850">
        <ele>114.6</ele>
        <time>2022-06-28T15:21:29Z</time>
      </trkpt>
      <trkpt lat="41.5379800" lon="1.8837440">
        <ele>113.2</ele>
        <time>2022-06-28T15:21:32Z</time>
      </trkpt>
      <trkpt lat="41.5381240" lon="1.8835670">
        <ele>112.6</ele>
        <time>2022-06-28T15:21:34Z</time>
      </trkpt>
      <trkpt lat="41.5382660" lon="1.8833890">
        <ele>112.0</ele>
        <time>2022-06-28T15:21:36Z</time>
      </trkpt>
      <trkpt lat="41.5384640" lon="1.8831200">
        <ele>110.8</ele>
        <time>2022-06-28T15:21:39Z</time>
      </trkpt>
      <trkpt lat="41.5385620" lon="1.8829130">
        <ele>110.4</ele>
        <time>2022-06-28T15:21:41Z</time>
      </trkpt>
      <trkpt lat="41.5386500" lon="1.8825700">
        <ele>109.8</ele>
        <time>2022-06-28T15:21:44Z</time>
      </trkpt>
      <trkpt lat="41.5386870" lon="1.8824550">
        <ele>109.6</ele>
        <time>2022-06-28T15:21:45Z</time>
      </trkpt>
      <trkpt lat="41.5387300" lon="1.8823460">
        <ele>109.6</ele>
        <time>2022-06-28T15:21:46Z</time>
      </trkpt>
      <trkpt lat="41.5389370" lon="1.8819370">
        <ele>109.0</ele>
        <time>2022-06-28T15:21:50Z</time>
      </trkpt>
      <trkpt lat="41.5389930" lon="1.8818430">
        <ele>108.8</ele>
        <time>2022-06-28T15:21:51Z</time>
      </trkpt>
      <trkpt lat="41.5393010" lon="1.8814160">
        <ele>108.4</ele>
        <time>2022-06-28T15:21:56Z</time>
      </trkpt>
      <trkpt lat="41.5397440" lon="1.8808570">
        <ele>107.8</ele>
        <time>2022-06-28T15:22:03Z</time>
      </trkpt>
      <trkpt lat="41.5398030" lon="1.8807800">
        <ele>107.6</ele>
        <time>2022-06-28T15:22:04Z</time>
      </trkpt>
      <trkpt lat="41.5400460" lon="1.8804800">
        <ele>107.0</ele>
        <time>2022-06-28T15:22:08Z</time>
      </trkpt>
      <trkpt lat="41.5401200" lon="1.8804240">
        <ele>107.0</ele>
        <time>2022-06-28T15:22:09Z</time>
      </trkpt>
      <trkpt lat="41.5402000" lon="1.8803890">
        <ele>107.0</ele>
        <time>2022-06-28T15:22:10Z</time>
      </trkpt>
      <trkpt lat="41.5403700" lon="1.8803770">
        <ele>106.6</ele>
        <time>2022-06-28T15:22:12Z</time>
      </trkpt>
      <trkpt lat="41.5404560" lon="1.8803880">
        <ele>106.6</ele>
        <time>2022-06-28T15:22:13Z</time>
      </trkpt>
      <trkpt lat="41.5408120" lon="1.8804360">
        <ele>105.8</ele>
        <time>2022-06-28T15:22:17Z</time>
      </trkpt>
      <trkpt lat="41.5411550" lon="1.8805080">
        <ele>105.0</ele>
        <time>2022-06-28T15:22:21Z</time>
      </trkpt>
      <trkpt lat="41.5412360" lon="1.8805430">
        <ele>104.6</ele>
        <time>2022-06-28T15:22:22Z</time>
      </trkpt>
      <trkpt lat="41.5415450" lon="1.8807270">
        <ele>104.0</ele>
        <time>2022-06-28T15:22:26Z</time>
      </trkpt>
      <trkpt lat="41.5416940" lon="1.8808250">
        <ele>103.4</ele>
        <time>2022-06-28T15:22:28Z</time>
      </trkpt>
      <trkpt lat="41.5421320" lon="1.8811010">
        <ele>103.2</ele>
        <time>2022-06-28T15:22:34Z</time>
      </trkpt>
      <trkpt lat="41.5426240" lon="1.8814180">
        <ele>103.4</ele>
        <time>2022-06-28T15:22:41Z</time>
      </trkpt>
      <trkpt lat="41.5428340" lon="1.8815460">
        <ele>103.8</ele>
        <time>2022-06-28T15:22:44Z</time>
      </trkpt>
      <trkpt lat="41.5431440" lon="1.8817380">
        <ele>105.0</ele>
        <time>2022-06-28T15:22:49Z</time>
      </trkpt>
      <trkpt lat="41.5432000" lon="1.8817770">
        <ele>105.6</ele>
        <time>2022-06-28T15:22:50Z</time>
      </trkpt>
      <trkpt lat="41.5433060" lon="1.8818530">
        <ele>106.2</ele>
        <time>2022-06-28T15:22:52Z</time>
      </trkpt>
      <trkpt lat="41.5434940" lon="1.8819710">
        <ele>107.0</ele>
        <time>2022-06-28T15:22:56Z</time>
      </trkpt>
      <trkpt lat="41.5435360" lon="1.8819990">
        <ele>107.4</ele>
        <time>2022-06-28T15:22:57Z</time>
      </trkpt>
      <trkpt lat="41.5436610" lon="1.8820690">
        <ele>108.4</ele>
        <time>2022-06-28T15:23:00Z</time>
      </trkpt>
      <trkpt lat="41.5437330" lon="1.8821200">
        <ele>109.6</ele>
        <time>2022-06-28T15:23:02Z</time>
      </trkpt>
      <trkpt lat="41.5437850" lon="1.8822030">
        <ele>110.2</ele>
        <time>2022-06-28T15:23:04Z</time>
      </trkpt>
      <trkpt lat="41.5437960" lon="1.8822600">
        <ele>110.4</ele>
        <time>2022-06-28T15:23:05Z</time>
      </trkpt>
      <trkpt lat="41.5438020" lon="1.8823160">
        <ele>110.6</ele>
        <time>2022-06-28T15:23:06Z</time>
      </trkpt>
      <trkpt lat="41.5437890" lon="1.8824960">
        <ele>111.8</ele>
        <time>2022-06-28T15:23:09Z</time>
      </trkpt>
      <trkpt lat="41.5437890" lon="1.8825610">
        <ele>112.0</ele>
        <time>2022-06-28T15:23:10Z</time>
      </trkpt>
      <trkpt lat="41.5438110" lon="1.8827710">
        <ele>112.6</ele>
        <time>2022-06-28T15:23:13Z</time>
      </trkpt>
      <trkpt lat="41.5438300" lon="1.8828360">
        <ele>112.8</ele>
        <time>2022-06-28T15:23:14Z</time>
      </trkpt>
      <trkpt lat="41.5438780" lon="1.8829520">
        <ele>113.2</ele>
        <time>2022-06-28T15:23:16Z</time>
      </trkpt>
      <trkpt lat="41.5439690" lon="1.8830900">
        <ele>113.8</ele>
        <time>2022-06-28T15:23:19Z</time>
      </trkpt>
      <trkpt lat="41.5441080" lon="1.8831710">
        <ele>114.4</ele>
        <time>2022-06-28T15:23:22Z</time>
      </trkpt>
      <trkpt lat="41.5441660" lon="1.8831830">
        <ele>114.8</ele>
        <time>2022-06-28T15:23:23Z</time>
      </trkpt>
      <trkpt lat="41.5442090" lon="1.8831850">
        <ele>115.0</ele>
        <time>2022-06-28T15:23:24Z</time>
      </trkpt>
      <trkpt lat="41.5443230" lon="1.8831850">
        <ele>115.4</ele>
        <time>2022-06-28T15:23:26Z</time>
      </trkpt>
      <trkpt lat="41.5444860" lon="1.8831900">
        <ele>115.6</ele>
        <time>2022-06-28T15:23:29Z</time>
      </trkpt>
      <trkpt lat="41.5445790" lon="1.8832370">
        <ele>115.8</ele>
        <time>2022-06-28T15:23:31Z</time>
      </trkpt>
      <trkpt lat="41.5446220" lon="1.8832820">
        <ele>115.8</ele>
        <time>2022-06-28T15:23:32Z</time>
      </trkpt>
      <trkpt lat="41.5446620" lon="1.8833380">
        <ele>116.0</ele>
        <time>2022-06-28T15:23:33Z</time>
      </trkpt>
      <trkpt lat="41.5447880" lon="1.8835420">
        <ele>116.0</ele>
        <time>2022-06-28T15:23:36Z</time>
      </trkpt>
      <trkpt lat="41.5448990" lon="1.8836380">
        <ele>115.8</ele>
        <time>2022-06-28T15:23:38Z</time>
      </trkpt>
      <trkpt lat="41.5450300" lon="1.8837110">
        <ele>115.4</ele>
        <time>2022-06-28T15:23:40Z</time>
      </trkpt>
      <trkpt lat="41.5453430" lon="1.8838680">
        <ele>114.6</ele>
        <time>2022-06-28T15:23:45Z</time>
      </trkpt>
      <trkpt lat="41.5453970" lon="1.8838970">
        <ele>114.6</ele>
        <time>2022-06-28T15:23:46Z</time>
      </trkpt>
      <trkpt lat="41.5454440" lon="1.8839320">
        <ele>114.4</ele>
        <time>2022-06-28T15:23:47Z</time>
      </trkpt>
      <trkpt lat="41.5454830" lon="1.8839750">
        <ele>114.4</ele>
        <time>2022-06-28T15:23:48Z</time>
      </trkpt>
      <trkpt lat="41.5455310" lon="1.8840960">
        <ele>114.6</ele>
        <time>2022-06-28T15:23:50Z</time>
      </trkpt>
      <trkpt lat="41.5455530" lon="1.8841580">
        <ele>114.6</ele>
        <time>2022-06-28T15:23:51Z</time>
      </trkpt>
      <trkpt lat="41.5456230" lon="1.8842350">
        <ele>115.0</ele>
        <time>2022-06-28T15:23:53Z</time>
      </trkpt>
      <trkpt lat="41.5457140" lon="1.8842090">
        <ele>115.2</ele>
        <time>2022-06-28T15:23:55Z</time>
      </trkpt>
      <trkpt lat="41.5457610" lon="1.8841770">
        <ele>115.4</ele>
        <time>2022-06-28T15:23:56Z</time>
      </trkpt>
      <trkpt lat="41.5458070" lon="1.8841490">
        <ele>115.8</ele>
        <time>2022-06-28T15:23:57Z</time>
      </trkpt>
      <trkpt lat="41.5458920" lon="1.8841010">
        <ele>116.2</ele>
        <time>2022-06-28T15:23:59Z</time>
      </trkpt>
      <trkpt lat="41.5459980" lon="1.8840510">
        <ele>116.8</ele>
        <time>2022-06-28T15:24:02Z</time>
      </trkpt>
      <trkpt lat="41.5460120" lon="1.8840230">
        <ele>117.0</ele>
        <time>2022-06-28T15:24:03Z</time>
      </trkpt>
      <trkpt lat="41.5460080" lon="1.8839910">
        <ele>117.4</ele>
        <time>2022-06-28T15:24:04Z</time>
      </trkpt>
      <trkpt lat="41.5459930" lon="1.8839630">
        <ele>117.6</ele>
        <time>2022-06-28T15:24:05Z</time>
      </trkpt>
      <trkpt lat="41.5459400" lon="1.8839610">
        <ele>117.8</ele>
        <time>2022-06-28T15:24:07Z</time>
      </trkpt>
      <trkpt lat="41.5458480" lon="1.8839790">
        <ele>118.0</ele>
        <time>2022-06-28T15:24:11Z</time>
      </trkpt>
      <trkpt lat="41.5458440" lon="1.8839810">
        <ele>118.0</ele>
        <time>2022-06-28T15:24:12Z</time>
      </trkpt>
      <trkpt lat="41.5458440" lon="1.8839810">
        <ele>118.0</ele>
        <time>2022-06-28T15:24:13Z</time>
      </trkpt>
      <trkpt lat="41.5458190" lon="1.8839680">
        <ele>118.2</ele>
        <time>2022-06-28T15:30:58Z</time>
      </trkpt>
      <trkpt lat="41.5457600" lon="1.8839530">
        <ele>118.0</ele>
        <time>2022-06-28T15:31:00Z</time>
      </trkpt>
      <trkpt lat="41.5455530" lon="1.8838520">
        <ele>117.8</ele>
        <time>2022-06-28T15:31:05Z</time>
      </trkpt>
      <trkpt lat="41.5453400" lon="1.8837490">
        <ele>117.2</ele>
        <time>2022-06-28T15:31:09Z</time>
      </trkpt>
      <trkpt lat="41.5452220" lon="1.8836970">
        <ele>116.2</ele>
        <time>2022-06-28T15:31:11Z</time>
      </trkpt>
      <trkpt lat="41.5448440" lon="1.8834910">
        <ele>115.2</ele>
        <time>2022-06-28T15:31:18Z</time>
      </trkpt>
      <trkpt lat="41.5447090" lon="1.8832720">
        <ele>115.6</ele>
        <time>2022-06-28T15:31:22Z</time>
      </trkpt>
      <trkpt lat="41.5446860" lon="1.8832220">
        <ele>115.8</ele>
        <time>2022-06-28T15:31:23Z</time>
      </trkpt>
      <trkpt lat="41.5446630" lon="1.8831130">
        <ele>116.0</ele>
        <time>2022-06-28T15:31:25Z</time>
      </trkpt>
      <trkpt lat="41.5446920" lon="1.8829420">
        <ele>116.6</ele>
        <time>2022-06-28T15:31:28Z</time>
      </trkpt>
      <trkpt lat="41.5447160" lon="1.8828870">
        <ele>117.0</ele>
        <time>2022-06-28T15:31:29Z</time>
      </trkpt>
      <trkpt lat="41.5447850" lon="1.8827070">
        <ele>117.4</ele>
        <time>2022-06-28T15:31:32Z</time>
      </trkpt>
      <trkpt lat="41.5448070" lon="1.8825670">
        <ele>117.4</ele>
        <time>2022-06-28T15:31:34Z</time>
      </trkpt>
      <trkpt lat="41.5448080" lon="1.8824900">
        <ele>117.4</ele>
        <time>2022-06-28T15:31:35Z</time>
      </trkpt>
      <trkpt lat="41.5448030" lon="1.8824100">
        <ele>117.4</ele>
        <time>2022-06-28T15:31:36Z</time>
      </trkpt>
      <trkpt lat="41.5447470" lon="1.8821840">
        <ele>117.0</ele>
        <time>2022-06-28T15:31:39Z</time>
      </trkpt>
      <trkpt lat="41.5446500" lon="1.8819910">
        <ele>116.4</ele>
        <time>2022-06-28T15:31:42Z</time>
      </trkpt>
      <trkpt lat="41.5446070" lon="1.8819390">
        <ele>116.4</ele>
        <time>2022-06-28T15:31:43Z</time>
      </trkpt>
      <trkpt lat="41.5444970" lon="1.8818620">
        <ele>115.8</ele>
        <time>2022-06-28T15:31:45Z</time>
      </trkpt>
      <trkpt lat="41.5443720" lon="1.8818180">
        <ele>115.4</ele>
        <time>2022-06-28T15:31:47Z</time>
      </trkpt>
      <trkpt lat="41.5443060" lon="1.8818080">
        <ele>115.2</ele>
        <time>2022-06-28T15:31:48Z</time>
      </trkpt>
      <trkpt lat="41.5442400" lon="1.8818110">
        <ele>114.8</ele>
        <time>2022-06-28T15:31:49Z</time>
      </trkpt>
      <trkpt lat="41.5441050" lon="1.8818650">
        <ele>114.6</ele>
        <time>2022-06-28T15:31:51Z</time>
      </trkpt>
      <trkpt lat="41.5438690" lon="1.8820550">
        <ele>114.2</ele>
        <time>2022-06-28T15:31:55Z</time>
      </trkpt>
      <trkpt lat="41.5438070" lon="1.8820660">
        <ele>114.0</ele>
        <time>2022-06-28T15:31:56Z</time>
      </trkpt>
      <trkpt lat="41.5437450" lon="1.8820490">
        <ele>114.0</ele>
        <time>2022-06-28T15:31:57Z</time>
      </trkpt>
      <trkpt lat="41.5436830" lon="1.8820120">
        <ele>113.8</ele>
        <time>2022-06-28T15:31:58Z</time>
      </trkpt>
      <trkpt lat="41.5433260" lon="1.8817730">
        <ele>113.0</ele>
        <time>2022-06-28T15:32:03Z</time>
      </trkpt>
      <trkpt lat="41.5430660" lon="1.8815980">
        <ele>112.0</ele>
        <time>2022-06-28T15:32:06Z</time>
      </trkpt>
      <trkpt lat="41.5427900" lon="1.8814300">
        <ele>110.4</ele>
        <time>2022-06-28T15:32:09Z</time>
      </trkpt>
      <trkpt lat="41.5426090" lon="1.8813150">
        <ele>109.0</ele>
        <time>2022-06-28T15:32:11Z</time>
      </trkpt>
      <trkpt lat="41.5424360" lon="1.8812080">
        <ele>107.8</ele>
        <time>2022-06-28T15:32:13Z</time>
      </trkpt>
      <trkpt lat="41.5422720" lon="1.8811030">
        <ele>106.6</ele>
        <time>2022-06-28T15:32:15Z</time>
      </trkpt>
      <trkpt lat="41.5421080" lon="1.8810000">
        <ele>106.0</ele>
        <time>2022-06-28T15:32:17Z</time>
      </trkpt>
      <trkpt lat="41.5419480" lon="1.8809000">
        <ele>105.4</ele>
        <time>2022-06-28T15:32:19Z</time>
      </trkpt>
      <trkpt lat="41.5415610" lon="1.8806550">
        <ele>105.4</ele>
        <time>2022-06-28T15:32:24Z</time>
      </trkpt>
      <trkpt lat="41.5411120" lon="1.8804040">
        <ele>104.8</ele>
        <time>2022-06-28T15:32:30Z</time>
      </trkpt>
      <trkpt lat="41.5410610" lon="1.8802850">
        <ele>104.8</ele>
        <time>2022-06-28T15:32:32Z</time>
      </trkpt>
      <trkpt lat="41.5411070" lon="1.8800200">
        <ele>104.8</ele>
        <time>2022-06-28T15:32:35Z</time>
      </trkpt>
      <trkpt lat="41.5411240" lon="1.8799270">
        <ele>104.6</ele>
        <time>2022-06-28T15:32:36Z</time>
      </trkpt>
      <trkpt lat="41.5412880" lon="1.8791950">
        <ele>104.6</ele>
        <time>2022-06-28T15:32:44Z</time>
      </trkpt>
      <trkpt lat="41.5413110" lon="1.8791270">
        <ele>104.6</ele>
        <time>2022-06-28T15:32:45Z</time>
      </trkpt>
      <trkpt lat="41.5415450" lon="1.8786170">
        <ele>105.0</ele>
        <time>2022-06-28T15:32:51Z</time>
      </trkpt>
      <trkpt lat="41.5417400" lon="1.8782580">
        <ele>105.6</ele>
        <time>2022-06-28T15:32:56Z</time>
      </trkpt>
      <trkpt lat="41.5417910" lon="1.8781920">
        <ele>106.0</ele>
        <time>2022-06-28T15:32:57Z</time>
      </trkpt>
      <trkpt lat="41.5419750" lon="1.8779170">
        <ele>106.6</ele>
        <time>2022-06-28T15:33:01Z</time>
      </trkpt>
      <trkpt lat="41.5420270" lon="1.8778150">
        <ele>106.8</ele>
        <time>2022-06-28T15:33:02Z</time>
      </trkpt>
      <trkpt lat="41.5420880" lon="1.8776480">
        <ele>106.6</ele>
        <time>2022-06-28T15:33:04Z</time>
      </trkpt>
      <trkpt lat="41.5421180" lon="1.8774690">
        <ele>106.6</ele>
        <time>2022-06-28T15:33:06Z</time>
      </trkpt>
      <trkpt lat="41.5421980" lon="1.8768420">
        <ele>107.2</ele>
        <time>2022-06-28T15:33:14Z</time>
      </trkpt>
      <trkpt lat="41.5422580" lon="1.8765500">
        <ele>108.2</ele>
        <time>2022-06-28T15:33:18Z</time>
      </trkpt>
      <trkpt lat="41.5422710" lon="1.8764050">
        <ele>108.6</ele>
        <time>2022-06-28T15:33:20Z</time>
      </trkpt>
      <trkpt lat="41.5422680" lon="1.8763140">
        <ele>108.8</ele>
        <time>2022-06-28T15:33:21Z</time>
      </trkpt>
      <trkpt lat="41.5423410" lon="1.8758650">
        <ele>109.4</ele>
        <time>2022-06-28T15:33:27Z</time>
      </trkpt>
      <trkpt lat="41.5423750" lon="1.8756510">
        <ele>110.0</ele>
        <time>2022-06-28T15:33:30Z</time>
      </trkpt>
      <trkpt lat="41.5424050" lon="1.8753930">
        <ele>110.6</ele>
        <time>2022-06-28T15:33:34Z</time>
      </trkpt>
      <trkpt lat="41.5424100" lon="1.8753050">
        <ele>110.6</ele>
        <time>2022-06-28T15:33:35Z</time>
      </trkpt>
      <trkpt lat="41.5424080" lon="1.8752460">
        <ele>110.6</ele>
        <time>2022-06-28T15:33:36Z</time>
      </trkpt>
      <trkpt lat="41.5424320" lon="1.8749460">
        <ele>111.0</ele>
        <time>2022-06-28T15:33:40Z</time>
      </trkpt>
      <trkpt lat="41.5424610" lon="1.8748120">
        <ele>111.2</ele>
        <time>2022-06-28T15:33:42Z</time>
      </trkpt>
      <trkpt lat="41.5424980" lon="1.8746460">
        <ele>111.6</ele>
        <time>2022-06-28T15:33:44Z</time>
      </trkpt>
      <trkpt lat="41.5425110" lon="1.8745710">
        <ele>111.6</ele>
        <time>2022-06-28T15:33:45Z</time>
      </trkpt>
      <trkpt lat="41.5426700" lon="1.8740410">
        <ele>112.4</ele>
        <time>2022-06-28T15:33:52Z</time>
      </trkpt>
      <trkpt lat="41.5428370" lon="1.8735000">
        <ele>112.6</ele>
        <time>2022-06-28T15:33:59Z</time>
      </trkpt>
      <trkpt lat="41.5428660" lon="1.8734140">
        <ele>112.6</ele>
        <time>2022-06-28T15:34:00Z</time>
      </trkpt>
      <trkpt lat="41.5429040" lon="1.8733340">
        <ele>112.6</ele>
        <time>2022-06-28T15:34:01Z</time>
      </trkpt>
      <trkpt lat="41.5429450" lon="1.8732350">
        <ele>112.6</ele>
        <time>2022-06-28T15:34:02Z</time>
      </trkpt>
      <trkpt lat="41.5429760" lon="1.8731660">
        <ele>112.6</ele>
        <time>2022-06-28T15:34:03Z</time>
      </trkpt>
      <trkpt lat="41.5430160" lon="1.8730930">
        <ele>112.6</ele>
        <time>2022-06-28T15:34:04Z</time>
      </trkpt>
      <trkpt lat="41.5431870" lon="1.8729160">
        <ele>112.6</ele>
        <time>2022-06-28T15:34:07Z</time>
      </trkpt>
      <trkpt lat="41.5432760" lon="1.8728110">
        <ele>112.4</ele>
        <time>2022-06-28T15:34:09Z</time>
      </trkpt>
      <trkpt lat="41.5433670" lon="1.8726890">
        <ele>112.2</ele>
        <time>2022-06-28T15:34:11Z</time>
      </trkpt>
      <trkpt lat="41.5435760" lon="1.8724400">
        <ele>111.4</ele>
        <time>2022-06-28T15:34:15Z</time>
      </trkpt>
      <trkpt lat="41.5436460" lon="1.8723650">
        <ele>111.0</ele>
        <time>2022-06-28T15:34:16Z</time>
      </trkpt>
      <trkpt lat="41.5437100" lon="1.8723090">
        <ele>110.8</ele>
        <time>2022-06-28T15:34:17Z</time>
      </trkpt>
      <trkpt lat="41.5438540" lon="1.8722240">
        <ele>110.4</ele>
        <time>2022-06-28T15:34:19Z</time>
      </trkpt>
      <trkpt lat="41.5439310" lon="1.8721970">
        <ele>110.4</ele>
        <time>2022-06-28T15:34:20Z</time>
      </trkpt>
      <trkpt lat="41.5442620" lon="1.8721320">
        <ele>109.2</ele>
        <time>2022-06-28T15:34:24Z</time>
      </trkpt>
      <trkpt lat="41.5444310" lon="1.8720940">
        <ele>109.0</ele>
        <time>2022-06-28T15:34:26Z</time>
      </trkpt>
      <trkpt lat="41.5446720" lon="1.8720690">
        <ele>108.2</ele>
        <time>2022-06-28T15:34:29Z</time>
      </trkpt>
      <trkpt lat="41.5447680" lon="1.8721040">
        <ele>108.0</ele>
        <time>2022-06-28T15:34:30Z</time>
      </trkpt>
      <trkpt lat="41.5450990" lon="1.8722430">
        <ele>107.2</ele>
        <time>2022-06-28T15:34:34Z</time>
      </trkpt>
      <trkpt lat="41.5451700" lon="1.8722480">
        <ele>107.2</ele>
        <time>2022-06-28T15:34:35Z</time>
      </trkpt>
      <trkpt lat="41.5452570" lon="1.8722450">
        <ele>107.2</ele>
        <time>2022-06-28T15:34:36Z</time>
      </trkpt>
      <trkpt lat="41.5454320" lon="1.8722000">
        <ele>107.0</ele>
        <time>2022-06-28T15:34:38Z</time>
      </trkpt>
      <trkpt lat="41.5455070" lon="1.8721590">
        <ele>107.0</ele>
        <time>2022-06-28T15:34:39Z</time>
      </trkpt>
      <trkpt lat="41.5459320" lon="1.8718880">
        <ele>107.4</ele>
        <time>2022-06-28T15:34:45Z</time>
      </trkpt>
      <trkpt lat="41.5460740" lon="1.8718280">
        <ele>107.4</ele>
        <time>2022-06-28T15:34:47Z</time>
      </trkpt>
      <trkpt lat="41.5462290" lon="1.8718220">
        <ele>107.6</ele>
        <time>2022-06-28T15:34:49Z</time>
      </trkpt>
      <trkpt lat="41.5462960" lon="1.8718300">
        <ele>107.6</ele>
        <time>2022-06-28T15:34:50Z</time>
      </trkpt>
      <trkpt lat="41.5466040" lon="1.8718890">
        <ele>107.8</ele>
        <time>2022-06-28T15:34:54Z</time>
      </trkpt>
      <trkpt lat="41.5471460" lon="1.8720130">
        <ele>107.8</ele>
        <time>2022-06-28T15:35:01Z</time>
      </trkpt>
      <trkpt lat="41.5472250" lon="1.8720140">
        <ele>107.6</ele>
        <time>2022-06-28T15:35:02Z</time>
      </trkpt>
      <trkpt lat="41.5473700" lon="1.8719810">
        <ele>107.4</ele>
        <time>2022-06-28T15:35:04Z</time>
      </trkpt>
      <trkpt lat="41.5475140" lon="1.8718950">
        <ele>106.8</ele>
        <time>2022-06-28T15:35:06Z</time>
      </trkpt>
      <trkpt lat="41.5476410" lon="1.8717680">
        <ele>106.6</ele>
        <time>2022-06-28T15:35:08Z</time>
      </trkpt>
      <trkpt lat="41.5477550" lon="1.8716310">
        <ele>106.6</ele>
        <time>2022-06-28T15:35:10Z</time>
      </trkpt>
      <trkpt lat="41.5480050" lon="1.8713280">
        <ele>106.8</ele>
        <time>2022-06-28T15:35:15Z</time>
      </trkpt>
      <trkpt lat="41.5483120" lon="1.8709510">
        <ele>108.0</ele>
        <time>2022-06-28T15:35:22Z</time>
      </trkpt>
      <trkpt lat="41.5484440" lon="1.8707970">
        <ele>108.4</ele>
        <time>2022-06-28T15:35:25Z</time>
      </trkpt>
      <trkpt lat="41.5485340" lon="1.8706960">
        <ele>109.4</ele>
        <time>2022-06-28T15:35:27Z</time>
      </trkpt>
      <trkpt lat="41.5486600" lon="1.8705360">
        <ele>110.4</ele>
        <time>2022-06-28T15:35:30Z</time>
      </trkpt>
      <trkpt lat="41.5487020" lon="1.8704820">
        <ele>110.6</ele>
        <time>2022-06-28T15:35:31Z</time>
      </trkpt>
      <trkpt lat="41.5488150" lon="1.8703390">
        <ele>111.8</ele>
        <time>2022-06-28T15:35:34Z</time>
      </trkpt>
      <trkpt lat="41.5488520" lon="1.8703130">
        <ele>112.0</ele>
        <time>2022-06-28T15:35:35Z</time>
      </trkpt>
      <trkpt lat="41.5489130" lon="1.8703380">
        <ele>112.6</ele>
        <time>2022-06-28T15:35:37Z</time>
      </trkpt>
      <trkpt lat="41.5489360" lon="1.8703730">
        <ele>112.8</ele>
        <time>2022-06-28T15:35:38Z</time>
      </trkpt>
      <trkpt lat="41.5489560" lon="1.8704130">
        <ele>113.0</ele>
        <time>2022-06-28T15:35:39Z</time>
      </trkpt>
      <trkpt lat="41.5490370" lon="1.8706010">
        <ele>114.2</ele>
        <time>2022-06-28T15:35:43Z</time>
      </trkpt>
      <trkpt lat="41.5490420" lon="1.8706480">
        <ele>114.4</ele>
        <time>2022-06-28T15:35:44Z</time>
      </trkpt>
      <trkpt lat="41.5491200" lon="1.8709170">
        <ele>114.8</ele>
        <time>2022-06-28T15:35:49Z</time>
      </trkpt>
      <trkpt lat="41.5492870" lon="1.8710440">
        <ele>115.4</ele>
        <time>2022-06-28T15:35:53Z</time>
      </trkpt>
      <trkpt lat="41.5495490" lon="1.8712330">
        <ele>115.8</ele>
        <time>2022-06-28T15:35:58Z</time>
      </trkpt>
      <trkpt lat="41.5498370" lon="1.8714600">
        <ele>116.0</ele>
        <time>2022-06-28T15:36:04Z</time>
      </trkpt>
      <trkpt lat="41.5498840" lon="1.8715070">
        <ele>116.0</ele>
        <time>2022-06-28T15:36:06Z</time>
      </trkpt>
      <trkpt lat="41.5499060" lon="1.8715380">
        <ele>116.0</ele>
        <time>2022-06-28T15:36:07Z</time>
      </trkpt>
      <trkpt lat="41.5500150" lon="1.8716080">
        <ele>116.4</ele>
        <time>2022-06-28T15:36:09Z</time>
      </trkpt>
      <trkpt lat="41.5501320" lon="1.8716760">
        <ele>116.8</ele>
        <time>2022-06-28T15:36:11Z</time>
      </trkpt>
      <trkpt lat="41.5502920" lon="1.8717960">
        <ele>117.2</ele>
        <time>2022-06-28T15:36:14Z</time>
      </trkpt>
      <trkpt lat="41.5503620" lon="1.8718170">
        <ele>117.6</ele>
        <time>2022-06-28T15:36:16Z</time>
      </trkpt>
      <trkpt lat="41.5504430" lon="1.8718290">
        <ele>118.0</ele>
        <time>2022-06-28T15:36:18Z</time>
      </trkpt>
      <trkpt lat="41.5506780" lon="1.8719270">
        <ele>118.6</ele>
        <time>2022-06-28T15:36:22Z</time>
      </trkpt>
      <trkpt lat="41.5507850" lon="1.8719630">
        <ele>119.0</ele>
        <time>2022-06-28T15:36:24Z</time>
      </trkpt>
      <trkpt lat="41.5510580" lon="1.8720530">
        <ele>120.2</ele>
        <time>2022-06-28T15:36:29Z</time>
      </trkpt>
      <trkpt lat="41.5514390" lon="1.8721730">
        <ele>119.4</ele>
        <time>2022-06-28T15:36:35Z</time>
      </trkpt>
      <trkpt lat="41.5514970" lon="1.8721930">
        <ele>118.8</ele>
        <time>2022-06-28T15:36:36Z</time>
      </trkpt>
      <trkpt lat="41.5515920" lon="1.8722370">
        <ele>117.6</ele>
        <time>2022-06-28T15:36:38Z</time>
      </trkpt>
      <trkpt lat="41.5517150" lon="1.8722850">
        <ele>116.6</ele>
        <time>2022-06-28T15:36:40Z</time>
      </trkpt>
      <trkpt lat="41.5517810" lon="1.8723070">
        <ele>116.2</ele>
        <time>2022-06-28T15:36:41Z</time>
      </trkpt>
      <trkpt lat="41.5519040" lon="1.8723500">
        <ele>115.0</ele>
        <time>2022-06-28T15:36:43Z</time>
      </trkpt>
      <trkpt lat="41.5520260" lon="1.8724070">
        <ele>113.6</ele>
        <time>2022-06-28T15:36:45Z</time>
      </trkpt>
      <trkpt lat="41.5520840" lon="1.8724390">
        <ele>113.4</ele>
        <time>2022-06-28T15:36:46Z</time>
      </trkpt>
      <trkpt lat="41.5521350" lon="1.8724770">
        <ele>113.0</ele>
        <time>2022-06-28T15:36:47Z</time>
      </trkpt>
      <trkpt lat="41.5523040" lon="1.8726080">
        <ele>112.4</ele>
        <time>2022-06-28T15:36:50Z</time>
      </trkpt>
      <trkpt lat="41.5525200" lon="1.8728090">
        <ele>111.4</ele>
        <time>2022-06-28T15:36:55Z</time>
      </trkpt>
      <trkpt lat="41.5526720" lon="1.8729440">
        <ele>111.8</ele>
        <time>2022-06-28T15:37:00Z</time>
      </trkpt>
      <trkpt lat="41.5527810" lon="1.8730520">
        <ele>112.8</ele>
        <time>2022-06-28T15:37:05Z</time>
      </trkpt>
      <trkpt lat="41.5529140" lon="1.8731710">
        <ele>114.0</ele>
        <time>2022-06-28T15:37:10Z</time>
      </trkpt>
      <trkpt lat="41.5529390" lon="1.8731930">
        <ele>114.2</ele>
        <time>2022-06-28T15:37:11Z</time>
      </trkpt>
      <trkpt lat="41.5529930" lon="1.8732320">
        <ele>115.4</ele>
        <time>2022-06-28T15:37:13Z</time>
      </trkpt>
      <trkpt lat="41.5530630" lon="1.8732900">
        <ele>116.4</ele>
        <time>2022-06-28T15:37:16Z</time>
      </trkpt>
      <trkpt lat="41.5531630" lon="1.8733620">
        <ele>117.6</ele>
        <time>2022-06-28T15:37:20Z</time>
      </trkpt>
      <trkpt lat="41.5532520" lon="1.8734220">
        <ele>118.8</ele>
        <time>2022-06-28T15:37:23Z</time>
      </trkpt>
      <trkpt lat="41.5533800" lon="1.8734880">
        <ele>119.6</ele>
        <time>2022-06-28T15:37:27Z</time>
      </trkpt>
      <trkpt lat="41.5534290" lon="1.8735230">
        <ele>120.4</ele>
        <time>2022-06-28T15:37:29Z</time>
      </trkpt>
      <trkpt lat="41.5535030" lon="1.8735840">
        <ele>121.8</ele>
        <time>2022-06-28T15:37:32Z</time>
      </trkpt>
      <trkpt lat="41.5535260" lon="1.8735960">
        <ele>122.0</ele>
        <time>2022-06-28T15:37:33Z</time>
      </trkpt>
      <trkpt lat="41.5536070" lon="1.8736590">
        <ele>123.8</ele>
        <time>2022-06-28T15:37:37Z</time>
      </trkpt>
      <trkpt lat="41.5536270" lon="1.8736740">
        <ele>124.0</ele>
        <time>2022-06-28T15:37:38Z</time>
      </trkpt>
      <trkpt lat="41.5537060" lon="1.8737430">
        <ele>125.2</ele>
        <time>2022-06-28T15:37:42Z</time>
      </trkpt>
      <trkpt lat="41.5537250" lon="1.8737640">
        <ele>125.6</ele>
        <time>2022-06-28T15:37:43Z</time>
      </trkpt>
      <trkpt lat="41.5537680" lon="1.8738320">
        <ele>126.4</ele>
        <time>2022-06-28T15:37:46Z</time>
      </trkpt>
      <trkpt lat="41.5538350" lon="1.8739730">
        <ele>127.4</ele>
        <time>2022-06-28T15:37:51Z</time>
      </trkpt>
      <trkpt lat="41.5538720" lon="1.8740310">
        <ele>128.0</ele>
        <time>2022-06-28T15:37:53Z</time>
      </trkpt>
      <trkpt lat="41.5539590" lon="1.8741340">
        <ele>129.0</ele>
        <time>2022-06-28T15:37:57Z</time>
      </trkpt>
      <trkpt lat="41.5540660" lon="1.8742080">
        <ele>130.2</ele>
        <time>2022-06-28T15:38:01Z</time>
      </trkpt>
      <trkpt lat="41.5541150" lon="1.8742330">
        <ele>130.6</ele>
        <time>2022-06-28T15:38:03Z</time>
      </trkpt>
      <trkpt lat="41.5542230" lon="1.8742720">
        <ele>131.8</ele>
        <time>2022-06-28T15:38:07Z</time>
      </trkpt>
      <trkpt lat="41.5543460" lon="1.8743270">
        <ele>133.0</ele>
        <time>2022-06-28T15:38:12Z</time>
      </trkpt>
      <trkpt lat="41.5544370" lon="1.8743640">
        <ele>134.2</ele>
        <time>2022-06-28T15:38:16Z</time>
      </trkpt>
      <trkpt lat="41.5545280" lon="1.8743900">
        <ele>135.2</ele>
        <time>2022-06-28T15:38:19Z</time>
      </trkpt>
      <trkpt lat="41.5545580" lon="1.8743950">
        <ele>135.2</ele>
        <time>2022-06-28T15:38:20Z</time>
      </trkpt>
      <trkpt lat="41.5547880" lon="1.8744450">
        <ele>136.4</ele>
        <time>2022-06-28T15:38:27Z</time>
      </trkpt>
      <trkpt lat="41.5548240" lon="1.8744540">
        <ele>136.6</ele>
        <time>2022-06-28T15:38:28Z</time>
      </trkpt>
      <trkpt lat="41.5551100" lon="1.8745190">
        <ele>137.8</ele>
        <time>2022-06-28T15:38:36Z</time>
      </trkpt>
      <trkpt lat="41.5553130" lon="1.8745600">
        <ele>138.6</ele>
        <time>2022-06-28T15:38:42Z</time>
      </trkpt>
      <trkpt lat="41.5554220" lon="1.8745810">
        <ele>138.8</ele>
        <time>2022-06-28T15:38:45Z</time>
      </trkpt>
      <trkpt lat="41.5555840" lon="1.8746220">
        <ele>139.4</ele>
        <time>2022-06-28T15:38:50Z</time>
      </trkpt>
      <trkpt lat="41.5556780" lon="1.8746490">
        <ele>139.8</ele>
        <time>2022-06-28T15:38:53Z</time>
      </trkpt>
      <trkpt lat="41.5557680" lon="1.8747060">
        <ele>140.2</ele>
        <time>2022-06-28T15:38:56Z</time>
      </trkpt>
      <trkpt lat="41.5557910" lon="1.8747330">
        <ele>140.2</ele>
        <time>2022-06-28T15:38:57Z</time>
      </trkpt>
      <trkpt lat="41.5558740" lon="1.8749050">
        <ele>140.6</ele>
        <time>2022-06-28T15:39:01Z</time>
      </trkpt>
      <trkpt lat="41.5559010" lon="1.8749910">
        <ele>141.0</ele>
        <time>2022-06-28T15:39:03Z</time>
      </trkpt>
      <trkpt lat="41.5559930" lon="1.8751470">
        <ele>142.4</ele>
        <time>2022-06-28T15:39:07Z</time>
      </trkpt>
      <trkpt lat="41.5561390" lon="1.8752940">
        <ele>143.6</ele>
        <time>2022-06-28T15:39:12Z</time>
      </trkpt>
      <trkpt lat="41.5562340" lon="1.8753740">
        <ele>144.0</ele>
        <time>2022-06-28T15:39:15Z</time>
      </trkpt>
      <trkpt lat="41.5564300" lon="1.8755370">
        <ele>144.8</ele>
        <time>2022-06-28T15:39:21Z</time>
      </trkpt>
      <trkpt lat="41.5565350" lon="1.8755710">
        <ele>145.0</ele>
        <time>2022-06-28T15:39:24Z</time>
      </trkpt>
      <trkpt lat="41.5567270" lon="1.8754880">
        <ele>145.6</ele>
        <time>2022-06-28T15:39:29Z</time>
      </trkpt>
      <trkpt lat="41.5568420" lon="1.8753780">
        <ele>146.0</ele>
        <time>2022-06-28T15:39:32Z</time>
      </trkpt>
      <trkpt lat="41.5569230" lon="1.8752850">
        <ele>146.2</ele>
        <time>2022-06-28T15:39:34Z</time>
      </trkpt>
      <trkpt lat="41.5569540" lon="1.8752330">
        <ele>146.2</ele>
        <time>2022-06-28T15:39:35Z</time>
      </trkpt>
      <trkpt lat="41.5571800" lon="1.8748560">
        <ele>146.0</ele>
        <time>2022-06-28T15:39:43Z</time>
      </trkpt>
      <trkpt lat="41.5572470" lon="1.8747850">
        <ele>146.0</ele>
        <time>2022-06-28T15:39:45Z</time>
      </trkpt>
      <trkpt lat="41.5573420" lon="1.8747540">
        <ele>145.8</ele>
        <time>2022-06-28T15:39:47Z</time>
      </trkpt>
      <trkpt lat="41.5574090" lon="1.8748030">
        <ele>146.0</ele>
        <time>2022-06-28T15:39:49Z</time>
      </trkpt>
      <trkpt lat="41.5574350" lon="1.8748510">
        <ele>146.0</ele>
        <time>2022-06-28T15:39:50Z</time>
      </trkpt>
      <trkpt lat="41.5574580" lon="1.8749120">
        <ele>146.0</ele>
        <time>2022-06-28T15:39:51Z</time>
      </trkpt>
      <trkpt lat="41.5575030" lon="1.8751240">
        <ele>146.8</ele>
        <time>2022-06-28T15:39:55Z</time>
      </trkpt>
      <trkpt lat="41.5575520" lon="1.8752240">
        <ele>147.2</ele>
        <time>2022-06-28T15:39:57Z</time>
      </trkpt>
      <trkpt lat="41.5576200" lon="1.8752880">
        <ele>148.0</ele>
        <time>2022-06-28T15:39:59Z</time>
      </trkpt>
      <trkpt lat="41.5577070" lon="1.8753220">
        <ele>148.4</ele>
        <time>2022-06-28T15:40:01Z</time>
      </trkpt>
      <trkpt lat="41.5578850" lon="1.8753820">
        <ele>149.4</ele>
        <time>2022-06-28T15:40:05Z</time>
      </trkpt>
      <trkpt lat="41.5579660" lon="1.8754240">
        <ele>149.6</ele>
        <time>2022-06-28T15:40:07Z</time>
      </trkpt>
      <trkpt lat="41.5581130" lon="1.8755170">
        <ele>150.8</ele>
        <time>2022-06-28T15:40:11Z</time>
      </trkpt>
      <trkpt lat="41.5583780" lon="1.8756700">
        <ele>152.0</ele>
        <time>2022-06-28T15:40:18Z</time>
      </trkpt>
      <trkpt lat="41.5584080" lon="1.8756890">
        <ele>152.2</ele>
        <time>2022-06-28T15:40:19Z</time>
      </trkpt>
      <trkpt lat="41.5586470" lon="1.8758320">
        <ele>153.2</ele>
        <time>2022-06-28T15:40:25Z</time>
      </trkpt>
      <trkpt lat="41.5587350" lon="1.8758560">
        <ele>153.4</ele>
        <time>2022-06-28T15:40:27Z</time>
      </trkpt>
      <trkpt lat="41.5587860" lon="1.8758450">
        <ele>153.6</ele>
        <time>2022-06-28T15:40:28Z</time>
      </trkpt>
      <trkpt lat="41.5588330" lon="1.8758170">
        <ele>153.6</ele>
        <time>2022-06-28T15:40:29Z</time>
      </trkpt>
      <trkpt lat="41.5588820" lon="1.8757260">
        <ele>153.6</ele>
        <time>2022-06-28T15:40:31Z</time>
      </trkpt>
      <trkpt lat="41.5588980" lon="1.8755660">
        <ele>153.2</ele>
        <time>2022-06-28T15:40:33Z</time>
      </trkpt>
      <trkpt lat="41.5588960" lon="1.8754230">
        <ele>152.6</ele>
        <time>2022-06-28T15:40:35Z</time>
      </trkpt>
      <trkpt lat="41.5588970" lon="1.8753280">
        <ele>152.2</ele>
        <time>2022-06-28T15:40:36Z</time>
      </trkpt>
      <trkpt lat="41.5589030" lon="1.8752550">
        <ele>152.0</ele>
        <time>2022-06-28T15:40:37Z</time>
      </trkpt>
      <trkpt lat="41.5589450" lon="1.8751230">
        <ele>151.8</ele>
        <time>2022-06-28T15:40:39Z</time>
      </trkpt>
      <trkpt lat="41.5589740" lon="1.8750870">
        <ele>151.8</ele>
        <time>2022-06-28T15:40:40Z</time>
      </trkpt>
      <trkpt lat="41.5590230" lon="1.8750720">
        <ele>151.2</ele>
        <time>2022-06-28T15:40:41Z</time>
      </trkpt>
      <trkpt lat="41.5590590" lon="1.8750890">
        <ele>150.8</ele>
        <time>2022-06-28T15:40:42Z</time>
      </trkpt>
      <trkpt lat="41.5590860" lon="1.8751160">
        <ele>150.8</ele>
        <time>2022-06-28T15:40:43Z</time>
      </trkpt>
      <trkpt lat="41.5591100" lon="1.8752000">
        <ele>150.4</ele>
        <time>2022-06-28T15:40:45Z</time>
      </trkpt>
      <trkpt lat="41.5591290" lon="1.8752570">
        <ele>149.8</ele>
        <time>2022-06-28T15:40:46Z</time>
      </trkpt>
      <trkpt lat="41.5591790" lon="1.8753720">
        <ele>149.8</ele>
        <time>2022-06-28T15:40:48Z</time>
      </trkpt>
      <trkpt lat="41.5592590" lon="1.8754740">
        <ele>149.6</ele>
        <time>2022-06-28T15:40:50Z</time>
      </trkpt>
      <trkpt lat="41.5593490" lon="1.8755440">
        <ele>149.6</ele>
        <time>2022-06-28T15:40:52Z</time>
      </trkpt>
      <trkpt lat="41.5593880" lon="1.8755650">
        <ele>149.6</ele>
        <time>2022-06-28T15:40:53Z</time>
      </trkpt>
      <trkpt lat="41.5596320" lon="1.8756700">
        <ele>149.8</ele>
        <time>2022-06-28T15:40:58Z</time>
      </trkpt>
      <trkpt lat="41.5599910" lon="1.8758480">
        <ele>149.8</ele>
        <time>2022-06-28T15:41:05Z</time>
      </trkpt>
      <trkpt lat="41.5603870" lon="1.8760630">
        <ele>151.0</ele>
        <time>2022-06-28T15:41:14Z</time>
      </trkpt>
      <trkpt lat="41.5604290" lon="1.8760790">
        <ele>151.2</ele>
        <time>2022-06-28T15:41:15Z</time>
      </trkpt>
      <trkpt lat="41.5605180" lon="1.8760850">
        <ele>151.6</ele>
        <time>2022-06-28T15:41:17Z</time>
      </trkpt>
      <trkpt lat="41.5605640" lon="1.8760740">
        <ele>151.6</ele>
        <time>2022-06-28T15:41:18Z</time>
      </trkpt>
      <trkpt lat="41.5607590" lon="1.8760140">
        <ele>151.8</ele>
        <time>2022-06-28T15:41:22Z</time>
      </trkpt>
      <trkpt lat="41.5607950" lon="1.8760330">
        <ele>151.8</ele>
        <time>2022-06-28T15:41:23Z</time>
      </trkpt>
      <trkpt lat="41.5608370" lon="1.8760870">
        <ele>151.8</ele>
        <time>2022-06-28T15:41:24Z</time>
      </trkpt>
      <trkpt lat="41.5608510" lon="1.8761360">
        <ele>151.8</ele>
        <time>2022-06-28T15:41:25Z</time>
      </trkpt>
      <trkpt lat="41.5608580" lon="1.8762080">
        <ele>151.8</ele>
        <time>2022-06-28T15:41:26Z</time>
      </trkpt>
      <trkpt lat="41.5608560" lon="1.8763190">
        <ele>152.0</ele>
        <time>2022-06-28T15:41:28Z</time>
      </trkpt>
      <trkpt lat="41.5608530" lon="1.8763720">
        <ele>152.4</ele>
        <time>2022-06-28T15:41:29Z</time>
      </trkpt>
      <trkpt lat="41.5608420" lon="1.8765330">
        <ele>153.0</ele>
        <time>2022-06-28T15:41:32Z</time>
      </trkpt>
      <trkpt lat="41.5608470" lon="1.8766270">
        <ele>153.4</ele>
        <time>2022-06-28T15:41:34Z</time>
      </trkpt>
      <trkpt lat="41.5608870" lon="1.8767820">
        <ele>153.6</ele>
        <time>2022-06-28T15:41:37Z</time>
      </trkpt>
      <trkpt lat="41.5609250" lon="1.8768520">
        <ele>154.2</ele>
        <time>2022-06-28T15:41:39Z</time>
      </trkpt>
      <trkpt lat="41.5609850" lon="1.8769210">
        <ele>154.8</ele>
        <time>2022-06-28T15:41:41Z</time>
      </trkpt>
      <trkpt lat="41.5610890" lon="1.8770190">
        <ele>156.2</ele>
        <time>2022-06-28T15:41:45Z</time>
      </trkpt>
      <trkpt lat="41.5612190" lon="1.8771260">
        <ele>157.4</ele>
        <time>2022-06-28T15:41:50Z</time>
      </trkpt>
      <trkpt lat="41.5612720" lon="1.8771520">
        <ele>158.4</ele>
        <time>2022-06-28T15:41:52Z</time>
      </trkpt>
      <trkpt lat="41.5613090" lon="1.8771650">
        <ele>158.8</ele>
        <time>2022-06-28T15:41:53Z</time>
      </trkpt>
      <trkpt lat="41.5614010" lon="1.8771770">
        <ele>159.4</ele>
        <time>2022-06-28T15:41:56Z</time>
      </trkpt>
      <trkpt lat="41.5614200" lon="1.8771600">
        <ele>159.6</ele>
        <time>2022-06-28T15:41:57Z</time>
      </trkpt>
      <trkpt lat="41.5614380" lon="1.8771230">
        <ele>159.6</ele>
        <time>2022-06-28T15:41:58Z</time>
      </trkpt>
      <trkpt lat="41.5614290" lon="1.8770690">
        <ele>160.4</ele>
        <time>2022-06-28T15:42:00Z</time>
      </trkpt>
      <trkpt lat="41.5612770" lon="1.8769740">
        <ele>160.8</ele>
        <time>2022-06-28T15:42:05Z</time>
      </trkpt>
      <trkpt lat="41.5611750" lon="1.8767930">
        <ele>161.2</ele>
        <time>2022-06-28T15:42:10Z</time>
      </trkpt>
      <trkpt lat="41.5611630" lon="1.8766910">
        <ele>161.4</ele>
        <time>2022-06-28T15:42:12Z</time>
      </trkpt>
      <trkpt lat="41.5611700" lon="1.8765530">
        <ele>161.6</ele>
        <time>2022-06-28T15:42:15Z</time>
      </trkpt>
      <trkpt lat="41.5612270" lon="1.8762390">
        <ele>162.6</ele>
        <time>2022-06-28T15:42:22Z</time>
      </trkpt>
      <trkpt lat="41.5612530" lon="1.8761640">
        <ele>163.0</ele>
        <time>2022-06-28T15:42:24Z</time>
      </trkpt>
      <trkpt lat="41.5612940" lon="1.8760790">
        <ele>163.6</ele>
        <time>2022-06-28T15:42:26Z</time>
      </trkpt>
      <trkpt lat="41.5614030" lon="1.8759760">
        <ele>164.8</ele>
        <time>2022-06-28T15:42:30Z</time>
      </trkpt>
      <trkpt lat="41.5615750" lon="1.8759140">
        <ele>166.0</ele>
        <time>2022-06-28T15:42:35Z</time>
      </trkpt>
      <trkpt lat="41.5616820" lon="1.8758820">
        <ele>166.4</ele>
        <time>2022-06-28T15:42:38Z</time>
      </trkpt>
      <trkpt lat="41.5617510" lon="1.8758560">
        <ele>167.2</ele>
        <time>2022-06-28T15:42:40Z</time>
      </trkpt>
      <trkpt lat="41.5618910" lon="1.8758270">
        <ele>168.6</ele>
        <time>2022-06-28T15:42:44Z</time>
      </trkpt>
      <trkpt lat="41.5619560" lon="1.8758170">
        <ele>169.0</ele>
        <time>2022-06-28T15:42:46Z</time>
      </trkpt>
      <trkpt lat="41.5620670" lon="1.8758050">
        <ele>169.8</ele>
        <time>2022-06-28T15:42:49Z</time>
      </trkpt>
      <trkpt lat="41.5622530" lon="1.8758140">
        <ele>171.0</ele>
        <time>2022-06-28T15:42:54Z</time>
      </trkpt>
      <trkpt lat="41.5623190" lon="1.8758160">
        <ele>171.4</ele>
        <time>2022-06-28T15:42:56Z</time>
      </trkpt>
      <trkpt lat="41.5624250" lon="1.8758060">
        <ele>172.4</ele>
        <time>2022-06-28T15:42:59Z</time>
      </trkpt>
      <trkpt lat="41.5625280" lon="1.8757710">
        <ele>173.0</ele>
        <time>2022-06-28T15:43:02Z</time>
      </trkpt>
      <trkpt lat="41.5625960" lon="1.8757340">
        <ele>173.6</ele>
        <time>2022-06-28T15:43:04Z</time>
      </trkpt>
      <trkpt lat="41.5627830" lon="1.8755740">
        <ele>174.8</ele>
        <time>2022-06-28T15:43:10Z</time>
      </trkpt>
      <trkpt lat="41.5629520" lon="1.8753600">
        <ele>176.0</ele>
        <time>2022-06-28T15:43:16Z</time>
      </trkpt>
      <trkpt lat="41.5629930" lon="1.8752810">
        <ele>176.6</ele>
        <time>2022-06-28T15:43:18Z</time>
      </trkpt>
      <trkpt lat="41.5630370" lon="1.8751770">
        <ele>177.2</ele>
        <time>2022-06-28T15:43:20Z</time>
      </trkpt>
      <trkpt lat="41.5631260" lon="1.8750080">
        <ele>178.4</ele>
        <time>2022-06-28T15:43:24Z</time>
      </trkpt>
      <trkpt lat="41.5631940" lon="1.8749030">
        <ele>179.4</ele>
        <time>2022-06-28T15:43:27Z</time>
      </trkpt>
      <trkpt lat="41.5632290" lon="1.8748650">
        <ele>179.6</ele>
        <time>2022-06-28T15:43:28Z</time>
      </trkpt>
      <trkpt lat="41.5633740" lon="1.8747890">
        <ele>180.4</ele>
        <time>2022-06-28T15:43:32Z</time>
      </trkpt>
      <trkpt lat="41.5634650" lon="1.8747760">
        <ele>180.8</ele>
        <time>2022-06-28T15:43:34Z</time>
      </trkpt>
      <trkpt lat="41.5635890" lon="1.8747910">
        <ele>181.2</ele>
        <time>2022-06-28T15:43:37Z</time>
      </trkpt>
      <trkpt lat="41.5636560" lon="1.8748370">
        <ele>181.6</ele>
        <time>2022-06-28T15:43:39Z</time>
      </trkpt>
      <trkpt lat="41.5636880" lon="1.8748690">
        <ele>181.8</ele>
        <time>2022-06-28T15:43:40Z</time>
      </trkpt>
      <trkpt lat="41.5637380" lon="1.8749390">
        <ele>182.4</ele>
        <time>2022-06-28T15:43:42Z</time>
      </trkpt>
      <trkpt lat="41.5637710" lon="1.8750260">
        <ele>182.8</ele>
        <time>2022-06-28T15:43:44Z</time>
      </trkpt>
      <trkpt lat="41.5637810" lon="1.8750660">
        <ele>182.8</ele>
        <time>2022-06-28T15:43:45Z</time>
      </trkpt>
      <trkpt lat="41.5637990" lon="1.8751830">
        <ele>183.4</ele>
        <time>2022-06-28T15:43:47Z</time>
      </trkpt>
      <trkpt lat="41.5638190" lon="1.8753280">
        <ele>184.0</ele>
        <time>2022-06-28T15:43:50Z</time>
      </trkpt>
      <trkpt lat="41.5638750" lon="1.8754660">
        <ele>185.0</ele>
        <time>2022-06-28T15:43:53Z</time>
      </trkpt>
      <trkpt lat="41.5639420" lon="1.8755330">
        <ele>185.6</ele>
        <time>2022-06-28T15:43:55Z</time>
      </trkpt>
      <trkpt lat="41.5639880" lon="1.8755600">
        <ele>186.0</ele>
        <time>2022-06-28T15:43:56Z</time>
      </trkpt>
      <trkpt lat="41.5640300" lon="1.8755760">
        <ele>186.4</ele>
        <time>2022-06-28T15:43:57Z</time>
      </trkpt>
      <trkpt lat="41.5640710" lon="1.8755850">
        <ele>186.6</ele>
        <time>2022-06-28T15:43:58Z</time>
      </trkpt>
      <trkpt lat="41.5641520" lon="1.8755840">
        <ele>187.0</ele>
        <time>2022-06-28T15:44:00Z</time>
      </trkpt>
      <trkpt lat="41.5641950" lon="1.8755710">
        <ele>187.4</ele>
        <time>2022-06-28T15:44:01Z</time>
      </trkpt>
      <trkpt lat="41.5642370" lon="1.8755510">
        <ele>187.4</ele>
        <time>2022-06-28T15:44:02Z</time>
      </trkpt>
      <trkpt lat="41.5643090" lon="1.8755130">
        <ele>187.8</ele>
        <time>2022-06-28T15:44:04Z</time>
      </trkpt>
      <trkpt lat="41.5644160" lon="1.8754040">
        <ele>188.2</ele>
        <time>2022-06-28T15:44:07Z</time>
      </trkpt>
      <trkpt lat="41.5644420" lon="1.8753770">
        <ele>188.4</ele>
        <time>2022-06-28T15:44:08Z</time>
      </trkpt>
      <trkpt lat="41.5645290" lon="1.8752410">
        <ele>188.8</ele>
        <time>2022-06-28T15:44:11Z</time>
      </trkpt>
      <trkpt lat="41.5645540" lon="1.8751940">
        <ele>189.0</ele>
        <time>2022-06-28T15:44:12Z</time>
      </trkpt>
      <trkpt lat="41.5646020" lon="1.8751080">
        <ele>177.6</ele>
        <time>2022-06-28T15:44:14Z</time>
      </trkpt>
      <trkpt lat="41.5647210" lon="1.8749210">
        <ele>190.4</ele>
        <time>2022-06-28T15:44:18Z</time>
      </trkpt>
      <trkpt lat="41.5647850" lon="1.8748500">
        <ele>191.0</ele>
        <time>2022-06-28T15:44:20Z</time>
      </trkpt>
      <trkpt lat="41.5648200" lon="1.8748190">
        <ele>191.2</ele>
        <time>2022-06-28T15:44:21Z</time>
      </trkpt>
      <trkpt lat="41.5648520" lon="1.8747970">
        <ele>191.4</ele>
        <time>2022-06-28T15:44:22Z</time>
      </trkpt>
      <trkpt lat="41.5649020" lon="1.8747710">
        <ele>191.8</ele>
        <time>2022-06-28T15:44:23Z</time>
      </trkpt>
      <trkpt lat="41.5649890" lon="1.8747490">
        <ele>192.2</ele>
        <time>2022-06-28T15:44:25Z</time>
      </trkpt>
      <trkpt lat="41.5650240" lon="1.8747470">
        <ele>192.6</ele>
        <time>2022-06-28T15:44:26Z</time>
      </trkpt>
      <trkpt lat="41.5652040" lon="1.8747580">
        <ele>193.8</ele>
        <time>2022-06-28T15:44:30Z</time>
      </trkpt>
      <trkpt lat="41.5653280" lon="1.8747560">
        <ele>194.6</ele>
        <time>2022-06-28T15:44:33Z</time>
      </trkpt>
      <trkpt lat="41.5653710" lon="1.8747460">
        <ele>194.8</ele>
        <time>2022-06-28T15:44:34Z</time>
      </trkpt>
      <trkpt lat="41.5654050" lon="1.8747360">
        <ele>195.0</ele>
        <time>2022-06-28T15:44:35Z</time>
      </trkpt>
      <trkpt lat="41.5655810" lon="1.8746590">
        <ele>196.4</ele>
        <time>2022-06-28T15:44:39Z</time>
      </trkpt>
      <trkpt lat="41.5656670" lon="1.8746270">
        <ele>196.6</ele>
        <time>2022-06-28T15:44:41Z</time>
      </trkpt>
      <trkpt lat="41.5657520" lon="1.8746070">
        <ele>196.8</ele>
        <time>2022-06-28T15:44:43Z</time>
      </trkpt>
      <trkpt lat="41.5658370" lon="1.8746210">
        <ele>197.4</ele>
        <time>2022-06-28T15:44:45Z</time>
      </trkpt>
      <trkpt lat="41.5658760" lon="1.8746430">
        <ele>197.8</ele>
        <time>2022-06-28T15:44:46Z</time>
      </trkpt>
      <trkpt lat="41.5659510" lon="1.8746990">
        <ele>198.0</ele>
        <time>2022-06-28T15:44:48Z</time>
      </trkpt>
      <trkpt lat="41.5660530" lon="1.8747860">
        <ele>198.8</ele>
        <time>2022-06-28T15:44:51Z</time>
      </trkpt>
      <trkpt lat="41.5660860" lon="1.8748100">
        <ele>198.8</ele>
        <time>2022-06-28T15:44:52Z</time>
      </trkpt>
      <trkpt lat="41.5661150" lon="1.8748270">
        <ele>199.2</ele>
        <time>2022-06-28T15:44:53Z</time>
      </trkpt>
      <trkpt lat="41.5662000" lon="1.8748710">
        <ele>200.0</ele>
        <time>2022-06-28T15:44:55Z</time>
      </trkpt>
      <trkpt lat="41.5663980" lon="1.8749500">
        <ele>201.4</ele>
        <time>2022-06-28T15:45:00Z</time>
      </trkpt>
      <trkpt lat="41.5665190" lon="1.8749720">
        <ele>202.0</ele>
        <time>2022-06-28T15:45:03Z</time>
      </trkpt>
      <trkpt lat="41.5665970" lon="1.8749550">
        <ele>202.4</ele>
        <time>2022-06-28T15:45:05Z</time>
      </trkpt>
      <trkpt lat="41.5667530" lon="1.8748810">
        <ele>203.2</ele>
        <time>2022-06-28T15:45:09Z</time>
      </trkpt>
      <trkpt lat="41.5667900" lon="1.8748560">
        <ele>203.6</ele>
        <time>2022-06-28T15:45:10Z</time>
      </trkpt>
      <trkpt lat="41.5668890" lon="1.8747550">
        <ele>204.4</ele>
        <time>2022-06-28T15:45:13Z</time>
      </trkpt>
      <trkpt lat="41.5669150" lon="1.8747170">
        <ele>204.8</ele>
        <time>2022-06-28T15:45:14Z</time>
      </trkpt>
      <trkpt lat="41.5670270" lon="1.8744990">
        <ele>206.2</ele>
        <time>2022-06-28T15:45:19Z</time>
      </trkpt>
      <trkpt lat="41.5670660" lon="1.8743510">
        <ele>207.0</ele>
        <time>2022-06-28T15:45:22Z</time>
      </trkpt>
      <trkpt lat="41.5670770" lon="1.8743020">
        <ele>207.4</ele>
        <time>2022-06-28T15:45:23Z</time>
      </trkpt>
      <trkpt lat="41.5671320" lon="1.8739970">
        <ele>208.2</ele>
        <time>2022-06-28T15:45:29Z</time>
      </trkpt>
      <trkpt lat="41.5671400" lon="1.8739550">
        <ele>208.4</ele>
        <time>2022-06-28T15:45:30Z</time>
      </trkpt>
      <trkpt lat="41.5671880" lon="1.8736430">
        <ele>209.4</ele>
        <time>2022-06-28T15:45:36Z</time>
      </trkpt>
      <trkpt lat="41.5671970" lon="1.8735970">
        <ele>209.6</ele>
        <time>2022-06-28T15:45:37Z</time>
      </trkpt>
      <trkpt lat="41.5672170" lon="1.8734660">
        <ele>210.6</ele>
        <time>2022-06-28T15:45:40Z</time>
      </trkpt>
      <trkpt lat="41.5672590" lon="1.8732180">
        <ele>211.6</ele>
        <time>2022-06-28T15:45:45Z</time>
      </trkpt>
      <trkpt lat="41.5672720" lon="1.8731260">
        <ele>212.2</ele>
        <time>2022-06-28T15:45:47Z</time>
      </trkpt>
      <trkpt lat="41.5672760" lon="1.8729880">
        <ele>213.0</ele>
        <time>2022-06-28T15:45:50Z</time>
      </trkpt>
      <trkpt lat="41.5672610" lon="1.8728640">
        <ele>213.6</ele>
        <time>2022-06-28T15:45:53Z</time>
      </trkpt>
      <trkpt lat="41.5672440" lon="1.8727720">
        <ele>214.0</ele>
        <time>2022-06-28T15:45:55Z</time>
      </trkpt>
      <trkpt lat="41.5672240" lon="1.8726790">
        <ele>214.6</ele>
        <time>2022-06-28T15:45:57Z</time>
      </trkpt>
      <trkpt lat="41.5672000" lon="1.8725900">
        <ele>215.2</ele>
        <time>2022-06-28T15:45:59Z</time>
      </trkpt>
      <trkpt lat="41.5671630" lon="1.8724020">
        <ele>216.0</ele>
        <time>2022-06-28T15:46:03Z</time>
      </trkpt>
      <trkpt lat="41.5671530" lon="1.8723560">
        <ele>216.2</ele>
        <time>2022-06-28T15:46:04Z</time>
      </trkpt>
      <trkpt lat="41.5671310" lon="1.8721300">
        <ele>217.4</ele>
        <time>2022-06-28T15:46:09Z</time>
      </trkpt>
      <trkpt lat="41.5671340" lon="1.8720860">
        <ele>217.6</ele>
        <time>2022-06-28T15:46:10Z</time>
      </trkpt>
      <trkpt lat="41.5671540" lon="1.8719080">
        <ele>218.4</ele>
        <time>2022-06-28T15:46:14Z</time>
      </trkpt>
      <trkpt lat="41.5671800" lon="1.8717710">
        <ele>219.0</ele>
        <time>2022-06-28T15:46:17Z</time>
      </trkpt>
      <trkpt lat="41.5672010" lon="1.8715920">
        <ele>219.8</ele>
        <time>2022-06-28T15:46:21Z</time>
      </trkpt>
      <trkpt lat="41.5672270" lon="1.8714500">
        <ele>220.2</ele>
        <time>2022-06-28T15:46:24Z</time>
      </trkpt>
      <trkpt lat="41.5672610" lon="1.8712470">
        <ele>221.0</ele>
        <time>2022-06-28T15:46:28Z</time>
      </trkpt>
      <trkpt lat="41.5673080" lon="1.8709440">
        <ele>222.0</ele>
        <time>2022-06-28T15:46:34Z</time>
      </trkpt>
      <trkpt lat="41.5673170" lon="1.8708880">
        <ele>222.4</ele>
        <time>2022-06-28T15:46:35Z</time>
      </trkpt>
      <trkpt lat="41.5673360" lon="1.8706570">
        <ele>223.2</ele>
        <time>2022-06-28T15:46:40Z</time>
      </trkpt>
      <trkpt lat="41.5673420" lon="1.8705190">
        <ele>223.8</ele>
        <time>2022-06-28T15:46:43Z</time>
      </trkpt>
      <trkpt lat="41.5673440" lon="1.8703000">
        <ele>224.2</ele>
        <time>2022-06-28T15:46:47Z</time>
      </trkpt>
      <trkpt lat="41.5673610" lon="1.8700360">
        <ele>224.0</ele>
        <time>2022-06-28T15:46:52Z</time>
      </trkpt>
      <trkpt lat="41.5674030" lon="1.8695400">
        <ele>223.4</ele>
        <time>2022-06-28T15:47:01Z</time>
      </trkpt>
      <trkpt lat="41.5674040" lon="1.8693510">
        <ele>223.4</ele>
        <time>2022-06-28T15:47:04Z</time>
      </trkpt>
      <trkpt lat="41.5673870" lon="1.8692200">
        <ele>223.2</ele>
        <time>2022-06-28T15:47:06Z</time>
      </trkpt>
      <trkpt lat="41.5673730" lon="1.8691560">
        <ele>223.0</ele>
        <time>2022-06-28T15:47:07Z</time>
      </trkpt>
      <trkpt lat="41.5672980" lon="1.8688560">
        <ele>223.0</ele>
        <time>2022-06-28T15:47:11Z</time>
      </trkpt>
      <trkpt lat="41.5672900" lon="1.8687750">
        <ele>223.0</ele>
        <time>2022-06-28T15:47:12Z</time>
      </trkpt>
      <trkpt lat="41.5672890" lon="1.8686920">
        <ele>223.0</ele>
        <time>2022-06-28T15:47:13Z</time>
      </trkpt>
      <trkpt lat="41.5673020" lon="1.8685400">
        <ele>223.0</ele>
        <time>2022-06-28T15:47:15Z</time>
      </trkpt>
      <trkpt lat="41.5673200" lon="1.8684550">
        <ele>223.2</ele>
        <time>2022-06-28T15:47:16Z</time>
      </trkpt>
      <trkpt lat="41.5673560" lon="1.8683620">
        <ele>223.2</ele>
        <time>2022-06-28T15:47:17Z</time>
      </trkpt>
      <trkpt lat="41.5674280" lon="1.8682370">
        <ele>223.2</ele>
        <time>2022-06-28T15:47:19Z</time>
      </trkpt>
      <trkpt lat="41.5674680" lon="1.8681430">
        <ele>223.2</ele>
        <time>2022-06-28T15:47:20Z</time>
      </trkpt>
      <trkpt lat="41.5674920" lon="1.8679600">
        <ele>223.0</ele>
        <time>2022-06-28T15:47:22Z</time>
      </trkpt>
      <trkpt lat="41.5674440" lon="1.8675580">
        <ele>222.8</ele>
        <time>2022-06-28T15:47:26Z</time>
      </trkpt>
      <trkpt lat="41.5674540" lon="1.8672630">
        <ele>222.0</ele>
        <time>2022-06-28T15:47:29Z</time>
      </trkpt>
      <trkpt lat="41.5674690" lon="1.8671590">
        <ele>221.8</ele>
        <time>2022-06-28T15:47:30Z</time>
      </trkpt>
      <trkpt lat="41.5674870" lon="1.8670340">
        <ele>221.0</ele>
        <time>2022-06-28T15:47:31Z</time>
      </trkpt>
      <trkpt lat="41.5675440" lon="1.8665280">
        <ele>219.8</ele>
        <time>2022-06-28T15:47:36Z</time>
      </trkpt>
      <trkpt lat="41.5675630" lon="1.8663990">
        <ele>219.8</ele>
        <time>2022-06-28T15:47:37Z</time>
      </trkpt>
      <trkpt lat="41.5676130" lon="1.8661780">
        <ele>219.6</ele>
        <time>2022-06-28T15:47:39Z</time>
      </trkpt>
      <trkpt lat="41.5677090" lon="1.8659770">
        <ele>219.4</ele>
        <time>2022-06-28T15:47:41Z</time>
      </trkpt>
      <trkpt lat="41.5679190" lon="1.8655990">
        <ele>218.8</ele>
        <time>2022-06-28T15:47:45Z</time>
      </trkpt>
      <trkpt lat="41.5680650" lon="1.8653310">
        <ele>217.6</ele>
        <time>2022-06-28T15:47:48Z</time>
      </trkpt>
      <trkpt lat="41.5682320" lon="1.8650120">
        <ele>216.6</ele>
        <time>2022-06-28T15:47:51Z</time>
      </trkpt>
      <trkpt lat="41.5684980" lon="1.8644980">
        <ele>215.2</ele>
        <time>2022-06-28T15:47:56Z</time>
      </trkpt>
      <trkpt lat="41.5685510" lon="1.8643910">
        <ele>215.0</ele>
        <time>2022-06-28T15:47:57Z</time>
      </trkpt>
      <trkpt lat="41.5686600" lon="1.8641850">
        <ele>214.4</ele>
        <time>2022-06-28T15:47:59Z</time>
      </trkpt>
      <trkpt lat="41.5687050" lon="1.8640780">
        <ele>213.8</ele>
        <time>2022-06-28T15:48:00Z</time>
      </trkpt>
      <trkpt lat="41.5687410" lon="1.8639650">
        <ele>213.6</ele>
        <time>2022-06-28T15:48:01Z</time>
      </trkpt>
      <trkpt lat="41.5688080" lon="1.8636020">
        <ele>212.8</ele>
        <time>2022-06-28T15:48:04Z</time>
      </trkpt>
      <trkpt lat="41.5688520" lon="1.8633720">
        <ele>212.6</ele>
        <time>2022-06-28T15:48:06Z</time>
      </trkpt>
      <trkpt lat="41.5689060" lon="1.8630930">
        <ele>211.8</ele>
        <time>2022-06-28T15:48:08Z</time>
      </trkpt>
      <trkpt lat="41.5689650" lon="1.8628390">
        <ele>210.4</ele>
        <time>2022-06-28T15:48:10Z</time>
      </trkpt>
      <trkpt lat="41.5690040" lon="1.8627400">
        <ele>210.2</ele>
        <time>2022-06-28T15:48:11Z</time>
      </trkpt>
      <trkpt lat="41.5690820" lon="1.8626000">
        <ele>209.0</ele>
        <time>2022-06-28T15:48:12Z</time>
      </trkpt>
      <trkpt lat="41.5691600" lon="1.8624960">
        <ele>208.8</ele>
        <time>2022-06-28T15:48:13Z</time>
      </trkpt>
      <trkpt lat="41.5693350" lon="1.8623470">
        <ele>207.8</ele>
        <time>2022-06-28T15:48:15Z</time>
      </trkpt>
      <trkpt lat="41.5695740" lon="1.8620950">
        <ele>206.6</ele>
        <time>2022-06-28T15:48:18Z</time>
      </trkpt>
      <trkpt lat="41.5696450" lon="1.8620070">
        <ele>206.0</ele>
        <time>2022-06-28T15:48:19Z</time>
      </trkpt>
      <trkpt lat="41.5697600" lon="1.8618390">
        <ele>205.0</ele>
        <time>2022-06-28T15:48:21Z</time>
      </trkpt>
      <trkpt lat="41.5698140" lon="1.8617070">
        <ele>204.4</ele>
        <time>2022-06-28T15:48:22Z</time>
      </trkpt>
      <trkpt lat="41.5698390" lon="1.8615850">
        <ele>204.2</ele>
        <time>2022-06-28T15:48:23Z</time>
      </trkpt>
      <trkpt lat="41.5698460" lon="1.8614540">
        <ele>203.6</ele>
        <time>2022-06-28T15:48:24Z</time>
      </trkpt>
      <trkpt lat="41.5698460" lon="1.8613240">
        <ele>203.4</ele>
        <time>2022-06-28T15:48:25Z</time>
      </trkpt>
      <trkpt lat="41.5698590" lon="1.8612290">
        <ele>202.0</ele>
        <time>2022-06-28T15:48:26Z</time>
      </trkpt>
      <trkpt lat="41.5699040" lon="1.8610950">
        <ele>201.6</ele>
        <time>2022-06-28T15:48:27Z</time>
      </trkpt>
      <trkpt lat="41.5699780" lon="1.8610140">
        <ele>201.2</ele>
        <time>2022-06-28T15:48:28Z</time>
      </trkpt>
      <trkpt lat="41.5700530" lon="1.8609750">
        <ele>200.2</ele>
        <time>2022-06-28T15:48:29Z</time>
      </trkpt>
      <trkpt lat="41.5701580" lon="1.8609510">
        <ele>199.6</ele>
        <time>2022-06-28T15:48:30Z</time>
      </trkpt>
      <trkpt lat="41.5702550" lon="1.8609320">
        <ele>198.6</ele>
        <time>2022-06-28T15:48:31Z</time>
      </trkpt>
      <trkpt lat="41.5703640" lon="1.8608940">
        <ele>198.4</ele>
        <time>2022-06-28T15:48:32Z</time>
      </trkpt>
      <trkpt lat="41.5704470" lon="1.8608280">
        <ele>197.6</ele>
        <time>2022-06-28T15:48:33Z</time>
      </trkpt>
      <trkpt lat="41.5705080" lon="1.8607610">
        <ele>197.0</ele>
        <time>2022-06-28T15:48:34Z</time>
      </trkpt>
      <trkpt lat="41.5705790" lon="1.8606590">
        <ele>196.6</ele>
        <time>2022-06-28T15:48:35Z</time>
      </trkpt>
      <trkpt lat="41.5707760" lon="1.8603080">
        <ele>195.2</ele>
        <time>2022-06-28T15:48:38Z</time>
      </trkpt>
      <trkpt lat="41.5709100" lon="1.8600700">
        <ele>193.6</ele>
        <time>2022-06-28T15:48:40Z</time>
      </trkpt>
      <trkpt lat="41.5710570" lon="1.8598160">
        <ele>192.6</ele>
        <time>2022-06-28T15:48:42Z</time>
      </trkpt>
      <trkpt lat="41.5711210" lon="1.8597010">
        <ele>191.6</ele>
        <time>2022-06-28T15:48:43Z</time>
      </trkpt>
      <trkpt lat="41.5712240" lon="1.8595030">
        <ele>190.0</ele>
        <time>2022-06-28T15:48:45Z</time>
      </trkpt>
      <trkpt lat="41.5713290" lon="1.8593160">
        <ele>188.8</ele>
        <time>2022-06-28T15:48:47Z</time>
      </trkpt>
      <trkpt lat="41.5714300" lon="1.8591980">
        <ele>187.8</ele>
        <time>2022-06-28T15:48:49Z</time>
      </trkpt>
      <trkpt lat="41.5714810" lon="1.8591690">
        <ele>187.2</ele>
        <time>2022-06-28T15:48:50Z</time>
      </trkpt>
      <trkpt lat="41.5715430" lon="1.8591720">
        <ele>186.6</ele>
        <time>2022-06-28T15:48:51Z</time>
      </trkpt>
      <trkpt lat="41.5716060" lon="1.8592040">
        <ele>186.0</ele>
        <time>2022-06-28T15:48:52Z</time>
      </trkpt>
      <trkpt lat="41.5716610" lon="1.8592590">
        <ele>185.0</ele>
        <time>2022-06-28T15:48:53Z</time>
      </trkpt>
      <trkpt lat="41.5717130" lon="1.8594590">
        <ele>184.0</ele>
        <time>2022-06-28T15:48:55Z</time>
      </trkpt>
      <trkpt lat="41.5716620" lon="1.8596840">
        <ele>183.6</ele>
        <time>2022-06-28T15:48:57Z</time>
      </trkpt>
      <trkpt lat="41.5715690" lon="1.8599080">
        <ele>182.6</ele>
        <time>2022-06-28T15:48:59Z</time>
      </trkpt>
      <trkpt lat="41.5714770" lon="1.8601440">
        <ele>181.6</ele>
        <time>2022-06-28T15:49:01Z</time>
      </trkpt>
      <trkpt lat="41.5713850" lon="1.8603730">
        <ele>180.8</ele>
        <time>2022-06-28T15:49:03Z</time>
      </trkpt>
      <trkpt lat="41.5713570" lon="1.8604920">
        <ele>180.0</ele>
        <time>2022-06-28T15:49:04Z</time>
      </trkpt>
      <trkpt lat="41.5713490" lon="1.8606090">
        <ele>179.6</ele>
        <time>2022-06-28T15:49:05Z</time>
      </trkpt>
      <trkpt lat="41.5714040" lon="1.8608480">
        <ele>178.6</ele>
        <time>2022-06-28T15:49:07Z</time>
      </trkpt>
      <trkpt lat="41.5715210" lon="1.8610420">
        <ele>177.6</ele>
        <time>2022-06-28T15:49:09Z</time>
      </trkpt>
      <trkpt lat="41.5715860" lon="1.8611310">
        <ele>177.2</ele>
        <time>2022-06-28T15:49:10Z</time>
      </trkpt>
      <trkpt lat="41.5716520" lon="1.8612120">
        <ele>176.8</ele>
        <time>2022-06-28T15:49:11Z</time>
      </trkpt>
      <trkpt lat="41.5717270" lon="1.8612740">
        <ele>176.0</ele>
        <time>2022-06-28T15:49:12Z</time>
      </trkpt>
      <trkpt lat="41.5718090" lon="1.8613010">
        <ele>175.4</ele>
        <time>2022-06-28T15:49:13Z</time>
      </trkpt>
      <trkpt lat="41.5718940" lon="1.8612930">
        <ele>174.4</ele>
        <time>2022-06-28T15:49:14Z</time>
      </trkpt>
      <trkpt lat="41.5719930" lon="1.8612480">
        <ele>174.2</ele>
        <time>2022-06-28T15:49:15Z</time>
      </trkpt>
      <trkpt lat="41.5721100" lon="1.8611160">
        <ele>173.2</ele>
        <time>2022-06-28T15:49:17Z</time>
      </trkpt>
      <trkpt lat="41.5721540" lon="1.8610180">
        <ele>172.4</ele>
        <time>2022-06-28T15:49:18Z</time>
      </trkpt>
      <trkpt lat="41.5721830" lon="1.8608910">
        <ele>171.4</ele>
        <time>2022-06-28T15:49:19Z</time>
      </trkpt>
      <trkpt lat="41.5721990" lon="1.8606740">
        <ele>170.4</ele>
        <time>2022-06-28T15:49:21Z</time>
      </trkpt>
      <trkpt lat="41.5722270" lon="1.8604000">
        <ele>169.2</ele>
        <time>2022-06-28T15:49:23Z</time>
      </trkpt>
      <trkpt lat="41.5722570" lon="1.8601680">
        <ele>168.2</ele>
        <time>2022-06-28T15:49:25Z</time>
      </trkpt>
      <trkpt lat="41.5722820" lon="1.8598970">
        <ele>167.2</ele>
        <time>2022-06-28T15:49:27Z</time>
      </trkpt>
      <trkpt lat="41.5722980" lon="1.8597320">
        <ele>166.6</ele>
        <time>2022-06-28T15:49:28Z</time>
      </trkpt>
      <trkpt lat="41.5723210" lon="1.8594770">
        <ele>165.4</ele>
        <time>2022-06-28T15:49:30Z</time>
      </trkpt>
      <trkpt lat="41.5723550" lon="1.8591570">
        <ele>164.2</ele>
        <time>2022-06-28T15:49:32Z</time>
      </trkpt>
      <trkpt lat="41.5723850" lon="1.8588900">
        <ele>163.0</ele>
        <time>2022-06-28T15:49:34Z</time>
      </trkpt>
      <trkpt lat="41.5724390" lon="1.8584460">
        <ele>161.8</ele>
        <time>2022-06-28T15:49:37Z</time>
      </trkpt>
      <trkpt lat="41.5724580" lon="1.8582660">
        <ele>160.8</ele>
        <time>2022-06-28T15:49:38Z</time>
      </trkpt>
      <trkpt lat="41.5725060" lon="1.8578280">
        <ele>159.6</ele>
        <time>2022-06-28T15:49:41Z</time>
      </trkpt>
      <trkpt lat="41.5725550" lon="1.8574840">
        <ele>158.0</ele>
        <time>2022-06-28T15:49:44Z</time>
      </trkpt>
      <trkpt lat="41.5726010" lon="1.8573530">
        <ele>157.4</ele>
        <time>2022-06-28T15:49:45Z</time>
      </trkpt>
      <trkpt lat="41.5726600" lon="1.8572490">
        <ele>157.0</ele>
        <time>2022-06-28T15:49:46Z</time>
      </trkpt>
      <trkpt lat="41.5727340" lon="1.8571630">
        <ele>156.4</ele>
        <time>2022-06-28T15:49:47Z</time>
      </trkpt>
      <trkpt lat="41.5728020" lon="1.8571020">
        <ele>156.0</ele>
        <time>2022-06-28T15:49:48Z</time>
      </trkpt>
      <trkpt lat="41.5729030" lon="1.8570060">
        <ele>155.0</ele>
        <time>2022-06-28T15:49:49Z</time>
      </trkpt>
      <trkpt lat="41.5730760" lon="1.8568760">
        <ele>154.4</ele>
        <time>2022-06-28T15:49:51Z</time>
      </trkpt>
      <trkpt lat="41.5731610" lon="1.8568550">
        <ele>153.8</ele>
        <time>2022-06-28T15:49:52Z</time>
      </trkpt>
      <trkpt lat="41.5732250" lon="1.8568640">
        <ele>153.6</ele>
        <time>2022-06-28T15:49:53Z</time>
      </trkpt>
      <trkpt lat="41.5733540" lon="1.8569460">
        <ele>153.4</ele>
        <time>2022-06-28T15:49:55Z</time>
      </trkpt>
      <trkpt lat="41.5734180" lon="1.8571270">
        <ele>153.4</ele>
        <time>2022-06-28T15:49:57Z</time>
      </trkpt>
      <trkpt lat="41.5734230" lon="1.8571970">
        <ele>153.2</ele>
        <time>2022-06-28T15:49:58Z</time>
      </trkpt>
      <trkpt lat="41.5734210" lon="1.8573820">
        <ele>153.6</ele>
        <time>2022-06-28T15:50:00Z</time>
      </trkpt>
      <trkpt lat="41.5734200" lon="1.8576090">
        <ele>155.2</ele>
        <time>2022-06-28T15:50:03Z</time>
      </trkpt>
      <trkpt lat="41.5734530" lon="1.8581250">
        <ele>156.2</ele>
        <time>2022-06-28T15:50:10Z</time>
      </trkpt>
      <trkpt lat="41.5735490" lon="1.8585410">
        <ele>157.4</ele>
        <time>2022-06-28T15:50:16Z</time>
      </trkpt>
      <trkpt lat="41.5735900" lon="1.8586890">
        <ele>157.8</ele>
        <time>2022-06-28T15:50:18Z</time>
      </trkpt>
      <trkpt lat="41.5736750" lon="1.8589550">
        <ele>158.4</ele>
        <time>2022-06-28T15:50:22Z</time>
      </trkpt>
      <trkpt lat="41.5737020" lon="1.8590200">
        <ele>158.4</ele>
        <time>2022-06-28T15:50:23Z</time>
      </trkpt>
      <trkpt lat="41.5737590" lon="1.8591220">
        <ele>158.6</ele>
        <time>2022-06-28T15:50:25Z</time>
      </trkpt>
      <trkpt lat="41.5738030" lon="1.8591800">
        <ele>158.8</ele>
        <time>2022-06-28T15:50:26Z</time>
      </trkpt>
      <trkpt lat="41.5739340" lon="1.8593070">
        <ele>159.6</ele>
        <time>2022-06-28T15:50:29Z</time>
      </trkpt>
      <trkpt lat="41.5739720" lon="1.8593360">
        <ele>159.8</ele>
        <time>2022-06-28T15:50:30Z</time>
      </trkpt>
      <trkpt lat="41.5740780" lon="1.8594020">
        <ele>160.0</ele>
        <time>2022-06-28T15:50:32Z</time>
      </trkpt>
      <trkpt lat="41.5742310" lon="1.8594390">
        <ele>160.2</ele>
        <time>2022-06-28T15:50:35Z</time>
      </trkpt>
      <trkpt lat="41.5742800" lon="1.8594400">
        <ele>160.2</ele>
        <time>2022-06-28T15:50:36Z</time>
      </trkpt>
      <trkpt lat="41.5743750" lon="1.8594320">
        <ele>160.6</ele>
        <time>2022-06-28T15:50:38Z</time>
      </trkpt>
      <trkpt lat="41.5745220" lon="1.8593920">
        <ele>161.2</ele>
        <time>2022-06-28T15:50:41Z</time>
      </trkpt>
      <trkpt lat="41.5746200" lon="1.8593310">
        <ele>161.4</ele>
        <time>2022-06-28T15:50:43Z</time>
      </trkpt>
      <trkpt lat="41.5747040" lon="1.8592550">
        <ele>161.4</ele>
        <time>2022-06-28T15:50:45Z</time>
      </trkpt>
      <trkpt lat="41.5747550" lon="1.8591880">
        <ele>161.6</ele>
        <time>2022-06-28T15:50:46Z</time>
      </trkpt>
      <trkpt lat="41.5748310" lon="1.8590600">
        <ele>161.4</ele>
        <time>2022-06-28T15:50:48Z</time>
      </trkpt>
      <trkpt lat="41.5748850" lon="1.8589160">
        <ele>161.2</ele>
        <time>2022-06-28T15:50:50Z</time>
      </trkpt>
      <trkpt lat="41.5749690" lon="1.8586600">
        <ele>159.8</ele>
        <time>2022-06-28T15:50:54Z</time>
      </trkpt>
      <trkpt lat="41.5749980" lon="1.8586060">
        <ele>159.6</ele>
        <time>2022-06-28T15:50:55Z</time>
      </trkpt>
      <trkpt lat="41.5750310" lon="1.8585550">
        <ele>159.2</ele>
        <time>2022-06-28T15:50:56Z</time>
      </trkpt>
      <trkpt lat="41.5750700" lon="1.8585090">
        <ele>158.8</ele>
        <time>2022-06-28T15:50:57Z</time>
      </trkpt>
      <trkpt lat="41.5751160" lon="1.8584760">
        <ele>157.8</ele>
        <time>2022-06-28T15:50:58Z</time>
      </trkpt>
      <trkpt lat="41.5751680" lon="1.8584600">
        <ele>157.4</ele>
        <time>2022-06-28T15:50:59Z</time>
      </trkpt>
      <trkpt lat="41.5752660" lon="1.8584630">
        <ele>156.2</ele>
        <time>2022-06-28T15:51:01Z</time>
      </trkpt>
      <trkpt lat="41.5753240" lon="1.8584810">
        <ele>155.8</ele>
        <time>2022-06-28T15:51:03Z</time>
      </trkpt>
      <trkpt lat="41.5754210" lon="1.8585350">
        <ele>155.2</ele>
        <time>2022-06-28T15:51:06Z</time>
      </trkpt>
      <trkpt lat="41.5755180" lon="1.8586430">
        <ele>154.2</ele>
        <time>2022-06-28T15:51:09Z</time>
      </trkpt>
      <trkpt lat="41.5755430" lon="1.8586810">
        <ele>154.0</ele>
        <time>2022-06-28T15:51:10Z</time>
      </trkpt>
      <trkpt lat="41.5756210" lon="1.8588200">
        <ele>153.2</ele>
        <time>2022-06-28T15:51:14Z</time>
      </trkpt>
      <trkpt lat="41.5756430" lon="1.8588470">
        <ele>152.8</ele>
        <time>2022-06-28T15:51:15Z</time>
      </trkpt>
      <trkpt lat="41.5757150" lon="1.8589050">
        <ele>152.0</ele>
        <time>2022-06-28T15:51:19Z</time>
      </trkpt>
      <trkpt lat="41.5757150" lon="1.8589050">
        <ele>151.8</ele>
        <time>2022-06-28T15:51:21Z</time>
      </trkpt>
      <trkpt lat="41.5757270" lon="1.8589320">
        <ele>150.6</ele>
        <time>2022-06-28T15:52:25Z</time>
      </trkpt>
      <trkpt lat="41.5758570" lon="1.8591150">
        <ele>150.4</ele>
        <time>2022-06-28T15:52:30Z</time>
      </trkpt>
      <trkpt lat="41.5759180" lon="1.8593140">
        <ele>149.4</ele>
        <time>2022-06-28T15:52:34Z</time>
      </trkpt>
      <trkpt lat="41.5759640" lon="1.8594460">
        <ele>148.2</ele>
        <time>2022-06-28T15:52:38Z</time>
      </trkpt>
      <trkpt lat="41.5759840" lon="1.8594770">
        <ele>148.0</ele>
        <time>2022-06-28T15:52:39Z</time>
      </trkpt>
      <trkpt lat="41.5760590" lon="1.8595300">
        <ele>147.8</ele>
        <time>2022-06-28T15:52:41Z</time>
      </trkpt>
      <trkpt lat="41.5761690" lon="1.8595760">
        <ele>147.6</ele>
        <time>2022-06-28T15:52:43Z</time>
      </trkpt>
      <trkpt lat="41.5762880" lon="1.8595940">
        <ele>147.6</ele>
        <time>2022-06-28T15:52:45Z</time>
      </trkpt>
      <trkpt lat="41.5766990" lon="1.8596020">
        <ele>147.8</ele>
        <time>2022-06-28T15:52:51Z</time>
      </trkpt>
      <trkpt lat="41.5771240" lon="1.8596110">
        <ele>148.4</ele>
        <time>2022-06-28T15:52:57Z</time>
      </trkpt>
      <trkpt lat="41.5776670" lon="1.8596220">
        <ele>148.4</ele>
        <time>2022-06-28T15:53:04Z</time>
      </trkpt>
      <trkpt lat="41.5782830" lon="1.8596220">
        <ele>147.8</ele>
        <time>2022-06-28T15:53:11Z</time>
      </trkpt>
      <trkpt lat="41.5784460" lon="1.8596240">
        <ele>147.6</ele>
        <time>2022-06-28T15:53:13Z</time>
      </trkpt>
      <trkpt lat="41.5786310" lon="1.8596280">
        <ele>147.0</ele>
        <time>2022-06-28T15:53:15Z</time>
      </trkpt>
      <trkpt lat="41.5791080" lon="1.8596030">
        <ele>146.0</ele>
        <time>2022-06-28T15:53:20Z</time>
      </trkpt>
      <trkpt lat="41.5796000" lon="1.8595470">
        <ele>144.8</ele>
        <time>2022-06-28T15:53:25Z</time>
      </trkpt>
      <trkpt lat="41.5798860" lon="1.8594860">
        <ele>144.4</ele>
        <time>2022-06-28T15:53:28Z</time>
      </trkpt>
      <trkpt lat="41.5804350" lon="1.8593190">
        <ele>144.0</ele>
        <time>2022-06-28T15:53:34Z</time>
      </trkpt>
      <trkpt lat="41.5806310" lon="1.8592360">
        <ele>144.2</ele>
        <time>2022-06-28T15:53:36Z</time>
      </trkpt>
      <trkpt lat="41.5811570" lon="1.8589520">
        <ele>144.2</ele>
        <time>2022-06-28T15:53:42Z</time>
      </trkpt>
      <trkpt lat="41.5813290" lon="1.8588360">
        <ele>144.2</ele>
        <time>2022-06-28T15:53:44Z</time>
      </trkpt>
      <trkpt lat="41.5817960" lon="1.8584410">
        <ele>144.4</ele>
        <time>2022-06-28T15:53:50Z</time>
      </trkpt>
      <trkpt lat="41.5819450" lon="1.8582870">
        <ele>144.2</ele>
        <time>2022-06-28T15:53:52Z</time>
      </trkpt>
      <trkpt lat="41.5823820" lon="1.8577530">
        <ele>143.8</ele>
        <time>2022-06-28T15:53:58Z</time>
      </trkpt>
      <trkpt lat="41.5825260" lon="1.8575590">
        <ele>143.2</ele>
        <time>2022-06-28T15:54:00Z</time>
      </trkpt>
      <trkpt lat="41.5827410" lon="1.8572540">
        <ele>142.4</ele>
        <time>2022-06-28T15:54:03Z</time>
      </trkpt>
      <trkpt lat="41.5830380" lon="1.8568430">
        <ele>141.2</ele>
        <time>2022-06-28T15:54:07Z</time>
      </trkpt>
      <trkpt lat="41.5831110" lon="1.8567410">
        <ele>141.0</ele>
        <time>2022-06-28T15:54:08Z</time>
      </trkpt>
      <trkpt lat="41.5833980" lon="1.8563400">
        <ele>140.2</ele>
        <time>2022-06-28T15:54:12Z</time>
      </trkpt>
      <trkpt lat="41.5836870" lon="1.8559760">
        <ele>139.6</ele>
        <time>2022-06-28T15:54:16Z</time>
      </trkpt>
      <trkpt lat="41.5840760" lon="1.8555950">
        <ele>139.4</ele>
        <time>2022-06-28T15:54:21Z</time>
      </trkpt>
      <trkpt lat="41.5846040" lon="1.8552360">
        <ele>139.6</ele>
        <time>2022-06-28T15:54:27Z</time>
      </trkpt>
      <trkpt lat="41.5851260" lon="1.8550000">
        <ele>140.4</ele>
        <time>2022-06-28T15:54:33Z</time>
      </trkpt>
      <trkpt lat="41.5853040" lon="1.8549240">
        <ele>140.6</ele>
        <time>2022-06-28T15:54:35Z</time>
      </trkpt>
      <trkpt lat="41.5858510" lon="1.8547080">
        <ele>140.4</ele>
        <time>2022-06-28T15:54:41Z</time>
      </trkpt>
      <trkpt lat="41.5859550" lon="1.8546680">
        <ele>140.2</ele>
        <time>2022-06-28T15:54:42Z</time>
      </trkpt>
      <trkpt lat="41.5865380" lon="1.8544200">
        <ele>140.0</ele>
        <time>2022-06-28T15:54:49Z</time>
      </trkpt>
      <trkpt lat="41.5870930" lon="1.8541750">
        <ele>140.2</ele>
        <time>2022-06-28T15:54:56Z</time>
      </trkpt>
      <trkpt lat="41.5871750" lon="1.8541390">
        <ele>140.2</ele>
        <time>2022-06-28T15:54:57Z</time>
      </trkpt>
      <trkpt lat="41.5877190" lon="1.8538560">
        <ele>141.4</ele>
        <time>2022-06-28T15:55:04Z</time>
      </trkpt>
      <trkpt lat="41.5877900" lon="1.8538090">
        <ele>141.6</ele>
        <time>2022-06-28T15:55:05Z</time>
      </trkpt>
      <trkpt lat="41.5880970" lon="1.8536010">
        <ele>142.0</ele>
        <time>2022-06-28T15:55:10Z</time>
      </trkpt>
      <trkpt lat="41.5881670" lon="1.8535500">
        <ele>142.6</ele>
        <time>2022-06-28T15:55:11Z</time>
      </trkpt>
      <trkpt lat="41.5884410" lon="1.8533260">
        <ele>143.8</ele>
        <time>2022-06-28T15:55:16Z</time>
      </trkpt>
      <trkpt lat="41.5887360" lon="1.8530190">
        <ele>145.0</ele>
        <time>2022-06-28T15:55:23Z</time>
      </trkpt>
      <trkpt lat="41.5889450" lon="1.8527770">
        <ele>146.2</ele>
        <time>2022-06-28T15:55:28Z</time>
      </trkpt>
      <trkpt lat="41.5891090" lon="1.8525860">
        <ele>147.0</ele>
        <time>2022-06-28T15:55:32Z</time>
      </trkpt>
      <trkpt lat="41.5891500" lon="1.8525370">
        <ele>147.4</ele>
        <time>2022-06-28T15:55:33Z</time>
      </trkpt>
      <trkpt lat="41.5893980" lon="1.8522360">
        <ele>148.6</ele>
        <time>2022-06-28T15:55:39Z</time>
      </trkpt>
      <trkpt lat="41.5895140" lon="1.8521160">
        <ele>149.2</ele>
        <time>2022-06-28T15:55:42Z</time>
      </trkpt>
      <trkpt lat="41.5896670" lon="1.8519470">
        <ele>150.0</ele>
        <time>2022-06-28T15:55:46Z</time>
      </trkpt>
      <trkpt lat="41.5897750" lon="1.8518420">
        <ele>150.6</ele>
        <time>2022-06-28T15:55:49Z</time>
      </trkpt>
      <trkpt lat="41.5898770" lon="1.8517470">
        <ele>151.2</ele>
        <time>2022-06-28T15:55:52Z</time>
      </trkpt>
      <trkpt lat="41.5899390" lon="1.8516890">
        <ele>151.4</ele>
        <time>2022-06-28T15:55:54Z</time>
      </trkpt>
      <trkpt lat="41.5899960" lon="1.8516290">
        <ele>151.8</ele>
        <time>2022-06-28T15:55:56Z</time>
      </trkpt>
      <trkpt lat="41.5900850" lon="1.8515370">
        <ele>152.4</ele>
        <time>2022-06-28T15:55:59Z</time>
      </trkpt>
      <trkpt lat="41.5902600" lon="1.8513210">
        <ele>153.4</ele>
        <time>2022-06-28T15:56:05Z</time>
      </trkpt>
      <trkpt lat="41.5902740" lon="1.8512830">
        <ele>153.6</ele>
        <time>2022-06-28T15:56:06Z</time>
      </trkpt>
      <trkpt lat="41.5904320" lon="1.8510760">
        <ele>154.4</ele>
        <time>2022-06-28T15:56:12Z</time>
      </trkpt>
      <trkpt lat="41.5904570" lon="1.8510500">
        <ele>154.6</ele>
        <time>2022-06-28T15:56:13Z</time>
      </trkpt>
      <trkpt lat="41.5906260" lon="1.8509300">
        <ele>155.0</ele>
        <time>2022-06-28T15:56:17Z</time>
      </trkpt>
      <trkpt lat="41.5909420" lon="1.8508420">
        <ele>155.4</ele>
        <time>2022-06-28T15:56:23Z</time>
      </trkpt>
      <trkpt lat="41.5911360" lon="1.8508390">
        <ele>155.6</ele>
        <time>2022-06-28T15:56:26Z</time>
      </trkpt>
      <trkpt lat="41.5913300" lon="1.8508690">
        <ele>155.8</ele>
        <time>2022-06-28T15:56:29Z</time>
      </trkpt>
      <trkpt lat="41.5918020" lon="1.8509940">
        <ele>156.4</ele>
        <time>2022-06-28T15:56:36Z</time>
      </trkpt>
      <trkpt lat="41.5921790" lon="1.8511030">
        <ele>156.8</ele>
        <time>2022-06-28T15:56:41Z</time>
      </trkpt>
      <trkpt lat="41.5923280" lon="1.8511530">
        <ele>157.0</ele>
        <time>2022-06-28T15:56:43Z</time>
      </trkpt>
      <trkpt lat="41.5928040" lon="1.8513610">
        <ele>157.4</ele>
        <time>2022-06-28T15:56:49Z</time>
      </trkpt>
      <trkpt lat="41.5928660" lon="1.8514020">
        <ele>157.4</ele>
        <time>2022-06-28T15:56:50Z</time>
      </trkpt>
      <trkpt lat="41.5932690" lon="1.8517720">
        <ele>157.8</ele>
        <time>2022-06-28T15:56:56Z</time>
      </trkpt>
      <trkpt lat="41.5933230" lon="1.8518350">
        <ele>158.0</ele>
        <time>2022-06-28T15:56:57Z</time>
      </trkpt>
      <trkpt lat="41.5937550" lon="1.8523000">
        <ele>158.8</ele>
        <time>2022-06-28T15:57:04Z</time>
      </trkpt>
      <trkpt lat="41.5939220" lon="1.8524830">
        <ele>159.0</ele>
        <time>2022-06-28T15:57:07Z</time>
      </trkpt>
      <trkpt lat="41.5941310" lon="1.8527240">
        <ele>159.8</ele>
        <time>2022-06-28T15:57:11Z</time>
      </trkpt>
      <trkpt lat="41.5941690" lon="1.8527720">
        <ele>160.2</ele>
        <time>2022-06-28T15:57:12Z</time>
      </trkpt>
      <trkpt lat="41.5943640" lon="1.8530290">
        <ele>161.2</ele>
        <time>2022-06-28T15:57:16Z</time>
      </trkpt>
      <trkpt lat="41.5944460" lon="1.8531590">
        <ele>161.8</ele>
        <time>2022-06-28T15:57:18Z</time>
      </trkpt>
      <trkpt lat="41.5945180" lon="1.8532820">
        <ele>162.4</ele>
        <time>2022-06-28T15:57:20Z</time>
      </trkpt>
      <trkpt lat="41.5945600" lon="1.8533420">
        <ele>162.4</ele>
        <time>2022-06-28T15:57:21Z</time>
      </trkpt>
      <trkpt lat="41.5946020" lon="1.8533970">
        <ele>163.0</ele>
        <time>2022-06-28T15:57:22Z</time>
      </trkpt>
      <trkpt lat="41.5946800" lon="1.8534930">
        <ele>163.6</ele>
        <time>2022-06-28T15:57:24Z</time>
      </trkpt>
      <trkpt lat="41.5948180" lon="1.8536210">
        <ele>164.8</ele>
        <time>2022-06-28T15:57:27Z</time>
      </trkpt>
      <trkpt lat="41.5948640" lon="1.8536600">
        <ele>164.8</ele>
        <time>2022-06-28T15:57:28Z</time>
      </trkpt>
      <trkpt lat="41.5952320" lon="1.8538680">
        <ele>165.6</ele>
        <time>2022-06-28T15:57:35Z</time>
      </trkpt>
      <trkpt lat="41.5956160" lon="1.8539320">
        <ele>165.4</ele>
        <time>2022-06-28T15:57:41Z</time>
      </trkpt>
      <trkpt lat="41.5960120" lon="1.8539260">
        <ele>164.4</ele>
        <time>2022-06-28T15:57:46Z</time>
      </trkpt>
      <trkpt lat="41.5961750" lon="1.8538860">
        <ele>164.0</ele>
        <time>2022-06-28T15:57:48Z</time>
      </trkpt>
      <trkpt lat="41.5963350" lon="1.8538040">
        <ele>163.4</ele>
        <time>2022-06-28T15:57:50Z</time>
      </trkpt>
      <trkpt lat="41.5965610" lon="1.8536400">
        <ele>162.2</ele>
        <time>2022-06-28T15:57:53Z</time>
      </trkpt>
      <trkpt lat="41.5967390" lon="1.8534800">
        <ele>161.2</ele>
        <time>2022-06-28T15:57:55Z</time>
      </trkpt>
      <trkpt lat="41.5968040" lon="1.8534170">
        <ele>161.0</ele>
        <time>2022-06-28T15:57:56Z</time>
      </trkpt>
      <trkpt lat="41.5969800" lon="1.8532210">
        <ele>159.4</ele>
        <time>2022-06-28T15:57:58Z</time>
      </trkpt>
      <trkpt lat="41.5971260" lon="1.8530170">
        <ele>158.2</ele>
        <time>2022-06-28T15:58:00Z</time>
      </trkpt>
      <trkpt lat="41.5972540" lon="1.8527850">
        <ele>157.2</ele>
        <time>2022-06-28T15:58:02Z</time>
      </trkpt>
      <trkpt lat="41.5973680" lon="1.8525380">
        <ele>156.2</ele>
        <time>2022-06-28T15:58:04Z</time>
      </trkpt>
      <trkpt lat="41.5974630" lon="1.8523090">
        <ele>154.8</ele>
        <time>2022-06-28T15:58:06Z</time>
      </trkpt>
      <trkpt lat="41.5975220" lon="1.8521510">
        <ele>153.6</ele>
        <time>2022-06-28T15:58:07Z</time>
      </trkpt>
      <trkpt lat="41.5976110" lon="1.8519140">
        <ele>152.4</ele>
        <time>2022-06-28T15:58:09Z</time>
      </trkpt>
      <trkpt lat="41.5977780" lon="1.8515360">
        <ele>151.2</ele>
        <time>2022-06-28T15:58:12Z</time>
      </trkpt>
      <trkpt lat="41.5979080" lon="1.8513040">
        <ele>150.2</ele>
        <time>2022-06-28T15:58:14Z</time>
      </trkpt>
      <trkpt lat="41.5979750" lon="1.8511940">
        <ele>149.8</ele>
        <time>2022-06-28T15:58:15Z</time>
      </trkpt>
      <trkpt lat="41.5981800" lon="1.8508720">
        <ele>148.8</ele>
        <time>2022-06-28T15:58:18Z</time>
      </trkpt>
      <trkpt lat="41.5983360" lon="1.8506720">
        <ele>148.4</ele>
        <time>2022-06-28T15:58:20Z</time>
      </trkpt>
      <trkpt lat="41.5985800" lon="1.8503600">
        <ele>147.8</ele>
        <time>2022-06-28T15:58:23Z</time>
      </trkpt>
      <trkpt lat="41.5988280" lon="1.8500910">
        <ele>147.6</ele>
        <time>2022-06-28T15:58:26Z</time>
      </trkpt>
      <trkpt lat="41.5991020" lon="1.8498810">
        <ele>147.4</ele>
        <time>2022-06-28T15:58:29Z</time>
      </trkpt>
      <trkpt lat="41.5992030" lon="1.8498350">
        <ele>147.4</ele>
        <time>2022-06-28T15:58:30Z</time>
      </trkpt>
      <trkpt lat="41.5996060" lon="1.8497420">
        <ele>147.4</ele>
        <time>2022-06-28T15:58:34Z</time>
      </trkpt>
      <trkpt lat="41.6000650" lon="1.8497330">
        <ele>147.6</ele>
        <time>2022-06-28T15:58:39Z</time>
      </trkpt>
      <trkpt lat="41.6004870" lon="1.8498620">
        <ele>148.8</ele>
        <time>2022-06-28T15:58:44Z</time>
      </trkpt>
      <trkpt lat="41.6005670" lon="1.8499000">
        <ele>149.0</ele>
        <time>2022-06-28T15:58:45Z</time>
      </trkpt>
      <trkpt lat="41.6008520" lon="1.8500770">
        <ele>150.2</ele>
        <time>2022-06-28T15:58:49Z</time>
      </trkpt>
      <trkpt lat="41.6009110" lon="1.8501240">
        <ele>151.0</ele>
        <time>2022-06-28T15:58:50Z</time>
      </trkpt>
      <trkpt lat="41.6009700" lon="1.8501740">
        <ele>151.4</ele>
        <time>2022-06-28T15:58:51Z</time>
      </trkpt>
      <trkpt lat="41.6010740" lon="1.8502790">
        <ele>152.0</ele>
        <time>2022-06-28T15:58:53Z</time>
      </trkpt>
      <trkpt lat="41.6011200" lon="1.8503390">
        <ele>152.6</ele>
        <time>2022-06-28T15:58:54Z</time>
      </trkpt>
      <trkpt lat="41.6011600" lon="1.8503960">
        <ele>153.4</ele>
        <time>2022-06-28T15:58:55Z</time>
      </trkpt>
      <trkpt lat="41.6012050" lon="1.8504540">
        <ele>153.6</ele>
        <time>2022-06-28T15:58:56Z</time>
      </trkpt>
      <trkpt lat="41.6013300" lon="1.8506220">
        <ele>155.0</ele>
        <time>2022-06-28T15:58:59Z</time>
      </trkpt>
      <trkpt lat="41.6014480" lon="1.8507740">
        <ele>156.2</ele>
        <time>2022-06-28T15:59:02Z</time>
      </trkpt>
      <trkpt lat="41.6016500" lon="1.8509780">
        <ele>157.2</ele>
        <time>2022-06-28T15:59:07Z</time>
      </trkpt>
      <trkpt lat="41.6017280" lon="1.8510430">
        <ele>157.8</ele>
        <time>2022-06-28T15:59:09Z</time>
      </trkpt>
      <trkpt lat="41.6018460" lon="1.8511340">
        <ele>158.2</ele>
        <time>2022-06-28T15:59:12Z</time>
      </trkpt>
      <trkpt lat="41.6020450" lon="1.8512790">
        <ele>159.2</ele>
        <time>2022-06-28T15:59:17Z</time>
      </trkpt>
      <trkpt lat="41.6020860" lon="1.8513070">
        <ele>159.4</ele>
        <time>2022-06-28T15:59:18Z</time>
      </trkpt>
      <trkpt lat="41.6023170" lon="1.8514500">
        <ele>160.8</ele>
        <time>2022-06-28T15:59:24Z</time>
      </trkpt>
      <trkpt lat="41.6023530" lon="1.8514730">
        <ele>161.2</ele>
        <time>2022-06-28T15:59:25Z</time>
      </trkpt>
      <trkpt lat="41.6024810" lon="1.8515770">
        <ele>161.8</ele>
        <time>2022-06-28T15:59:29Z</time>
      </trkpt>
      <trkpt lat="41.6025140" lon="1.8515960">
        <ele>162.0</ele>
        <time>2022-06-28T15:59:30Z</time>
      </trkpt>
      <trkpt lat="41.6027710" lon="1.8516550">
        <ele>162.8</ele>
        <time>2022-06-28T15:59:37Z</time>
      </trkpt>
      <trkpt lat="41.6030580" lon="1.8516350">
        <ele>163.8</ele>
        <time>2022-06-28T15:59:44Z</time>
      </trkpt>
      <trkpt lat="41.6030990" lon="1.8516320">
        <ele>164.0</ele>
        <time>2022-06-28T15:59:45Z</time>
      </trkpt>
      <trkpt lat="41.6033690" lon="1.8515760">
        <ele>165.0</ele>
        <time>2022-06-28T15:59:52Z</time>
      </trkpt>
      <trkpt lat="41.6034060" lon="1.8515640">
        <ele>165.2</ele>
        <time>2022-06-28T15:59:53Z</time>
      </trkpt>
      <trkpt lat="41.6034830" lon="1.8515420">
        <ele>166.2</ele>
        <time>2022-06-28T15:59:55Z</time>
      </trkpt>
      <trkpt lat="41.6036470" lon="1.8514650">
        <ele>167.2</ele>
        <time>2022-06-28T16:00:00Z</time>
      </trkpt>
      <trkpt lat="41.6036730" lon="1.8514390">
        <ele>167.2</ele>
        <time>2022-06-28T16:00:01Z</time>
      </trkpt>
      <trkpt lat="41.6038320" lon="1.8512750">
        <ele>167.8</ele>
        <time>2022-06-28T16:00:07Z</time>
      </trkpt>
      <trkpt lat="41.6039280" lon="1.8511860">
        <ele>168.6</ele>
        <time>2022-06-28T16:00:10Z</time>
      </trkpt>
      <trkpt lat="41.6040800" lon="1.8510830">
        <ele>168.8</ele>
        <time>2022-06-28T16:00:14Z</time>
      </trkpt>
      <trkpt lat="41.6042850" lon="1.8509130">
        <ele>169.4</ele>
        <time>2022-06-28T16:00:19Z</time>
      </trkpt>
      <trkpt lat="41.6043970" lon="1.8508130">
        <ele>169.6</ele>
        <time>2022-06-28T16:00:22Z</time>
      </trkpt>
      <trkpt lat="41.6046600" lon="1.8505890">
        <ele>169.8</ele>
        <time>2022-06-28T16:00:29Z</time>
      </trkpt>
      <trkpt lat="41.6049600" lon="1.8503170">
        <ele>170.4</ele>
        <time>2022-06-28T16:00:37Z</time>
      </trkpt>
      <trkpt lat="41.6051150" lon="1.8501780">
        <ele>170.6</ele>
        <time>2022-06-28T16:00:41Z</time>
      </trkpt>
      <trkpt lat="41.6052410" lon="1.8500540">
        <ele>170.8</ele>
        <time>2022-06-28T16:00:44Z</time>
      </trkpt>
      <trkpt lat="41.6056710" lon="1.8496670">
        <ele>171.2</ele>
        <time>2022-06-28T16:00:53Z</time>
      </trkpt>
      <trkpt lat="41.6060290" lon="1.8493540">
        <ele>171.2</ele>
        <time>2022-06-28T16:01:00Z</time>
      </trkpt>
      <trkpt lat="41.6062250" lon="1.8491850">
        <ele>171.4</ele>
        <time>2022-06-28T16:01:04Z</time>
      </trkpt>
      <trkpt lat="41.6063150" lon="1.8491090">
        <ele>171.4</ele>
        <time>2022-06-28T16:01:06Z</time>
      </trkpt>
      <trkpt lat="41.6065170" lon="1.8489290">
        <ele>171.6</ele>
        <time>2022-06-28T16:01:10Z</time>
      </trkpt>
      <trkpt lat="41.6066680" lon="1.8487900">
        <ele>171.8</ele>
        <time>2022-06-28T16:01:13Z</time>
      </trkpt>
      <trkpt lat="41.6070930" lon="1.8484130">
        <ele>172.0</ele>
        <time>2022-06-28T16:01:21Z</time>
      </trkpt>
      <trkpt lat="41.6071500" lon="1.8483640">
        <ele>172.0</ele>
        <time>2022-06-28T16:01:22Z</time>
      </trkpt>
      <trkpt lat="41.6075140" lon="1.8480200">
        <ele>172.0</ele>
        <time>2022-06-28T16:01:28Z</time>
      </trkpt>
      <trkpt lat="41.6078960" lon="1.8476470">
        <ele>171.2</ele>
        <time>2022-06-28T16:01:34Z</time>
      </trkpt>
      <trkpt lat="41.6079600" lon="1.8475840">
        <ele>170.8</ele>
        <time>2022-06-28T16:01:35Z</time>
      </trkpt>
      <trkpt lat="41.6083140" lon="1.8472800">
        <ele>169.6</ele>
        <time>2022-06-28T16:01:40Z</time>
      </trkpt>
      <trkpt lat="41.6083890" lon="1.8472220">
        <ele>169.4</ele>
        <time>2022-06-28T16:01:41Z</time>
      </trkpt>
      <trkpt lat="41.6086360" lon="1.8470600">
        <ele>168.4</ele>
        <time>2022-06-28T16:01:44Z</time>
      </trkpt>
      <trkpt lat="41.6088740" lon="1.8469180">
        <ele>167.0</ele>
        <time>2022-06-28T16:01:47Z</time>
      </trkpt>
      <trkpt lat="41.6090420" lon="1.8468300">
        <ele>166.6</ele>
        <time>2022-06-28T16:01:49Z</time>
      </trkpt>
      <trkpt lat="41.6092920" lon="1.8466900">
        <ele>166.0</ele>
        <time>2022-06-28T16:01:52Z</time>
      </trkpt>
      <trkpt lat="41.6096240" lon="1.8464720">
        <ele>165.0</ele>
        <time>2022-06-28T16:01:56Z</time>
      </trkpt>
      <trkpt lat="41.6097860" lon="1.8463650">
        <ele>163.8</ele>
        <time>2022-06-28T16:01:58Z</time>
      </trkpt>
      <trkpt lat="41.6101150" lon="1.8461860">
        <ele>162.8</ele>
        <time>2022-06-28T16:02:02Z</time>
      </trkpt>
      <trkpt lat="41.6101810" lon="1.8461640">
        <ele>162.8</ele>
        <time>2022-06-28T16:02:03Z</time>
      </trkpt>
      <trkpt lat="41.6103290" lon="1.8461180">
        <ele>162.6</ele>
        <time>2022-06-28T16:02:05Z</time>
      </trkpt>
      <trkpt lat="41.6104110" lon="1.8461220">
        <ele>162.6</ele>
        <time>2022-06-28T16:02:06Z</time>
      </trkpt>
      <trkpt lat="41.6104650" lon="1.8461590">
        <ele>162.6</ele>
        <time>2022-06-28T16:02:07Z</time>
      </trkpt>
      <trkpt lat="41.6104990" lon="1.8462160">
        <ele>162.6</ele>
        <time>2022-06-28T16:02:08Z</time>
      </trkpt>
      <trkpt lat="41.6105340" lon="1.8463560">
        <ele>162.6</ele>
        <time>2022-06-28T16:02:10Z</time>
      </trkpt>
      <trkpt lat="41.6105760" lon="1.8465440">
        <ele>163.6</ele>
        <time>2022-06-28T16:02:13Z</time>
      </trkpt>
      <trkpt lat="41.6106090" lon="1.8466800">
        <ele>164.0</ele>
        <time>2022-06-28T16:02:15Z</time>
      </trkpt>
      <trkpt lat="41.6106980" lon="1.8470430">
        <ele>164.2</ele>
        <time>2022-06-28T16:02:20Z</time>
      </trkpt>
      <trkpt lat="41.6108670" lon="1.8476520">
        <ele>164.2</ele>
        <time>2022-06-28T16:02:29Z</time>
      </trkpt>
      <trkpt lat="41.6109330" lon="1.8478450">
        <ele>164.4</ele>
        <time>2022-06-28T16:02:32Z</time>
      </trkpt>
      <trkpt lat="41.6110050" lon="1.8478590">
        <ele>164.2</ele>
        <time>2022-06-28T16:02:34Z</time>
      </trkpt>
      <trkpt lat="41.6110930" lon="1.8477750">
        <ele>163.8</ele>
        <time>2022-06-28T16:02:36Z</time>
      </trkpt>
      <trkpt lat="41.6111850" lon="1.8476500">
        <ele>163.8</ele>
        <time>2022-06-28T16:02:38Z</time>
      </trkpt>
      <trkpt lat="41.6113260" lon="1.8474400">
        <ele>163.0</ele>
        <time>2022-06-28T16:02:41Z</time>
      </trkpt>
      <trkpt lat="41.6113760" lon="1.8473780">
        <ele>162.4</ele>
        <time>2022-06-28T16:02:42Z</time>
      </trkpt>
      <trkpt lat="41.6114240" lon="1.8473190">
        <ele>162.2</ele>
        <time>2022-06-28T16:02:43Z</time>
      </trkpt>
      <trkpt lat="41.6114770" lon="1.8472670">
        <ele>161.8</ele>
        <time>2022-06-28T16:02:44Z</time>
      </trkpt>
      <trkpt lat="41.6115270" lon="1.8472310">
        <ele>161.4</ele>
        <time>2022-06-28T16:02:45Z</time>
      </trkpt>
      <trkpt lat="41.6115790" lon="1.8472120">
        <ele>161.2</ele>
        <time>2022-06-28T16:02:46Z</time>
      </trkpt>
      <trkpt lat="41.6116940" lon="1.8471870">
        <ele>160.6</ele>
        <time>2022-06-28T16:02:48Z</time>
      </trkpt>
      <trkpt lat="41.6117500" lon="1.8471770">
        <ele>160.2</ele>
        <time>2022-06-28T16:02:49Z</time>
      </trkpt>
      <trkpt lat="41.6119240" lon="1.8471650">
        <ele>159.8</ele>
        <time>2022-06-28T16:02:52Z</time>
      </trkpt>
      <trkpt lat="41.6120520" lon="1.8471650">
        <ele>159.8</ele>
        <time>2022-06-28T16:02:54Z</time>
      </trkpt>
      <trkpt lat="41.6121810" lon="1.8471790">
        <ele>159.8</ele>
        <time>2022-06-28T16:02:56Z</time>
      </trkpt>
      <trkpt lat="41.6123090" lon="1.8472090">
        <ele>159.6</ele>
        <time>2022-06-28T16:02:58Z</time>
      </trkpt>
      <trkpt lat="41.6127550" lon="1.8473310">
        <ele>159.8</ele>
        <time>2022-06-28T16:03:05Z</time>
      </trkpt>
      <trkpt lat="41.6128570" lon="1.8473610">
        <ele>159.8</ele>
        <time>2022-06-28T16:03:07Z</time>
      </trkpt>
      <trkpt lat="41.6129770" lon="1.8474260">
        <ele>159.8</ele>
        <time>2022-06-28T16:03:09Z</time>
      </trkpt>
      <trkpt lat="41.6130290" lon="1.8474610">
        <ele>159.8</ele>
        <time>2022-06-28T16:03:10Z</time>
      </trkpt>
      <trkpt lat="41.6131870" lon="1.8475700">
        <ele>159.6</ele>
        <time>2022-06-28T16:03:13Z</time>
      </trkpt>
      <trkpt lat="41.6132600" lon="1.8476190">
        <ele>159.6</ele>
        <time>2022-06-28T16:03:14Z</time>
      </trkpt>
      <trkpt lat="41.6133890" lon="1.8477720">
        <ele>159.0</ele>
        <time>2022-06-28T16:03:16Z</time>
      </trkpt>
      <trkpt lat="41.6134930" lon="1.8479770">
        <ele>158.4</ele>
        <time>2022-06-28T16:03:18Z</time>
      </trkpt>
      <trkpt lat="41.6135730" lon="1.8481620">
        <ele>157.2</ele>
        <time>2022-06-28T16:03:20Z</time>
      </trkpt>
      <trkpt lat="41.6136460" lon="1.8484040">
        <ele>156.0</ele>
        <time>2022-06-28T16:03:22Z</time>
      </trkpt>
      <trkpt lat="41.6136920" lon="1.8486020">
        <ele>154.6</ele>
        <time>2022-06-28T16:03:24Z</time>
      </trkpt>
      <trkpt lat="41.6138090" lon="1.8490530">
        <ele>153.8</ele>
        <time>2022-06-28T16:03:28Z</time>
      </trkpt>
      <trkpt lat="41.6138490" lon="1.8492470">
        <ele>153.6</ele>
        <time>2022-06-28T16:03:30Z</time>
      </trkpt>
      <trkpt lat="41.6138780" lon="1.8493780">
        <ele>153.6</ele>
        <time>2022-06-28T16:03:31Z</time>
      </trkpt>
      <trkpt lat="41.6138970" lon="1.8494860">
        <ele>153.6</ele>
        <time>2022-06-28T16:03:32Z</time>
      </trkpt>
      <trkpt lat="41.6139340" lon="1.8496790">
        <ele>153.4</ele>
        <time>2022-06-28T16:03:34Z</time>
      </trkpt>
      <trkpt lat="41.6140570" lon="1.8502090">
        <ele>153.6</ele>
        <time>2022-06-28T16:03:39Z</time>
      </trkpt>
      <trkpt lat="41.6142410" lon="1.8506910">
        <ele>154.0</ele>
        <time>2022-06-28T16:03:44Z</time>
      </trkpt>
      <trkpt lat="41.6142960" lon="1.8507860">
        <ele>154.0</ele>
        <time>2022-06-28T16:03:45Z</time>
      </trkpt>
      <trkpt lat="41.6143940" lon="1.8509120">
        <ele>154.2</ele>
        <time>2022-06-28T16:03:47Z</time>
      </trkpt>
      <trkpt lat="41.6144650" lon="1.8509680">
        <ele>154.2</ele>
        <time>2022-06-28T16:03:48Z</time>
      </trkpt>
      <trkpt lat="41.6149750" lon="1.8513520">
        <ele>154.0</ele>
        <time>2022-06-28T16:03:55Z</time>
      </trkpt>
      <trkpt lat="41.6150260" lon="1.8513950">
        <ele>154.0</ele>
        <time>2022-06-28T16:03:56Z</time>
      </trkpt>
      <trkpt lat="41.6154720" lon="1.8517620">
        <ele>154.4</ele>
        <time>2022-06-28T16:04:03Z</time>
      </trkpt>
      <trkpt lat="41.6157090" lon="1.8519620">
        <ele>154.6</ele>
        <time>2022-06-28T16:04:07Z</time>
      </trkpt>
      <trkpt lat="41.6158480" lon="1.8520550">
        <ele>154.6</ele>
        <time>2022-06-28T16:04:09Z</time>
      </trkpt>
      <trkpt lat="41.6161730" lon="1.8522110">
        <ele>154.8</ele>
        <time>2022-06-28T16:04:14Z</time>
      </trkpt>
      <trkpt lat="41.6165820" lon="1.8523710">
        <ele>155.0</ele>
        <time>2022-06-28T16:04:20Z</time>
      </trkpt>
      <trkpt lat="41.6169180" lon="1.8524960">
        <ele>155.0</ele>
        <time>2022-06-28T16:04:25Z</time>
      </trkpt>
      <trkpt lat="41.6174130" lon="1.8526550">
        <ele>155.2</ele>
        <time>2022-06-28T16:04:32Z</time>
      </trkpt>
      <trkpt lat="41.6179320" lon="1.8527730">
        <ele>155.2</ele>
        <time>2022-06-28T16:04:39Z</time>
      </trkpt>
      <trkpt lat="41.6185290" lon="1.8529610">
        <ele>155.2</ele>
        <time>2022-06-28T16:04:47Z</time>
      </trkpt>
      <trkpt lat="41.6190660" lon="1.8531490">
        <ele>155.2</ele>
        <time>2022-06-28T16:04:54Z</time>
      </trkpt>
      <trkpt lat="41.6192170" lon="1.8531930">
        <ele>155.2</ele>
        <time>2022-06-28T16:04:56Z</time>
      </trkpt>
      <trkpt lat="41.6194170" lon="1.8532720">
        <ele>155.4</ele>
        <time>2022-06-28T16:04:59Z</time>
      </trkpt>
      <trkpt lat="41.6196440" lon="1.8533660">
        <ele>155.4</ele>
        <time>2022-06-28T16:05:02Z</time>
      </trkpt>
      <trkpt lat="41.6199030" lon="1.8535330">
        <ele>155.6</ele>
        <time>2022-06-28T16:05:06Z</time>
      </trkpt>
      <trkpt lat="41.6204620" lon="1.8538960">
        <ele>155.6</ele>
        <time>2022-06-28T16:05:14Z</time>
      </trkpt>
      <trkpt lat="41.6205310" lon="1.8539340">
        <ele>155.6</ele>
        <time>2022-06-28T16:05:15Z</time>
      </trkpt>
      <trkpt lat="41.6205900" lon="1.8539600">
        <ele>155.6</ele>
        <time>2022-06-28T16:05:16Z</time>
      </trkpt>
      <trkpt lat="41.6208680" lon="1.8540850">
        <ele>155.8</ele>
        <time>2022-06-28T16:05:20Z</time>
      </trkpt>
      <trkpt lat="41.6211500" lon="1.8541980">
        <ele>156.0</ele>
        <time>2022-06-28T16:05:24Z</time>
      </trkpt>
      <trkpt lat="41.6214910" lon="1.8543330">
        <ele>156.0</ele>
        <time>2022-06-28T16:05:29Z</time>
      </trkpt>
      <trkpt lat="41.6217060" lon="1.8544340">
        <ele>156.2</ele>
        <time>2022-06-28T16:05:32Z</time>
      </trkpt>
      <trkpt lat="41.6218480" lon="1.8544900">
        <ele>156.2</ele>
        <time>2022-06-28T16:05:34Z</time>
      </trkpt>
      <trkpt lat="41.6223170" lon="1.8547480">
        <ele>156.0</ele>
        <time>2022-06-28T16:05:41Z</time>
      </trkpt>
      <trkpt lat="41.6227480" lon="1.8551490">
        <ele>156.2</ele>
        <time>2022-06-28T16:05:48Z</time>
      </trkpt>
      <trkpt lat="41.6230080" lon="1.8554860">
        <ele>157.0</ele>
        <time>2022-06-28T16:05:53Z</time>
      </trkpt>
      <trkpt lat="41.6231250" lon="1.8556340">
        <ele>157.0</ele>
        <time>2022-06-28T16:05:55Z</time>
      </trkpt>
      <trkpt lat="41.6235050" lon="1.8562580">
        <ele>156.4</ele>
        <time>2022-06-28T16:06:03Z</time>
      </trkpt>
      <trkpt lat="41.6236520" lon="1.8567230">
        <ele>156.2</ele>
        <time>2022-06-28T16:06:08Z</time>
      </trkpt>
      <trkpt lat="41.6236930" lon="1.8573390">
        <ele>156.2</ele>
        <time>2022-06-28T16:06:14Z</time>
      </trkpt>
      <trkpt lat="41.6236290" lon="1.8578370">
        <ele>156.2</ele>
        <time>2022-06-28T16:06:19Z</time>
      </trkpt>
      <trkpt lat="41.6234790" lon="1.8584830">
        <ele>156.2</ele>
        <time>2022-06-28T16:06:26Z</time>
      </trkpt>
      <trkpt lat="41.6233310" lon="1.8589980">
        <ele>156.6</ele>
        <time>2022-06-28T16:06:32Z</time>
      </trkpt>
      <trkpt lat="41.6231470" lon="1.8594070">
        <ele>156.8</ele>
        <time>2022-06-28T16:06:37Z</time>
      </trkpt>
      <trkpt lat="41.6228750" lon="1.8599750">
        <ele>157.2</ele>
        <time>2022-06-28T16:06:44Z</time>
      </trkpt>
      <trkpt lat="41.6227090" lon="1.8605720">
        <ele>157.8</ele>
        <time>2022-06-28T16:06:51Z</time>
      </trkpt>
      <trkpt lat="41.6224920" lon="1.8612920">
        <ele>157.8</ele>
        <time>2022-06-28T16:06:59Z</time>
      </trkpt>
      <trkpt lat="41.6224640" lon="1.8613670">
        <ele>157.8</ele>
        <time>2022-06-28T16:07:00Z</time>
      </trkpt>
      <trkpt lat="41.6221910" lon="1.8620000">
        <ele>157.8</ele>
        <time>2022-06-28T16:07:07Z</time>
      </trkpt>
      <trkpt lat="41.6221610" lon="1.8620670">
        <ele>157.8</ele>
        <time>2022-06-28T16:07:08Z</time>
      </trkpt>
      <trkpt lat="41.6219610" lon="1.8625040">
        <ele>158.0</ele>
        <time>2022-06-28T16:07:13Z</time>
      </trkpt>
      <trkpt lat="41.6219310" lon="1.8625740">
        <ele>158.2</ele>
        <time>2022-06-28T16:07:14Z</time>
      </trkpt>
      <trkpt lat="41.6217030" lon="1.8630710">
        <ele>158.8</ele>
        <time>2022-06-28T16:07:20Z</time>
      </trkpt>
      <trkpt lat="41.6213800" lon="1.8636870">
        <ele>159.0</ele>
        <time>2022-06-28T16:07:28Z</time>
      </trkpt>
      <trkpt lat="41.6213470" lon="1.8637680">
        <ele>159.2</ele>
        <time>2022-06-28T16:07:29Z</time>
      </trkpt>
      <trkpt lat="41.6212000" lon="1.8641840">
        <ele>160.2</ele>
        <time>2022-06-28T16:07:34Z</time>
      </trkpt>
      <trkpt lat="41.6211790" lon="1.8642670">
        <ele>160.2</ele>
        <time>2022-06-28T16:07:35Z</time>
      </trkpt>
      <trkpt lat="41.6211510" lon="1.8645330">
        <ele>160.0</ele>
        <time>2022-06-28T16:07:38Z</time>
      </trkpt>
      <trkpt lat="41.6211640" lon="1.8648020">
        <ele>159.8</ele>
        <time>2022-06-28T16:07:41Z</time>
      </trkpt>
      <trkpt lat="41.6212080" lon="1.8649750">
        <ele>159.8</ele>
        <time>2022-06-28T16:07:43Z</time>
      </trkpt>
      <trkpt lat="41.6213970" lon="1.8653630">
        <ele>159.6</ele>
        <time>2022-06-28T16:07:48Z</time>
      </trkpt>
      <trkpt lat="41.6214870" lon="1.8655050">
        <ele>159.4</ele>
        <time>2022-06-28T16:07:50Z</time>
      </trkpt>
      <trkpt lat="41.6215820" lon="1.8656470">
        <ele>159.4</ele>
        <time>2022-06-28T16:07:52Z</time>
      </trkpt>
      <trkpt lat="41.6216750" lon="1.8657570">
        <ele>159.6</ele>
        <time>2022-06-28T16:07:54Z</time>
      </trkpt>
      <trkpt lat="41.6219770" lon="1.8661070">
        <ele>159.4</ele>
        <time>2022-06-28T16:08:00Z</time>
      </trkpt>
      <trkpt lat="41.6221720" lon="1.8663670">
        <ele>159.6</ele>
        <time>2022-06-28T16:08:04Z</time>
      </trkpt>
      <trkpt lat="41.6222110" lon="1.8664320">
        <ele>159.6</ele>
        <time>2022-06-28T16:08:05Z</time>
      </trkpt>
      <trkpt lat="41.6224940" lon="1.8667810">
        <ele>159.2</ele>
        <time>2022-06-28T16:08:11Z</time>
      </trkpt>
      <trkpt lat="41.6226380" lon="1.8669540">
        <ele>159.4</ele>
        <time>2022-06-28T16:08:14Z</time>
      </trkpt>
      <trkpt lat="41.6226970" lon="1.8670130">
        <ele>159.4</ele>
        <time>2022-06-28T16:08:15Z</time>
      </trkpt>
      <trkpt lat="41.6227460" lon="1.8670740">
        <ele>159.4</ele>
        <time>2022-06-28T16:08:16Z</time>
      </trkpt>
      <trkpt lat="41.6229070" lon="1.8672520">
        <ele>159.4</ele>
        <time>2022-06-28T16:08:19Z</time>
      </trkpt>
      <trkpt lat="41.6233500" lon="1.8676880">
        <ele>159.6</ele>
        <time>2022-06-28T16:08:27Z</time>
      </trkpt>
      <trkpt lat="41.6236670" lon="1.8679390">
        <ele>160.0</ele>
        <time>2022-06-28T16:08:33Z</time>
      </trkpt>
      <trkpt lat="41.6239730" lon="1.8680950">
        <ele>160.8</ele>
        <time>2022-06-28T16:08:38Z</time>
      </trkpt>
      <trkpt lat="41.6241380" lon="1.8681790">
        <ele>161.6</ele>
        <time>2022-06-28T16:08:41Z</time>
      </trkpt>
      <trkpt lat="41.6243050" lon="1.8682610">
        <ele>162.4</ele>
        <time>2022-06-28T16:08:44Z</time>
      </trkpt>
      <trkpt lat="41.6244170" lon="1.8683140">
        <ele>162.8</ele>
        <time>2022-06-28T16:08:46Z</time>
      </trkpt>
      <trkpt lat="41.6247630" lon="1.8684800">
        <ele>163.8</ele>
        <time>2022-06-28T16:08:52Z</time>
      </trkpt>
      <trkpt lat="41.6248230" lon="1.8685050">
        <ele>164.2</ele>
        <time>2022-06-28T16:08:53Z</time>
      </trkpt>
      <trkpt lat="41.6250470" lon="1.8686080">
        <ele>164.8</ele>
        <time>2022-06-28T16:08:57Z</time>
      </trkpt>
      <trkpt lat="41.6253300" lon="1.8687250">
        <ele>166.0</ele>
        <time>2022-06-28T16:09:02Z</time>
      </trkpt>
      <trkpt lat="41.6253710" lon="1.8687470">
        <ele>166.0</ele>
        <time>2022-06-28T16:09:03Z</time>
      </trkpt>
      <trkpt lat="41.6255270" lon="1.8688090">
        <ele>166.8</ele>
        <time>2022-06-28T16:09:06Z</time>
      </trkpt>
      <trkpt lat="41.6255840" lon="1.8688210">
        <ele>167.2</ele>
        <time>2022-06-28T16:09:07Z</time>
      </trkpt>
      <trkpt lat="41.6256400" lon="1.8688320">
        <ele>167.4</ele>
        <time>2022-06-28T16:09:08Z</time>
      </trkpt>
      <trkpt lat="41.6256950" lon="1.8688360">
        <ele>167.8</ele>
        <time>2022-06-28T16:09:09Z</time>
      </trkpt>
      <trkpt lat="41.6258010" lon="1.8688140">
        <ele>168.2</ele>
        <time>2022-06-28T16:09:11Z</time>
      </trkpt>
      <trkpt lat="41.6258640" lon="1.8687800">
        <ele>168.2</ele>
        <time>2022-06-28T16:09:12Z</time>
      </trkpt>
      <trkpt lat="41.6260180" lon="1.8686710">
        <ele>169.4</ele>
        <time>2022-06-28T16:09:15Z</time>
      </trkpt>
      <trkpt lat="41.6261510" lon="1.8685710">
        <ele>170.2</ele>
        <time>2022-06-28T16:09:18Z</time>
      </trkpt>
      <trkpt lat="41.6262410" lon="1.8685160">
        <ele>170.6</ele>
        <time>2022-06-28T16:09:20Z</time>
      </trkpt>
      <trkpt lat="41.6262840" lon="1.8684890">
        <ele>170.8</ele>
        <time>2022-06-28T16:09:21Z</time>
      </trkpt>
      <trkpt lat="41.6264530" lon="1.8683730">
        <ele>171.6</ele>
        <time>2022-06-28T16:09:25Z</time>
      </trkpt>
      <trkpt lat="41.6264930" lon="1.8683500">
        <ele>172.0</ele>
        <time>2022-06-28T16:09:26Z</time>
      </trkpt>
      <trkpt lat="41.6265610" lon="1.8683080">
        <ele>172.4</ele>
        <time>2022-06-28T16:09:28Z</time>
      </trkpt>
      <trkpt lat="41.6266000" lon="1.8682790">
        <ele>172.6</ele>
        <time>2022-06-28T16:09:29Z</time>
      </trkpt>
      <trkpt lat="41.6266820" lon="1.8682230">
        <ele>173.0</ele>
        <time>2022-06-28T16:09:31Z</time>
      </trkpt>
      <trkpt lat="41.6268170" lon="1.8681320">
        <ele>173.8</ele>
        <time>2022-06-28T16:09:34Z</time>
      </trkpt>
      <trkpt lat="41.6269640" lon="1.8680070">
        <ele>174.8</ele>
        <time>2022-06-28T16:09:38Z</time>
      </trkpt>
      <trkpt lat="41.6270040" lon="1.8679590">
        <ele>175.2</ele>
        <time>2022-06-28T16:09:39Z</time>
      </trkpt>
      <trkpt lat="41.6270560" lon="1.8678770">
        <ele>175.8</ele>
        <time>2022-06-28T16:09:41Z</time>
      </trkpt>
      <trkpt lat="41.6271110" lon="1.8677730">
        <ele>176.2</ele>
        <time>2022-06-28T16:09:43Z</time>
      </trkpt>
      <trkpt lat="41.6271280" lon="1.8677350">
        <ele>176.6</ele>
        <time>2022-06-28T16:09:44Z</time>
      </trkpt>
      <trkpt lat="41.6271700" lon="1.8676460">
        <ele>177.4</ele>
        <time>2022-06-28T16:09:46Z</time>
      </trkpt>
      <trkpt lat="41.6272460" lon="1.8674620">
        <ele>178.0</ele>
        <time>2022-06-28T16:09:50Z</time>
      </trkpt>
      <trkpt lat="41.6272670" lon="1.8674140">
        <ele>178.4</ele>
        <time>2022-06-28T16:09:51Z</time>
      </trkpt>
      <trkpt lat="41.6273880" lon="1.8671880">
        <ele>179.6</ele>
        <time>2022-06-28T16:09:56Z</time>
      </trkpt>
      <trkpt lat="41.6274690" lon="1.8670630">
        <ele>180.2</ele>
        <time>2022-06-28T16:09:59Z</time>
      </trkpt>
      <trkpt lat="41.6275380" lon="1.8669530">
        <ele>180.6</ele>
        <time>2022-06-28T16:10:02Z</time>
      </trkpt>
      <trkpt lat="41.6276320" lon="1.8668110">
        <ele>181.6</ele>
        <time>2022-06-28T16:10:06Z</time>
      </trkpt>
      <trkpt lat="41.6276810" lon="1.8667380">
        <ele>181.6</ele>
        <time>2022-06-28T16:10:08Z</time>
      </trkpt>
      <trkpt lat="41.6277860" lon="1.8665560">
        <ele>182.8</ele>
        <time>2022-06-28T16:10:14Z</time>
      </trkpt>
      <trkpt lat="41.6278050" lon="1.8665250">
        <ele>183.0</ele>
        <time>2022-06-28T16:10:15Z</time>
      </trkpt>
      <trkpt lat="41.6278790" lon="1.8664000">
        <ele>184.2</ele>
        <time>2022-06-28T16:10:19Z</time>
      </trkpt>
      <trkpt lat="41.6279320" lon="1.8663050">
        <ele>184.8</ele>
        <time>2022-06-28T16:10:22Z</time>
      </trkpt>
      <trkpt lat="41.6279730" lon="1.8662470">
        <ele>185.2</ele>
        <time>2022-06-28T16:10:24Z</time>
      </trkpt>
      <trkpt lat="41.6280940" lon="1.8660520">
        <ele>185.6</ele>
        <time>2022-06-28T16:10:30Z</time>
      </trkpt>
      <trkpt lat="41.6282460" lon="1.8658120">
        <ele>185.6</ele>
        <time>2022-06-28T16:10:36Z</time>
      </trkpt>
      <trkpt lat="41.6283720" lon="1.8656220">
        <ele>185.0</ele>
        <time>2022-06-28T16:10:40Z</time>
      </trkpt>
      <trkpt lat="41.6284580" lon="1.8654800">
        <ele>184.8</ele>
        <time>2022-06-28T16:10:43Z</time>
      </trkpt>
      <trkpt lat="41.6286220" lon="1.8651000">
        <ele>184.2</ele>
        <time>2022-06-28T16:10:50Z</time>
      </trkpt>
      <trkpt lat="41.6286390" lon="1.8650510">
        <ele>184.2</ele>
        <time>2022-06-28T16:10:51Z</time>
      </trkpt>
      <trkpt lat="41.6287060" lon="1.8648840">
        <ele>184.0</ele>
        <time>2022-06-28T16:10:54Z</time>
      </trkpt>
      <trkpt lat="41.6287730" lon="1.8647270">
        <ele>183.8</ele>
        <time>2022-06-28T16:10:57Z</time>
      </trkpt>
      <trkpt lat="41.6289270" lon="1.8643320">
        <ele>183.8</ele>
        <time>2022-06-28T16:11:04Z</time>
      </trkpt>
      <trkpt lat="41.6289490" lon="1.8642710">
        <ele>183.8</ele>
        <time>2022-06-28T16:11:05Z</time>
      </trkpt>
      <trkpt lat="41.6290630" lon="1.8639370">
        <ele>184.0</ele>
        <time>2022-06-28T16:11:10Z</time>
      </trkpt>
      <trkpt lat="41.6290970" lon="1.8638060">
        <ele>184.0</ele>
        <time>2022-06-28T16:11:12Z</time>
      </trkpt>
      <trkpt lat="41.6290880" lon="1.8636960">
        <ele>184.0</ele>
        <time>2022-06-28T16:11:14Z</time>
      </trkpt>
      <trkpt lat="41.6290550" lon="1.8636610">
        <ele>183.8</ele>
        <time>2022-06-28T16:11:15Z</time>
      </trkpt>
      <trkpt lat="41.6290050" lon="1.8636190">
        <ele>183.8</ele>
        <time>2022-06-28T16:11:16Z</time>
      </trkpt>
      <trkpt lat="41.6288520" lon="1.8635120">
        <ele>183.6</ele>
        <time>2022-06-28T16:11:19Z</time>
      </trkpt>
      <trkpt lat="41.6287540" lon="1.8634450">
        <ele>183.4</ele>
        <time>2022-06-28T16:11:21Z</time>
      </trkpt>
      <trkpt lat="41.6286730" lon="1.8633240">
        <ele>183.2</ele>
        <time>2022-06-28T16:11:23Z</time>
      </trkpt>
      <trkpt lat="41.6286530" lon="1.8632490">
        <ele>183.2</ele>
        <time>2022-06-28T16:11:24Z</time>
      </trkpt>
      <trkpt lat="41.6286450" lon="1.8631730">
        <ele>183.0</ele>
        <time>2022-06-28T16:11:25Z</time>
      </trkpt>
      <trkpt lat="41.6286480" lon="1.8630980">
        <ele>183.0</ele>
        <time>2022-06-28T16:11:26Z</time>
      </trkpt>
      <trkpt lat="41.6286970" lon="1.8627800">
        <ele>182.0</ele>
        <time>2022-06-28T16:11:31Z</time>
      </trkpt>
      <trkpt lat="41.6287070" lon="1.8627260">
        <ele>182.0</ele>
        <time>2022-06-28T16:11:32Z</time>
      </trkpt>
      <trkpt lat="41.6287070" lon="1.8626200">
        <ele>181.8</ele>
        <time>2022-06-28T16:11:35Z</time>
      </trkpt>
      <trkpt lat="41.6287080" lon="1.8626150">
        <ele>181.8</ele>
        <time>2022-06-28T16:11:36Z</time>
      </trkpt>
      <trkpt lat="41.6287110" lon="1.8626150">
        <ele>182.0</ele>
        <time>2022-06-28T16:11:39Z</time>
      </trkpt>
      <trkpt lat="41.6287250" lon="1.8624880">
        <ele>182.4</ele>
        <time>2022-06-28T16:21:57Z</time>
      </trkpt>
      <trkpt lat="41.6287320" lon="1.8624420">
        <ele>182.2</ele>
        <time>2022-06-28T16:21:58Z</time>
      </trkpt>
      <trkpt lat="41.6288030" lon="1.8621040">
        <ele>181.8</ele>
        <time>2022-06-28T16:22:04Z</time>
      </trkpt>
      <trkpt lat="41.6288540" lon="1.8618660">
        <ele>181.4</ele>
        <time>2022-06-28T16:22:08Z</time>
      </trkpt>
      <trkpt lat="41.6289100" lon="1.8616770">
        <ele>181.2</ele>
        <time>2022-06-28T16:22:11Z</time>
      </trkpt>
      <trkpt lat="41.6290240" lon="1.8612200">
        <ele>180.8</ele>
        <time>2022-06-28T16:22:18Z</time>
      </trkpt>
      <trkpt lat="41.6291460" lon="1.8607430">
        <ele>180.6</ele>
        <time>2022-06-28T16:22:25Z</time>
      </trkpt>
      <trkpt lat="41.6292580" lon="1.8603210">
        <ele>181.0</ele>
        <time>2022-06-28T16:22:31Z</time>
      </trkpt>
      <trkpt lat="41.6292930" lon="1.8601690">
        <ele>181.0</ele>
        <time>2022-06-28T16:22:33Z</time>
      </trkpt>
      <trkpt lat="41.6293910" lon="1.8597620">
        <ele>181.2</ele>
        <time>2022-06-28T16:22:39Z</time>
      </trkpt>
      <trkpt lat="41.6295380" lon="1.8591600">
        <ele>182.0</ele>
        <time>2022-06-28T16:22:48Z</time>
      </trkpt>
      <trkpt lat="41.6295550" lon="1.8590110">
        <ele>182.2</ele>
        <time>2022-06-28T16:22:50Z</time>
      </trkpt>
      <trkpt lat="41.6295870" lon="1.8588190">
        <ele>182.4</ele>
        <time>2022-06-28T16:22:53Z</time>
      </trkpt>
      <trkpt lat="41.6296240" lon="1.8585180">
        <ele>182.6</ele>
        <time>2022-06-28T16:22:57Z</time>
      </trkpt>
      <trkpt lat="41.6296400" lon="1.8583830">
        <ele>182.8</ele>
        <time>2022-06-28T16:22:59Z</time>
      </trkpt>
      <trkpt lat="41.6296620" lon="1.8582670">
        <ele>183.0</ele>
        <time>2022-06-28T16:23:01Z</time>
      </trkpt>
      <trkpt lat="41.6297180" lon="1.8580550">
        <ele>183.2</ele>
        <time>2022-06-28T16:23:04Z</time>
      </trkpt>
      <trkpt lat="41.6297400" lon="1.8580040">
        <ele>183.2</ele>
        <time>2022-06-28T16:23:05Z</time>
      </trkpt>
      <trkpt lat="41.6297980" lon="1.8578790">
        <ele>183.8</ele>
        <time>2022-06-28T16:23:07Z</time>
      </trkpt>
      <trkpt lat="41.6299770" lon="1.8574800">
        <ele>184.6</ele>
        <time>2022-06-28T16:23:13Z</time>
      </trkpt>
      <trkpt lat="41.6301230" lon="1.8571850">
        <ele>185.0</ele>
        <time>2022-06-28T16:23:18Z</time>
      </trkpt>
      <trkpt lat="41.6302340" lon="1.8569440">
        <ele>185.4</ele>
        <time>2022-06-28T16:23:22Z</time>
      </trkpt>
      <trkpt lat="41.6303080" lon="1.8567750">
        <ele>186.2</ele>
        <time>2022-06-28T16:23:25Z</time>
      </trkpt>
      <trkpt lat="41.6304580" lon="1.8564230">
        <ele>187.0</ele>
        <time>2022-06-28T16:23:31Z</time>
      </trkpt>
      <trkpt lat="41.6304850" lon="1.8563650">
        <ele>187.2</ele>
        <time>2022-06-28T16:23:32Z</time>
      </trkpt>
      <trkpt lat="41.6305580" lon="1.8561950">
        <ele>187.8</ele>
        <time>2022-06-28T16:23:35Z</time>
      </trkpt>
      <trkpt lat="41.6306020" lon="1.8560740">
        <ele>188.0</ele>
        <time>2022-06-28T16:23:37Z</time>
      </trkpt>
      <trkpt lat="41.6306230" lon="1.8560040">
        <ele>188.0</ele>
        <time>2022-06-28T16:23:38Z</time>
      </trkpt>
      <trkpt lat="41.6307970" lon="1.8555300">
        <ele>188.2</ele>
        <time>2022-06-28T16:23:45Z</time>
      </trkpt>
      <trkpt lat="41.6308480" lon="1.8554180">
        <ele>188.0</ele>
        <time>2022-06-28T16:23:47Z</time>
      </trkpt>
      <trkpt lat="41.6310040" lon="1.8551800">
        <ele>188.0</ele>
        <time>2022-06-28T16:23:51Z</time>
      </trkpt>
      <trkpt lat="41.6310820" lon="1.8550660">
        <ele>188.2</ele>
        <time>2022-06-28T16:23:53Z</time>
      </trkpt>
      <trkpt lat="41.6313150" lon="1.8547300">
        <ele>188.6</ele>
        <time>2022-06-28T16:23:59Z</time>
      </trkpt>
      <trkpt lat="41.6314510" lon="1.8545950">
        <ele>188.8</ele>
        <time>2022-06-28T16:24:02Z</time>
      </trkpt>
      <trkpt lat="41.6315400" lon="1.8545250">
        <ele>188.8</ele>
        <time>2022-06-28T16:24:04Z</time>
      </trkpt>
      <trkpt lat="41.6316380" lon="1.8544620">
        <ele>189.0</ele>
        <time>2022-06-28T16:24:06Z</time>
      </trkpt>
      <trkpt lat="41.6317880" lon="1.8543500">
        <ele>189.2</ele>
        <time>2022-06-28T16:24:09Z</time>
      </trkpt>
      <trkpt lat="41.6318880" lon="1.8542810">
        <ele>189.4</ele>
        <time>2022-06-28T16:24:11Z</time>
      </trkpt>
      <trkpt lat="41.6323450" lon="1.8539330">
        <ele>190.4</ele>
        <time>2022-06-28T16:24:20Z</time>
      </trkpt>
      <trkpt lat="41.6327660" lon="1.8536400">
        <ele>190.4</ele>
        <time>2022-06-28T16:24:28Z</time>
      </trkpt>
      <trkpt lat="41.6329980" lon="1.8535400">
        <ele>190.6</ele>
        <time>2022-06-28T16:24:32Z</time>
      </trkpt>
      <trkpt lat="41.6331050" lon="1.8535150">
        <ele>190.8</ele>
        <time>2022-06-28T16:24:34Z</time>
      </trkpt>
      <trkpt lat="41.6331820" lon="1.8535060">
        <ele>190.8</ele>
        <time>2022-06-28T16:24:35Z</time>
      </trkpt>
      <trkpt lat="41.6333150" lon="1.8535270">
        <ele>191.0</ele>
        <time>2022-06-28T16:24:37Z</time>
      </trkpt>
      <trkpt lat="41.6333780" lon="1.8535510">
        <ele>191.0</ele>
        <time>2022-06-28T16:24:38Z</time>
      </trkpt>
      <trkpt lat="41.6337390" lon="1.8536990">
        <ele>191.0</ele>
        <time>2022-06-28T16:24:43Z</time>
      </trkpt>
      <trkpt lat="41.6342130" lon="1.8539020">
        <ele>190.0</ele>
        <time>2022-06-28T16:24:49Z</time>
      </trkpt>
      <trkpt lat="41.6343750" lon="1.8539710">
        <ele>189.6</ele>
        <time>2022-06-28T16:24:51Z</time>
      </trkpt>
      <trkpt lat="41.6347170" lon="1.8540750">
        <ele>189.0</ele>
        <time>2022-06-28T16:24:55Z</time>
      </trkpt>
      <trkpt lat="41.6349790" lon="1.8541040">
        <ele>188.4</ele>
        <time>2022-06-28T16:24:58Z</time>
      </trkpt>
      <trkpt lat="41.6351500" lon="1.8541120">
        <ele>188.2</ele>
        <time>2022-06-28T16:25:00Z</time>
      </trkpt>
      <trkpt lat="41.6357520" lon="1.8541310">
        <ele>187.8</ele>
        <time>2022-06-28T16:25:07Z</time>
      </trkpt>
      <trkpt lat="41.6358330" lon="1.8541330">
        <ele>187.8</ele>
        <time>2022-06-28T16:25:08Z</time>
      </trkpt>
      <trkpt lat="41.6363860" lon="1.8541320">
        <ele>187.8</ele>
        <time>2022-06-28T16:25:15Z</time>
      </trkpt>
      <trkpt lat="41.6366120" lon="1.8541650">
        <ele>188.0</ele>
        <time>2022-06-28T16:25:18Z</time>
      </trkpt>
      <trkpt lat="41.6367580" lon="1.8542000">
        <ele>188.0</ele>
        <time>2022-06-28T16:25:20Z</time>
      </trkpt>
      <trkpt lat="41.6372960" lon="1.8543610">
        <ele>187.8</ele>
        <time>2022-06-28T16:25:27Z</time>
      </trkpt>
      <trkpt lat="41.6373790" lon="1.8543880">
        <ele>187.6</ele>
        <time>2022-06-28T16:25:28Z</time>
      </trkpt>
      <trkpt lat="41.6377200" lon="1.8545310">
        <ele>187.2</ele>
        <time>2022-06-28T16:25:32Z</time>
      </trkpt>
      <trkpt lat="41.6378960" lon="1.8546380">
        <ele>186.4</ele>
        <time>2022-06-28T16:25:34Z</time>
      </trkpt>
      <trkpt lat="41.6379850" lon="1.8546990">
        <ele>186.2</ele>
        <time>2022-06-28T16:25:35Z</time>
      </trkpt>
      <trkpt lat="41.6382430" lon="1.8548740">
        <ele>185.0</ele>
        <time>2022-06-28T16:25:38Z</time>
      </trkpt>
      <trkpt lat="41.6383470" lon="1.8549680">
        <ele>184.8</ele>
        <time>2022-06-28T16:25:39Z</time>
      </trkpt>
      <trkpt lat="41.6384210" lon="1.8550730">
        <ele>184.2</ele>
        <time>2022-06-28T16:25:40Z</time>
      </trkpt>
      <trkpt lat="41.6384850" lon="1.8551930">
        <ele>184.0</ele>
        <time>2022-06-28T16:25:41Z</time>
      </trkpt>
      <trkpt lat="41.6385420" lon="1.8553210">
        <ele>183.4</ele>
        <time>2022-06-28T16:25:42Z</time>
      </trkpt>
      <trkpt lat="41.6386380" lon="1.8555880">
        <ele>182.4</ele>
        <time>2022-06-28T16:25:44Z</time>
      </trkpt>
      <trkpt lat="41.6387020" lon="1.8558480">
        <ele>181.0</ele>
        <time>2022-06-28T16:25:46Z</time>
      </trkpt>
      <trkpt lat="41.6387810" lon="1.8561470">
        <ele>180.4</ele>
        <time>2022-06-28T16:25:48Z</time>
      </trkpt>
      <trkpt lat="41.6388360" lon="1.8562770">
        <ele>179.4</ele>
        <time>2022-06-28T16:25:49Z</time>
      </trkpt>
      <trkpt lat="41.6389020" lon="1.8563950">
        <ele>178.2</ele>
        <time>2022-06-28T16:25:50Z</time>
      </trkpt>
      <trkpt lat="41.6389790" lon="1.8564950">
        <ele>177.8</ele>
        <time>2022-06-28T16:25:51Z</time>
      </trkpt>
      <trkpt lat="41.6390560" lon="1.8565820">
        <ele>176.8</ele>
        <time>2022-06-28T16:25:52Z</time>
      </trkpt>
      <trkpt lat="41.6391810" lon="1.8567230">
        <ele>175.4</ele>
        <time>2022-06-28T16:25:54Z</time>
      </trkpt>
      <trkpt lat="41.6392360" lon="1.8567990">
        <ele>175.2</ele>
        <time>2022-06-28T16:25:55Z</time>
      </trkpt>
      <trkpt lat="41.6392790" lon="1.8568890">
        <ele>174.0</ele>
        <time>2022-06-28T16:25:56Z</time>
      </trkpt>
      <trkpt lat="41.6393090" lon="1.8569890">
        <ele>173.6</ele>
        <time>2022-06-28T16:25:57Z</time>
      </trkpt>
      <trkpt lat="41.6393250" lon="1.8570940">
        <ele>173.6</ele>
        <time>2022-06-28T16:25:58Z</time>
      </trkpt>
      <trkpt lat="41.6393360" lon="1.8572020">
        <ele>173.4</ele>
        <time>2022-06-28T16:25:59Z</time>
      </trkpt>
      <trkpt lat="41.6393490" lon="1.8574070">
        <ele>173.2</ele>
        <time>2022-06-28T16:26:01Z</time>
      </trkpt>
      <trkpt lat="41.6393650" lon="1.8575060">
        <ele>173.2</ele>
        <time>2022-06-28T16:26:02Z</time>
      </trkpt>
      <trkpt lat="41.6393870" lon="1.8575950">
        <ele>173.2</ele>
        <time>2022-06-28T16:26:03Z</time>
      </trkpt>
      <trkpt lat="41.6394400" lon="1.8577550">
        <ele>173.2</ele>
        <time>2022-06-28T16:26:05Z</time>
      </trkpt>
      <trkpt lat="41.6394750" lon="1.8578040">
        <ele>173.4</ele>
        <time>2022-06-28T16:26:06Z</time>
      </trkpt>
      <trkpt lat="41.6395350" lon="1.8578590">
        <ele>173.8</ele>
        <time>2022-06-28T16:26:07Z</time>
      </trkpt>
      <trkpt lat="41.6396550" lon="1.8579110">
        <ele>174.6</ele>
        <time>2022-06-28T16:26:09Z</time>
      </trkpt>
      <trkpt lat="41.6397890" lon="1.8579090">
        <ele>175.4</ele>
        <time>2022-06-28T16:26:11Z</time>
      </trkpt>
      <trkpt lat="41.6399210" lon="1.8578900">
        <ele>176.0</ele>
        <time>2022-06-28T16:26:13Z</time>
      </trkpt>
      <trkpt lat="41.6404040" lon="1.8578200">
        <ele>176.6</ele>
        <time>2022-06-28T16:26:20Z</time>
      </trkpt>
      <trkpt lat="41.6406070" lon="1.8577890">
        <ele>176.6</ele>
        <time>2022-06-28T16:26:23Z</time>
      </trkpt>
      <trkpt lat="41.6410960" lon="1.8577410">
        <ele>176.2</ele>
        <time>2022-06-28T16:26:30Z</time>
      </trkpt>
      <trkpt lat="41.6412210" lon="1.8577160">
        <ele>176.2</ele>
        <time>2022-06-28T16:26:32Z</time>
      </trkpt>
      <trkpt lat="41.6413560" lon="1.8576370">
        <ele>176.2</ele>
        <time>2022-06-28T16:26:34Z</time>
      </trkpt>
      <trkpt lat="41.6416430" lon="1.8573350">
        <ele>177.2</ele>
        <time>2022-06-28T16:26:40Z</time>
      </trkpt>
      <trkpt lat="41.6417000" lon="1.8572820">
        <ele>177.6</ele>
        <time>2022-06-28T16:26:41Z</time>
      </trkpt>
      <trkpt lat="41.6417480" lon="1.8572370">
        <ele>177.8</ele>
        <time>2022-06-28T16:26:42Z</time>
      </trkpt>
      <trkpt lat="41.6417890" lon="1.8571870">
        <ele>178.0</ele>
        <time>2022-06-28T16:26:43Z</time>
      </trkpt>
      <trkpt lat="41.6419350" lon="1.8570160">
        <ele>178.8</ele>
        <time>2022-06-28T16:26:47Z</time>
      </trkpt>
      <trkpt lat="41.6419800" lon="1.8569660">
        <ele>179.0</ele>
        <time>2022-06-28T16:26:48Z</time>
      </trkpt>
      <trkpt lat="41.6420180" lon="1.8569210">
        <ele>179.4</ele>
        <time>2022-06-28T16:26:49Z</time>
      </trkpt>
      <trkpt lat="41.6421640" lon="1.8567370">
        <ele>180.2</ele>
        <time>2022-06-28T16:26:53Z</time>
      </trkpt>
      <trkpt lat="41.6422350" lon="1.8566290">
        <ele>180.6</ele>
        <time>2022-06-28T16:26:55Z</time>
      </trkpt>
      <trkpt lat="41.6422660" lon="1.8565700">
        <ele>181.2</ele>
        <time>2022-06-28T16:26:56Z</time>
      </trkpt>
      <trkpt lat="41.6422930" lon="1.8565070">
        <ele>181.4</ele>
        <time>2022-06-28T16:26:57Z</time>
      </trkpt>
      <trkpt lat="41.6423170" lon="1.8564470">
        <ele>182.0</ele>
        <time>2022-06-28T16:26:58Z</time>
      </trkpt>
      <trkpt lat="41.6423750" lon="1.8563270">
        <ele>182.8</ele>
        <time>2022-06-28T16:27:00Z</time>
      </trkpt>
      <trkpt lat="41.6424040" lon="1.8562670">
        <ele>183.0</ele>
        <time>2022-06-28T16:27:01Z</time>
      </trkpt>
      <trkpt lat="41.6425560" lon="1.8560170">
        <ele>183.8</ele>
        <time>2022-06-28T16:27:06Z</time>
      </trkpt>
      <trkpt lat="41.6426200" lon="1.8559250">
        <ele>184.4</ele>
        <time>2022-06-28T16:27:08Z</time>
      </trkpt>
      <trkpt lat="41.6426910" lon="1.8558410">
        <ele>184.6</ele>
        <time>2022-06-28T16:27:10Z</time>
      </trkpt>
      <trkpt lat="41.6427670" lon="1.8557690">
        <ele>184.8</ele>
        <time>2022-06-28T16:27:12Z</time>
      </trkpt>
      <trkpt lat="41.6430800" lon="1.8555100">
        <ele>186.2</ele>
        <time>2022-06-28T16:27:20Z</time>
      </trkpt>
      <trkpt lat="41.6431190" lon="1.8554780">
        <ele>186.4</ele>
        <time>2022-06-28T16:27:21Z</time>
      </trkpt>
      <trkpt lat="41.6432560" lon="1.8553470">
        <ele>187.4</ele>
        <time>2022-06-28T16:27:25Z</time>
      </trkpt>
      <trkpt lat="41.6433850" lon="1.8552120">
        <ele>188.4</ele>
        <time>2022-06-28T16:27:29Z</time>
      </trkpt>
      <trkpt lat="41.6434170" lon="1.8551740">
        <ele>188.8</ele>
        <time>2022-06-28T16:27:30Z</time>
      </trkpt>
      <trkpt lat="41.6434470" lon="1.8551350">
        <ele>189.2</ele>
        <time>2022-06-28T16:27:31Z</time>
      </trkpt>
      <trkpt lat="41.6434750" lon="1.8550890">
        <ele>189.4</ele>
        <time>2022-06-28T16:27:32Z</time>
      </trkpt>
      <trkpt lat="41.6435960" lon="1.8549040">
        <ele>190.6</ele>
        <time>2022-06-28T16:27:36Z</time>
      </trkpt>
      <trkpt lat="41.6436590" lon="1.8548230">
        <ele>191.2</ele>
        <time>2022-06-28T16:27:38Z</time>
      </trkpt>
      <trkpt lat="41.6437510" lon="1.8547250">
        <ele>191.6</ele>
        <time>2022-06-28T16:27:41Z</time>
      </trkpt>
      <trkpt lat="41.6438510" lon="1.8546210">
        <ele>192.2</ele>
        <time>2022-06-28T16:27:44Z</time>
      </trkpt>
      <trkpt lat="41.6439420" lon="1.8545190">
        <ele>192.8</ele>
        <time>2022-06-28T16:27:47Z</time>
      </trkpt>
      <trkpt lat="41.6439810" lon="1.8544980">
        <ele>193.0</ele>
        <time>2022-06-28T16:27:48Z</time>
      </trkpt>
      <trkpt lat="41.6441790" lon="1.8543550">
        <ele>194.0</ele>
        <time>2022-06-28T16:27:53Z</time>
      </trkpt>
      <trkpt lat="41.6443000" lon="1.8542980">
        <ele>194.8</ele>
        <time>2022-06-28T16:27:56Z</time>
      </trkpt>
      <trkpt lat="41.6443340" lon="1.8542780">
        <ele>195.0</ele>
        <time>2022-06-28T16:27:57Z</time>
      </trkpt>
      <trkpt lat="41.6444940" lon="1.8541640">
        <ele>195.8</ele>
        <time>2022-06-28T16:28:02Z</time>
      </trkpt>
      <trkpt lat="41.6445550" lon="1.8541230">
        <ele>196.2</ele>
        <time>2022-06-28T16:28:04Z</time>
      </trkpt>
      <trkpt lat="41.6446160" lon="1.8540800">
        <ele>196.4</ele>
        <time>2022-06-28T16:28:06Z</time>
      </trkpt>
      <trkpt lat="41.6447190" lon="1.8540000">
        <ele>197.2</ele>
        <time>2022-06-28T16:28:09Z</time>
      </trkpt>
      <trkpt lat="41.6448810" lon="1.8538410">
        <ele>198.0</ele>
        <time>2022-06-28T16:28:14Z</time>
      </trkpt>
      <trkpt lat="41.6449360" lon="1.8537860">
        <ele>198.2</ele>
        <time>2022-06-28T16:28:16Z</time>
      </trkpt>
      <trkpt lat="41.6449810" lon="1.8537440">
        <ele>198.4</ele>
        <time>2022-06-28T16:28:17Z</time>
      </trkpt>
      <trkpt lat="41.6451570" lon="1.8536300">
        <ele>199.2</ele>
        <time>2022-06-28T16:28:21Z</time>
      </trkpt>
      <trkpt lat="41.6452070" lon="1.8536000">
        <ele>199.4</ele>
        <time>2022-06-28T16:28:22Z</time>
      </trkpt>
      <trkpt lat="41.6453380" lon="1.8534950">
        <ele>200.0</ele>
        <time>2022-06-28T16:28:25Z</time>
      </trkpt>
      <trkpt lat="41.6453820" lon="1.8534540">
        <ele>200.4</ele>
        <time>2022-06-28T16:28:26Z</time>
      </trkpt>
      <trkpt lat="41.6454180" lon="1.8534030">
        <ele>200.6</ele>
        <time>2022-06-28T16:28:27Z</time>
      </trkpt>
      <trkpt lat="41.6454490" lon="1.8533470">
        <ele>200.8</ele>
        <time>2022-06-28T16:28:28Z</time>
      </trkpt>
      <trkpt lat="41.6455960" lon="1.8531650">
        <ele>201.4</ele>
        <time>2022-06-28T16:28:32Z</time>
      </trkpt>
      <trkpt lat="41.6456260" lon="1.8531140">
        <ele>201.4</ele>
        <time>2022-06-28T16:28:33Z</time>
      </trkpt>
      <trkpt lat="41.6456720" lon="1.8530020">
        <ele>201.8</ele>
        <time>2022-06-28T16:28:35Z</time>
      </trkpt>
      <trkpt lat="41.6457820" lon="1.8527310">
        <ele>202.6</ele>
        <time>2022-06-28T16:28:40Z</time>
      </trkpt>
      <trkpt lat="41.6458750" lon="1.8524850">
        <ele>203.0</ele>
        <time>2022-06-28T16:28:44Z</time>
      </trkpt>
      <trkpt lat="41.6460160" lon="1.8520730">
        <ele>203.0</ele>
        <time>2022-06-28T16:28:50Z</time>
      </trkpt>
      <trkpt lat="41.6462510" lon="1.8515290">
        <ele>202.8</ele>
        <time>2022-06-28T16:28:58Z</time>
      </trkpt>
      <trkpt lat="41.6462890" lon="1.8514710">
        <ele>202.8</ele>
        <time>2022-06-28T16:28:59Z</time>
      </trkpt>
      <trkpt lat="41.6463690" lon="1.8513830">
        <ele>202.8</ele>
        <time>2022-06-28T16:29:01Z</time>
      </trkpt>
      <trkpt lat="41.6464770" lon="1.8513510">
        <ele>202.8</ele>
        <time>2022-06-28T16:29:03Z</time>
      </trkpt>
      <trkpt lat="41.6467580" lon="1.8512930">
        <ele>203.0</ele>
        <time>2022-06-28T16:29:09Z</time>
      </trkpt>
      <trkpt lat="41.6468580" lon="1.8512510">
        <ele>204.0</ele>
        <time>2022-06-28T16:29:11Z</time>
      </trkpt>
      <trkpt lat="41.6469020" lon="1.8512230">
        <ele>204.0</ele>
        <time>2022-06-28T16:29:12Z</time>
      </trkpt>
      <trkpt lat="41.6469680" lon="1.8511270">
        <ele>204.2</ele>
        <time>2022-06-28T16:29:14Z</time>
      </trkpt>
      <trkpt lat="41.6469940" lon="1.8509910">
        <ele>204.6</ele>
        <time>2022-06-28T16:29:16Z</time>
      </trkpt>
      <trkpt lat="41.6469910" lon="1.8509210">
        <ele>205.0</ele>
        <time>2022-06-28T16:29:17Z</time>
      </trkpt>
      <trkpt lat="41.6469780" lon="1.8508500">
        <ele>205.6</ele>
        <time>2022-06-28T16:29:18Z</time>
      </trkpt>
      <trkpt lat="41.6468960" lon="1.8506580">
        <ele>206.2</ele>
        <time>2022-06-28T16:29:21Z</time>
      </trkpt>
      <trkpt lat="41.6468700" lon="1.8505980">
        <ele>206.4</ele>
        <time>2022-06-28T16:29:22Z</time>
      </trkpt>
      <trkpt lat="41.6468350" lon="1.8504750">
        <ele>206.6</ele>
        <time>2022-06-28T16:29:24Z</time>
      </trkpt>
      <trkpt lat="41.6468200" lon="1.8503550">
        <ele>207.0</ele>
        <time>2022-06-28T16:29:26Z</time>
      </trkpt>
      <trkpt lat="41.6468160" lon="1.8503080">
        <ele>207.2</ele>
        <time>2022-06-28T16:29:27Z</time>
      </trkpt>
      <trkpt lat="41.6468160" lon="1.8502460">
        <ele>207.2</ele>
        <time>2022-06-28T16:29:28Z</time>
      </trkpt>
      <trkpt lat="41.6468440" lon="1.8500520">
        <ele>207.8</ele>
        <time>2022-06-28T16:29:31Z</time>
      </trkpt>
      <trkpt lat="41.6468550" lon="1.8500070">
        <ele>208.0</ele>
        <time>2022-06-28T16:29:32Z</time>
      </trkpt>
      <trkpt lat="41.6469190" lon="1.8496870">
        <ele>209.2</ele>
        <time>2022-06-28T16:29:37Z</time>
      </trkpt>
      <trkpt lat="41.6469600" lon="1.8494130">
        <ele>209.6</ele>
        <time>2022-06-28T16:29:41Z</time>
      </trkpt>
      <trkpt lat="41.6470060" lon="1.8490970">
        <ele>210.4</ele>
        <time>2022-06-28T16:29:46Z</time>
      </trkpt>
      <trkpt lat="41.6470350" lon="1.8489370">
        <ele>210.6</ele>
        <time>2022-06-28T16:29:48Z</time>
      </trkpt>
      <trkpt lat="41.6471350" lon="1.8486640">
        <ele>210.6</ele>
        <time>2022-06-28T16:29:52Z</time>
      </trkpt>
      <trkpt lat="41.6471940" lon="1.8485200">
        <ele>210.4</ele>
        <time>2022-06-28T16:29:54Z</time>
      </trkpt>
      <trkpt lat="41.6472650" lon="1.8482050">
        <ele>210.2</ele>
        <time>2022-06-28T16:29:58Z</time>
      </trkpt>
      <trkpt lat="41.6472530" lon="1.8481170">
        <ele>210.2</ele>
        <time>2022-06-28T16:29:59Z</time>
      </trkpt>
      <trkpt lat="41.6472300" lon="1.8480340">
        <ele>210.2</ele>
        <time>2022-06-28T16:30:00Z</time>
      </trkpt>
      <trkpt lat="41.6471500" lon="1.8478990">
        <ele>210.6</ele>
        <time>2022-06-28T16:30:02Z</time>
      </trkpt>
      <trkpt lat="41.6469310" lon="1.8475970">
        <ele>211.2</ele>
        <time>2022-06-28T16:30:07Z</time>
      </trkpt>
      <trkpt lat="41.6469080" lon="1.8475440">
        <ele>211.2</ele>
        <time>2022-06-28T16:30:08Z</time>
      </trkpt>
      <trkpt lat="41.6468820" lon="1.8474760">
        <ele>211.6</ele>
        <time>2022-06-28T16:30:09Z</time>
      </trkpt>
      <trkpt lat="41.6467820" lon="1.8471330">
        <ele>212.6</ele>
        <time>2022-06-28T16:30:14Z</time>
      </trkpt>
      <trkpt lat="41.6466960" lon="1.8467670">
        <ele>213.2</ele>
        <time>2022-06-28T16:30:20Z</time>
      </trkpt>
      <trkpt lat="41.6466830" lon="1.8467100">
        <ele>213.8</ele>
        <time>2022-06-28T16:30:21Z</time>
      </trkpt>
      <trkpt lat="41.6466280" lon="1.8464740">
        <ele>214.8</ele>
        <time>2022-06-28T16:30:25Z</time>
      </trkpt>
      <trkpt lat="41.6466070" lon="1.8463710">
        <ele>215.2</ele>
        <time>2022-06-28T16:30:27Z</time>
      </trkpt>
      <trkpt lat="41.6465200" lon="1.8460810">
        <ele>215.8</ele>
        <time>2022-06-28T16:30:32Z</time>
      </trkpt>
      <trkpt lat="41.6464960" lon="1.8460270">
        <ele>216.0</ele>
        <time>2022-06-28T16:30:33Z</time>
      </trkpt>
      <trkpt lat="41.6463820" lon="1.8458150">
        <ele>217.0</ele>
        <time>2022-06-28T16:30:37Z</time>
      </trkpt>
      <trkpt lat="41.6463490" lon="1.8457140">
        <ele>217.2</ele>
        <time>2022-06-28T16:30:39Z</time>
      </trkpt>
      <trkpt lat="41.6463120" lon="1.8454750">
        <ele>217.8</ele>
        <time>2022-06-28T16:30:43Z</time>
      </trkpt>
      <trkpt lat="41.6463110" lon="1.8454150">
        <ele>218.0</ele>
        <time>2022-06-28T16:30:44Z</time>
      </trkpt>
      <trkpt lat="41.6463120" lon="1.8453550">
        <ele>218.4</ele>
        <time>2022-06-28T16:30:45Z</time>
      </trkpt>
      <trkpt lat="41.6463460" lon="1.8449530">
        <ele>219.2</ele>
        <time>2022-06-28T16:30:52Z</time>
      </trkpt>
      <trkpt lat="41.6463550" lon="1.8448960">
        <ele>219.2</ele>
        <time>2022-06-28T16:30:53Z</time>
      </trkpt>
      <trkpt lat="41.6464120" lon="1.8446550">
        <ele>219.8</ele>
        <time>2022-06-28T16:30:57Z</time>
      </trkpt>
      <trkpt lat="41.6464660" lon="1.8445180">
        <ele>220.2</ele>
        <time>2022-06-28T16:30:59Z</time>
      </trkpt>
      <trkpt lat="41.6466420" lon="1.8440870">
        <ele>220.6</ele>
        <time>2022-06-28T16:31:05Z</time>
      </trkpt>
      <trkpt lat="41.6468380" lon="1.8435900">
        <ele>219.0</ele>
        <time>2022-06-28T16:31:10Z</time>
      </trkpt>
      <trkpt lat="41.6469570" lon="1.8432750">
        <ele>217.4</ele>
        <time>2022-06-28T16:31:13Z</time>
      </trkpt>
      <trkpt lat="41.6470730" lon="1.8429670">
        <ele>215.8</ele>
        <time>2022-06-28T16:31:16Z</time>
      </trkpt>
      <trkpt lat="41.6471120" lon="1.8428520">
        <ele>215.6</ele>
        <time>2022-06-28T16:31:17Z</time>
      </trkpt>
      <trkpt lat="41.6471570" lon="1.8427130">
        <ele>214.6</ele>
        <time>2022-06-28T16:31:18Z</time>
      </trkpt>
      <trkpt lat="41.6471890" lon="1.8424940">
        <ele>213.8</ele>
        <time>2022-06-28T16:31:20Z</time>
      </trkpt>
      <trkpt lat="41.6471930" lon="1.8423720">
        <ele>213.4</ele>
        <time>2022-06-28T16:31:21Z</time>
      </trkpt>
      <trkpt lat="41.6471880" lon="1.8422520">
        <ele>213.0</ele>
        <time>2022-06-28T16:31:22Z</time>
      </trkpt>
      <trkpt lat="41.6471660" lon="1.8421120">
        <ele>212.4</ele>
        <time>2022-06-28T16:31:23Z</time>
      </trkpt>
      <trkpt lat="41.6471450" lon="1.8420270">
        <ele>212.0</ele>
        <time>2022-06-28T16:31:24Z</time>
      </trkpt>
      <trkpt lat="41.6470010" lon="1.8415330">
        <ele>211.4</ele>
        <time>2022-06-28T16:31:29Z</time>
      </trkpt>
      <trkpt lat="41.6468170" lon="1.8408870">
        <ele>211.6</ele>
        <time>2022-06-28T16:31:36Z</time>
      </trkpt>
      <trkpt lat="41.6466500" lon="1.8402930">
        <ele>212.6</ele>
        <time>2022-06-28T16:31:43Z</time>
      </trkpt>
      <trkpt lat="41.6465580" lon="1.8399890">
        <ele>213.4</ele>
        <time>2022-06-28T16:31:47Z</time>
      </trkpt>
      <trkpt lat="41.6464940" lon="1.8397580">
        <ele>214.2</ele>
        <time>2022-06-28T16:31:50Z</time>
      </trkpt>
      <trkpt lat="41.6464670" lon="1.8396700">
        <ele>214.4</ele>
        <time>2022-06-28T16:31:51Z</time>
      </trkpt>
      <trkpt lat="41.6464510" lon="1.8396130">
        <ele>214.6</ele>
        <time>2022-06-28T16:31:52Z</time>
      </trkpt>
      <trkpt lat="41.6463880" lon="1.8393930">
        <ele>215.4</ele>
        <time>2022-06-28T16:31:55Z</time>
      </trkpt>
      <trkpt lat="41.6463680" lon="1.8393240">
        <ele>215.8</ele>
        <time>2022-06-28T16:31:56Z</time>
      </trkpt>
      <trkpt lat="41.6462540" lon="1.8389010">
        <ele>216.6</ele>
        <time>2022-06-28T16:32:02Z</time>
      </trkpt>
      <trkpt lat="41.6462380" lon="1.8388240">
        <ele>216.8</ele>
        <time>2022-06-28T16:32:03Z</time>
      </trkpt>
      <trkpt lat="41.6462040" lon="1.8384300">
        <ele>217.4</ele>
        <time>2022-06-28T16:32:08Z</time>
      </trkpt>
      <trkpt lat="41.6462220" lon="1.8381910">
        <ele>217.2</ele>
        <time>2022-06-28T16:32:11Z</time>
      </trkpt>
      <trkpt lat="41.6462420" lon="1.8380380">
        <ele>217.0</ele>
        <time>2022-06-28T16:32:13Z</time>
      </trkpt>
      <trkpt lat="41.6463430" lon="1.8374220">
        <ele>217.0</ele>
        <time>2022-06-28T16:32:21Z</time>
      </trkpt>
      <trkpt lat="41.6464210" lon="1.8368560">
        <ele>217.4</ele>
        <time>2022-06-28T16:32:29Z</time>
      </trkpt>
      <trkpt lat="41.6464620" lon="1.8365830">
        <ele>218.2</ele>
        <time>2022-06-28T16:32:33Z</time>
      </trkpt>
      <trkpt lat="41.6464970" lon="1.8364020">
        <ele>219.4</ele>
        <time>2022-06-28T16:32:36Z</time>
      </trkpt>
      <trkpt lat="41.6465070" lon="1.8363430">
        <ele>219.8</ele>
        <time>2022-06-28T16:32:37Z</time>
      </trkpt>
      <trkpt lat="41.6465300" lon="1.8362210">
        <ele>220.6</ele>
        <time>2022-06-28T16:32:39Z</time>
      </trkpt>
      <trkpt lat="41.6465990" lon="1.8360200">
        <ele>221.8</ele>
        <time>2022-06-28T16:32:43Z</time>
      </trkpt>
      <trkpt lat="41.6466820" lon="1.8357530">
        <ele>223.0</ele>
        <time>2022-06-28T16:32:48Z</time>
      </trkpt>
      <trkpt lat="41.6467830" lon="1.8354750">
        <ele>224.0</ele>
        <time>2022-06-28T16:32:53Z</time>
      </trkpt>
      <trkpt lat="41.6468810" lon="1.8352620">
        <ele>225.0</ele>
        <time>2022-06-28T16:32:57Z</time>
      </trkpt>
      <trkpt lat="41.6470100" lon="1.8349790">
        <ele>225.8</ele>
        <time>2022-06-28T16:33:02Z</time>
      </trkpt>
      <trkpt lat="41.6471320" lon="1.8346780">
        <ele>226.0</ele>
        <time>2022-06-28T16:33:07Z</time>
      </trkpt>
      <trkpt lat="41.6471690" lon="1.8345560">
        <ele>226.2</ele>
        <time>2022-06-28T16:33:09Z</time>
      </trkpt>
      <trkpt lat="41.6471810" lon="1.8344920">
        <ele>226.2</ele>
        <time>2022-06-28T16:33:10Z</time>
      </trkpt>
      <trkpt lat="41.6472220" lon="1.8342480">
        <ele>226.6</ele>
        <time>2022-06-28T16:33:14Z</time>
      </trkpt>
      <trkpt lat="41.6472450" lon="1.8339790">
        <ele>227.2</ele>
        <time>2022-06-28T16:33:18Z</time>
      </trkpt>
      <trkpt lat="41.6472500" lon="1.8339080">
        <ele>227.4</ele>
        <time>2022-06-28T16:33:19Z</time>
      </trkpt>
      <trkpt lat="41.6472920" lon="1.8333760">
        <ele>228.0</ele>
        <time>2022-06-28T16:33:27Z</time>
      </trkpt>
      <trkpt lat="41.6472900" lon="1.8332480">
        <ele>228.2</ele>
        <time>2022-06-28T16:33:29Z</time>
      </trkpt>
      <trkpt lat="41.6472840" lon="1.8331830">
        <ele>228.4</ele>
        <time>2022-06-28T16:33:30Z</time>
      </trkpt>
      <trkpt lat="41.6472460" lon="1.8330040">
        <ele>228.8</ele>
        <time>2022-06-28T16:33:33Z</time>
      </trkpt>
      <trkpt lat="41.6471330" lon="1.8325830">
        <ele>229.4</ele>
        <time>2022-06-28T16:33:39Z</time>
      </trkpt>
      <trkpt lat="41.6471230" lon="1.8324460">
        <ele>229.4</ele>
        <time>2022-06-28T16:33:41Z</time>
      </trkpt>
      <trkpt lat="41.6471660" lon="1.8318020">
        <ele>229.6</ele>
        <time>2022-06-28T16:33:49Z</time>
      </trkpt>
      <trkpt lat="41.6472160" lon="1.8311130">
        <ele>229.2</ele>
        <time>2022-06-28T16:33:57Z</time>
      </trkpt>
      <trkpt lat="41.6472600" lon="1.8305390">
        <ele>228.8</ele>
        <time>2022-06-28T16:34:04Z</time>
      </trkpt>
      <trkpt lat="41.6472910" lon="1.8301640">
        <ele>229.4</ele>
        <time>2022-06-28T16:34:09Z</time>
      </trkpt>
      <trkpt lat="41.6473230" lon="1.8299690">
        <ele>230.0</ele>
        <time>2022-06-28T16:34:12Z</time>
      </trkpt>
      <trkpt lat="41.6473700" lon="1.8298490">
        <ele>230.2</ele>
        <time>2022-06-28T16:34:14Z</time>
      </trkpt>
      <trkpt lat="41.6473990" lon="1.8297940">
        <ele>230.4</ele>
        <time>2022-06-28T16:34:15Z</time>
      </trkpt>
      <trkpt lat="41.6475110" lon="1.8296530">
        <ele>230.8</ele>
        <time>2022-06-28T16:34:18Z</time>
      </trkpt>
      <trkpt lat="41.6475920" lon="1.8295630">
        <ele>231.4</ele>
        <time>2022-06-28T16:34:20Z</time>
      </trkpt>
      <trkpt lat="41.6476760" lon="1.8294750">
        <ele>232.0</ele>
        <time>2022-06-28T16:34:22Z</time>
      </trkpt>
      <trkpt lat="41.6477590" lon="1.8293850">
        <ele>232.4</ele>
        <time>2022-06-28T16:34:24Z</time>
      </trkpt>
      <trkpt lat="41.6478020" lon="1.8293400">
        <ele>232.6</ele>
        <time>2022-06-28T16:34:25Z</time>
      </trkpt>
      <trkpt lat="41.6480940" lon="1.8289810">
        <ele>233.6</ele>
        <time>2022-06-28T16:34:32Z</time>
      </trkpt>
      <trkpt lat="41.6481530" lon="1.8288500">
        <ele>233.6</ele>
        <time>2022-06-28T16:34:34Z</time>
      </trkpt>
      <trkpt lat="41.6482160" lon="1.8286270">
        <ele>233.4</ele>
        <time>2022-06-28T16:34:37Z</time>
      </trkpt>
      <trkpt lat="41.6483480" lon="1.8280380">
        <ele>234.2</ele>
        <time>2022-06-28T16:34:45Z</time>
      </trkpt>
      <trkpt lat="41.6483850" lon="1.8278910">
        <ele>234.6</ele>
        <time>2022-06-28T16:34:47Z</time>
      </trkpt>
      <trkpt lat="41.6485480" lon="1.8272280">
        <ele>235.4</ele>
        <time>2022-06-28T16:34:56Z</time>
      </trkpt>
      <trkpt lat="41.6485680" lon="1.8271570">
        <ele>235.6</ele>
        <time>2022-06-28T16:34:57Z</time>
      </trkpt>
      <trkpt lat="41.6487000" lon="1.8268480">
        <ele>236.4</ele>
        <time>2022-06-28T16:35:02Z</time>
      </trkpt>
      <trkpt lat="41.6490070" lon="1.8263890">
        <ele>236.6</ele>
        <time>2022-06-28T16:35:10Z</time>
      </trkpt>
      <trkpt lat="41.6491610" lon="1.8261540">
        <ele>236.6</ele>
        <time>2022-06-28T16:35:14Z</time>
      </trkpt>
      <trkpt lat="41.6493520" lon="1.8258680">
        <ele>237.0</ele>
        <time>2022-06-28T16:35:19Z</time>
      </trkpt>
      <trkpt lat="41.6497050" lon="1.8253450">
        <ele>237.4</ele>
        <time>2022-06-28T16:35:29Z</time>
      </trkpt>
      <trkpt lat="41.6498590" lon="1.8251110">
        <ele>237.8</ele>
        <time>2022-06-28T16:35:33Z</time>
      </trkpt>
      <trkpt lat="41.6499360" lon="1.8250030">
        <ele>237.8</ele>
        <time>2022-06-28T16:35:35Z</time>
      </trkpt>
      <trkpt lat="41.6500200" lon="1.8249200">
        <ele>238.0</ele>
        <time>2022-06-28T16:35:37Z</time>
      </trkpt>
      <trkpt lat="41.6504550" lon="1.8246030">
        <ele>238.0</ele>
        <time>2022-06-28T16:35:45Z</time>
      </trkpt>
      <trkpt lat="41.6505900" lon="1.8244620">
        <ele>238.2</ele>
        <time>2022-06-28T16:35:48Z</time>
      </trkpt>
      <trkpt lat="41.6506500" lon="1.8243350">
        <ele>238.2</ele>
        <time>2022-06-28T16:35:50Z</time>
      </trkpt>
      <trkpt lat="41.6506870" lon="1.8241830">
        <ele>238.4</ele>
        <time>2022-06-28T16:35:52Z</time>
      </trkpt>
      <trkpt lat="41.6506890" lon="1.8240220">
        <ele>239.0</ele>
        <time>2022-06-28T16:35:54Z</time>
      </trkpt>
      <trkpt lat="41.6506810" lon="1.8236470">
        <ele>239.8</ele>
        <time>2022-06-28T16:35:59Z</time>
      </trkpt>
      <trkpt lat="41.6506750" lon="1.8235830">
        <ele>240.0</ele>
        <time>2022-06-28T16:36:00Z</time>
      </trkpt>
      <trkpt lat="41.6506720" lon="1.8235180">
        <ele>240.0</ele>
        <time>2022-06-28T16:36:01Z</time>
      </trkpt>
      <trkpt lat="41.6506560" lon="1.8233300">
        <ele>241.2</ele>
        <time>2022-06-28T16:36:04Z</time>
      </trkpt>
      <trkpt lat="41.6506470" lon="1.8232700">
        <ele>241.4</ele>
        <time>2022-06-28T16:36:05Z</time>
      </trkpt>
      <trkpt lat="41.6506380" lon="1.8231490">
        <ele>242.2</ele>
        <time>2022-06-28T16:36:07Z</time>
      </trkpt>
      <trkpt lat="41.6506380" lon="1.8230350">
        <ele>242.8</ele>
        <time>2022-06-28T16:36:09Z</time>
      </trkpt>
      <trkpt lat="41.6506290" lon="1.8229740">
        <ele>243.2</ele>
        <time>2022-06-28T16:36:10Z</time>
      </trkpt>
      <trkpt lat="41.6506220" lon="1.8229250">
        <ele>243.4</ele>
        <time>2022-06-28T16:36:11Z</time>
      </trkpt>
      <trkpt lat="41.6506120" lon="1.8228470">
        <ele>243.6</ele>
        <time>2022-06-28T16:36:12Z</time>
      </trkpt>
      <trkpt lat="41.6505950" lon="1.8227240">
        <ele>244.2</ele>
        <time>2022-06-28T16:36:14Z</time>
      </trkpt>
      <trkpt lat="41.6505540" lon="1.8225990">
        <ele>244.6</ele>
        <time>2022-06-28T16:36:16Z</time>
      </trkpt>
      <trkpt lat="41.6504190" lon="1.8223110">
        <ele>245.8</ele>
        <time>2022-06-28T16:36:21Z</time>
      </trkpt>
      <trkpt lat="41.6503910" lon="1.8222540">
        <ele>245.8</ele>
        <time>2022-06-28T16:36:22Z</time>
      </trkpt>
      <trkpt lat="41.6502500" lon="1.8219580">
        <ele>245.8</ele>
        <time>2022-06-28T16:36:27Z</time>
      </trkpt>
      <trkpt lat="41.6501350" lon="1.8217110">
        <ele>245.8</ele>
        <time>2022-06-28T16:36:31Z</time>
      </trkpt>
      <trkpt lat="41.6499000" lon="1.8212040">
        <ele>245.6</ele>
        <time>2022-06-28T16:36:39Z</time>
      </trkpt>
      <trkpt lat="41.6498420" lon="1.8210790">
        <ele>245.6</ele>
        <time>2022-06-28T16:36:41Z</time>
      </trkpt>
      <trkpt lat="41.6497980" lon="1.8209370">
        <ele>245.6</ele>
        <time>2022-06-28T16:36:43Z</time>
      </trkpt>
      <trkpt lat="41.6497890" lon="1.8208590">
        <ele>245.6</ele>
        <time>2022-06-28T16:36:44Z</time>
      </trkpt>
      <trkpt lat="41.6497890" lon="1.8207800">
        <ele>245.6</ele>
        <time>2022-06-28T16:36:45Z</time>
      </trkpt>
      <trkpt lat="41.6498250" lon="1.8206390">
        <ele>245.4</ele>
        <time>2022-06-28T16:36:47Z</time>
      </trkpt>
      <trkpt lat="41.6499050" lon="1.8205120">
        <ele>245.2</ele>
        <time>2022-06-28T16:36:49Z</time>
      </trkpt>
      <trkpt lat="41.6499520" lon="1.8204630">
        <ele>245.0</ele>
        <time>2022-06-28T16:36:50Z</time>
      </trkpt>
      <trkpt lat="41.6503560" lon="1.8200660">
        <ele>246.0</ele>
        <time>2022-06-28T16:36:59Z</time>
      </trkpt>
      <trkpt lat="41.6504810" lon="1.8199440">
        <ele>246.8</ele>
        <time>2022-06-28T16:37:02Z</time>
      </trkpt>
      <trkpt lat="41.6505980" lon="1.8198020">
        <ele>247.0</ele>
        <time>2022-06-28T16:37:05Z</time>
      </trkpt>
      <trkpt lat="41.6506250" lon="1.8197500">
        <ele>247.0</ele>
        <time>2022-06-28T16:37:06Z</time>
      </trkpt>
      <trkpt lat="41.6506520" lon="1.8196970">
        <ele>247.2</ele>
        <time>2022-06-28T16:37:07Z</time>
      </trkpt>
      <trkpt lat="41.6507580" lon="1.8194030">
        <ele>247.8</ele>
        <time>2022-06-28T16:37:12Z</time>
      </trkpt>
      <trkpt lat="41.6508440" lon="1.8190120">
        <ele>249.0</ele>
        <time>2022-06-28T16:37:18Z</time>
      </trkpt>
      <trkpt lat="41.6508630" lon="1.8188780">
        <ele>249.4</ele>
        <time>2022-06-28T16:37:20Z</time>
      </trkpt>
      <trkpt lat="41.6508810" lon="1.8186750">
        <ele>250.0</ele>
        <time>2022-06-28T16:37:23Z</time>
      </trkpt>
      <trkpt lat="41.6508840" lon="1.8183910">
        <ele>250.8</ele>
        <time>2022-06-28T16:37:27Z</time>
      </trkpt>
      <trkpt lat="41.6508790" lon="1.8180980">
        <ele>250.8</ele>
        <time>2022-06-28T16:37:31Z</time>
      </trkpt>
      <trkpt lat="41.6508450" lon="1.8178780">
        <ele>250.6</ele>
        <time>2022-06-28T16:37:34Z</time>
      </trkpt>
      <trkpt lat="41.6507860" lon="1.8177350">
        <ele>250.6</ele>
        <time>2022-06-28T16:37:36Z</time>
      </trkpt>
      <trkpt lat="41.6507030" lon="1.8176070">
        <ele>251.0</ele>
        <time>2022-06-28T16:37:38Z</time>
      </trkpt>
      <trkpt lat="41.6503670" lon="1.8171750">
        <ele>250.2</ele>
        <time>2022-06-28T16:37:45Z</time>
      </trkpt>
      <trkpt lat="41.6502920" lon="1.8170520">
        <ele>250.0</ele>
        <time>2022-06-28T16:37:47Z</time>
      </trkpt>
      <trkpt lat="41.6502330" lon="1.8168980">
        <ele>250.0</ele>
        <time>2022-06-28T16:37:49Z</time>
      </trkpt>
      <trkpt lat="41.6501520" lon="1.8164640">
        <ele>249.8</ele>
        <time>2022-06-28T16:37:54Z</time>
      </trkpt>
      <trkpt lat="41.6500620" lon="1.8158100">
        <ele>249.4</ele>
        <time>2022-06-28T16:38:01Z</time>
      </trkpt>
      <trkpt lat="41.6500720" lon="1.8156320">
        <ele>249.0</ele>
        <time>2022-06-28T16:38:03Z</time>
      </trkpt>
      <trkpt lat="41.6501030" lon="1.8154690">
        <ele>249.0</ele>
        <time>2022-06-28T16:38:05Z</time>
      </trkpt>
      <trkpt lat="41.6502230" lon="1.8150480">
        <ele>249.2</ele>
        <time>2022-06-28T16:38:11Z</time>
      </trkpt>
      <trkpt lat="41.6503370" lon="1.8147210">
        <ele>251.6</ele>
        <time>2022-06-28T16:38:16Z</time>
      </trkpt>
      <trkpt lat="41.6503620" lon="1.8146580">
        <ele>251.8</ele>
        <time>2022-06-28T16:38:17Z</time>
      </trkpt>
      <trkpt lat="41.6504380" lon="1.8144750">
        <ele>253.0</ele>
        <time>2022-06-28T16:38:20Z</time>
      </trkpt>
      <trkpt lat="41.6505320" lon="1.8142530">
        <ele>253.8</ele>
        <time>2022-06-28T16:38:24Z</time>
      </trkpt>
      <trkpt lat="41.6505640" lon="1.8141780">
        <ele>254.2</ele>
        <time>2022-06-28T16:38:25Z</time>
      </trkpt>
      <trkpt lat="41.6507760" lon="1.8136980">
        <ele>254.8</ele>
        <time>2022-06-28T16:38:33Z</time>
      </trkpt>
      <trkpt lat="41.6509480" lon="1.8133050">
        <ele>255.2</ele>
        <time>2022-06-28T16:38:40Z</time>
      </trkpt>
      <trkpt lat="41.6509960" lon="1.8131920">
        <ele>255.6</ele>
        <time>2022-06-28T16:38:42Z</time>
      </trkpt>
      <trkpt lat="41.6510160" lon="1.8131320">
        <ele>255.6</ele>
        <time>2022-06-28T16:38:43Z</time>
      </trkpt>
      <trkpt lat="41.6511090" lon="1.8128960">
        <ele>256.4</ele>
        <time>2022-06-28T16:38:47Z</time>
      </trkpt>
      <trkpt lat="41.6511800" lon="1.8126440">
        <ele>256.6</ele>
        <time>2022-06-28T16:38:51Z</time>
      </trkpt>
      <trkpt lat="41.6512680" lon="1.8121610">
        <ele>257.2</ele>
        <time>2022-06-28T16:38:58Z</time>
      </trkpt>
      <trkpt lat="41.6513020" lon="1.8115410">
        <ele>257.4</ele>
        <time>2022-06-28T16:39:06Z</time>
      </trkpt>
      <trkpt lat="41.6513020" lon="1.8114600">
        <ele>257.6</ele>
        <time>2022-06-28T16:39:07Z</time>
      </trkpt>
      <trkpt lat="41.6512640" lon="1.8108000">
        <ele>257.6</ele>
        <time>2022-06-28T16:39:15Z</time>
      </trkpt>
      <trkpt lat="41.6511640" lon="1.8100760">
        <ele>257.4</ele>
        <time>2022-06-28T16:39:24Z</time>
      </trkpt>
      <trkpt lat="41.6510580" lon="1.8094860">
        <ele>258.2</ele>
        <time>2022-06-28T16:39:32Z</time>
      </trkpt>
      <trkpt lat="41.6510350" lon="1.8094130">
        <ele>258.4</ele>
        <time>2022-06-28T16:39:33Z</time>
      </trkpt>
      <trkpt lat="41.6510090" lon="1.8093400">
        <ele>258.6</ele>
        <time>2022-06-28T16:39:34Z</time>
      </trkpt>
      <trkpt lat="41.6509080" lon="1.8090680">
        <ele>259.0</ele>
        <time>2022-06-28T16:39:38Z</time>
      </trkpt>
      <trkpt lat="41.6507420" lon="1.8086450">
        <ele>259.2</ele>
        <time>2022-06-28T16:39:45Z</time>
      </trkpt>
      <trkpt lat="41.6506940" lon="1.8085370">
        <ele>259.4</ele>
        <time>2022-06-28T16:39:47Z</time>
      </trkpt>
      <trkpt lat="41.6505800" lon="1.8082830">
        <ele>260.2</ele>
        <time>2022-06-28T16:39:52Z</time>
      </trkpt>
      <trkpt lat="41.6505170" lon="1.8081480">
        <ele>260.6</ele>
        <time>2022-06-28T16:39:55Z</time>
      </trkpt>
      <trkpt lat="41.6505000" lon="1.8081040">
        <ele>260.8</ele>
        <time>2022-06-28T16:39:56Z</time>
      </trkpt>
      <trkpt lat="41.6504270" lon="1.8079300">
        <ele>261.6</ele>
        <time>2022-06-28T16:40:00Z</time>
      </trkpt>
      <trkpt lat="41.6503020" lon="1.8076220">
        <ele>262.6</ele>
        <time>2022-06-28T16:40:07Z</time>
      </trkpt>
      <trkpt lat="41.6502660" lon="1.8075360">
        <ele>263.0</ele>
        <time>2022-06-28T16:40:09Z</time>
      </trkpt>
      <trkpt lat="41.6501990" lon="1.8073570">
        <ele>263.8</ele>
        <time>2022-06-28T16:40:13Z</time>
      </trkpt>
      <trkpt lat="41.6501550" lon="1.8072050">
        <ele>264.2</ele>
        <time>2022-06-28T16:40:16Z</time>
      </trkpt>
      <trkpt lat="41.6501380" lon="1.8071080">
        <ele>264.6</ele>
        <time>2022-06-28T16:40:18Z</time>
      </trkpt>
      <trkpt lat="41.6501300" lon="1.8069800">
        <ele>264.8</ele>
        <time>2022-06-28T16:40:20Z</time>
      </trkpt>
      <trkpt lat="41.6501320" lon="1.8068640">
        <ele>265.4</ele>
        <time>2022-06-28T16:40:22Z</time>
      </trkpt>
      <trkpt lat="41.6501430" lon="1.8067460">
        <ele>265.8</ele>
        <time>2022-06-28T16:40:24Z</time>
      </trkpt>
      <trkpt lat="41.6501560" lon="1.8066890">
        <ele>266.0</ele>
        <time>2022-06-28T16:40:25Z</time>
      </trkpt>
      <trkpt lat="41.6501720" lon="1.8066310">
        <ele>266.2</ele>
        <time>2022-06-28T16:40:26Z</time>
      </trkpt>
      <trkpt lat="41.6501920" lon="1.8065740">
        <ele>266.2</ele>
        <time>2022-06-28T16:40:27Z</time>
      </trkpt>
      <trkpt lat="41.6502160" lon="1.8065170">
        <ele>266.4</ele>
        <time>2022-06-28T16:40:28Z</time>
      </trkpt>
      <trkpt lat="41.6503210" lon="1.8063850">
        <ele>266.6</ele>
        <time>2022-06-28T16:40:31Z</time>
      </trkpt>
      <trkpt lat="41.6504050" lon="1.8063180">
        <ele>266.8</ele>
        <time>2022-06-28T16:40:33Z</time>
      </trkpt>
      <trkpt lat="41.6505050" lon="1.8062610">
        <ele>267.0</ele>
        <time>2022-06-28T16:40:35Z</time>
      </trkpt>
      <trkpt lat="41.6505590" lon="1.8062340">
        <ele>267.0</ele>
        <time>2022-06-28T16:40:36Z</time>
      </trkpt>
      <trkpt lat="41.6507100" lon="1.8061400">
        <ele>267.2</ele>
        <time>2022-06-28T16:40:39Z</time>
      </trkpt>
      <trkpt lat="41.6507850" lon="1.8060350">
        <ele>267.2</ele>
        <time>2022-06-28T16:40:41Z</time>
      </trkpt>
      <trkpt lat="41.6508220" lon="1.8058870">
        <ele>267.4</ele>
        <time>2022-06-28T16:40:43Z</time>
      </trkpt>
      <trkpt lat="41.6508150" lon="1.8057200">
        <ele>267.4</ele>
        <time>2022-06-28T16:40:45Z</time>
      </trkpt>
      <trkpt lat="41.6507610" lon="1.8055560">
        <ele>267.2</ele>
        <time>2022-06-28T16:40:47Z</time>
      </trkpt>
      <trkpt lat="41.6506810" lon="1.8054000">
        <ele>266.8</ele>
        <time>2022-06-28T16:40:49Z</time>
      </trkpt>
      <trkpt lat="41.6504900" lon="1.8051650">
        <ele>266.6</ele>
        <time>2022-06-28T16:40:53Z</time>
      </trkpt>
      <trkpt lat="41.6504370" lon="1.8051250">
        <ele>266.6</ele>
        <time>2022-06-28T16:40:54Z</time>
      </trkpt>
      <trkpt lat="41.6503830" lon="1.8050940">
        <ele>266.4</ele>
        <time>2022-06-28T16:40:55Z</time>
      </trkpt>
      <trkpt lat="41.6502750" lon="1.8050510">
        <ele>266.4</ele>
        <time>2022-06-28T16:40:57Z</time>
      </trkpt>
      <trkpt lat="41.6501710" lon="1.8050200">
        <ele>266.4</ele>
        <time>2022-06-28T16:40:59Z</time>
      </trkpt>
      <trkpt lat="41.6498980" lon="1.8049390">
        <ele>267.0</ele>
        <time>2022-06-28T16:41:05Z</time>
      </trkpt>
      <trkpt lat="41.6497690" lon="1.8048990">
        <ele>268.2</ele>
        <time>2022-06-28T16:41:08Z</time>
      </trkpt>
      <trkpt lat="41.6495950" lon="1.8048390">
        <ele>269.2</ele>
        <time>2022-06-28T16:41:12Z</time>
      </trkpt>
      <trkpt lat="41.6495150" lon="1.8048140">
        <ele>269.6</ele>
        <time>2022-06-28T16:41:14Z</time>
      </trkpt>
      <trkpt lat="41.6494010" lon="1.8047770">
        <ele>270.2</ele>
        <time>2022-06-28T16:41:17Z</time>
      </trkpt>
      <trkpt lat="41.6491400" lon="1.8046950">
        <ele>271.0</ele>
        <time>2022-06-28T16:41:23Z</time>
      </trkpt>
      <trkpt lat="41.6490000" lon="1.8046480">
        <ele>271.2</ele>
        <time>2022-06-28T16:41:26Z</time>
      </trkpt>
      <trkpt lat="41.6488130" lon="1.8045790">
        <ele>271.8</ele>
        <time>2022-06-28T16:41:30Z</time>
      </trkpt>
      <trkpt lat="41.6486310" lon="1.8045190">
        <ele>272.2</ele>
        <time>2022-06-28T16:41:34Z</time>
      </trkpt>
      <trkpt lat="41.6484560" lon="1.8044640">
        <ele>272.4</ele>
        <time>2022-06-28T16:41:38Z</time>
      </trkpt>
      <trkpt lat="41.6482440" lon="1.8043940">
        <ele>273.4</ele>
        <time>2022-06-28T16:41:43Z</time>
      </trkpt>
      <trkpt lat="41.6479920" lon="1.8043070">
        <ele>274.2</ele>
        <time>2022-06-28T16:41:49Z</time>
      </trkpt>
      <trkpt lat="41.6479500" lon="1.8042890">
        <ele>274.4</ele>
        <time>2022-06-28T16:41:50Z</time>
      </trkpt>
      <trkpt lat="41.6476920" lon="1.8041570">
        <ele>275.6</ele>
        <time>2022-06-28T16:41:56Z</time>
      </trkpt>
      <trkpt lat="41.6476100" lon="1.8040990">
        <ele>275.8</ele>
        <time>2022-06-28T16:41:58Z</time>
      </trkpt>
      <trkpt lat="41.6473040" lon="1.8038470">
        <ele>276.2</ele>
        <time>2022-06-28T16:42:06Z</time>
      </trkpt>
      <trkpt lat="41.6470030" lon="1.8035950">
        <ele>276.4</ele>
        <time>2022-06-28T16:42:14Z</time>
      </trkpt>
      <trkpt lat="41.6469070" lon="1.8035030">
        <ele>276.6</ele>
        <time>2022-06-28T16:42:17Z</time>
      </trkpt>
      <trkpt lat="41.6464940" lon="1.8031340">
        <ele>277.4</ele>
        <time>2022-06-28T16:42:28Z</time>
      </trkpt>
      <trkpt lat="41.6464570" lon="1.8031000">
        <ele>277.4</ele>
        <time>2022-06-28T16:42:29Z</time>
      </trkpt>
      <trkpt lat="41.6461470" lon="1.8028200">
        <ele>278.0</ele>
        <time>2022-06-28T16:42:37Z</time>
      </trkpt>
      <trkpt lat="41.6460440" lon="1.8027250">
        <ele>278.4</ele>
        <time>2022-06-28T16:42:40Z</time>
      </trkpt>
      <trkpt lat="41.6459190" lon="1.8026190">
        <ele>278.6</ele>
        <time>2022-06-28T16:42:43Z</time>
      </trkpt>
      <trkpt lat="41.6456530" lon="1.8023980">
        <ele>279.4</ele>
        <time>2022-06-28T16:42:50Z</time>
      </trkpt>
      <trkpt lat="41.6453190" lon="1.8020930">
        <ele>279.4</ele>
        <time>2022-06-28T16:42:59Z</time>
      </trkpt>
      <trkpt lat="41.6452060" lon="1.8019920">
        <ele>279.8</ele>
        <time>2022-06-28T16:43:02Z</time>
      </trkpt>
      <trkpt lat="41.6449010" lon="1.8017300">
        <ele>280.6</ele>
        <time>2022-06-28T16:43:10Z</time>
      </trkpt>
      <trkpt lat="41.6447510" lon="1.8015910">
        <ele>280.8</ele>
        <time>2022-06-28T16:43:14Z</time>
      </trkpt>
      <trkpt lat="41.6445720" lon="1.8014300">
        <ele>280.6</ele>
        <time>2022-06-28T16:43:19Z</time>
      </trkpt>
      <trkpt lat="41.6442270" lon="1.8011310">
        <ele>280.8</ele>
        <time>2022-06-28T16:43:28Z</time>
      </trkpt>
      <trkpt lat="41.6440230" lon="1.8009740">
        <ele>281.2</ele>
        <time>2022-06-28T16:43:33Z</time>
      </trkpt>
      <trkpt lat="41.6439360" lon="1.8009320">
        <ele>281.6</ele>
        <time>2022-06-28T16:43:35Z</time>
      </trkpt>
      <trkpt lat="41.6437110" lon="1.8008660">
        <ele>282.2</ele>
        <time>2022-06-28T16:43:40Z</time>
      </trkpt>
      <trkpt lat="41.6435760" lon="1.8008640">
        <ele>282.4</ele>
        <time>2022-06-28T16:43:43Z</time>
      </trkpt>
      <trkpt lat="41.6434480" lon="1.8008820">
        <ele>282.8</ele>
        <time>2022-06-28T16:43:46Z</time>
      </trkpt>
      <trkpt lat="41.6432720" lon="1.8009450">
        <ele>283.0</ele>
        <time>2022-06-28T16:43:50Z</time>
      </trkpt>
      <trkpt lat="41.6430480" lon="1.8009890">
        <ele>283.8</ele>
        <time>2022-06-28T16:43:55Z</time>
      </trkpt>
      <trkpt lat="41.6429610" lon="1.8009820">
        <ele>284.0</ele>
        <time>2022-06-28T16:43:57Z</time>
      </trkpt>
      <trkpt lat="41.6429150" lon="1.8009720">
        <ele>284.2</ele>
        <time>2022-06-28T16:43:58Z</time>
      </trkpt>
      <trkpt lat="41.6428280" lon="1.8009310">
        <ele>284.4</ele>
        <time>2022-06-28T16:44:00Z</time>
      </trkpt>
      <trkpt lat="41.6427470" lon="1.8008690">
        <ele>284.6</ele>
        <time>2022-06-28T16:44:02Z</time>
      </trkpt>
      <trkpt lat="41.6427110" lon="1.8008320">
        <ele>284.8</ele>
        <time>2022-06-28T16:44:03Z</time>
      </trkpt>
      <trkpt lat="41.6426470" lon="1.8007440">
        <ele>285.0</ele>
        <time>2022-06-28T16:44:05Z</time>
      </trkpt>
      <trkpt lat="41.6426030" lon="1.8006340">
        <ele>285.0</ele>
        <time>2022-06-28T16:44:07Z</time>
      </trkpt>
      <trkpt lat="41.6425910" lon="1.8004980">
        <ele>285.0</ele>
        <time>2022-06-28T16:44:09Z</time>
      </trkpt>
      <trkpt lat="41.6425970" lon="1.8004250">
        <ele>285.0</ele>
        <time>2022-06-28T16:44:10Z</time>
      </trkpt>
      <trkpt lat="41.6427130" lon="1.7999550">
        <ele>285.6</ele>
        <time>2022-06-28T16:44:17Z</time>
      </trkpt>
      <trkpt lat="41.6427340" lon="1.7998810">
        <ele>286.0</ele>
        <time>2022-06-28T16:44:18Z</time>
      </trkpt>
      <trkpt lat="41.6428140" lon="1.7995070">
        <ele>286.8</ele>
        <time>2022-06-28T16:44:24Z</time>
      </trkpt>
      <trkpt lat="41.6428220" lon="1.7994470">
        <ele>287.2</ele>
        <time>2022-06-28T16:44:25Z</time>
      </trkpt>
      <trkpt lat="41.6428410" lon="1.7992280">
        <ele>287.6</ele>
        <time>2022-06-28T16:44:29Z</time>
      </trkpt>
      <trkpt lat="41.6428390" lon="1.7991290">
        <ele>288.2</ele>
        <time>2022-06-28T16:44:31Z</time>
      </trkpt>
      <trkpt lat="41.6428270" lon="1.7988950">
        <ele>289.0</ele>
        <time>2022-06-28T16:44:35Z</time>
      </trkpt>
      <trkpt lat="41.6428120" lon="1.7987020">
        <ele>289.2</ele>
        <time>2022-06-28T16:44:38Z</time>
      </trkpt>
      <trkpt lat="41.6427720" lon="1.7985240">
        <ele>289.4</ele>
        <time>2022-06-28T16:44:41Z</time>
      </trkpt>
      <trkpt lat="41.6427350" lon="1.7984100">
        <ele>289.4</ele>
        <time>2022-06-28T16:44:43Z</time>
      </trkpt>
      <trkpt lat="41.6426110" lon="1.7981400">
        <ele>290.2</ele>
        <time>2022-06-28T16:44:48Z</time>
      </trkpt>
      <trkpt lat="41.6425830" lon="1.7980870">
        <ele>290.4</ele>
        <time>2022-06-28T16:44:49Z</time>
      </trkpt>
      <trkpt lat="41.6424680" lon="1.7978750">
        <ele>291.4</ele>
        <time>2022-06-28T16:44:53Z</time>
      </trkpt>
      <trkpt lat="41.6423260" lon="1.7976170">
        <ele>292.4</ele>
        <time>2022-06-28T16:44:58Z</time>
      </trkpt>
      <trkpt lat="41.6420690" lon="1.7971610">
        <ele>293.2</ele>
        <time>2022-06-28T16:45:07Z</time>
      </trkpt>
      <trkpt lat="41.6420080" lon="1.7970500">
        <ele>293.6</ele>
        <time>2022-06-28T16:45:09Z</time>
      </trkpt>
      <trkpt lat="41.6419310" lon="1.7969060">
        <ele>294.6</ele>
        <time>2022-06-28T16:45:12Z</time>
      </trkpt>
      <trkpt lat="41.6418130" lon="1.7967170">
        <ele>295.6</ele>
        <time>2022-06-28T16:45:16Z</time>
      </trkpt>
      <trkpt lat="41.6416980" lon="1.7965730">
        <ele>296.4</ele>
        <time>2022-06-28T16:45:19Z</time>
      </trkpt>
      <trkpt lat="41.6415740" lon="1.7964590">
        <ele>296.6</ele>
        <time>2022-06-28T16:45:22Z</time>
      </trkpt>
      <trkpt lat="41.6415030" lon="1.7963540">
        <ele>296.8</ele>
        <time>2022-06-28T16:45:24Z</time>
      </trkpt>
      <trkpt lat="41.6414660" lon="1.7962270">
        <ele>296.8</ele>
        <time>2022-06-28T16:45:26Z</time>
      </trkpt>
      <trkpt lat="41.6414650" lon="1.7958150">
        <ele>296.6</ele>
        <time>2022-06-28T16:45:32Z</time>
      </trkpt>
      <trkpt lat="41.6414840" lon="1.7953530">
        <ele>297.2</ele>
        <time>2022-06-28T16:45:39Z</time>
      </trkpt>
      <trkpt lat="41.6414780" lon="1.7951820">
        <ele>297.6</ele>
        <time>2022-06-28T16:45:42Z</time>
      </trkpt>
      <trkpt lat="41.6414550" lon="1.7948340">
        <ele>298.6</ele>
        <time>2022-06-28T16:45:47Z</time>
      </trkpt>
      <trkpt lat="41.6414510" lon="1.7947770">
        <ele>298.6</ele>
        <time>2022-06-28T16:45:48Z</time>
      </trkpt>
      <trkpt lat="41.6414170" lon="1.7944160">
        <ele>299.0</ele>
        <time>2022-06-28T16:45:53Z</time>
      </trkpt>
      <trkpt lat="41.6413940" lon="1.7942960">
        <ele>299.0</ele>
        <time>2022-06-28T16:45:55Z</time>
      </trkpt>
      <trkpt lat="41.6413290" lon="1.7941040">
        <ele>299.4</ele>
        <time>2022-06-28T16:45:58Z</time>
      </trkpt>
      <trkpt lat="41.6413030" lon="1.7940590">
        <ele>299.6</ele>
        <time>2022-06-28T16:45:59Z</time>
      </trkpt>
      <trkpt lat="41.6412680" lon="1.7940080">
        <ele>299.6</ele>
        <time>2022-06-28T16:46:00Z</time>
      </trkpt>
      <trkpt lat="41.6411690" lon="1.7939290">
        <ele>299.8</ele>
        <time>2022-06-28T16:46:02Z</time>
      </trkpt>
      <trkpt lat="41.6410740" lon="1.7938880">
        <ele>300.0</ele>
        <time>2022-06-28T16:46:04Z</time>
      </trkpt>
      <trkpt lat="41.6409090" lon="1.7938530">
        <ele>300.2</ele>
        <time>2022-06-28T16:46:07Z</time>
      </trkpt>
      <trkpt lat="41.6408230" lon="1.7938760">
        <ele>300.4</ele>
        <time>2022-06-28T16:46:09Z</time>
      </trkpt>
      <trkpt lat="41.6407310" lon="1.7939120">
        <ele>300.6</ele>
        <time>2022-06-28T16:46:11Z</time>
      </trkpt>
      <trkpt lat="41.6406890" lon="1.7939290">
        <ele>300.6</ele>
        <time>2022-06-28T16:46:12Z</time>
      </trkpt>
      <trkpt lat="41.6405690" lon="1.7939850">
        <ele>301.6</ele>
        <time>2022-06-28T16:46:15Z</time>
      </trkpt>
      <trkpt lat="41.6405300" lon="1.7939990">
        <ele>301.8</ele>
        <time>2022-06-28T16:46:16Z</time>
      </trkpt>
      <trkpt lat="41.6405000" lon="1.7940080">
        <ele>301.8</ele>
        <time>2022-06-28T16:46:17Z</time>
      </trkpt>
      <trkpt lat="41.6404240" lon="1.7940220">
        <ele>302.2</ele>
        <time>2022-06-28T16:46:19Z</time>
      </trkpt>
      <trkpt lat="41.6403500" lon="1.7940180">
        <ele>302.6</ele>
        <time>2022-06-28T16:46:21Z</time>
      </trkpt>
      <trkpt lat="41.6403140" lon="1.7940070">
        <ele>302.8</ele>
        <time>2022-06-28T16:46:22Z</time>
      </trkpt>
      <trkpt lat="41.6401850" lon="1.7939340">
        <ele>303.6</ele>
        <time>2022-06-28T16:46:26Z</time>
      </trkpt>
      <trkpt lat="41.6401560" lon="1.7939100">
        <ele>303.8</ele>
        <time>2022-06-28T16:46:27Z</time>
      </trkpt>
      <trkpt lat="41.6400420" lon="1.7937870">
        <ele>304.8</ele>
        <time>2022-06-28T16:46:31Z</time>
      </trkpt>
      <trkpt lat="41.6399710" lon="1.7936740">
        <ele>305.6</ele>
        <time>2022-06-28T16:46:34Z</time>
      </trkpt>
      <trkpt lat="41.6399270" lon="1.7935950">
        <ele>306.0</ele>
        <time>2022-06-28T16:46:36Z</time>
      </trkpt>
      <trkpt lat="41.6398560" lon="1.7934270">
        <ele>307.0</ele>
        <time>2022-06-28T16:46:40Z</time>
      </trkpt>
      <trkpt lat="41.6398320" lon="1.7933460">
        <ele>307.8</ele>
        <time>2022-06-28T16:46:42Z</time>
      </trkpt>
      <trkpt lat="41.6398090" lon="1.7932390">
        <ele>308.4</ele>
        <time>2022-06-28T16:46:44Z</time>
      </trkpt>
      <trkpt lat="41.6397970" lon="1.7931010">
        <ele>309.4</ele>
        <time>2022-06-28T16:46:47Z</time>
      </trkpt>
      <trkpt lat="41.6397970" lon="1.7929830">
        <ele>310.0</ele>
        <time>2022-06-28T16:46:49Z</time>
      </trkpt>
      <trkpt lat="41.6398040" lon="1.7928900">
        <ele>310.6</ele>
        <time>2022-06-28T16:46:51Z</time>
      </trkpt>
      <trkpt lat="41.6398070" lon="1.7928310">
        <ele>310.8</ele>
        <time>2022-06-28T16:46:52Z</time>
      </trkpt>
      <trkpt lat="41.6398340" lon="1.7927020">
        <ele>311.6</ele>
        <time>2022-06-28T16:46:55Z</time>
      </trkpt>
      <trkpt lat="41.6398600" lon="1.7926120">
        <ele>311.8</ele>
        <time>2022-06-28T16:46:57Z</time>
      </trkpt>
      <trkpt lat="41.6399320" lon="1.7924370">
        <ele>312.8</ele>
        <time>2022-06-28T16:47:01Z</time>
      </trkpt>
      <trkpt lat="41.6399540" lon="1.7923960">
        <ele>312.8</ele>
        <time>2022-06-28T16:47:02Z</time>
      </trkpt>
      <trkpt lat="41.6400340" lon="1.7922360">
        <ele>314.0</ele>
        <time>2022-06-28T16:47:06Z</time>
      </trkpt>
      <trkpt lat="41.6401040" lon="1.7921040">
        <ele>315.2</ele>
        <time>2022-06-28T16:47:10Z</time>
      </trkpt>
      <trkpt lat="41.6401700" lon="1.7919020">
        <ele>316.2</ele>
        <time>2022-06-28T16:47:15Z</time>
      </trkpt>
      <trkpt lat="41.6401870" lon="1.7918540">
        <ele>316.4</ele>
        <time>2022-06-28T16:47:16Z</time>
      </trkpt>
      <trkpt lat="41.6402230" lon="1.7917380">
        <ele>317.2</ele>
        <time>2022-06-28T16:47:19Z</time>
      </trkpt>
      <trkpt lat="41.6402620" lon="1.7915280">
        <ele>318.4</ele>
        <time>2022-06-28T16:47:24Z</time>
      </trkpt>
      <trkpt lat="41.6402660" lon="1.7914870">
        <ele>318.4</ele>
        <time>2022-06-28T16:47:25Z</time>
      </trkpt>
      <trkpt lat="41.6402790" lon="1.7913200">
        <ele>319.4</ele>
        <time>2022-06-28T16:47:29Z</time>
      </trkpt>
      <trkpt lat="41.6402760" lon="1.7912260">
        <ele>319.6</ele>
        <time>2022-06-28T16:47:31Z</time>
      </trkpt>
      <trkpt lat="41.6402830" lon="1.7910980">
        <ele>320.4</ele>
        <time>2022-06-28T16:47:34Z</time>
      </trkpt>
      <trkpt lat="41.6402740" lon="1.7909740">
        <ele>321.0</ele>
        <time>2022-06-28T16:47:37Z</time>
      </trkpt>
      <trkpt lat="41.6402800" lon="1.7908100">
        <ele>321.6</ele>
        <time>2022-06-28T16:47:41Z</time>
      </trkpt>
      <trkpt lat="41.6402700" lon="1.7906460">
        <ele>322.6</ele>
        <time>2022-06-28T16:47:45Z</time>
      </trkpt>
      <trkpt lat="41.6402630" lon="1.7906040">
        <ele>322.8</ele>
        <time>2022-06-28T16:47:46Z</time>
      </trkpt>
      <trkpt lat="41.6402320" lon="1.7904000">
        <ele>323.8</ele>
        <time>2022-06-28T16:47:51Z</time>
      </trkpt>
      <trkpt lat="41.6402280" lon="1.7903500">
        <ele>324.2</ele>
        <time>2022-06-28T16:47:52Z</time>
      </trkpt>
      <trkpt lat="41.6402370" lon="1.7901410">
        <ele>325.0</ele>
        <time>2022-06-28T16:47:57Z</time>
      </trkpt>
      <trkpt lat="41.6402690" lon="1.7900060">
        <ele>325.8</ele>
        <time>2022-06-28T16:48:00Z</time>
      </trkpt>
      <trkpt lat="41.6403000" lon="1.7899410">
        <ele>326.0</ele>
        <time>2022-06-28T16:48:02Z</time>
      </trkpt>
      <trkpt lat="41.6403940" lon="1.7898110">
        <ele>327.4</ele>
        <time>2022-06-28T16:48:07Z</time>
      </trkpt>
      <trkpt lat="41.6404180" lon="1.7897940">
        <ele>327.6</ele>
        <time>2022-06-28T16:48:08Z</time>
      </trkpt>
      <trkpt lat="41.6404480" lon="1.7897940">
        <ele>328.0</ele>
        <time>2022-06-28T16:48:10Z</time>
      </trkpt>
      <trkpt lat="41.6404540" lon="1.7898100">
        <ele>328.2</ele>
        <time>2022-06-28T16:48:11Z</time>
      </trkpt>
      <trkpt lat="41.6404530" lon="1.7898380">
        <ele>328.4</ele>
        <time>2022-06-28T16:48:12Z</time>
      </trkpt>
      <trkpt lat="41.6404520" lon="1.7898850">
        <ele>328.8</ele>
        <time>2022-06-28T16:48:14Z</time>
      </trkpt>
      <trkpt lat="41.6404540" lon="1.7899330">
        <ele>329.0</ele>
        <time>2022-06-28T16:48:16Z</time>
      </trkpt>
      <trkpt lat="41.6404630" lon="1.7899430">
        <ele>329.0</ele>
        <time>2022-06-28T16:48:17Z</time>
      </trkpt>
      <trkpt lat="41.6404850" lon="1.7899400">
        <ele>329.2</ele>
        <time>2022-06-28T16:48:19Z</time>
      </trkpt>
      <trkpt lat="41.6404780" lon="1.7899120">
        <ele>329.4</ele>
        <time>2022-06-28T16:48:21Z</time>
      </trkpt>
      <trkpt lat="41.6404440" lon="1.7899380">
        <ele>329.4</ele>
        <time>2022-06-28T16:48:23Z</time>
      </trkpt>
      <trkpt lat="41.6404400" lon="1.7899560">
        <ele>329.6</ele>
        <time>2022-06-28T16:48:24Z</time>
      </trkpt>
      <trkpt lat="41.6404330" lon="1.7899920">
        <ele>329.6</ele>
        <time>2022-06-28T16:48:26Z</time>
      </trkpt>
      <trkpt lat="41.6404150" lon="1.7900850">
        <ele>329.8</ele>
        <time>2022-06-28T16:48:30Z</time>
      </trkpt>
      <trkpt lat="41.6404140" lon="1.7902050">
        <ele>329.2</ele>
        <time>2022-06-28T16:48:37Z</time>
      </trkpt>
      <trkpt lat="41.6404140" lon="1.7902050">
        <ele>329.0</ele>
        <time>2022-06-28T16:48:39Z</time>
      </trkpt>
      <trkpt lat="41.6404220" lon="1.7901650">
        <ele>328.4</ele>
        <time>2022-06-28T16:48:58Z</time>
      </trkpt>
      <trkpt lat="41.6404220" lon="1.7901420">
        <ele>328.4</ele>
        <time>2022-06-28T16:48:59Z</time>
      </trkpt>
      <trkpt lat="41.6404340" lon="1.7900090">
        <ele>328.4</ele>
        <time>2022-06-28T16:49:04Z</time>
      </trkpt>
      <trkpt lat="41.6404610" lon="1.7899030">
        <ele>328.8</ele>
        <time>2022-06-28T16:49:10Z</time>
      </trkpt>
      <trkpt lat="41.6404500" lon="1.7898040">
        <ele>328.8</ele>
        <time>2022-06-28T16:49:13Z</time>
      </trkpt>
      <trkpt lat="41.6404200" lon="1.7897740">
        <ele>328.8</ele>
        <time>2022-06-28T16:49:15Z</time>
      </trkpt>
      <trkpt lat="41.6403460" lon="1.7898790">
        <ele>328.8</ele>
        <time>2022-06-28T16:49:18Z</time>
      </trkpt>
      <trkpt lat="41.6402880" lon="1.7899780">
        <ele>328.6</ele>
        <time>2022-06-28T16:49:20Z</time>
      </trkpt>
      <trkpt lat="41.6402460" lon="1.7901210">
        <ele>328.6</ele>
        <time>2022-06-28T16:49:22Z</time>
      </trkpt>
      <trkpt lat="41.6402310" lon="1.7903030">
        <ele>328.2</ele>
        <time>2022-06-28T16:49:24Z</time>
      </trkpt>
      <trkpt lat="41.6402340" lon="1.7904060">
        <ele>328.0</ele>
        <time>2022-06-28T16:49:25Z</time>
      </trkpt>
      <trkpt lat="41.6402420" lon="1.7905160">
        <ele>327.6</ele>
        <time>2022-06-28T16:49:26Z</time>
      </trkpt>
      <trkpt lat="41.6402560" lon="1.7907460">
        <ele>327.0</ele>
        <time>2022-06-28T16:49:28Z</time>
      </trkpt>
      <trkpt lat="41.6402700" lon="1.7909780">
        <ele>325.8</ele>
        <time>2022-06-28T16:49:30Z</time>
      </trkpt>
      <trkpt lat="41.6402710" lon="1.7911030">
        <ele>325.0</ele>
        <time>2022-06-28T16:49:31Z</time>
      </trkpt>
      <trkpt lat="41.6402710" lon="1.7912270">
        <ele>324.4</ele>
        <time>2022-06-28T16:49:32Z</time>
      </trkpt>
      <trkpt lat="41.6402360" lon="1.7916140">
        <ele>323.4</ele>
        <time>2022-06-28T16:49:35Z</time>
      </trkpt>
      <trkpt lat="41.6402090" lon="1.7917330">
        <ele>322.8</ele>
        <time>2022-06-28T16:49:36Z</time>
      </trkpt>
      <trkpt lat="41.6401230" lon="1.7919830">
        <ele>322.2</ele>
        <time>2022-06-28T16:49:38Z</time>
      </trkpt>
      <trkpt lat="41.6400370" lon="1.7921890">
        <ele>321.4</ele>
        <time>2022-06-28T16:49:40Z</time>
      </trkpt>
      <trkpt lat="41.6399790" lon="1.7923020">
        <ele>320.8</ele>
        <time>2022-06-28T16:49:41Z</time>
      </trkpt>
      <trkpt lat="41.6399180" lon="1.7924200">
        <ele>320.2</ele>
        <time>2022-06-28T16:49:42Z</time>
      </trkpt>
      <trkpt lat="41.6398550" lon="1.7925730">
        <ele>319.4</ele>
        <time>2022-06-28T16:49:43Z</time>
      </trkpt>
      <trkpt lat="41.6398250" lon="1.7926830">
        <ele>318.4</ele>
        <time>2022-06-28T16:49:44Z</time>
      </trkpt>
      <trkpt lat="41.6398010" lon="1.7928240">
        <ele>317.8</ele>
        <time>2022-06-28T16:49:45Z</time>
      </trkpt>
      <trkpt lat="41.6397860" lon="1.7929990">
        <ele>317.0</ele>
        <time>2022-06-28T16:49:46Z</time>
      </trkpt>
      <trkpt lat="41.6397880" lon="1.7931490">
        <ele>316.6</ele>
        <time>2022-06-28T16:49:47Z</time>
      </trkpt>
      <trkpt lat="41.6398060" lon="1.7932980">
        <ele>315.2</ele>
        <time>2022-06-28T16:49:48Z</time>
      </trkpt>
      <trkpt lat="41.6398940" lon="1.7935890">
        <ele>314.4</ele>
        <time>2022-06-28T16:49:50Z</time>
      </trkpt>
      <trkpt lat="41.6399620" lon="1.7937230">
        <ele>313.6</ele>
        <time>2022-06-28T16:49:51Z</time>
      </trkpt>
      <trkpt lat="41.6400330" lon="1.7938220">
        <ele>313.0</ele>
        <time>2022-06-28T16:49:52Z</time>
      </trkpt>
      <trkpt lat="41.6401220" lon="1.7939300">
        <ele>312.0</ele>
        <time>2022-06-28T16:49:53Z</time>
      </trkpt>
      <trkpt lat="41.6402190" lon="1.7940220">
        <ele>310.8</ele>
        <time>2022-06-28T16:49:54Z</time>
      </trkpt>
      <trkpt lat="41.6403430" lon="1.7941040">
        <ele>309.6</ele>
        <time>2022-06-28T16:49:55Z</time>
      </trkpt>
      <trkpt lat="41.6404560" lon="1.7941370">
        <ele>309.4</ele>
        <time>2022-06-28T16:49:56Z</time>
      </trkpt>
      <trkpt lat="41.6405690" lon="1.7941540">
        <ele>308.4</ele>
        <time>2022-06-28T16:49:57Z</time>
      </trkpt>
      <trkpt lat="41.6406480" lon="1.7941240">
        <ele>307.2</ele>
        <time>2022-06-28T16:49:58Z</time>
      </trkpt>
      <trkpt lat="41.6407560" lon="1.7940770">
        <ele>306.8</ele>
        <time>2022-06-28T16:49:59Z</time>
      </trkpt>
      <trkpt lat="41.6408670" lon="1.7940290">
        <ele>306.2</ele>
        <time>2022-06-28T16:50:00Z</time>
      </trkpt>
      <trkpt lat="41.6409980" lon="1.7939960">
        <ele>305.6</ele>
        <time>2022-06-28T16:50:01Z</time>
      </trkpt>
      <trkpt lat="41.6411590" lon="1.7940020">
        <ele>304.8</ele>
        <time>2022-06-28T16:50:02Z</time>
      </trkpt>
      <trkpt lat="41.6412540" lon="1.7940420">
        <ele>304.2</ele>
        <time>2022-06-28T16:50:03Z</time>
      </trkpt>
      <trkpt lat="41.6413500" lon="1.7941290">
        <ele>303.4</ele>
        <time>2022-06-28T16:50:04Z</time>
      </trkpt>
      <trkpt lat="41.6414240" lon="1.7942850">
        <ele>302.2</ele>
        <time>2022-06-28T16:50:05Z</time>
      </trkpt>
      <trkpt lat="41.6414600" lon="1.7944230">
        <ele>301.8</ele>
        <time>2022-06-28T16:50:06Z</time>
      </trkpt>
      <trkpt lat="41.6414920" lon="1.7948590">
        <ele>301.0</ele>
        <time>2022-06-28T16:50:09Z</time>
      </trkpt>
      <trkpt lat="41.6414980" lon="1.7949980">
        <ele>300.6</ele>
        <time>2022-06-28T16:50:10Z</time>
      </trkpt>
      <trkpt lat="41.6415010" lon="1.7956710">
        <ele>300.0</ele>
        <time>2022-06-28T16:50:15Z</time>
      </trkpt>
      <trkpt lat="41.6414920" lon="1.7958100">
        <ele>299.4</ele>
        <time>2022-06-28T16:50:16Z</time>
      </trkpt>
      <trkpt lat="41.6414720" lon="1.7960570">
        <ele>299.0</ele>
        <time>2022-06-28T16:50:18Z</time>
      </trkpt>
      <trkpt lat="41.6414720" lon="1.7961930">
        <ele>298.2</ele>
        <time>2022-06-28T16:50:19Z</time>
      </trkpt>
      <trkpt lat="41.6414990" lon="1.7963500">
        <ele>298.0</ele>
        <time>2022-06-28T16:50:20Z</time>
      </trkpt>
      <trkpt lat="41.6415430" lon="1.7964650">
        <ele>297.4</ele>
        <time>2022-06-28T16:50:21Z</time>
      </trkpt>
      <trkpt lat="41.6416690" lon="1.7966390">
        <ele>297.0</ele>
        <time>2022-06-28T16:50:23Z</time>
      </trkpt>
      <trkpt lat="41.6418160" lon="1.7967890">
        <ele>296.8</ele>
        <time>2022-06-28T16:50:25Z</time>
      </trkpt>
      <trkpt lat="41.6419440" lon="1.7969670">
        <ele>296.6</ele>
        <time>2022-06-28T16:50:27Z</time>
      </trkpt>
      <trkpt lat="41.6421130" lon="1.7972670">
        <ele>296.2</ele>
        <time>2022-06-28T16:50:30Z</time>
      </trkpt>
      <trkpt lat="41.6423430" lon="1.7976990">
        <ele>296.0</ele>
        <time>2022-06-28T16:50:34Z</time>
      </trkpt>
      <trkpt lat="41.6425740" lon="1.7981370">
        <ele>294.8</ele>
        <time>2022-06-28T16:50:38Z</time>
      </trkpt>
      <trkpt lat="41.6427270" lon="1.7984840">
        <ele>293.6</ele>
        <time>2022-06-28T16:50:41Z</time>
      </trkpt>
      <trkpt lat="41.6427950" lon="1.7987360">
        <ele>292.8</ele>
        <time>2022-06-28T16:50:43Z</time>
      </trkpt>
      <trkpt lat="41.6428130" lon="1.7988700">
        <ele>292.6</ele>
        <time>2022-06-28T16:50:44Z</time>
      </trkpt>
      <trkpt lat="41.6428240" lon="1.7990070">
        <ele>292.2</ele>
        <time>2022-06-28T16:50:45Z</time>
      </trkpt>
      <trkpt lat="41.6428300" lon="1.7994150">
        <ele>291.8</ele>
        <time>2022-06-28T16:50:48Z</time>
      </trkpt>
      <trkpt lat="41.6428130" lon="1.7995500">
        <ele>291.6</ele>
        <time>2022-06-28T16:50:49Z</time>
      </trkpt>
      <trkpt lat="41.6427850" lon="1.7996840">
        <ele>291.4</ele>
        <time>2022-06-28T16:50:50Z</time>
      </trkpt>
      <trkpt lat="41.6426380" lon="1.8002070">
        <ele>290.2</ele>
        <time>2022-06-28T16:50:54Z</time>
      </trkpt>
      <trkpt lat="41.6426020" lon="1.8003410">
        <ele>289.8</ele>
        <time>2022-06-28T16:50:55Z</time>
      </trkpt>
      <trkpt lat="41.6425940" lon="1.8006170">
        <ele>288.8</ele>
        <time>2022-06-28T16:50:57Z</time>
      </trkpt>
      <trkpt lat="41.6426730" lon="1.8008740">
        <ele>288.0</ele>
        <time>2022-06-28T16:50:59Z</time>
      </trkpt>
      <trkpt lat="41.6428240" lon="1.8010510">
        <ele>287.4</ele>
        <time>2022-06-28T16:51:01Z</time>
      </trkpt>
      <trkpt lat="41.6429170" lon="1.8010980">
        <ele>287.4</ele>
        <time>2022-06-28T16:51:02Z</time>
      </trkpt>
      <trkpt lat="41.6431220" lon="1.8011040">
        <ele>286.0</ele>
        <time>2022-06-28T16:51:04Z</time>
      </trkpt>
      <trkpt lat="41.6432280" lon="1.8010750">
        <ele>285.6</ele>
        <time>2022-06-28T16:51:05Z</time>
      </trkpt>
      <trkpt lat="41.6434540" lon="1.8010010">
        <ele>285.2</ele>
        <time>2022-06-28T16:51:07Z</time>
      </trkpt>
      <trkpt lat="41.6436930" lon="1.8009910">
        <ele>284.6</ele>
        <time>2022-06-28T16:51:09Z</time>
      </trkpt>
      <trkpt lat="41.6439250" lon="1.8010480">
        <ele>284.0</ele>
        <time>2022-06-28T16:51:11Z</time>
      </trkpt>
      <trkpt lat="41.6440310" lon="1.8011030">
        <ele>284.0</ele>
        <time>2022-06-28T16:51:12Z</time>
      </trkpt>
      <trkpt lat="41.6441350" lon="1.8011740">
        <ele>283.4</ele>
        <time>2022-06-28T16:51:13Z</time>
      </trkpt>
      <trkpt lat="41.6445020" lon="1.8014760">
        <ele>282.4</ele>
        <time>2022-06-28T16:51:17Z</time>
      </trkpt>
      <trkpt lat="41.6446130" lon="1.8015700">
        <ele>282.0</ele>
        <time>2022-06-28T16:51:18Z</time>
      </trkpt>
      <trkpt lat="41.6450580" lon="1.8019490">
        <ele>280.8</ele>
        <time>2022-06-28T16:51:23Z</time>
      </trkpt>
      <trkpt lat="41.6452320" lon="1.8020970">
        <ele>280.6</ele>
        <time>2022-06-28T16:51:25Z</time>
      </trkpt>
      <trkpt lat="41.6456500" lon="1.8024590">
        <ele>279.8</ele>
        <time>2022-06-28T16:51:30Z</time>
      </trkpt>
      <trkpt lat="41.6457310" lon="1.8025290">
        <ele>279.8</ele>
        <time>2022-06-28T16:51:31Z</time>
      </trkpt>
      <trkpt lat="41.6462320" lon="1.8029600">
        <ele>278.8</ele>
        <time>2022-06-28T16:51:37Z</time>
      </trkpt>
      <trkpt lat="41.6464880" lon="1.8031890">
        <ele>278.4</ele>
        <time>2022-06-28T16:51:40Z</time>
      </trkpt>
      <trkpt lat="41.6468390" lon="1.8034990">
        <ele>277.6</ele>
        <time>2022-06-28T16:51:44Z</time>
      </trkpt>
      <trkpt lat="41.6472820" lon="1.8038810">
        <ele>277.4</ele>
        <time>2022-06-28T16:51:49Z</time>
      </trkpt>
      <trkpt lat="41.6478390" lon="1.8042910">
        <ele>276.4</ele>
        <time>2022-06-28T16:51:55Z</time>
      </trkpt>
      <trkpt lat="41.6479410" lon="1.8043360">
        <ele>276.0</ele>
        <time>2022-06-28T16:51:56Z</time>
      </trkpt>
      <trkpt lat="41.6483640" lon="1.8044860">
        <ele>275.2</ele>
        <time>2022-06-28T16:52:00Z</time>
      </trkpt>
      <trkpt lat="41.6486910" lon="1.8046020">
        <ele>274.2</ele>
        <time>2022-06-28T16:52:03Z</time>
      </trkpt>
      <trkpt lat="41.6491250" lon="1.8047520">
        <ele>273.0</ele>
        <time>2022-06-28T16:52:07Z</time>
      </trkpt>
      <trkpt lat="41.6492270" lon="1.8047890">
        <ele>272.8</ele>
        <time>2022-06-28T16:52:08Z</time>
      </trkpt>
      <trkpt lat="41.6496230" lon="1.8049050">
        <ele>271.8</ele>
        <time>2022-06-28T16:52:12Z</time>
      </trkpt>
      <trkpt lat="41.6498170" lon="1.8049710">
        <ele>271.2</ele>
        <time>2022-06-28T16:52:14Z</time>
      </trkpt>
      <trkpt lat="41.6500180" lon="1.8050390">
        <ele>270.6</ele>
        <time>2022-06-28T16:52:16Z</time>
      </trkpt>
      <trkpt lat="41.6504290" lon="1.8051950">
        <ele>269.4</ele>
        <time>2022-06-28T16:52:20Z</time>
      </trkpt>
      <trkpt lat="41.6505860" lon="1.8053100">
        <ele>268.2</ele>
        <time>2022-06-28T16:52:22Z</time>
      </trkpt>
      <trkpt lat="41.6506530" lon="1.8053870">
        <ele>268.0</ele>
        <time>2022-06-28T16:52:23Z</time>
      </trkpt>
      <trkpt lat="41.6507090" lon="1.8054750">
        <ele>267.6</ele>
        <time>2022-06-28T16:52:24Z</time>
      </trkpt>
      <trkpt lat="41.6507910" lon="1.8056760">
        <ele>267.0</ele>
        <time>2022-06-28T16:52:26Z</time>
      </trkpt>
      <trkpt lat="41.6508110" lon="1.8059000">
        <ele>266.6</ele>
        <time>2022-06-28T16:52:28Z</time>
      </trkpt>
      <trkpt lat="41.6507940" lon="1.8060020">
        <ele>266.2</ele>
        <time>2022-06-28T16:52:29Z</time>
      </trkpt>
      <trkpt lat="41.6507580" lon="1.8060960">
        <ele>266.0</ele>
        <time>2022-06-28T16:52:30Z</time>
      </trkpt>
      <trkpt lat="41.6506530" lon="1.8062280">
        <ele>265.8</ele>
        <time>2022-06-28T16:52:32Z</time>
      </trkpt>
      <trkpt lat="41.6504400" lon="1.8063310">
        <ele>265.8</ele>
        <time>2022-06-28T16:52:35Z</time>
      </trkpt>
      <trkpt lat="41.6503740" lon="1.8063770">
        <ele>265.8</ele>
        <time>2022-06-28T16:52:36Z</time>
      </trkpt>
      <trkpt lat="41.6503150" lon="1.8064340">
        <ele>265.8</ele>
        <time>2022-06-28T16:52:37Z</time>
      </trkpt>
      <trkpt lat="41.6502250" lon="1.8065890">
        <ele>266.0</ele>
        <time>2022-06-28T16:52:39Z</time>
      </trkpt>
      <trkpt lat="41.6501720" lon="1.8067830">
        <ele>266.0</ele>
        <time>2022-06-28T16:52:41Z</time>
      </trkpt>
      <trkpt lat="41.6501510" lon="1.8069980">
        <ele>266.2</ele>
        <time>2022-06-28T16:52:43Z</time>
      </trkpt>
      <trkpt lat="41.6501490" lon="1.8071060">
        <ele>266.2</ele>
        <time>2022-06-28T16:52:44Z</time>
      </trkpt>
      <trkpt lat="41.6502010" lon="1.8074260">
        <ele>266.0</ele>
        <time>2022-06-28T16:52:47Z</time>
      </trkpt>
      <trkpt lat="41.6503560" lon="1.8078470">
        <ele>265.0</ele>
        <time>2022-06-28T16:52:51Z</time>
      </trkpt>
      <trkpt lat="41.6504020" lon="1.8079570">
        <ele>264.8</ele>
        <time>2022-06-28T16:52:52Z</time>
      </trkpt>
      <trkpt lat="41.6505950" lon="1.8084260">
        <ele>263.8</ele>
        <time>2022-06-28T16:52:56Z</time>
      </trkpt>
      <trkpt lat="41.6507550" lon="1.8088000">
        <ele>262.8</ele>
        <time>2022-06-28T16:52:59Z</time>
      </trkpt>
      <trkpt lat="41.6508600" lon="1.8090560">
        <ele>261.8</ele>
        <time>2022-06-28T16:53:01Z</time>
      </trkpt>
      <trkpt lat="41.6509650" lon="1.8093230">
        <ele>260.4</ele>
        <time>2022-06-28T16:53:03Z</time>
      </trkpt>
      <trkpt lat="41.6510950" lon="1.8097320">
        <ele>259.0</ele>
        <time>2022-06-28T16:53:06Z</time>
      </trkpt>
      <trkpt lat="41.6511770" lon="1.8101420">
        <ele>257.6</ele>
        <time>2022-06-28T16:53:09Z</time>
      </trkpt>
      <trkpt lat="41.6512150" lon="1.8104260">
        <ele>257.4</ele>
        <time>2022-06-28T16:53:11Z</time>
      </trkpt>
      <trkpt lat="41.6512760" lon="1.8111690">
        <ele>256.8</ele>
        <time>2022-06-28T16:53:16Z</time>
      </trkpt>
      <trkpt lat="41.6512810" lon="1.8113140">
        <ele>256.6</ele>
        <time>2022-06-28T16:53:17Z</time>
      </trkpt>
      <trkpt lat="41.6512840" lon="1.8114590">
        <ele>256.4</ele>
        <time>2022-06-28T16:53:18Z</time>
      </trkpt>
      <trkpt lat="41.6512480" lon="1.8121690">
        <ele>256.0</ele>
        <time>2022-06-28T16:53:23Z</time>
      </trkpt>
      <trkpt lat="41.6511530" lon="1.8127160">
        <ele>255.8</ele>
        <time>2022-06-28T16:53:27Z</time>
      </trkpt>
      <trkpt lat="41.6509210" lon="1.8133240">
        <ele>255.8</ele>
        <time>2022-06-28T16:53:32Z</time>
      </trkpt>
      <trkpt lat="41.6506150" lon="1.8140210">
        <ele>255.4</ele>
        <time>2022-06-28T16:53:38Z</time>
      </trkpt>
      <trkpt lat="41.6505640" lon="1.8141400">
        <ele>255.2</ele>
        <time>2022-06-28T16:53:39Z</time>
      </trkpt>
      <trkpt lat="41.6502570" lon="1.8148390">
        <ele>255.0</ele>
        <time>2022-06-28T16:53:45Z</time>
      </trkpt>
      <trkpt lat="41.6502170" lon="1.8149630">
        <ele>254.4</ele>
        <time>2022-06-28T16:53:46Z</time>
      </trkpt>
      <trkpt lat="41.6501820" lon="1.8150930">
        <ele>254.0</ele>
        <time>2022-06-28T16:53:47Z</time>
      </trkpt>
      <trkpt lat="41.6500460" lon="1.8156690">
        <ele>253.2</ele>
        <time>2022-06-28T16:53:51Z</time>
      </trkpt>
      <trkpt lat="41.6500330" lon="1.8158270">
        <ele>253.0</ele>
        <time>2022-06-28T16:53:52Z</time>
      </trkpt>
      <trkpt lat="41.6500400" lon="1.8159870">
        <ele>252.2</ele>
        <time>2022-06-28T16:53:53Z</time>
      </trkpt>
      <trkpt lat="41.6500560" lon="1.8161430">
        <ele>251.2</ele>
        <time>2022-06-28T16:53:54Z</time>
      </trkpt>
      <trkpt lat="41.6500960" lon="1.8164350">
        <ele>250.0</ele>
        <time>2022-06-28T16:53:56Z</time>
      </trkpt>
      <trkpt lat="41.6501720" lon="1.8168350">
        <ele>249.2</ele>
        <time>2022-06-28T16:53:59Z</time>
      </trkpt>
      <trkpt lat="41.6502060" lon="1.8169600">
        <ele>249.0</ele>
        <time>2022-06-28T16:54:00Z</time>
      </trkpt>
      <trkpt lat="41.6502480" lon="1.8170780">
        <ele>248.8</ele>
        <time>2022-06-28T16:54:01Z</time>
      </trkpt>
      <trkpt lat="41.6503610" lon="1.8172860">
        <ele>248.8</ele>
        <time>2022-06-28T16:54:03Z</time>
      </trkpt>
      <trkpt lat="41.6506980" lon="1.8177420">
        <ele>249.0</ele>
        <time>2022-06-28T16:54:08Z</time>
      </trkpt>
      <trkpt lat="41.6508150" lon="1.8179370">
        <ele>249.0</ele>
        <time>2022-06-28T16:54:10Z</time>
      </trkpt>
      <trkpt lat="41.6508560" lon="1.8180460">
        <ele>249.0</ele>
        <time>2022-06-28T16:54:11Z</time>
      </trkpt>
      <trkpt lat="41.6508770" lon="1.8181640">
        <ele>249.2</ele>
        <time>2022-06-28T16:54:12Z</time>
      </trkpt>
      <trkpt lat="41.6508870" lon="1.8184090">
        <ele>249.2</ele>
        <time>2022-06-28T16:54:14Z</time>
      </trkpt>
      <trkpt lat="41.6508630" lon="1.8188920">
        <ele>249.4</ele>
        <time>2022-06-28T16:54:18Z</time>
      </trkpt>
      <trkpt lat="41.6508260" lon="1.8191220">
        <ele>249.4</ele>
        <time>2022-06-28T16:54:20Z</time>
      </trkpt>
      <trkpt lat="41.6506920" lon="1.8195700">
        <ele>249.2</ele>
        <time>2022-06-28T16:54:24Z</time>
      </trkpt>
      <trkpt lat="41.6505900" lon="1.8197860">
        <ele>249.2</ele>
        <time>2022-06-28T16:54:26Z</time>
      </trkpt>
      <trkpt lat="41.6504670" lon="1.8199390">
        <ele>249.0</ele>
        <time>2022-06-28T16:54:28Z</time>
      </trkpt>
      <trkpt lat="41.6502290" lon="1.8201730">
        <ele>247.8</ele>
        <time>2022-06-28T16:54:31Z</time>
      </trkpt>
      <trkpt lat="41.6498520" lon="1.8205730">
        <ele>246.6</ele>
        <time>2022-06-28T16:54:36Z</time>
      </trkpt>
      <trkpt lat="41.6497720" lon="1.8208020">
        <ele>246.2</ele>
        <time>2022-06-28T16:54:38Z</time>
      </trkpt>
      <trkpt lat="41.6497760" lon="1.8210300">
        <ele>246.0</ele>
        <time>2022-06-28T16:54:40Z</time>
      </trkpt>
      <trkpt lat="41.6498010" lon="1.8211470">
        <ele>245.6</ele>
        <time>2022-06-28T16:54:41Z</time>
      </trkpt>
      <trkpt lat="41.6498410" lon="1.8212550">
        <ele>245.6</ele>
        <time>2022-06-28T16:54:42Z</time>
      </trkpt>
      <trkpt lat="41.6499850" lon="1.8215680">
        <ele>245.2</ele>
        <time>2022-06-28T16:54:45Z</time>
      </trkpt>
      <trkpt lat="41.6503220" lon="1.8222630">
        <ele>244.8</ele>
        <time>2022-06-28T16:54:52Z</time>
      </trkpt>
      <trkpt lat="41.6504200" lon="1.8224660">
        <ele>244.8</ele>
        <time>2022-06-28T16:54:54Z</time>
      </trkpt>
      <trkpt lat="41.6505310" lon="1.8227240">
        <ele>244.8</ele>
        <time>2022-06-28T16:54:57Z</time>
      </trkpt>
      <trkpt lat="41.6505830" lon="1.8229210">
        <ele>244.8</ele>
        <time>2022-06-28T16:54:59Z</time>
      </trkpt>
      <trkpt lat="41.6506420" lon="1.8234720">
        <ele>244.6</ele>
        <time>2022-06-28T16:55:04Z</time>
      </trkpt>
      <trkpt lat="41.6506530" lon="1.8236020">
        <ele>244.4</ele>
        <time>2022-06-28T16:55:05Z</time>
      </trkpt>
      <trkpt lat="41.6506740" lon="1.8240300">
        <ele>243.2</ele>
        <time>2022-06-28T16:55:08Z</time>
      </trkpt>
      <trkpt lat="41.6506600" lon="1.8241770">
        <ele>242.0</ele>
        <time>2022-06-28T16:55:09Z</time>
      </trkpt>
      <trkpt lat="41.6505500" lon="1.8244760">
        <ele>240.6</ele>
        <time>2022-06-28T16:55:11Z</time>
      </trkpt>
      <trkpt lat="41.6503830" lon="1.8246620">
        <ele>239.6</ele>
        <time>2022-06-28T16:55:13Z</time>
      </trkpt>
      <trkpt lat="41.6503040" lon="1.8247180">
        <ele>239.2</ele>
        <time>2022-06-28T16:55:14Z</time>
      </trkpt>
      <trkpt lat="41.6500080" lon="1.8249310">
        <ele>238.0</ele>
        <time>2022-06-28T16:55:17Z</time>
      </trkpt>
      <trkpt lat="41.6499410" lon="1.8249960">
        <ele>237.8</ele>
        <time>2022-06-28T16:55:18Z</time>
      </trkpt>
      <trkpt lat="41.6498510" lon="1.8251020">
        <ele>237.6</ele>
        <time>2022-06-28T16:55:19Z</time>
      </trkpt>
      <trkpt lat="41.6495160" lon="1.8255840">
        <ele>237.2</ele>
        <time>2022-06-28T16:55:24Z</time>
      </trkpt>
      <trkpt lat="41.6494500" lon="1.8256810">
        <ele>237.0</ele>
        <time>2022-06-28T16:55:25Z</time>
      </trkpt>
      <trkpt lat="41.6490790" lon="1.8262300">
        <ele>236.8</ele>
        <time>2022-06-28T16:55:31Z</time>
      </trkpt>
      <trkpt lat="41.6486510" lon="1.8268700">
        <ele>236.6</ele>
        <time>2022-06-28T16:55:38Z</time>
      </trkpt>
      <trkpt lat="41.6486000" lon="1.8269730">
        <ele>236.6</ele>
        <time>2022-06-28T16:55:39Z</time>
      </trkpt>
      <trkpt lat="41.6484450" lon="1.8274430">
        <ele>236.4</ele>
        <time>2022-06-28T16:55:43Z</time>
      </trkpt>
      <trkpt lat="41.6482750" lon="1.8281900">
        <ele>236.0</ele>
        <time>2022-06-28T16:55:49Z</time>
      </trkpt>
      <trkpt lat="41.6482190" lon="1.8284440">
        <ele>235.8</ele>
        <time>2022-06-28T16:55:51Z</time>
      </trkpt>
      <trkpt lat="41.6480970" lon="1.8289170">
        <ele>235.4</ele>
        <time>2022-06-28T16:55:55Z</time>
      </trkpt>
      <trkpt lat="41.6480390" lon="1.8290190">
        <ele>235.0</ele>
        <time>2022-06-28T16:55:56Z</time>
      </trkpt>
      <trkpt lat="41.6479560" lon="1.8291290">
        <ele>234.8</ele>
        <time>2022-06-28T16:55:57Z</time>
      </trkpt>
      <trkpt lat="41.6476670" lon="1.8294510">
        <ele>233.8</ele>
        <time>2022-06-28T16:56:01Z</time>
      </trkpt>
      <trkpt lat="41.6475890" lon="1.8295340">
        <ele>233.6</ele>
        <time>2022-06-28T16:56:02Z</time>
      </trkpt>
      <trkpt lat="41.6473740" lon="1.8298040">
        <ele>233.2</ele>
        <time>2022-06-28T16:56:05Z</time>
      </trkpt>
      <trkpt lat="41.6473190" lon="1.8299180">
        <ele>232.8</ele>
        <time>2022-06-28T16:56:06Z</time>
      </trkpt>
      <trkpt lat="41.6472750" lon="1.8300480">
        <ele>232.6</ele>
        <time>2022-06-28T16:56:07Z</time>
      </trkpt>
      <trkpt lat="41.6472280" lon="1.8303370">
        <ele>232.4</ele>
        <time>2022-06-28T16:56:09Z</time>
      </trkpt>
      <trkpt lat="41.6471890" lon="1.8309480">
        <ele>231.4</ele>
        <time>2022-06-28T16:56:13Z</time>
      </trkpt>
      <trkpt lat="41.6471700" lon="1.8312830">
        <ele>230.2</ele>
        <time>2022-06-28T16:56:15Z</time>
      </trkpt>
      <trkpt lat="41.6471110" lon="1.8321230">
        <ele>229.4</ele>
        <time>2022-06-28T16:56:21Z</time>
      </trkpt>
      <trkpt lat="41.6471030" lon="1.8322500">
        <ele>229.2</ele>
        <time>2022-06-28T16:56:22Z</time>
      </trkpt>
      <trkpt lat="41.6471030" lon="1.8326090">
        <ele>228.8</ele>
        <time>2022-06-28T16:56:25Z</time>
      </trkpt>
      <trkpt lat="41.6471190" lon="1.8327240">
        <ele>228.8</ele>
        <time>2022-06-28T16:56:26Z</time>
      </trkpt>
      <trkpt lat="41.6471460" lon="1.8328350">
        <ele>228.6</ele>
        <time>2022-06-28T16:56:27Z</time>
      </trkpt>
      <trkpt lat="41.6472320" lon="1.8331710">
        <ele>228.6</ele>
        <time>2022-06-28T16:56:30Z</time>
      </trkpt>
      <trkpt lat="41.6472430" lon="1.8334150">
        <ele>228.8</ele>
        <time>2022-06-28T16:56:32Z</time>
      </trkpt>
      <trkpt lat="41.6472340" lon="1.8335370">
        <ele>228.6</ele>
        <time>2022-06-28T16:56:33Z</time>
      </trkpt>
      <trkpt lat="41.6471740" lon="1.8342940">
        <ele>228.4</ele>
        <time>2022-06-28T16:56:39Z</time>
      </trkpt>
      <trkpt lat="41.6471390" lon="1.8345500">
        <ele>228.2</ele>
        <time>2022-06-28T16:56:41Z</time>
      </trkpt>
      <trkpt lat="41.6470610" lon="1.8348040">
        <ele>228.0</ele>
        <time>2022-06-28T16:56:43Z</time>
      </trkpt>
      <trkpt lat="41.6470080" lon="1.8349270">
        <ele>228.0</ele>
        <time>2022-06-28T16:56:44Z</time>
      </trkpt>
      <trkpt lat="41.6467040" lon="1.8356240">
        <ele>226.8</ele>
        <time>2022-06-28T16:56:50Z</time>
      </trkpt>
      <trkpt lat="41.6464840" lon="1.8363240">
        <ele>225.6</ele>
        <time>2022-06-28T16:56:55Z</time>
      </trkpt>
      <trkpt lat="41.6464630" lon="1.8364460">
        <ele>225.4</ele>
        <time>2022-06-28T16:56:56Z</time>
      </trkpt>
      <trkpt lat="41.6463950" lon="1.8369260">
        <ele>224.4</ele>
        <time>2022-06-28T16:56:59Z</time>
      </trkpt>
      <trkpt lat="41.6463470" lon="1.8372910">
        <ele>223.2</ele>
        <time>2022-06-28T16:57:01Z</time>
      </trkpt>
      <trkpt lat="41.6463250" lon="1.8374590">
        <ele>222.0</ele>
        <time>2022-06-28T16:57:02Z</time>
      </trkpt>
      <trkpt lat="41.6462790" lon="1.8377890">
        <ele>220.8</ele>
        <time>2022-06-28T16:57:04Z</time>
      </trkpt>
      <trkpt lat="41.6462260" lon="1.8381030">
        <ele>219.4</ele>
        <time>2022-06-28T16:57:06Z</time>
      </trkpt>
      <trkpt lat="41.6461700" lon="1.8385540">
        <ele>218.0</ele>
        <time>2022-06-28T16:57:09Z</time>
      </trkpt>
      <trkpt lat="41.6461770" lon="1.8388320">
        <ele>217.6</ele>
        <time>2022-06-28T16:57:11Z</time>
      </trkpt>
      <trkpt lat="41.6462020" lon="1.8389590">
        <ele>217.2</ele>
        <time>2022-06-28T16:57:12Z</time>
      </trkpt>
      <trkpt lat="41.6462320" lon="1.8390810">
        <ele>217.0</ele>
        <time>2022-06-28T16:57:13Z</time>
      </trkpt>
      <trkpt lat="41.6462620" lon="1.8392020">
        <ele>216.8</ele>
        <time>2022-06-28T16:57:14Z</time>
      </trkpt>
      <trkpt lat="41.6463710" lon="1.8395510">
        <ele>216.8</ele>
        <time>2022-06-28T16:57:17Z</time>
      </trkpt>
      <trkpt lat="41.6465980" lon="1.8402700">
        <ele>216.4</ele>
        <time>2022-06-28T16:57:23Z</time>
      </trkpt>
      <trkpt lat="41.6467100" lon="1.8406600">
        <ele>215.6</ele>
        <time>2022-06-28T16:57:26Z</time>
      </trkpt>
      <trkpt lat="41.6468570" lon="1.8411750">
        <ele>214.6</ele>
        <time>2022-06-28T16:57:30Z</time>
      </trkpt>
      <trkpt lat="41.6469580" lon="1.8415550">
        <ele>213.2</ele>
        <time>2022-06-28T16:57:33Z</time>
      </trkpt>
      <trkpt lat="41.6470280" lon="1.8418020">
        <ele>212.6</ele>
        <time>2022-06-28T16:57:35Z</time>
      </trkpt>
      <trkpt lat="41.6470970" lon="1.8420420">
        <ele>212.2</ele>
        <time>2022-06-28T16:57:37Z</time>
      </trkpt>
      <trkpt lat="41.6471590" lon="1.8422880">
        <ele>212.0</ele>
        <time>2022-06-28T16:57:39Z</time>
      </trkpt>
      <trkpt lat="41.6471670" lon="1.8424200">
        <ele>211.8</ele>
        <time>2022-06-28T16:57:40Z</time>
      </trkpt>
      <trkpt lat="41.6471640" lon="1.8425560">
        <ele>211.8</ele>
        <time>2022-06-28T16:57:41Z</time>
      </trkpt>
      <trkpt lat="41.6471140" lon="1.8428130">
        <ele>211.4</ele>
        <time>2022-06-28T16:57:43Z</time>
      </trkpt>
      <trkpt lat="41.6470740" lon="1.8429360">
        <ele>211.2</ele>
        <time>2022-06-28T16:57:44Z</time>
      </trkpt>
      <trkpt lat="41.6469040" lon="1.8433760">
        <ele>211.0</ele>
        <time>2022-06-28T16:57:48Z</time>
      </trkpt>
      <trkpt lat="41.6467290" lon="1.8438010">
        <ele>212.2</ele>
        <time>2022-06-28T16:57:53Z</time>
      </trkpt>
      <trkpt lat="41.6466280" lon="1.8440410">
        <ele>213.4</ele>
        <time>2022-06-28T16:57:56Z</time>
      </trkpt>
      <trkpt lat="41.6465670" lon="1.8441840">
        <ele>214.6</ele>
        <time>2022-06-28T16:57:58Z</time>
      </trkpt>
      <trkpt lat="41.6464870" lon="1.8443940">
        <ele>216.0</ele>
        <time>2022-06-28T16:58:01Z</time>
      </trkpt>
      <trkpt lat="41.6464340" lon="1.8445240">
        <ele>217.2</ele>
        <time>2022-06-28T16:58:03Z</time>
      </trkpt>
      <trkpt lat="41.6463500" lon="1.8448250">
        <ele>218.4</ele>
        <time>2022-06-28T16:58:07Z</time>
      </trkpt>
      <trkpt lat="41.6463230" lon="1.8449830">
        <ele>219.0</ele>
        <time>2022-06-28T16:58:09Z</time>
      </trkpt>
      <trkpt lat="41.6462980" lon="1.8451520">
        <ele>219.6</ele>
        <time>2022-06-28T16:58:11Z</time>
      </trkpt>
      <trkpt lat="41.6462910" lon="1.8452430">
        <ele>219.6</ele>
        <time>2022-06-28T16:58:12Z</time>
      </trkpt>
      <trkpt lat="41.6462850" lon="1.8454310">
        <ele>219.8</ele>
        <time>2022-06-28T16:58:14Z</time>
      </trkpt>
      <trkpt lat="41.6462870" lon="1.8455270">
        <ele>220.0</ele>
        <time>2022-06-28T16:58:15Z</time>
      </trkpt>
      <trkpt lat="41.6463170" lon="1.8457200">
        <ele>219.8</ele>
        <time>2022-06-28T16:58:17Z</time>
      </trkpt>
      <trkpt lat="41.6463420" lon="1.8458170">
        <ele>219.8</ele>
        <time>2022-06-28T16:58:18Z</time>
      </trkpt>
      <trkpt lat="41.6463730" lon="1.8459120">
        <ele>219.6</ele>
        <time>2022-06-28T16:58:19Z</time>
      </trkpt>
      <trkpt lat="41.6465090" lon="1.8462000">
        <ele>218.8</ele>
        <time>2022-06-28T16:58:22Z</time>
      </trkpt>
      <trkpt lat="41.6465480" lon="1.8463070">
        <ele>218.6</ele>
        <time>2022-06-28T16:58:23Z</time>
      </trkpt>
      <trkpt lat="41.6466320" lon="1.8466460">
        <ele>217.6</ele>
        <time>2022-06-28T16:58:26Z</time>
      </trkpt>
      <trkpt lat="41.6467220" lon="1.8469930">
        <ele>216.2</ele>
        <time>2022-06-28T16:58:29Z</time>
      </trkpt>
      <trkpt lat="41.6468550" lon="1.8474920">
        <ele>215.4</ele>
        <time>2022-06-28T16:58:33Z</time>
      </trkpt>
      <trkpt lat="41.6469000" lon="1.8476210">
        <ele>215.2</ele>
        <time>2022-06-28T16:58:34Z</time>
      </trkpt>
      <trkpt lat="41.6470150" lon="1.8478500">
        <ele>214.4</ele>
        <time>2022-06-28T16:58:36Z</time>
      </trkpt>
      <trkpt lat="41.6470910" lon="1.8479450">
        <ele>213.8</ele>
        <time>2022-06-28T16:58:37Z</time>
      </trkpt>
      <trkpt lat="41.6471660" lon="1.8480380">
        <ele>213.4</ele>
        <time>2022-06-28T16:58:38Z</time>
      </trkpt>
      <trkpt lat="41.6472200" lon="1.8481410">
        <ele>212.6</ele>
        <time>2022-06-28T16:58:39Z</time>
      </trkpt>
      <trkpt lat="41.6472480" lon="1.8482540">
        <ele>212.4</ele>
        <time>2022-06-28T16:58:40Z</time>
      </trkpt>
      <trkpt lat="41.6472480" lon="1.8483740">
        <ele>212.0</ele>
        <time>2022-06-28T16:58:41Z</time>
      </trkpt>
      <trkpt lat="41.6472200" lon="1.8484900">
        <ele>211.8</ele>
        <time>2022-06-28T16:58:42Z</time>
      </trkpt>
      <trkpt lat="41.6471770" lon="1.8485940">
        <ele>211.2</ele>
        <time>2022-06-28T16:58:43Z</time>
      </trkpt>
      <trkpt lat="41.6471320" lon="1.8486950">
        <ele>210.8</ele>
        <time>2022-06-28T16:58:44Z</time>
      </trkpt>
      <trkpt lat="41.6470280" lon="1.8489900">
        <ele>210.4</ele>
        <time>2022-06-28T16:58:47Z</time>
      </trkpt>
      <trkpt lat="41.6470040" lon="1.8491020">
        <ele>210.2</ele>
        <time>2022-06-28T16:58:48Z</time>
      </trkpt>
      <trkpt lat="41.6469630" lon="1.8493310">
        <ele>210.0</ele>
        <time>2022-06-28T16:58:50Z</time>
      </trkpt>
      <trkpt lat="41.6468430" lon="1.8500640">
        <ele>210.0</ele>
        <time>2022-06-28T16:58:56Z</time>
      </trkpt>
      <trkpt lat="41.6468290" lon="1.8501840">
        <ele>210.0</ele>
        <time>2022-06-28T16:58:57Z</time>
      </trkpt>
      <trkpt lat="41.6468200" lon="1.8503060">
        <ele>209.8</ele>
        <time>2022-06-28T16:58:58Z</time>
      </trkpt>
      <trkpt lat="41.6468340" lon="1.8505490">
        <ele>209.6</ele>
        <time>2022-06-28T16:59:00Z</time>
      </trkpt>
      <trkpt lat="41.6468560" lon="1.8506450">
        <ele>209.6</ele>
        <time>2022-06-28T16:59:01Z</time>
      </trkpt>
      <trkpt lat="41.6469500" lon="1.8508920">
        <ele>209.4</ele>
        <time>2022-06-28T16:59:03Z</time>
      </trkpt>
      <trkpt lat="41.6469710" lon="1.8509780">
        <ele>209.2</ele>
        <time>2022-06-28T16:59:04Z</time>
      </trkpt>
      <trkpt lat="41.6469770" lon="1.8510880">
        <ele>208.4</ele>
        <time>2022-06-28T16:59:05Z</time>
      </trkpt>
      <trkpt lat="41.6469470" lon="1.8511930">
        <ele>208.2</ele>
        <time>2022-06-28T16:59:06Z</time>
      </trkpt>
      <trkpt lat="41.6468130" lon="1.8513180">
        <ele>207.8</ele>
        <time>2022-06-28T16:59:08Z</time>
      </trkpt>
      <trkpt lat="41.6467210" lon="1.8513370">
        <ele>207.2</ele>
        <time>2022-06-28T16:59:09Z</time>
      </trkpt>
      <trkpt lat="41.6465070" lon="1.8513700">
        <ele>205.6</ele>
        <time>2022-06-28T16:59:11Z</time>
      </trkpt>
      <trkpt lat="41.6463230" lon="1.8514720">
        <ele>204.8</ele>
        <time>2022-06-28T16:59:13Z</time>
      </trkpt>
      <trkpt lat="41.6462480" lon="1.8515570">
        <ele>204.4</ele>
        <time>2022-06-28T16:59:14Z</time>
      </trkpt>
      <trkpt lat="41.6461860" lon="1.8516620">
        <ele>204.2</ele>
        <time>2022-06-28T16:59:15Z</time>
      </trkpt>
      <trkpt lat="41.6460860" lon="1.8519030">
        <ele>203.8</ele>
        <time>2022-06-28T16:59:17Z</time>
      </trkpt>
      <trkpt lat="41.6460040" lon="1.8521150">
        <ele>203.4</ele>
        <time>2022-06-28T16:59:19Z</time>
      </trkpt>
      <trkpt lat="41.6457480" lon="1.8527800">
        <ele>203.2</ele>
        <time>2022-06-28T16:59:25Z</time>
      </trkpt>
      <trkpt lat="41.6455880" lon="1.8531750">
        <ele>203.4</ele>
        <time>2022-06-28T16:59:29Z</time>
      </trkpt>
      <trkpt lat="41.6454700" lon="1.8533480">
        <ele>203.2</ele>
        <time>2022-06-28T16:59:31Z</time>
      </trkpt>
      <trkpt lat="41.6453370" lon="1.8535010">
        <ele>202.8</ele>
        <time>2022-06-28T16:59:33Z</time>
      </trkpt>
      <trkpt lat="41.6451720" lon="1.8536160">
        <ele>202.2</ele>
        <time>2022-06-28T16:59:35Z</time>
      </trkpt>
      <trkpt lat="41.6448470" lon="1.8538450">
        <ele>201.4</ele>
        <time>2022-06-28T16:59:39Z</time>
      </trkpt>
      <trkpt lat="41.6447580" lon="1.8539070">
        <ele>201.0</ele>
        <time>2022-06-28T16:59:40Z</time>
      </trkpt>
      <trkpt lat="41.6444940" lon="1.8540960">
        <ele>199.8</ele>
        <time>2022-06-28T16:59:43Z</time>
      </trkpt>
      <trkpt lat="41.6442100" lon="1.8542860">
        <ele>199.2</ele>
        <time>2022-06-28T16:59:46Z</time>
      </trkpt>
      <trkpt lat="41.6441330" lon="1.8543410">
        <ele>198.4</ele>
        <time>2022-06-28T16:59:47Z</time>
      </trkpt>
      <trkpt lat="41.6437300" lon="1.8546820">
        <ele>197.0</ele>
        <time>2022-06-28T16:59:51Z</time>
      </trkpt>
      <trkpt lat="41.6434810" lon="1.8550310">
        <ele>195.6</ele>
        <time>2022-06-28T16:59:54Z</time>
      </trkpt>
      <trkpt lat="41.6433960" lon="1.8551550">
        <ele>195.4</ele>
        <time>2022-06-28T16:59:55Z</time>
      </trkpt>
      <trkpt lat="41.6432960" lon="1.8552700">
        <ele>194.6</ele>
        <time>2022-06-28T16:59:56Z</time>
      </trkpt>
      <trkpt lat="41.6431850" lon="1.8553730">
        <ele>193.8</ele>
        <time>2022-06-28T16:59:57Z</time>
      </trkpt>
      <trkpt lat="41.6430760" lon="1.8554680">
        <ele>193.4</ele>
        <time>2022-06-28T16:59:58Z</time>
      </trkpt>
      <trkpt lat="41.6429660" lon="1.8555610">
        <ele>192.8</ele>
        <time>2022-06-28T16:59:59Z</time>
      </trkpt>
      <trkpt lat="41.6427680" lon="1.8557350">
        <ele>190.4</ele>
        <time>2022-06-28T17:00:01Z</time>
      </trkpt>
      <trkpt lat="41.6425540" lon="1.8559750">
        <ele>189.2</ele>
        <time>2022-06-28T17:00:03Z</time>
      </trkpt>
      <trkpt lat="41.6423720" lon="1.8562250">
        <ele>187.8</ele>
        <time>2022-06-28T17:00:05Z</time>
      </trkpt>
      <trkpt lat="41.6422050" lon="1.8565000">
        <ele>187.0</ele>
        <time>2022-06-28T17:00:07Z</time>
      </trkpt>
      <trkpt lat="41.6421220" lon="1.8566290">
        <ele>186.2</ele>
        <time>2022-06-28T17:00:08Z</time>
      </trkpt>
      <trkpt lat="41.6419640" lon="1.8568410">
        <ele>184.8</ele>
        <time>2022-06-28T17:00:10Z</time>
      </trkpt>
      <trkpt lat="41.6417690" lon="1.8570670">
        <ele>183.8</ele>
        <time>2022-06-28T17:00:12Z</time>
      </trkpt>
      <trkpt lat="41.6416870" lon="1.8571600">
        <ele>183.0</ele>
        <time>2022-06-28T17:00:13Z</time>
      </trkpt>
      <trkpt lat="41.6416100" lon="1.8572410">
        <ele>182.6</ele>
        <time>2022-06-28T17:00:14Z</time>
      </trkpt>
      <trkpt lat="41.6415340" lon="1.8573210">
        <ele>181.6</ele>
        <time>2022-06-28T17:00:15Z</time>
      </trkpt>
      <trkpt lat="41.6414550" lon="1.8574100">
        <ele>181.2</ele>
        <time>2022-06-28T17:00:16Z</time>
      </trkpt>
      <trkpt lat="41.6412870" lon="1.8575720">
        <ele>180.2</ele>
        <time>2022-06-28T17:00:18Z</time>
      </trkpt>
      <trkpt lat="41.6411060" lon="1.8576890">
        <ele>179.6</ele>
        <time>2022-06-28T17:00:20Z</time>
      </trkpt>
      <trkpt lat="41.6408980" lon="1.8577230">
        <ele>179.2</ele>
        <time>2022-06-28T17:00:22Z</time>
      </trkpt>
      <trkpt lat="41.6407950" lon="1.8577320">
        <ele>178.8</ele>
        <time>2022-06-28T17:00:23Z</time>
      </trkpt>
      <trkpt lat="41.6406010" lon="1.8577550">
        <ele>177.6</ele>
        <time>2022-06-28T17:00:25Z</time>
      </trkpt>
      <trkpt lat="41.6403310" lon="1.8577840">
        <ele>176.6</ele>
        <time>2022-06-28T17:00:28Z</time>
      </trkpt>
      <trkpt lat="41.6402450" lon="1.8577920">
        <ele>176.2</ele>
        <time>2022-06-28T17:00:29Z</time>
      </trkpt>
      <trkpt lat="41.6396860" lon="1.8578360">
        <ele>176.0</ele>
        <time>2022-06-28T17:00:36Z</time>
      </trkpt>
      <trkpt lat="41.6395320" lon="1.8577790">
        <ele>176.0</ele>
        <time>2022-06-28T17:00:38Z</time>
      </trkpt>
      <trkpt lat="41.6394650" lon="1.8577210">
        <ele>176.0</ele>
        <time>2022-06-28T17:00:39Z</time>
      </trkpt>
      <trkpt lat="41.6394120" lon="1.8576360">
        <ele>176.0</ele>
        <time>2022-06-28T17:00:40Z</time>
      </trkpt>
      <trkpt lat="41.6393650" lon="1.8574470">
        <ele>175.8</ele>
        <time>2022-06-28T17:00:42Z</time>
      </trkpt>
      <trkpt lat="41.6393030" lon="1.8569490">
        <ele>174.6</ele>
        <time>2022-06-28T17:00:46Z</time>
      </trkpt>
      <trkpt lat="41.6392730" lon="1.8568670">
        <ele>174.4</ele>
        <time>2022-06-28T17:00:47Z</time>
      </trkpt>
      <trkpt lat="41.6391620" lon="1.8566800">
        <ele>174.0</ele>
        <time>2022-06-28T17:00:49Z</time>
      </trkpt>
      <trkpt lat="41.6391080" lon="1.8566270">
        <ele>173.4</ele>
        <time>2022-06-28T17:00:50Z</time>
      </trkpt>
      <trkpt lat="41.6389380" lon="1.8564210">
        <ele>172.2</ele>
        <time>2022-06-28T17:00:53Z</time>
      </trkpt>
      <trkpt lat="41.6388970" lon="1.8563480">
        <ele>172.0</ele>
        <time>2022-06-28T17:00:54Z</time>
      </trkpt>
      <trkpt lat="41.6388230" lon="1.8562100">
        <ele>172.0</ele>
        <time>2022-06-28T17:00:56Z</time>
      </trkpt>
      <trkpt lat="41.6387700" lon="1.8560840">
        <ele>172.2</ele>
        <time>2022-06-28T17:00:58Z</time>
      </trkpt>
      <trkpt lat="41.6387480" lon="1.8560250">
        <ele>172.4</ele>
        <time>2022-06-28T17:00:59Z</time>
      </trkpt>
      <trkpt lat="41.6387010" lon="1.8558640">
        <ele>173.4</ele>
        <time>2022-06-28T17:01:02Z</time>
      </trkpt>
      <trkpt lat="41.6386900" lon="1.8558160">
        <ele>173.8</ele>
        <time>2022-06-28T17:01:03Z</time>
      </trkpt>
      <trkpt lat="41.6386490" lon="1.8556350">
        <ele>174.6</ele>
        <time>2022-06-28T17:01:07Z</time>
      </trkpt>
      <trkpt lat="41.6386290" lon="1.8555550">
        <ele>175.2</ele>
        <time>2022-06-28T17:01:09Z</time>
      </trkpt>
      <trkpt lat="41.6386070" lon="1.8554800">
        <ele>175.8</ele>
        <time>2022-06-28T17:01:11Z</time>
      </trkpt>
      <trkpt lat="41.6385570" lon="1.8553600">
        <ele>177.2</ele>
        <time>2022-06-28T17:01:14Z</time>
      </trkpt>
      <trkpt lat="41.6385430" lon="1.8553270">
        <ele>177.4</ele>
        <time>2022-06-28T17:01:15Z</time>
      </trkpt>
      <trkpt lat="41.6384490" lon="1.8551170">
        <ele>178.4</ele>
        <time>2022-06-28T17:01:20Z</time>
      </trkpt>
      <trkpt lat="41.6384230" lon="1.8550720">
        <ele>178.4</ele>
        <time>2022-06-28T17:01:21Z</time>
      </trkpt>
      <trkpt lat="41.6382940" lon="1.8549150">
        <ele>179.6</ele>
        <time>2022-06-28T17:01:26Z</time>
      </trkpt>
      <trkpt lat="41.6382630" lon="1.8548900">
        <ele>179.8</ele>
        <time>2022-06-28T17:01:27Z</time>
      </trkpt>
      <trkpt lat="41.6381240" lon="1.8547930">
        <ele>180.8</ele>
        <time>2022-06-28T17:01:31Z</time>
      </trkpt>
      <trkpt lat="41.6380170" lon="1.8547190">
        <ele>181.2</ele>
        <time>2022-06-28T17:01:34Z</time>
      </trkpt>
      <trkpt lat="41.6379460" lon="1.8546780">
        <ele>182.0</ele>
        <time>2022-06-28T17:01:36Z</time>
      </trkpt>
      <trkpt lat="41.6377730" lon="1.8545480">
        <ele>182.8</ele>
        <time>2022-06-28T17:01:41Z</time>
      </trkpt>
      <trkpt lat="41.6377380" lon="1.8545260">
        <ele>183.0</ele>
        <time>2022-06-28T17:01:42Z</time>
      </trkpt>
      <trkpt lat="41.6375690" lon="1.8544260">
        <ele>184.2</ele>
        <time>2022-06-28T17:01:47Z</time>
      </trkpt>
      <trkpt lat="41.6374970" lon="1.8544000">
        <ele>184.6</ele>
        <time>2022-06-28T17:01:49Z</time>
      </trkpt>
      <trkpt lat="41.6373110" lon="1.8543320">
        <ele>185.6</ele>
        <time>2022-06-28T17:01:54Z</time>
      </trkpt>
      <trkpt lat="41.6372380" lon="1.8543090">
        <ele>185.8</ele>
        <time>2022-06-28T17:01:56Z</time>
      </trkpt>
      <trkpt lat="41.6370880" lon="1.8542540">
        <ele>186.6</ele>
        <time>2022-06-28T17:02:00Z</time>
      </trkpt>
      <trkpt lat="41.6370200" lon="1.8542310">
        <ele>187.0</ele>
        <time>2022-06-28T17:02:02Z</time>
      </trkpt>
      <trkpt lat="41.6368660" lon="1.8541820">
        <ele>187.6</ele>
        <time>2022-06-28T17:02:06Z</time>
      </trkpt>
      <trkpt lat="41.6368280" lon="1.8541650">
        <ele>187.6</ele>
        <time>2022-06-28T17:02:07Z</time>
      </trkpt>
      <trkpt lat="41.6367460" lon="1.8541370">
        <ele>188.0</ele>
        <time>2022-06-28T17:02:09Z</time>
      </trkpt>
      <trkpt lat="41.6363470" lon="1.8540620">
        <ele>188.6</ele>
        <time>2022-06-28T17:02:18Z</time>
      </trkpt>
      <trkpt lat="41.6360160" lon="1.8540540">
        <ele>188.6</ele>
        <time>2022-06-28T17:02:24Z</time>
      </trkpt>
      <trkpt lat="41.6355010" lon="1.8540600">
        <ele>187.8</ele>
        <time>2022-06-28T17:02:32Z</time>
      </trkpt>
      <trkpt lat="41.6349770" lon="1.8540370">
        <ele>187.6</ele>
        <time>2022-06-28T17:02:40Z</time>
      </trkpt>
      <trkpt lat="41.6345160" lon="1.8539430">
        <ele>187.6</ele>
        <time>2022-06-28T17:02:47Z</time>
      </trkpt>
      <trkpt lat="41.6344580" lon="1.8539200">
        <ele>187.4</ele>
        <time>2022-06-28T17:02:48Z</time>
      </trkpt>
      <trkpt lat="41.6342870" lon="1.8538460">
        <ele>187.6</ele>
        <time>2022-06-28T17:02:51Z</time>
      </trkpt>
      <trkpt lat="41.6338420" lon="1.8536570">
        <ele>188.4</ele>
        <time>2022-06-28T17:02:59Z</time>
      </trkpt>
      <trkpt lat="41.6337770" lon="1.8536320">
        <ele>188.8</ele>
        <time>2022-06-28T17:03:00Z</time>
      </trkpt>
      <trkpt lat="41.6334760" lon="1.8535050">
        <ele>189.8</ele>
        <time>2022-06-28T17:03:06Z</time>
      </trkpt>
      <trkpt lat="41.6333740" lon="1.8534690">
        <ele>190.2</ele>
        <time>2022-06-28T17:03:08Z</time>
      </trkpt>
      <trkpt lat="41.6332650" lon="1.8534410">
        <ele>190.4</ele>
        <time>2022-06-28T17:03:10Z</time>
      </trkpt>
      <trkpt lat="41.6331570" lon="1.8534380">
        <ele>190.8</ele>
        <time>2022-06-28T17:03:12Z</time>
      </trkpt>
      <trkpt lat="41.6330490" lon="1.8534480">
        <ele>191.2</ele>
        <time>2022-06-28T17:03:14Z</time>
      </trkpt>
      <trkpt lat="41.6329340" lon="1.8534810">
        <ele>191.6</ele>
        <time>2022-06-28T17:03:16Z</time>
      </trkpt>
      <trkpt lat="41.6328640" lon="1.8535070">
        <ele>191.8</ele>
        <time>2022-06-28T17:03:17Z</time>
      </trkpt>
      <trkpt lat="41.6327120" lon="1.8535980">
        <ele>192.2</ele>
        <time>2022-06-28T17:03:20Z</time>
      </trkpt>
      <trkpt lat="41.6326480" lon="1.8536380">
        <ele>192.4</ele>
        <time>2022-06-28T17:03:21Z</time>
      </trkpt>
      <trkpt lat="41.6325570" lon="1.8537070">
        <ele>192.6</ele>
        <time>2022-06-28T17:03:23Z</time>
      </trkpt>
      <trkpt lat="41.6324540" lon="1.8537890">
        <ele>192.6</ele>
        <time>2022-06-28T17:03:25Z</time>
      </trkpt>
      <trkpt lat="41.6323870" lon="1.8538310">
        <ele>192.6</ele>
        <time>2022-06-28T17:03:26Z</time>
      </trkpt>
      <trkpt lat="41.6319490" lon="1.8541690">
        <ele>192.2</ele>
        <time>2022-06-28T17:03:34Z</time>
      </trkpt>
      <trkpt lat="41.6314350" lon="1.8545500">
        <ele>192.0</ele>
        <time>2022-06-28T17:03:43Z</time>
      </trkpt>
      <trkpt lat="41.6311820" lon="1.8548570">
        <ele>191.6</ele>
        <time>2022-06-28T17:03:48Z</time>
      </trkpt>
      <trkpt lat="41.6310520" lon="1.8550650">
        <ele>191.4</ele>
        <time>2022-06-28T17:03:51Z</time>
      </trkpt>
      <trkpt lat="41.6307710" lon="1.8555430">
        <ele>191.0</ele>
        <time>2022-06-28T17:03:58Z</time>
      </trkpt>
      <trkpt lat="41.6305940" lon="1.8559780">
        <ele>190.8</ele>
        <time>2022-06-28T17:04:04Z</time>
      </trkpt>
      <trkpt lat="41.6304580" lon="1.8563490">
        <ele>190.8</ele>
        <time>2022-06-28T17:04:09Z</time>
      </trkpt>
      <trkpt lat="41.6304290" lon="1.8564040">
        <ele>190.8</ele>
        <time>2022-06-28T17:04:10Z</time>
      </trkpt>
      <trkpt lat="41.6303310" lon="1.8566340">
        <ele>190.4</ele>
        <time>2022-06-28T17:04:13Z</time>
      </trkpt>
      <trkpt lat="41.6301770" lon="1.8569780">
        <ele>189.8</ele>
        <time>2022-06-28T17:04:17Z</time>
      </trkpt>
      <trkpt lat="41.6300950" lon="1.8571540">
        <ele>189.4</ele>
        <time>2022-06-28T17:04:19Z</time>
      </trkpt>
      <trkpt lat="41.6299420" lon="1.8574980">
        <ele>188.4</ele>
        <time>2022-06-28T17:04:23Z</time>
      </trkpt>
      <trkpt lat="41.6298920" lon="1.8576020">
        <ele>188.4</ele>
        <time>2022-06-28T17:04:24Z</time>
      </trkpt>
      <trkpt lat="41.6297040" lon="1.8580180">
        <ele>187.4</ele>
        <time>2022-06-28T17:04:29Z</time>
      </trkpt>
      <trkpt lat="41.6296760" lon="1.8581120">
        <ele>187.2</ele>
        <time>2022-06-28T17:04:30Z</time>
      </trkpt>
      <trkpt lat="41.6296350" lon="1.8583010">
        <ele>187.0</ele>
        <time>2022-06-28T17:04:32Z</time>
      </trkpt>
      <trkpt lat="41.6296200" lon="1.8584910">
        <ele>186.8</ele>
        <time>2022-06-28T17:04:34Z</time>
      </trkpt>
      <trkpt lat="41.6296060" lon="1.8585870">
        <ele>186.6</ele>
        <time>2022-06-28T17:04:35Z</time>
      </trkpt>
      <trkpt lat="41.6295730" lon="1.8587780">
        <ele>186.2</ele>
        <time>2022-06-28T17:04:37Z</time>
      </trkpt>
      <trkpt lat="41.6295590" lon="1.8588950">
        <ele>186.2</ele>
        <time>2022-06-28T17:04:38Z</time>
      </trkpt>
      <trkpt lat="41.6294070" lon="1.8596730">
        <ele>185.2</ele>
        <time>2022-06-28T17:04:46Z</time>
      </trkpt>
      <trkpt lat="41.6292840" lon="1.8602440">
        <ele>184.0</ele>
        <time>2022-06-28T17:04:52Z</time>
      </trkpt>
      <trkpt lat="41.6291650" lon="1.8606470">
        <ele>183.4</ele>
        <time>2022-06-28T17:04:57Z</time>
      </trkpt>
      <trkpt lat="41.6291020" lon="1.8609160">
        <ele>183.0</ele>
        <time>2022-06-28T17:05:01Z</time>
      </trkpt>
      <trkpt lat="41.6290760" lon="1.8609880">
        <ele>183.0</ele>
        <time>2022-06-28T17:05:02Z</time>
      </trkpt>
      <trkpt lat="41.6290410" lon="1.8611330">
        <ele>183.0</ele>
        <time>2022-06-28T17:05:04Z</time>
      </trkpt>
      <trkpt lat="41.6289710" lon="1.8614300">
        <ele>183.0</ele>
        <time>2022-06-28T17:05:08Z</time>
      </trkpt>
      <trkpt lat="41.6289410" lon="1.8615070">
        <ele>183.0</ele>
        <time>2022-06-28T17:05:09Z</time>
      </trkpt>
      <trkpt lat="41.6289170" lon="1.8615900">
        <ele>183.0</ele>
        <time>2022-06-28T17:05:10Z</time>
      </trkpt>
      <trkpt lat="41.6288370" lon="1.8618580">
        <ele>183.0</ele>
        <time>2022-06-28T17:05:13Z</time>
      </trkpt>
      <trkpt lat="41.6287450" lon="1.8623210">
        <ele>182.6</ele>
        <time>2022-06-28T17:05:19Z</time>
      </trkpt>
      <trkpt lat="41.6287170" lon="1.8625080">
        <ele>182.6</ele>
        <time>2022-06-28T17:05:22Z</time>
      </trkpt>
      <trkpt lat="41.6286980" lon="1.8626210">
        <ele>182.6</ele>
        <time>2022-06-28T17:05:24Z</time>
      </trkpt>
      <trkpt lat="41.6286770" lon="1.8626860">
        <ele>183.2</ele>
        <time>2022-06-28T17:05:27Z</time>
      </trkpt>
      <trkpt lat="41.6286530" lon="1.8627530">
        <ele>183.6</ele>
        <time>2022-06-28T17:05:33Z</time>
      </trkpt>
      <trkpt lat="41.6286100" lon="1.8628500">
        <ele>183.8</ele>
        <time>2022-06-28T17:21:34Z</time>
      </trkpt>
      <trkpt lat="41.6285810" lon="1.8629570">
        <ele>184.0</ele>
        <time>2022-06-28T17:21:37Z</time>
      </trkpt>
      <trkpt lat="41.6285580" lon="1.8632520">
        <ele>184.6</ele>
        <time>2022-06-28T17:21:44Z</time>
      </trkpt>
      <trkpt lat="41.6286100" lon="1.8634870">
        <ele>184.8</ele>
        <time>2022-06-28T17:21:49Z</time>
      </trkpt>
      <trkpt lat="41.6287020" lon="1.8635960">
        <ele>185.2</ele>
        <time>2022-06-28T17:21:52Z</time>
      </trkpt>
      <trkpt lat="41.6287370" lon="1.8636220">
        <ele>185.2</ele>
        <time>2022-06-28T17:21:53Z</time>
      </trkpt>
      <trkpt lat="41.6289700" lon="1.8637800">
        <ele>185.6</ele>
        <time>2022-06-28T17:21:59Z</time>
      </trkpt>
      <trkpt lat="41.6290110" lon="1.8638900">
        <ele>185.8</ele>
        <time>2022-06-28T17:22:01Z</time>
      </trkpt>
      <trkpt lat="41.6290210" lon="1.8639380">
        <ele>186.0</ele>
        <time>2022-06-28T17:22:02Z</time>
      </trkpt>
      <trkpt lat="41.6290310" lon="1.8640550">
        <ele>186.2</ele>
        <time>2022-06-28T17:22:04Z</time>
      </trkpt>
      <trkpt lat="41.6289920" lon="1.8641690">
        <ele>186.4</ele>
        <time>2022-06-28T17:22:06Z</time>
      </trkpt>
      <trkpt lat="41.6288070" lon="1.8646210">
        <ele>187.2</ele>
        <time>2022-06-28T17:22:14Z</time>
      </trkpt>
      <trkpt lat="41.6287860" lon="1.8646790">
        <ele>187.2</ele>
        <time>2022-06-28T17:22:15Z</time>
      </trkpt>
      <trkpt lat="41.6286710" lon="1.8649720">
        <ele>187.0</ele>
        <time>2022-06-28T17:22:20Z</time>
      </trkpt>
      <trkpt lat="41.6284630" lon="1.8654500">
        <ele>186.6</ele>
        <time>2022-06-28T17:22:28Z</time>
      </trkpt>
      <trkpt lat="41.6282200" lon="1.8658450">
        <ele>187.0</ele>
        <time>2022-06-28T17:22:35Z</time>
      </trkpt>
      <trkpt lat="41.6281490" lon="1.8659410">
        <ele>187.2</ele>
        <time>2022-06-28T17:22:37Z</time>
      </trkpt>
      <trkpt lat="41.6280210" lon="1.8661310">
        <ele>187.4</ele>
        <time>2022-06-28T17:22:41Z</time>
      </trkpt>
      <trkpt lat="41.6279270" lon="1.8662910">
        <ele>188.0</ele>
        <time>2022-06-28T17:22:44Z</time>
      </trkpt>
      <trkpt lat="41.6276930" lon="1.8666840">
        <ele>188.0</ele>
        <time>2022-06-28T17:22:50Z</time>
      </trkpt>
      <trkpt lat="41.6273730" lon="1.8671740">
        <ele>186.4</ele>
        <time>2022-06-28T17:22:56Z</time>
      </trkpt>
      <trkpt lat="41.6273160" lon="1.8672660">
        <ele>185.8</ele>
        <time>2022-06-28T17:22:57Z</time>
      </trkpt>
      <trkpt lat="41.6272620" lon="1.8673690">
        <ele>185.6</ele>
        <time>2022-06-28T17:22:58Z</time>
      </trkpt>
      <trkpt lat="41.6271730" lon="1.8675970">
        <ele>185.0</ele>
        <time>2022-06-28T17:23:00Z</time>
      </trkpt>
      <trkpt lat="41.6271300" lon="1.8677150">
        <ele>184.4</ele>
        <time>2022-06-28T17:23:01Z</time>
      </trkpt>
      <trkpt lat="41.6270830" lon="1.8678320">
        <ele>184.0</ele>
        <time>2022-06-28T17:23:02Z</time>
      </trkpt>
      <trkpt lat="41.6269510" lon="1.8680340">
        <ele>182.8</ele>
        <time>2022-06-28T17:23:04Z</time>
      </trkpt>
      <trkpt lat="41.6267730" lon="1.8681770">
        <ele>181.4</ele>
        <time>2022-06-28T17:23:06Z</time>
      </trkpt>
      <trkpt lat="41.6266770" lon="1.8682380">
        <ele>180.8</ele>
        <time>2022-06-28T17:23:07Z</time>
      </trkpt>
      <trkpt lat="41.6264770" lon="1.8683540">
        <ele>179.8</ele>
        <time>2022-06-28T17:23:09Z</time>
      </trkpt>
      <trkpt lat="41.6261890" lon="1.8685310">
        <ele>178.6</ele>
        <time>2022-06-28T17:23:12Z</time>
      </trkpt>
      <trkpt lat="41.6260940" lon="1.8685870">
        <ele>177.8</ele>
        <time>2022-06-28T17:23:13Z</time>
      </trkpt>
      <trkpt lat="41.6259990" lon="1.8686380">
        <ele>177.2</ele>
        <time>2022-06-28T17:23:14Z</time>
      </trkpt>
      <trkpt lat="41.6257010" lon="1.8687520">
        <ele>175.8</ele>
        <time>2022-06-28T17:23:17Z</time>
      </trkpt>
      <trkpt lat="41.6255970" lon="1.8687570">
        <ele>174.6</ele>
        <time>2022-06-28T17:23:18Z</time>
      </trkpt>
      <trkpt lat="41.6254830" lon="1.8687350">
        <ele>174.4</ele>
        <time>2022-06-28T17:23:19Z</time>
      </trkpt>
      <trkpt lat="41.6253750" lon="1.8686930">
        <ele>173.4</ele>
        <time>2022-06-28T17:23:20Z</time>
      </trkpt>
      <trkpt lat="41.6252520" lon="1.8686340">
        <ele>172.2</ele>
        <time>2022-06-28T17:23:21Z</time>
      </trkpt>
      <trkpt lat="41.6250660" lon="1.8685480">
        <ele>171.2</ele>
        <time>2022-06-28T17:23:23Z</time>
      </trkpt>
      <trkpt lat="41.6248580" lon="1.8684580">
        <ele>169.4</ele>
        <time>2022-06-28T17:23:25Z</time>
      </trkpt>
      <trkpt lat="41.6246560" lon="1.8683590">
        <ele>168.2</ele>
        <time>2022-06-28T17:23:27Z</time>
      </trkpt>
      <trkpt lat="41.6245570" lon="1.8683050">
        <ele>167.8</ele>
        <time>2022-06-28T17:23:28Z</time>
      </trkpt>
      <trkpt lat="41.6244550" lon="1.8682570">
        <ele>167.6</ele>
        <time>2022-06-28T17:23:29Z</time>
      </trkpt>
      <trkpt lat="41.6242400" lon="1.8681770">
        <ele>167.2</ele>
        <time>2022-06-28T17:23:31Z</time>
      </trkpt>
      <trkpt lat="41.6241110" lon="1.8681230">
        <ele>166.8</ele>
        <time>2022-06-28T17:23:32Z</time>
      </trkpt>
      <trkpt lat="41.6240120" lon="1.8680670">
        <ele>166.4</ele>
        <time>2022-06-28T17:23:33Z</time>
      </trkpt>
      <trkpt lat="41.6239150" lon="1.8680060">
        <ele>166.0</ele>
        <time>2022-06-28T17:23:34Z</time>
      </trkpt>
      <trkpt lat="41.6236550" lon="1.8678360">
        <ele>165.2</ele>
        <time>2022-06-28T17:23:37Z</time>
      </trkpt>
      <trkpt lat="41.6235550" lon="1.8677660">
        <ele>164.8</ele>
        <time>2022-06-28T17:23:38Z</time>
      </trkpt>
      <trkpt lat="41.6233860" lon="1.8676640">
        <ele>164.2</ele>
        <time>2022-06-28T17:23:40Z</time>
      </trkpt>
      <trkpt lat="41.6233110" lon="1.8676030">
        <ele>164.0</ele>
        <time>2022-06-28T17:23:41Z</time>
      </trkpt>
      <trkpt lat="41.6232530" lon="1.8675540">
        <ele>163.8</ele>
        <time>2022-06-28T17:23:42Z</time>
      </trkpt>
      <trkpt lat="41.6230880" lon="1.8674180">
        <ele>162.2</ele>
        <time>2022-06-28T17:23:44Z</time>
      </trkpt>
      <trkpt lat="41.6229630" lon="1.8673100">
        <ele>161.8</ele>
        <time>2022-06-28T17:23:46Z</time>
      </trkpt>
      <trkpt lat="41.6228870" lon="1.8672290">
        <ele>161.6</ele>
        <time>2022-06-28T17:23:47Z</time>
      </trkpt>
      <trkpt lat="41.6225990" lon="1.8669000">
        <ele>161.6</ele>
        <time>2022-06-28T17:23:52Z</time>
      </trkpt>
      <trkpt lat="41.6222030" lon="1.8664080">
        <ele>162.0</ele>
        <time>2022-06-28T17:23:59Z</time>
      </trkpt>
      <trkpt lat="41.6221600" lon="1.8663520">
        <ele>162.0</ele>
        <time>2022-06-28T17:24:00Z</time>
      </trkpt>
      <trkpt lat="41.6217290" lon="1.8657670">
        <ele>162.0</ele>
        <time>2022-06-28T17:24:08Z</time>
      </trkpt>
      <trkpt lat="41.6216850" lon="1.8656900">
        <ele>162.0</ele>
        <time>2022-06-28T17:24:09Z</time>
      </trkpt>
      <trkpt lat="41.6216450" lon="1.8656290">
        <ele>162.0</ele>
        <time>2022-06-28T17:24:10Z</time>
      </trkpt>
      <trkpt lat="41.6214910" lon="1.8654020">
        <ele>161.8</ele>
        <time>2022-06-28T17:24:13Z</time>
      </trkpt>
      <trkpt lat="41.6212720" lon="1.8650000">
        <ele>161.2</ele>
        <time>2022-06-28T17:24:18Z</time>
      </trkpt>
      <trkpt lat="41.6212310" lon="1.8648230">
        <ele>161.0</ele>
        <time>2022-06-28T17:24:20Z</time>
      </trkpt>
      <trkpt lat="41.6212160" lon="1.8646380">
        <ele>160.8</ele>
        <time>2022-06-28T17:24:22Z</time>
      </trkpt>
      <trkpt lat="41.6212170" lon="1.8644550">
        <ele>160.8</ele>
        <time>2022-06-28T17:24:24Z</time>
      </trkpt>
      <trkpt lat="41.6212470" lon="1.8642810">
        <ele>160.8</ele>
        <time>2022-06-28T17:24:26Z</time>
      </trkpt>
      <trkpt lat="41.6213260" lon="1.8639790">
        <ele>161.0</ele>
        <time>2022-06-28T17:24:30Z</time>
      </trkpt>
      <trkpt lat="41.6213260" lon="1.8638960">
        <ele>161.0</ele>
        <time>2022-06-28T17:24:31Z</time>
      </trkpt>
      <trkpt lat="41.6213060" lon="1.8638020">
        <ele>161.2</ele>
        <time>2022-06-28T17:24:32Z</time>
      </trkpt>
      <trkpt lat="41.6212430" lon="1.8636690">
        <ele>161.2</ele>
        <time>2022-06-28T17:24:34Z</time>
      </trkpt>
      <trkpt lat="41.6212160" lon="1.8636330">
        <ele>161.2</ele>
        <time>2022-06-28T17:24:35Z</time>
      </trkpt>
      <trkpt lat="41.6211510" lon="1.8635830">
        <ele>161.6</ele>
        <time>2022-06-28T17:24:37Z</time>
      </trkpt>
      <trkpt lat="41.6211000" lon="1.8636030">
        <ele>162.4</ele>
        <time>2022-06-28T17:24:39Z</time>
      </trkpt>
      <trkpt lat="41.6210710" lon="1.8636330">
        <ele>162.8</ele>
        <time>2022-06-28T17:24:40Z</time>
      </trkpt>
      <trkpt lat="41.6210360" lon="1.8636730">
        <ele>163.2</ele>
        <time>2022-06-28T17:24:41Z</time>
      </trkpt>
      <trkpt lat="41.6209870" lon="1.8637750">
        <ele>164.4</ele>
        <time>2022-06-28T17:24:43Z</time>
      </trkpt>
      <trkpt lat="41.6209440" lon="1.8638900">
        <ele>165.4</ele>
        <time>2022-06-28T17:24:45Z</time>
      </trkpt>
      <trkpt lat="41.6209340" lon="1.8639290">
        <ele>166.2</ele>
        <time>2022-06-28T17:24:46Z</time>
      </trkpt>
      <trkpt lat="41.6209230" lon="1.8639960">
        <ele>166.6</ele>
        <time>2022-06-28T17:24:47Z</time>
      </trkpt>
      <trkpt lat="41.6209210" lon="1.8641150">
        <ele>167.4</ele>
        <time>2022-06-28T17:24:49Z</time>
      </trkpt>
      <trkpt lat="41.6209300" lon="1.8641720">
        <ele>167.6</ele>
        <time>2022-06-28T17:24:50Z</time>
      </trkpt>
      <trkpt lat="41.6209360" lon="1.8642190">
        <ele>167.8</ele>
        <time>2022-06-28T17:24:51Z</time>
      </trkpt>
      <trkpt lat="41.6209310" lon="1.8642820">
        <ele>168.0</ele>
        <time>2022-06-28T17:24:52Z</time>
      </trkpt>
      <trkpt lat="41.6209050" lon="1.8643650">
        <ele>168.2</ele>
        <time>2022-06-28T17:24:53Z</time>
      </trkpt>
      <trkpt lat="41.6208810" lon="1.8644370">
        <ele>168.4</ele>
        <time>2022-06-28T17:24:54Z</time>
      </trkpt>
      <trkpt lat="41.6208620" lon="1.8644990">
        <ele>168.4</ele>
        <time>2022-06-28T17:24:55Z</time>
      </trkpt>
      <trkpt lat="41.6208420" lon="1.8645850">
        <ele>168.8</ele>
        <time>2022-06-28T17:24:56Z</time>
      </trkpt>
      <trkpt lat="41.6207910" lon="1.8648010">
        <ele>168.6</ele>
        <time>2022-06-28T17:24:59Z</time>
      </trkpt>
      <trkpt lat="41.6205690" lon="1.8653790">
        <ele>168.0</ele>
        <time>2022-06-28T17:25:06Z</time>
      </trkpt>
      <trkpt lat="41.6204600" lon="1.8656490">
        <ele>168.2</ele>
        <time>2022-06-28T17:25:10Z</time>
      </trkpt>
      <trkpt lat="41.6203940" lon="1.8657680">
        <ele>168.6</ele>
        <time>2022-06-28T17:25:12Z</time>
      </trkpt>
      <trkpt lat="41.6202310" lon="1.8660090">
        <ele>169.8</ele>
        <time>2022-06-28T17:25:17Z</time>
      </trkpt>
      <trkpt lat="41.6201930" lon="1.8660500">
        <ele>169.8</ele>
        <time>2022-06-28T17:25:18Z</time>
      </trkpt>
      <trkpt lat="41.6199830" lon="1.8663190">
        <ele>171.0</ele>
        <time>2022-06-28T17:25:24Z</time>
      </trkpt>
      <trkpt lat="41.6196950" lon="1.8665570">
        <ele>172.0</ele>
        <time>2022-06-28T17:25:31Z</time>
      </trkpt>
      <trkpt lat="41.6194170" lon="1.8666700">
        <ele>173.0</ele>
        <time>2022-06-28T17:25:37Z</time>
      </trkpt>
      <trkpt lat="41.6193690" lon="1.8666820">
        <ele>173.0</ele>
        <time>2022-06-28T17:25:38Z</time>
      </trkpt>
      <trkpt lat="41.6193210" lon="1.8666930">
        <ele>173.0</ele>
        <time>2022-06-28T17:25:39Z</time>
      </trkpt>
      <trkpt lat="41.6188520" lon="1.8667590">
        <ele>174.2</ele>
        <time>2022-06-28T17:25:49Z</time>
      </trkpt>
      <trkpt lat="41.6188070" lon="1.8667630">
        <ele>174.6</ele>
        <time>2022-06-28T17:25:50Z</time>
      </trkpt>
      <trkpt lat="41.6185410" lon="1.8667930">
        <ele>175.6</ele>
        <time>2022-06-28T17:25:56Z</time>
      </trkpt>
      <trkpt lat="41.6184940" lon="1.8668010">
        <ele>176.0</ele>
        <time>2022-06-28T17:25:57Z</time>
      </trkpt>
      <trkpt lat="41.6183070" lon="1.8668350">
        <ele>176.8</ele>
        <time>2022-06-28T17:26:01Z</time>
      </trkpt>
      <trkpt lat="41.6182180" lon="1.8668850">
        <ele>177.2</ele>
        <time>2022-06-28T17:26:03Z</time>
      </trkpt>
      <trkpt lat="41.6181780" lon="1.8669170">
        <ele>177.4</ele>
        <time>2022-06-28T17:26:04Z</time>
      </trkpt>
      <trkpt lat="41.6181340" lon="1.8669400">
        <ele>177.6</ele>
        <time>2022-06-28T17:26:05Z</time>
      </trkpt>
      <trkpt lat="41.6179640" lon="1.8670080">
        <ele>178.0</ele>
        <time>2022-06-28T17:26:09Z</time>
      </trkpt>
      <trkpt lat="41.6178870" lon="1.8670430">
        <ele>178.2</ele>
        <time>2022-06-28T17:26:11Z</time>
      </trkpt>
      <trkpt lat="41.6178260" lon="1.8671050">
        <ele>178.2</ele>
        <time>2022-06-28T17:26:13Z</time>
      </trkpt>
      <trkpt lat="41.6178060" lon="1.8671460">
        <ele>178.4</ele>
        <time>2022-06-28T17:26:14Z</time>
      </trkpt>
      <trkpt lat="41.6177910" lon="1.8671890">
        <ele>178.4</ele>
        <time>2022-06-28T17:26:15Z</time>
      </trkpt>
      <trkpt lat="41.6177060" lon="1.8673370">
        <ele>178.8</ele>
        <time>2022-06-28T17:26:19Z</time>
      </trkpt>
      <trkpt lat="41.6176670" lon="1.8674000">
        <ele>179.0</ele>
        <time>2022-06-28T17:26:21Z</time>
      </trkpt>
      <trkpt lat="41.6176000" lon="1.8674840">
        <ele>179.2</ele>
        <time>2022-06-28T17:26:25Z</time>
      </trkpt>
      <trkpt lat="41.6175050" lon="1.8675860">
        <ele>179.6</ele>
        <time>2022-06-28T17:26:30Z</time>
      </trkpt>
      <trkpt lat="41.6173760" lon="1.8678320">
        <ele>180.0</ele>
        <time>2022-06-28T17:26:36Z</time>
      </trkpt>
      <trkpt lat="41.6173280" lon="1.8680600">
        <ele>181.0</ele>
        <time>2022-06-28T17:26:41Z</time>
      </trkpt>
      <trkpt lat="41.6173250" lon="1.8681060">
        <ele>181.4</ele>
        <time>2022-06-28T17:26:42Z</time>
      </trkpt>
      <trkpt lat="41.6173130" lon="1.8682550">
        <ele>182.4</ele>
        <time>2022-06-28T17:26:45Z</time>
      </trkpt>
      <trkpt lat="41.6173020" lon="1.8683980">
        <ele>183.0</ele>
        <time>2022-06-28T17:26:48Z</time>
      </trkpt>
      <trkpt lat="41.6172770" lon="1.8685850">
        <ele>183.6</ele>
        <time>2022-06-28T17:26:52Z</time>
      </trkpt>
      <trkpt lat="41.6172450" lon="1.8688250">
        <ele>184.4</ele>
        <time>2022-06-28T17:26:57Z</time>
      </trkpt>
      <trkpt lat="41.6172360" lon="1.8690670">
        <ele>185.6</ele>
        <time>2022-06-28T17:27:02Z</time>
      </trkpt>
      <trkpt lat="41.6172300" lon="1.8692170">
        <ele>186.0</ele>
        <time>2022-06-28T17:27:05Z</time>
      </trkpt>
      <trkpt lat="41.6171860" lon="1.8694700">
        <ele>186.8</ele>
        <time>2022-06-28T17:27:10Z</time>
      </trkpt>
      <trkpt lat="41.6171660" lon="1.8695670">
        <ele>187.2</ele>
        <time>2022-06-28T17:27:12Z</time>
      </trkpt>
      <trkpt lat="41.6171340" lon="1.8697040">
        <ele>187.8</ele>
        <time>2022-06-28T17:27:15Z</time>
      </trkpt>
      <trkpt lat="41.6170510" lon="1.8698910">
        <ele>188.6</ele>
        <time>2022-06-28T17:27:19Z</time>
      </trkpt>
      <trkpt lat="41.6169730" lon="1.8700110">
        <ele>189.0</ele>
        <time>2022-06-28T17:27:22Z</time>
      </trkpt>
      <trkpt lat="41.6169020" lon="1.8701780">
        <ele>189.6</ele>
        <time>2022-06-28T17:27:26Z</time>
      </trkpt>
      <trkpt lat="41.6168980" lon="1.8702780">
        <ele>190.0</ele>
        <time>2022-06-28T17:27:28Z</time>
      </trkpt>
      <trkpt lat="41.6169200" lon="1.8704250">
        <ele>190.8</ele>
        <time>2022-06-28T17:27:31Z</time>
      </trkpt>
      <trkpt lat="41.6169320" lon="1.8704750">
        <ele>191.0</ele>
        <time>2022-06-28T17:27:32Z</time>
      </trkpt>
      <trkpt lat="41.6170010" lon="1.8707530">
        <ele>191.8</ele>
        <time>2022-06-28T17:27:38Z</time>
      </trkpt>
      <trkpt lat="41.6170370" lon="1.8708770">
        <ele>192.2</ele>
        <time>2022-06-28T17:27:41Z</time>
      </trkpt>
      <trkpt lat="41.6170740" lon="1.8710690">
        <ele>193.2</ele>
        <time>2022-06-28T17:27:45Z</time>
      </trkpt>
      <trkpt lat="41.6170860" lon="1.8711160">
        <ele>193.4</ele>
        <time>2022-06-28T17:27:46Z</time>
      </trkpt>
      <trkpt lat="41.6171330" lon="1.8713630">
        <ele>194.6</ele>
        <time>2022-06-28T17:27:51Z</time>
      </trkpt>
      <trkpt lat="41.6171400" lon="1.8714700">
        <ele>194.8</ele>
        <time>2022-06-28T17:27:53Z</time>
      </trkpt>
      <trkpt lat="41.6171260" lon="1.8717410">
        <ele>195.8</ele>
        <time>2022-06-28T17:27:58Z</time>
      </trkpt>
      <trkpt lat="41.6171130" lon="1.8718400">
        <ele>196.4</ele>
        <time>2022-06-28T17:28:00Z</time>
      </trkpt>
      <trkpt lat="41.6170900" lon="1.8719940">
        <ele>196.8</ele>
        <time>2022-06-28T17:28:03Z</time>
      </trkpt>
      <trkpt lat="41.6170420" lon="1.8722540">
        <ele>197.8</ele>
        <time>2022-06-28T17:28:08Z</time>
      </trkpt>
      <trkpt lat="41.6170140" lon="1.8724160">
        <ele>198.2</ele>
        <time>2022-06-28T17:28:11Z</time>
      </trkpt>
      <trkpt lat="41.6170010" lon="1.8725750">
        <ele>198.8</ele>
        <time>2022-06-28T17:28:14Z</time>
      </trkpt>
      <trkpt lat="41.6169970" lon="1.8728430">
        <ele>199.6</ele>
        <time>2022-06-28T17:28:19Z</time>
      </trkpt>
      <trkpt lat="41.6170020" lon="1.8728940">
        <ele>199.8</ele>
        <time>2022-06-28T17:28:20Z</time>
      </trkpt>
      <trkpt lat="41.6170420" lon="1.8732020">
        <ele>201.0</ele>
        <time>2022-06-28T17:28:26Z</time>
      </trkpt>
      <trkpt lat="41.6170430" lon="1.8732540">
        <ele>201.4</ele>
        <time>2022-06-28T17:28:27Z</time>
      </trkpt>
      <trkpt lat="41.6170060" lon="1.8735580">
        <ele>202.2</ele>
        <time>2022-06-28T17:28:33Z</time>
      </trkpt>
      <trkpt lat="41.6169980" lon="1.8736080">
        <ele>202.4</ele>
        <time>2022-06-28T17:28:34Z</time>
      </trkpt>
      <trkpt lat="41.6169840" lon="1.8738710">
        <ele>203.2</ele>
        <time>2022-06-28T17:28:39Z</time>
      </trkpt>
      <trkpt lat="41.6170090" lon="1.8739660">
        <ele>203.6</ele>
        <time>2022-06-28T17:28:41Z</time>
      </trkpt>
      <trkpt lat="41.6170520" lon="1.8740480">
        <ele>204.2</ele>
        <time>2022-06-28T17:28:43Z</time>
      </trkpt>
      <trkpt lat="41.6171380" lon="1.8741590">
        <ele>205.0</ele>
        <time>2022-06-28T17:28:46Z</time>
      </trkpt>
      <trkpt lat="41.6171940" lon="1.8742350">
        <ele>205.4</ele>
        <time>2022-06-28T17:28:48Z</time>
      </trkpt>
      <trkpt lat="41.6172410" lon="1.8743710">
        <ele>205.8</ele>
        <time>2022-06-28T17:28:51Z</time>
      </trkpt>
      <trkpt lat="41.6172260" lon="1.8745110">
        <ele>206.4</ele>
        <time>2022-06-28T17:28:54Z</time>
      </trkpt>
      <trkpt lat="41.6172050" lon="1.8745970">
        <ele>206.6</ele>
        <time>2022-06-28T17:28:56Z</time>
      </trkpt>
      <trkpt lat="41.6171710" lon="1.8747910">
        <ele>207.4</ele>
        <time>2022-06-28T17:29:00Z</time>
      </trkpt>
      <trkpt lat="41.6171730" lon="1.8748410">
        <ele>207.4</ele>
        <time>2022-06-28T17:29:01Z</time>
      </trkpt>
      <trkpt lat="41.6172280" lon="1.8750210">
        <ele>208.6</ele>
        <time>2022-06-28T17:29:05Z</time>
      </trkpt>
      <trkpt lat="41.6173490" lon="1.8752630">
        <ele>209.6</ele>
        <time>2022-06-28T17:29:11Z</time>
      </trkpt>
      <trkpt lat="41.6173730" lon="1.8753030">
        <ele>209.8</ele>
        <time>2022-06-28T17:29:12Z</time>
      </trkpt>
      <trkpt lat="41.6175340" lon="1.8754920">
        <ele>211.0</ele>
        <time>2022-06-28T17:29:18Z</time>
      </trkpt>
      <trkpt lat="41.6176960" lon="1.8756090">
        <ele>211.8</ele>
        <time>2022-06-28T17:29:23Z</time>
      </trkpt>
      <trkpt lat="41.6177480" lon="1.8756810">
        <ele>212.2</ele>
        <time>2022-06-28T17:29:25Z</time>
      </trkpt>
      <trkpt lat="41.6178130" lon="1.8758980">
        <ele>213.0</ele>
        <time>2022-06-28T17:29:30Z</time>
      </trkpt>
      <trkpt lat="41.6178200" lon="1.8759460">
        <ele>213.2</ele>
        <time>2022-06-28T17:29:31Z</time>
      </trkpt>
      <trkpt lat="41.6178780" lon="1.8761750">
        <ele>214.0</ele>
        <time>2022-06-28T17:29:36Z</time>
      </trkpt>
      <trkpt lat="41.6179230" lon="1.8762530">
        <ele>214.6</ele>
        <time>2022-06-28T17:29:38Z</time>
      </trkpt>
      <trkpt lat="41.6180360" lon="1.8763940">
        <ele>215.2</ele>
        <time>2022-06-28T17:29:42Z</time>
      </trkpt>
      <trkpt lat="41.6180870" lon="1.8764500">
        <ele>215.6</ele>
        <time>2022-06-28T17:29:44Z</time>
      </trkpt>
      <trkpt lat="41.6182280" lon="1.8766020">
        <ele>216.4</ele>
        <time>2022-06-28T17:29:49Z</time>
      </trkpt>
      <trkpt lat="41.6183970" lon="1.8767180">
        <ele>217.6</ele>
        <time>2022-06-28T17:29:54Z</time>
      </trkpt>
      <trkpt lat="41.6185500" lon="1.8768010">
        <ele>218.8</ele>
        <time>2022-06-28T17:29:59Z</time>
      </trkpt>
      <trkpt lat="41.6185970" lon="1.8768450">
        <ele>219.2</ele>
        <time>2022-06-28T17:30:01Z</time>
      </trkpt>
      <trkpt lat="41.6187640" lon="1.8770340">
        <ele>220.0</ele>
        <time>2022-06-28T17:30:07Z</time>
      </trkpt>
      <trkpt lat="41.6187830" lon="1.8770680">
        <ele>220.2</ele>
        <time>2022-06-28T17:30:08Z</time>
      </trkpt>
      <trkpt lat="41.6187820" lon="1.8771930">
        <ele>220.8</ele>
        <time>2022-06-28T17:30:11Z</time>
      </trkpt>
      <trkpt lat="41.6187620" lon="1.8772250">
        <ele>221.0</ele>
        <time>2022-06-28T17:30:12Z</time>
      </trkpt>
      <trkpt lat="41.6186040" lon="1.8772970">
        <ele>221.8</ele>
        <time>2022-06-28T17:30:17Z</time>
      </trkpt>
      <trkpt lat="41.6185750" lon="1.8772960">
        <ele>221.8</ele>
        <time>2022-06-28T17:30:18Z</time>
      </trkpt>
      <trkpt lat="41.6184570" lon="1.8773090">
        <ele>223.2</ele>
        <time>2022-06-28T17:30:22Z</time>
      </trkpt>
      <trkpt lat="41.6184340" lon="1.8773180">
        <ele>223.4</ele>
        <time>2022-06-28T17:30:23Z</time>
      </trkpt>
      <trkpt lat="41.6183660" lon="1.8774210">
        <ele>224.0</ele>
        <time>2022-06-28T17:30:27Z</time>
      </trkpt>
      <trkpt lat="41.6183500" lon="1.8774580">
        <ele>224.2</ele>
        <time>2022-06-28T17:30:28Z</time>
      </trkpt>
      <trkpt lat="41.6182800" lon="1.8776450">
        <ele>225.2</ele>
        <time>2022-06-28T17:30:33Z</time>
      </trkpt>
      <trkpt lat="41.6182300" lon="1.8777170">
        <ele>225.8</ele>
        <time>2022-06-28T17:30:35Z</time>
      </trkpt>
      <trkpt lat="41.6181180" lon="1.8778530">
        <ele>226.4</ele>
        <time>2022-06-28T17:30:39Z</time>
      </trkpt>
      <trkpt lat="41.6179680" lon="1.8779870">
        <ele>227.4</ele>
        <time>2022-06-28T17:30:44Z</time>
      </trkpt>
      <trkpt lat="41.6179360" lon="1.8779940">
        <ele>227.6</ele>
        <time>2022-06-28T17:30:45Z</time>
      </trkpt>
      <trkpt lat="41.6177890" lon="1.8779660">
        <ele>228.4</ele>
        <time>2022-06-28T17:30:49Z</time>
      </trkpt>
      <trkpt lat="41.6177360" lon="1.8779220">
        <ele>228.8</ele>
        <time>2022-06-28T17:30:51Z</time>
      </trkpt>
      <trkpt lat="41.6175980" lon="1.8778010">
        <ele>229.6</ele>
        <time>2022-06-28T17:30:56Z</time>
      </trkpt>
      <trkpt lat="41.6175650" lon="1.8777820">
        <ele>229.8</ele>
        <time>2022-06-28T17:30:57Z</time>
      </trkpt>
      <trkpt lat="41.6173980" lon="1.8777900">
        <ele>230.8</ele>
        <time>2022-06-28T17:31:01Z</time>
      </trkpt>
      <trkpt lat="41.6171450" lon="1.8778730">
        <ele>232.2</ele>
        <time>2022-06-28T17:31:08Z</time>
      </trkpt>
      <trkpt lat="41.6171170" lon="1.8778950">
        <ele>232.4</ele>
        <time>2022-06-28T17:31:09Z</time>
      </trkpt>
      <trkpt lat="41.6170000" lon="1.8780760">
        <ele>233.2</ele>
        <time>2022-06-28T17:31:14Z</time>
      </trkpt>
      <trkpt lat="41.6170050" lon="1.8782850">
        <ele>233.8</ele>
        <time>2022-06-28T17:31:18Z</time>
      </trkpt>
      <trkpt lat="41.6170310" lon="1.8783770">
        <ele>234.4</ele>
        <time>2022-06-28T17:31:20Z</time>
      </trkpt>
      <trkpt lat="41.6170950" lon="1.8785790">
        <ele>234.8</ele>
        <time>2022-06-28T17:31:24Z</time>
      </trkpt>
      <trkpt lat="41.6172380" lon="1.8789720">
        <ele>235.0</ele>
        <time>2022-06-28T17:31:31Z</time>
      </trkpt>
      <trkpt lat="41.6172540" lon="1.8790920">
        <ele>235.0</ele>
        <time>2022-06-28T17:31:33Z</time>
      </trkpt>
      <trkpt lat="41.6172310" lon="1.8792090">
        <ele>235.0</ele>
        <time>2022-06-28T17:31:35Z</time>
      </trkpt>
      <trkpt lat="41.6171690" lon="1.8793170">
        <ele>235.0</ele>
        <time>2022-06-28T17:31:37Z</time>
      </trkpt>
      <trkpt lat="41.6170960" lon="1.8793960">
        <ele>235.0</ele>
        <time>2022-06-28T17:31:39Z</time>
      </trkpt>
      <trkpt lat="41.6168280" lon="1.8796920">
        <ele>235.0</ele>
        <time>2022-06-28T17:31:46Z</time>
      </trkpt>
      <trkpt lat="41.6167760" lon="1.8798170">
        <ele>235.0</ele>
        <time>2022-06-28T17:31:48Z</time>
      </trkpt>
      <trkpt lat="41.6167540" lon="1.8799580">
        <ele>235.0</ele>
        <time>2022-06-28T17:31:50Z</time>
      </trkpt>
      <trkpt lat="41.6167490" lon="1.8800330">
        <ele>235.0</ele>
        <time>2022-06-28T17:31:51Z</time>
      </trkpt>
      <trkpt lat="41.6167460" lon="1.8803470">
        <ele>235.0</ele>
        <time>2022-06-28T17:31:55Z</time>
      </trkpt>
      <trkpt lat="41.6167120" lon="1.8805100">
        <ele>235.2</ele>
        <time>2022-06-28T17:31:57Z</time>
      </trkpt>
      <trkpt lat="41.6166470" lon="1.8806500">
        <ele>235.0</ele>
        <time>2022-06-28T17:31:59Z</time>
      </trkpt>
      <trkpt lat="41.6165010" lon="1.8808960">
        <ele>234.8</ele>
        <time>2022-06-28T17:32:03Z</time>
      </trkpt>
      <trkpt lat="41.6162630" lon="1.8812710">
        <ele>234.6</ele>
        <time>2022-06-28T17:32:09Z</time>
      </trkpt>
      <trkpt lat="41.6162050" lon="1.8814080">
        <ele>234.6</ele>
        <time>2022-06-28T17:32:11Z</time>
      </trkpt>
      <trkpt lat="41.6161890" lon="1.8814870">
        <ele>234.6</ele>
        <time>2022-06-28T17:32:12Z</time>
      </trkpt>
      <trkpt lat="41.6161880" lon="1.8815690">
        <ele>234.6</ele>
        <time>2022-06-28T17:32:13Z</time>
      </trkpt>
      <trkpt lat="41.6162000" lon="1.8816460">
        <ele>234.6</ele>
        <time>2022-06-28T17:32:14Z</time>
      </trkpt>
      <trkpt lat="41.6162510" lon="1.8817930">
        <ele>234.6</ele>
        <time>2022-06-28T17:32:16Z</time>
      </trkpt>
      <trkpt lat="41.6163540" lon="1.8819930">
        <ele>234.6</ele>
        <time>2022-06-28T17:32:19Z</time>
      </trkpt>
      <trkpt lat="41.6165860" lon="1.8823020">
        <ele>234.4</ele>
        <time>2022-06-28T17:32:24Z</time>
      </trkpt>
      <trkpt lat="41.6168820" lon="1.8825130">
        <ele>234.6</ele>
        <time>2022-06-28T17:32:29Z</time>
      </trkpt>
      <trkpt lat="41.6170040" lon="1.8825850">
        <ele>234.4</ele>
        <time>2022-06-28T17:32:31Z</time>
      </trkpt>
      <trkpt lat="41.6171080" lon="1.8826940">
        <ele>234.4</ele>
        <time>2022-06-28T17:32:33Z</time>
      </trkpt>
      <trkpt lat="41.6171390" lon="1.8827670">
        <ele>234.4</ele>
        <time>2022-06-28T17:32:34Z</time>
      </trkpt>
      <trkpt lat="41.6171540" lon="1.8828420">
        <ele>234.4</ele>
        <time>2022-06-28T17:32:35Z</time>
      </trkpt>
      <trkpt lat="41.6171210" lon="1.8829880">
        <ele>234.6</ele>
        <time>2022-06-28T17:32:37Z</time>
      </trkpt>
      <trkpt lat="41.6170260" lon="1.8830910">
        <ele>234.6</ele>
        <time>2022-06-28T17:32:39Z</time>
      </trkpt>
      <trkpt lat="41.6169730" lon="1.8831290">
        <ele>234.6</ele>
        <time>2022-06-28T17:32:40Z</time>
      </trkpt>
      <trkpt lat="41.6167360" lon="1.8832420">
        <ele>234.8</ele>
        <time>2022-06-28T17:32:44Z</time>
      </trkpt>
      <trkpt lat="41.6166000" lon="1.8832400">
        <ele>235.0</ele>
        <time>2022-06-28T17:32:46Z</time>
      </trkpt>
      <trkpt lat="41.6164740" lon="1.8832120">
        <ele>235.0</ele>
        <time>2022-06-28T17:32:48Z</time>
      </trkpt>
      <trkpt lat="41.6163520" lon="1.8832390">
        <ele>235.0</ele>
        <time>2022-06-28T17:32:50Z</time>
      </trkpt>
      <trkpt lat="41.6161870" lon="1.8833610">
        <ele>235.0</ele>
        <time>2022-06-28T17:32:53Z</time>
      </trkpt>
      <trkpt lat="41.6161380" lon="1.8834220">
        <ele>235.0</ele>
        <time>2022-06-28T17:32:54Z</time>
      </trkpt>
      <trkpt lat="41.6160990" lon="1.8834920">
        <ele>235.0</ele>
        <time>2022-06-28T17:32:55Z</time>
      </trkpt>
      <trkpt lat="41.6160610" lon="1.8836590">
        <ele>235.0</ele>
        <time>2022-06-28T17:32:57Z</time>
      </trkpt>
      <trkpt lat="41.6160670" lon="1.8838260">
        <ele>235.4</ele>
        <time>2022-06-28T17:32:59Z</time>
      </trkpt>
      <trkpt lat="41.6160700" lon="1.8839000">
        <ele>235.4</ele>
        <time>2022-06-28T17:33:00Z</time>
      </trkpt>
      <trkpt lat="41.6160630" lon="1.8839730">
        <ele>235.6</ele>
        <time>2022-06-28T17:33:01Z</time>
      </trkpt>
      <trkpt lat="41.6160320" lon="1.8840340">
        <ele>235.6</ele>
        <time>2022-06-28T17:33:02Z</time>
      </trkpt>
      <trkpt lat="41.6159930" lon="1.8840840">
        <ele>235.6</ele>
        <time>2022-06-28T17:33:03Z</time>
      </trkpt>
      <trkpt lat="41.6159420" lon="1.8841230">
        <ele>235.6</ele>
        <time>2022-06-28T17:33:04Z</time>
      </trkpt>
      <trkpt lat="41.6158370" lon="1.8841950">
        <ele>235.8</ele>
        <time>2022-06-28T17:33:06Z</time>
      </trkpt>
      <trkpt lat="41.6155650" lon="1.8844150">
        <ele>236.8</ele>
        <time>2022-06-28T17:33:11Z</time>
      </trkpt>
      <trkpt lat="41.6155200" lon="1.8844670">
        <ele>236.8</ele>
        <time>2022-06-28T17:33:12Z</time>
      </trkpt>
      <trkpt lat="41.6153470" lon="1.8847030">
        <ele>237.6</ele>
        <time>2022-06-28T17:33:16Z</time>
      </trkpt>
      <trkpt lat="41.6152890" lon="1.8848520">
        <ele>237.6</ele>
        <time>2022-06-28T17:33:18Z</time>
      </trkpt>
      <trkpt lat="41.6152500" lon="1.8850170">
        <ele>237.8</ele>
        <time>2022-06-28T17:33:20Z</time>
      </trkpt>
      <trkpt lat="41.6152400" lon="1.8851900">
        <ele>237.8</ele>
        <time>2022-06-28T17:33:22Z</time>
      </trkpt>
      <trkpt lat="41.6152640" lon="1.8853540">
        <ele>237.8</ele>
        <time>2022-06-28T17:33:24Z</time>
      </trkpt>
      <trkpt lat="41.6153200" lon="1.8854970">
        <ele>237.8</ele>
        <time>2022-06-28T17:33:26Z</time>
      </trkpt>
      <trkpt lat="41.6155450" lon="1.8858510">
        <ele>238.0</ele>
        <time>2022-06-28T17:33:32Z</time>
      </trkpt>
      <trkpt lat="41.6156240" lon="1.8859960">
        <ele>238.2</ele>
        <time>2022-06-28T17:33:35Z</time>
      </trkpt>
      <trkpt lat="41.6156850" lon="1.8861220">
        <ele>238.2</ele>
        <time>2022-06-28T17:33:37Z</time>
      </trkpt>
      <trkpt lat="41.6157240" lon="1.8862610">
        <ele>238.4</ele>
        <time>2022-06-28T17:33:39Z</time>
      </trkpt>
      <trkpt lat="41.6157380" lon="1.8864040">
        <ele>238.6</ele>
        <time>2022-06-28T17:33:41Z</time>
      </trkpt>
      <trkpt lat="41.6157090" lon="1.8865440">
        <ele>238.8</ele>
        <time>2022-06-28T17:33:43Z</time>
      </trkpt>
      <trkpt lat="41.6156550" lon="1.8866730">
        <ele>239.0</ele>
        <time>2022-06-28T17:33:45Z</time>
      </trkpt>
      <trkpt lat="41.6155840" lon="1.8867710">
        <ele>239.4</ele>
        <time>2022-06-28T17:33:47Z</time>
      </trkpt>
      <trkpt lat="41.6155140" lon="1.8868590">
        <ele>240.0</ele>
        <time>2022-06-28T17:33:49Z</time>
      </trkpt>
      <trkpt lat="41.6153590" lon="1.8870080">
        <ele>241.2</ele>
        <time>2022-06-28T17:33:53Z</time>
      </trkpt>
      <trkpt lat="41.6153240" lon="1.8870440">
        <ele>241.6</ele>
        <time>2022-06-28T17:33:54Z</time>
      </trkpt>
      <trkpt lat="41.6152570" lon="1.8871210">
        <ele>242.4</ele>
        <time>2022-06-28T17:33:56Z</time>
      </trkpt>
      <trkpt lat="41.6151200" lon="1.8872540">
        <ele>243.6</ele>
        <time>2022-06-28T17:34:00Z</time>
      </trkpt>
      <trkpt lat="41.6149920" lon="1.8873880">
        <ele>244.4</ele>
        <time>2022-06-28T17:34:04Z</time>
      </trkpt>
      <trkpt lat="41.6149630" lon="1.8874290">
        <ele>244.6</ele>
        <time>2022-06-28T17:34:05Z</time>
      </trkpt>
      <trkpt lat="41.6148930" lon="1.8875680">
        <ele>245.4</ele>
        <time>2022-06-28T17:34:08Z</time>
      </trkpt>
      <trkpt lat="41.6148740" lon="1.8876190">
        <ele>245.6</ele>
        <time>2022-06-28T17:34:09Z</time>
      </trkpt>
      <trkpt lat="41.6148610" lon="1.8876720">
        <ele>245.8</ele>
        <time>2022-06-28T17:34:10Z</time>
      </trkpt>
      <trkpt lat="41.6148440" lon="1.8877830">
        <ele>246.0</ele>
        <time>2022-06-28T17:34:12Z</time>
      </trkpt>
      <trkpt lat="41.6148490" lon="1.8879000">
        <ele>246.2</ele>
        <time>2022-06-28T17:34:14Z</time>
      </trkpt>
      <trkpt lat="41.6148660" lon="1.8880170">
        <ele>246.4</ele>
        <time>2022-06-28T17:34:16Z</time>
      </trkpt>
      <trkpt lat="41.6148970" lon="1.8881360">
        <ele>246.6</ele>
        <time>2022-06-28T17:34:18Z</time>
      </trkpt>
      <trkpt lat="41.6149640" lon="1.8883020">
        <ele>246.6</ele>
        <time>2022-06-28T17:34:21Z</time>
      </trkpt>
      <trkpt lat="41.6150990" lon="1.8885280">
        <ele>246.8</ele>
        <time>2022-06-28T17:34:25Z</time>
      </trkpt>
      <trkpt lat="41.6152000" lon="1.8887150">
        <ele>246.6</ele>
        <time>2022-06-28T17:34:28Z</time>
      </trkpt>
      <trkpt lat="41.6153030" lon="1.8889110">
        <ele>246.8</ele>
        <time>2022-06-28T17:34:31Z</time>
      </trkpt>
      <trkpt lat="41.6153740" lon="1.8890420">
        <ele>247.0</ele>
        <time>2022-06-28T17:34:33Z</time>
      </trkpt>
      <trkpt lat="41.6157100" lon="1.8896230">
        <ele>247.4</ele>
        <time>2022-06-28T17:34:42Z</time>
      </trkpt>
      <trkpt lat="41.6157490" lon="1.8896860">
        <ele>247.6</ele>
        <time>2022-06-28T17:34:43Z</time>
      </trkpt>
      <trkpt lat="41.6157880" lon="1.8897490">
        <ele>247.6</ele>
        <time>2022-06-28T17:34:44Z</time>
      </trkpt>
      <trkpt lat="41.6158910" lon="1.8899340">
        <ele>247.6</ele>
        <time>2022-06-28T17:34:47Z</time>
      </trkpt>
      <trkpt lat="41.6159600" lon="1.8900700">
        <ele>247.8</ele>
        <time>2022-06-28T17:34:49Z</time>
      </trkpt>
      <trkpt lat="41.6159840" lon="1.8901440">
        <ele>247.8</ele>
        <time>2022-06-28T17:34:50Z</time>
      </trkpt>
      <trkpt lat="41.6159940" lon="1.8902240">
        <ele>247.8</ele>
        <time>2022-06-28T17:34:51Z</time>
      </trkpt>
      <trkpt lat="41.6159950" lon="1.8904590">
        <ele>248.0</ele>
        <time>2022-06-28T17:34:54Z</time>
      </trkpt>
      <trkpt lat="41.6160060" lon="1.8905360">
        <ele>248.0</ele>
        <time>2022-06-28T17:34:55Z</time>
      </trkpt>
      <trkpt lat="41.6160760" lon="1.8907530">
        <ele>248.2</ele>
        <time>2022-06-28T17:34:58Z</time>
      </trkpt>
      <trkpt lat="41.6163700" lon="1.8913790">
        <ele>248.4</ele>
        <time>2022-06-28T17:35:07Z</time>
      </trkpt>
      <trkpt lat="41.6164040" lon="1.8914500">
        <ele>248.4</ele>
        <time>2022-06-28T17:35:08Z</time>
      </trkpt>
      <trkpt lat="41.6165380" lon="1.8917270">
        <ele>248.6</ele>
        <time>2022-06-28T17:35:12Z</time>
      </trkpt>
      <trkpt lat="41.6167520" lon="1.8922210">
        <ele>249.0</ele>
        <time>2022-06-28T17:35:19Z</time>
      </trkpt>
      <trkpt lat="41.6167160" lon="1.8923620">
        <ele>249.0</ele>
        <time>2022-06-28T17:35:21Z</time>
      </trkpt>
      <trkpt lat="41.6166730" lon="1.8924140">
        <ele>249.0</ele>
        <time>2022-06-28T17:35:22Z</time>
      </trkpt>
      <trkpt lat="41.6166210" lon="1.8924520">
        <ele>249.0</ele>
        <time>2022-06-28T17:35:23Z</time>
      </trkpt>
      <trkpt lat="41.6164930" lon="1.8924970">
        <ele>249.0</ele>
        <time>2022-06-28T17:35:25Z</time>
      </trkpt>
      <trkpt lat="41.6163530" lon="1.8924890">
        <ele>249.0</ele>
        <time>2022-06-28T17:35:27Z</time>
      </trkpt>
      <trkpt lat="41.6163040" lon="1.8924500">
        <ele>249.0</ele>
        <time>2022-06-28T17:35:28Z</time>
      </trkpt>
      <trkpt lat="41.6162620" lon="1.8924000">
        <ele>249.2</ele>
        <time>2022-06-28T17:35:29Z</time>
      </trkpt>
      <trkpt lat="41.6161980" lon="1.8922700">
        <ele>249.2</ele>
        <time>2022-06-28T17:35:31Z</time>
      </trkpt>
      <trkpt lat="41.6160310" lon="1.8918910">
        <ele>249.8</ele>
        <time>2022-06-28T17:35:37Z</time>
      </trkpt>
      <trkpt lat="41.6159860" lon="1.8917590">
        <ele>250.2</ele>
        <time>2022-06-28T17:35:39Z</time>
      </trkpt>
      <trkpt lat="41.6158250" lon="1.8914700">
        <ele>250.8</ele>
        <time>2022-06-28T17:35:44Z</time>
      </trkpt>
      <trkpt lat="41.6157820" lon="1.8914280">
        <ele>250.8</ele>
        <time>2022-06-28T17:35:45Z</time>
      </trkpt>
      <trkpt lat="41.6156540" lon="1.8913140">
        <ele>251.0</ele>
        <time>2022-06-28T17:35:48Z</time>
      </trkpt>
      <trkpt lat="41.6155390" lon="1.8912070">
        <ele>251.2</ele>
        <time>2022-06-28T17:35:51Z</time>
      </trkpt>
      <trkpt lat="41.6153840" lon="1.8910770">
        <ele>252.0</ele>
        <time>2022-06-28T17:35:55Z</time>
      </trkpt>
      <trkpt lat="41.6153480" lon="1.8910540">
        <ele>252.2</ele>
        <time>2022-06-28T17:35:56Z</time>
      </trkpt>
      <trkpt lat="41.6153080" lon="1.8910410">
        <ele>252.4</ele>
        <time>2022-06-28T17:35:57Z</time>
      </trkpt>
      <trkpt lat="41.6152650" lon="1.8910330">
        <ele>252.6</ele>
        <time>2022-06-28T17:35:58Z</time>
      </trkpt>
      <trkpt lat="41.6151860" lon="1.8910480">
        <ele>252.8</ele>
        <time>2022-06-28T17:36:00Z</time>
      </trkpt>
      <trkpt lat="41.6151500" lon="1.8910750">
        <ele>253.2</ele>
        <time>2022-06-28T17:36:01Z</time>
      </trkpt>
      <trkpt lat="41.6151150" lon="1.8911110">
        <ele>253.4</ele>
        <time>2022-06-28T17:36:02Z</time>
      </trkpt>
      <trkpt lat="41.6150590" lon="1.8911950">
        <ele>254.2</ele>
        <time>2022-06-28T17:36:04Z</time>
      </trkpt>
      <trkpt lat="41.6150350" lon="1.8912390">
        <ele>254.4</ele>
        <time>2022-06-28T17:36:05Z</time>
      </trkpt>
      <trkpt lat="41.6150100" lon="1.8912840">
        <ele>254.8</ele>
        <time>2022-06-28T17:36:06Z</time>
      </trkpt>
      <trkpt lat="41.6149290" lon="1.8914270">
        <ele>255.4</ele>
        <time>2022-06-28T17:36:09Z</time>
      </trkpt>
      <trkpt lat="41.6149060" lon="1.8914820">
        <ele>255.6</ele>
        <time>2022-06-28T17:36:10Z</time>
      </trkpt>
      <trkpt lat="41.6148800" lon="1.8916050">
        <ele>256.2</ele>
        <time>2022-06-28T17:36:12Z</time>
      </trkpt>
      <trkpt lat="41.6148730" lon="1.8916690">
        <ele>256.2</ele>
        <time>2022-06-28T17:36:13Z</time>
      </trkpt>
      <trkpt lat="41.6148760" lon="1.8919940">
        <ele>257.2</ele>
        <time>2022-06-28T17:36:18Z</time>
      </trkpt>
      <trkpt lat="41.6148970" lon="1.8923120">
        <ele>257.6</ele>
        <time>2022-06-28T17:36:23Z</time>
      </trkpt>
      <trkpt lat="41.6149130" lon="1.8925020">
        <ele>258.0</ele>
        <time>2022-06-28T17:36:26Z</time>
      </trkpt>
      <trkpt lat="41.6149350" lon="1.8926190">
        <ele>258.4</ele>
        <time>2022-06-28T17:36:28Z</time>
      </trkpt>
      <trkpt lat="41.6149450" lon="1.8926790">
        <ele>258.4</ele>
        <time>2022-06-28T17:36:29Z</time>
      </trkpt>
      <trkpt lat="41.6149660" lon="1.8928780">
        <ele>258.8</ele>
        <time>2022-06-28T17:36:32Z</time>
      </trkpt>
      <trkpt lat="41.6150240" lon="1.8931460">
        <ele>259.2</ele>
        <time>2022-06-28T17:36:36Z</time>
      </trkpt>
      <trkpt lat="41.6150420" lon="1.8932100">
        <ele>259.4</ele>
        <time>2022-06-28T17:36:37Z</time>
      </trkpt>
      <trkpt lat="41.6150860" lon="1.8933320">
        <ele>259.6</ele>
        <time>2022-06-28T17:36:39Z</time>
      </trkpt>
      <trkpt lat="41.6152140" lon="1.8936940">
        <ele>260.0</ele>
        <time>2022-06-28T17:36:45Z</time>
      </trkpt>
      <trkpt lat="41.6152530" lon="1.8938260">
        <ele>260.0</ele>
        <time>2022-06-28T17:36:47Z</time>
      </trkpt>
      <trkpt lat="41.6153080" lon="1.8941090">
        <ele>260.4</ele>
        <time>2022-06-28T17:36:51Z</time>
      </trkpt>
      <trkpt lat="41.6153140" lon="1.8941780">
        <ele>260.6</ele>
        <time>2022-06-28T17:36:52Z</time>
      </trkpt>
      <trkpt lat="41.6153120" lon="1.8947020">
        <ele>261.0</ele>
        <time>2022-06-28T17:36:59Z</time>
      </trkpt>
      <trkpt lat="41.6152920" lon="1.8947770">
        <ele>261.2</ele>
        <time>2022-06-28T17:37:00Z</time>
      </trkpt>
      <trkpt lat="41.6152580" lon="1.8948430">
        <ele>261.2</ele>
        <time>2022-06-28T17:37:01Z</time>
      </trkpt>
      <trkpt lat="41.6152130" lon="1.8948970">
        <ele>261.4</ele>
        <time>2022-06-28T17:37:02Z</time>
      </trkpt>
      <trkpt lat="41.6151620" lon="1.8949340">
        <ele>261.6</ele>
        <time>2022-06-28T17:37:03Z</time>
      </trkpt>
      <trkpt lat="41.6148910" lon="1.8950240">
        <ele>262.2</ele>
        <time>2022-06-28T17:37:08Z</time>
      </trkpt>
      <trkpt lat="41.6147960" lon="1.8950640">
        <ele>262.4</ele>
        <time>2022-06-28T17:37:10Z</time>
      </trkpt>
      <trkpt lat="41.6147450" lon="1.8950960">
        <ele>262.6</ele>
        <time>2022-06-28T17:37:11Z</time>
      </trkpt>
      <trkpt lat="41.6146430" lon="1.8951740">
        <ele>263.4</ele>
        <time>2022-06-28T17:37:13Z</time>
      </trkpt>
      <trkpt lat="41.6145930" lon="1.8952150">
        <ele>263.6</ele>
        <time>2022-06-28T17:37:14Z</time>
      </trkpt>
      <trkpt lat="41.6143210" lon="1.8955030">
        <ele>264.6</ele>
        <time>2022-06-28T17:37:20Z</time>
      </trkpt>
      <trkpt lat="41.6142810" lon="1.8955500">
        <ele>264.8</ele>
        <time>2022-06-28T17:37:21Z</time>
      </trkpt>
      <trkpt lat="41.6142380" lon="1.8955950">
        <ele>265.2</ele>
        <time>2022-06-28T17:37:22Z</time>
      </trkpt>
      <trkpt lat="41.6141540" lon="1.8956420">
        <ele>265.6</ele>
        <time>2022-06-28T17:37:24Z</time>
      </trkpt>
      <trkpt lat="41.6141030" lon="1.8956270">
        <ele>265.8</ele>
        <time>2022-06-28T17:37:25Z</time>
      </trkpt>
      <trkpt lat="41.6140580" lon="1.8955930">
        <ele>266.0</ele>
        <time>2022-06-28T17:37:26Z</time>
      </trkpt>
      <trkpt lat="41.6139990" lon="1.8954710">
        <ele>266.2</ele>
        <time>2022-06-28T17:37:28Z</time>
      </trkpt>
      <trkpt lat="41.6140050" lon="1.8953290">
        <ele>266.4</ele>
        <time>2022-06-28T17:37:30Z</time>
      </trkpt>
      <trkpt lat="41.6140240" lon="1.8952620">
        <ele>266.6</ele>
        <time>2022-06-28T17:37:31Z</time>
      </trkpt>
      <trkpt lat="41.6140650" lon="1.8951390">
        <ele>266.8</ele>
        <time>2022-06-28T17:37:33Z</time>
      </trkpt>
      <trkpt lat="41.6141150" lon="1.8949570">
        <ele>267.2</ele>
        <time>2022-06-28T17:37:36Z</time>
      </trkpt>
      <trkpt lat="41.6141260" lon="1.8948960">
        <ele>267.2</ele>
        <time>2022-06-28T17:37:37Z</time>
      </trkpt>
      <trkpt lat="41.6141290" lon="1.8947720">
        <ele>267.4</ele>
        <time>2022-06-28T17:37:39Z</time>
      </trkpt>
      <trkpt lat="41.6141190" lon="1.8947160">
        <ele>267.6</ele>
        <time>2022-06-28T17:37:40Z</time>
      </trkpt>
      <trkpt lat="41.6140820" lon="1.8946090">
        <ele>268.0</ele>
        <time>2022-06-28T17:37:42Z</time>
      </trkpt>
      <trkpt lat="41.6140290" lon="1.8945240">
        <ele>268.2</ele>
        <time>2022-06-28T17:37:44Z</time>
      </trkpt>
      <trkpt lat="41.6139950" lon="1.8944970">
        <ele>268.4</ele>
        <time>2022-06-28T17:37:45Z</time>
      </trkpt>
      <trkpt lat="41.6139580" lon="1.8944840">
        <ele>268.6</ele>
        <time>2022-06-28T17:37:46Z</time>
      </trkpt>
      <trkpt lat="41.6139180" lon="1.8944870">
        <ele>269.0</ele>
        <time>2022-06-28T17:37:47Z</time>
      </trkpt>
      <trkpt lat="41.6138780" lon="1.8945020">
        <ele>269.4</ele>
        <time>2022-06-28T17:37:48Z</time>
      </trkpt>
      <trkpt lat="41.6137690" lon="1.8945690">
        <ele>270.0</ele>
        <time>2022-06-28T17:37:51Z</time>
      </trkpt>
      <trkpt lat="41.6136730" lon="1.8946400">
        <ele>271.0</ele>
        <time>2022-06-28T17:37:54Z</time>
      </trkpt>
      <trkpt lat="41.6136410" lon="1.8946610">
        <ele>271.6</ele>
        <time>2022-06-28T17:37:55Z</time>
      </trkpt>
      <trkpt lat="41.6134450" lon="1.8947560">
        <ele>272.6</ele>
        <time>2022-06-28T17:38:01Z</time>
      </trkpt>
      <trkpt lat="41.6134130" lon="1.8947660">
        <ele>273.2</ele>
        <time>2022-06-28T17:38:02Z</time>
      </trkpt>
      <trkpt lat="41.6133460" lon="1.8947760">
        <ele>273.8</ele>
        <time>2022-06-28T17:38:04Z</time>
      </trkpt>
      <trkpt lat="41.6132180" lon="1.8947640">
        <ele>274.6</ele>
        <time>2022-06-28T17:38:08Z</time>
      </trkpt>
      <trkpt lat="41.6131860" lon="1.8947620">
        <ele>275.0</ele>
        <time>2022-06-28T17:38:09Z</time>
      </trkpt>
      <trkpt lat="41.6130510" lon="1.8947530">
        <ele>276.4</ele>
        <time>2022-06-28T17:38:13Z</time>
      </trkpt>
      <trkpt lat="41.6129750" lon="1.8947510">
        <ele>277.0</ele>
        <time>2022-06-28T17:38:15Z</time>
      </trkpt>
      <trkpt lat="41.6128790" lon="1.8947430">
        <ele>277.4</ele>
        <time>2022-06-28T17:38:18Z</time>
      </trkpt>
      <trkpt lat="41.6127860" lon="1.8947330">
        <ele>278.6</ele>
        <time>2022-06-28T17:38:21Z</time>
      </trkpt>
      <trkpt lat="41.6125770" lon="1.8947170">
        <ele>279.8</ele>
        <time>2022-06-28T17:38:27Z</time>
      </trkpt>
      <trkpt lat="41.6125050" lon="1.8947180">
        <ele>280.2</ele>
        <time>2022-06-28T17:38:29Z</time>
      </trkpt>
      <trkpt lat="41.6124080" lon="1.8947200">
        <ele>281.2</ele>
        <time>2022-06-28T17:38:32Z</time>
      </trkpt>
      <trkpt lat="41.6123440" lon="1.8947510">
        <ele>281.6</ele>
        <time>2022-06-28T17:38:34Z</time>
      </trkpt>
      <trkpt lat="41.6122480" lon="1.8947970">
        <ele>282.2</ele>
        <time>2022-06-28T17:38:37Z</time>
      </trkpt>
      <trkpt lat="41.6121900" lon="1.8948410">
        <ele>283.0</ele>
        <time>2022-06-28T17:38:39Z</time>
      </trkpt>
      <trkpt lat="41.6121370" lon="1.8948810">
        <ele>283.2</ele>
        <time>2022-06-28T17:38:41Z</time>
      </trkpt>
      <trkpt lat="41.6120280" lon="1.8949590">
        <ele>284.4</ele>
        <time>2022-06-28T17:38:45Z</time>
      </trkpt>
      <trkpt lat="41.6119560" lon="1.8950200">
        <ele>285.0</ele>
        <time>2022-06-28T17:38:48Z</time>
      </trkpt>
      <trkpt lat="41.6119310" lon="1.8950400">
        <ele>285.4</ele>
        <time>2022-06-28T17:38:49Z</time>
      </trkpt>
      <trkpt lat="41.6117510" lon="1.8951820">
        <ele>286.6</ele>
        <time>2022-06-28T17:38:56Z</time>
      </trkpt>
      <trkpt lat="41.6116560" lon="1.8952520">
        <ele>287.8</ele>
        <time>2022-06-28T17:39:00Z</time>
      </trkpt>
      <trkpt lat="41.6116190" lon="1.8952950">
        <ele>288.2</ele>
        <time>2022-06-28T17:39:02Z</time>
      </trkpt>
      <trkpt lat="41.6115820" lon="1.8953480">
        <ele>288.8</ele>
        <time>2022-06-28T17:39:05Z</time>
      </trkpt>
      <trkpt lat="41.6115480" lon="1.8954250">
        <ele>289.2</ele>
        <time>2022-06-28T17:39:08Z</time>
      </trkpt>
      <trkpt lat="41.6114710" lon="1.8956230">
        <ele>289.8</ele>
        <time>2022-06-28T17:39:14Z</time>
      </trkpt>
      <trkpt lat="41.6113120" lon="1.8957730">
        <ele>290.0</ele>
        <time>2022-06-28T17:39:20Z</time>
      </trkpt>
      <trkpt lat="41.6110960" lon="1.8958510">
        <ele>290.6</ele>
        <time>2022-06-28T17:39:27Z</time>
      </trkpt>
      <trkpt lat="41.6109770" lon="1.8958820">
        <ele>291.2</ele>
        <time>2022-06-28T17:39:31Z</time>
      </trkpt>
      <trkpt lat="41.6109050" lon="1.8959040">
        <ele>291.8</ele>
        <time>2022-06-28T17:39:34Z</time>
      </trkpt>
      <trkpt lat="41.6108480" lon="1.8959100">
        <ele>292.2</ele>
        <time>2022-06-28T17:39:36Z</time>
      </trkpt>
      <trkpt lat="41.6107150" lon="1.8959400">
        <ele>293.2</ele>
        <time>2022-06-28T17:39:41Z</time>
      </trkpt>
      <trkpt lat="41.6106860" lon="1.8959470">
        <ele>293.2</ele>
        <time>2022-06-28T17:39:42Z</time>
      </trkpt>
      <trkpt lat="41.6105260" lon="1.8959910">
        <ele>294.4</ele>
        <time>2022-06-28T17:39:47Z</time>
      </trkpt>
      <trkpt lat="41.6104630" lon="1.8960060">
        <ele>294.8</ele>
        <time>2022-06-28T17:39:49Z</time>
      </trkpt>
      <trkpt lat="41.6103930" lon="1.8960220">
        <ele>295.4</ele>
        <time>2022-06-28T17:39:52Z</time>
      </trkpt>
      <trkpt lat="41.6103100" lon="1.8960480">
        <ele>296.0</ele>
        <time>2022-06-28T17:39:55Z</time>
      </trkpt>
      <trkpt lat="41.6102460" lon="1.8960720">
        <ele>296.8</ele>
        <time>2022-06-28T17:39:58Z</time>
      </trkpt>
      <trkpt lat="41.6102090" lon="1.8960870">
        <ele>297.2</ele>
        <time>2022-06-28T17:40:00Z</time>
      </trkpt>
      <trkpt lat="41.6101360" lon="1.8961230">
        <ele>297.8</ele>
        <time>2022-06-28T17:40:04Z</time>
      </trkpt>
      <trkpt lat="41.6100590" lon="1.8961400">
        <ele>298.4</ele>
        <time>2022-06-28T17:40:07Z</time>
      </trkpt>
      <trkpt lat="41.6100030" lon="1.8961600">
        <ele>299.2</ele>
        <time>2022-06-28T17:40:09Z</time>
      </trkpt>
      <trkpt lat="41.6098540" lon="1.8962070">
        <ele>299.8</ele>
        <time>2022-06-28T17:40:13Z</time>
      </trkpt>
      <trkpt lat="41.6097790" lon="1.8962250">
        <ele>300.2</ele>
        <time>2022-06-28T17:40:15Z</time>
      </trkpt>
      <trkpt lat="41.6096380" lon="1.8962440">
        <ele>301.4</ele>
        <time>2022-06-28T17:40:19Z</time>
      </trkpt>
      <trkpt lat="41.6096080" lon="1.8962470">
        <ele>301.6</ele>
        <time>2022-06-28T17:40:20Z</time>
      </trkpt>
      <trkpt lat="41.6094530" lon="1.8962670">
        <ele>302.6</ele>
        <time>2022-06-28T17:40:25Z</time>
      </trkpt>
      <trkpt lat="41.6093940" lon="1.8962760">
        <ele>303.0</ele>
        <time>2022-06-28T17:40:27Z</time>
      </trkpt>
      <trkpt lat="41.6093040" lon="1.8962830">
        <ele>303.6</ele>
        <time>2022-06-28T17:40:30Z</time>
      </trkpt>
      <trkpt lat="41.6092250" lon="1.8962770">
        <ele>304.8</ele>
        <time>2022-06-28T17:40:33Z</time>
      </trkpt>
      <trkpt lat="41.6091700" lon="1.8962750">
        <ele>305.0</ele>
        <time>2022-06-28T17:40:35Z</time>
      </trkpt>
      <trkpt lat="41.6090000" lon="1.8963060">
        <ele>306.0</ele>
        <time>2022-06-28T17:40:40Z</time>
      </trkpt>
      <trkpt lat="41.6089390" lon="1.8963380">
        <ele>306.4</ele>
        <time>2022-06-28T17:40:42Z</time>
      </trkpt>
      <trkpt lat="41.6088050" lon="1.8964420">
        <ele>307.2</ele>
        <time>2022-06-28T17:40:46Z</time>
      </trkpt>
      <trkpt lat="41.6087650" lon="1.8965010">
        <ele>307.8</ele>
        <time>2022-06-28T17:40:48Z</time>
      </trkpt>
      <trkpt lat="41.6087470" lon="1.8965320">
        <ele>308.2</ele>
        <time>2022-06-28T17:40:49Z</time>
      </trkpt>
      <trkpt lat="41.6086650" lon="1.8967060">
        <ele>309.6</ele>
        <time>2022-06-28T17:40:54Z</time>
      </trkpt>
      <trkpt lat="41.6085870" lon="1.8968880">
        <ele>310.6</ele>
        <time>2022-06-28T17:40:59Z</time>
      </trkpt>
      <trkpt lat="41.6085490" lon="1.8969610">
        <ele>310.8</ele>
        <time>2022-06-28T17:41:01Z</time>
      </trkpt>
      <trkpt lat="41.6084660" lon="1.8971550">
        <ele>311.8</ele>
        <time>2022-06-28T17:41:06Z</time>
      </trkpt>
      <trkpt lat="41.6084170" lon="1.8972580">
        <ele>312.4</ele>
        <time>2022-06-28T17:41:09Z</time>
      </trkpt>
      <trkpt lat="41.6084030" lon="1.8972950">
        <ele>312.8</ele>
        <time>2022-06-28T17:41:10Z</time>
      </trkpt>
      <trkpt lat="41.6083090" lon="1.8975230">
        <ele>313.6</ele>
        <time>2022-06-28T17:41:16Z</time>
      </trkpt>
      <trkpt lat="41.6082760" lon="1.8976010">
        <ele>314.0</ele>
        <time>2022-06-28T17:41:18Z</time>
      </trkpt>
      <trkpt lat="41.6081660" lon="1.8978780">
        <ele>314.8</ele>
        <time>2022-06-28T17:41:25Z</time>
      </trkpt>
      <trkpt lat="41.6081510" lon="1.8979200">
        <ele>314.8</ele>
        <time>2022-06-28T17:41:26Z</time>
      </trkpt>
      <trkpt lat="41.6080950" lon="1.8982340">
        <ele>315.8</ele>
        <time>2022-06-28T17:41:33Z</time>
      </trkpt>
      <trkpt lat="41.6080950" lon="1.8982810">
        <ele>315.8</ele>
        <time>2022-06-28T17:41:34Z</time>
      </trkpt>
      <trkpt lat="41.6081170" lon="1.8986200">
        <ele>316.8</ele>
        <time>2022-06-28T17:41:41Z</time>
      </trkpt>
      <trkpt lat="41.6081240" lon="1.8986630">
        <ele>316.8</ele>
        <time>2022-06-28T17:41:42Z</time>
      </trkpt>
      <trkpt lat="41.6081200" lon="1.8988910">
        <ele>317.2</ele>
        <time>2022-06-28T17:41:47Z</time>
      </trkpt>
      <trkpt lat="41.6080930" lon="1.8993350">
        <ele>317.8</ele>
        <time>2022-06-28T17:41:56Z</time>
      </trkpt>
      <trkpt lat="41.6080840" lon="1.8995350">
        <ele>318.2</ele>
        <time>2022-06-28T17:42:00Z</time>
      </trkpt>
      <trkpt lat="41.6081550" lon="1.8998560">
        <ele>318.8</ele>
        <time>2022-06-28T17:42:07Z</time>
      </trkpt>
      <trkpt lat="41.6082810" lon="1.9001110">
        <ele>319.6</ele>
        <time>2022-06-28T17:42:13Z</time>
      </trkpt>
      <trkpt lat="41.6083350" lon="1.9002950">
        <ele>320.0</ele>
        <time>2022-06-28T17:42:17Z</time>
      </trkpt>
      <trkpt lat="41.6083410" lon="1.9003910">
        <ele>320.4</ele>
        <time>2022-06-28T17:42:19Z</time>
      </trkpt>
      <trkpt lat="41.6082540" lon="1.9006090">
        <ele>321.0</ele>
        <time>2022-06-28T17:42:24Z</time>
      </trkpt>
      <trkpt lat="41.6082180" lon="1.9006290">
        <ele>321.0</ele>
        <time>2022-06-28T17:42:25Z</time>
      </trkpt>
      <trkpt lat="41.6080250" lon="1.9006820">
        <ele>321.4</ele>
        <time>2022-06-28T17:42:30Z</time>
      </trkpt>
      <trkpt lat="41.6079020" lon="1.9007100">
        <ele>322.0</ele>
        <time>2022-06-28T17:42:33Z</time>
      </trkpt>
      <trkpt lat="41.6076580" lon="1.9007430">
        <ele>322.8</ele>
        <time>2022-06-28T17:42:39Z</time>
      </trkpt>
      <trkpt lat="41.6076180" lon="1.9007390">
        <ele>323.0</ele>
        <time>2022-06-28T17:42:40Z</time>
      </trkpt>
      <trkpt lat="41.6075790" lon="1.9007290">
        <ele>323.2</ele>
        <time>2022-06-28T17:42:41Z</time>
      </trkpt>
      <trkpt lat="41.6073840" lon="1.9006740">
        <ele>324.0</ele>
        <time>2022-06-28T17:42:46Z</time>
      </trkpt>
      <trkpt lat="41.6071640" lon="1.9006290">
        <ele>325.0</ele>
        <time>2022-06-28T17:42:52Z</time>
      </trkpt>
      <trkpt lat="41.6071280" lon="1.9006320">
        <ele>325.2</ele>
        <time>2022-06-28T17:42:53Z</time>
      </trkpt>
      <trkpt lat="41.6070190" lon="1.9006990">
        <ele>325.8</ele>
        <time>2022-06-28T17:42:57Z</time>
      </trkpt>
      <trkpt lat="41.6069900" lon="1.9007450">
        <ele>326.2</ele>
        <time>2022-06-28T17:42:59Z</time>
      </trkpt>
      <trkpt lat="41.6069100" lon="1.9008450">
        <ele>326.8</ele>
        <time>2022-06-28T17:43:03Z</time>
      </trkpt>
      <trkpt lat="41.6068260" lon="1.9009830">
        <ele>327.4</ele>
        <time>2022-06-28T17:43:07Z</time>
      </trkpt>
      <trkpt lat="41.6068060" lon="1.9010200">
        <ele>327.4</ele>
        <time>2022-06-28T17:43:08Z</time>
      </trkpt>
      <trkpt lat="41.6066690" lon="1.9012380">
        <ele>328.4</ele>
        <time>2022-06-28T17:43:14Z</time>
      </trkpt>
      <trkpt lat="41.6066110" lon="1.9013530">
        <ele>328.4</ele>
        <time>2022-06-28T17:43:17Z</time>
      </trkpt>
      <trkpt lat="41.6065760" lon="1.9015950">
        <ele>328.8</ele>
        <time>2022-06-28T17:43:22Z</time>
      </trkpt>
      <trkpt lat="41.6065860" lon="1.9016980">
        <ele>329.2</ele>
        <time>2022-06-28T17:43:24Z</time>
      </trkpt>
      <trkpt lat="41.6066490" lon="1.9019400">
        <ele>329.8</ele>
        <time>2022-06-28T17:43:29Z</time>
      </trkpt>
      <trkpt lat="41.6067180" lon="1.9021380">
        <ele>330.2</ele>
        <time>2022-06-28T17:43:33Z</time>
      </trkpt>
      <trkpt lat="41.6068000" lon="1.9023890">
        <ele>330.8</ele>
        <time>2022-06-28T17:43:38Z</time>
      </trkpt>
      <trkpt lat="41.6069000" lon="1.9026860">
        <ele>331.4</ele>
        <time>2022-06-28T17:43:44Z</time>
      </trkpt>
      <trkpt lat="41.6069630" lon="1.9028900">
        <ele>331.6</ele>
        <time>2022-06-28T17:43:48Z</time>
      </trkpt>
      <trkpt lat="41.6070020" lon="1.9032300">
        <ele>332.4</ele>
        <time>2022-06-28T17:43:54Z</time>
      </trkpt>
      <trkpt lat="41.6070020" lon="1.9033400">
        <ele>332.6</ele>
        <time>2022-06-28T17:43:56Z</time>
      </trkpt>
      <trkpt lat="41.6069620" lon="1.9039830">
        <ele>333.4</ele>
        <time>2022-06-28T17:44:07Z</time>
      </trkpt>
      <trkpt lat="41.6069120" lon="1.9042080">
        <ele>333.8</ele>
        <time>2022-06-28T17:44:11Z</time>
      </trkpt>
      <trkpt lat="41.6068480" lon="1.9043560">
        <ele>334.2</ele>
        <time>2022-06-28T17:44:14Z</time>
      </trkpt>
      <trkpt lat="41.6068310" lon="1.9044040">
        <ele>334.6</ele>
        <time>2022-06-28T17:44:15Z</time>
      </trkpt>
      <trkpt lat="41.6068010" lon="1.9045090">
        <ele>335.0</ele>
        <time>2022-06-28T17:44:17Z</time>
      </trkpt>
      <trkpt lat="41.6068010" lon="1.9046190">
        <ele>335.2</ele>
        <time>2022-06-28T17:44:19Z</time>
      </trkpt>
      <trkpt lat="41.6068130" lon="1.9046740">
        <ele>335.6</ele>
        <time>2022-06-28T17:44:20Z</time>
      </trkpt>
      <trkpt lat="41.6068420" lon="1.9047750">
        <ele>336.0</ele>
        <time>2022-06-28T17:44:22Z</time>
      </trkpt>
      <trkpt lat="41.6068990" lon="1.9049260">
        <ele>336.8</ele>
        <time>2022-06-28T17:44:25Z</time>
      </trkpt>
      <trkpt lat="41.6069430" lon="1.9050190">
        <ele>337.2</ele>
        <time>2022-06-28T17:44:27Z</time>
      </trkpt>
      <trkpt lat="41.6069680" lon="1.9050610">
        <ele>337.2</ele>
        <time>2022-06-28T17:44:28Z</time>
      </trkpt>
      <trkpt lat="41.6071000" lon="1.9052010">
        <ele>337.8</ele>
        <time>2022-06-28T17:44:32Z</time>
      </trkpt>
      <trkpt lat="41.6071370" lon="1.9052320">
        <ele>338.0</ele>
        <time>2022-06-28T17:44:33Z</time>
      </trkpt>
      <trkpt lat="41.6071710" lon="1.9052640">
        <ele>338.2</ele>
        <time>2022-06-28T17:44:34Z</time>
      </trkpt>
      <trkpt lat="41.6073140" lon="1.9053930">
        <ele>338.6</ele>
        <time>2022-06-28T17:44:38Z</time>
      </trkpt>
      <trkpt lat="41.6073440" lon="1.9054330">
        <ele>339.0</ele>
        <time>2022-06-28T17:44:39Z</time>
      </trkpt>
      <trkpt lat="41.6074010" lon="1.9055170">
        <ele>339.2</ele>
        <time>2022-06-28T17:44:41Z</time>
      </trkpt>
      <trkpt lat="41.6074420" lon="1.9056730">
        <ele>339.6</ele>
        <time>2022-06-28T17:44:44Z</time>
      </trkpt>
      <trkpt lat="41.6074540" lon="1.9057740">
        <ele>340.0</ele>
        <time>2022-06-28T17:44:46Z</time>
      </trkpt>
      <trkpt lat="41.6074820" lon="1.9060980">
        <ele>340.8</ele>
        <time>2022-06-28T17:44:52Z</time>
      </trkpt>
      <trkpt lat="41.6074830" lon="1.9062030">
        <ele>341.0</ele>
        <time>2022-06-28T17:44:54Z</time>
      </trkpt>
      <trkpt lat="41.6074620" lon="1.9063080">
        <ele>341.4</ele>
        <time>2022-06-28T17:44:56Z</time>
      </trkpt>
      <trkpt lat="41.6074460" lon="1.9063610">
        <ele>341.6</ele>
        <time>2022-06-28T17:44:57Z</time>
      </trkpt>
      <trkpt lat="41.6073580" lon="1.9066060">
        <ele>342.2</ele>
        <time>2022-06-28T17:45:02Z</time>
      </trkpt>
      <trkpt lat="41.6073050" lon="1.9067440">
        <ele>342.8</ele>
        <time>2022-06-28T17:45:05Z</time>
      </trkpt>
      <trkpt lat="41.6072660" lon="1.9068320">
        <ele>343.4</ele>
        <time>2022-06-28T17:45:07Z</time>
      </trkpt>
      <trkpt lat="41.6072460" lon="1.9068740">
        <ele>343.4</ele>
        <time>2022-06-28T17:45:08Z</time>
      </trkpt>
      <trkpt lat="41.6071730" lon="1.9070560">
        <ele>344.4</ele>
        <time>2022-06-28T17:45:12Z</time>
      </trkpt>
      <trkpt lat="41.6071470" lon="1.9072170">
        <ele>345.0</ele>
        <time>2022-06-28T17:45:15Z</time>
      </trkpt>
      <trkpt lat="41.6071510" lon="1.9072730">
        <ele>345.4</ele>
        <time>2022-06-28T17:45:16Z</time>
      </trkpt>
      <trkpt lat="41.6071720" lon="1.9073830">
        <ele>346.0</ele>
        <time>2022-06-28T17:45:18Z</time>
      </trkpt>
      <trkpt lat="41.6072040" lon="1.9074940">
        <ele>346.2</ele>
        <time>2022-06-28T17:45:20Z</time>
      </trkpt>
      <trkpt lat="41.6072780" lon="1.9077230">
        <ele>346.4</ele>
        <time>2022-06-28T17:45:24Z</time>
      </trkpt>
      <trkpt lat="41.6073170" lon="1.9078400">
        <ele>346.6</ele>
        <time>2022-06-28T17:45:26Z</time>
      </trkpt>
      <trkpt lat="41.6073440" lon="1.9078940">
        <ele>346.6</ele>
        <time>2022-06-28T17:45:27Z</time>
      </trkpt>
      <trkpt lat="41.6073730" lon="1.9079490">
        <ele>346.6</ele>
        <time>2022-06-28T17:45:28Z</time>
      </trkpt>
      <trkpt lat="41.6074510" lon="1.9080300">
        <ele>346.6</ele>
        <time>2022-06-28T17:45:30Z</time>
      </trkpt>
      <trkpt lat="41.6074980" lon="1.9080520">
        <ele>346.8</ele>
        <time>2022-06-28T17:45:31Z</time>
      </trkpt>
      <trkpt lat="41.6077390" lon="1.9081410">
        <ele>347.0</ele>
        <time>2022-06-28T17:45:36Z</time>
      </trkpt>
      <trkpt lat="41.6077790" lon="1.9081810">
        <ele>347.0</ele>
        <time>2022-06-28T17:45:37Z</time>
      </trkpt>
      <trkpt lat="41.6078120" lon="1.9082330">
        <ele>347.2</ele>
        <time>2022-06-28T17:45:38Z</time>
      </trkpt>
      <trkpt lat="41.6078530" lon="1.9083520">
        <ele>347.4</ele>
        <time>2022-06-28T17:45:40Z</time>
      </trkpt>
      <trkpt lat="41.6078670" lon="1.9084140">
        <ele>347.6</ele>
        <time>2022-06-28T17:45:41Z</time>
      </trkpt>
      <trkpt lat="41.6079270" lon="1.9087100">
        <ele>348.2</ele>
        <time>2022-06-28T17:45:46Z</time>
      </trkpt>
      <trkpt lat="41.6079340" lon="1.9087660">
        <ele>348.4</ele>
        <time>2022-06-28T17:45:47Z</time>
      </trkpt>
      <trkpt lat="41.6079520" lon="1.9088950">
        <ele>349.2</ele>
        <time>2022-06-28T17:45:49Z</time>
      </trkpt>
      <trkpt lat="41.6079510" lon="1.9090040">
        <ele>349.6</ele>
        <time>2022-06-28T17:45:51Z</time>
      </trkpt>
      <trkpt lat="41.6079270" lon="1.9091130">
        <ele>349.8</ele>
        <time>2022-06-28T17:45:53Z</time>
      </trkpt>
      <trkpt lat="41.6078820" lon="1.9092490">
        <ele>351.0</ele>
        <time>2022-06-28T17:45:56Z</time>
      </trkpt>
      <trkpt lat="41.6078350" lon="1.9093590">
        <ele>351.8</ele>
        <time>2022-06-28T17:45:59Z</time>
      </trkpt>
      <trkpt lat="41.6078030" lon="1.9094310">
        <ele>352.4</ele>
        <time>2022-06-28T17:46:01Z</time>
      </trkpt>
      <trkpt lat="41.6077550" lon="1.9095760">
        <ele>353.6</ele>
        <time>2022-06-28T17:46:05Z</time>
      </trkpt>
      <trkpt lat="41.6077580" lon="1.9097620">
        <ele>354.8</ele>
        <time>2022-06-28T17:46:10Z</time>
      </trkpt>
      <trkpt lat="41.6078560" lon="1.9099530">
        <ele>355.4</ele>
        <time>2022-06-28T17:46:16Z</time>
      </trkpt>
      <trkpt lat="41.6079430" lon="1.9100680">
        <ele>356.0</ele>
        <time>2022-06-28T17:46:20Z</time>
      </trkpt>
      <trkpt lat="41.6080260" lon="1.9101870">
        <ele>356.6</ele>
        <time>2022-06-28T17:46:24Z</time>
      </trkpt>
      <trkpt lat="41.6080840" lon="1.9102740">
        <ele>357.2</ele>
        <time>2022-06-28T17:46:27Z</time>
      </trkpt>
      <trkpt lat="41.6082310" lon="1.9104310">
        <ele>358.2</ele>
        <time>2022-06-28T17:46:33Z</time>
      </trkpt>
      <trkpt lat="41.6084830" lon="1.9105150">
        <ele>359.2</ele>
        <time>2022-06-28T17:46:40Z</time>
      </trkpt>
      <trkpt lat="41.6086990" lon="1.9105280">
        <ele>360.2</ele>
        <time>2022-06-28T17:46:46Z</time>
      </trkpt>
      <trkpt lat="41.6088150" lon="1.9105400">
        <ele>360.8</ele>
        <time>2022-06-28T17:46:49Z</time>
      </trkpt>
      <trkpt lat="41.6089670" lon="1.9105730">
        <ele>361.4</ele>
        <time>2022-06-28T17:46:53Z</time>
      </trkpt>
      <trkpt lat="41.6090330" lon="1.9106120">
        <ele>361.8</ele>
        <time>2022-06-28T17:46:55Z</time>
      </trkpt>
      <trkpt lat="41.6091660" lon="1.9107830">
        <ele>362.6</ele>
        <time>2022-06-28T17:47:00Z</time>
      </trkpt>
      <trkpt lat="41.6091880" lon="1.9108250">
        <ele>362.6</ele>
        <time>2022-06-28T17:47:01Z</time>
      </trkpt>
      <trkpt lat="41.6092700" lon="1.9110530">
        <ele>363.6</ele>
        <time>2022-06-28T17:47:06Z</time>
      </trkpt>
      <trkpt lat="41.6092810" lon="1.9111080">
        <ele>363.8</ele>
        <time>2022-06-28T17:47:07Z</time>
      </trkpt>
      <trkpt lat="41.6093350" lon="1.9113370">
        <ele>364.8</ele>
        <time>2022-06-28T17:47:12Z</time>
      </trkpt>
      <trkpt lat="41.6093640" lon="1.9114850">
        <ele>365.2</ele>
        <time>2022-06-28T17:47:15Z</time>
      </trkpt>
      <trkpt lat="41.6093890" lon="1.9116650">
        <ele>365.8</ele>
        <time>2022-06-28T17:47:19Z</time>
      </trkpt>
      <trkpt lat="41.6094050" lon="1.9117610">
        <ele>366.2</ele>
        <time>2022-06-28T17:47:21Z</time>
      </trkpt>
      <trkpt lat="41.6094130" lon="1.9118080">
        <ele>366.2</ele>
        <time>2022-06-28T17:47:22Z</time>
      </trkpt>
      <trkpt lat="41.6094560" lon="1.9120590">
        <ele>366.8</ele>
        <time>2022-06-28T17:47:27Z</time>
      </trkpt>
      <trkpt lat="41.6094650" lon="1.9120950">
        <ele>367.2</ele>
        <time>2022-06-28T17:47:28Z</time>
      </trkpt>
      <trkpt lat="41.6095500" lon="1.9123170">
        <ele>368.0</ele>
        <time>2022-06-28T17:47:33Z</time>
      </trkpt>
      <trkpt lat="41.6095720" lon="1.9123530">
        <ele>368.2</ele>
        <time>2022-06-28T17:47:34Z</time>
      </trkpt>
      <trkpt lat="41.6097010" lon="1.9126040">
        <ele>369.2</ele>
        <time>2022-06-28T17:47:40Z</time>
      </trkpt>
      <trkpt lat="41.6096600" lon="1.9127890">
        <ele>369.8</ele>
        <time>2022-06-28T17:47:44Z</time>
      </trkpt>
      <trkpt lat="41.6096270" lon="1.9128210">
        <ele>370.2</ele>
        <time>2022-06-28T17:47:45Z</time>
      </trkpt>
      <trkpt lat="41.6095560" lon="1.9128360">
        <ele>370.6</ele>
        <time>2022-06-28T17:47:47Z</time>
      </trkpt>
      <trkpt lat="41.6094460" lon="1.9127890">
        <ele>371.4</ele>
        <time>2022-06-28T17:47:50Z</time>
      </trkpt>
      <trkpt lat="41.6094130" lon="1.9127620">
        <ele>371.4</ele>
        <time>2022-06-28T17:47:51Z</time>
      </trkpt>
      <trkpt lat="41.6092900" lon="1.9126110">
        <ele>372.2</ele>
        <time>2022-06-28T17:47:56Z</time>
      </trkpt>
      <trkpt lat="41.6092640" lon="1.9125780">
        <ele>372.2</ele>
        <time>2022-06-28T17:47:57Z</time>
      </trkpt>
      <trkpt lat="41.6091500" lon="1.9124300">
        <ele>373.2</ele>
        <time>2022-06-28T17:48:02Z</time>
      </trkpt>
      <trkpt lat="41.6091220" lon="1.9124000">
        <ele>373.2</ele>
        <time>2022-06-28T17:48:03Z</time>
      </trkpt>
      <trkpt lat="41.6089610" lon="1.9123100">
        <ele>373.8</ele>
        <time>2022-06-28T17:48:08Z</time>
      </trkpt>
      <trkpt lat="41.6087640" lon="1.9122290">
        <ele>374.4</ele>
        <time>2022-06-28T17:48:14Z</time>
      </trkpt>
      <trkpt lat="41.6087320" lon="1.9122210">
        <ele>374.4</ele>
        <time>2022-06-28T17:48:15Z</time>
      </trkpt>
      <trkpt lat="41.6085400" lon="1.9122460">
        <ele>374.6</ele>
        <time>2022-06-28T17:48:21Z</time>
      </trkpt>
      <trkpt lat="41.6084600" lon="1.9123890">
        <ele>375.2</ele>
        <time>2022-06-28T17:48:25Z</time>
      </trkpt>
      <trkpt lat="41.6084520" lon="1.9124370">
        <ele>375.2</ele>
        <time>2022-06-28T17:48:26Z</time>
      </trkpt>
      <trkpt lat="41.6084470" lon="1.9126470">
        <ele>376.0</ele>
        <time>2022-06-28T17:48:30Z</time>
      </trkpt>
      <trkpt lat="41.6084580" lon="1.9127530">
        <ele>376.2</ele>
        <time>2022-06-28T17:48:32Z</time>
      </trkpt>
      <trkpt lat="41.6084900" lon="1.9129530">
        <ele>376.6</ele>
        <time>2022-06-28T17:48:36Z</time>
      </trkpt>
      <trkpt lat="41.6085340" lon="1.9131400">
        <ele>377.4</ele>
        <time>2022-06-28T17:48:40Z</time>
      </trkpt>
      <trkpt lat="41.6085450" lon="1.9132430">
        <ele>377.6</ele>
        <time>2022-06-28T17:48:42Z</time>
      </trkpt>
      <trkpt lat="41.6085660" lon="1.9134320">
        <ele>378.4</ele>
        <time>2022-06-28T17:48:46Z</time>
      </trkpt>
      <trkpt lat="41.6085980" lon="1.9135690">
        <ele>379.2</ele>
        <time>2022-06-28T17:48:49Z</time>
      </trkpt>
      <trkpt lat="41.6086110" lon="1.9136680">
        <ele>379.6</ele>
        <time>2022-06-28T17:48:51Z</time>
      </trkpt>
      <trkpt lat="41.6086890" lon="1.9139520">
        <ele>380.2</ele>
        <time>2022-06-28T17:48:57Z</time>
      </trkpt>
      <trkpt lat="41.6087270" lon="1.9140310">
        <ele>380.4</ele>
        <time>2022-06-28T17:48:59Z</time>
      </trkpt>
      <trkpt lat="41.6088290" lon="1.9141760">
        <ele>381.4</ele>
        <time>2022-06-28T17:49:03Z</time>
      </trkpt>
      <trkpt lat="41.6089170" lon="1.9142840">
        <ele>381.6</ele>
        <time>2022-06-28T17:49:06Z</time>
      </trkpt>
      <trkpt lat="41.6090210" lon="1.9144300">
        <ele>382.2</ele>
        <time>2022-06-28T17:49:10Z</time>
      </trkpt>
      <trkpt lat="41.6090810" lon="1.9145780">
        <ele>382.4</ele>
        <time>2022-06-28T17:49:13Z</time>
      </trkpt>
      <trkpt lat="41.6091210" lon="1.9147860">
        <ele>383.0</ele>
        <time>2022-06-28T17:49:17Z</time>
      </trkpt>
      <trkpt lat="41.6091880" lon="1.9151270">
        <ele>383.4</ele>
        <time>2022-06-28T17:49:24Z</time>
      </trkpt>
      <trkpt lat="41.6092170" lon="1.9152260">
        <ele>383.4</ele>
        <time>2022-06-28T17:49:26Z</time>
      </trkpt>
      <trkpt lat="41.6092380" lon="1.9153460">
        <ele>383.4</ele>
        <time>2022-06-28T17:49:28Z</time>
      </trkpt>
      <trkpt lat="41.6092250" lon="1.9154680">
        <ele>383.6</ele>
        <time>2022-06-28T17:49:30Z</time>
      </trkpt>
      <trkpt lat="41.6091770" lon="1.9155520">
        <ele>383.6</ele>
        <time>2022-06-28T17:49:32Z</time>
      </trkpt>
      <trkpt lat="41.6091430" lon="1.9155730">
        <ele>383.6</ele>
        <time>2022-06-28T17:49:33Z</time>
      </trkpt>
      <trkpt lat="41.6090010" lon="1.9155640">
        <ele>383.6</ele>
        <time>2022-06-28T17:49:37Z</time>
      </trkpt>
      <trkpt lat="41.6087960" lon="1.9154980">
        <ele>383.2</ele>
        <time>2022-06-28T17:49:42Z</time>
      </trkpt>
      <trkpt lat="41.6087540" lon="1.9154830">
        <ele>383.2</ele>
        <time>2022-06-28T17:49:43Z</time>
      </trkpt>
      <trkpt lat="41.6084040" lon="1.9153830">
        <ele>383.2</ele>
        <time>2022-06-28T17:49:51Z</time>
      </trkpt>
      <trkpt lat="41.6083160" lon="1.9153630">
        <ele>383.4</ele>
        <time>2022-06-28T17:49:53Z</time>
      </trkpt>
      <trkpt lat="41.6082280" lon="1.9153690">
        <ele>383.6</ele>
        <time>2022-06-28T17:49:55Z</time>
      </trkpt>
      <trkpt lat="41.6081860" lon="1.9153840">
        <ele>383.8</ele>
        <time>2022-06-28T17:49:56Z</time>
      </trkpt>
      <trkpt lat="41.6081480" lon="1.9154060">
        <ele>383.8</ele>
        <time>2022-06-28T17:49:57Z</time>
      </trkpt>
      <trkpt lat="41.6080800" lon="1.9154720">
        <ele>384.0</ele>
        <time>2022-06-28T17:49:59Z</time>
      </trkpt>
      <trkpt lat="41.6080490" lon="1.9155150">
        <ele>384.2</ele>
        <time>2022-06-28T17:50:00Z</time>
      </trkpt>
      <trkpt lat="41.6080200" lon="1.9155560">
        <ele>384.4</ele>
        <time>2022-06-28T17:50:01Z</time>
      </trkpt>
      <trkpt lat="41.6078540" lon="1.9157830">
        <ele>385.2</ele>
        <time>2022-06-28T17:50:06Z</time>
      </trkpt>
      <trkpt lat="41.6078270" lon="1.9158240">
        <ele>385.4</ele>
        <time>2022-06-28T17:50:07Z</time>
      </trkpt>
      <trkpt lat="41.6076980" lon="1.9160520">
        <ele>386.0</ele>
        <time>2022-06-28T17:50:13Z</time>
      </trkpt>
      <trkpt lat="41.6076840" lon="1.9161600">
        <ele>386.4</ele>
        <time>2022-06-28T17:50:15Z</time>
      </trkpt>
      <trkpt lat="41.6076970" lon="1.9162810">
        <ele>386.6</ele>
        <time>2022-06-28T17:50:17Z</time>
      </trkpt>
      <trkpt lat="41.6077540" lon="1.9165950">
        <ele>387.0</ele>
        <time>2022-06-28T17:50:22Z</time>
      </trkpt>
      <trkpt lat="41.6077550" lon="1.9166570">
        <ele>387.0</ele>
        <time>2022-06-28T17:50:23Z</time>
      </trkpt>
      <trkpt lat="41.6077440" lon="1.9167220">
        <ele>387.0</ele>
        <time>2022-06-28T17:50:24Z</time>
      </trkpt>
      <trkpt lat="41.6076990" lon="1.9168450">
        <ele>387.2</ele>
        <time>2022-06-28T17:50:26Z</time>
      </trkpt>
      <trkpt lat="41.6076660" lon="1.9168910">
        <ele>387.2</ele>
        <time>2022-06-28T17:50:27Z</time>
      </trkpt>
      <trkpt lat="41.6076280" lon="1.9169330">
        <ele>387.2</ele>
        <time>2022-06-28T17:50:28Z</time>
      </trkpt>
      <trkpt lat="41.6075420" lon="1.9169930">
        <ele>387.6</ele>
        <time>2022-06-28T17:50:30Z</time>
      </trkpt>
      <trkpt lat="41.6074960" lon="1.9170100">
        <ele>387.8</ele>
        <time>2022-06-28T17:50:31Z</time>
      </trkpt>
      <trkpt lat="41.6074520" lon="1.9170140">
        <ele>387.8</ele>
        <time>2022-06-28T17:50:32Z</time>
      </trkpt>
      <trkpt lat="41.6073690" lon="1.9169940">
        <ele>388.2</ele>
        <time>2022-06-28T17:50:34Z</time>
      </trkpt>
      <trkpt lat="41.6073250" lon="1.9169750">
        <ele>388.6</ele>
        <time>2022-06-28T17:50:35Z</time>
      </trkpt>
      <trkpt lat="41.6070780" lon="1.9168260">
        <ele>389.4</ele>
        <time>2022-06-28T17:50:41Z</time>
      </trkpt>
      <trkpt lat="41.6069990" lon="1.9167700">
        <ele>389.6</ele>
        <time>2022-06-28T17:50:43Z</time>
      </trkpt>
      <trkpt lat="41.6068840" lon="1.9166870">
        <ele>389.8</ele>
        <time>2022-06-28T17:50:46Z</time>
      </trkpt>
      <trkpt lat="41.6067960" lon="1.9166720">
        <ele>390.2</ele>
        <time>2022-06-28T17:50:48Z</time>
      </trkpt>
      <trkpt lat="41.6067490" lon="1.9166840">
        <ele>390.6</ele>
        <time>2022-06-28T17:50:49Z</time>
      </trkpt>
      <trkpt lat="41.6067090" lon="1.9167110">
        <ele>390.6</ele>
        <time>2022-06-28T17:50:50Z</time>
      </trkpt>
      <trkpt lat="41.6066760" lon="1.9167490">
        <ele>390.8</ele>
        <time>2022-06-28T17:50:51Z</time>
      </trkpt>
      <trkpt lat="41.6066560" lon="1.9167990">
        <ele>391.0</ele>
        <time>2022-06-28T17:50:52Z</time>
      </trkpt>
      <trkpt lat="41.6066400" lon="1.9169170">
        <ele>391.2</ele>
        <time>2022-06-28T17:50:54Z</time>
      </trkpt>
      <trkpt lat="41.6066500" lon="1.9170390">
        <ele>391.6</ele>
        <time>2022-06-28T17:50:56Z</time>
      </trkpt>
      <trkpt lat="41.6066600" lon="1.9170980">
        <ele>392.0</ele>
        <time>2022-06-28T17:50:57Z</time>
      </trkpt>
      <trkpt lat="41.6066940" lon="1.9172780">
        <ele>392.6</ele>
        <time>2022-06-28T17:51:00Z</time>
      </trkpt>
      <trkpt lat="41.6067100" lon="1.9173320">
        <ele>393.0</ele>
        <time>2022-06-28T17:51:01Z</time>
      </trkpt>
      <trkpt lat="41.6067890" lon="1.9176040">
        <ele>393.6</ele>
        <time>2022-06-28T17:51:06Z</time>
      </trkpt>
      <trkpt lat="41.6067990" lon="1.9176620">
        <ele>393.8</ele>
        <time>2022-06-28T17:51:07Z</time>
      </trkpt>
      <trkpt lat="41.6068220" lon="1.9177800">
        <ele>394.0</ele>
        <time>2022-06-28T17:51:09Z</time>
      </trkpt>
      <trkpt lat="41.6068380" lon="1.9178920">
        <ele>394.4</ele>
        <time>2022-06-28T17:51:11Z</time>
      </trkpt>
      <trkpt lat="41.6068390" lon="1.9179500">
        <ele>394.6</ele>
        <time>2022-06-28T17:51:12Z</time>
      </trkpt>
      <trkpt lat="41.6068370" lon="1.9180070">
        <ele>394.8</ele>
        <time>2022-06-28T17:51:13Z</time>
      </trkpt>
      <trkpt lat="41.6068130" lon="1.9181110">
        <ele>394.8</ele>
        <time>2022-06-28T17:51:15Z</time>
      </trkpt>
      <trkpt lat="41.6067960" lon="1.9181490">
        <ele>395.0</ele>
        <time>2022-06-28T17:51:16Z</time>
      </trkpt>
      <trkpt lat="41.6067790" lon="1.9181850">
        <ele>395.0</ele>
        <time>2022-06-28T17:51:17Z</time>
      </trkpt>
      <trkpt lat="41.6067030" lon="1.9183160">
        <ele>396.2</ele>
        <time>2022-06-28T17:51:21Z</time>
      </trkpt>
      <trkpt lat="41.6066790" lon="1.9183500">
        <ele>396.4</ele>
        <time>2022-06-28T17:51:22Z</time>
      </trkpt>
      <trkpt lat="41.6066370" lon="1.9184180">
        <ele>397.2</ele>
        <time>2022-06-28T17:51:24Z</time>
      </trkpt>
      <trkpt lat="41.6065470" lon="1.9185190">
        <ele>398.0</ele>
        <time>2022-06-28T17:51:28Z</time>
      </trkpt>
      <trkpt lat="41.6065150" lon="1.9185330">
        <ele>398.2</ele>
        <time>2022-06-28T17:51:29Z</time>
      </trkpt>
      <trkpt lat="41.6063700" lon="1.9185440">
        <ele>399.2</ele>
        <time>2022-06-28T17:51:33Z</time>
      </trkpt>
      <trkpt lat="41.6063360" lon="1.9185420">
        <ele>399.4</ele>
        <time>2022-06-28T17:51:34Z</time>
      </trkpt>
      <trkpt lat="41.6062110" lon="1.9185270">
        <ele>400.4</ele>
        <time>2022-06-28T17:51:38Z</time>
      </trkpt>
      <trkpt lat="41.6061200" lon="1.9185120">
        <ele>401.8</ele>
        <time>2022-06-28T17:51:41Z</time>
      </trkpt>
      <trkpt lat="41.6060900" lon="1.9185050">
        <ele>402.0</ele>
        <time>2022-06-28T17:51:42Z</time>
      </trkpt>
      <trkpt lat="41.6059650" lon="1.9184980">
        <ele>402.8</ele>
        <time>2022-06-28T17:51:46Z</time>
      </trkpt>
      <trkpt lat="41.6058760" lon="1.9184850">
        <ele>403.4</ele>
        <time>2022-06-28T17:51:49Z</time>
      </trkpt>
      <trkpt lat="41.6058170" lon="1.9184750">
        <ele>403.8</ele>
        <time>2022-06-28T17:51:51Z</time>
      </trkpt>
      <trkpt lat="41.6056710" lon="1.9184430">
        <ele>404.8</ele>
        <time>2022-06-28T17:51:56Z</time>
      </trkpt>
      <trkpt lat="41.6056420" lon="1.9184360">
        <ele>405.0</ele>
        <time>2022-06-28T17:51:57Z</time>
      </trkpt>
      <trkpt lat="41.6055160" lon="1.9183790">
        <ele>406.0</ele>
        <time>2022-06-28T17:52:02Z</time>
      </trkpt>
      <trkpt lat="41.6054670" lon="1.9183410">
        <ele>406.2</ele>
        <time>2022-06-28T17:52:04Z</time>
      </trkpt>
      <trkpt lat="41.6053800" lon="1.9182840">
        <ele>407.2</ele>
        <time>2022-06-28T17:52:07Z</time>
      </trkpt>
      <trkpt lat="41.6052460" lon="1.9181740">
        <ele>408.2</ele>
        <time>2022-06-28T17:52:12Z</time>
      </trkpt>
      <trkpt lat="41.6051960" lon="1.9181380">
        <ele>408.4</ele>
        <time>2022-06-28T17:52:14Z</time>
      </trkpt>
      <trkpt lat="41.6050690" lon="1.9180790">
        <ele>409.0</ele>
        <time>2022-06-28T17:52:19Z</time>
      </trkpt>
      <trkpt lat="41.6050090" lon="1.9180700">
        <ele>409.4</ele>
        <time>2022-06-28T17:52:21Z</time>
      </trkpt>
      <trkpt lat="41.6049770" lon="1.9180730">
        <ele>409.4</ele>
        <time>2022-06-28T17:52:22Z</time>
      </trkpt>
      <trkpt lat="41.6049200" lon="1.9180670">
        <ele>409.8</ele>
        <time>2022-06-28T17:52:24Z</time>
      </trkpt>
      <trkpt lat="41.6047860" lon="1.9180980">
        <ele>410.2</ele>
        <time>2022-06-28T17:52:29Z</time>
      </trkpt>
      <trkpt lat="41.6047500" lon="1.9181550">
        <ele>410.4</ele>
        <time>2022-06-28T17:52:31Z</time>
      </trkpt>
      <trkpt lat="41.6046930" lon="1.9183190">
        <ele>410.8</ele>
        <time>2022-06-28T17:52:35Z</time>
      </trkpt>
      <trkpt lat="41.6045890" lon="1.9185450">
        <ele>411.2</ele>
        <time>2022-06-28T17:52:40Z</time>
      </trkpt>
      <trkpt lat="41.6044380" lon="1.9186470">
        <ele>411.2</ele>
        <time>2022-06-28T17:52:44Z</time>
      </trkpt>
      <trkpt lat="41.6043560" lon="1.9186410">
        <ele>411.4</ele>
        <time>2022-06-28T17:52:46Z</time>
      </trkpt>
      <trkpt lat="41.6042720" lon="1.9186010">
        <ele>411.6</ele>
        <time>2022-06-28T17:52:48Z</time>
      </trkpt>
      <trkpt lat="41.6040590" lon="1.9184860">
        <ele>412.0</ele>
        <time>2022-06-28T17:52:53Z</time>
      </trkpt>
      <trkpt lat="41.6040140" lon="1.9184830">
        <ele>412.2</ele>
        <time>2022-06-28T17:52:54Z</time>
      </trkpt>
      <trkpt lat="41.6039670" lon="1.9184880">
        <ele>412.2</ele>
        <time>2022-06-28T17:52:55Z</time>
      </trkpt>
      <trkpt lat="41.6039190" lon="1.9184970">
        <ele>412.4</ele>
        <time>2022-06-28T17:52:56Z</time>
      </trkpt>
      <trkpt lat="41.6037250" lon="1.9185320">
        <ele>413.2</ele>
        <time>2022-06-28T17:53:00Z</time>
      </trkpt>
      <trkpt lat="41.6036770" lon="1.9185340">
        <ele>413.4</ele>
        <time>2022-06-28T17:53:01Z</time>
      </trkpt>
      <trkpt lat="41.6036240" lon="1.9185310">
        <ele>413.6</ele>
        <time>2022-06-28T17:53:02Z</time>
      </trkpt>
      <trkpt lat="41.6035260" lon="1.9185140">
        <ele>413.6</ele>
        <time>2022-06-28T17:53:04Z</time>
      </trkpt>
      <trkpt lat="41.6034440" lon="1.9184670">
        <ele>413.8</ele>
        <time>2022-06-28T17:53:06Z</time>
      </trkpt>
      <trkpt lat="41.6034070" lon="1.9184380">
        <ele>413.8</ele>
        <time>2022-06-28T17:53:07Z</time>
      </trkpt>
      <trkpt lat="41.6032220" lon="1.9183000">
        <ele>414.6</ele>
        <time>2022-06-28T17:53:12Z</time>
      </trkpt>
      <trkpt lat="41.6031840" lon="1.9182670">
        <ele>414.8</ele>
        <time>2022-06-28T17:53:13Z</time>
      </trkpt>
      <trkpt lat="41.6031460" lon="1.9182270">
        <ele>414.6</ele>
        <time>2022-06-28T17:53:14Z</time>
      </trkpt>
      <trkpt lat="41.6031140" lon="1.9181840">
        <ele>415.0</ele>
        <time>2022-06-28T17:53:15Z</time>
      </trkpt>
      <trkpt lat="41.6030490" lon="1.9180180">
        <ele>415.0</ele>
        <time>2022-06-28T17:53:18Z</time>
      </trkpt>
      <trkpt lat="41.6030300" lon="1.9179000">
        <ele>415.2</ele>
        <time>2022-06-28T17:53:20Z</time>
      </trkpt>
      <trkpt lat="41.6030080" lon="1.9177180">
        <ele>415.4</ele>
        <time>2022-06-28T17:53:23Z</time>
      </trkpt>
      <trkpt lat="41.6029940" lon="1.9176650">
        <ele>415.6</ele>
        <time>2022-06-28T17:53:24Z</time>
      </trkpt>
      <trkpt lat="41.6029760" lon="1.9176090">
        <ele>416.2</ele>
        <time>2022-06-28T17:53:25Z</time>
      </trkpt>
      <trkpt lat="41.6029260" lon="1.9175040">
        <ele>416.8</ele>
        <time>2022-06-28T17:53:27Z</time>
      </trkpt>
      <trkpt lat="41.6028680" lon="1.9174110">
        <ele>417.2</ele>
        <time>2022-06-28T17:53:29Z</time>
      </trkpt>
      <trkpt lat="41.6027970" lon="1.9173370">
        <ele>417.8</ele>
        <time>2022-06-28T17:53:31Z</time>
      </trkpt>
      <trkpt lat="41.6027120" lon="1.9172900">
        <ele>418.2</ele>
        <time>2022-06-28T17:53:33Z</time>
      </trkpt>
      <trkpt lat="41.6026660" lon="1.9172810">
        <ele>418.4</ele>
        <time>2022-06-28T17:53:34Z</time>
      </trkpt>
      <trkpt lat="41.6026210" lon="1.9172820">
        <ele>418.4</ele>
        <time>2022-06-28T17:53:35Z</time>
      </trkpt>
      <trkpt lat="41.6025370" lon="1.9173280">
        <ele>419.0</ele>
        <time>2022-06-28T17:53:37Z</time>
      </trkpt>
      <trkpt lat="41.6024370" lon="1.9174490">
        <ele>419.6</ele>
        <time>2022-06-28T17:53:40Z</time>
      </trkpt>
      <trkpt lat="41.6023870" lon="1.9175410">
        <ele>420.0</ele>
        <time>2022-06-28T17:53:42Z</time>
      </trkpt>
      <trkpt lat="41.6022850" lon="1.9177690">
        <ele>420.6</ele>
        <time>2022-06-28T17:53:47Z</time>
      </trkpt>
      <trkpt lat="41.6022620" lon="1.9178120">
        <ele>421.0</ele>
        <time>2022-06-28T17:53:48Z</time>
      </trkpt>
      <trkpt lat="41.6021450" lon="1.9180210">
        <ele>422.2</ele>
        <time>2022-06-28T17:53:53Z</time>
      </trkpt>
      <trkpt lat="41.6020980" lon="1.9181030">
        <ele>422.4</ele>
        <time>2022-06-28T17:53:55Z</time>
      </trkpt>
      <trkpt lat="41.6020180" lon="1.9182220">
        <ele>423.0</ele>
        <time>2022-06-28T17:53:58Z</time>
      </trkpt>
      <trkpt lat="41.6019140" lon="1.9183050">
        <ele>423.6</ele>
        <time>2022-06-28T17:54:01Z</time>
      </trkpt>
      <trkpt lat="41.6018370" lon="1.9183470">
        <ele>424.2</ele>
        <time>2022-06-28T17:54:03Z</time>
      </trkpt>
      <trkpt lat="41.6016450" lon="1.9184740">
        <ele>425.0</ele>
        <time>2022-06-28T17:54:08Z</time>
      </trkpt>
      <trkpt lat="41.6016200" lon="1.9185150">
        <ele>425.2</ele>
        <time>2022-06-28T17:54:09Z</time>
      </trkpt>
      <trkpt lat="41.6015740" lon="1.9186440">
        <ele>426.0</ele>
        <time>2022-06-28T17:54:12Z</time>
      </trkpt>
      <trkpt lat="41.6015520" lon="1.9187240">
        <ele>426.6</ele>
        <time>2022-06-28T17:54:14Z</time>
      </trkpt>
      <trkpt lat="41.6014890" lon="1.9188800">
        <ele>427.4</ele>
        <time>2022-06-28T17:54:18Z</time>
      </trkpt>
      <trkpt lat="41.6014730" lon="1.9190050">
        <ele>427.8</ele>
        <time>2022-06-28T17:54:21Z</time>
      </trkpt>
      <trkpt lat="41.6014850" lon="1.9190470">
        <ele>427.8</ele>
        <time>2022-06-28T17:54:22Z</time>
      </trkpt>
      <trkpt lat="41.6015760" lon="1.9192130">
        <ele>428.0</ele>
        <time>2022-06-28T17:54:27Z</time>
      </trkpt>
      <trkpt lat="41.6015870" lon="1.9192510">
        <ele>428.0</ele>
        <time>2022-06-28T17:54:28Z</time>
      </trkpt>
      <trkpt lat="41.6015850" lon="1.9193440">
        <ele>428.0</ele>
        <time>2022-06-28T17:54:30Z</time>
      </trkpt>
      <trkpt lat="41.6015380" lon="1.9195000">
        <ele>428.2</ele>
        <time>2022-06-28T17:54:33Z</time>
      </trkpt>
      <trkpt lat="41.6015090" lon="1.9195500">
        <ele>428.2</ele>
        <time>2022-06-28T17:54:34Z</time>
      </trkpt>
      <trkpt lat="41.6012710" lon="1.9198880">
        <ele>428.6</ele>
        <time>2022-06-28T17:54:41Z</time>
      </trkpt>
      <trkpt lat="41.6010770" lon="1.9201770">
        <ele>428.8</ele>
        <time>2022-06-28T17:54:48Z</time>
      </trkpt>
      <trkpt lat="41.6009320" lon="1.9203690">
        <ele>429.2</ele>
        <time>2022-06-28T17:54:53Z</time>
      </trkpt>
      <trkpt lat="41.6008990" lon="1.9204010">
        <ele>429.4</ele>
        <time>2022-06-28T17:54:54Z</time>
      </trkpt>
      <trkpt lat="41.6007100" lon="1.9205700">
        <ele>429.6</ele>
        <time>2022-06-28T17:54:59Z</time>
      </trkpt>
      <trkpt lat="41.6006720" lon="1.9205990">
        <ele>429.8</ele>
        <time>2022-06-28T17:55:00Z</time>
      </trkpt>
      <trkpt lat="41.6003400" lon="1.9207680">
        <ele>430.0</ele>
        <time>2022-06-28T17:55:07Z</time>
      </trkpt>
      <trkpt lat="41.6000330" lon="1.9208960">
        <ele>430.4</ele>
        <time>2022-06-28T17:55:13Z</time>
      </trkpt>
      <trkpt lat="41.5999780" lon="1.9209080">
        <ele>430.4</ele>
        <time>2022-06-28T17:55:14Z</time>
      </trkpt>
      <trkpt lat="41.5999190" lon="1.9209150">
        <ele>430.6</ele>
        <time>2022-06-28T17:55:15Z</time>
      </trkpt>
      <trkpt lat="41.5997930" lon="1.9208980">
        <ele>430.6</ele>
        <time>2022-06-28T17:55:17Z</time>
      </trkpt>
      <trkpt lat="41.5997310" lon="1.9208720">
        <ele>430.6</ele>
        <time>2022-06-28T17:55:18Z</time>
      </trkpt>
      <trkpt lat="41.5995970" lon="1.9208270">
        <ele>430.4</ele>
        <time>2022-06-28T17:55:20Z</time>
      </trkpt>
      <trkpt lat="41.5994740" lon="1.9208910">
        <ele>429.8</ele>
        <time>2022-06-28T17:55:22Z</time>
      </trkpt>
      <trkpt lat="41.5994430" lon="1.9210990">
        <ele>429.6</ele>
        <time>2022-06-28T17:55:24Z</time>
      </trkpt>
      <trkpt lat="41.5994420" lon="1.9212200">
        <ele>429.2</ele>
        <time>2022-06-28T17:55:25Z</time>
      </trkpt>
      <trkpt lat="41.5994230" lon="1.9213400">
        <ele>428.6</ele>
        <time>2022-06-28T17:55:26Z</time>
      </trkpt>
      <trkpt lat="41.5993850" lon="1.9214540">
        <ele>427.8</ele>
        <time>2022-06-28T17:55:27Z</time>
      </trkpt>
      <trkpt lat="41.5993340" lon="1.9215570">
        <ele>427.6</ele>
        <time>2022-06-28T17:55:28Z</time>
      </trkpt>
      <trkpt lat="41.5991890" lon="1.9217010">
        <ele>426.4</ele>
        <time>2022-06-28T17:55:30Z</time>
      </trkpt>
      <trkpt lat="41.5988550" lon="1.9218820">
        <ele>424.8</ele>
        <time>2022-06-28T17:55:34Z</time>
      </trkpt>
      <trkpt lat="41.5987760" lon="1.9219370">
        <ele>424.0</ele>
        <time>2022-06-28T17:55:35Z</time>
      </trkpt>
      <trkpt lat="41.5986970" lon="1.9220010">
        <ele>424.0</ele>
        <time>2022-06-28T17:55:36Z</time>
      </trkpt>
      <trkpt lat="41.5985380" lon="1.9221630">
        <ele>423.2</ele>
        <time>2022-06-28T17:55:38Z</time>
      </trkpt>
      <trkpt lat="41.5984620" lon="1.9222610">
        <ele>422.4</ele>
        <time>2022-06-28T17:55:39Z</time>
      </trkpt>
      <trkpt lat="41.5982810" lon="1.9225660">
        <ele>421.2</ele>
        <time>2022-06-28T17:55:42Z</time>
      </trkpt>
      <trkpt lat="41.5981670" lon="1.9227470">
        <ele>420.2</ele>
        <time>2022-06-28T17:55:44Z</time>
      </trkpt>
      <trkpt lat="41.5981110" lon="1.9228200">
        <ele>420.0</ele>
        <time>2022-06-28T17:55:45Z</time>
      </trkpt>
      <trkpt lat="41.5980430" lon="1.9228820">
        <ele>419.2</ele>
        <time>2022-06-28T17:55:46Z</time>
      </trkpt>
      <trkpt lat="41.5979690" lon="1.9229290">
        <ele>418.8</ele>
        <time>2022-06-28T17:55:47Z</time>
      </trkpt>
      <trkpt lat="41.5978910" lon="1.9229710">
        <ele>418.2</ele>
        <time>2022-06-28T17:55:48Z</time>
      </trkpt>
      <trkpt lat="41.5978110" lon="1.9230110">
        <ele>417.8</ele>
        <time>2022-06-28T17:55:49Z</time>
      </trkpt>
      <trkpt lat="41.5975560" lon="1.9231290">
        <ele>416.6</ele>
        <time>2022-06-28T17:55:52Z</time>
      </trkpt>
      <trkpt lat="41.5973780" lon="1.9232190">
        <ele>415.8</ele>
        <time>2022-06-28T17:55:54Z</time>
      </trkpt>
      <trkpt lat="41.5972730" lon="1.9232640">
        <ele>415.2</ele>
        <time>2022-06-28T17:55:55Z</time>
      </trkpt>
      <trkpt lat="41.5970620" lon="1.9233510">
        <ele>414.4</ele>
        <time>2022-06-28T17:55:57Z</time>
      </trkpt>
      <trkpt lat="41.5969600" lon="1.9233590">
        <ele>414.0</ele>
        <time>2022-06-28T17:55:58Z</time>
      </trkpt>
      <trkpt lat="41.5968650" lon="1.9233410">
        <ele>414.0</ele>
        <time>2022-06-28T17:55:59Z</time>
      </trkpt>
      <trkpt lat="41.5967760" lon="1.9233060">
        <ele>413.0</ele>
        <time>2022-06-28T17:56:00Z</time>
      </trkpt>
      <trkpt lat="41.5966860" lon="1.9232780">
        <ele>412.6</ele>
        <time>2022-06-28T17:56:01Z</time>
      </trkpt>
      <trkpt lat="41.5964970" lon="1.9232750">
        <ele>411.4</ele>
        <time>2022-06-28T17:56:03Z</time>
      </trkpt>
      <trkpt lat="41.5964110" lon="1.9233070">
        <ele>411.0</ele>
        <time>2022-06-28T17:56:04Z</time>
      </trkpt>
      <trkpt lat="41.5963250" lon="1.9233310">
        <ele>410.0</ele>
        <time>2022-06-28T17:56:05Z</time>
      </trkpt>
      <trkpt lat="41.5961610" lon="1.9232890">
        <ele>408.8</ele>
        <time>2022-06-28T17:56:07Z</time>
      </trkpt>
      <trkpt lat="41.5959970" lon="1.9231910">
        <ele>407.8</ele>
        <time>2022-06-28T17:56:09Z</time>
      </trkpt>
      <trkpt lat="41.5959050" lon="1.9231800">
        <ele>406.8</ele>
        <time>2022-06-28T17:56:10Z</time>
      </trkpt>
      <trkpt lat="41.5958150" lon="1.9231960">
        <ele>406.4</ele>
        <time>2022-06-28T17:56:11Z</time>
      </trkpt>
      <trkpt lat="41.5957290" lon="1.9232210">
        <ele>405.2</ele>
        <time>2022-06-28T17:56:12Z</time>
      </trkpt>
      <trkpt lat="41.5955470" lon="1.9233180">
        <ele>404.0</ele>
        <time>2022-06-28T17:56:14Z</time>
      </trkpt>
      <trkpt lat="41.5953490" lon="1.9234380">
        <ele>402.8</ele>
        <time>2022-06-28T17:56:16Z</time>
      </trkpt>
      <trkpt lat="41.5951710" lon="1.9235350">
        <ele>401.4</ele>
        <time>2022-06-28T17:56:18Z</time>
      </trkpt>
      <trkpt lat="41.5950200" lon="1.9235230">
        <ele>400.0</ele>
        <time>2022-06-28T17:56:20Z</time>
      </trkpt>
      <trkpt lat="41.5949070" lon="1.9233880">
        <ele>398.2</ele>
        <time>2022-06-28T17:56:22Z</time>
      </trkpt>
      <trkpt lat="41.5948420" lon="1.9232960">
        <ele>397.8</ele>
        <time>2022-06-28T17:56:23Z</time>
      </trkpt>
      <trkpt lat="41.5947660" lon="1.9232070">
        <ele>397.2</ele>
        <time>2022-06-28T17:56:24Z</time>
      </trkpt>
      <trkpt lat="41.5946830" lon="1.9231390">
        <ele>396.6</ele>
        <time>2022-06-28T17:56:25Z</time>
      </trkpt>
      <trkpt lat="41.5945890" lon="1.9230850">
        <ele>396.0</ele>
        <time>2022-06-28T17:56:26Z</time>
      </trkpt>
      <trkpt lat="41.5944950" lon="1.9230280">
        <ele>395.2</ele>
        <time>2022-06-28T17:56:27Z</time>
      </trkpt>
      <trkpt lat="41.5944020" lon="1.9229500">
        <ele>394.0</ele>
        <time>2022-06-28T17:56:28Z</time>
      </trkpt>
      <trkpt lat="41.5942260" lon="1.9227620">
        <ele>392.6</ele>
        <time>2022-06-28T17:56:30Z</time>
      </trkpt>
      <trkpt lat="41.5941360" lon="1.9226720">
        <ele>391.8</ele>
        <time>2022-06-28T17:56:31Z</time>
      </trkpt>
      <trkpt lat="41.5940380" lon="1.9225980">
        <ele>391.0</ele>
        <time>2022-06-28T17:56:32Z</time>
      </trkpt>
      <trkpt lat="41.5939390" lon="1.9225430">
        <ele>389.8</ele>
        <time>2022-06-28T17:56:33Z</time>
      </trkpt>
      <trkpt lat="41.5937510" lon="1.9225100">
        <ele>388.6</ele>
        <time>2022-06-28T17:56:35Z</time>
      </trkpt>
      <trkpt lat="41.5935760" lon="1.9225310">
        <ele>387.6</ele>
        <time>2022-06-28T17:56:37Z</time>
      </trkpt>
      <trkpt lat="41.5934860" lon="1.9225490">
        <ele>385.6</ele>
        <time>2022-06-28T17:56:38Z</time>
      </trkpt>
      <trkpt lat="41.5933910" lon="1.9225730">
        <ele>385.2</ele>
        <time>2022-06-28T17:56:39Z</time>
      </trkpt>
      <trkpt lat="41.5932930" lon="1.9225990">
        <ele>384.4</ele>
        <time>2022-06-28T17:56:40Z</time>
      </trkpt>
      <trkpt lat="41.5929910" lon="1.9226760">
        <ele>382.6</ele>
        <time>2022-06-28T17:56:43Z</time>
      </trkpt>
      <trkpt lat="41.5927810" lon="1.9227310">
        <ele>380.2</ele>
        <time>2022-06-28T17:56:45Z</time>
      </trkpt>
      <trkpt lat="41.5925580" lon="1.9227820">
        <ele>379.2</ele>
        <time>2022-06-28T17:56:47Z</time>
      </trkpt>
      <trkpt lat="41.5923140" lon="1.9228230">
        <ele>377.8</ele>
        <time>2022-06-28T17:56:49Z</time>
      </trkpt>
      <trkpt lat="41.5921960" lon="1.9228060">
        <ele>376.6</ele>
        <time>2022-06-28T17:56:50Z</time>
      </trkpt>
      <trkpt lat="41.5919620" lon="1.9227380">
        <ele>374.6</ele>
        <time>2022-06-28T17:56:52Z</time>
      </trkpt>
      <trkpt lat="41.5917180" lon="1.9227380">
        <ele>373.2</ele>
        <time>2022-06-28T17:56:54Z</time>
      </trkpt>
      <trkpt lat="41.5914690" lon="1.9227760">
        <ele>371.6</ele>
        <time>2022-06-28T17:56:56Z</time>
      </trkpt>
      <trkpt lat="41.5912260" lon="1.9228200">
        <ele>370.6</ele>
        <time>2022-06-28T17:56:58Z</time>
      </trkpt>
      <trkpt lat="41.5911080" lon="1.9228330">
        <ele>369.4</ele>
        <time>2022-06-28T17:56:59Z</time>
      </trkpt>
      <trkpt lat="41.5909910" lon="1.9228340">
        <ele>368.6</ele>
        <time>2022-06-28T17:57:00Z</time>
      </trkpt>
      <trkpt lat="41.5908750" lon="1.9228210">
        <ele>367.2</ele>
        <time>2022-06-28T17:57:01Z</time>
      </trkpt>
      <trkpt lat="41.5907640" lon="1.9227910">
        <ele>366.0</ele>
        <time>2022-06-28T17:57:02Z</time>
      </trkpt>
      <trkpt lat="41.5905650" lon="1.9227210">
        <ele>364.2</ele>
        <time>2022-06-28T17:57:04Z</time>
      </trkpt>
      <trkpt lat="41.5904670" lon="1.9227080">
        <ele>363.6</ele>
        <time>2022-06-28T17:57:05Z</time>
      </trkpt>
      <trkpt lat="41.5903620" lon="1.9227130">
        <ele>362.8</ele>
        <time>2022-06-28T17:57:06Z</time>
      </trkpt>
      <trkpt lat="41.5902440" lon="1.9227330">
        <ele>362.6</ele>
        <time>2022-06-28T17:57:07Z</time>
      </trkpt>
      <trkpt lat="41.5901300" lon="1.9227390">
        <ele>362.0</ele>
        <time>2022-06-28T17:57:08Z</time>
      </trkpt>
      <trkpt lat="41.5900210" lon="1.9227440">
        <ele>360.6</ele>
        <time>2022-06-28T17:57:09Z</time>
      </trkpt>
      <trkpt lat="41.5897870" lon="1.9227660">
        <ele>359.4</ele>
        <time>2022-06-28T17:57:11Z</time>
      </trkpt>
      <trkpt lat="41.5896710" lon="1.9227780">
        <ele>359.2</ele>
        <time>2022-06-28T17:57:12Z</time>
      </trkpt>
      <trkpt lat="41.5895620" lon="1.9227910">
        <ele>357.4</ele>
        <time>2022-06-28T17:57:13Z</time>
      </trkpt>
      <trkpt lat="41.5894560" lon="1.9228190">
        <ele>356.8</ele>
        <time>2022-06-28T17:57:14Z</time>
      </trkpt>
      <trkpt lat="41.5892630" lon="1.9229390">
        <ele>355.6</ele>
        <time>2022-06-28T17:57:16Z</time>
      </trkpt>
      <trkpt lat="41.5890580" lon="1.9230980">
        <ele>354.2</ele>
        <time>2022-06-28T17:57:18Z</time>
      </trkpt>
      <trkpt lat="41.5889550" lon="1.9231500">
        <ele>353.8</ele>
        <time>2022-06-28T17:57:19Z</time>
      </trkpt>
      <trkpt lat="41.5888470" lon="1.9231820">
        <ele>353.0</ele>
        <time>2022-06-28T17:57:20Z</time>
      </trkpt>
      <trkpt lat="41.5887360" lon="1.9231890">
        <ele>352.4</ele>
        <time>2022-06-28T17:57:21Z</time>
      </trkpt>
      <trkpt lat="41.5885410" lon="1.9231330">
        <ele>351.4</ele>
        <time>2022-06-28T17:57:23Z</time>
      </trkpt>
      <trkpt lat="41.5883770" lon="1.9230270">
        <ele>350.2</ele>
        <time>2022-06-28T17:57:25Z</time>
      </trkpt>
      <trkpt lat="41.5882190" lon="1.9229270">
        <ele>348.6</ele>
        <time>2022-06-28T17:57:27Z</time>
      </trkpt>
      <trkpt lat="41.5881320" lon="1.9228860">
        <ele>347.8</ele>
        <time>2022-06-28T17:57:28Z</time>
      </trkpt>
      <trkpt lat="41.5880380" lon="1.9228530">
        <ele>347.6</ele>
        <time>2022-06-28T17:57:29Z</time>
      </trkpt>
      <trkpt lat="41.5879380" lon="1.9228240">
        <ele>346.2</ele>
        <time>2022-06-28T17:57:30Z</time>
      </trkpt>
      <trkpt lat="41.5878400" lon="1.9227850">
        <ele>345.8</ele>
        <time>2022-06-28T17:57:31Z</time>
      </trkpt>
      <trkpt lat="41.5877430" lon="1.9227330">
        <ele>344.8</ele>
        <time>2022-06-28T17:57:32Z</time>
      </trkpt>
      <trkpt lat="41.5874420" lon="1.9225770">
        <ele>343.4</ele>
        <time>2022-06-28T17:57:35Z</time>
      </trkpt>
      <trkpt lat="41.5873360" lon="1.9225310">
        <ele>342.8</ele>
        <time>2022-06-28T17:57:36Z</time>
      </trkpt>
      <trkpt lat="41.5872310" lon="1.9225010">
        <ele>342.2</ele>
        <time>2022-06-28T17:57:37Z</time>
      </trkpt>
      <trkpt lat="41.5871200" lon="1.9224850">
        <ele>342.0</ele>
        <time>2022-06-28T17:57:38Z</time>
      </trkpt>
      <trkpt lat="41.5870030" lon="1.9224710">
        <ele>341.0</ele>
        <time>2022-06-28T17:57:39Z</time>
      </trkpt>
      <trkpt lat="41.5868830" lon="1.9224610">
        <ele>340.6</ele>
        <time>2022-06-28T17:57:40Z</time>
      </trkpt>
      <trkpt lat="41.5867570" lon="1.9224510">
        <ele>339.8</ele>
        <time>2022-06-28T17:57:41Z</time>
      </trkpt>
      <trkpt lat="41.5866430" lon="1.9224330">
        <ele>338.6</ele>
        <time>2022-06-28T17:57:42Z</time>
      </trkpt>
      <trkpt lat="41.5864290" lon="1.9223760">
        <ele>337.4</ele>
        <time>2022-06-28T17:57:44Z</time>
      </trkpt>
      <trkpt lat="41.5863270" lon="1.9223430">
        <ele>337.0</ele>
        <time>2022-06-28T17:57:45Z</time>
      </trkpt>
      <trkpt lat="41.5862330" lon="1.9222980">
        <ele>336.2</ele>
        <time>2022-06-28T17:57:46Z</time>
      </trkpt>
      <trkpt lat="41.5860460" lon="1.9221870">
        <ele>334.8</ele>
        <time>2022-06-28T17:57:48Z</time>
      </trkpt>
      <trkpt lat="41.5859540" lon="1.9221300">
        <ele>333.6</ele>
        <time>2022-06-28T17:57:49Z</time>
      </trkpt>
      <trkpt lat="41.5857590" lon="1.9220240">
        <ele>332.0</ele>
        <time>2022-06-28T17:57:51Z</time>
      </trkpt>
      <trkpt lat="41.5855500" lon="1.9219370">
        <ele>330.0</ele>
        <time>2022-06-28T17:57:53Z</time>
      </trkpt>
      <trkpt lat="41.5854500" lon="1.9218940">
        <ele>329.6</ele>
        <time>2022-06-28T17:57:54Z</time>
      </trkpt>
      <trkpt lat="41.5853500" lon="1.9218520">
        <ele>328.4</ele>
        <time>2022-06-28T17:57:55Z</time>
      </trkpt>
      <trkpt lat="41.5851570" lon="1.9217770">
        <ele>327.2</ele>
        <time>2022-06-28T17:57:57Z</time>
      </trkpt>
      <trkpt lat="41.5848850" lon="1.9216890">
        <ele>326.4</ele>
        <time>2022-06-28T17:58:00Z</time>
      </trkpt>
      <trkpt lat="41.5845650" lon="1.9216570">
        <ele>326.4</ele>
        <time>2022-06-28T17:58:04Z</time>
      </trkpt>
      <trkpt lat="41.5844930" lon="1.9216660">
        <ele>327.0</ele>
        <time>2022-06-28T17:58:05Z</time>
      </trkpt>
      <trkpt lat="41.5842710" lon="1.9217050">
        <ele>328.0</ele>
        <time>2022-06-28T17:58:08Z</time>
      </trkpt>
      <trkpt lat="41.5842050" lon="1.9217220">
        <ele>328.2</ele>
        <time>2022-06-28T17:58:09Z</time>
      </trkpt>
      <trkpt lat="41.5839630" lon="1.9217560">
        <ele>329.2</ele>
        <time>2022-06-28T17:58:13Z</time>
      </trkpt>
      <trkpt lat="41.5839020" lon="1.9217560">
        <ele>329.6</ele>
        <time>2022-06-28T17:58:14Z</time>
      </trkpt>
      <trkpt lat="41.5838460" lon="1.9217480">
        <ele>329.8</ele>
        <time>2022-06-28T17:58:15Z</time>
      </trkpt>
      <trkpt lat="41.5837460" lon="1.9217020">
        <ele>330.4</ele>
        <time>2022-06-28T17:58:17Z</time>
      </trkpt>
      <trkpt lat="41.5837040" lon="1.9216680">
        <ele>330.6</ele>
        <time>2022-06-28T17:58:18Z</time>
      </trkpt>
      <trkpt lat="41.5835490" lon="1.9214970">
        <ele>331.4</ele>
        <time>2022-06-28T17:58:22Z</time>
      </trkpt>
      <trkpt lat="41.5834690" lon="1.9214140">
        <ele>331.8</ele>
        <time>2022-06-28T17:58:24Z</time>
      </trkpt>
      <trkpt lat="41.5832820" lon="1.9212740">
        <ele>331.8</ele>
        <time>2022-06-28T17:58:28Z</time>
      </trkpt>
      <trkpt lat="41.5830610" lon="1.9211830">
        <ele>331.8</ele>
        <time>2022-06-28T17:58:32Z</time>
      </trkpt>
      <trkpt lat="41.5829920" lon="1.9211840">
        <ele>331.8</ele>
        <time>2022-06-28T17:58:33Z</time>
      </trkpt>
      <trkpt lat="41.5829280" lon="1.9211960">
        <ele>331.6</ele>
        <time>2022-06-28T17:58:34Z</time>
      </trkpt>
      <trkpt lat="41.5826650" lon="1.9212710">
        <ele>330.4</ele>
        <time>2022-06-28T17:58:38Z</time>
      </trkpt>
      <trkpt lat="41.5822700" lon="1.9213880">
        <ele>329.2</ele>
        <time>2022-06-28T17:58:43Z</time>
      </trkpt>
      <trkpt lat="41.5821940" lon="1.9214060">
        <ele>328.8</ele>
        <time>2022-06-28T17:58:44Z</time>
      </trkpt>
      <trkpt lat="41.5821280" lon="1.9214120">
        <ele>328.6</ele>
        <time>2022-06-28T17:58:45Z</time>
      </trkpt>
      <trkpt lat="41.5819480" lon="1.9213670">
        <ele>328.0</ele>
        <time>2022-06-28T17:58:47Z</time>
      </trkpt>
      <trkpt lat="41.5818090" lon="1.9212630">
        <ele>326.8</ele>
        <time>2022-06-28T17:58:49Z</time>
      </trkpt>
      <trkpt lat="41.5816580" lon="1.9211360">
        <ele>326.0</ele>
        <time>2022-06-28T17:58:51Z</time>
      </trkpt>
      <trkpt lat="41.5815810" lon="1.9210710">
        <ele>325.2</ele>
        <time>2022-06-28T17:58:52Z</time>
      </trkpt>
      <trkpt lat="41.5813420" lon="1.9208760">
        <ele>323.8</ele>
        <time>2022-06-28T17:58:55Z</time>
      </trkpt>
      <trkpt lat="41.5810920" lon="1.9206740">
        <ele>322.6</ele>
        <time>2022-06-28T17:58:58Z</time>
      </trkpt>
      <trkpt lat="41.5809250" lon="1.9205360">
        <ele>321.4</ele>
        <time>2022-06-28T17:59:00Z</time>
      </trkpt>
      <trkpt lat="41.5807540" lon="1.9203970">
        <ele>320.2</ele>
        <time>2022-06-28T17:59:02Z</time>
      </trkpt>
      <trkpt lat="41.5805760" lon="1.9202730">
        <ele>319.0</ele>
        <time>2022-06-28T17:59:04Z</time>
      </trkpt>
      <trkpt lat="41.5804820" lon="1.9202220">
        <ele>318.4</ele>
        <time>2022-06-28T17:59:05Z</time>
      </trkpt>
      <trkpt lat="41.5803820" lon="1.9201740">
        <ele>317.8</ele>
        <time>2022-06-28T17:59:06Z</time>
      </trkpt>
      <trkpt lat="41.5802780" lon="1.9201350">
        <ele>317.4</ele>
        <time>2022-06-28T17:59:07Z</time>
      </trkpt>
      <trkpt lat="41.5800710" lon="1.9200750">
        <ele>316.4</ele>
        <time>2022-06-28T17:59:09Z</time>
      </trkpt>
      <trkpt lat="41.5799720" lon="1.9200570">
        <ele>316.0</ele>
        <time>2022-06-28T17:59:10Z</time>
      </trkpt>
      <trkpt lat="41.5797850" lon="1.9200520">
        <ele>315.4</ele>
        <time>2022-06-28T17:59:12Z</time>
      </trkpt>
      <trkpt lat="41.5796950" lon="1.9200660">
        <ele>315.2</ele>
        <time>2022-06-28T17:59:13Z</time>
      </trkpt>
      <trkpt lat="41.5791620" lon="1.9202060">
        <ele>314.6</ele>
        <time>2022-06-28T17:59:19Z</time>
      </trkpt>
      <trkpt lat="41.5789900" lon="1.9202100">
        <ele>314.2</ele>
        <time>2022-06-28T17:59:21Z</time>
      </trkpt>
      <trkpt lat="41.5787270" lon="1.9201900">
        <ele>314.0</ele>
        <time>2022-06-28T17:59:24Z</time>
      </trkpt>
      <trkpt lat="41.5781080" lon="1.9201550">
        <ele>313.2</ele>
        <time>2022-06-28T17:59:31Z</time>
      </trkpt>
      <trkpt lat="41.5779410" lon="1.9201260">
        <ele>313.2</ele>
        <time>2022-06-28T17:59:33Z</time>
      </trkpt>
      <trkpt lat="41.5778580" lon="1.9201040">
        <ele>313.0</ele>
        <time>2022-06-28T17:59:34Z</time>
      </trkpt>
      <trkpt lat="41.5777080" lon="1.9200240">
        <ele>313.0</ele>
        <time>2022-06-28T17:59:36Z</time>
      </trkpt>
      <trkpt lat="41.5776350" lon="1.9199770">
        <ele>313.0</ele>
        <time>2022-06-28T17:59:37Z</time>
      </trkpt>
      <trkpt lat="41.5772550" lon="1.9197110">
        <ele>312.0</ele>
        <time>2022-06-28T17:59:42Z</time>
      </trkpt>
      <trkpt lat="41.5770120" lon="1.9195460">
        <ele>311.0</ele>
        <time>2022-06-28T17:59:45Z</time>
      </trkpt>
      <trkpt lat="41.5769260" lon="1.9195030">
        <ele>310.4</ele>
        <time>2022-06-28T17:59:46Z</time>
      </trkpt>
      <trkpt lat="41.5767430" lon="1.9194380">
        <ele>309.8</ele>
        <time>2022-06-28T17:59:48Z</time>
      </trkpt>
      <trkpt lat="41.5766450" lon="1.9194210">
        <ele>309.4</ele>
        <time>2022-06-28T17:59:49Z</time>
      </trkpt>
      <trkpt lat="41.5765500" lon="1.9194140">
        <ele>309.0</ele>
        <time>2022-06-28T17:59:50Z</time>
      </trkpt>
      <trkpt lat="41.5764580" lon="1.9194180">
        <ele>308.6</ele>
        <time>2022-06-28T17:59:51Z</time>
      </trkpt>
      <trkpt lat="41.5762750" lon="1.9194770">
        <ele>308.0</ele>
        <time>2022-06-28T17:59:53Z</time>
      </trkpt>
      <trkpt lat="41.5760300" lon="1.9196230">
        <ele>307.0</ele>
        <time>2022-06-28T17:59:56Z</time>
      </trkpt>
      <trkpt lat="41.5758740" lon="1.9197260">
        <ele>306.6</ele>
        <time>2022-06-28T17:59:58Z</time>
      </trkpt>
      <trkpt lat="41.5757250" lon="1.9197470">
        <ele>306.4</ele>
        <time>2022-06-28T18:00:00Z</time>
      </trkpt>
      <trkpt lat="41.5756570" lon="1.9197140">
        <ele>306.2</ele>
        <time>2022-06-28T18:00:01Z</time>
      </trkpt>
      <trkpt lat="41.5755830" lon="1.9196850">
        <ele>306.2</ele>
        <time>2022-06-28T18:00:02Z</time>
      </trkpt>
      <trkpt lat="41.5754330" lon="1.9196810">
        <ele>306.4</ele>
        <time>2022-06-28T18:00:04Z</time>
      </trkpt>
      <trkpt lat="41.5753090" lon="1.9197640">
        <ele>306.6</ele>
        <time>2022-06-28T18:00:06Z</time>
      </trkpt>
      <trkpt lat="41.5752540" lon="1.9198360">
        <ele>306.6</ele>
        <time>2022-06-28T18:00:07Z</time>
      </trkpt>
      <trkpt lat="41.5750020" lon="1.9202270">
        <ele>306.2</ele>
        <time>2022-06-28T18:00:12Z</time>
      </trkpt>
      <trkpt lat="41.5749340" lon="1.9202830">
        <ele>306.2</ele>
        <time>2022-06-28T18:00:13Z</time>
      </trkpt>
      <trkpt lat="41.5748660" lon="1.9203220">
        <ele>306.2</ele>
        <time>2022-06-28T18:00:14Z</time>
      </trkpt>
      <trkpt lat="41.5747920" lon="1.9203400">
        <ele>306.0</ele>
        <time>2022-06-28T18:00:15Z</time>
      </trkpt>
      <trkpt lat="41.5747150" lon="1.9203440">
        <ele>306.0</ele>
        <time>2022-06-28T18:00:16Z</time>
      </trkpt>
      <trkpt lat="41.5745710" lon="1.9202920">
        <ele>305.8</ele>
        <time>2022-06-28T18:00:18Z</time>
      </trkpt>
      <trkpt lat="41.5745120" lon="1.9202330">
        <ele>305.6</ele>
        <time>2022-06-28T18:00:19Z</time>
      </trkpt>
      <trkpt lat="41.5744720" lon="1.9201500">
        <ele>305.4</ele>
        <time>2022-06-28T18:00:20Z</time>
      </trkpt>
      <trkpt lat="41.5743720" lon="1.9198680">
        <ele>305.4</ele>
        <time>2022-06-28T18:00:23Z</time>
      </trkpt>
      <trkpt lat="41.5743300" lon="1.9197830">
        <ele>305.4</ele>
        <time>2022-06-28T18:00:24Z</time>
      </trkpt>
      <trkpt lat="41.5742260" lon="1.9196370">
        <ele>305.2</ele>
        <time>2022-06-28T18:00:26Z</time>
      </trkpt>
      <trkpt lat="41.5741010" lon="1.9195480">
        <ele>304.8</ele>
        <time>2022-06-28T18:00:28Z</time>
      </trkpt>
      <trkpt lat="41.5740270" lon="1.9195240">
        <ele>304.6</ele>
        <time>2022-06-28T18:00:29Z</time>
      </trkpt>
      <trkpt lat="41.5737180" lon="1.9194550">
        <ele>303.4</ele>
        <time>2022-06-28T18:00:33Z</time>
      </trkpt>
      <trkpt lat="41.5735610" lon="1.9194840">
        <ele>303.0</ele>
        <time>2022-06-28T18:00:35Z</time>
      </trkpt>
      <trkpt lat="41.5734230" lon="1.9195880">
        <ele>302.6</ele>
        <time>2022-06-28T18:00:37Z</time>
      </trkpt>
      <trkpt lat="41.5733550" lon="1.9196700">
        <ele>302.4</ele>
        <time>2022-06-28T18:00:38Z</time>
      </trkpt>
      <trkpt lat="41.5730110" lon="1.9201430">
        <ele>301.2</ele>
        <time>2022-06-28T18:00:43Z</time>
      </trkpt>
      <trkpt lat="41.5729390" lon="1.9202350">
        <ele>300.8</ele>
        <time>2022-06-28T18:00:44Z</time>
      </trkpt>
      <trkpt lat="41.5728660" lon="1.9203200">
        <ele>300.0</ele>
        <time>2022-06-28T18:00:45Z</time>
      </trkpt>
      <trkpt lat="41.5725060" lon="1.9207060">
        <ele>299.2</ele>
        <time>2022-06-28T18:00:50Z</time>
      </trkpt>
      <trkpt lat="41.5722690" lon="1.9209200">
        <ele>299.2</ele>
        <time>2022-06-28T18:00:53Z</time>
      </trkpt>
      <trkpt lat="41.5721820" lon="1.9209650">
        <ele>299.2</ele>
        <time>2022-06-28T18:00:54Z</time>
      </trkpt>
      <trkpt lat="41.5717260" lon="1.9210780">
        <ele>299.4</ele>
        <time>2022-06-28T18:00:59Z</time>
      </trkpt>
      <trkpt lat="41.5716370" lon="1.9210830">
        <ele>299.4</ele>
        <time>2022-06-28T18:01:00Z</time>
      </trkpt>
      <trkpt lat="41.5714710" lon="1.9210300">
        <ele>299.2</ele>
        <time>2022-06-28T18:01:02Z</time>
      </trkpt>
      <trkpt lat="41.5712380" lon="1.9209020">
        <ele>299.0</ele>
        <time>2022-06-28T18:01:05Z</time>
      </trkpt>
      <trkpt lat="41.5711560" lon="1.9208760">
        <ele>298.8</ele>
        <time>2022-06-28T18:01:06Z</time>
      </trkpt>
      <trkpt lat="41.5705800" lon="1.9207750">
        <ele>297.6</ele>
        <time>2022-06-28T18:01:12Z</time>
      </trkpt>
      <trkpt lat="41.5704740" lon="1.9207480">
        <ele>297.2</ele>
        <time>2022-06-28T18:01:13Z</time>
      </trkpt>
      <trkpt lat="41.5702700" lon="1.9206680">
        <ele>296.0</ele>
        <time>2022-06-28T18:01:15Z</time>
      </trkpt>
      <trkpt lat="41.5701710" lon="1.9206310">
        <ele>295.4</ele>
        <time>2022-06-28T18:01:16Z</time>
      </trkpt>
      <trkpt lat="41.5699550" lon="1.9206460">
        <ele>294.4</ele>
        <time>2022-06-28T18:01:18Z</time>
      </trkpt>
      <trkpt lat="41.5697930" lon="1.9208110">
        <ele>292.6</ele>
        <time>2022-06-28T18:01:20Z</time>
      </trkpt>
      <trkpt lat="41.5695680" lon="1.9211660">
        <ele>291.0</ele>
        <time>2022-06-28T18:01:23Z</time>
      </trkpt>
      <trkpt lat="41.5693920" lon="1.9213930">
        <ele>289.8</ele>
        <time>2022-06-28T18:01:25Z</time>
      </trkpt>
      <trkpt lat="41.5691750" lon="1.9215920">
        <ele>288.4</ele>
        <time>2022-06-28T18:01:27Z</time>
      </trkpt>
      <trkpt lat="41.5689690" lon="1.9217860">
        <ele>286.4</ele>
        <time>2022-06-28T18:01:29Z</time>
      </trkpt>
      <trkpt lat="41.5688250" lon="1.9220310">
        <ele>285.0</ele>
        <time>2022-06-28T18:01:31Z</time>
      </trkpt>
      <trkpt lat="41.5687750" lon="1.9221760">
        <ele>283.2</ele>
        <time>2022-06-28T18:01:32Z</time>
      </trkpt>
      <trkpt lat="41.5687530" lon="1.9223320">
        <ele>282.6</ele>
        <time>2022-06-28T18:01:33Z</time>
      </trkpt>
      <trkpt lat="41.5687510" lon="1.9224810">
        <ele>281.6</ele>
        <time>2022-06-28T18:01:34Z</time>
      </trkpt>
      <trkpt lat="41.5687420" lon="1.9226210">
        <ele>281.0</ele>
        <time>2022-06-28T18:01:35Z</time>
      </trkpt>
      <trkpt lat="41.5687170" lon="1.9227550">
        <ele>280.4</ele>
        <time>2022-06-28T18:01:36Z</time>
      </trkpt>
      <trkpt lat="41.5686800" lon="1.9228790">
        <ele>279.8</ele>
        <time>2022-06-28T18:01:37Z</time>
      </trkpt>
      <trkpt lat="41.5685750" lon="1.9230910">
        <ele>279.2</ele>
        <time>2022-06-28T18:01:39Z</time>
      </trkpt>
      <trkpt lat="41.5684490" lon="1.9232770">
        <ele>278.6</ele>
        <time>2022-06-28T18:01:41Z</time>
      </trkpt>
      <trkpt lat="41.5681440" lon="1.9235690">
        <ele>278.0</ele>
        <time>2022-06-28T18:01:45Z</time>
      </trkpt>
      <trkpt lat="41.5677830" lon="1.9237490">
        <ele>277.2</ele>
        <time>2022-06-28T18:01:49Z</time>
      </trkpt>
      <trkpt lat="41.5676010" lon="1.9237730">
        <ele>276.6</ele>
        <time>2022-06-28T18:01:51Z</time>
      </trkpt>
      <trkpt lat="41.5674950" lon="1.9237600">
        <ele>276.4</ele>
        <time>2022-06-28T18:01:52Z</time>
      </trkpt>
      <trkpt lat="41.5673990" lon="1.9237270">
        <ele>276.0</ele>
        <time>2022-06-28T18:01:53Z</time>
      </trkpt>
      <trkpt lat="41.5672360" lon="1.9236050">
        <ele>275.2</ele>
        <time>2022-06-28T18:01:55Z</time>
      </trkpt>
      <trkpt lat="41.5670960" lon="1.9234380">
        <ele>275.0</ele>
        <time>2022-06-28T18:01:57Z</time>
      </trkpt>
      <trkpt lat="41.5670110" lon="1.9232280">
        <ele>274.4</ele>
        <time>2022-06-28T18:01:59Z</time>
      </trkpt>
      <trkpt lat="41.5669890" lon="1.9231050">
        <ele>274.0</ele>
        <time>2022-06-28T18:02:00Z</time>
      </trkpt>
      <trkpt lat="41.5669230" lon="1.9227620">
        <ele>273.4</ele>
        <time>2022-06-28T18:02:03Z</time>
      </trkpt>
      <trkpt lat="41.5668130" lon="1.9224530">
        <ele>273.2</ele>
        <time>2022-06-28T18:02:07Z</time>
      </trkpt>
      <trkpt lat="41.5667200" lon="1.9222770">
        <ele>273.6</ele>
        <time>2022-06-28T18:02:11Z</time>
      </trkpt>
      <trkpt lat="41.5666490" lon="1.9222190">
        <ele>273.8</ele>
        <time>2022-06-28T18:02:15Z</time>
      </trkpt>
      <trkpt lat="41.5666430" lon="1.9222170">
        <ele>274.0</ele>
        <time>2022-06-28T18:02:18Z</time>
      </trkpt>
      <trkpt lat="41.5665830" lon="1.9221710">
        <ele>273.8</ele>
        <time>2022-06-28T18:02:59Z</time>
      </trkpt>
      <trkpt lat="41.5664670" lon="1.9221110">
        <ele>273.8</ele>
        <time>2022-06-28T18:03:02Z</time>
      </trkpt>
      <trkpt lat="41.5664160" lon="1.9220930">
        <ele>273.8</ele>
        <time>2022-06-28T18:03:03Z</time>
      </trkpt>
      <trkpt lat="41.5663600" lon="1.9220710">
        <ele>273.6</ele>
        <time>2022-06-28T18:03:04Z</time>
      </trkpt>
      <trkpt lat="41.5662900" lon="1.9220210">
        <ele>273.6</ele>
        <time>2022-06-28T18:03:06Z</time>
      </trkpt>
      <trkpt lat="41.5660520" lon="1.9218810">
        <ele>273.8</ele>
        <time>2022-06-28T18:03:11Z</time>
      </trkpt>
      <trkpt lat="41.5658980" lon="1.9217880">
        <ele>274.4</ele>
        <time>2022-06-28T18:03:14Z</time>
      </trkpt>
      <trkpt lat="41.5658070" lon="1.9217280">
        <ele>275.2</ele>
        <time>2022-06-28T18:03:16Z</time>
      </trkpt>
      <trkpt lat="41.5657690" lon="1.9216960">
        <ele>275.4</ele>
        <time>2022-06-28T18:03:17Z</time>
      </trkpt>
      <trkpt lat="41.5656580" lon="1.9216510">
        <ele>275.8</ele>
        <time>2022-06-28T18:03:19Z</time>
      </trkpt>
      <trkpt lat="41.5655520" lon="1.9215910">
        <ele>276.2</ele>
        <time>2022-06-28T18:03:21Z</time>
      </trkpt>
      <trkpt lat="41.5653010" lon="1.9214520">
        <ele>276.4</ele>
        <time>2022-06-28T18:03:26Z</time>
      </trkpt>
      <trkpt lat="41.5652530" lon="1.9214100">
        <ele>276.6</ele>
        <time>2022-06-28T18:03:27Z</time>
      </trkpt>
      <trkpt lat="41.5651640" lon="1.9212980">
        <ele>276.6</ele>
        <time>2022-06-28T18:03:29Z</time>
      </trkpt>
      <trkpt lat="41.5650640" lon="1.9211630">
        <ele>276.4</ele>
        <time>2022-06-28T18:03:31Z</time>
      </trkpt>
      <trkpt lat="41.5650040" lon="1.9211000">
        <ele>276.2</ele>
        <time>2022-06-28T18:03:32Z</time>
      </trkpt>
      <trkpt lat="41.5648590" lon="1.9209790">
        <ele>275.6</ele>
        <time>2022-06-28T18:03:34Z</time>
      </trkpt>
      <trkpt lat="41.5647680" lon="1.9209380">
        <ele>275.0</ele>
        <time>2022-06-28T18:03:35Z</time>
      </trkpt>
      <trkpt lat="41.5646700" lon="1.9209120">
        <ele>274.8</ele>
        <time>2022-06-28T18:03:36Z</time>
      </trkpt>
      <trkpt lat="41.5645650" lon="1.9209150">
        <ele>274.2</ele>
        <time>2022-06-28T18:03:37Z</time>
      </trkpt>
      <trkpt lat="41.5644690" lon="1.9209480">
        <ele>273.8</ele>
        <time>2022-06-28T18:03:38Z</time>
      </trkpt>
      <trkpt lat="41.5643100" lon="1.9210810">
        <ele>272.2</ele>
        <time>2022-06-28T18:03:40Z</time>
      </trkpt>
      <trkpt lat="41.5641600" lon="1.9212540">
        <ele>271.2</ele>
        <time>2022-06-28T18:03:42Z</time>
      </trkpt>
      <trkpt lat="41.5640200" lon="1.9213810">
        <ele>270.6</ele>
        <time>2022-06-28T18:03:44Z</time>
      </trkpt>
      <trkpt lat="41.5639460" lon="1.9214020">
        <ele>270.4</ele>
        <time>2022-06-28T18:03:45Z</time>
      </trkpt>
      <trkpt lat="41.5638730" lon="1.9213930">
        <ele>270.0</ele>
        <time>2022-06-28T18:03:46Z</time>
      </trkpt>
      <trkpt lat="41.5637470" lon="1.9212970">
        <ele>269.8</ele>
        <time>2022-06-28T18:03:48Z</time>
      </trkpt>
      <trkpt lat="41.5634500" lon="1.9209300">
        <ele>270.2</ele>
        <time>2022-06-28T18:03:54Z</time>
      </trkpt>
      <trkpt lat="41.5632060" lon="1.9206180">
        <ele>271.2</ele>
        <time>2022-06-28T18:03:59Z</time>
      </trkpt>
      <trkpt lat="41.5630570" lon="1.9204240">
        <ele>271.8</ele>
        <time>2022-06-28T18:04:02Z</time>
      </trkpt>
      <trkpt lat="41.5627570" lon="1.9201160">
        <ele>272.0</ele>
        <time>2022-06-28T18:04:07Z</time>
      </trkpt>
      <trkpt lat="41.5627020" lon="1.9200460">
        <ele>272.0</ele>
        <time>2022-06-28T18:04:08Z</time>
      </trkpt>
      <trkpt lat="41.5626550" lon="1.9199710">
        <ele>272.0</ele>
        <time>2022-06-28T18:04:09Z</time>
      </trkpt>
      <trkpt lat="41.5625620" lon="1.9197250">
        <ele>271.8</ele>
        <time>2022-06-28T18:04:12Z</time>
      </trkpt>
      <trkpt lat="41.5624410" lon="1.9195360">
        <ele>272.0</ele>
        <time>2022-06-28T18:04:15Z</time>
      </trkpt>
      <trkpt lat="41.5623590" lon="1.9194980">
        <ele>272.0</ele>
        <time>2022-06-28T18:04:16Z</time>
      </trkpt>
      <trkpt lat="41.5622870" lon="1.9194920">
        <ele>272.2</ele>
        <time>2022-06-28T18:04:17Z</time>
      </trkpt>
      <trkpt lat="41.5622140" lon="1.9194890">
        <ele>272.4</ele>
        <time>2022-06-28T18:04:18Z</time>
      </trkpt>
      <trkpt lat="41.5620720" lon="1.9195090">
        <ele>272.6</ele>
        <time>2022-06-28T18:04:20Z</time>
      </trkpt>
      <trkpt lat="41.5616190" lon="1.9195920">
        <ele>272.4</ele>
        <time>2022-06-28T18:04:26Z</time>
      </trkpt>
      <trkpt lat="41.5614590" lon="1.9196050">
        <ele>272.0</ele>
        <time>2022-06-28T18:04:28Z</time>
      </trkpt>
      <trkpt lat="41.5613110" lon="1.9195880">
        <ele>272.0</ele>
        <time>2022-06-28T18:04:30Z</time>
      </trkpt>
      <trkpt lat="41.5612240" lon="1.9195490">
        <ele>271.6</ele>
        <time>2022-06-28T18:04:31Z</time>
      </trkpt>
      <trkpt lat="41.5611580" lon="1.9194990">
        <ele>271.6</ele>
        <time>2022-06-28T18:04:32Z</time>
      </trkpt>
      <trkpt lat="41.5610410" lon="1.9193890">
        <ele>271.4</ele>
        <time>2022-06-28T18:04:34Z</time>
      </trkpt>
      <trkpt lat="41.5609860" lon="1.9193640">
        <ele>271.4</ele>
        <time>2022-06-28T18:04:35Z</time>
      </trkpt>
      <trkpt lat="41.5609110" lon="1.9193500">
        <ele>271.2</ele>
        <time>2022-06-28T18:04:36Z</time>
      </trkpt>
      <trkpt lat="41.5607740" lon="1.9194030">
        <ele>271.2</ele>
        <time>2022-06-28T18:04:38Z</time>
      </trkpt>
      <trkpt lat="41.5606760" lon="1.9195290">
        <ele>271.0</ele>
        <time>2022-06-28T18:04:40Z</time>
      </trkpt>
      <trkpt lat="41.5606330" lon="1.9196070">
        <ele>271.2</ele>
        <time>2022-06-28T18:04:41Z</time>
      </trkpt>
      <trkpt lat="41.5605850" lon="1.9196720">
        <ele>271.2</ele>
        <time>2022-06-28T18:04:42Z</time>
      </trkpt>
      <trkpt lat="41.5604520" lon="1.9197730">
        <ele>271.2</ele>
        <time>2022-06-28T18:04:44Z</time>
      </trkpt>
      <trkpt lat="41.5603310" lon="1.9198100">
        <ele>271.4</ele>
        <time>2022-06-28T18:04:46Z</time>
      </trkpt>
      <trkpt lat="41.5602010" lon="1.9198050">
        <ele>271.8</ele>
        <time>2022-06-28T18:04:48Z</time>
      </trkpt>
      <trkpt lat="41.5598780" lon="1.9196810">
        <ele>272.0</ele>
        <time>2022-06-28T18:04:53Z</time>
      </trkpt>
      <trkpt lat="41.5593600" lon="1.9194380">
        <ele>271.4</ele>
        <time>2022-06-28T18:05:01Z</time>
      </trkpt>
      <trkpt lat="41.5592040" lon="1.9192680">
        <ele>271.0</ele>
        <time>2022-06-28T18:05:04Z</time>
      </trkpt>
      <trkpt lat="41.5591570" lon="1.9191980">
        <ele>270.8</ele>
        <time>2022-06-28T18:05:05Z</time>
      </trkpt>
      <trkpt lat="41.5591210" lon="1.9191250">
        <ele>270.4</ele>
        <time>2022-06-28T18:05:06Z</time>
      </trkpt>
      <trkpt lat="41.5590580" lon="1.9189640">
        <ele>270.0</ele>
        <time>2022-06-28T18:05:08Z</time>
      </trkpt>
      <trkpt lat="41.5590290" lon="1.9188860">
        <ele>269.6</ele>
        <time>2022-06-28T18:05:09Z</time>
      </trkpt>
      <trkpt lat="41.5588660" lon="1.9183980">
        <ele>269.2</ele>
        <time>2022-06-28T18:05:15Z</time>
      </trkpt>
      <trkpt lat="41.5586520" lon="1.9179130">
        <ele>269.8</ele>
        <time>2022-06-28T18:05:21Z</time>
      </trkpt>
      <trkpt lat="41.5586150" lon="1.9178380">
        <ele>269.8</ele>
        <time>2022-06-28T18:05:22Z</time>
      </trkpt>
      <trkpt lat="41.5583390" lon="1.9174160">
        <ele>270.8</ele>
        <time>2022-06-28T18:05:28Z</time>
      </trkpt>
      <trkpt lat="41.5582930" lon="1.9173400">
        <ele>271.0</ele>
        <time>2022-06-28T18:05:29Z</time>
      </trkpt>
      <trkpt lat="41.5582180" lon="1.9171630">
        <ele>271.0</ele>
        <time>2022-06-28T18:05:31Z</time>
      </trkpt>
      <trkpt lat="41.5581960" lon="1.9170640">
        <ele>271.0</ele>
        <time>2022-06-28T18:05:32Z</time>
      </trkpt>
      <trkpt lat="41.5581860" lon="1.9169580">
        <ele>271.0</ele>
        <time>2022-06-28T18:05:33Z</time>
      </trkpt>
      <trkpt lat="41.5581920" lon="1.9166380">
        <ele>271.0</ele>
        <time>2022-06-28T18:05:36Z</time>
      </trkpt>
      <trkpt lat="41.5581810" lon="1.9165290">
        <ele>270.0</ele>
        <time>2022-06-28T18:05:37Z</time>
      </trkpt>
      <trkpt lat="41.5581350" lon="1.9163190">
        <ele>269.0</ele>
        <time>2022-06-28T18:05:39Z</time>
      </trkpt>
      <trkpt lat="41.5580890" lon="1.9162340">
        <ele>268.8</ele>
        <time>2022-06-28T18:05:40Z</time>
      </trkpt>
      <trkpt lat="41.5580280" lon="1.9161720">
        <ele>268.6</ele>
        <time>2022-06-28T18:05:41Z</time>
      </trkpt>
      <trkpt lat="41.5579560" lon="1.9161340">
        <ele>268.2</ele>
        <time>2022-06-28T18:05:42Z</time>
      </trkpt>
      <trkpt lat="41.5578820" lon="1.9161350">
        <ele>268.2</ele>
        <time>2022-06-28T18:05:43Z</time>
      </trkpt>
      <trkpt lat="41.5578180" lon="1.9161780">
        <ele>268.0</ele>
        <time>2022-06-28T18:05:44Z</time>
      </trkpt>
      <trkpt lat="41.5577510" lon="1.9162600">
        <ele>268.0</ele>
        <time>2022-06-28T18:05:45Z</time>
      </trkpt>
      <trkpt lat="41.5576710" lon="1.9164500">
        <ele>268.0</ele>
        <time>2022-06-28T18:05:47Z</time>
      </trkpt>
      <trkpt lat="41.5575130" lon="1.9169970">
        <ele>269.2</ele>
        <time>2022-06-28T18:05:53Z</time>
      </trkpt>
      <trkpt lat="41.5574910" lon="1.9170770">
        <ele>270.2</ele>
        <time>2022-06-28T18:05:54Z</time>
      </trkpt>
      <trkpt lat="41.5574650" lon="1.9171540">
        <ele>270.4</ele>
        <time>2022-06-28T18:05:55Z</time>
      </trkpt>
      <trkpt lat="41.5573870" lon="1.9172830">
        <ele>271.2</ele>
        <time>2022-06-28T18:05:57Z</time>
      </trkpt>
      <trkpt lat="41.5572650" lon="1.9173490">
        <ele>271.8</ele>
        <time>2022-06-28T18:05:59Z</time>
      </trkpt>
      <trkpt lat="41.5572080" lon="1.9173340">
        <ele>272.0</ele>
        <time>2022-06-28T18:06:00Z</time>
      </trkpt>
      <trkpt lat="41.5571560" lon="1.9173010">
        <ele>272.2</ele>
        <time>2022-06-28T18:06:01Z</time>
      </trkpt>
      <trkpt lat="41.5571050" lon="1.9172650">
        <ele>272.4</ele>
        <time>2022-06-28T18:06:02Z</time>
      </trkpt>
      <trkpt lat="41.5570090" lon="1.9171720">
        <ele>272.6</ele>
        <time>2022-06-28T18:06:04Z</time>
      </trkpt>
      <trkpt lat="41.5569660" lon="1.9171140">
        <ele>272.6</ele>
        <time>2022-06-28T18:06:05Z</time>
      </trkpt>
      <trkpt lat="41.5569330" lon="1.9170470">
        <ele>272.8</ele>
        <time>2022-06-28T18:06:06Z</time>
      </trkpt>
      <trkpt lat="41.5569330" lon="1.9168680">
        <ele>272.8</ele>
        <time>2022-06-28T18:06:08Z</time>
      </trkpt>
      <trkpt lat="41.5570520" lon="1.9164790">
        <ele>271.8</ele>
        <time>2022-06-28T18:06:12Z</time>
      </trkpt>
      <trkpt lat="41.5570800" lon="1.9162500">
        <ele>271.0</ele>
        <time>2022-06-28T18:06:14Z</time>
      </trkpt>
      <trkpt lat="41.5570750" lon="1.9161320">
        <ele>270.4</ele>
        <time>2022-06-28T18:06:15Z</time>
      </trkpt>
      <trkpt lat="41.5570560" lon="1.9160110">
        <ele>269.8</ele>
        <time>2022-06-28T18:06:16Z</time>
      </trkpt>
      <trkpt lat="41.5570250" lon="1.9158920">
        <ele>268.8</ele>
        <time>2022-06-28T18:06:17Z</time>
      </trkpt>
      <trkpt lat="41.5569880" lon="1.9157740">
        <ele>268.2</ele>
        <time>2022-06-28T18:06:18Z</time>
      </trkpt>
      <trkpt lat="41.5569130" lon="1.9155310">
        <ele>267.6</ele>
        <time>2022-06-28T18:06:20Z</time>
      </trkpt>
      <trkpt lat="41.5568270" lon="1.9152740">
        <ele>266.4</ele>
        <time>2022-06-28T18:06:22Z</time>
      </trkpt>
      <trkpt lat="41.5567380" lon="1.9150170">
        <ele>264.4</ele>
        <time>2022-06-28T18:06:24Z</time>
      </trkpt>
      <trkpt lat="41.5566970" lon="1.9148860">
        <ele>263.6</ele>
        <time>2022-06-28T18:06:25Z</time>
      </trkpt>
      <trkpt lat="41.5566570" lon="1.9147520">
        <ele>262.6</ele>
        <time>2022-06-28T18:06:26Z</time>
      </trkpt>
      <trkpt lat="41.5566200" lon="1.9146110">
        <ele>262.0</ele>
        <time>2022-06-28T18:06:27Z</time>
      </trkpt>
      <trkpt lat="41.5565900" lon="1.9144640">
        <ele>261.0</ele>
        <time>2022-06-28T18:06:28Z</time>
      </trkpt>
      <trkpt lat="41.5565560" lon="1.9143160">
        <ele>260.2</ele>
        <time>2022-06-28T18:06:29Z</time>
      </trkpt>
      <trkpt lat="41.5565110" lon="1.9141710">
        <ele>260.0</ele>
        <time>2022-06-28T18:06:30Z</time>
      </trkpt>
      <trkpt lat="41.5564550" lon="1.9140340">
        <ele>259.2</ele>
        <time>2022-06-28T18:06:31Z</time>
      </trkpt>
      <trkpt lat="41.5563870" lon="1.9139060">
        <ele>258.4</ele>
        <time>2022-06-28T18:06:32Z</time>
      </trkpt>
      <trkpt lat="41.5563220" lon="1.9137790">
        <ele>257.4</ele>
        <time>2022-06-28T18:06:33Z</time>
      </trkpt>
      <trkpt lat="41.5562810" lon="1.9136360">
        <ele>256.8</ele>
        <time>2022-06-28T18:06:34Z</time>
      </trkpt>
      <trkpt lat="41.5562620" lon="1.9134720">
        <ele>256.4</ele>
        <time>2022-06-28T18:06:35Z</time>
      </trkpt>
      <trkpt lat="41.5562470" lon="1.9133030">
        <ele>255.2</ele>
        <time>2022-06-28T18:06:36Z</time>
      </trkpt>
      <trkpt lat="41.5562210" lon="1.9129650">
        <ele>253.4</ele>
        <time>2022-06-28T18:06:38Z</time>
      </trkpt>
      <trkpt lat="41.5561780" lon="1.9126420">
        <ele>252.0</ele>
        <time>2022-06-28T18:06:40Z</time>
      </trkpt>
      <trkpt lat="41.5561270" lon="1.9124900">
        <ele>250.6</ele>
        <time>2022-06-28T18:06:41Z</time>
      </trkpt>
      <trkpt lat="41.5560570" lon="1.9123520">
        <ele>250.2</ele>
        <time>2022-06-28T18:06:42Z</time>
      </trkpt>
      <trkpt lat="41.5559710" lon="1.9122280">
        <ele>249.0</ele>
        <time>2022-06-28T18:06:43Z</time>
      </trkpt>
      <trkpt lat="41.5558840" lon="1.9121120">
        <ele>248.4</ele>
        <time>2022-06-28T18:06:44Z</time>
      </trkpt>
      <trkpt lat="41.5557960" lon="1.9119990">
        <ele>247.0</ele>
        <time>2022-06-28T18:06:45Z</time>
      </trkpt>
      <trkpt lat="41.5557170" lon="1.9118670">
        <ele>246.2</ele>
        <time>2022-06-28T18:06:46Z</time>
      </trkpt>
      <trkpt lat="41.5556440" lon="1.9117330">
        <ele>244.8</ele>
        <time>2022-06-28T18:06:47Z</time>
      </trkpt>
      <trkpt lat="41.5555830" lon="1.9116050">
        <ele>244.0</ele>
        <time>2022-06-28T18:06:48Z</time>
      </trkpt>
      <trkpt lat="41.5555260" lon="1.9114810">
        <ele>243.6</ele>
        <time>2022-06-28T18:06:49Z</time>
      </trkpt>
      <trkpt lat="41.5554800" lon="1.9113610">
        <ele>242.2</ele>
        <time>2022-06-28T18:06:50Z</time>
      </trkpt>
      <trkpt lat="41.5554460" lon="1.9112340">
        <ele>241.8</ele>
        <time>2022-06-28T18:06:51Z</time>
      </trkpt>
      <trkpt lat="41.5554310" lon="1.9111010">
        <ele>241.2</ele>
        <time>2022-06-28T18:06:52Z</time>
      </trkpt>
      <trkpt lat="41.5554650" lon="1.9109710">
        <ele>240.6</ele>
        <time>2022-06-28T18:06:53Z</time>
      </trkpt>
      <trkpt lat="41.5555160" lon="1.9108530">
        <ele>239.6</ele>
        <time>2022-06-28T18:06:54Z</time>
      </trkpt>
      <trkpt lat="41.5555890" lon="1.9107490">
        <ele>238.8</ele>
        <time>2022-06-28T18:06:55Z</time>
      </trkpt>
      <trkpt lat="41.5556760" lon="1.9106510">
        <ele>238.4</ele>
        <time>2022-06-28T18:06:56Z</time>
      </trkpt>
      <trkpt lat="41.5557660" lon="1.9105490">
        <ele>237.2</ele>
        <time>2022-06-28T18:06:57Z</time>
      </trkpt>
      <trkpt lat="41.5559380" lon="1.9103240">
        <ele>235.8</ele>
        <time>2022-06-28T18:06:59Z</time>
      </trkpt>
      <trkpt lat="41.5560560" lon="1.9100580">
        <ele>234.0</ele>
        <time>2022-06-28T18:07:01Z</time>
      </trkpt>
      <trkpt lat="41.5560670" lon="1.9099170">
        <ele>232.8</ele>
        <time>2022-06-28T18:07:02Z</time>
      </trkpt>
      <trkpt lat="41.5560380" lon="1.9097720">
        <ele>232.2</ele>
        <time>2022-06-28T18:07:03Z</time>
      </trkpt>
      <trkpt lat="41.5559910" lon="1.9096400">
        <ele>231.4</ele>
        <time>2022-06-28T18:07:04Z</time>
      </trkpt>
      <trkpt lat="41.5559250" lon="1.9095260">
        <ele>231.0</ele>
        <time>2022-06-28T18:07:05Z</time>
      </trkpt>
      <trkpt lat="41.5558500" lon="1.9094280">
        <ele>230.4</ele>
        <time>2022-06-28T18:07:06Z</time>
      </trkpt>
      <trkpt lat="41.5557710" lon="1.9093440">
        <ele>230.0</ele>
        <time>2022-06-28T18:07:07Z</time>
      </trkpt>
      <trkpt lat="41.5556770" lon="1.9092850">
        <ele>229.6</ele>
        <time>2022-06-28T18:07:08Z</time>
      </trkpt>
      <trkpt lat="41.5555480" lon="1.9092800">
        <ele>228.6</ele>
        <time>2022-06-28T18:07:09Z</time>
      </trkpt>
      <trkpt lat="41.5554230" lon="1.9092610">
        <ele>228.0</ele>
        <time>2022-06-28T18:07:10Z</time>
      </trkpt>
      <trkpt lat="41.5553180" lon="1.9092330">
        <ele>227.4</ele>
        <time>2022-06-28T18:07:11Z</time>
      </trkpt>
      <trkpt lat="41.5551090" lon="1.9091950">
        <ele>226.6</ele>
        <time>2022-06-28T18:07:13Z</time>
      </trkpt>
      <trkpt lat="41.5549050" lon="1.9092340">
        <ele>226.4</ele>
        <time>2022-06-28T18:07:15Z</time>
      </trkpt>
      <trkpt lat="41.5547650" lon="1.9093900">
        <ele>226.2</ele>
        <time>2022-06-28T18:07:17Z</time>
      </trkpt>
      <trkpt lat="41.5546870" lon="1.9095890">
        <ele>226.0</ele>
        <time>2022-06-28T18:07:19Z</time>
      </trkpt>
      <trkpt lat="41.5546440" lon="1.9097000">
        <ele>225.6</ele>
        <time>2022-06-28T18:07:20Z</time>
      </trkpt>
      <trkpt lat="41.5544880" lon="1.9100480">
        <ele>225.2</ele>
        <time>2022-06-28T18:07:23Z</time>
      </trkpt>
      <trkpt lat="41.5543200" lon="1.9101950">
        <ele>225.0</ele>
        <time>2022-06-28T18:07:25Z</time>
      </trkpt>
      <trkpt lat="41.5542300" lon="1.9102320">
        <ele>224.8</ele>
        <time>2022-06-28T18:07:26Z</time>
      </trkpt>
      <trkpt lat="41.5541520" lon="1.9102460">
        <ele>224.8</ele>
        <time>2022-06-28T18:07:27Z</time>
      </trkpt>
      <trkpt lat="41.5540400" lon="1.9102270">
        <ele>224.8</ele>
        <time>2022-06-28T18:07:29Z</time>
      </trkpt>
      <trkpt lat="41.5539370" lon="1.9100320">
        <ele>224.8</ele>
        <time>2022-06-28T18:07:31Z</time>
      </trkpt>
      <trkpt lat="41.5537460" lon="1.9097260">
        <ele>224.6</ele>
        <time>2022-06-28T18:07:34Z</time>
      </trkpt>
      <trkpt lat="41.5536070" lon="1.9095830">
        <ele>224.6</ele>
        <time>2022-06-28T18:07:36Z</time>
      </trkpt>
      <trkpt lat="41.5535320" lon="1.9095310">
        <ele>224.6</ele>
        <time>2022-06-28T18:07:37Z</time>
      </trkpt>
      <trkpt lat="41.5534550" lon="1.9094930">
        <ele>224.6</ele>
        <time>2022-06-28T18:07:38Z</time>
      </trkpt>
      <trkpt lat="41.5532830" lon="1.9094530">
        <ele>225.0</ele>
        <time>2022-06-28T18:07:40Z</time>
      </trkpt>
      <trkpt lat="41.5528560" lon="1.9094280">
        <ele>225.2</ele>
        <time>2022-06-28T18:07:45Z</time>
      </trkpt>
      <trkpt lat="41.5523480" lon="1.9094050">
        <ele>224.8</ele>
        <time>2022-06-28T18:07:51Z</time>
      </trkpt>
      <trkpt lat="41.5521760" lon="1.9093420">
        <ele>224.6</ele>
        <time>2022-06-28T18:07:53Z</time>
      </trkpt>
      <trkpt lat="41.5520950" lon="1.9092950">
        <ele>224.2</ele>
        <time>2022-06-28T18:07:54Z</time>
      </trkpt>
      <trkpt lat="41.5520100" lon="1.9092370">
        <ele>224.0</ele>
        <time>2022-06-28T18:07:55Z</time>
      </trkpt>
      <trkpt lat="41.5519320" lon="1.9091670">
        <ele>223.2</ele>
        <time>2022-06-28T18:07:56Z</time>
      </trkpt>
      <trkpt lat="41.5518570" lon="1.9090960">
        <ele>223.0</ele>
        <time>2022-06-28T18:07:57Z</time>
      </trkpt>
      <trkpt lat="41.5517720" lon="1.9090370">
        <ele>222.4</ele>
        <time>2022-06-28T18:07:58Z</time>
      </trkpt>
      <trkpt lat="41.5515880" lon="1.9089830">
        <ele>221.6</ele>
        <time>2022-06-28T18:08:00Z</time>
      </trkpt>
      <trkpt lat="41.5514940" lon="1.9089820">
        <ele>221.4</ele>
        <time>2022-06-28T18:08:01Z</time>
      </trkpt>
      <trkpt lat="41.5513020" lon="1.9089960">
        <ele>220.4</ele>
        <time>2022-06-28T18:08:03Z</time>
      </trkpt>
      <trkpt lat="41.5512040" lon="1.9089900">
        <ele>220.4</ele>
        <time>2022-06-28T18:08:04Z</time>
      </trkpt>
      <trkpt lat="41.5511070" lon="1.9089660">
        <ele>219.6</ele>
        <time>2022-06-28T18:08:05Z</time>
      </trkpt>
      <trkpt lat="41.5510210" lon="1.9089260">
        <ele>219.4</ele>
        <time>2022-06-28T18:08:06Z</time>
      </trkpt>
      <trkpt lat="41.5508790" lon="1.9087840">
        <ele>218.0</ele>
        <time>2022-06-28T18:08:08Z</time>
      </trkpt>
      <trkpt lat="41.5507250" lon="1.9084250">
        <ele>216.6</ele>
        <time>2022-06-28T18:08:11Z</time>
      </trkpt>
      <trkpt lat="41.5505820" lon="1.9082200">
        <ele>215.6</ele>
        <time>2022-06-28T18:08:13Z</time>
      </trkpt>
      <trkpt lat="41.5505020" lon="1.9081310">
        <ele>215.0</ele>
        <time>2022-06-28T18:08:14Z</time>
      </trkpt>
      <trkpt lat="41.5504150" lon="1.9080500">
        <ele>214.2</ele>
        <time>2022-06-28T18:08:15Z</time>
      </trkpt>
      <trkpt lat="41.5502400" lon="1.9078980">
        <ele>212.6</ele>
        <time>2022-06-28T18:08:17Z</time>
      </trkpt>
      <trkpt lat="41.5500590" lon="1.9077390">
        <ele>211.6</ele>
        <time>2022-06-28T18:08:19Z</time>
      </trkpt>
      <trkpt lat="41.5499680" lon="1.9076540">
        <ele>211.0</ele>
        <time>2022-06-28T18:08:20Z</time>
      </trkpt>
      <trkpt lat="41.5498800" lon="1.9075600">
        <ele>210.2</ele>
        <time>2022-06-28T18:08:21Z</time>
      </trkpt>
      <trkpt lat="41.5498090" lon="1.9074490">
        <ele>209.4</ele>
        <time>2022-06-28T18:08:22Z</time>
      </trkpt>
      <trkpt lat="41.5497560" lon="1.9073220">
        <ele>209.0</ele>
        <time>2022-06-28T18:08:23Z</time>
      </trkpt>
      <trkpt lat="41.5497140" lon="1.9071880">
        <ele>208.2</ele>
        <time>2022-06-28T18:08:24Z</time>
      </trkpt>
      <trkpt lat="41.5496660" lon="1.9070610">
        <ele>207.8</ele>
        <time>2022-06-28T18:08:25Z</time>
      </trkpt>
      <trkpt lat="41.5495870" lon="1.9069530">
        <ele>207.0</ele>
        <time>2022-06-28T18:08:26Z</time>
      </trkpt>
      <trkpt lat="41.5494950" lon="1.9068660">
        <ele>206.6</ele>
        <time>2022-06-28T18:08:27Z</time>
      </trkpt>
      <trkpt lat="41.5493940" lon="1.9067940">
        <ele>205.4</ele>
        <time>2022-06-28T18:08:28Z</time>
      </trkpt>
      <trkpt lat="41.5492970" lon="1.9067190">
        <ele>204.8</ele>
        <time>2022-06-28T18:08:29Z</time>
      </trkpt>
      <trkpt lat="41.5492060" lon="1.9066300">
        <ele>204.6</ele>
        <time>2022-06-28T18:08:30Z</time>
      </trkpt>
      <trkpt lat="41.5491210" lon="1.9065230">
        <ele>204.0</ele>
        <time>2022-06-28T18:08:31Z</time>
      </trkpt>
      <trkpt lat="41.5490470" lon="1.9064070">
        <ele>203.8</ele>
        <time>2022-06-28T18:08:32Z</time>
      </trkpt>
      <trkpt lat="41.5489790" lon="1.9062870">
        <ele>202.6</ele>
        <time>2022-06-28T18:08:33Z</time>
      </trkpt>
      <trkpt lat="41.5488470" lon="1.9060340">
        <ele>201.4</ele>
        <time>2022-06-28T18:08:35Z</time>
      </trkpt>
      <trkpt lat="41.5487810" lon="1.9059100">
        <ele>200.4</ele>
        <time>2022-06-28T18:08:36Z</time>
      </trkpt>
      <trkpt lat="41.5487170" lon="1.9057850">
        <ele>200.0</ele>
        <time>2022-06-28T18:08:37Z</time>
      </trkpt>
      <trkpt lat="41.5486500" lon="1.9056620">
        <ele>199.2</ele>
        <time>2022-06-28T18:08:38Z</time>
      </trkpt>
      <trkpt lat="41.5485170" lon="1.9054190">
        <ele>197.8</ele>
        <time>2022-06-28T18:08:40Z</time>
      </trkpt>
      <trkpt lat="41.5483890" lon="1.9051710">
        <ele>196.4</ele>
        <time>2022-06-28T18:08:42Z</time>
      </trkpt>
      <trkpt lat="41.5482410" lon="1.9049410">
        <ele>195.4</ele>
        <time>2022-06-28T18:08:44Z</time>
      </trkpt>
      <trkpt lat="41.5480460" lon="1.9047890">
        <ele>194.4</ele>
        <time>2022-06-28T18:08:46Z</time>
      </trkpt>
      <trkpt lat="41.5479400" lon="1.9047370">
        <ele>193.8</ele>
        <time>2022-06-28T18:08:47Z</time>
      </trkpt>
      <trkpt lat="41.5478330" lon="1.9046910">
        <ele>193.0</ele>
        <time>2022-06-28T18:08:48Z</time>
      </trkpt>
      <trkpt lat="41.5476050" lon="1.9046110">
        <ele>191.8</ele>
        <time>2022-06-28T18:08:50Z</time>
      </trkpt>
      <trkpt lat="41.5473710" lon="1.9045390">
        <ele>190.8</ele>
        <time>2022-06-28T18:08:52Z</time>
      </trkpt>
      <trkpt lat="41.5472540" lon="1.9045030">
        <ele>190.2</ele>
        <time>2022-06-28T18:08:53Z</time>
      </trkpt>
      <trkpt lat="41.5471340" lon="1.9044660">
        <ele>189.6</ele>
        <time>2022-06-28T18:08:54Z</time>
      </trkpt>
      <trkpt lat="41.5469000" lon="1.9043600">
        <ele>188.6</ele>
        <time>2022-06-28T18:08:56Z</time>
      </trkpt>
      <trkpt lat="41.5467740" lon="1.9042540">
        <ele>187.6</ele>
        <time>2022-06-28T18:08:57Z</time>
      </trkpt>
      <trkpt lat="41.5467040" lon="1.9041640">
        <ele>187.0</ele>
        <time>2022-06-28T18:08:58Z</time>
      </trkpt>
      <trkpt lat="41.5466270" lon="1.9040490">
        <ele>185.2</ele>
        <time>2022-06-28T18:08:59Z</time>
      </trkpt>
      <trkpt lat="41.5465490" lon="1.9039400">
        <ele>184.8</ele>
        <time>2022-06-28T18:09:00Z</time>
      </trkpt>
      <trkpt lat="41.5464560" lon="1.9038590">
        <ele>183.8</ele>
        <time>2022-06-28T18:09:01Z</time>
      </trkpt>
      <trkpt lat="41.5463480" lon="1.9038130">
        <ele>183.0</ele>
        <time>2022-06-28T18:09:02Z</time>
      </trkpt>
      <trkpt lat="41.5462300" lon="1.9037960">
        <ele>182.8</ele>
        <time>2022-06-28T18:09:03Z</time>
      </trkpt>
      <trkpt lat="41.5461130" lon="1.9038100">
        <ele>182.2</ele>
        <time>2022-06-28T18:09:04Z</time>
      </trkpt>
      <trkpt lat="41.5458720" lon="1.9038400">
        <ele>181.2</ele>
        <time>2022-06-28T18:09:06Z</time>
      </trkpt>
      <trkpt lat="41.5457550" lon="1.9038450">
        <ele>180.0</ele>
        <time>2022-06-28T18:09:07Z</time>
      </trkpt>
      <trkpt lat="41.5456420" lon="1.9038360">
        <ele>179.0</ele>
        <time>2022-06-28T18:09:08Z</time>
      </trkpt>
      <trkpt lat="41.5455250" lon="1.9038180">
        <ele>178.0</ele>
        <time>2022-06-28T18:09:09Z</time>
      </trkpt>
      <trkpt lat="41.5454040" lon="1.9037970">
        <ele>177.6</ele>
        <time>2022-06-28T18:09:10Z</time>
      </trkpt>
      <trkpt lat="41.5452860" lon="1.9037610">
        <ele>176.6</ele>
        <time>2022-06-28T18:09:11Z</time>
      </trkpt>
      <trkpt lat="41.5450620" lon="1.9036410">
        <ele>175.0</ele>
        <time>2022-06-28T18:09:13Z</time>
      </trkpt>
      <trkpt lat="41.5448660" lon="1.9035040">
        <ele>173.6</ele>
        <time>2022-06-28T18:09:15Z</time>
      </trkpt>
      <trkpt lat="41.5447010" lon="1.9033610">
        <ele>172.4</ele>
        <time>2022-06-28T18:09:17Z</time>
      </trkpt>
      <trkpt lat="41.5446290" lon="1.9032740">
        <ele>171.4</ele>
        <time>2022-06-28T18:09:18Z</time>
      </trkpt>
      <trkpt lat="41.5445760" lon="1.9031690">
        <ele>171.0</ele>
        <time>2022-06-28T18:09:19Z</time>
      </trkpt>
      <trkpt lat="41.5445460" lon="1.9030450">
        <ele>170.2</ele>
        <time>2022-06-28T18:09:20Z</time>
      </trkpt>
      <trkpt lat="41.5445300" lon="1.9029200">
        <ele>169.4</ele>
        <time>2022-06-28T18:09:21Z</time>
      </trkpt>
      <trkpt lat="41.5445260" lon="1.9027030">
        <ele>168.0</ele>
        <time>2022-06-28T18:09:23Z</time>
      </trkpt>
      <trkpt lat="41.5445220" lon="1.9025390">
        <ele>166.0</ele>
        <time>2022-06-28T18:09:25Z</time>
      </trkpt>
      <trkpt lat="41.5445120" lon="1.9024600">
        <ele>165.6</ele>
        <time>2022-06-28T18:09:26Z</time>
      </trkpt>
      <trkpt lat="41.5444950" lon="1.9023780">
        <ele>164.8</ele>
        <time>2022-06-28T18:09:27Z</time>
      </trkpt>
      <trkpt lat="41.5444460" lon="1.9022180">
        <ele>164.0</ele>
        <time>2022-06-28T18:09:29Z</time>
      </trkpt>
      <trkpt lat="41.5444060" lon="1.9021510">
        <ele>163.4</ele>
        <time>2022-06-28T18:09:30Z</time>
      </trkpt>
      <trkpt lat="41.5443090" lon="1.9020250">
        <ele>162.2</ele>
        <time>2022-06-28T18:09:32Z</time>
      </trkpt>
      <trkpt lat="41.5441370" lon="1.9018160">
        <ele>160.6</ele>
        <time>2022-06-28T18:09:35Z</time>
      </trkpt>
      <trkpt lat="41.5439640" lon="1.9015510">
        <ele>159.4</ele>
        <time>2022-06-28T18:09:38Z</time>
      </trkpt>
      <trkpt lat="41.5439210" lon="1.9014450">
        <ele>158.6</ele>
        <time>2022-06-28T18:09:39Z</time>
      </trkpt>
      <trkpt lat="41.5438960" lon="1.9013270">
        <ele>158.0</ele>
        <time>2022-06-28T18:09:40Z</time>
      </trkpt>
      <trkpt lat="41.5439060" lon="1.9010950">
        <ele>156.6</ele>
        <time>2022-06-28T18:09:42Z</time>
      </trkpt>
      <trkpt lat="41.5440230" lon="1.9006660">
        <ele>155.2</ele>
        <time>2022-06-28T18:09:46Z</time>
      </trkpt>
      <trkpt lat="41.5440740" lon="1.9004350">
        <ele>154.2</ele>
        <time>2022-06-28T18:09:48Z</time>
      </trkpt>
      <trkpt lat="41.5441080" lon="1.9000540">
        <ele>152.4</ele>
        <time>2022-06-28T18:09:51Z</time>
      </trkpt>
      <trkpt lat="41.5441070" lon="1.8997910">
        <ele>151.2</ele>
        <time>2022-06-28T18:09:53Z</time>
      </trkpt>
      <trkpt lat="41.5440950" lon="1.8994130">
        <ele>149.8</ele>
        <time>2022-06-28T18:09:56Z</time>
      </trkpt>
      <trkpt lat="41.5440890" lon="1.8993080">
        <ele>149.4</ele>
        <time>2022-06-28T18:09:57Z</time>
      </trkpt>
      <trkpt lat="41.5440800" lon="1.8992160">
        <ele>148.6</ele>
        <time>2022-06-28T18:09:58Z</time>
      </trkpt>
      <trkpt lat="41.5440680" lon="1.8990630">
        <ele>147.4</ele>
        <time>2022-06-28T18:10:00Z</time>
      </trkpt>
      <trkpt lat="41.5440660" lon="1.8990080">
        <ele>147.0</ele>
        <time>2022-06-28T18:10:01Z</time>
      </trkpt>
      <trkpt lat="41.5440700" lon="1.8989370">
        <ele>145.8</ele>
        <time>2022-06-28T18:10:03Z</time>
      </trkpt>
      <trkpt lat="41.5440700" lon="1.8989200">
        <ele>145.6</ele>
        <time>2022-06-28T18:10:04Z</time>
      </trkpt>
      <trkpt lat="41.5440780" lon="1.8988950">
        <ele>144.8</ele>
        <time>2022-06-28T18:10:07Z</time>
      </trkpt>
      <trkpt lat="41.5440850" lon="1.8988720">
        <ele>144.6</ele>
        <time>2022-06-28T18:10:09Z</time>
      </trkpt>
      <trkpt lat="41.5440880" lon="1.8987330">
        <ele>144.2</ele>
        <time>2022-06-28T18:10:13Z</time>
      </trkpt>
      <trkpt lat="41.5440950" lon="1.8985130">
        <ele>143.4</ele>
        <time>2022-06-28T18:10:17Z</time>
      </trkpt>
      <trkpt lat="41.5440870" lon="1.8983680">
        <ele>142.8</ele>
        <time>2022-06-28T18:10:19Z</time>
      </trkpt>
      <trkpt lat="41.5440810" lon="1.8982100">
        <ele>142.4</ele>
        <time>2022-06-28T18:10:21Z</time>
      </trkpt>
      <trkpt lat="41.5440630" lon="1.8979830">
        <ele>141.6</ele>
        <time>2022-06-28T18:10:24Z</time>
      </trkpt>
      <trkpt lat="41.5440570" lon="1.8978840">
        <ele>141.0</ele>
        <time>2022-06-28T18:10:26Z</time>
      </trkpt>
      <trkpt lat="41.5440600" lon="1.8978720">
        <ele>140.6</ele>
        <time>2022-06-28T18:10:27Z</time>
      </trkpt>
      <trkpt lat="41.5440620" lon="1.8978720">
        <ele>140.0</ele>
        <time>2022-06-28T18:10:29Z</time>
      </trkpt>
      <trkpt lat="41.5440710" lon="1.8978550">
        <ele>139.8</ele>
        <time>2022-06-28T18:10:33Z</time>
      </trkpt>
      <trkpt lat="41.5440770" lon="1.8978390">
        <ele>139.6</ele>
        <time>2022-06-28T18:10:34Z</time>
      </trkpt>
      <trkpt lat="41.5440750" lon="1.8977340">
        <ele>139.6</ele>
        <time>2022-06-28T18:10:37Z</time>
      </trkpt>
      <trkpt lat="41.5440730" lon="1.8975790">
        <ele>139.4</ele>
        <time>2022-06-28T18:10:41Z</time>
      </trkpt>
      <trkpt lat="41.5440710" lon="1.8975730">
        <ele>138.8</ele>
        <time>2022-06-28T18:10:43Z</time>
      </trkpt>
      <trkpt lat="41.5440710" lon="1.8975600">
        <ele>138.8</ele>
        <time>2022-06-28T18:10:44Z</time>
      </trkpt>
      <trkpt lat="41.5440480" lon="1.8973910">
        <ele>138.2</ele>
        <time>2022-06-28T18:10:49Z</time>
      </trkpt>
      <trkpt lat="41.5440440" lon="1.8972550">
        <ele>137.8</ele>
        <time>2022-06-28T18:10:52Z</time>
      </trkpt>
      <trkpt lat="41.5440400" lon="1.8971370">
        <ele>137.6</ele>
        <time>2022-06-28T18:10:54Z</time>
      </trkpt>
      <trkpt lat="41.5440520" lon="1.8968550">
        <ele>137.4</ele>
        <time>2022-06-28T18:10:58Z</time>
      </trkpt>
      <trkpt lat="41.5440690" lon="1.8967820">
        <ele>137.2</ele>
        <time>2022-06-28T18:10:59Z</time>
      </trkpt>
      <trkpt lat="41.5441070" lon="1.8966370">
        <ele>137.0</ele>
        <time>2022-06-28T18:11:01Z</time>
      </trkpt>
      <trkpt lat="41.5441620" lon="1.8964530">
        <ele>136.6</ele>
        <time>2022-06-28T18:11:04Z</time>
      </trkpt>
      <trkpt lat="41.5442360" lon="1.8962900">
        <ele>136.0</ele>
        <time>2022-06-28T18:11:07Z</time>
      </trkpt>
      <trkpt lat="41.5442710" lon="1.8962320">
        <ele>135.6</ele>
        <time>2022-06-28T18:11:08Z</time>
      </trkpt>
      <trkpt lat="41.5443400" lon="1.8961340">
        <ele>135.4</ele>
        <time>2022-06-28T18:11:10Z</time>
      </trkpt>
      <trkpt lat="41.5443690" lon="1.8960870">
        <ele>135.2</ele>
        <time>2022-06-28T18:11:11Z</time>
      </trkpt>
      <trkpt lat="41.5444070" lon="1.8960030">
        <ele>134.8</ele>
        <time>2022-06-28T18:11:13Z</time>
      </trkpt>
      <trkpt lat="41.5444150" lon="1.8959530">
        <ele>134.6</ele>
        <time>2022-06-28T18:11:14Z</time>
      </trkpt>
      <trkpt lat="41.5444170" lon="1.8957960">
        <ele>133.4</ele>
        <time>2022-06-28T18:11:18Z</time>
      </trkpt>
      <trkpt lat="41.5444110" lon="1.8957120">
        <ele>133.0</ele>
        <time>2022-06-28T18:11:21Z</time>
      </trkpt>
      <trkpt lat="41.5443830" lon="1.8956560">
        <ele>132.8</ele>
        <time>2022-06-28T18:11:23Z</time>
      </trkpt>
      <trkpt lat="41.5443220" lon="1.8956480">
        <ele>132.4</ele>
        <time>2022-06-28T18:11:25Z</time>
      </trkpt>
      <trkpt lat="41.5442780" lon="1.8956530">
        <ele>132.2</ele>
        <time>2022-06-28T18:11:26Z</time>
      </trkpt>
      <trkpt lat="41.5441790" lon="1.8956670">
        <ele>131.6</ele>
        <time>2022-06-28T18:11:28Z</time>
      </trkpt>
      <trkpt lat="41.5440850" lon="1.8956840">
        <ele>131.4</ele>
        <time>2022-06-28T18:11:30Z</time>
      </trkpt>
      <trkpt lat="41.5440420" lon="1.8956910">
        <ele>131.0</ele>
        <time>2022-06-28T18:11:31Z</time>
      </trkpt>
      <trkpt lat="41.5439180" lon="1.8957060">
        <ele>130.2</ele>
        <time>2022-06-28T18:11:34Z</time>
      </trkpt>
      <trkpt lat="41.5437400" lon="1.8957240">
        <ele>129.6</ele>
        <time>2022-06-28T18:11:39Z</time>
      </trkpt>
      <trkpt lat="41.5436260" lon="1.8957030">
        <ele>129.0</ele>
        <time>2022-06-28T18:11:44Z</time>
      </trkpt>
      <trkpt lat="41.5435770" lon="1.8956740">
        <ele>128.8</ele>
        <time>2022-06-28T18:11:47Z</time>
      </trkpt>
      <trkpt lat="41.5435730" lon="1.8956440">
        <ele>128.8</ele>
        <time>2022-06-28T18:11:48Z</time>
      </trkpt>
      <trkpt lat="41.5436040" lon="1.8954770">
        <ele>128.6</ele>
        <time>2022-06-28T18:11:52Z</time>
      </trkpt>
      <trkpt lat="41.5436160" lon="1.8954200">
        <ele>128.8</ele>
        <time>2022-06-28T18:11:53Z</time>
      </trkpt>
      <trkpt lat="41.5436290" lon="1.8953310">
        <ele>129.0</ele>
        <time>2022-06-28T18:11:55Z</time>
      </trkpt>
      <trkpt lat="41.5436430" lon="1.8952890">
        <ele>129.2</ele>
        <time>2022-06-28T18:11:56Z</time>
      </trkpt>
      <trkpt lat="41.5437430" lon="1.8950500">
        <ele>130.0</ele>
        <time>2022-06-28T18:12:02Z</time>
      </trkpt>
      <trkpt lat="41.5437630" lon="1.8949030">
        <ele>130.2</ele>
        <time>2022-06-28T18:12:05Z</time>
      </trkpt>
      <trkpt lat="41.5437550" lon="1.8948040">
        <ele>130.4</ele>
        <time>2022-06-28T18:12:07Z</time>
      </trkpt>
      <trkpt lat="41.5436920" lon="1.8945910">
        <ele>131.0</ele>
        <time>2022-06-28T18:12:12Z</time>
      </trkpt>
      <trkpt lat="41.5436690" lon="1.8944420">
        <ele>131.0</ele>
        <time>2022-06-28T18:12:17Z</time>
      </trkpt>
      <trkpt lat="41.5436010" lon="1.8943530">
        <ele>130.8</ele>
        <time>2022-06-28T18:12:21Z</time>
      </trkpt>
      <trkpt lat="41.5435850" lon="1.8943480">
        <ele>130.8</ele>
        <time>2022-06-28T18:12:22Z</time>
      </trkpt>
      <trkpt lat="41.5434440" lon="1.8942900">
        <ele>130.6</ele>
        <time>2022-06-28T18:12:27Z</time>
      </trkpt>
      <trkpt lat="41.5433390" lon="1.8942740">
        <ele>130.4</ele>
        <time>2022-06-28T18:12:31Z</time>
      </trkpt>
      <trkpt lat="41.5433210" lon="1.8942750">
        <ele>130.4</ele>
        <time>2022-06-28T18:12:32Z</time>
      </trkpt>
      <trkpt lat="41.5432760" lon="1.8942660">
        <ele>130.4</ele>
        <time>2022-06-28T18:12:34Z</time>
      </trkpt>
      <trkpt lat="41.5432600" lon="1.8942580">
        <ele>130.4</ele>
        <time>2022-06-28T18:12:36Z</time>
      </trkpt>
      <trkpt lat="41.5432410" lon="1.8942530">
        <ele>130.4</ele>
        <time>2022-06-28T18:12:37Z</time>
      </trkpt>
      <trkpt lat="41.5431940" lon="1.8942100">
        <ele>130.2</ele>
        <time>2022-06-28T18:12:39Z</time>
      </trkpt>
      <trkpt lat="41.5431940" lon="1.8941410">
        <ele>130.2</ele>
        <time>2022-06-28T18:12:41Z</time>
      </trkpt>
      <trkpt lat="41.5432110" lon="1.8939110">
        <ele>129.8</ele>
        <time>2022-06-28T18:12:45Z</time>
      </trkpt>
      <trkpt lat="41.5432190" lon="1.8938500">
        <ele>129.6</ele>
        <time>2022-06-28T18:12:46Z</time>
      </trkpt>
      <trkpt lat="41.5432470" lon="1.8936710">
        <ele>129.4</ele>
        <time>2022-06-28T18:12:49Z</time>
      </trkpt>
      <trkpt lat="41.5432510" lon="1.8936020">
        <ele>129.4</ele>
        <time>2022-06-28T18:12:50Z</time>
      </trkpt>
      <trkpt lat="41.5432640" lon="1.8934760">
        <ele>129.2</ele>
        <time>2022-06-28T18:12:52Z</time>
      </trkpt>
      <trkpt lat="41.5432710" lon="1.8932950">
        <ele>129.2</ele>
        <time>2022-06-28T18:12:55Z</time>
      </trkpt>
      <trkpt lat="41.5432720" lon="1.8932240">
        <ele>129.2</ele>
        <time>2022-06-28T18:12:57Z</time>
      </trkpt>
      <trkpt lat="41.5432740" lon="1.8931970">
        <ele>129.2</ele>
        <time>2022-06-28T18:12:58Z</time>
      </trkpt>
      <trkpt lat="41.5433050" lon="1.8929510">
        <ele>129.2</ele>
        <time>2022-06-28T18:13:04Z</time>
      </trkpt>
      <trkpt lat="41.5433230" lon="1.8928280">
        <ele>129.4</ele>
        <time>2022-06-28T18:13:06Z</time>
      </trkpt>
      <trkpt lat="41.5433510" lon="1.8926910">
        <ele>129.4</ele>
        <time>2022-06-28T18:13:08Z</time>
      </trkpt>
      <trkpt lat="41.5433580" lon="1.8926220">
        <ele>129.4</ele>
        <time>2022-06-28T18:13:09Z</time>
      </trkpt>
      <trkpt lat="41.5433900" lon="1.8923800">
        <ele>129.2</ele>
        <time>2022-06-28T18:13:13Z</time>
      </trkpt>
      <trkpt lat="41.5434150" lon="1.8922790">
        <ele>129.2</ele>
        <time>2022-06-28T18:13:15Z</time>
      </trkpt>
      <trkpt lat="41.5434250" lon="1.8921600">
        <ele>129.4</ele>
        <time>2022-06-28T18:13:18Z</time>
      </trkpt>
      <trkpt lat="41.5434250" lon="1.8921540">
        <ele>129.4</ele>
        <time>2022-06-28T18:13:19Z</time>
      </trkpt>
      <trkpt lat="41.5434190" lon="1.8921460">
        <ele>129.4</ele>
        <time>2022-06-28T18:13:21Z</time>
      </trkpt>
      <trkpt lat="41.5434180" lon="1.8920960">
        <ele>129.6</ele>
        <time>2022-06-28T18:13:23Z</time>
      </trkpt>
      <trkpt lat="41.5434260" lon="1.8920660">
        <ele>129.6</ele>
        <time>2022-06-28T18:13:24Z</time>
      </trkpt>
      <trkpt lat="41.5434500" lon="1.8918640">
        <ele>129.6</ele>
        <time>2022-06-28T18:13:28Z</time>
      </trkpt>
      <trkpt lat="41.5434580" lon="1.8917990">
        <ele>129.6</ele>
        <time>2022-06-28T18:13:29Z</time>
      </trkpt>
      <trkpt lat="41.5434990" lon="1.8915890">
        <ele>129.8</ele>
        <time>2022-06-28T18:13:32Z</time>
      </trkpt>
      <trkpt lat="41.5435130" lon="1.8914330">
        <ele>129.8</ele>
        <time>2022-06-28T18:13:34Z</time>
      </trkpt>
      <trkpt lat="41.5435610" lon="1.8912310">
        <ele>130.0</ele>
        <time>2022-06-28T18:13:37Z</time>
      </trkpt>
      <trkpt lat="41.5436260" lon="1.8909490">
        <ele>130.2</ele>
        <time>2022-06-28T18:13:41Z</time>
      </trkpt>
      <trkpt lat="41.5436580" lon="1.8908730">
        <ele>130.2</ele>
        <time>2022-06-28T18:13:42Z</time>
      </trkpt>
      <trkpt lat="41.5436700" lon="1.8907950">
        <ele>130.2</ele>
        <time>2022-06-28T18:13:43Z</time>
      </trkpt>
      <trkpt lat="41.5437170" lon="1.8903360">
        <ele>129.8</ele>
        <time>2022-06-28T18:13:49Z</time>
      </trkpt>
      <trkpt lat="41.5437340" lon="1.8902750">
        <ele>129.4</ele>
        <time>2022-06-28T18:13:51Z</time>
      </trkpt>
      <trkpt lat="41.5437340" lon="1.8902490">
        <ele>129.2</ele>
        <time>2022-06-28T18:13:52Z</time>
      </trkpt>
      <trkpt lat="41.5437310" lon="1.8902410">
        <ele>129.0</ele>
        <time>2022-06-28T18:13:53Z</time>
      </trkpt>
      <trkpt lat="41.5437300" lon="1.8902490">
        <ele>129.0</ele>
        <time>2022-06-28T18:13:54Z</time>
      </trkpt>
      <trkpt lat="41.5437250" lon="1.8902720">
        <ele>128.8</ele>
        <time>2022-06-28T18:13:55Z</time>
      </trkpt>
      <trkpt lat="41.5436980" lon="1.8903850">
        <ele>128.8</ele>
        <time>2022-06-28T18:13:59Z</time>
      </trkpt>
      <trkpt lat="41.5436940" lon="1.8903890">
        <ele>128.8</ele>
        <time>2022-06-28T18:14:00Z</time>
      </trkpt>
      <trkpt lat="41.5436940" lon="1.8903890">
        <ele>129.0</ele>
        <time>2022-06-28T18:14:02Z</time>
      </trkpt>
      <trkpt lat="41.5436980" lon="1.8903750">
        <ele>129.0</ele>
        <time>2022-06-28T18:15:02Z</time>
      </trkpt>
      <trkpt lat="41.5437060" lon="1.8903550">
        <ele>129.0</ele>
        <time>2022-06-28T18:15:03Z</time>
      </trkpt>
      <trkpt lat="41.5437380" lon="1.8901990">
        <ele>129.0</ele>
        <time>2022-06-28T18:15:07Z</time>
      </trkpt>
      <trkpt lat="41.5437600" lon="1.8900210">
        <ele>128.8</ele>
        <time>2022-06-28T18:15:10Z</time>
      </trkpt>
      <trkpt lat="41.5437860" lon="1.8898940">
        <ele>128.6</ele>
        <time>2022-06-28T18:15:12Z</time>
      </trkpt>
      <trkpt lat="41.5438090" lon="1.8898380">
        <ele>128.6</ele>
        <time>2022-06-28T18:15:13Z</time>
      </trkpt>
      <trkpt lat="41.5438670" lon="1.8897370">
        <ele>128.0</ele>
        <time>2022-06-28T18:15:15Z</time>
      </trkpt>
      <trkpt lat="41.5438880" lon="1.8896800">
        <ele>127.8</ele>
        <time>2022-06-28T18:15:16Z</time>
      </trkpt>
      <trkpt lat="41.5439470" lon="1.8894700">
        <ele>127.4</ele>
        <time>2022-06-28T18:15:19Z</time>
      </trkpt>
      <trkpt lat="41.5439870" lon="1.8893070">
        <ele>127.0</ele>
        <time>2022-06-28T18:15:21Z</time>
      </trkpt>
      <trkpt lat="41.5440420" lon="1.8889730">
        <ele>126.0</ele>
        <time>2022-06-28T18:15:25Z</time>
      </trkpt>
      <trkpt lat="41.5440520" lon="1.8888880">
        <ele>125.8</ele>
        <time>2022-06-28T18:15:26Z</time>
      </trkpt>
      <trkpt lat="41.5440780" lon="1.8887180">
        <ele>125.4</ele>
        <time>2022-06-28T18:15:28Z</time>
      </trkpt>
      <trkpt lat="41.5441100" lon="1.8885550">
        <ele>125.0</ele>
        <time>2022-06-28T18:15:30Z</time>
      </trkpt>
      <trkpt lat="41.5441700" lon="1.8882730">
        <ele>124.8</ele>
        <time>2022-06-28T18:15:34Z</time>
      </trkpt>
      <trkpt lat="41.5441920" lon="1.8881180">
        <ele>124.6</ele>
        <time>2022-06-28T18:15:36Z</time>
      </trkpt>
      <trkpt lat="41.5442460" lon="1.8878910">
        <ele>124.2</ele>
        <time>2022-06-28T18:15:39Z</time>
      </trkpt>
      <trkpt lat="41.5442840" lon="1.8877470">
        <ele>123.6</ele>
        <time>2022-06-28T18:15:41Z</time>
      </trkpt>
      <trkpt lat="41.5443110" lon="1.8876000">
        <ele>123.4</ele>
        <time>2022-06-28T18:15:43Z</time>
      </trkpt>
      <trkpt lat="41.5443350" lon="1.8874690">
        <ele>123.4</ele>
        <time>2022-06-28T18:15:45Z</time>
      </trkpt>
      <trkpt lat="41.5443430" lon="1.8874110">
        <ele>123.2</ele>
        <time>2022-06-28T18:15:46Z</time>
      </trkpt>
      <trkpt lat="41.5443410" lon="1.8872930">
        <ele>123.2</ele>
        <time>2022-06-28T18:15:49Z</time>
      </trkpt>
      <trkpt lat="41.5442500" lon="1.8871680">
        <ele>123.4</ele>
        <time>2022-06-28T18:15:54Z</time>
      </trkpt>
      <trkpt lat="41.5440650" lon="1.8870980">
        <ele>123.4</ele>
        <time>2022-06-28T18:15:58Z</time>
      </trkpt>
      <trkpt lat="41.5439780" lon="1.8870220">
        <ele>123.4</ele>
        <time>2022-06-28T18:16:00Z</time>
      </trkpt>
      <trkpt lat="41.5439440" lon="1.8869570">
        <ele>123.4</ele>
        <time>2022-06-28T18:16:01Z</time>
      </trkpt>
      <trkpt lat="41.5438860" lon="1.8867600">
        <ele>123.2</ele>
        <time>2022-06-28T18:16:04Z</time>
      </trkpt>
      <trkpt lat="41.5439170" lon="1.8866310">
        <ele>123.0</ele>
        <time>2022-06-28T18:16:06Z</time>
      </trkpt>
      <trkpt lat="41.5441180" lon="1.8862650">
        <ele>123.0</ele>
        <time>2022-06-28T18:16:12Z</time>
      </trkpt>
      <trkpt lat="41.5443550" lon="1.8859090">
        <ele>122.8</ele>
        <time>2022-06-28T18:16:18Z</time>
      </trkpt>
      <trkpt lat="41.5444000" lon="1.8858520">
        <ele>122.6</ele>
        <time>2022-06-28T18:16:19Z</time>
      </trkpt>
      <trkpt lat="41.5445580" lon="1.8856670">
        <ele>122.2</ele>
        <time>2022-06-28T18:16:23Z</time>
      </trkpt>
      <trkpt lat="41.5447380" lon="1.8854560">
        <ele>121.6</ele>
        <time>2022-06-28T18:16:27Z</time>
      </trkpt>
      <trkpt lat="41.5448330" lon="1.8853440">
        <ele>121.4</ele>
        <time>2022-06-28T18:16:29Z</time>
      </trkpt>
      <trkpt lat="41.5450460" lon="1.8850940">
        <ele>120.6</ele>
        <time>2022-06-28T18:16:33Z</time>
      </trkpt>
      <trkpt lat="41.5451640" lon="1.8849510">
        <ele>120.0</ele>
        <time>2022-06-28T18:16:35Z</time>
      </trkpt>
      <trkpt lat="41.5453470" lon="1.8847310">
        <ele>119.2</ele>
        <time>2022-06-28T18:16:38Z</time>
      </trkpt>
      <trkpt lat="41.5455860" lon="1.8844290">
        <ele>118.2</ele>
        <time>2022-06-28T18:16:42Z</time>
      </trkpt>
      <trkpt lat="41.5457600" lon="1.8842280">
        <ele>116.8</ele>
        <time>2022-06-28T18:16:45Z</time>
      </trkpt>
      <trkpt lat="41.5457980" lon="1.8841430">
        <ele>116.8</ele>
        <time>2022-06-28T18:16:46Z</time>
      </trkpt>
      <trkpt lat="41.5458010" lon="1.8840550">
        <ele>116.6</ele>
        <time>2022-06-28T18:16:47Z</time>
      </trkpt>
      <trkpt lat="41.5457560" lon="1.8839790">
        <ele>116.4</ele>
        <time>2022-06-28T18:16:48Z</time>
      </trkpt>
      <trkpt lat="41.5455430" lon="1.8838440">
        <ele>116.2</ele>
        <time>2022-06-28T18:16:51Z</time>
      </trkpt>
      <trkpt lat="41.5453780" lon="1.8837670">
        <ele>115.8</ele>
        <time>2022-06-28T18:16:53Z</time>
      </trkpt>
      <trkpt lat="41.5449760" lon="1.8835720">
        <ele>114.6</ele>
        <time>2022-06-28T18:16:58Z</time>
      </trkpt>
      <trkpt lat="41.5449100" lon="1.8835200">
        <ele>114.4</ele>
        <time>2022-06-28T18:16:59Z</time>
      </trkpt>
      <trkpt lat="41.5447340" lon="1.8832690">
        <ele>114.2</ele>
        <time>2022-06-28T18:17:03Z</time>
      </trkpt>
      <trkpt lat="41.5447050" lon="1.8832050">
        <ele>114.2</ele>
        <time>2022-06-28T18:17:04Z</time>
      </trkpt>
      <trkpt lat="41.5446970" lon="1.8830650">
        <ele>114.4</ele>
        <time>2022-06-28T18:17:06Z</time>
      </trkpt>
      <trkpt lat="41.5447380" lon="1.8829270">
        <ele>114.8</ele>
        <time>2022-06-28T18:17:08Z</time>
      </trkpt>
      <trkpt lat="41.5447930" lon="1.8827870">
        <ele>115.4</ele>
        <time>2022-06-28T18:17:10Z</time>
      </trkpt>
      <trkpt lat="41.5448150" lon="1.8827070">
        <ele>115.8</ele>
        <time>2022-06-28T18:17:11Z</time>
      </trkpt>
      <trkpt lat="41.5448290" lon="1.8826230">
        <ele>115.8</ele>
        <time>2022-06-28T18:17:12Z</time>
      </trkpt>
      <trkpt lat="41.5448350" lon="1.8824380">
        <ele>116.2</ele>
        <time>2022-06-28T18:17:14Z</time>
      </trkpt>
      <trkpt lat="41.5447980" lon="1.8822540">
        <ele>116.2</ele>
        <time>2022-06-28T18:17:16Z</time>
      </trkpt>
      <trkpt lat="41.5447670" lon="1.8821720">
        <ele>116.0</ele>
        <time>2022-06-28T18:17:17Z</time>
      </trkpt>
      <trkpt lat="41.5447230" lon="1.8820980">
        <ele>115.8</ele>
        <time>2022-06-28T18:17:18Z</time>
      </trkpt>
      <trkpt lat="41.5446320" lon="1.8819740">
        <ele>115.2</ele>
        <time>2022-06-28T18:17:20Z</time>
      </trkpt>
      <trkpt lat="41.5445730" lon="1.8819270">
        <ele>115.0</ele>
        <time>2022-06-28T18:17:21Z</time>
      </trkpt>
      <trkpt lat="41.5445000" lon="1.8818890">
        <ele>114.8</ele>
        <time>2022-06-28T18:17:22Z</time>
      </trkpt>
      <trkpt lat="41.5444250" lon="1.8818610">
        <ele>114.8</ele>
        <time>2022-06-28T18:17:23Z</time>
      </trkpt>
      <trkpt lat="41.5443450" lon="1.8818440">
        <ele>114.6</ele>
        <time>2022-06-28T18:17:24Z</time>
      </trkpt>
      <trkpt lat="41.5441850" lon="1.8818670">
        <ele>114.2</ele>
        <time>2022-06-28T18:17:26Z</time>
      </trkpt>
      <trkpt lat="41.5441100" lon="1.8819060">
        <ele>114.2</ele>
        <time>2022-06-28T18:17:27Z</time>
      </trkpt>
      <trkpt lat="41.5440360" lon="1.8819640">
        <ele>113.8</ele>
        <time>2022-06-28T18:17:28Z</time>
      </trkpt>
      <trkpt lat="41.5439670" lon="1.8820300">
        <ele>113.6</ele>
        <time>2022-06-28T18:17:29Z</time>
      </trkpt>
      <trkpt lat="41.5438990" lon="1.8820850">
        <ele>113.4</ele>
        <time>2022-06-28T18:17:30Z</time>
      </trkpt>
      <trkpt lat="41.5438210" lon="1.8821080">
        <ele>113.2</ele>
        <time>2022-06-28T18:17:31Z</time>
      </trkpt>
      <trkpt lat="41.5437440" lon="1.8820900">
        <ele>113.0</ele>
        <time>2022-06-28T18:17:32Z</time>
      </trkpt>
      <trkpt lat="41.5436010" lon="1.8820010">
        <ele>112.8</ele>
        <time>2022-06-28T18:17:34Z</time>
      </trkpt>
      <trkpt lat="41.5435290" lon="1.8819500">
        <ele>112.2</ele>
        <time>2022-06-28T18:17:35Z</time>
      </trkpt>
      <trkpt lat="41.5433290" lon="1.8818120">
        <ele>111.2</ele>
        <time>2022-06-28T18:17:38Z</time>
      </trkpt>
      <trkpt lat="41.5432720" lon="1.8817710">
        <ele>110.8</ele>
        <time>2022-06-28T18:17:39Z</time>
      </trkpt>
      <trkpt lat="41.5431240" lon="1.8816610">
        <ele>109.6</ele>
        <time>2022-06-28T18:17:42Z</time>
      </trkpt>
      <trkpt lat="41.5430410" lon="1.8816000">
        <ele>108.8</ele>
        <time>2022-06-28T18:17:44Z</time>
      </trkpt>
      <trkpt lat="41.5429490" lon="1.8815490">
        <ele>108.2</ele>
        <time>2022-06-28T18:17:46Z</time>
      </trkpt>
      <trkpt lat="41.5427920" lon="1.8814690">
        <ele>107.2</ele>
        <time>2022-06-28T18:17:49Z</time>
      </trkpt>
      <trkpt lat="41.5426700" lon="1.8813910">
        <ele>106.6</ele>
        <time>2022-06-28T18:17:51Z</time>
      </trkpt>
      <trkpt lat="41.5426070" lon="1.8813490">
        <ele>106.2</ele>
        <time>2022-06-28T18:17:52Z</time>
      </trkpt>
      <trkpt lat="41.5422810" lon="1.8811400">
        <ele>105.0</ele>
        <time>2022-06-28T18:17:57Z</time>
      </trkpt>
      <trkpt lat="41.5422140" lon="1.8810980">
        <ele>105.0</ele>
        <time>2022-06-28T18:17:58Z</time>
      </trkpt>
      <trkpt lat="41.5416880" lon="1.8807600">
        <ele>104.4</ele>
        <time>2022-06-28T18:18:06Z</time>
      </trkpt>
      <trkpt lat="41.5412880" lon="1.8805170">
        <ele>104.0</ele>
        <time>2022-06-28T18:18:12Z</time>
      </trkpt>
      <trkpt lat="41.5409290" lon="1.8804010">
        <ele>103.8</ele>
        <time>2022-06-28T18:18:17Z</time>
      </trkpt>
      <trkpt lat="41.5403810" lon="1.8803140">
        <ele>104.6</ele>
        <time>2022-06-28T18:18:25Z</time>
      </trkpt>
      <trkpt lat="41.5402440" lon="1.8803100">
        <ele>104.8</ele>
        <time>2022-06-28T18:18:27Z</time>
      </trkpt>
      <trkpt lat="41.5401360" lon="1.8803410">
        <ele>105.2</ele>
        <time>2022-06-28T18:18:29Z</time>
      </trkpt>
      <trkpt lat="41.5400810" lon="1.8803720">
        <ele>105.2</ele>
        <time>2022-06-28T18:18:30Z</time>
      </trkpt>
      <trkpt lat="41.5400280" lon="1.8804100">
        <ele>105.4</ele>
        <time>2022-06-28T18:18:31Z</time>
      </trkpt>
      <trkpt lat="41.5399270" lon="1.8805140">
        <ele>106.0</ele>
        <time>2022-06-28T18:18:33Z</time>
      </trkpt>
      <trkpt lat="41.5398820" lon="1.8805720">
        <ele>106.6</ele>
        <time>2022-06-28T18:18:34Z</time>
      </trkpt>
      <trkpt lat="41.5395590" lon="1.8809680">
        <ele>107.6</ele>
        <time>2022-06-28T18:18:41Z</time>
      </trkpt>
      <trkpt lat="41.5394230" lon="1.8811430">
        <ele>107.8</ele>
        <time>2022-06-28T18:18:44Z</time>
      </trkpt>
      <trkpt lat="41.5390630" lon="1.8816110">
        <ele>108.0</ele>
        <time>2022-06-28T18:18:52Z</time>
      </trkpt>
      <trkpt lat="41.5387490" lon="1.8821090">
        <ele>108.6</ele>
        <time>2022-06-28T18:19:00Z</time>
      </trkpt>
      <trkpt lat="41.5385360" lon="1.8826090">
        <ele>109.2</ele>
        <time>2022-06-28T18:19:07Z</time>
      </trkpt>
      <trkpt lat="41.5384320" lon="1.8829520">
        <ele>109.4</ele>
        <time>2022-06-28T18:19:12Z</time>
      </trkpt>
      <trkpt lat="41.5383650" lon="1.8830760">
        <ele>109.8</ele>
        <time>2022-06-28T18:19:14Z</time>
      </trkpt>
      <trkpt lat="41.5380240" lon="1.8835480">
        <ele>111.0</ele>
        <time>2022-06-28T18:19:23Z</time>
      </trkpt>
      <trkpt lat="41.5377790" lon="1.8838370">
        <ele>112.0</ele>
        <time>2022-06-28T18:19:29Z</time>
      </trkpt>
      <trkpt lat="41.5376270" lon="1.8839600">
        <ele>112.2</ele>
        <time>2022-06-28T18:19:32Z</time>
      </trkpt>
      <trkpt lat="41.5374510" lon="1.8841090">
        <ele>113.0</ele>
        <time>2022-06-28T18:19:36Z</time>
      </trkpt>
      <trkpt lat="41.5373310" lon="1.8842390">
        <ele>113.6</ele>
        <time>2022-06-28T18:19:39Z</time>
      </trkpt>
      <trkpt lat="41.5372280" lon="1.8843610">
        <ele>114.2</ele>
        <time>2022-06-28T18:19:42Z</time>
      </trkpt>
      <trkpt lat="41.5371560" lon="1.8844510">
        <ele>114.4</ele>
        <time>2022-06-28T18:19:44Z</time>
      </trkpt>
      <trkpt lat="41.5370740" lon="1.8845350">
        <ele>114.8</ele>
        <time>2022-06-28T18:19:46Z</time>
      </trkpt>
      <trkpt lat="41.5369940" lon="1.8846090">
        <ele>115.2</ele>
        <time>2022-06-28T18:19:48Z</time>
      </trkpt>
      <trkpt lat="41.5369250" lon="1.8847010">
        <ele>115.4</ele>
        <time>2022-06-28T18:19:50Z</time>
      </trkpt>
      <trkpt lat="41.5368970" lon="1.8847540">
        <ele>115.4</ele>
        <time>2022-06-28T18:19:51Z</time>
      </trkpt>
      <trkpt lat="41.5368720" lon="1.8848140">
        <ele>115.6</ele>
        <time>2022-06-28T18:19:52Z</time>
      </trkpt>
      <trkpt lat="41.5368210" lon="1.8849380">
        <ele>115.6</ele>
        <time>2022-06-28T18:19:54Z</time>
      </trkpt>
      <trkpt lat="41.5367480" lon="1.8850580">
        <ele>116.0</ele>
        <time>2022-06-28T18:19:56Z</time>
      </trkpt>
      <trkpt lat="41.5367110" lon="1.8851010">
        <ele>116.4</ele>
        <time>2022-06-28T18:19:57Z</time>
      </trkpt>
      <trkpt lat="41.5366790" lon="1.8851320">
        <ele>116.4</ele>
        <time>2022-06-28T18:19:58Z</time>
      </trkpt>
      <trkpt lat="41.5365530" lon="1.8852360">
        <ele>116.6</ele>
        <time>2022-06-28T18:20:01Z</time>
      </trkpt>
      <trkpt lat="41.5364760" lon="1.8853300">
        <ele>116.8</ele>
        <time>2022-06-28T18:20:03Z</time>
      </trkpt>
      <trkpt lat="41.5363520" lon="1.8855210">
        <ele>117.6</ele>
        <time>2022-06-28T18:20:07Z</time>
      </trkpt>
      <trkpt lat="41.5362470" lon="1.8856730">
        <ele>118.2</ele>
        <time>2022-06-28T18:20:10Z</time>
      </trkpt>
      <trkpt lat="41.5361460" lon="1.8857900">
        <ele>118.6</ele>
        <time>2022-06-28T18:20:13Z</time>
      </trkpt>
      <trkpt lat="41.5360530" lon="1.8859150">
        <ele>119.0</ele>
        <time>2022-06-28T18:20:16Z</time>
      </trkpt>
      <trkpt lat="41.5360290" lon="1.8859650">
        <ele>119.4</ele>
        <time>2022-06-28T18:20:17Z</time>
      </trkpt>
      <trkpt lat="41.5360070" lon="1.8860340">
        <ele>119.6</ele>
        <time>2022-06-28T18:20:18Z</time>
      </trkpt>
      <trkpt lat="41.5359280" lon="1.8862660">
        <ele>120.0</ele>
        <time>2022-06-28T18:20:22Z</time>
      </trkpt>
      <trkpt lat="41.5359010" lon="1.8863200">
        <ele>120.0</ele>
        <time>2022-06-28T18:20:23Z</time>
      </trkpt>
      <trkpt lat="41.5356750" lon="1.8867180">
        <ele>120.6</ele>
        <time>2022-06-28T18:20:31Z</time>
      </trkpt>
      <trkpt lat="41.5356460" lon="1.8867660">
        <ele>120.8</ele>
        <time>2022-06-28T18:20:32Z</time>
      </trkpt>
      <trkpt lat="41.5356150" lon="1.8868140">
        <ele>120.8</ele>
        <time>2022-06-28T18:20:33Z</time>
      </trkpt>
      <trkpt lat="41.5354430" lon="1.8870140">
        <ele>121.4</ele>
        <time>2022-06-28T18:20:38Z</time>
      </trkpt>
      <trkpt lat="41.5354040" lon="1.8870420">
        <ele>121.8</ele>
        <time>2022-06-28T18:20:39Z</time>
      </trkpt>
      <trkpt lat="41.5353290" lon="1.8870810">
        <ele>122.0</ele>
        <time>2022-06-28T18:20:41Z</time>
      </trkpt>
      <trkpt lat="41.5352560" lon="1.8871160">
        <ele>122.2</ele>
        <time>2022-06-28T18:20:43Z</time>
      </trkpt>
      <trkpt lat="41.5351460" lon="1.8872000">
        <ele>122.8</ele>
        <time>2022-06-28T18:20:46Z</time>
      </trkpt>
      <trkpt lat="41.5350430" lon="1.8872900">
        <ele>123.2</ele>
        <time>2022-06-28T18:20:49Z</time>
      </trkpt>
      <trkpt lat="41.5348420" lon="1.8874880">
        <ele>123.6</ele>
        <time>2022-06-28T18:20:54Z</time>
      </trkpt>
      <trkpt lat="41.5347900" lon="1.8875220">
        <ele>123.6</ele>
        <time>2022-06-28T18:20:55Z</time>
      </trkpt>
      <trkpt lat="41.5346610" lon="1.8875840">
        <ele>124.0</ele>
        <time>2022-06-28T18:20:58Z</time>
      </trkpt>
      <trkpt lat="41.5345710" lon="1.8876010">
        <ele>124.0</ele>
        <time>2022-06-28T18:21:00Z</time>
      </trkpt>
      <trkpt lat="41.5343550" lon="1.8877030">
        <ele>124.6</ele>
        <time>2022-06-28T18:21:05Z</time>
      </trkpt>
      <trkpt lat="41.5342770" lon="1.8877620">
        <ele>124.8</ele>
        <time>2022-06-28T18:21:07Z</time>
      </trkpt>
      <trkpt lat="41.5342430" lon="1.8877920">
        <ele>125.0</ele>
        <time>2022-06-28T18:21:08Z</time>
      </trkpt>
      <trkpt lat="41.5342110" lon="1.8878250">
        <ele>125.4</ele>
        <time>2022-06-28T18:21:09Z</time>
      </trkpt>
      <trkpt lat="41.5341300" lon="1.8879540">
        <ele>126.2</ele>
        <time>2022-06-28T18:21:12Z</time>
      </trkpt>
      <trkpt lat="41.5340590" lon="1.8881530">
        <ele>127.6</ele>
        <time>2022-06-28T18:21:16Z</time>
      </trkpt>
      <trkpt lat="41.5340420" lon="1.8882610">
        <ele>128.2</ele>
        <time>2022-06-28T18:21:18Z</time>
      </trkpt>
      <trkpt lat="41.5340350" lon="1.8883660">
        <ele>128.6</ele>
        <time>2022-06-28T18:21:20Z</time>
      </trkpt>
      <trkpt lat="41.5340350" lon="1.8884700">
        <ele>129.8</ele>
        <time>2022-06-28T18:21:22Z</time>
      </trkpt>
      <trkpt lat="41.5340370" lon="1.8886230">
        <ele>130.2</ele>
        <time>2022-06-28T18:21:25Z</time>
      </trkpt>
      <trkpt lat="41.5340370" lon="1.8888110">
        <ele>131.0</ele>
        <time>2022-06-28T18:21:29Z</time>
      </trkpt>
      <trkpt lat="41.5340100" lon="1.8889460">
        <ele>131.4</ele>
        <time>2022-06-28T18:21:32Z</time>
      </trkpt>
      <trkpt lat="41.5339560" lon="1.8890630">
        <ele>132.0</ele>
        <time>2022-06-28T18:21:35Z</time>
      </trkpt>
      <trkpt lat="41.5338860" lon="1.8891650">
        <ele>132.8</ele>
        <time>2022-06-28T18:21:38Z</time>
      </trkpt>
      <trkpt lat="41.5338330" lon="1.8892280">
        <ele>133.4</ele>
        <time>2022-06-28T18:21:40Z</time>
      </trkpt>
      <trkpt lat="41.5337320" lon="1.8893240">
        <ele>134.8</ele>
        <time>2022-06-28T18:21:44Z</time>
      </trkpt>
      <trkpt lat="41.5336770" lon="1.8893680">
        <ele>135.4</ele>
        <time>2022-06-28T18:21:46Z</time>
      </trkpt>
      <trkpt lat="41.5336210" lon="1.8894260">
        <ele>135.8</ele>
        <time>2022-06-28T18:21:48Z</time>
      </trkpt>
      <trkpt lat="41.5334730" lon="1.8895490">
        <ele>137.2</ele>
        <time>2022-06-28T18:21:54Z</time>
      </trkpt>
      <trkpt lat="41.5333510" lon="1.8896580">
        <ele>138.2</ele>
        <time>2022-06-28T18:21:59Z</time>
      </trkpt>
      <trkpt lat="41.5332970" lon="1.8897150">
        <ele>138.6</ele>
        <time>2022-06-28T18:22:01Z</time>
      </trkpt>
      <trkpt lat="41.5332080" lon="1.8898080">
        <ele>139.2</ele>
        <time>2022-06-28T18:22:04Z</time>
      </trkpt>
      <trkpt lat="41.5330930" lon="1.8899130">
        <ele>139.8</ele>
        <time>2022-06-28T18:22:08Z</time>
      </trkpt>
      <trkpt lat="41.5330080" lon="1.8900060">
        <ele>140.4</ele>
        <time>2022-06-28T18:22:11Z</time>
      </trkpt>
      <trkpt lat="41.5328410" lon="1.8901710">
        <ele>141.4</ele>
        <time>2022-06-28T18:22:17Z</time>
      </trkpt>
      <trkpt lat="41.5327330" lon="1.8902760">
        <ele>142.4</ele>
        <time>2022-06-28T18:22:21Z</time>
      </trkpt>
      <trkpt lat="41.5325920" lon="1.8903950">
        <ele>143.6</ele>
        <time>2022-06-28T18:22:26Z</time>
      </trkpt>
      <trkpt lat="41.5325610" lon="1.8904130">
        <ele>143.8</ele>
        <time>2022-06-28T18:22:27Z</time>
      </trkpt>
      <trkpt lat="41.5324410" lon="1.8904730">
        <ele>144.6</ele>
        <time>2022-06-28T18:22:31Z</time>
      </trkpt>
      <trkpt lat="41.5322710" lon="1.8905220">
        <ele>145.4</ele>
        <time>2022-06-28T18:22:36Z</time>
      </trkpt>
      <trkpt lat="41.5321630" lon="1.8905540">
        <ele>145.6</ele>
        <time>2022-06-28T18:22:39Z</time>
      </trkpt>
      <trkpt lat="41.5319370" lon="1.8906130">
        <ele>146.0</ele>
        <time>2022-06-28T18:22:45Z</time>
      </trkpt>
      <trkpt lat="41.5317910" lon="1.8906490">
        <ele>146.4</ele>
        <time>2022-06-28T18:22:50Z</time>
      </trkpt>
      <trkpt lat="41.5316930" lon="1.8906610">
        <ele>146.6</ele>
        <time>2022-06-28T18:22:53Z</time>
      </trkpt>
      <trkpt lat="41.5315770" lon="1.8906910">
        <ele>146.8</ele>
        <time>2022-06-28T18:22:56Z</time>
      </trkpt>
      <trkpt lat="41.5310850" lon="1.8907960">
        <ele>147.2</ele>
        <time>2022-06-28T18:23:06Z</time>
      </trkpt>
      <trkpt lat="41.5305390" lon="1.8908930">
        <ele>147.2</ele>
        <time>2022-06-28T18:23:18Z</time>
      </trkpt>
      <trkpt lat="41.5304860" lon="1.8909040">
        <ele>147.2</ele>
        <time>2022-06-28T18:23:19Z</time>
      </trkpt>
      <trkpt lat="41.5299570" lon="1.8910320">
        <ele>147.6</ele>
        <time>2022-06-28T18:23:28Z</time>
      </trkpt>
      <trkpt lat="41.5295150" lon="1.8912250">
        <ele>147.6</ele>
        <time>2022-06-28T18:23:36Z</time>
      </trkpt>
      <trkpt lat="41.5291290" lon="1.8914080">
        <ele>147.2</ele>
        <time>2022-06-28T18:23:43Z</time>
      </trkpt>
      <trkpt lat="41.5288510" lon="1.8915460">
        <ele>146.6</ele>
        <time>2022-06-28T18:23:48Z</time>
      </trkpt>
      <trkpt lat="41.5287920" lon="1.8915710">
        <ele>146.4</ele>
        <time>2022-06-28T18:23:50Z</time>
      </trkpt>
      <trkpt lat="41.5284930" lon="1.8916590">
        <ele>146.4</ele>
        <time>2022-06-28T18:23:54Z</time>
      </trkpt>
      <trkpt lat="41.5284310" lon="1.8916440">
        <ele>146.2</ele>
        <time>2022-06-28T18:23:55Z</time>
      </trkpt>
      <trkpt lat="41.5283710" lon="1.8916130">
        <ele>146.2</ele>
        <time>2022-06-28T18:23:56Z</time>
      </trkpt>
      <trkpt lat="41.5282650" lon="1.8915170">
        <ele>146.0</ele>
        <time>2022-06-28T18:23:58Z</time>
      </trkpt>
      <trkpt lat="41.5282180" lon="1.8914570">
        <ele>145.8</ele>
        <time>2022-06-28T18:23:59Z</time>
      </trkpt>
      <trkpt lat="41.5281310" lon="1.8913330">
        <ele>145.6</ele>
        <time>2022-06-28T18:24:01Z</time>
      </trkpt>
      <trkpt lat="41.5278390" lon="1.8908980">
        <ele>145.0</ele>
        <time>2022-06-28T18:24:09Z</time>
      </trkpt>
      <trkpt lat="41.5277760" lon="1.8907560">
        <ele>144.8</ele>
        <time>2022-06-28T18:24:10Z</time>
      </trkpt>
      <trkpt lat="41.5277400" lon="1.8905940">
        <ele>144.6</ele>
        <time>2022-06-28T18:24:12Z</time>
      </trkpt>
      <trkpt lat="41.5277320" lon="1.8905080">
        <ele>144.4</ele>
        <time>2022-06-28T18:24:13Z</time>
      </trkpt>
      <trkpt lat="41.5277200" lon="1.8900630">
        <ele>144.2</ele>
        <time>2022-06-28T18:24:18Z</time>
      </trkpt>
      <trkpt lat="41.5277120" lon="1.8899730">
        <ele>144.2</ele>
        <time>2022-06-28T18:24:19Z</time>
      </trkpt>
      <trkpt lat="41.5276660" lon="1.8898060">
        <ele>144.0</ele>
        <time>2022-06-28T18:24:21Z</time>
      </trkpt>
      <trkpt lat="41.5276250" lon="1.8897320">
        <ele>144.0</ele>
        <time>2022-06-28T18:24:22Z</time>
      </trkpt>
      <trkpt lat="41.5275750" lon="1.8896700">
        <ele>144.0</ele>
        <time>2022-06-28T18:24:23Z</time>
      </trkpt>
      <trkpt lat="41.5274070" lon="1.8895140">
        <ele>143.6</ele>
        <time>2022-06-28T18:24:26Z</time>
      </trkpt>
      <trkpt lat="41.5273460" lon="1.8894660">
        <ele>143.6</ele>
        <time>2022-06-28T18:24:27Z</time>
      </trkpt>
      <trkpt lat="41.5271200" lon="1.8892470">
        <ele>142.6</ele>
        <time>2022-06-28T18:24:31Z</time>
      </trkpt>
      <trkpt lat="41.5270740" lon="1.8891730">
        <ele>142.4</ele>
        <time>2022-06-28T18:24:32Z</time>
      </trkpt>
      <trkpt lat="41.5268600" lon="1.8886740">
        <ele>141.8</ele>
        <time>2022-06-28T18:24:38Z</time>
      </trkpt>
      <trkpt lat="41.5266680" lon="1.8881740">
        <ele>141.4</ele>
        <time>2022-06-28T18:24:44Z</time>
      </trkpt>
      <trkpt lat="41.5264810" lon="1.8876620">
        <ele>141.0</ele>
        <time>2022-06-28T18:24:50Z</time>
      </trkpt>
      <trkpt lat="41.5263260" lon="1.8871140">
        <ele>140.6</ele>
        <time>2022-06-28T18:24:56Z</time>
      </trkpt>
      <trkpt lat="41.5263170" lon="1.8870150">
        <ele>140.6</ele>
        <time>2022-06-28T18:24:57Z</time>
      </trkpt>
      <trkpt lat="41.5263200" lon="1.8869480">
        <ele>140.4</ele>
        <time>2022-06-28T18:24:58Z</time>
      </trkpt>
      <trkpt lat="41.5263230" lon="1.8868820">
        <ele>140.4</ele>
        <time>2022-06-28T18:24:59Z</time>
      </trkpt>
      <trkpt lat="41.5263330" lon="1.8866150">
        <ele>140.4</ele>
        <time>2022-06-28T18:25:01Z</time>
      </trkpt>
      <trkpt lat="41.5263510" lon="1.8864190">
        <ele>140.2</ele>
        <time>2022-06-28T18:25:03Z</time>
      </trkpt>
      <trkpt lat="41.5264210" lon="1.8856550">
        <ele>139.6</ele>
        <time>2022-06-28T18:25:11Z</time>
      </trkpt>
      <trkpt lat="41.5264690" lon="1.8853040">
        <ele>139.4</ele>
        <time>2022-06-28T18:25:15Z</time>
      </trkpt>
      <trkpt lat="41.5265870" lon="1.8847700">
        <ele>140.0</ele>
        <time>2022-06-28T18:25:22Z</time>
      </trkpt>
      <trkpt lat="41.5266300" lon="1.8846310">
        <ele>140.6</ele>
        <time>2022-06-28T18:25:24Z</time>
      </trkpt>
      <trkpt lat="41.5267540" lon="1.8843020">
        <ele>142.0</ele>
        <time>2022-06-28T18:25:29Z</time>
      </trkpt>
      <trkpt lat="41.5267830" lon="1.8842400">
        <ele>142.2</ele>
        <time>2022-06-28T18:25:30Z</time>
      </trkpt>
      <trkpt lat="41.5268990" lon="1.8840080">
        <ele>143.4</ele>
        <time>2022-06-28T18:25:34Z</time>
      </trkpt>
      <trkpt lat="41.5270180" lon="1.8838100">
        <ele>144.4</ele>
        <time>2022-06-28T18:25:38Z</time>
      </trkpt>
      <trkpt lat="41.5270490" lon="1.8837640">
        <ele>144.4</ele>
        <time>2022-06-28T18:25:39Z</time>
      </trkpt>
      <trkpt lat="41.5271710" lon="1.8835820">
        <ele>145.6</ele>
        <time>2022-06-28T18:25:43Z</time>
      </trkpt>
      <trkpt lat="41.5272980" lon="1.8834120">
        <ele>146.8</ele>
        <time>2022-06-28T18:25:47Z</time>
      </trkpt>
      <trkpt lat="41.5274570" lon="1.8832130">
        <ele>148.4</ele>
        <time>2022-06-28T18:25:52Z</time>
      </trkpt>
      <trkpt lat="41.5276090" lon="1.8830180">
        <ele>149.6</ele>
        <time>2022-06-28T18:25:57Z</time>
      </trkpt>
      <trkpt lat="41.5276400" lon="1.8829830">
        <ele>149.8</ele>
        <time>2022-06-28T18:25:58Z</time>
      </trkpt>
      <trkpt lat="41.5277300" lon="1.8828730">
        <ele>150.8</ele>
        <time>2022-06-28T18:26:01Z</time>
      </trkpt>
      <trkpt lat="41.5278850" lon="1.8826920">
        <ele>151.8</ele>
        <time>2022-06-28T18:26:06Z</time>
      </trkpt>
      <trkpt lat="41.5279460" lon="1.8826190">
        <ele>152.4</ele>
        <time>2022-06-28T18:26:08Z</time>
      </trkpt>
      <trkpt lat="41.5280040" lon="1.8825460">
        <ele>153.0</ele>
        <time>2022-06-28T18:26:10Z</time>
      </trkpt>
      <trkpt lat="41.5281470" lon="1.8823840">
        <ele>154.0</ele>
        <time>2022-06-28T18:26:15Z</time>
      </trkpt>
      <trkpt lat="41.5281740" lon="1.8823500">
        <ele>154.4</ele>
        <time>2022-06-28T18:26:16Z</time>
      </trkpt>
      <trkpt lat="41.5283370" lon="1.8821470">
        <ele>155.2</ele>
        <time>2022-06-28T18:26:22Z</time>
      </trkpt>
      <trkpt lat="41.5284140" lon="1.8820400">
        <ele>155.8</ele>
        <time>2022-06-28T18:26:25Z</time>
      </trkpt>
      <trkpt lat="41.5284640" lon="1.8819650">
        <ele>156.2</ele>
        <time>2022-06-28T18:26:27Z</time>
      </trkpt>
      <trkpt lat="41.5285920" lon="1.8817780">
        <ele>157.4</ele>
        <time>2022-06-28T18:26:32Z</time>
      </trkpt>
      <trkpt lat="41.5286170" lon="1.8817420">
        <ele>157.8</ele>
        <time>2022-06-28T18:26:33Z</time>
      </trkpt>
      <trkpt lat="41.5287170" lon="1.8815990">
        <ele>158.4</ele>
        <time>2022-06-28T18:26:37Z</time>
      </trkpt>
      <trkpt lat="41.5288390" lon="1.8814100">
        <ele>159.0</ele>
        <time>2022-06-28T18:26:42Z</time>
      </trkpt>
      <trkpt lat="41.5289170" lon="1.8812690">
        <ele>159.4</ele>
        <time>2022-06-28T18:26:46Z</time>
      </trkpt>
      <trkpt lat="41.5289770" lon="1.8811540">
        <ele>160.0</ele>
        <time>2022-06-28T18:26:49Z</time>
      </trkpt>
      <trkpt lat="41.5290610" lon="1.8809540">
        <ele>160.4</ele>
        <time>2022-06-28T18:26:54Z</time>
      </trkpt>
      <trkpt lat="41.5291320" lon="1.8807110">
        <ele>161.0</ele>
        <time>2022-06-28T18:26:59Z</time>
      </trkpt>
      <trkpt lat="41.5291710" lon="1.8804980">
        <ele>161.4</ele>
        <time>2022-06-28T18:27:03Z</time>
      </trkpt>
      <trkpt lat="41.5291850" lon="1.8803550">
        <ele>161.6</ele>
        <time>2022-06-28T18:27:06Z</time>
      </trkpt>
      <trkpt lat="41.5292310" lon="1.8800680">
        <ele>162.0</ele>
        <time>2022-06-28T18:27:12Z</time>
      </trkpt>
      <trkpt lat="41.5292720" lon="1.8798380">
        <ele>162.0</ele>
        <time>2022-06-28T18:27:16Z</time>
      </trkpt>
      <trkpt lat="41.5292990" lon="1.8797080">
        <ele>162.0</ele>
        <time>2022-06-28T18:27:18Z</time>
      </trkpt>
      <trkpt lat="41.5293210" lon="1.8796450">
        <ele>162.2</ele>
        <time>2022-06-28T18:27:19Z</time>
      </trkpt>
      <trkpt lat="41.5294030" lon="1.8793790">
        <ele>162.2</ele>
        <time>2022-06-28T18:27:23Z</time>
      </trkpt>
      <trkpt lat="41.5295630" lon="1.8789600">
        <ele>162.4</ele>
        <time>2022-06-28T18:27:29Z</time>
      </trkpt>
      <trkpt lat="41.5298430" lon="1.8784820">
        <ele>162.6</ele>
        <time>2022-06-28T18:27:37Z</time>
      </trkpt>
      <trkpt lat="41.5300650" lon="1.8781200">
        <ele>163.2</ele>
        <time>2022-06-28T18:27:43Z</time>
      </trkpt>
      <trkpt lat="41.5302170" lon="1.8778760">
        <ele>163.6</ele>
        <time>2022-06-28T18:27:47Z</time>
      </trkpt>
      <trkpt lat="41.5304010" lon="1.8775730">
        <ele>164.2</ele>
        <time>2022-06-28T18:27:52Z</time>
      </trkpt>
      <trkpt lat="41.5306330" lon="1.8771280">
        <ele>164.6</ele>
        <time>2022-06-28T18:27:59Z</time>
      </trkpt>
      <trkpt lat="41.5306940" lon="1.8770000">
        <ele>165.0</ele>
        <time>2022-06-28T18:28:01Z</time>
      </trkpt>
      <trkpt lat="41.5309180" lon="1.8765850">
        <ele>165.6</ele>
        <time>2022-06-28T18:28:08Z</time>
      </trkpt>
      <trkpt lat="41.5309490" lon="1.8765260">
        <ele>165.8</ele>
        <time>2022-06-28T18:28:09Z</time>
      </trkpt>
      <trkpt lat="41.5311210" lon="1.8762360">
        <ele>166.6</ele>
        <time>2022-06-28T18:28:14Z</time>
      </trkpt>
      <trkpt lat="41.5311550" lon="1.8761850">
        <ele>166.8</ele>
        <time>2022-06-28T18:28:15Z</time>
      </trkpt>
      <trkpt lat="41.5312440" lon="1.8760250">
        <ele>167.8</ele>
        <time>2022-06-28T18:28:18Z</time>
      </trkpt>
      <trkpt lat="41.5313340" lon="1.8758820">
        <ele>168.6</ele>
        <time>2022-06-28T18:28:21Z</time>
      </trkpt>
      <trkpt lat="41.5313980" lon="1.8757790">
        <ele>169.0</ele>
        <time>2022-06-28T18:28:23Z</time>
      </trkpt>
      <trkpt lat="41.5314790" lon="1.8756420">
        <ele>169.6</ele>
        <time>2022-06-28T18:28:26Z</time>
      </trkpt>
      <trkpt lat="41.5315310" lon="1.8755630">
        <ele>170.2</ele>
        <time>2022-06-28T18:28:28Z</time>
      </trkpt>
      <trkpt lat="41.5316760" lon="1.8754360">
        <ele>170.8</ele>
        <time>2022-06-28T18:28:33Z</time>
      </trkpt>
      <trkpt lat="41.5317450" lon="1.8753680">
        <ele>171.4</ele>
        <time>2022-06-28T18:28:35Z</time>
      </trkpt>
      <trkpt lat="41.5317960" lon="1.8752690">
        <ele>171.8</ele>
        <time>2022-06-28T18:28:37Z</time>
      </trkpt>
      <trkpt lat="41.5318690" lon="1.8750310">
        <ele>172.4</ele>
        <time>2022-06-28T18:28:41Z</time>
      </trkpt>
      <trkpt lat="41.5318920" lon="1.8749910">
        <ele>172.6</ele>
        <time>2022-06-28T18:28:42Z</time>
      </trkpt>
      <trkpt lat="41.5319230" lon="1.8749480">
        <ele>172.8</ele>
        <time>2022-06-28T18:28:43Z</time>
      </trkpt>
      <trkpt lat="41.5320600" lon="1.8748090">
        <ele>173.2</ele>
        <time>2022-06-28T18:28:47Z</time>
      </trkpt>
      <trkpt lat="41.5322050" lon="1.8746690">
        <ele>173.6</ele>
        <time>2022-06-28T18:28:51Z</time>
      </trkpt>
      <trkpt lat="41.5322340" lon="1.8746280">
        <ele>173.6</ele>
        <time>2022-06-28T18:28:52Z</time>
      </trkpt>
      <trkpt lat="41.5322960" lon="1.8745470">
        <ele>174.0</ele>
        <time>2022-06-28T18:28:54Z</time>
      </trkpt>
      <trkpt lat="41.5324540" lon="1.8743240">
        <ele>174.6</ele>
        <time>2022-06-28T18:28:59Z</time>
      </trkpt>
      <trkpt lat="41.5325390" lon="1.8742010">
        <ele>175.0</ele>
        <time>2022-06-28T18:29:02Z</time>
      </trkpt>
      <trkpt lat="41.5326950" lon="1.8739600">
        <ele>175.8</ele>
        <time>2022-06-28T18:29:08Z</time>
      </trkpt>
      <trkpt lat="41.5329380" lon="1.8736210">
        <ele>176.4</ele>
        <time>2022-06-28T18:29:16Z</time>
      </trkpt>
      <trkpt lat="41.5330690" lon="1.8734200">
        <ele>176.8</ele>
        <time>2022-06-28T18:29:21Z</time>
      </trkpt>
      <trkpt lat="41.5331090" lon="1.8733640">
        <ele>176.8</ele>
        <time>2022-06-28T18:29:23Z</time>
      </trkpt>
      <trkpt lat="41.5331740" lon="1.8732630">
        <ele>177.6</ele>
        <time>2022-06-28T18:29:28Z</time>
      </trkpt>
      <trkpt lat="41.5333010" lon="1.8730880">
        <ele>178.0</ele>
        <time>2022-06-28T18:29:33Z</time>
      </trkpt>
      <trkpt lat="41.5333650" lon="1.8730040">
        <ele>178.0</ele>
        <time>2022-06-28T18:29:35Z</time>
      </trkpt>
      <trkpt lat="41.5335180" lon="1.8727700">
        <ele>178.2</ele>
        <time>2022-06-28T18:29:40Z</time>
      </trkpt>
      <trkpt lat="41.5336120" lon="1.8726210">
        <ele>178.8</ele>
        <time>2022-06-28T18:29:43Z</time>
      </trkpt>
      <trkpt lat="41.5337420" lon="1.8724380">
        <ele>180.0</ele>
        <time>2022-06-28T18:29:47Z</time>
      </trkpt>
      <trkpt lat="41.5337720" lon="1.8723940">
        <ele>180.4</ele>
        <time>2022-06-28T18:29:48Z</time>
      </trkpt>
      <trkpt lat="41.5338930" lon="1.8722130">
        <ele>181.0</ele>
        <time>2022-06-28T18:29:52Z</time>
      </trkpt>
      <trkpt lat="41.5339530" lon="1.8721310">
        <ele>181.0</ele>
        <time>2022-06-28T18:29:54Z</time>
      </trkpt>
      <trkpt lat="41.5340580" lon="1.8719710">
        <ele>181.4</ele>
        <time>2022-06-28T18:29:58Z</time>
      </trkpt>
      <trkpt lat="41.5341590" lon="1.8718130">
        <ele>181.8</ele>
        <time>2022-06-28T18:30:03Z</time>
      </trkpt>
      <trkpt lat="41.5341940" lon="1.8717440">
        <ele>182.0</ele>
        <time>2022-06-28T18:30:05Z</time>
      </trkpt>
      <trkpt lat="41.5342630" lon="1.8716240">
        <ele>182.6</ele>
        <time>2022-06-28T18:30:09Z</time>
      </trkpt>
      <trkpt lat="41.5343180" lon="1.8715770">
        <ele>182.6</ele>
        <time>2022-06-28T18:30:12Z</time>
      </trkpt>
      <trkpt lat="41.5343350" lon="1.8715600">
        <ele>182.8</ele>
        <time>2022-06-28T18:30:13Z</time>
      </trkpt>
      <trkpt lat="41.5343800" lon="1.8715020">
        <ele>183.2</ele>
        <time>2022-06-28T18:30:16Z</time>
      </trkpt>
      <trkpt lat="41.5344640" lon="1.8713620">
        <ele>183.2</ele>
        <time>2022-06-28T18:30:20Z</time>
      </trkpt>
      <trkpt lat="41.5346330" lon="1.8710780">
        <ele>182.8</ele>
        <time>2022-06-28T18:30:26Z</time>
      </trkpt>
      <trkpt lat="41.5349160" lon="1.8706360">
        <ele>183.4</ele>
        <time>2022-06-28T18:30:35Z</time>
      </trkpt>
      <trkpt lat="41.5349450" lon="1.8705960">
        <ele>183.4</ele>
        <time>2022-06-28T18:30:36Z</time>
      </trkpt>
      <trkpt lat="41.5350380" lon="1.8705320">
        <ele>183.6</ele>
        <time>2022-06-28T18:30:39Z</time>
      </trkpt>
      <trkpt lat="41.5351520" lon="1.8705140">
        <ele>183.8</ele>
        <time>2022-06-28T18:30:42Z</time>
      </trkpt>
      <trkpt lat="41.5351920" lon="1.8704850">
        <ele>184.0</ele>
        <time>2022-06-28T18:30:43Z</time>
      </trkpt>
      <trkpt lat="41.5352310" lon="1.8704480">
        <ele>184.0</ele>
        <time>2022-06-28T18:30:44Z</time>
      </trkpt>
      <trkpt lat="41.5352840" lon="1.8703500">
        <ele>184.2</ele>
        <time>2022-06-28T18:30:46Z</time>
      </trkpt>
      <trkpt lat="41.5352930" lon="1.8703040">
        <ele>184.4</ele>
        <time>2022-06-28T18:30:47Z</time>
      </trkpt>
      <trkpt lat="41.5352920" lon="1.8702620">
        <ele>184.4</ele>
        <time>2022-06-28T18:30:48Z</time>
      </trkpt>
      <trkpt lat="41.5352560" lon="1.8701620">
        <ele>184.6</ele>
        <time>2022-06-28T18:30:50Z</time>
      </trkpt>
      <trkpt lat="41.5352100" lon="1.8700860">
        <ele>184.6</ele>
        <time>2022-06-28T18:30:52Z</time>
      </trkpt>
      <trkpt lat="41.5351520" lon="1.8700010">
        <ele>184.6</ele>
        <time>2022-06-28T18:30:54Z</time>
      </trkpt>
      <trkpt lat="41.5350160" lon="1.8698300">
        <ele>184.4</ele>
        <time>2022-06-28T18:30:58Z</time>
      </trkpt>
      <trkpt lat="41.5350180" lon="1.8697960">
        <ele>184.2</ele>
        <time>2022-06-28T18:30:59Z</time>
      </trkpt>
      <trkpt lat="41.5349170" lon="1.8696850">
        <ele>183.6</ele>
        <time>2022-06-28T18:31:01Z</time>
      </trkpt>
      <trkpt lat="41.5348670" lon="1.8696060">
        <ele>183.4</ele>
        <time>2022-06-28T18:31:02Z</time>
      </trkpt>
      <trkpt lat="41.5348690" lon="1.8695090">
        <ele>183.0</ele>
        <time>2022-06-28T18:31:03Z</time>
      </trkpt>
      <trkpt lat="41.5348780" lon="1.8694140">
        <ele>182.8</ele>
        <time>2022-06-28T18:31:04Z</time>
      </trkpt>
      <trkpt lat="41.5348870" lon="1.8692290">
        <ele>182.0</ele>
        <time>2022-06-28T18:31:06Z</time>
      </trkpt>
      <trkpt lat="41.5348900" lon="1.8691330">
        <ele>181.4</ele>
        <time>2022-06-28T18:31:07Z</time>
      </trkpt>
      <trkpt lat="41.5348940" lon="1.8690410">
        <ele>180.6</ele>
        <time>2022-06-28T18:31:08Z</time>
      </trkpt>
      <trkpt lat="41.5349490" lon="1.8688990">
        <ele>179.6</ele>
        <time>2022-06-28T18:31:10Z</time>
      </trkpt>
      <trkpt lat="41.5350520" lon="1.8688410">
        <ele>178.4</ele>
        <time>2022-06-28T18:31:12Z</time>
      </trkpt>
      <trkpt lat="41.5350980" lon="1.8688190">
        <ele>178.0</ele>
        <time>2022-06-28T18:31:13Z</time>
      </trkpt>
      <trkpt lat="41.5351390" lon="1.8688020">
        <ele>177.2</ele>
        <time>2022-06-28T18:31:14Z</time>
      </trkpt>
      <trkpt lat="41.5352320" lon="1.8687490">
        <ele>176.6</ele>
        <time>2022-06-28T18:31:17Z</time>
      </trkpt>
      <trkpt lat="41.5352610" lon="1.8687770">
        <ele>176.6</ele>
        <time>2022-06-28T18:31:19Z</time>
      </trkpt>
      <trkpt lat="41.5352500" lon="1.8687930">
        <ele>176.6</ele>
        <time>2022-06-28T18:31:20Z</time>
      </trkpt>
      <trkpt lat="41.5351990" lon="1.8688410">
        <ele>176.6</ele>
        <time>2022-06-28T18:31:23Z</time>
      </trkpt>
      <trkpt lat="41.5351880" lon="1.8688760">
        <ele>176.6</ele>
        <time>2022-06-28T18:31:24Z</time>
      </trkpt>
      <trkpt lat="41.5351940" lon="1.8689070">
        <ele>176.6</ele>
        <time>2022-06-28T18:31:26Z</time>
      </trkpt>
      <trkpt lat="41.5352000" lon="1.8689100">
        <ele>176.6</ele>
        <time>2022-06-28T18:31:27Z</time>
      </trkpt>
      <trkpt lat="41.5351900" lon="1.8689030">
        <ele>176.8</ele>
        <time>2022-06-28T18:31:28Z</time>
      </trkpt>
      <trkpt lat="41.5351800" lon="1.8688910">
        <ele>176.8</ele>
        <time>2022-06-28T18:31:29Z</time>
      </trkpt>
      <trkpt lat="41.5351190" lon="1.8688280">
        <ele>171.0</ele>
        <time>2022-04-09T06:19:04Z</time>
      </trkpt>
      <trkpt lat="41.5351190" lon="1.8688280">
        <ele>162.0</ele>
        <time>2022-04-09T06:19:05Z</time>
      </trkpt>
      <trkpt lat="41.5351110" lon="1.8688180">
        <ele>161.6</ele>
        <time>2022-04-09T06:19:11Z</time>
      </trkpt>
      <trkpt lat="41.5351050" lon="1.8687740">
        <ele>161.6</ele>
        <time>2022-04-09T06:19:13Z</time>
      </trkpt>
      <trkpt lat="41.5351080" lon="1.8687320">
        <ele>161.6</ele>
        <time>2022-04-09T06:19:15Z</time>
      </trkpt>
      <trkpt lat="41.5351460" lon="1.8687180">
        <ele>161.6</ele>
        <time>2022-04-09T06:19:17Z</time>
      </trkpt>
      <trkpt lat="41.5351810" lon="1.8687190">
        <ele>161.6</ele>
        <time>2022-04-09T06:19:19Z</time>
      </trkpt>
      <trkpt lat="41.5351540" lon="1.8687390">
        <ele>162.0</ele>
        <time>2022-04-09T06:19:21Z</time>
      </trkpt>
      <trkpt lat="41.5350030" lon="1.8688390">
        <ele>162.2</ele>
        <time>2022-04-09T06:19:25Z</time>
      </trkpt>
      <trkpt lat="41.5348890" lon="1.8689000">
        <ele>162.2</ele>
        <time>2022-04-09T06:19:27Z</time>
      </trkpt>
      <trkpt lat="41.5348100" lon="1.8690290">
        <ele>162.2</ele>
        <time>2022-04-09T06:19:29Z</time>
      </trkpt>
      <trkpt lat="41.5347990" lon="1.8692970">
        <ele>161.6</ele>
        <time>2022-04-09T06:19:32Z</time>
      </trkpt>
      <trkpt lat="41.5347630" lon="1.8697240">
        <ele>162.0</ele>
        <time>2022-04-09T06:19:38Z</time>
      </trkpt>
      <trkpt lat="41.5347400" lon="1.8698560">
        <ele>163.6</ele>
        <time>2022-04-09T06:19:41Z</time>
      </trkpt>
      <trkpt lat="41.5347080" lon="1.8698830">
        <ele>164.2</ele>
        <time>2022-04-09T06:19:42Z</time>
      </trkpt>
      <trkpt lat="41.5346640" lon="1.8699080">
        <ele>164.4</ele>
        <time>2022-04-09T06:19:43Z</time>
      </trkpt>
      <trkpt lat="41.5346090" lon="1.8699310">
        <ele>164.8</ele>
        <time>2022-04-09T06:19:44Z</time>
      </trkpt>
      <trkpt lat="41.5344750" lon="1.8699730">
        <ele>165.0</ele>
        <time>2022-04-09T06:19:46Z</time>
      </trkpt>
      <trkpt lat="41.5341170" lon="1.8701050">
        <ele>164.8</ele>
        <time>2022-04-09T06:19:52Z</time>
      </trkpt>
      <trkpt lat="41.5339250" lon="1.8701540">
        <ele>163.6</ele>
        <time>2022-04-09T06:19:56Z</time>
      </trkpt>
      <trkpt lat="41.5338050" lon="1.8702080">
        <ele>163.2</ele>
        <time>2022-04-09T06:19:59Z</time>
      </trkpt>
      <trkpt lat="41.5337540" lon="1.8702380">
        <ele>163.0</ele>
        <time>2022-04-09T06:20:00Z</time>
      </trkpt>
      <trkpt lat="41.5333230" lon="1.8703730">
        <ele>162.0</ele>
        <time>2022-04-09T06:20:05Z</time>
      </trkpt>
      <trkpt lat="41.5330260" lon="1.8704910">
        <ele>161.0</ele>
        <time>2022-04-09T06:20:09Z</time>
      </trkpt>
      <trkpt lat="41.5328770" lon="1.8705580">
        <ele>160.6</ele>
        <time>2022-04-09T06:20:11Z</time>
      </trkpt>
      <trkpt lat="41.5327380" lon="1.8706150">
        <ele>159.8</ele>
        <time>2022-04-09T06:20:13Z</time>
      </trkpt>
      <trkpt lat="41.5326280" lon="1.8706590">
        <ele>158.8</ele>
        <time>2022-04-09T06:20:15Z</time>
      </trkpt>
      <trkpt lat="41.5325860" lon="1.8706800">
        <ele>158.2</ele>
        <time>2022-04-09T06:20:16Z</time>
      </trkpt>
      <trkpt lat="41.5325560" lon="1.8706990">
        <ele>157.4</ele>
        <time>2022-04-09T06:20:17Z</time>
      </trkpt>
      <trkpt lat="41.5325390" lon="1.8707220">
        <ele>157.2</ele>
        <time>2022-04-09T06:20:18Z</time>
      </trkpt>
      <trkpt lat="41.5325320" lon="1.8707490">
        <ele>156.4</ele>
        <time>2022-04-09T06:20:19Z</time>
      </trkpt>
      <trkpt lat="41.5325330" lon="1.8707820">
        <ele>156.2</ele>
        <time>2022-04-09T06:20:20Z</time>
      </trkpt>
      <trkpt lat="41.5325590" lon="1.8708610">
        <ele>155.8</ele>
        <time>2022-04-09T06:20:22Z</time>
      </trkpt>
      <trkpt lat="41.5325960" lon="1.8709110">
        <ele>155.8</ele>
        <time>2022-04-09T06:20:23Z</time>
      </trkpt>
      <trkpt lat="41.5326540" lon="1.8710130">
        <ele>155.6</ele>
        <time>2022-04-09T06:20:25Z</time>
      </trkpt>
      <trkpt lat="41.5327280" lon="1.8711860">
        <ele>155.6</ele>
        <time>2022-04-09T06:20:28Z</time>
      </trkpt>
      <trkpt lat="41.5328200" lon="1.8714080">
        <ele>157.2</ele>
        <time>2022-04-09T06:20:33Z</time>
      </trkpt>
      <trkpt lat="41.5328690" lon="1.8715380">
        <ele>158.4</ele>
        <time>2022-04-09T06:20:36Z</time>
      </trkpt>
      <trkpt lat="41.5328840" lon="1.8715860">
        <ele>159.0</ele>
        <time>2022-04-09T06:20:37Z</time>
      </trkpt>
      <trkpt lat="41.5328810" lon="1.8716460">
        <ele>159.4</ele>
        <time>2022-04-09T06:20:38Z</time>
      </trkpt>
      <trkpt lat="41.5328650" lon="1.8717050">
        <ele>159.8</ele>
        <time>2022-04-09T06:20:39Z</time>
      </trkpt>
      <trkpt lat="41.5327980" lon="1.8717950">
        <ele>160.4</ele>
        <time>2022-04-09T06:20:41Z</time>
      </trkpt>
      <trkpt lat="41.5326300" lon="1.8718960">
        <ele>160.8</ele>
        <time>2022-04-09T06:20:44Z</time>
      </trkpt>
      <trkpt lat="41.5325660" lon="1.8719310">
        <ele>160.8</ele>
        <time>2022-04-09T06:20:45Z</time>
      </trkpt>
      <trkpt lat="41.5321430" lon="1.8721660">
        <ele>160.8</ele>
        <time>2022-04-09T06:20:51Z</time>
      </trkpt>
      <trkpt lat="41.5320030" lon="1.8722980">
        <ele>160.8</ele>
        <time>2022-04-09T06:20:53Z</time>
      </trkpt>
      <trkpt lat="41.5318660" lon="1.8724620">
        <ele>160.2</ele>
        <time>2022-04-09T06:20:55Z</time>
      </trkpt>
      <trkpt lat="41.5316900" lon="1.8726860">
        <ele>159.6</ele>
        <time>2022-04-09T06:20:58Z</time>
      </trkpt>
      <trkpt lat="41.5315770" lon="1.8728250">
        <ele>159.4</ele>
        <time>2022-04-09T06:21:00Z</time>
      </trkpt>
      <trkpt lat="41.5315310" lon="1.8729200">
        <ele>159.0</ele>
        <time>2022-04-09T06:21:01Z</time>
      </trkpt>
      <trkpt lat="41.5315020" lon="1.8730260">
        <ele>158.8</ele>
        <time>2022-04-09T06:21:02Z</time>
      </trkpt>
      <trkpt lat="41.5314980" lon="1.8731350">
        <ele>158.4</ele>
        <time>2022-04-09T06:21:03Z</time>
      </trkpt>
      <trkpt lat="41.5314930" lon="1.8732420">
        <ele>158.0</ele>
        <time>2022-04-09T06:21:04Z</time>
      </trkpt>
      <trkpt lat="41.5314640" lon="1.8736730">
        <ele>157.2</ele>
        <time>2022-04-09T06:21:08Z</time>
      </trkpt>
      <trkpt lat="41.5314290" lon="1.8741940">
        <ele>157.2</ele>
        <time>2022-04-09T06:21:13Z</time>
      </trkpt>
      <trkpt lat="41.5314170" lon="1.8744020">
        <ele>157.2</ele>
        <time>2022-04-09T06:21:15Z</time>
      </trkpt>
      <trkpt lat="41.5314040" lon="1.8747010">
        <ele>157.4</ele>
        <time>2022-04-09T06:21:18Z</time>
      </trkpt>
      <trkpt lat="41.5314130" lon="1.8747850">
        <ele>157.4</ele>
        <time>2022-04-09T06:21:19Z</time>
      </trkpt>
      <trkpt lat="41.5314450" lon="1.8749430">
        <ele>157.4</ele>
        <time>2022-04-09T06:21:22Z</time>
      </trkpt>
      <trkpt lat="41.5314610" lon="1.8750570">
        <ele>157.4</ele>
        <time>2022-04-09T06:21:26Z</time>
      </trkpt>
      <trkpt lat="41.5314600" lon="1.8751020">
        <ele>157.4</ele>
        <time>2022-04-09T06:21:27Z</time>
      </trkpt>
      <trkpt lat="41.5314430" lon="1.8752840">
        <ele>157.0</ele>
        <time>2022-04-09T06:21:30Z</time>
      </trkpt>
      <trkpt lat="41.5314230" lon="1.8755020">
        <ele>156.6</ele>
        <time>2022-04-09T06:21:33Z</time>
      </trkpt>
      <trkpt lat="41.5313750" lon="1.8756420">
        <ele>156.4</ele>
        <time>2022-04-09T06:21:35Z</time>
      </trkpt>
      <trkpt lat="41.5313400" lon="1.8757120">
        <ele>156.2</ele>
        <time>2022-04-09T06:21:36Z</time>
      </trkpt>
      <trkpt lat="41.5312050" lon="1.8759380">
        <ele>155.6</ele>
        <time>2022-04-09T06:21:39Z</time>
      </trkpt>
      <trkpt lat="41.5311560" lon="1.8760170">
        <ele>155.2</ele>
        <time>2022-04-09T06:21:40Z</time>
      </trkpt>
      <trkpt lat="41.5310000" lon="1.8762650">
        <ele>154.0</ele>
        <time>2022-04-09T06:21:43Z</time>
      </trkpt>
      <trkpt lat="41.5308360" lon="1.8765510">
        <ele>153.4</ele>
        <time>2022-04-09T06:21:46Z</time>
      </trkpt>
      <trkpt lat="41.5307820" lon="1.8766490">
        <ele>153.0</ele>
        <time>2022-04-09T06:21:47Z</time>
      </trkpt>
      <trkpt lat="41.5305620" lon="1.8770820">
        <ele>151.8</ele>
        <time>2022-04-09T06:21:51Z</time>
      </trkpt>
      <trkpt lat="41.5305050" lon="1.8771940">
        <ele>151.6</ele>
        <time>2022-04-09T06:21:52Z</time>
      </trkpt>
      <trkpt lat="41.5304510" lon="1.8773030">
        <ele>151.2</ele>
        <time>2022-04-09T06:21:53Z</time>
      </trkpt>
      <trkpt lat="41.5303950" lon="1.8774140">
        <ele>150.8</ele>
        <time>2022-04-09T06:21:54Z</time>
      </trkpt>
      <trkpt lat="41.5302240" lon="1.8777380">
        <ele>149.4</ele>
        <time>2022-04-09T06:21:57Z</time>
      </trkpt>
      <trkpt lat="41.5301020" lon="1.8779380">
        <ele>149.0</ele>
        <time>2022-04-09T06:21:59Z</time>
      </trkpt>
      <trkpt lat="41.5297900" lon="1.8784210">
        <ele>148.4</ele>
        <time>2022-04-09T06:22:04Z</time>
      </trkpt>
      <trkpt lat="41.5295420" lon="1.8787950">
        <ele>148.0</ele>
        <time>2022-04-09T06:22:08Z</time>
      </trkpt>
      <trkpt lat="41.5293060" lon="1.8792990">
        <ele>147.4</ele>
        <time>2022-04-09T06:22:13Z</time>
      </trkpt>
      <trkpt lat="41.5292330" lon="1.8794740">
        <ele>147.2</ele>
        <time>2022-04-09T06:22:15Z</time>
      </trkpt>
      <trkpt lat="41.5291890" lon="1.8795250">
        <ele>147.2</ele>
        <time>2022-04-09T06:22:16Z</time>
      </trkpt>
      <trkpt lat="41.5291410" lon="1.8795550">
        <ele>147.2</ele>
        <time>2022-04-09T06:22:17Z</time>
      </trkpt>
      <trkpt lat="41.5290360" lon="1.8795610">
        <ele>147.0</ele>
        <time>2022-04-09T06:22:19Z</time>
      </trkpt>
      <trkpt lat="41.5289760" lon="1.8795620">
        <ele>147.0</ele>
        <time>2022-04-09T06:22:20Z</time>
      </trkpt>
      <trkpt lat="41.5288550" lon="1.8795940">
        <ele>147.0</ele>
        <time>2022-04-09T06:22:22Z</time>
      </trkpt>
      <trkpt lat="41.5287980" lon="1.8796350">
        <ele>147.0</ele>
        <time>2022-04-09T06:22:23Z</time>
      </trkpt>
      <trkpt lat="41.5287520" lon="1.8796910">
        <ele>147.0</ele>
        <time>2022-04-09T06:22:24Z</time>
      </trkpt>
      <trkpt lat="41.5287110" lon="1.8798500">
        <ele>147.4</ele>
        <time>2022-04-09T06:22:26Z</time>
      </trkpt>
      <trkpt lat="41.5287430" lon="1.8800230">
        <ele>147.6</ele>
        <time>2022-04-09T06:22:28Z</time>
      </trkpt>
      <trkpt lat="41.5287840" lon="1.8801030">
        <ele>147.6</ele>
        <time>2022-04-09T06:22:29Z</time>
      </trkpt>
      <trkpt lat="41.5288390" lon="1.8801700">
        <ele>147.6</ele>
        <time>2022-04-09T06:22:30Z</time>
      </trkpt>
      <trkpt lat="41.5289530" lon="1.8803100">
        <ele>147.6</ele>
        <time>2022-04-09T06:22:32Z</time>
      </trkpt>
      <trkpt lat="41.5290120" lon="1.8805250">
        <ele>147.6</ele>
        <time>2022-04-09T06:22:34Z</time>
      </trkpt>
      <trkpt lat="41.5289890" lon="1.8807580">
        <ele>147.4</ele>
        <time>2022-04-09T06:22:36Z</time>
      </trkpt>
      <trkpt lat="41.5289590" lon="1.8808760">
        <ele>147.0</ele>
        <time>2022-04-09T06:22:37Z</time>
      </trkpt>
      <trkpt lat="41.5288780" lon="1.8811030">
        <ele>146.4</ele>
        <time>2022-04-09T06:22:39Z</time>
      </trkpt>
      <trkpt lat="41.5288240" lon="1.8812060">
        <ele>146.4</ele>
        <time>2022-04-09T06:22:40Z</time>
      </trkpt>
      <trkpt lat="41.5287610" lon="1.8813030">
        <ele>146.2</ele>
        <time>2022-04-09T06:22:41Z</time>
      </trkpt>
      <trkpt lat="41.5285680" lon="1.8816080">
        <ele>145.2</ele>
        <time>2022-04-09T06:22:44Z</time>
      </trkpt>
      <trkpt lat="41.5283560" lon="1.8819240">
        <ele>144.2</ele>
        <time>2022-04-09T06:22:47Z</time>
      </trkpt>
      <trkpt lat="41.5282820" lon="1.8820330">
        <ele>143.8</ele>
        <time>2022-04-09T06:22:48Z</time>
      </trkpt>
      <trkpt lat="41.5280400" lon="1.8823530">
        <ele>142.6</ele>
        <time>2022-04-09T06:22:51Z</time>
      </trkpt>
      <trkpt lat="41.5279550" lon="1.8824590">
        <ele>142.2</ele>
        <time>2022-04-09T06:22:52Z</time>
      </trkpt>
      <trkpt lat="41.5278690" lon="1.8825680">
        <ele>141.4</ele>
        <time>2022-04-09T06:22:53Z</time>
      </trkpt>
      <trkpt lat="41.5276970" lon="1.8827940">
        <ele>140.2</ele>
        <time>2022-04-09T06:22:55Z</time>
      </trkpt>
      <trkpt lat="41.5275140" lon="1.8830160">
        <ele>138.6</ele>
        <time>2022-04-09T06:22:57Z</time>
      </trkpt>
      <trkpt lat="41.5274200" lon="1.8831240">
        <ele>138.0</ele>
        <time>2022-04-09T06:22:58Z</time>
      </trkpt>
      <trkpt lat="41.5273250" lon="1.8832350">
        <ele>137.2</ele>
        <time>2022-04-09T06:22:59Z</time>
      </trkpt>
      <trkpt lat="41.5272310" lon="1.8833500">
        <ele>136.0</ele>
        <time>2022-04-09T06:23:00Z</time>
      </trkpt>
      <trkpt lat="41.5270540" lon="1.8835970">
        <ele>134.8</ele>
        <time>2022-04-09T06:23:02Z</time>
      </trkpt>
      <trkpt lat="41.5269700" lon="1.8837270">
        <ele>134.4</ele>
        <time>2022-04-09T06:23:03Z</time>
      </trkpt>
      <trkpt lat="41.5268900" lon="1.8838610">
        <ele>133.0</ele>
        <time>2022-04-09T06:23:04Z</time>
      </trkpt>
      <trkpt lat="41.5267380" lon="1.8841450">
        <ele>131.8</ele>
        <time>2022-04-09T06:23:06Z</time>
      </trkpt>
      <trkpt lat="41.5266050" lon="1.8844480">
        <ele>131.0</ele>
        <time>2022-04-09T06:23:08Z</time>
      </trkpt>
      <trkpt lat="41.5265490" lon="1.8846080">
        <ele>130.4</ele>
        <time>2022-04-09T06:23:09Z</time>
      </trkpt>
      <trkpt lat="41.5264990" lon="1.8847740">
        <ele>129.2</ele>
        <time>2022-04-09T06:23:10Z</time>
      </trkpt>
      <trkpt lat="41.5264550" lon="1.8849440">
        <ele>127.6</ele>
        <time>2022-04-09T06:23:11Z</time>
      </trkpt>
      <trkpt lat="41.5264200" lon="1.8851170">
        <ele>126.6</ele>
        <time>2022-04-09T06:23:12Z</time>
      </trkpt>
      <trkpt lat="41.5263680" lon="1.8854630">
        <ele>125.6</ele>
        <time>2022-04-09T06:23:14Z</time>
      </trkpt>
      <trkpt lat="41.5263100" lon="1.8859790">
        <ele>124.4</ele>
        <time>2022-04-09T06:23:17Z</time>
      </trkpt>
      <trkpt lat="41.5262940" lon="1.8861440">
        <ele>123.4</ele>
        <time>2022-04-09T06:23:18Z</time>
      </trkpt>
      <trkpt lat="41.5262570" lon="1.8866070">
        <ele>122.4</ele>
        <time>2022-04-09T06:23:21Z</time>
      </trkpt>
      <trkpt lat="41.5262470" lon="1.8867540">
        <ele>122.2</ele>
        <time>2022-04-09T06:23:22Z</time>
      </trkpt>
      <trkpt lat="41.5262350" lon="1.8870350">
        <ele>121.6</ele>
        <time>2022-04-09T06:23:24Z</time>
      </trkpt>
      <trkpt lat="41.5262720" lon="1.8872960">
        <ele>121.4</ele>
        <time>2022-04-09T06:23:26Z</time>
      </trkpt>
      <trkpt lat="41.5264670" lon="1.8878980">
        <ele>121.8</ele>
        <time>2022-04-09T06:23:31Z</time>
      </trkpt>
      <trkpt lat="41.5267480" lon="1.8886060">
        <ele>122.8</ele>
        <time>2022-04-09T06:23:37Z</time>
      </trkpt>
      <trkpt lat="41.5268430" lon="1.8888460">
        <ele>123.0</ele>
        <time>2022-04-09T06:23:39Z</time>
      </trkpt>
      <trkpt lat="41.5270540" lon="1.8893000">
        <ele>123.0</ele>
        <time>2022-04-09T06:23:43Z</time>
      </trkpt>
      <trkpt lat="41.5271250" lon="1.8893900">
        <ele>123.0</ele>
        <time>2022-04-09T06:23:44Z</time>
      </trkpt>
      <trkpt lat="41.5272080" lon="1.8894660">
        <ele>123.0</ele>
        <time>2022-04-09T06:23:45Z</time>
      </trkpt>
      <trkpt lat="41.5274540" lon="1.8896710">
        <ele>123.2</ele>
        <time>2022-04-09T06:23:48Z</time>
      </trkpt>
      <trkpt lat="41.5275420" lon="1.8897650">
        <ele>123.2</ele>
        <time>2022-04-09T06:23:49Z</time>
      </trkpt>
      <trkpt lat="41.5276490" lon="1.8899640">
        <ele>123.4</ele>
        <time>2022-04-09T06:23:51Z</time>
      </trkpt>
      <trkpt lat="41.5276820" lon="1.8901890">
        <ele>123.8</ele>
        <time>2022-04-09T06:23:53Z</time>
      </trkpt>
      <trkpt lat="41.5276820" lon="1.8902820">
        <ele>123.8</ele>
        <time>2022-04-09T06:23:54Z</time>
      </trkpt>
      <trkpt lat="41.5276850" lon="1.8905390">
        <ele>124.8</ele>
        <time>2022-04-09T06:23:56Z</time>
      </trkpt>
      <trkpt lat="41.5276940" lon="1.8906520">
        <ele>125.0</ele>
        <time>2022-04-09T06:23:57Z</time>
      </trkpt>
      <trkpt lat="41.5277420" lon="1.8908470">
        <ele>125.8</ele>
        <time>2022-04-09T06:23:59Z</time>
      </trkpt>
      <trkpt lat="41.5277960" lon="1.8909640">
        <ele>126.0</ele>
        <time>2022-04-09T06:24:00Z</time>
      </trkpt>
      <trkpt lat="41.5279070" lon="1.8911380">
        <ele>126.0</ele>
        <time>2022-04-09T06:24:02Z</time>
      </trkpt>
      <trkpt lat="41.5283260" lon="1.8916940">
        <ele>126.4</ele>
        <time>2022-04-09T06:24:09Z</time>
      </trkpt>
      <trkpt lat="41.5284840" lon="1.8917540">
        <ele>126.6</ele>
        <time>2022-04-09T06:24:11Z</time>
      </trkpt>
      <trkpt lat="41.5285510" lon="1.8917500">
        <ele>126.8</ele>
        <time>2022-04-09T06:24:12Z</time>
      </trkpt>
      <trkpt lat="41.5286510" lon="1.8917280">
        <ele>127.0</ele>
        <time>2022-04-09T06:24:13Z</time>
      </trkpt>
      <trkpt lat="41.5288950" lon="1.8916180">
        <ele>127.2</ele>
        <time>2022-04-09T06:24:16Z</time>
      </trkpt>
      <trkpt lat="41.5294370" lon="1.8913590">
        <ele>127.6</ele>
        <time>2022-04-09T06:24:23Z</time>
      </trkpt>
      <trkpt lat="41.5297370" lon="1.8912220">
        <ele>127.8</ele>
        <time>2022-04-09T06:24:27Z</time>
      </trkpt>
      <trkpt lat="41.5298090" lon="1.8911890">
        <ele>128.0</ele>
        <time>2022-04-09T06:24:28Z</time>
      </trkpt>
      <trkpt lat="41.5301830" lon="1.8910630">
        <ele>128.4</ele>
        <time>2022-04-09T06:24:33Z</time>
      </trkpt>
      <trkpt lat="41.5302590" lon="1.8910450">
        <ele>128.6</ele>
        <time>2022-04-09T06:24:34Z</time>
      </trkpt>
      <trkpt lat="41.5307240" lon="1.8909460">
        <ele>129.0</ele>
        <time>2022-04-09T06:24:40Z</time>
      </trkpt>
      <trkpt lat="41.5308820" lon="1.8909110">
        <ele>129.2</ele>
        <time>2022-04-09T06:24:42Z</time>
      </trkpt>
      <trkpt lat="41.5314820" lon="1.8907850">
        <ele>128.8</ele>
        <time>2022-04-09T06:24:50Z</time>
      </trkpt>
      <trkpt lat="41.5321000" lon="1.8906620">
        <ele>128.4</ele>
        <time>2022-04-09T06:24:58Z</time>
      </trkpt>
      <trkpt lat="41.5321800" lon="1.8906460">
        <ele>128.2</ele>
        <time>2022-04-09T06:24:59Z</time>
      </trkpt>
      <trkpt lat="41.5322610" lon="1.8906310">
        <ele>128.0</ele>
        <time>2022-04-09T06:25:00Z</time>
      </trkpt>
      <trkpt lat="41.5325030" lon="1.8905610">
        <ele>127.6</ele>
        <time>2022-04-09T06:25:03Z</time>
      </trkpt>
      <trkpt lat="41.5326530" lon="1.8904750">
        <ele>127.4</ele>
        <time>2022-04-09T06:25:05Z</time>
      </trkpt>
      <trkpt lat="41.5328540" lon="1.8903010">
        <ele>126.8</ele>
        <time>2022-04-09T06:25:08Z</time>
      </trkpt>
      <trkpt lat="41.5330100" lon="1.8901430">
        <ele>126.0</ele>
        <time>2022-04-09T06:25:11Z</time>
      </trkpt>
      <trkpt lat="41.5330700" lon="1.8900800">
        <ele>125.6</ele>
        <time>2022-04-09T06:25:12Z</time>
      </trkpt>
      <trkpt lat="41.5332050" lon="1.8899330">
        <ele>123.8</ele>
        <time>2022-04-09T06:25:15Z</time>
      </trkpt>
      <trkpt lat="41.5332740" lon="1.8898660">
        <ele>123.4</ele>
        <time>2022-04-09T06:25:16Z</time>
      </trkpt>
      <trkpt lat="41.5333350" lon="1.8898120">
        <ele>122.8</ele>
        <time>2022-04-09T06:25:17Z</time>
      </trkpt>
      <trkpt lat="41.5335040" lon="1.8896490">
        <ele>121.6</ele>
        <time>2022-04-09T06:25:20Z</time>
      </trkpt>
      <trkpt lat="41.5336360" lon="1.8895190">
        <ele>120.8</ele>
        <time>2022-04-09T06:25:22Z</time>
      </trkpt>
      <trkpt lat="41.5336930" lon="1.8894620">
        <ele>120.4</ele>
        <time>2022-04-09T06:25:23Z</time>
      </trkpt>
      <trkpt lat="41.5338630" lon="1.8892950">
        <ele>119.0</ele>
        <time>2022-04-09T06:25:26Z</time>
      </trkpt>
      <trkpt lat="41.5339760" lon="1.8891900">
        <ele>117.8</ele>
        <time>2022-04-09T06:25:28Z</time>
      </trkpt>
      <trkpt lat="41.5340180" lon="1.8891400">
        <ele>117.0</ele>
        <time>2022-04-09T06:25:29Z</time>
      </trkpt>
      <trkpt lat="41.5340730" lon="1.8890540">
        <ele>116.8</ele>
        <time>2022-04-09T06:25:30Z</time>
      </trkpt>
      <trkpt lat="41.5341050" lon="1.8889670">
        <ele>116.2</ele>
        <time>2022-04-09T06:25:31Z</time>
      </trkpt>
      <trkpt lat="41.5341290" lon="1.8888730">
        <ele>115.8</ele>
        <time>2022-04-09T06:25:32Z</time>
      </trkpt>
      <trkpt lat="41.5341380" lon="1.8887960">
        <ele>115.2</ele>
        <time>2022-04-09T06:25:33Z</time>
      </trkpt>
      <trkpt lat="41.5341350" lon="1.8885270">
        <ele>113.8</ele>
        <time>2022-04-09T06:25:36Z</time>
      </trkpt>
      <trkpt lat="41.5341510" lon="1.8881770">
        <ele>112.4</ele>
        <time>2022-04-09T06:25:40Z</time>
      </trkpt>
      <trkpt lat="41.5342000" lon="1.8880370">
        <ele>111.2</ele>
        <time>2022-04-09T06:25:42Z</time>
      </trkpt>
      <trkpt lat="41.5342440" lon="1.8879520">
        <ele>110.8</ele>
        <time>2022-04-09T06:25:43Z</time>
      </trkpt>
      <trkpt lat="41.5343440" lon="1.8878400">
        <ele>110.2</ele>
        <time>2022-04-09T06:25:45Z</time>
      </trkpt>
      <trkpt lat="41.5344060" lon="1.8878010">
        <ele>110.0</ele>
        <time>2022-04-09T06:25:46Z</time>
      </trkpt>
      <trkpt lat="41.5345370" lon="1.8877490">
        <ele>108.6</ele>
        <time>2022-04-09T06:25:48Z</time>
      </trkpt>
      <trkpt lat="41.5347990" lon="1.8876380">
        <ele>107.0</ele>
        <time>2022-04-09T06:25:52Z</time>
      </trkpt>
      <trkpt lat="41.5349090" lon="1.8875610">
        <ele>106.0</ele>
        <time>2022-04-09T06:25:54Z</time>
      </trkpt>
      <trkpt lat="41.5349490" lon="1.8875190">
        <ele>105.2</ele>
        <time>2022-04-09T06:25:55Z</time>
      </trkpt>
      <trkpt lat="41.5349760" lon="1.8874860">
        <ele>105.0</ele>
        <time>2022-04-09T06:25:56Z</time>
      </trkpt>
      <trkpt lat="41.5350200" lon="1.8874460">
        <ele>104.6</ele>
        <time>2022-04-09T06:25:57Z</time>
      </trkpt>
      <trkpt lat="41.5350790" lon="1.8873860">
        <ele>104.2</ele>
        <time>2022-04-09T06:25:59Z</time>
      </trkpt>
      <trkpt lat="41.5350920" lon="1.8873580">
        <ele>104.2</ele>
        <time>2022-04-09T06:26:00Z</time>
      </trkpt>
      <trkpt lat="41.5351810" lon="1.8872590">
        <ele>104.0</ele>
        <time>2022-04-09T06:26:03Z</time>
      </trkpt>
      <trkpt lat="41.5352150" lon="1.8872290">
        <ele>103.8</ele>
        <time>2022-04-09T06:26:04Z</time>
      </trkpt>
      <trkpt lat="41.5352900" lon="1.8871770">
        <ele>103.6</ele>
        <time>2022-04-09T06:26:06Z</time>
      </trkpt>
      <trkpt lat="41.5354270" lon="1.8870930">
        <ele>103.0</ele>
        <time>2022-04-09T06:26:09Z</time>
      </trkpt>
      <trkpt lat="41.5355330" lon="1.8870000">
        <ele>102.8</ele>
        <time>2022-04-09T06:26:11Z</time>
      </trkpt>
      <trkpt lat="41.5356650" lon="1.8868500">
        <ele>102.2</ele>
        <time>2022-04-09T06:26:14Z</time>
      </trkpt>
      <trkpt lat="41.5357470" lon="1.8867250">
        <ele>101.6</ele>
        <time>2022-04-09T06:26:16Z</time>
      </trkpt>
      <trkpt lat="41.5359220" lon="1.8864660">
        <ele>100.8</ele>
        <time>2022-04-09T06:26:20Z</time>
      </trkpt>
      <trkpt lat="41.5360030" lon="1.8863210">
        <ele>100.6</ele>
        <time>2022-04-09T06:26:22Z</time>
      </trkpt>
      <trkpt lat="41.5360880" lon="1.8860860">
        <ele>100.0</ele>
        <time>2022-04-09T06:26:25Z</time>
      </trkpt>
      <trkpt lat="41.5361280" lon="1.8859730">
        <ele>99.6</ele>
        <time>2022-04-09T06:26:27Z</time>
      </trkpt>
      <trkpt lat="41.5361530" lon="1.8859290">
        <ele>99.6</ele>
        <time>2022-04-09T06:26:28Z</time>
      </trkpt>
      <trkpt lat="41.5362090" lon="1.8858490">
        <ele>99.0</ele>
        <time>2022-04-09T06:26:30Z</time>
      </trkpt>
      <trkpt lat="41.5362700" lon="1.8857780">
        <ele>98.6</ele>
        <time>2022-04-09T06:26:32Z</time>
      </trkpt>
      <trkpt lat="41.5363000" lon="1.8857480">
        <ele>98.6</ele>
        <time>2022-04-09T06:26:33Z</time>
      </trkpt>
      <trkpt lat="41.5364110" lon="1.8856090">
        <ele>98.4</ele>
        <time>2022-04-09T06:26:36Z</time>
      </trkpt>
      <trkpt lat="41.5364690" lon="1.8855190">
        <ele>98.0</ele>
        <time>2022-04-09T06:26:38Z</time>
      </trkpt>
      <trkpt lat="41.5365200" lon="1.8854490">
        <ele>97.2</ele>
        <time>2022-04-09T06:26:41Z</time>
      </trkpt>
      <trkpt lat="41.5365200" lon="1.8854490">
        <ele>97.2</ele>
        <time>2022-04-09T06:26:42Z</time>
      </trkpt>
      <trkpt lat="41.5365200" lon="1.8854490">
        <ele>97.0</ele>
        <time>2022-04-09T06:26:43Z</time>
      </trkpt>
      <trkpt lat="41.5365350" lon="1.8854190">
        <ele>96.6</ele>
        <time>2022-04-09T06:27:15Z</time>
      </trkpt>
      <trkpt lat="41.5365840" lon="1.8853750">
        <ele>96.6</ele>
        <time>2022-04-09T06:27:17Z</time>
      </trkpt>
      <trkpt lat="41.5367450" lon="1.8852300">
        <ele>96.4</ele>
        <time>2022-04-09T06:27:21Z</time>
      </trkpt>
      <trkpt lat="41.5368680" lon="1.8850630">
        <ele>96.2</ele>
        <time>2022-04-09T06:27:24Z</time>
      </trkpt>
      <trkpt lat="41.5369290" lon="1.8849380">
        <ele>96.0</ele>
        <time>2022-04-09T06:27:26Z</time>
      </trkpt>
      <trkpt lat="41.5370160" lon="1.8847760">
        <ele>95.6</ele>
        <time>2022-04-09T06:27:28Z</time>
      </trkpt>
      <trkpt lat="41.5371210" lon="1.8846430">
        <ele>95.4</ele>
        <time>2022-04-09T06:27:30Z</time>
      </trkpt>
      <trkpt lat="41.5371690" lon="1.8845920">
        <ele>95.2</ele>
        <time>2022-04-09T06:27:31Z</time>
      </trkpt>
      <trkpt lat="41.5372390" lon="1.8845130">
        <ele>95.2</ele>
        <time>2022-04-09T06:27:32Z</time>
      </trkpt>
      <trkpt lat="41.5374220" lon="1.8843020">
        <ele>94.0</ele>
        <time>2022-04-09T06:27:35Z</time>
      </trkpt>
      <trkpt lat="41.5376060" lon="1.8841010">
        <ele>93.0</ele>
        <time>2022-04-09T06:27:38Z</time>
      </trkpt>
      <trkpt lat="41.5376710" lon="1.8840380">
        <ele>92.6</ele>
        <time>2022-04-09T06:27:39Z</time>
      </trkpt>
      <trkpt lat="41.5378690" lon="1.8838440">
        <ele>91.4</ele>
        <time>2022-04-09T06:27:42Z</time>
      </trkpt>
      <trkpt lat="41.5379920" lon="1.8837070">
        <ele>90.8</ele>
        <time>2022-04-09T06:27:44Z</time>
      </trkpt>
      <trkpt lat="41.5381110" lon="1.8835670">
        <ele>90.0</ele>
        <time>2022-04-09T06:27:46Z</time>
      </trkpt>
      <trkpt lat="41.5384340" lon="1.8831460">
        <ele>89.0</ele>
        <time>2022-04-09T06:27:52Z</time>
      </trkpt>
      <trkpt lat="41.5384780" lon="1.8830660">
        <ele>88.4</ele>
        <time>2022-04-09T06:27:53Z</time>
      </trkpt>
      <trkpt lat="41.5385820" lon="1.8827780">
        <ele>87.8</ele>
        <time>2022-04-09T06:27:56Z</time>
      </trkpt>
      <trkpt lat="41.5387800" lon="1.8822060">
        <ele>86.6</ele>
        <time>2022-04-09T06:28:02Z</time>
      </trkpt>
      <trkpt lat="41.5391190" lon="1.8816310">
        <ele>85.8</ele>
        <time>2022-04-09T06:28:09Z</time>
      </trkpt>
      <trkpt lat="41.5393410" lon="1.8813460">
        <ele>85.6</ele>
        <time>2022-04-09T06:28:13Z</time>
      </trkpt>
      <trkpt lat="41.5395110" lon="1.8811320">
        <ele>85.4</ele>
        <time>2022-04-09T06:28:16Z</time>
      </trkpt>
      <trkpt lat="41.5399010" lon="1.8806420">
        <ele>84.6</ele>
        <time>2022-04-09T06:28:23Z</time>
      </trkpt>
      <trkpt lat="41.5399580" lon="1.8805750">
        <ele>84.6</ele>
        <time>2022-04-09T06:28:24Z</time>
      </trkpt>
      <trkpt lat="41.5400650" lon="1.8804450">
        <ele>84.4</ele>
        <time>2022-04-09T06:28:26Z</time>
      </trkpt>
      <trkpt lat="41.5401900" lon="1.8803660">
        <ele>84.2</ele>
        <time>2022-04-09T06:28:28Z</time>
      </trkpt>
      <trkpt lat="41.5404240" lon="1.8803640">
        <ele>83.8</ele>
        <time>2022-04-09T06:28:31Z</time>
      </trkpt>
      <trkpt lat="41.5406710" lon="1.8803980">
        <ele>83.4</ele>
        <time>2022-04-09T06:28:34Z</time>
      </trkpt>
      <trkpt lat="41.5410100" lon="1.8804550">
        <ele>82.8</ele>
        <time>2022-04-09T06:28:38Z</time>
      </trkpt>
      <trkpt lat="41.5411790" lon="1.8805120">
        <ele>82.2</ele>
        <time>2022-04-09T06:28:40Z</time>
      </trkpt>
      <trkpt lat="41.5413370" lon="1.8805970">
        <ele>81.8</ele>
        <time>2022-04-09T06:28:42Z</time>
      </trkpt>
      <trkpt lat="41.5415640" lon="1.8807390">
        <ele>81.2</ele>
        <time>2022-04-09T06:28:45Z</time>
      </trkpt>
      <trkpt lat="41.5419250" lon="1.8809710">
        <ele>80.8</ele>
        <time>2022-04-09T06:28:50Z</time>
      </trkpt>
      <trkpt lat="41.5424680" lon="1.8813290">
        <ele>80.6</ele>
        <time>2022-04-09T06:28:58Z</time>
      </trkpt>
      <trkpt lat="41.5425350" lon="1.8813730">
        <ele>80.8</ele>
        <time>2022-04-09T06:28:59Z</time>
      </trkpt>
      <trkpt lat="41.5430340" lon="1.8816770">
        <ele>81.4</ele>
        <time>2022-04-09T06:29:07Z</time>
      </trkpt>
      <trkpt lat="41.5430870" lon="1.8817120">
        <ele>81.6</ele>
        <time>2022-04-09T06:29:08Z</time>
      </trkpt>
      <trkpt lat="41.5432360" lon="1.8818040">
        <ele>82.4</ele>
        <time>2022-04-09T06:29:11Z</time>
      </trkpt>
      <trkpt lat="41.5433240" lon="1.8818740">
        <ele>82.8</ele>
        <time>2022-04-09T06:29:13Z</time>
      </trkpt>
      <trkpt lat="41.5434180" lon="1.8819300">
        <ele>83.4</ele>
        <time>2022-04-09T06:29:15Z</time>
      </trkpt>
      <trkpt lat="41.5435930" lon="1.8820250">
        <ele>85.2</ele>
        <time>2022-04-09T06:29:19Z</time>
      </trkpt>
      <trkpt lat="41.5436370" lon="1.8820480">
        <ele>85.4</ele>
        <time>2022-04-09T06:29:20Z</time>
      </trkpt>
      <trkpt lat="41.5437200" lon="1.8821010">
        <ele>86.4</ele>
        <time>2022-04-09T06:29:22Z</time>
      </trkpt>
      <trkpt lat="41.5437750" lon="1.8821890">
        <ele>86.8</ele>
        <time>2022-04-09T06:29:24Z</time>
      </trkpt>
      <trkpt lat="41.5437850" lon="1.8823070">
        <ele>87.4</ele>
        <time>2022-04-09T06:29:26Z</time>
      </trkpt>
      <trkpt lat="41.5437800" lon="1.8823690">
        <ele>87.8</ele>
        <time>2022-04-09T06:29:27Z</time>
      </trkpt>
      <trkpt lat="41.5437740" lon="1.8824310">
        <ele>88.4</ele>
        <time>2022-04-09T06:29:28Z</time>
      </trkpt>
      <trkpt lat="41.5437700" lon="1.8824950">
        <ele>88.8</ele>
        <time>2022-04-09T06:29:29Z</time>
      </trkpt>
      <trkpt lat="41.5437740" lon="1.8826310">
        <ele>89.6</ele>
        <time>2022-04-09T06:29:31Z</time>
      </trkpt>
      <trkpt lat="41.5437890" lon="1.8827660">
        <ele>89.8</ele>
        <time>2022-04-09T06:29:33Z</time>
      </trkpt>
      <trkpt lat="41.5438280" lon="1.8828900">
        <ele>90.2</ele>
        <time>2022-04-09T06:29:35Z</time>
      </trkpt>
      <trkpt lat="41.5438890" lon="1.8829950">
        <ele>90.6</ele>
        <time>2022-04-09T06:29:37Z</time>
      </trkpt>
      <trkpt lat="41.5439180" lon="1.8830410">
        <ele>91.0</ele>
        <time>2022-04-09T06:29:38Z</time>
      </trkpt>
      <trkpt lat="41.5441370" lon="1.8832130">
        <ele>91.8</ele>
        <time>2022-04-09T06:29:43Z</time>
      </trkpt>
      <trkpt lat="41.5441930" lon="1.8832120">
        <ele>91.8</ele>
        <time>2022-04-09T06:29:44Z</time>
      </trkpt>
      <trkpt lat="41.5443620" lon="1.8832020">
        <ele>92.4</ele>
        <time>2022-04-09T06:29:47Z</time>
      </trkpt>
      <trkpt lat="41.5444730" lon="1.8831940">
        <ele>92.4</ele>
        <time>2022-04-09T06:29:49Z</time>
      </trkpt>
      <trkpt lat="41.5445660" lon="1.8832380">
        <ele>92.6</ele>
        <time>2022-04-09T06:29:51Z</time>
      </trkpt>
      <trkpt lat="41.5446460" lon="1.8833380">
        <ele>92.8</ele>
        <time>2022-04-09T06:29:53Z</time>
      </trkpt>
      <trkpt lat="41.5447630" lon="1.8835440">
        <ele>92.8</ele>
        <time>2022-04-09T06:29:56Z</time>
      </trkpt>
      <trkpt lat="41.5448140" lon="1.8836090">
        <ele>92.6</ele>
        <time>2022-04-09T06:29:57Z</time>
      </trkpt>
      <trkpt lat="41.5448740" lon="1.8836580">
        <ele>92.6</ele>
        <time>2022-04-09T06:29:58Z</time>
      </trkpt>
      <trkpt lat="41.5449960" lon="1.8837280">
        <ele>92.6</ele>
        <time>2022-04-09T06:30:00Z</time>
      </trkpt>
      <trkpt lat="41.5450610" lon="1.8837550">
        <ele>92.4</ele>
        <time>2022-04-09T06:30:01Z</time>
      </trkpt>
      <trkpt lat="41.5452420" lon="1.8838400">
        <ele>91.8</ele>
        <time>2022-04-09T06:30:04Z</time>
      </trkpt>
      <trkpt lat="41.5454250" lon="1.8839470">
        <ele>91.6</ele>
        <time>2022-04-09T06:30:08Z</time>
      </trkpt>
      <trkpt lat="41.5454870" lon="1.8840350">
        <ele>91.8</ele>
        <time>2022-04-09T06:30:10Z</time>
      </trkpt>
      <trkpt lat="41.5455270" lon="1.8841390">
        <ele>92.0</ele>
        <time>2022-04-09T06:30:12Z</time>
      </trkpt>
      <trkpt lat="41.5455510" lon="1.8841890">
        <ele>92.2</ele>
        <time>2022-04-09T06:30:13Z</time>
      </trkpt>
      <trkpt lat="41.5456280" lon="1.8842360">
        <ele>92.6</ele>
        <time>2022-04-09T06:30:15Z</time>
      </trkpt>
      <trkpt lat="41.5457480" lon="1.8841730">
        <ele>92.8</ele>
        <time>2022-04-09T06:30:18Z</time>
      </trkpt>
      <trkpt lat="41.5458280" lon="1.8841170">
        <ele>93.4</ele>
        <time>2022-04-09T06:30:20Z</time>
      </trkpt>
      <trkpt lat="41.5459350" lon="1.8840960">
        <ele>94.0</ele>
        <time>2022-04-09T06:30:22Z</time>
      </trkpt>
      <trkpt lat="41.5461090" lon="1.8840560">
        <ele>94.8</ele>
        <time>2022-04-09T06:30:26Z</time>
      </trkpt>
      <trkpt lat="41.5461480" lon="1.8840510">
        <ele>95.0</ele>
        <time>2022-04-09T06:30:27Z</time>
      </trkpt>
      <trkpt lat="41.5463580" lon="1.8840300">
        <ele>96.6</ele>
        <time>2022-04-09T06:30:32Z</time>
      </trkpt>
      <trkpt lat="41.5464000" lon="1.8840210">
        <ele>96.6</ele>
        <time>2022-04-09T06:30:33Z</time>
      </trkpt>
      <trkpt lat="41.5465230" lon="1.8840000">
        <ele>97.6</ele>
        <time>2022-04-09T06:30:36Z</time>
      </trkpt>
      <trkpt lat="41.5467120" lon="1.8840260">
        <ele>98.4</ele>
        <time>2022-04-09T06:30:41Z</time>
      </trkpt>
      <trkpt lat="41.5467350" lon="1.8840670">
        <ele>98.4</ele>
        <time>2022-04-09T06:30:42Z</time>
      </trkpt>
      <trkpt lat="41.5467400" lon="1.8841160">
        <ele>98.6</ele>
        <time>2022-04-09T06:30:43Z</time>
      </trkpt>
      <trkpt lat="41.5467410" lon="1.8841700">
        <ele>98.8</ele>
        <time>2022-04-09T06:30:44Z</time>
      </trkpt>
      <trkpt lat="41.5467580" lon="1.8844480">
        <ele>99.2</ele>
        <time>2022-04-09T06:30:49Z</time>
      </trkpt>
      <trkpt lat="41.5467710" lon="1.8846820">
        <ele>99.6</ele>
        <time>2022-04-09T06:30:53Z</time>
      </trkpt>
      <trkpt lat="41.5468000" lon="1.8850270">
        <ele>100.8</ele>
        <time>2022-04-09T06:30:59Z</time>
      </trkpt>
      <trkpt lat="41.5468030" lon="1.8852010">
        <ele>101.4</ele>
        <time>2022-04-09T06:31:02Z</time>
      </trkpt>
      <trkpt lat="41.5468040" lon="1.8852570">
        <ele>101.4</ele>
        <time>2022-04-09T06:31:03Z</time>
      </trkpt>
      <trkpt lat="41.5468130" lon="1.8853720">
        <ele>102.0</ele>
        <time>2022-04-09T06:31:05Z</time>
      </trkpt>
      <trkpt lat="41.5468290" lon="1.8855410">
        <ele>103.0</ele>
        <time>2022-04-09T06:31:08Z</time>
      </trkpt>
      <trkpt lat="41.5468550" lon="1.8859260">
        <ele>104.2</ele>
        <time>2022-04-09T06:31:15Z</time>
      </trkpt>
      <trkpt lat="41.5468800" lon="1.8860670">
        <ele>105.0</ele>
        <time>2022-04-09T06:31:18Z</time>
      </trkpt>
      <trkpt lat="41.5468890" lon="1.8861600">
        <ele>105.4</ele>
        <time>2022-04-09T06:31:20Z</time>
      </trkpt>
      <trkpt lat="41.5468960" lon="1.8862560">
        <ele>106.0</ele>
        <time>2022-04-09T06:31:22Z</time>
      </trkpt>
      <trkpt lat="41.5469110" lon="1.8863430">
        <ele>106.6</ele>
        <time>2022-04-09T06:31:24Z</time>
      </trkpt>
      <trkpt lat="41.5469070" lon="1.8864840">
        <ele>107.8</ele>
        <time>2022-04-09T06:31:27Z</time>
      </trkpt>
      <trkpt lat="41.5468920" lon="1.8866120">
        <ele>109.0</ele>
        <time>2022-04-09T06:31:30Z</time>
      </trkpt>
      <trkpt lat="41.5468430" lon="1.8866670">
        <ele>109.8</ele>
        <time>2022-04-09T06:31:32Z</time>
      </trkpt>
      <trkpt lat="41.5467880" lon="1.8867420">
        <ele>110.4</ele>
        <time>2022-04-09T06:31:34Z</time>
      </trkpt>
      <trkpt lat="41.5467530" lon="1.8868360">
        <ele>111.2</ele>
        <time>2022-04-09T06:31:36Z</time>
      </trkpt>
      <trkpt lat="41.5467470" lon="1.8868840">
        <ele>111.4</ele>
        <time>2022-04-09T06:31:37Z</time>
      </trkpt>
      <trkpt lat="41.5467540" lon="1.8870990">
        <ele>112.0</ele>
        <time>2022-04-09T06:31:42Z</time>
      </trkpt>
      <trkpt lat="41.5467590" lon="1.8871470">
        <ele>112.2</ele>
        <time>2022-04-09T06:31:43Z</time>
      </trkpt>
      <trkpt lat="41.5467500" lon="1.8871920">
        <ele>112.4</ele>
        <time>2022-04-09T06:31:44Z</time>
      </trkpt>
      <trkpt lat="41.5467090" lon="1.8872790">
        <ele>112.8</ele>
        <time>2022-04-09T06:31:46Z</time>
      </trkpt>
      <trkpt lat="41.5466390" lon="1.8874070">
        <ele>113.2</ele>
        <time>2022-04-09T06:31:49Z</time>
      </trkpt>
      <trkpt lat="41.5465640" lon="1.8875520">
        <ele>113.8</ele>
        <time>2022-04-09T06:31:52Z</time>
      </trkpt>
      <trkpt lat="41.5465140" lon="1.8876520">
        <ele>114.0</ele>
        <time>2022-04-09T06:31:54Z</time>
      </trkpt>
      <trkpt lat="41.5464580" lon="1.8877530">
        <ele>114.0</ele>
        <time>2022-04-09T06:31:56Z</time>
      </trkpt>
      <trkpt lat="41.5464110" lon="1.8878610">
        <ele>114.2</ele>
        <time>2022-04-09T06:31:58Z</time>
      </trkpt>
      <trkpt lat="41.5463360" lon="1.8880330">
        <ele>115.0</ele>
        <time>2022-04-09T06:32:01Z</time>
      </trkpt>
      <trkpt lat="41.5463020" lon="1.8881670">
        <ele>115.2</ele>
        <time>2022-04-09T06:32:03Z</time>
      </trkpt>
      <trkpt lat="41.5462350" lon="1.8884460">
        <ele>115.2</ele>
        <time>2022-04-09T06:32:07Z</time>
      </trkpt>
      <trkpt lat="41.5461780" lon="1.8886550">
        <ele>115.4</ele>
        <time>2022-04-09T06:32:10Z</time>
      </trkpt>
      <trkpt lat="41.5461070" lon="1.8888510">
        <ele>115.4</ele>
        <time>2022-04-09T06:32:13Z</time>
      </trkpt>
      <trkpt lat="41.5460480" lon="1.8890600">
        <ele>115.6</ele>
        <time>2022-04-09T06:32:16Z</time>
      </trkpt>
      <trkpt lat="41.5459440" lon="1.8894370">
        <ele>115.8</ele>
        <time>2022-04-09T06:32:21Z</time>
      </trkpt>
      <trkpt lat="41.5458900" lon="1.8895880">
        <ele>115.8</ele>
        <time>2022-04-09T06:32:23Z</time>
      </trkpt>
      <trkpt lat="41.5458520" lon="1.8896530">
        <ele>115.8</ele>
        <time>2022-04-09T06:32:24Z</time>
      </trkpt>
      <trkpt lat="41.5457870" lon="1.8897630">
        <ele>115.8</ele>
        <time>2022-04-09T06:32:26Z</time>
      </trkpt>
      <trkpt lat="41.5457170" lon="1.8898740">
        <ele>115.4</ele>
        <time>2022-04-09T06:32:28Z</time>
      </trkpt>
      <trkpt lat="41.5456870" lon="1.8899440">
        <ele>115.0</ele>
        <time>2022-04-09T06:32:29Z</time>
      </trkpt>
      <trkpt lat="41.5456270" lon="1.8900940">
        <ele>114.6</ele>
        <time>2022-04-09T06:32:31Z</time>
      </trkpt>
      <trkpt lat="41.5455680" lon="1.8902370">
        <ele>114.0</ele>
        <time>2022-04-09T06:32:33Z</time>
      </trkpt>
      <trkpt lat="41.5455320" lon="1.8903080">
        <ele>113.8</ele>
        <time>2022-04-09T06:32:34Z</time>
      </trkpt>
      <trkpt lat="41.5454030" lon="1.8906880">
        <ele>113.0</ele>
        <time>2022-04-09T06:32:39Z</time>
      </trkpt>
      <trkpt lat="41.5453720" lon="1.8907560">
        <ele>112.8</ele>
        <time>2022-04-09T06:32:40Z</time>
      </trkpt>
      <trkpt lat="41.5452830" lon="1.8909410">
        <ele>112.6</ele>
        <time>2022-04-09T06:32:43Z</time>
      </trkpt>
      <trkpt lat="41.5451380" lon="1.8913540">
        <ele>111.8</ele>
        <time>2022-04-09T06:32:50Z</time>
      </trkpt>
      <trkpt lat="41.5451210" lon="1.8914110">
        <ele>111.6</ele>
        <time>2022-04-09T06:32:51Z</time>
      </trkpt>
      <trkpt lat="41.5450570" lon="1.8915780">
        <ele>111.2</ele>
        <time>2022-04-09T06:32:54Z</time>
      </trkpt>
      <trkpt lat="41.5449910" lon="1.8916550">
        <ele>111.2</ele>
        <time>2022-04-09T06:32:56Z</time>
      </trkpt>
      <trkpt lat="41.5449570" lon="1.8916920">
        <ele>111.2</ele>
        <time>2022-04-09T06:32:57Z</time>
      </trkpt>
      <trkpt lat="41.5448830" lon="1.8917740">
        <ele>111.2</ele>
        <time>2022-04-09T06:32:59Z</time>
      </trkpt>
      <trkpt lat="41.5448510" lon="1.8918170">
        <ele>111.2</ele>
        <time>2022-04-09T06:33:00Z</time>
      </trkpt>
      <trkpt lat="41.5448200" lon="1.8918640">
        <ele>111.2</ele>
        <time>2022-04-09T06:33:01Z</time>
      </trkpt>
      <trkpt lat="41.5446800" lon="1.8921030">
        <ele>111.2</ele>
        <time>2022-04-09T06:33:06Z</time>
      </trkpt>
      <trkpt lat="41.5446060" lon="1.8922600">
        <ele>111.6</ele>
        <time>2022-04-09T06:33:10Z</time>
      </trkpt>
      <trkpt lat="41.5445560" lon="1.8923430">
        <ele>111.6</ele>
        <time>2022-04-09T06:33:14Z</time>
      </trkpt>
      <trkpt lat="41.5445500" lon="1.8923550">
        <ele>111.6</ele>
        <time>2022-04-09T06:33:15Z</time>
      </trkpt>
      <trkpt lat="41.5445290" lon="1.8924040">
        <ele>111.8</ele>
        <time>2022-04-09T06:33:19Z</time>
      </trkpt>
      <trkpt lat="41.5445160" lon="1.8924140">
        <ele>111.8</ele>
        <time>2022-04-09T06:33:22Z</time>
      </trkpt>
      <trkpt lat="41.5445000" lon="1.8924360">
        <ele>111.8</ele>
        <time>2022-04-09T06:33:48Z</time>
      </trkpt>
      <trkpt lat="41.5444810" lon="1.8924610">
        <ele>111.8</ele>
        <time>2022-04-09T06:33:49Z</time>
      </trkpt>
      <trkpt lat="41.5443820" lon="1.8926210">
        <ele>111.6</ele>
        <time>2022-04-09T06:33:53Z</time>
      </trkpt>
      <trkpt lat="41.5443650" lon="1.8927360">
        <ele>111.8</ele>
        <time>2022-04-09T06:33:55Z</time>
      </trkpt>
      <trkpt lat="41.5443120" lon="1.8928330">
        <ele>111.8</ele>
        <time>2022-04-09T06:33:57Z</time>
      </trkpt>
      <trkpt lat="41.5442770" lon="1.8928810">
        <ele>111.8</ele>
        <time>2022-04-09T06:33:58Z</time>
      </trkpt>
      <trkpt lat="41.5441910" lon="1.8929810">
        <ele>111.6</ele>
        <time>2022-04-09T06:34:00Z</time>
      </trkpt>
      <trkpt lat="41.5441380" lon="1.8930450">
        <ele>111.4</ele>
        <time>2022-04-09T06:34:01Z</time>
      </trkpt>
      <trkpt lat="41.5440930" lon="1.8930990">
        <ele>111.4</ele>
        <time>2022-04-09T06:34:02Z</time>
      </trkpt>
      <trkpt lat="41.5439130" lon="1.8933330">
        <ele>110.8</ele>
        <time>2022-04-09T06:34:06Z</time>
      </trkpt>
      <trkpt lat="41.5438460" lon="1.8934680">
        <ele>110.4</ele>
        <time>2022-04-09T06:34:08Z</time>
      </trkpt>
      <trkpt lat="41.5437270" lon="1.8937390">
        <ele>110.0</ele>
        <time>2022-04-09T06:34:12Z</time>
      </trkpt>
      <trkpt lat="41.5436540" lon="1.8938530">
        <ele>109.8</ele>
        <time>2022-04-09T06:34:14Z</time>
      </trkpt>
      <trkpt lat="41.5436090" lon="1.8939090">
        <ele>109.4</ele>
        <time>2022-04-09T06:34:15Z</time>
      </trkpt>
      <trkpt lat="41.5435490" lon="1.8940110">
        <ele>109.0</ele>
        <time>2022-04-09T06:34:17Z</time>
      </trkpt>
      <trkpt lat="41.5435150" lon="1.8941020">
        <ele>108.4</ele>
        <time>2022-04-09T06:34:20Z</time>
      </trkpt>
      <trkpt lat="41.5435130" lon="1.8941170">
        <ele>108.4</ele>
        <time>2022-04-09T06:34:21Z</time>
      </trkpt>
      <trkpt lat="41.5435140" lon="1.8941230">
        <ele>108.2</ele>
        <time>2022-04-09T06:34:22Z</time>
      </trkpt>
      <trkpt lat="41.5435140" lon="1.8941230">
        <ele>108.2</ele>
        <time>2022-04-09T06:34:24Z</time>
      </trkpt>
      <trkpt lat="41.5434890" lon="1.8941640">
        <ele>105.8</ele>
        <time>2022-04-09T06:49:04Z</time>
      </trkpt>
      <trkpt lat="41.5434740" lon="1.8942020">
        <ele>105.4</ele>
        <time>2022-04-09T06:49:06Z</time>
      </trkpt>
      <trkpt lat="41.5434230" lon="1.8942980">
        <ele>105.2</ele>
        <time>2022-04-09T06:49:09Z</time>
      </trkpt>
      <trkpt lat="41.5433900" lon="1.8943270">
        <ele>105.2</ele>
        <time>2022-04-09T06:49:10Z</time>
      </trkpt>
      <trkpt lat="41.5432570" lon="1.8945050">
        <ele>104.8</ele>
        <time>2022-04-09T06:49:16Z</time>
      </trkpt>
      <trkpt lat="41.5431200" lon="1.8947010">
        <ele>104.6</ele>
        <time>2022-04-09T06:49:19Z</time>
      </trkpt>
      <trkpt lat="41.5430350" lon="1.8948230">
        <ele>104.6</ele>
        <time>2022-04-09T06:49:21Z</time>
      </trkpt>
      <trkpt lat="41.5429520" lon="1.8950370">
        <ele>104.4</ele>
        <time>2022-04-09T06:49:24Z</time>
      </trkpt>
      <trkpt lat="41.5429110" lon="1.8951550">
        <ele>104.4</ele>
        <time>2022-04-09T06:49:26Z</time>
      </trkpt>
      <trkpt lat="41.5427580" lon="1.8953680">
        <ele>103.8</ele>
        <time>2022-04-09T06:49:30Z</time>
      </trkpt>
      <trkpt lat="41.5426410" lon="1.8955380">
        <ele>103.8</ele>
        <time>2022-04-09T06:49:33Z</time>
      </trkpt>
      <trkpt lat="41.5426030" lon="1.8956010">
        <ele>103.6</ele>
        <time>2022-04-09T06:49:34Z</time>
      </trkpt>
      <trkpt lat="41.5424530" lon="1.8958180">
        <ele>103.6</ele>
        <time>2022-04-09T06:49:38Z</time>
      </trkpt>
      <trkpt lat="41.5423590" lon="1.8960390">
        <ele>103.8</ele>
        <time>2022-04-09T06:49:42Z</time>
      </trkpt>
      <trkpt lat="41.5422900" lon="1.8961610">
        <ele>104.0</ele>
        <time>2022-04-09T06:49:45Z</time>
      </trkpt>
      <trkpt lat="41.5422600" lon="1.8962490">
        <ele>104.0</ele>
        <time>2022-04-09T06:49:47Z</time>
      </trkpt>
      <trkpt lat="41.5422720" lon="1.8963230">
        <ele>104.0</ele>
        <time>2022-04-09T06:49:49Z</time>
      </trkpt>
      <trkpt lat="41.5423050" lon="1.8964210">
        <ele>104.0</ele>
        <time>2022-04-09T06:49:52Z</time>
      </trkpt>
      <trkpt lat="41.5423340" lon="1.8964450">
        <ele>104.0</ele>
        <time>2022-04-09T06:49:53Z</time>
      </trkpt>
      <trkpt lat="41.5425040" lon="1.8965520">
        <ele>103.8</ele>
        <time>2022-04-09T06:49:59Z</time>
      </trkpt>
      <trkpt lat="41.5427140" lon="1.8967130">
        <ele>103.8</ele>
        <time>2022-04-09T06:50:05Z</time>
      </trkpt>
      <trkpt lat="41.5429960" lon="1.8968960">
        <ele>104.4</ele>
        <time>2022-04-09T06:50:12Z</time>
      </trkpt>
      <trkpt lat="41.5430740" lon="1.8969360">
        <ele>104.6</ele>
        <time>2022-04-09T06:50:14Z</time>
      </trkpt>
      <trkpt lat="41.5432120" lon="1.8970750">
        <ele>105.6</ele>
        <time>2022-04-09T06:50:18Z</time>
      </trkpt>
      <trkpt lat="41.5432580" lon="1.8971150">
        <ele>105.6</ele>
        <time>2022-04-09T06:50:19Z</time>
      </trkpt>
      <trkpt lat="41.5434210" lon="1.8972550">
        <ele>107.2</ele>
        <time>2022-04-09T06:50:23Z</time>
      </trkpt>
      <trkpt lat="41.5434570" lon="1.8972860">
        <ele>107.4</ele>
        <time>2022-04-09T06:50:24Z</time>
      </trkpt>
      <trkpt lat="41.5435570" lon="1.8973330">
        <ele>108.4</ele>
        <time>2022-04-09T06:50:27Z</time>
      </trkpt>
      <trkpt lat="41.5436660" lon="1.8974590">
        <ele>109.2</ele>
        <time>2022-04-09T06:50:30Z</time>
      </trkpt>
      <trkpt lat="41.5436820" lon="1.8974870">
        <ele>109.4</ele>
        <time>2022-04-09T06:50:31Z</time>
      </trkpt>
      <trkpt lat="41.5437640" lon="1.8975850">
        <ele>110.0</ele>
        <time>2022-04-09T06:50:34Z</time>
      </trkpt>
      <trkpt lat="41.5438340" lon="1.8977100">
        <ele>110.6</ele>
        <time>2022-04-09T06:50:37Z</time>
      </trkpt>
      <trkpt lat="41.5439000" lon="1.8978490">
        <ele>111.8</ele>
        <time>2022-04-09T06:50:40Z</time>
      </trkpt>
      <trkpt lat="41.5439660" lon="1.8980650">
        <ele>113.0</ele>
        <time>2022-04-09T06:50:44Z</time>
      </trkpt>
      <trkpt lat="41.5439740" lon="1.8981110">
        <ele>113.2</ele>
        <time>2022-04-09T06:50:45Z</time>
      </trkpt>
      <trkpt lat="41.5440060" lon="1.8982960">
        <ele>114.2</ele>
        <time>2022-04-09T06:50:48Z</time>
      </trkpt>
      <trkpt lat="41.5440190" lon="1.8983920">
        <ele>114.6</ele>
        <time>2022-04-09T06:50:50Z</time>
      </trkpt>
      <trkpt lat="41.5440240" lon="1.8985430">
        <ele>115.4</ele>
        <time>2022-04-09T06:50:53Z</time>
      </trkpt>
      <trkpt lat="41.5440380" lon="1.8986980">
        <ele>116.0</ele>
        <time>2022-04-09T06:50:56Z</time>
      </trkpt>
      <trkpt lat="41.5440450" lon="1.8988080">
        <ele>116.6</ele>
        <time>2022-04-09T06:50:58Z</time>
      </trkpt>
      <trkpt lat="41.5440500" lon="1.8990640">
        <ele>117.6</ele>
        <time>2022-04-09T06:51:04Z</time>
      </trkpt>
      <trkpt lat="41.5440530" lon="1.8991110">
        <ele>118.0</ele>
        <time>2022-04-09T06:51:05Z</time>
      </trkpt>
      <trkpt lat="41.5440710" lon="1.8992610">
        <ele>118.8</ele>
        <time>2022-04-09T06:51:08Z</time>
      </trkpt>
      <trkpt lat="41.5440790" lon="1.8994390">
        <ele>119.6</ele>
        <time>2022-04-09T06:51:12Z</time>
      </trkpt>
      <trkpt lat="41.5440810" lon="1.8995690">
        <ele>120.0</ele>
        <time>2022-04-09T06:51:15Z</time>
      </trkpt>
      <trkpt lat="41.5440840" lon="1.8997380">
        <ele>121.0</ele>
        <time>2022-04-09T06:51:19Z</time>
      </trkpt>
      <trkpt lat="41.5440780" lon="1.8999990">
        <ele>122.2</ele>
        <time>2022-04-09T06:51:25Z</time>
      </trkpt>
      <trkpt lat="41.5440760" lon="1.9000510">
        <ele>122.4</ele>
        <time>2022-04-09T06:51:26Z</time>
      </trkpt>
      <trkpt lat="41.5440650" lon="1.9002280">
        <ele>123.4</ele>
        <time>2022-04-09T06:51:30Z</time>
      </trkpt>
      <trkpt lat="41.5440340" lon="1.9004860">
        <ele>124.2</ele>
        <time>2022-04-09T06:51:36Z</time>
      </trkpt>
      <trkpt lat="41.5440280" lon="1.9005190">
        <ele>124.6</ele>
        <time>2022-04-09T06:51:37Z</time>
      </trkpt>
      <trkpt lat="41.5439900" lon="1.9007270">
        <ele>125.6</ele>
        <time>2022-04-09T06:51:42Z</time>
      </trkpt>
      <trkpt lat="41.5439510" lon="1.9008500">
        <ele>126.6</ele>
        <time>2022-04-09T06:51:45Z</time>
      </trkpt>
      <trkpt lat="41.5438910" lon="1.9010650">
        <ele>127.6</ele>
        <time>2022-04-09T06:51:51Z</time>
      </trkpt>
      <trkpt lat="41.5438750" lon="1.9012130">
        <ele>128.4</ele>
        <time>2022-04-09T06:51:55Z</time>
      </trkpt>
      <trkpt lat="41.5438730" lon="1.9013090">
        <ele>128.8</ele>
        <time>2022-04-09T06:51:57Z</time>
      </trkpt>
      <trkpt lat="41.5438930" lon="1.9014700">
        <ele>130.0</ele>
        <time>2022-04-09T06:52:01Z</time>
      </trkpt>
      <trkpt lat="41.5439070" lon="1.9015180">
        <ele>130.0</ele>
        <time>2022-04-09T06:52:02Z</time>
      </trkpt>
      <trkpt lat="41.5439980" lon="1.9016980">
        <ele>131.2</ele>
        <time>2022-04-09T06:52:07Z</time>
      </trkpt>
      <trkpt lat="41.5440420" lon="1.9017600">
        <ele>131.6</ele>
        <time>2022-04-09T06:52:09Z</time>
      </trkpt>
      <trkpt lat="41.5441110" lon="1.9018470">
        <ele>132.2</ele>
        <time>2022-04-09T06:52:13Z</time>
      </trkpt>
      <trkpt lat="41.5442080" lon="1.9019700">
        <ele>133.2</ele>
        <time>2022-04-09T06:52:18Z</time>
      </trkpt>
      <trkpt lat="41.5442570" lon="1.9020200">
        <ele>133.4</ele>
        <time>2022-04-09T06:52:20Z</time>
      </trkpt>
      <trkpt lat="41.5443170" lon="1.9021010">
        <ele>134.4</ele>
        <time>2022-04-09T06:52:23Z</time>
      </trkpt>
      <trkpt lat="41.5444420" lon="1.9022820">
        <ele>135.4</ele>
        <time>2022-04-09T06:52:29Z</time>
      </trkpt>
      <trkpt lat="41.5444700" lon="1.9023530">
        <ele>136.0</ele>
        <time>2022-04-09T06:52:31Z</time>
      </trkpt>
      <trkpt lat="41.5445360" lon="1.9025570">
        <ele>136.6</ele>
        <time>2022-04-09T06:52:36Z</time>
      </trkpt>
      <trkpt lat="41.5445520" lon="1.9026430">
        <ele>137.0</ele>
        <time>2022-04-09T06:52:38Z</time>
      </trkpt>
      <trkpt lat="41.5445500" lon="1.9027650">
        <ele>137.8</ele>
        <time>2022-04-09T06:52:41Z</time>
      </trkpt>
      <trkpt lat="41.5445570" lon="1.9028410">
        <ele>138.2</ele>
        <time>2022-04-09T06:52:43Z</time>
      </trkpt>
      <trkpt lat="41.5445600" lon="1.9029600">
        <ele>139.0</ele>
        <time>2022-04-09T06:52:46Z</time>
      </trkpt>
      <trkpt lat="41.5445610" lon="1.9030750">
        <ele>139.8</ele>
        <time>2022-04-09T06:52:49Z</time>
      </trkpt>
      <trkpt lat="41.5445680" lon="1.9031130">
        <ele>140.0</ele>
        <time>2022-04-09T06:52:50Z</time>
      </trkpt>
      <trkpt lat="41.5446150" lon="1.9032590">
        <ele>141.2</ele>
        <time>2022-04-09T06:52:54Z</time>
      </trkpt>
      <trkpt lat="41.5446740" lon="1.9033550">
        <ele>142.0</ele>
        <time>2022-04-09T06:52:57Z</time>
      </trkpt>
      <trkpt lat="41.5446980" lon="1.9033830">
        <ele>142.4</ele>
        <time>2022-04-09T06:52:58Z</time>
      </trkpt>
      <trkpt lat="41.5448840" lon="1.9035400">
        <ele>143.4</ele>
        <time>2022-04-09T06:53:05Z</time>
      </trkpt>
      <trkpt lat="41.5450260" lon="1.9036300">
        <ele>144.8</ele>
        <time>2022-04-09T06:53:10Z</time>
      </trkpt>
      <trkpt lat="41.5451760" lon="1.9037100">
        <ele>145.8</ele>
        <time>2022-04-09T06:53:15Z</time>
      </trkpt>
      <trkpt lat="41.5452970" lon="1.9037700">
        <ele>147.0</ele>
        <time>2022-04-09T06:53:19Z</time>
      </trkpt>
      <trkpt lat="41.5454940" lon="1.9038400">
        <ele>147.8</ele>
        <time>2022-04-09T06:53:25Z</time>
      </trkpt>
      <trkpt lat="41.5455270" lon="1.9038490">
        <ele>148.2</ele>
        <time>2022-04-09T06:53:26Z</time>
      </trkpt>
      <trkpt lat="41.5456890" lon="1.9038840">
        <ele>149.4</ele>
        <time>2022-04-09T06:53:31Z</time>
      </trkpt>
      <trkpt lat="41.5457860" lon="1.9039020">
        <ele>149.8</ele>
        <time>2022-04-09T06:53:34Z</time>
      </trkpt>
      <trkpt lat="41.5458800" lon="1.9039090">
        <ele>150.4</ele>
        <time>2022-04-09T06:53:37Z</time>
      </trkpt>
      <trkpt lat="41.5460990" lon="1.9038760">
        <ele>151.6</ele>
        <time>2022-04-09T06:53:44Z</time>
      </trkpt>
      <trkpt lat="41.5462220" lon="1.9038520">
        <ele>152.6</ele>
        <time>2022-04-09T06:53:48Z</time>
      </trkpt>
      <trkpt lat="41.5463250" lon="1.9038480">
        <ele>153.6</ele>
        <time>2022-04-09T06:53:51Z</time>
      </trkpt>
      <trkpt lat="41.5463590" lon="1.9038520">
        <ele>153.8</ele>
        <time>2022-04-09T06:53:52Z</time>
      </trkpt>
      <trkpt lat="41.5465170" lon="1.9039160">
        <ele>154.8</ele>
        <time>2022-04-09T06:53:57Z</time>
      </trkpt>
      <trkpt lat="41.5465450" lon="1.9039370">
        <ele>155.0</ele>
        <time>2022-04-09T06:53:58Z</time>
      </trkpt>
      <trkpt lat="41.5466480" lon="1.9040810">
        <ele>156.0</ele>
        <time>2022-04-09T06:54:03Z</time>
      </trkpt>
      <trkpt lat="41.5466640" lon="1.9041160">
        <ele>156.2</ele>
        <time>2022-04-09T06:54:04Z</time>
      </trkpt>
      <trkpt lat="41.5467420" lon="1.9042570">
        <ele>157.4</ele>
        <time>2022-04-09T06:54:08Z</time>
      </trkpt>
      <trkpt lat="41.5468350" lon="1.9043650">
        <ele>158.4</ele>
        <time>2022-04-09T06:54:12Z</time>
      </trkpt>
      <trkpt lat="41.5470080" lon="1.9044830">
        <ele>159.4</ele>
        <time>2022-04-09T06:54:18Z</time>
      </trkpt>
      <trkpt lat="41.5470650" lon="1.9045040">
        <ele>160.0</ele>
        <time>2022-04-09T06:54:20Z</time>
      </trkpt>
      <trkpt lat="41.5471850" lon="1.9045410">
        <ele>160.8</ele>
        <time>2022-04-09T06:54:24Z</time>
      </trkpt>
      <trkpt lat="41.5473340" lon="1.9045900">
        <ele>161.8</ele>
        <time>2022-04-09T06:54:29Z</time>
      </trkpt>
      <trkpt lat="41.5473640" lon="1.9045970">
        <ele>162.0</ele>
        <time>2022-04-09T06:54:30Z</time>
      </trkpt>
      <trkpt lat="41.5475440" lon="1.9046560">
        <ele>163.2</ele>
        <time>2022-04-09T06:54:36Z</time>
      </trkpt>
      <trkpt lat="41.5475730" lon="1.9046680">
        <ele>163.2</ele>
        <time>2022-04-09T06:54:37Z</time>
      </trkpt>
      <trkpt lat="41.5476910" lon="1.9047060">
        <ele>164.2</ele>
        <time>2022-04-09T06:54:41Z</time>
      </trkpt>
      <trkpt lat="41.5478670" lon="1.9047740">
        <ele>165.4</ele>
        <time>2022-04-09T06:54:47Z</time>
      </trkpt>
      <trkpt lat="41.5479910" lon="1.9048310">
        <ele>166.4</ele>
        <time>2022-04-09T06:54:51Z</time>
      </trkpt>
      <trkpt lat="41.5481180" lon="1.9048980">
        <ele>167.4</ele>
        <time>2022-04-09T06:54:55Z</time>
      </trkpt>
      <trkpt lat="41.5482030" lon="1.9049630">
        <ele>168.2</ele>
        <time>2022-04-09T06:54:58Z</time>
      </trkpt>
      <trkpt lat="41.5482300" lon="1.9049880">
        <ele>168.4</ele>
        <time>2022-04-09T06:54:59Z</time>
      </trkpt>
      <trkpt lat="41.5483390" lon="1.9051410">
        <ele>169.0</ele>
        <time>2022-04-09T06:55:04Z</time>
      </trkpt>
      <trkpt lat="41.5484170" lon="1.9052850">
        <ele>169.6</ele>
        <time>2022-04-09T06:55:08Z</time>
      </trkpt>
      <trkpt lat="41.5485150" lon="1.9054670">
        <ele>170.6</ele>
        <time>2022-04-09T06:55:13Z</time>
      </trkpt>
      <trkpt lat="41.5485350" lon="1.9055040">
        <ele>170.8</ele>
        <time>2022-04-09T06:55:14Z</time>
      </trkpt>
      <trkpt lat="41.5486560" lon="1.9057150">
        <ele>171.8</ele>
        <time>2022-04-09T06:55:20Z</time>
      </trkpt>
      <trkpt lat="41.5487530" lon="1.9058940">
        <ele>173.0</ele>
        <time>2022-04-09T06:55:25Z</time>
      </trkpt>
      <trkpt lat="41.5488820" lon="1.9061470">
        <ele>174.2</ele>
        <time>2022-04-09T06:55:32Z</time>
      </trkpt>
      <trkpt lat="41.5489000" lon="1.9061850">
        <ele>174.4</ele>
        <time>2022-04-09T06:55:33Z</time>
      </trkpt>
      <trkpt lat="41.5490130" lon="1.9064080">
        <ele>175.4</ele>
        <time>2022-04-09T06:55:39Z</time>
      </trkpt>
      <trkpt lat="41.5491050" lon="1.9065480">
        <ele>176.4</ele>
        <time>2022-04-09T06:55:43Z</time>
      </trkpt>
      <trkpt lat="41.5491290" lon="1.9065800">
        <ele>176.6</ele>
        <time>2022-04-09T06:55:44Z</time>
      </trkpt>
      <trkpt lat="41.5492830" lon="1.9067470">
        <ele>177.6</ele>
        <time>2022-04-09T06:55:50Z</time>
      </trkpt>
      <trkpt lat="41.5493120" lon="1.9067670">
        <ele>177.8</ele>
        <time>2022-04-09T06:55:51Z</time>
      </trkpt>
      <trkpt lat="41.5494550" lon="1.9068740">
        <ele>178.8</ele>
        <time>2022-04-09T06:55:56Z</time>
      </trkpt>
      <trkpt lat="41.5495170" lon="1.9069160">
        <ele>179.2</ele>
        <time>2022-04-09T06:55:58Z</time>
      </trkpt>
      <trkpt lat="41.5496260" lon="1.9070240">
        <ele>180.2</ele>
        <time>2022-04-09T06:56:02Z</time>
      </trkpt>
      <trkpt lat="41.5496650" lon="1.9070920">
        <ele>180.6</ele>
        <time>2022-04-09T06:56:04Z</time>
      </trkpt>
      <trkpt lat="41.5497040" lon="1.9072170">
        <ele>181.4</ele>
        <time>2022-04-09T06:56:07Z</time>
      </trkpt>
      <trkpt lat="41.5497640" lon="1.9074270">
        <ele>182.0</ele>
        <time>2022-04-09T06:56:12Z</time>
      </trkpt>
      <trkpt lat="41.5498000" lon="1.9075050">
        <ele>182.6</ele>
        <time>2022-04-09T06:56:14Z</time>
      </trkpt>
      <trkpt lat="41.5498950" lon="1.9076350">
        <ele>183.2</ele>
        <time>2022-04-09T06:56:18Z</time>
      </trkpt>
      <trkpt lat="41.5499490" lon="1.9076850">
        <ele>183.8</ele>
        <time>2022-04-09T06:56:20Z</time>
      </trkpt>
      <trkpt lat="41.5500880" lon="1.9078050">
        <ele>184.6</ele>
        <time>2022-04-09T06:56:25Z</time>
      </trkpt>
      <trkpt lat="41.5501430" lon="1.9078490">
        <ele>184.8</ele>
        <time>2022-04-09T06:56:27Z</time>
      </trkpt>
      <trkpt lat="41.5502830" lon="1.9079750">
        <ele>186.2</ele>
        <time>2022-04-09T06:56:32Z</time>
      </trkpt>
      <trkpt lat="41.5503660" lon="1.9080450">
        <ele>187.0</ele>
        <time>2022-04-09T06:56:35Z</time>
      </trkpt>
      <trkpt lat="41.5504520" lon="1.9081170">
        <ele>187.2</ele>
        <time>2022-04-09T06:56:38Z</time>
      </trkpt>
      <trkpt lat="41.5506030" lon="1.9082770">
        <ele>188.4</ele>
        <time>2022-04-09T06:56:44Z</time>
      </trkpt>
      <trkpt lat="41.5507210" lon="1.9084800">
        <ele>189.4</ele>
        <time>2022-04-09T06:56:50Z</time>
      </trkpt>
      <trkpt lat="41.5507700" lon="1.9085950">
        <ele>189.8</ele>
        <time>2022-04-09T06:56:53Z</time>
      </trkpt>
      <trkpt lat="41.5508370" lon="1.9087490">
        <ele>190.4</ele>
        <time>2022-04-09T06:56:57Z</time>
      </trkpt>
      <trkpt lat="41.5509010" lon="1.9088450">
        <ele>191.0</ele>
        <time>2022-04-09T06:57:00Z</time>
      </trkpt>
      <trkpt lat="41.5509760" lon="1.9089260">
        <ele>191.8</ele>
        <time>2022-04-09T06:57:03Z</time>
      </trkpt>
      <trkpt lat="41.5510640" lon="1.9089760">
        <ele>192.2</ele>
        <time>2022-04-09T06:57:06Z</time>
      </trkpt>
      <trkpt lat="41.5511640" lon="1.9090130">
        <ele>193.0</ele>
        <time>2022-04-09T06:57:09Z</time>
      </trkpt>
      <trkpt lat="41.5512340" lon="1.9090290">
        <ele>193.4</ele>
        <time>2022-04-09T06:57:11Z</time>
      </trkpt>
      <trkpt lat="41.5513380" lon="1.9090340">
        <ele>193.6</ele>
        <time>2022-04-09T06:57:14Z</time>
      </trkpt>
      <trkpt lat="41.5514060" lon="1.9090280">
        <ele>194.0</ele>
        <time>2022-04-09T06:57:16Z</time>
      </trkpt>
      <trkpt lat="41.5515770" lon="1.9090190">
        <ele>195.2</ele>
        <time>2022-04-09T06:57:21Z</time>
      </trkpt>
      <trkpt lat="41.5516470" lon="1.9090340">
        <ele>195.4</ele>
        <time>2022-04-09T06:57:23Z</time>
      </trkpt>
      <trkpt lat="41.5517770" lon="1.9090930">
        <ele>196.2</ele>
        <time>2022-04-09T06:57:27Z</time>
      </trkpt>
      <trkpt lat="41.5518690" lon="1.9091590">
        <ele>196.6</ele>
        <time>2022-04-09T06:57:30Z</time>
      </trkpt>
      <trkpt lat="41.5519850" lon="1.9092610">
        <ele>197.2</ele>
        <time>2022-04-09T06:57:34Z</time>
      </trkpt>
      <trkpt lat="41.5520710" lon="1.9093420">
        <ele>197.8</ele>
        <time>2022-04-09T06:57:37Z</time>
      </trkpt>
      <trkpt lat="41.5521340" lon="1.9093810">
        <ele>198.4</ele>
        <time>2022-04-09T06:57:39Z</time>
      </trkpt>
      <trkpt lat="41.5523030" lon="1.9094500">
        <ele>199.4</ele>
        <time>2022-04-09T06:57:44Z</time>
      </trkpt>
      <trkpt lat="41.5523370" lon="1.9094570">
        <ele>199.6</ele>
        <time>2022-04-09T06:57:45Z</time>
      </trkpt>
      <trkpt lat="41.5524740" lon="1.9094830">
        <ele>200.4</ele>
        <time>2022-04-09T06:57:49Z</time>
      </trkpt>
      <trkpt lat="41.5526780" lon="1.9094900">
        <ele>201.2</ele>
        <time>2022-04-09T06:57:55Z</time>
      </trkpt>
      <trkpt lat="41.5527140" lon="1.9094910">
        <ele>201.4</ele>
        <time>2022-04-09T06:57:56Z</time>
      </trkpt>
      <trkpt lat="41.5529010" lon="1.9094890">
        <ele>202.6</ele>
        <time>2022-04-09T06:58:01Z</time>
      </trkpt>
      <trkpt lat="41.5530970" lon="1.9094860">
        <ele>203.0</ele>
        <time>2022-04-09T06:58:06Z</time>
      </trkpt>
      <trkpt lat="41.5534070" lon="1.9095120">
        <ele>202.8</ele>
        <time>2022-04-09T06:58:13Z</time>
      </trkpt>
      <trkpt lat="41.5534530" lon="1.9095300">
        <ele>202.6</ele>
        <time>2022-04-09T06:58:14Z</time>
      </trkpt>
      <trkpt lat="41.5534960" lon="1.9095560">
        <ele>202.6</ele>
        <time>2022-04-09T06:58:15Z</time>
      </trkpt>
      <trkpt lat="41.5536240" lon="1.9096540">
        <ele>202.6</ele>
        <time>2022-04-09T06:58:18Z</time>
      </trkpt>
      <trkpt lat="41.5536940" lon="1.9097350">
        <ele>202.4</ele>
        <time>2022-04-09T06:58:20Z</time>
      </trkpt>
      <trkpt lat="41.5537240" lon="1.9097810">
        <ele>202.4</ele>
        <time>2022-04-09T06:58:21Z</time>
      </trkpt>
      <trkpt lat="41.5538370" lon="1.9099540">
        <ele>202.2</ele>
        <time>2022-04-09T06:58:25Z</time>
      </trkpt>
      <trkpt lat="41.5538610" lon="1.9099970">
        <ele>202.2</ele>
        <time>2022-04-09T06:58:26Z</time>
      </trkpt>
      <trkpt lat="41.5539170" lon="1.9100850">
        <ele>202.2</ele>
        <time>2022-04-09T06:58:28Z</time>
      </trkpt>
      <trkpt lat="41.5540550" lon="1.9102470">
        <ele>202.2</ele>
        <time>2022-04-09T06:58:32Z</time>
      </trkpt>
      <trkpt lat="41.5540900" lon="1.9102800">
        <ele>202.2</ele>
        <time>2022-04-09T06:58:33Z</time>
      </trkpt>
      <trkpt lat="41.5541670" lon="1.9103310">
        <ele>202.2</ele>
        <time>2022-04-09T06:58:35Z</time>
      </trkpt>
      <trkpt lat="41.5542470" lon="1.9103530">
        <ele>202.4</ele>
        <time>2022-04-09T06:58:37Z</time>
      </trkpt>
      <trkpt lat="41.5543320" lon="1.9103250">
        <ele>202.6</ele>
        <time>2022-04-09T06:58:39Z</time>
      </trkpt>
      <trkpt lat="41.5544170" lon="1.9102610">
        <ele>202.6</ele>
        <time>2022-04-09T06:58:41Z</time>
      </trkpt>
      <trkpt lat="41.5544860" lon="1.9101650">
        <ele>202.6</ele>
        <time>2022-04-09T06:58:43Z</time>
      </trkpt>
      <trkpt lat="41.5545760" lon="1.9100020">
        <ele>202.6</ele>
        <time>2022-04-09T06:58:46Z</time>
      </trkpt>
      <trkpt lat="41.5547190" lon="1.9097250">
        <ele>202.6</ele>
        <time>2022-04-09T06:58:51Z</time>
      </trkpt>
      <trkpt lat="41.5547510" lon="1.9096800">
        <ele>202.6</ele>
        <time>2022-04-09T06:58:52Z</time>
      </trkpt>
      <trkpt lat="41.5548130" lon="1.9095930">
        <ele>202.6</ele>
        <time>2022-04-09T06:58:54Z</time>
      </trkpt>
      <trkpt lat="41.5549280" lon="1.9094300">
        <ele>202.4</ele>
        <time>2022-04-09T06:58:57Z</time>
      </trkpt>
      <trkpt lat="41.5550040" lon="1.9093890">
        <ele>202.6</ele>
        <time>2022-04-09T06:58:59Z</time>
      </trkpt>
      <trkpt lat="41.5550620" lon="1.9093940">
        <ele>202.6</ele>
        <time>2022-04-09T06:59:00Z</time>
      </trkpt>
      <trkpt lat="41.5551120" lon="1.9094130">
        <ele>202.6</ele>
        <time>2022-04-09T06:59:01Z</time>
      </trkpt>
      <trkpt lat="41.5553070" lon="1.9095110">
        <ele>203.0</ele>
        <time>2022-04-09T06:59:05Z</time>
      </trkpt>
      <trkpt lat="41.5554010" lon="1.9095540">
        <ele>203.0</ele>
        <time>2022-04-09T06:59:07Z</time>
      </trkpt>
      <trkpt lat="41.5555560" lon="1.9095830">
        <ele>203.4</ele>
        <time>2022-04-09T06:59:10Z</time>
      </trkpt>
      <trkpt lat="41.5557040" lon="1.9096100">
        <ele>203.8</ele>
        <time>2022-04-09T06:59:13Z</time>
      </trkpt>
      <trkpt lat="41.5558530" lon="1.9096440">
        <ele>204.0</ele>
        <time>2022-04-09T06:59:16Z</time>
      </trkpt>
      <trkpt lat="41.5559010" lon="1.9096760">
        <ele>204.0</ele>
        <time>2022-04-09T06:59:17Z</time>
      </trkpt>
      <trkpt lat="41.5559440" lon="1.9097170">
        <ele>204.2</ele>
        <time>2022-04-09T06:59:18Z</time>
      </trkpt>
      <trkpt lat="41.5560100" lon="1.9098280">
        <ele>204.2</ele>
        <time>2022-04-09T06:59:20Z</time>
      </trkpt>
      <trkpt lat="41.5560250" lon="1.9098890">
        <ele>204.2</ele>
        <time>2022-04-09T06:59:21Z</time>
      </trkpt>
      <trkpt lat="41.5560420" lon="1.9100060">
        <ele>204.6</ele>
        <time>2022-04-09T06:59:23Z</time>
      </trkpt>
      <trkpt lat="41.5560400" lon="1.9100680">
        <ele>204.8</ele>
        <time>2022-04-09T06:59:24Z</time>
      </trkpt>
      <trkpt lat="41.5560300" lon="1.9101300">
        <ele>205.0</ele>
        <time>2022-04-09T06:59:25Z</time>
      </trkpt>
      <trkpt lat="41.5560110" lon="1.9101850">
        <ele>205.2</ele>
        <time>2022-04-09T06:59:26Z</time>
      </trkpt>
      <trkpt lat="41.5559900" lon="1.9102360">
        <ele>205.8</ele>
        <time>2022-04-09T06:59:27Z</time>
      </trkpt>
      <trkpt lat="41.5559660" lon="1.9102820">
        <ele>206.0</ele>
        <time>2022-04-09T06:59:28Z</time>
      </trkpt>
      <trkpt lat="41.5558910" lon="1.9103960">
        <ele>207.0</ele>
        <time>2022-04-09T06:59:31Z</time>
      </trkpt>
      <trkpt lat="41.5558560" lon="1.9104390">
        <ele>207.2</ele>
        <time>2022-04-09T06:59:32Z</time>
      </trkpt>
      <trkpt lat="41.5557960" lon="1.9105150">
        <ele>208.0</ele>
        <time>2022-04-09T06:59:34Z</time>
      </trkpt>
      <trkpt lat="41.5557640" lon="1.9105490">
        <ele>208.4</ele>
        <time>2022-04-09T06:59:35Z</time>
      </trkpt>
      <trkpt lat="41.5556790" lon="1.9106480">
        <ele>209.2</ele>
        <time>2022-04-09T06:59:38Z</time>
      </trkpt>
      <trkpt lat="41.5556520" lon="1.9106830">
        <ele>209.4</ele>
        <time>2022-04-09T06:59:39Z</time>
      </trkpt>
      <trkpt lat="41.5555430" lon="1.9108170">
        <ele>210.8</ele>
        <time>2022-04-09T06:59:43Z</time>
      </trkpt>
      <trkpt lat="41.5555190" lon="1.9108510">
        <ele>211.0</ele>
        <time>2022-04-09T06:59:44Z</time>
      </trkpt>
      <trkpt lat="41.5554520" lon="1.9109530">
        <ele>212.2</ele>
        <time>2022-04-09T06:59:47Z</time>
      </trkpt>
      <trkpt lat="41.5554120" lon="1.9110780">
        <ele>213.2</ele>
        <time>2022-04-09T06:59:50Z</time>
      </trkpt>
      <trkpt lat="41.5554040" lon="1.9111230">
        <ele>213.4</ele>
        <time>2022-04-09T06:59:51Z</time>
      </trkpt>
      <trkpt lat="41.5553950" lon="1.9112580">
        <ele>214.6</ele>
        <time>2022-04-09T06:59:54Z</time>
      </trkpt>
      <trkpt lat="41.5554060" lon="1.9113410">
        <ele>215.0</ele>
        <time>2022-04-09T06:59:56Z</time>
      </trkpt>
      <trkpt lat="41.5554440" lon="1.9114570">
        <ele>215.8</ele>
        <time>2022-04-09T06:59:59Z</time>
      </trkpt>
      <trkpt lat="41.5555070" lon="1.9116000">
        <ele>216.4</ele>
        <time>2022-04-09T07:00:03Z</time>
      </trkpt>
      <trkpt lat="41.5555250" lon="1.9116340">
        <ele>217.2</ele>
        <time>2022-04-09T07:00:04Z</time>
      </trkpt>
      <trkpt lat="41.5556530" lon="1.9118770">
        <ele>218.4</ele>
        <time>2022-04-09T07:00:11Z</time>
      </trkpt>
      <trkpt lat="41.5556900" lon="1.9119420">
        <ele>218.8</ele>
        <time>2022-04-09T07:00:13Z</time>
      </trkpt>
      <trkpt lat="41.5557440" lon="1.9120460">
        <ele>219.8</ele>
        <time>2022-04-09T07:00:16Z</time>
      </trkpt>
      <trkpt lat="41.5558330" lon="1.9121580">
        <ele>220.4</ele>
        <time>2022-04-09T07:00:20Z</time>
      </trkpt>
      <trkpt lat="41.5558770" lon="1.9122080">
        <ele>220.8</ele>
        <time>2022-04-09T07:00:22Z</time>
      </trkpt>
      <trkpt lat="41.5559790" lon="1.9123420">
        <ele>222.0</ele>
        <time>2022-04-09T07:00:27Z</time>
      </trkpt>
      <trkpt lat="41.5560220" lon="1.9124100">
        <ele>222.4</ele>
        <time>2022-04-09T07:00:29Z</time>
      </trkpt>
      <trkpt lat="41.5560700" lon="1.9125050">
        <ele>223.2</ele>
        <time>2022-04-09T07:00:32Z</time>
      </trkpt>
      <trkpt lat="41.5561060" lon="1.9126460">
        <ele>223.8</ele>
        <time>2022-04-09T07:00:36Z</time>
      </trkpt>
      <trkpt lat="41.5561130" lon="1.9127340">
        <ele>224.4</ele>
        <time>2022-04-09T07:00:38Z</time>
      </trkpt>
      <trkpt lat="41.5561320" lon="1.9129400">
        <ele>225.6</ele>
        <time>2022-04-09T07:00:43Z</time>
      </trkpt>
      <trkpt lat="41.5561390" lon="1.9130670">
        <ele>226.4</ele>
        <time>2022-04-09T07:00:46Z</time>
      </trkpt>
      <trkpt lat="41.5561400" lon="1.9131110">
        <ele>226.6</ele>
        <time>2022-04-09T07:00:47Z</time>
      </trkpt>
      <trkpt lat="41.5561510" lon="1.9133210">
        <ele>227.8</ele>
        <time>2022-04-09T07:00:52Z</time>
      </trkpt>
      <trkpt lat="41.5561710" lon="1.9135020">
        <ele>228.8</ele>
        <time>2022-04-09T07:00:56Z</time>
      </trkpt>
      <trkpt lat="41.5562100" lon="1.9137120">
        <ele>229.8</ele>
        <time>2022-04-09T07:01:01Z</time>
      </trkpt>
      <trkpt lat="41.5562360" lon="1.9137880">
        <ele>230.2</ele>
        <time>2022-04-09T07:01:03Z</time>
      </trkpt>
      <trkpt lat="41.5562880" lon="1.9138930">
        <ele>231.2</ele>
        <time>2022-04-09T07:01:06Z</time>
      </trkpt>
      <trkpt lat="41.5563370" lon="1.9139950">
        <ele>231.8</ele>
        <time>2022-04-09T07:01:09Z</time>
      </trkpt>
      <trkpt lat="41.5563450" lon="1.9140260">
        <ele>232.2</ele>
        <time>2022-04-09T07:01:10Z</time>
      </trkpt>
      <trkpt lat="41.5563570" lon="1.9140590">
        <ele>232.4</ele>
        <time>2022-04-09T07:01:11Z</time>
      </trkpt>
      <trkpt lat="41.5564280" lon="1.9142140">
        <ele>233.0</ele>
        <time>2022-04-09T07:01:15Z</time>
      </trkpt>
      <trkpt lat="41.5564600" lon="1.9143330">
        <ele>233.8</ele>
        <time>2022-04-09T07:01:18Z</time>
      </trkpt>
      <trkpt lat="41.5565040" lon="1.9144880">
        <ele>234.4</ele>
        <time>2022-04-09T07:01:22Z</time>
      </trkpt>
      <trkpt lat="41.5565260" lon="1.9145790">
        <ele>234.8</ele>
        <time>2022-04-09T07:01:24Z</time>
      </trkpt>
      <trkpt lat="41.5565570" lon="1.9147020">
        <ele>236.0</ele>
        <time>2022-04-09T07:01:27Z</time>
      </trkpt>
      <trkpt lat="41.5566070" lon="1.9148660">
        <ele>237.0</ele>
        <time>2022-04-09T07:01:31Z</time>
      </trkpt>
      <trkpt lat="41.5566600" lon="1.9150160">
        <ele>238.4</ele>
        <time>2022-04-09T07:01:35Z</time>
      </trkpt>
      <trkpt lat="41.5567410" lon="1.9152480">
        <ele>239.6</ele>
        <time>2022-04-09T07:01:41Z</time>
      </trkpt>
      <trkpt lat="41.5568310" lon="1.9155210">
        <ele>241.0</ele>
        <time>2022-04-09T07:01:48Z</time>
      </trkpt>
      <trkpt lat="41.5568510" lon="1.9155860">
        <ele>241.4</ele>
        <time>2022-04-09T07:01:50Z</time>
      </trkpt>
      <trkpt lat="41.5568900" lon="1.9157030">
        <ele>242.0</ele>
        <time>2022-04-09T07:01:53Z</time>
      </trkpt>
      <trkpt lat="41.5569310" lon="1.9158600">
        <ele>243.0</ele>
        <time>2022-04-09T07:01:57Z</time>
      </trkpt>
      <trkpt lat="41.5569400" lon="1.9158980">
        <ele>243.4</ele>
        <time>2022-04-09T07:01:58Z</time>
      </trkpt>
      <trkpt lat="41.5569700" lon="1.9160640">
        <ele>244.4</ele>
        <time>2022-04-09T07:02:02Z</time>
      </trkpt>
      <trkpt lat="41.5569710" lon="1.9162760">
        <ele>245.2</ele>
        <time>2022-04-09T07:02:07Z</time>
      </trkpt>
      <trkpt lat="41.5569640" lon="1.9163190">
        <ele>245.4</ele>
        <time>2022-04-09T07:02:08Z</time>
      </trkpt>
      <trkpt lat="41.5569260" lon="1.9164670">
        <ele>246.6</ele>
        <time>2022-04-09T07:02:12Z</time>
      </trkpt>
      <trkpt lat="41.5569150" lon="1.9165050">
        <ele>246.8</ele>
        <time>2022-04-09T07:02:13Z</time>
      </trkpt>
      <trkpt lat="41.5568590" lon="1.9166950">
        <ele>247.6</ele>
        <time>2022-04-09T07:02:18Z</time>
      </trkpt>
      <trkpt lat="41.5568330" lon="1.9168410">
        <ele>248.2</ele>
        <time>2022-04-09T07:02:22Z</time>
      </trkpt>
      <trkpt lat="41.5568280" lon="1.9168790">
        <ele>248.6</ele>
        <time>2022-04-09T07:02:23Z</time>
      </trkpt>
      <trkpt lat="41.5568570" lon="1.9170790">
        <ele>249.8</ele>
        <time>2022-04-09T07:02:28Z</time>
      </trkpt>
      <trkpt lat="41.5569850" lon="1.9172560">
        <ele>250.8</ele>
        <time>2022-04-09T07:02:34Z</time>
      </trkpt>
      <trkpt lat="41.5570630" lon="1.9173280">
        <ele>251.8</ele>
        <time>2022-04-09T07:02:37Z</time>
      </trkpt>
      <trkpt lat="41.5572290" lon="1.9174150">
        <ele>252.4</ele>
        <time>2022-04-09T07:02:42Z</time>
      </trkpt>
      <trkpt lat="41.5573100" lon="1.9174000">
        <ele>252.6</ele>
        <time>2022-04-09T07:02:44Z</time>
      </trkpt>
      <trkpt lat="41.5573880" lon="1.9173420">
        <ele>252.6</ele>
        <time>2022-04-09T07:02:46Z</time>
      </trkpt>
      <trkpt lat="41.5574550" lon="1.9172250">
        <ele>252.4</ele>
        <time>2022-04-09T07:02:48Z</time>
      </trkpt>
      <trkpt lat="41.5575000" lon="1.9170840">
        <ele>252.2</ele>
        <time>2022-04-09T07:02:50Z</time>
      </trkpt>
      <trkpt lat="41.5576610" lon="1.9165780">
        <ele>251.2</ele>
        <time>2022-04-09T07:02:56Z</time>
      </trkpt>
      <trkpt lat="41.5577340" lon="1.9163970">
        <ele>250.4</ele>
        <time>2022-04-09T07:02:58Z</time>
      </trkpt>
      <trkpt lat="41.5577780" lon="1.9163170">
        <ele>250.0</ele>
        <time>2022-04-09T07:02:59Z</time>
      </trkpt>
      <trkpt lat="41.5578310" lon="1.9162470">
        <ele>249.4</ele>
        <time>2022-04-09T07:03:00Z</time>
      </trkpt>
      <trkpt lat="41.5578930" lon="1.9162040">
        <ele>248.8</ele>
        <time>2022-04-09T07:03:01Z</time>
      </trkpt>
      <trkpt lat="41.5579570" lon="1.9161990">
        <ele>248.6</ele>
        <time>2022-04-09T07:03:02Z</time>
      </trkpt>
      <trkpt lat="41.5580170" lon="1.9162450">
        <ele>248.4</ele>
        <time>2022-04-09T07:03:03Z</time>
      </trkpt>
      <trkpt lat="41.5580640" lon="1.9163130">
        <ele>248.0</ele>
        <time>2022-04-09T07:03:04Z</time>
      </trkpt>
      <trkpt lat="41.5581000" lon="1.9163910">
        <ele>247.0</ele>
        <time>2022-04-09T07:03:05Z</time>
      </trkpt>
      <trkpt lat="41.5581370" lon="1.9165730">
        <ele>246.6</ele>
        <time>2022-04-09T07:03:07Z</time>
      </trkpt>
      <trkpt lat="41.5581350" lon="1.9168700">
        <ele>246.4</ele>
        <time>2022-04-09T07:03:11Z</time>
      </trkpt>
      <trkpt lat="41.5581510" lon="1.9170970">
        <ele>247.2</ele>
        <time>2022-04-09T07:03:14Z</time>
      </trkpt>
      <trkpt lat="41.5581900" lon="1.9172250">
        <ele>247.4</ele>
        <time>2022-04-09T07:03:16Z</time>
      </trkpt>
      <trkpt lat="41.5582180" lon="1.9172960">
        <ele>247.6</ele>
        <time>2022-04-09T07:03:17Z</time>
      </trkpt>
      <trkpt lat="41.5583620" lon="1.9175310">
        <ele>248.2</ele>
        <time>2022-04-09T07:03:21Z</time>
      </trkpt>
      <trkpt lat="41.5585650" lon="1.9178360">
        <ele>249.4</ele>
        <time>2022-04-09T07:03:26Z</time>
      </trkpt>
      <trkpt lat="41.5586310" lon="1.9179650">
        <ele>249.4</ele>
        <time>2022-04-09T07:03:28Z</time>
      </trkpt>
      <trkpt lat="41.5588360" lon="1.9184410">
        <ele>249.2</ele>
        <time>2022-04-09T07:03:34Z</time>
      </trkpt>
      <trkpt lat="41.5588490" lon="1.9185120">
        <ele>248.8</ele>
        <time>2022-04-09T07:03:35Z</time>
      </trkpt>
      <trkpt lat="41.5588460" lon="1.9186010">
        <ele>248.4</ele>
        <time>2022-04-09T07:03:36Z</time>
      </trkpt>
      <trkpt lat="41.5588150" lon="1.9186780">
        <ele>248.4</ele>
        <time>2022-04-09T07:03:37Z</time>
      </trkpt>
      <trkpt lat="41.5587740" lon="1.9187400">
        <ele>248.0</ele>
        <time>2022-04-09T07:03:38Z</time>
      </trkpt>
      <trkpt lat="41.5586890" lon="1.9189030">
        <ele>247.8</ele>
        <time>2022-04-09T07:03:40Z</time>
      </trkpt>
      <trkpt lat="41.5586580" lon="1.9190110">
        <ele>247.6</ele>
        <time>2022-04-09T07:03:41Z</time>
      </trkpt>
      <trkpt lat="41.5586490" lon="1.9191330">
        <ele>247.4</ele>
        <time>2022-04-09T07:03:42Z</time>
      </trkpt>
      <trkpt lat="41.5586610" lon="1.9192570">
        <ele>246.6</ele>
        <time>2022-04-09T07:03:43Z</time>
      </trkpt>
      <trkpt lat="41.5587030" lon="1.9193820">
        <ele>246.4</ele>
        <time>2022-04-09T07:03:44Z</time>
      </trkpt>
      <trkpt lat="41.5587610" lon="1.9195010">
        <ele>245.6</ele>
        <time>2022-04-09T07:03:45Z</time>
      </trkpt>
      <trkpt lat="41.5588910" lon="1.9197340">
        <ele>244.4</ele>
        <time>2022-04-09T07:03:47Z</time>
      </trkpt>
      <trkpt lat="41.5589590" lon="1.9198480">
        <ele>243.8</ele>
        <time>2022-04-09T07:03:48Z</time>
      </trkpt>
      <trkpt lat="41.5590330" lon="1.9199530">
        <ele>242.8</ele>
        <time>2022-04-09T07:03:49Z</time>
      </trkpt>
      <trkpt lat="41.5591140" lon="1.9200480">
        <ele>242.0</ele>
        <time>2022-04-09T07:03:50Z</time>
      </trkpt>
      <trkpt lat="41.5591980" lon="1.9201390">
        <ele>241.6</ele>
        <time>2022-04-09T07:03:51Z</time>
      </trkpt>
      <trkpt lat="41.5592810" lon="1.9202390">
        <ele>240.8</ele>
        <time>2022-04-09T07:03:52Z</time>
      </trkpt>
      <trkpt lat="41.5593570" lon="1.9203520">
        <ele>240.4</ele>
        <time>2022-04-09T07:03:53Z</time>
      </trkpt>
      <trkpt lat="41.5594230" lon="1.9204780">
        <ele>239.6</ele>
        <time>2022-04-09T07:03:54Z</time>
      </trkpt>
      <trkpt lat="41.5594770" lon="1.9206140">
        <ele>238.8</ele>
        <time>2022-04-09T07:03:55Z</time>
      </trkpt>
      <trkpt lat="41.5595200" lon="1.9207600">
        <ele>237.6</ele>
        <time>2022-04-09T07:03:56Z</time>
      </trkpt>
      <trkpt lat="41.5595520" lon="1.9209160">
        <ele>236.6</ele>
        <time>2022-04-09T07:03:57Z</time>
      </trkpt>
      <trkpt lat="41.5595790" lon="1.9210690">
        <ele>236.2</ele>
        <time>2022-04-09T07:03:58Z</time>
      </trkpt>
      <trkpt lat="41.5596100" lon="1.9212120">
        <ele>234.8</ele>
        <time>2022-04-09T07:03:59Z</time>
      </trkpt>
      <trkpt lat="41.5596990" lon="1.9214780">
        <ele>233.0</ele>
        <time>2022-04-09T07:04:01Z</time>
      </trkpt>
      <trkpt lat="41.5598080" lon="1.9216920">
        <ele>231.8</ele>
        <time>2022-04-09T07:04:03Z</time>
      </trkpt>
      <trkpt lat="41.5598520" lon="1.9218000">
        <ele>231.2</ele>
        <time>2022-04-09T07:04:04Z</time>
      </trkpt>
      <trkpt lat="41.5598720" lon="1.9219150">
        <ele>230.8</ele>
        <time>2022-04-09T07:04:05Z</time>
      </trkpt>
      <trkpt lat="41.5598580" lon="1.9220320">
        <ele>230.0</ele>
        <time>2022-04-09T07:04:06Z</time>
      </trkpt>
      <trkpt lat="41.5598160" lon="1.9222610">
        <ele>229.0</ele>
        <time>2022-04-09T07:04:08Z</time>
      </trkpt>
      <trkpt lat="41.5597560" lon="1.9225840">
        <ele>227.6</ele>
        <time>2022-04-09T07:04:11Z</time>
      </trkpt>
      <trkpt lat="41.5597090" lon="1.9227850">
        <ele>227.0</ele>
        <time>2022-04-09T07:04:13Z</time>
      </trkpt>
      <trkpt lat="41.5596620" lon="1.9228520">
        <ele>227.0</ele>
        <time>2022-04-09T07:04:14Z</time>
      </trkpt>
      <trkpt lat="41.5596050" lon="1.9228860">
        <ele>226.8</ele>
        <time>2022-04-09T07:04:15Z</time>
      </trkpt>
      <trkpt lat="41.5595410" lon="1.9228880">
        <ele>226.8</ele>
        <time>2022-04-09T07:04:16Z</time>
      </trkpt>
      <trkpt lat="41.5594030" lon="1.9228220">
        <ele>227.0</ele>
        <time>2022-04-09T07:04:19Z</time>
      </trkpt>
      <trkpt lat="41.5593060" lon="1.9227520">
        <ele>227.8</ele>
        <time>2022-04-09T07:04:21Z</time>
      </trkpt>
      <trkpt lat="41.5591610" lon="1.9226510">
        <ele>229.2</ele>
        <time>2022-04-09T07:04:24Z</time>
      </trkpt>
      <trkpt lat="41.5590370" lon="1.9225650">
        <ele>230.6</ele>
        <time>2022-04-09T07:04:27Z</time>
      </trkpt>
      <trkpt lat="41.5589940" lon="1.9225230">
        <ele>230.8</ele>
        <time>2022-04-09T07:04:28Z</time>
      </trkpt>
      <trkpt lat="41.5588870" lon="1.9224220">
        <ele>231.8</ele>
        <time>2022-04-09T07:04:31Z</time>
      </trkpt>
      <trkpt lat="41.5588000" lon="1.9223620">
        <ele>232.4</ele>
        <time>2022-04-09T07:04:33Z</time>
      </trkpt>
      <trkpt lat="41.5587580" lon="1.9223460">
        <ele>233.0</ele>
        <time>2022-04-09T07:04:34Z</time>
      </trkpt>
      <trkpt lat="41.5586870" lon="1.9223600">
        <ele>233.6</ele>
        <time>2022-04-09T07:04:36Z</time>
      </trkpt>
      <trkpt lat="41.5586100" lon="1.9224190">
        <ele>234.4</ele>
        <time>2022-04-09T07:04:38Z</time>
      </trkpt>
      <trkpt lat="41.5585680" lon="1.9224920">
        <ele>234.8</ele>
        <time>2022-04-09T07:04:40Z</time>
      </trkpt>
      <trkpt lat="41.5585320" lon="1.9226450">
        <ele>235.8</ele>
        <time>2022-04-09T07:04:43Z</time>
      </trkpt>
      <trkpt lat="41.5585320" lon="1.9227330">
        <ele>236.6</ele>
        <time>2022-04-09T07:04:45Z</time>
      </trkpt>
      <trkpt lat="41.5585330" lon="1.9227800">
        <ele>236.8</ele>
        <time>2022-04-09T07:04:46Z</time>
      </trkpt>
      <trkpt lat="41.5585330" lon="1.9228350">
        <ele>237.0</ele>
        <time>2022-04-09T07:04:47Z</time>
      </trkpt>
      <trkpt lat="41.5585490" lon="1.9230140">
        <ele>238.0</ele>
        <time>2022-04-09T07:04:51Z</time>
      </trkpt>
      <trkpt lat="41.5585560" lon="1.9230510">
        <ele>238.4</ele>
        <time>2022-04-09T07:04:52Z</time>
      </trkpt>
      <trkpt lat="41.5585930" lon="1.9231830">
        <ele>239.6</ele>
        <time>2022-04-09T07:04:55Z</time>
      </trkpt>
      <trkpt lat="41.5586490" lon="1.9232910">
        <ele>240.2</ele>
        <time>2022-04-09T07:04:58Z</time>
      </trkpt>
      <trkpt lat="41.5587100" lon="1.9233860">
        <ele>240.8</ele>
        <time>2022-04-09T07:05:01Z</time>
      </trkpt>
      <trkpt lat="41.5587600" lon="1.9234490">
        <ele>241.4</ele>
        <time>2022-04-09T07:05:03Z</time>
      </trkpt>
      <trkpt lat="41.5587850" lon="1.9234780">
        <ele>241.8</ele>
        <time>2022-04-09T07:05:04Z</time>
      </trkpt>
      <trkpt lat="41.5588850" lon="1.9235820">
        <ele>242.8</ele>
        <time>2022-04-09T07:05:08Z</time>
      </trkpt>
      <trkpt lat="41.5589380" lon="1.9236480">
        <ele>243.4</ele>
        <time>2022-04-09T07:05:10Z</time>
      </trkpt>
      <trkpt lat="41.5589890" lon="1.9237190">
        <ele>243.8</ele>
        <time>2022-04-09T07:05:12Z</time>
      </trkpt>
      <trkpt lat="41.5590910" lon="1.9238500">
        <ele>245.0</ele>
        <time>2022-04-09T07:05:16Z</time>
      </trkpt>
      <trkpt lat="41.5591410" lon="1.9239100">
        <ele>245.2</ele>
        <time>2022-04-09T07:05:18Z</time>
      </trkpt>
      <trkpt lat="41.5592390" lon="1.9240280">
        <ele>246.0</ele>
        <time>2022-04-09T07:05:22Z</time>
      </trkpt>
      <trkpt lat="41.5593610" lon="1.9241730">
        <ele>247.2</ele>
        <time>2022-04-09T07:05:27Z</time>
      </trkpt>
      <trkpt lat="41.5594570" lon="1.9242820">
        <ele>248.0</ele>
        <time>2022-04-09T07:05:31Z</time>
      </trkpt>
      <trkpt lat="41.5594720" lon="1.9243020">
        <ele>248.4</ele>
        <time>2022-04-09T07:05:32Z</time>
      </trkpt>
      <trkpt lat="41.5595740" lon="1.9244200">
        <ele>249.4</ele>
        <time>2022-04-09T07:05:36Z</time>
      </trkpt>
      <trkpt lat="41.5596060" lon="1.9244600">
        <ele>249.8</ele>
        <time>2022-04-09T07:05:37Z</time>
      </trkpt>
      <trkpt lat="41.5596980" lon="1.9245830">
        <ele>250.6</ele>
        <time>2022-04-09T07:05:41Z</time>
      </trkpt>
      <trkpt lat="41.5597740" lon="1.9246810">
        <ele>251.6</ele>
        <time>2022-04-09T07:05:44Z</time>
      </trkpt>
      <trkpt lat="41.5598170" lon="1.9247300">
        <ele>252.0</ele>
        <time>2022-04-09T07:05:46Z</time>
      </trkpt>
      <trkpt lat="41.5598650" lon="1.9247830">
        <ele>252.6</ele>
        <time>2022-04-09T07:05:48Z</time>
      </trkpt>
      <trkpt lat="41.5599890" lon="1.9249160">
        <ele>253.6</ele>
        <time>2022-04-09T07:05:53Z</time>
      </trkpt>
      <trkpt lat="41.5600370" lon="1.9249670">
        <ele>254.2</ele>
        <time>2022-04-09T07:05:55Z</time>
      </trkpt>
      <trkpt lat="41.5601230" lon="1.9250650">
        <ele>254.6</ele>
        <time>2022-04-09T07:05:59Z</time>
      </trkpt>
      <trkpt lat="41.5602130" lon="1.9252010">
        <ele>255.6</ele>
        <time>2022-04-09T07:06:03Z</time>
      </trkpt>
      <trkpt lat="41.5602820" lon="1.9253340">
        <ele>256.8</ele>
        <time>2022-04-09T07:06:07Z</time>
      </trkpt>
      <trkpt lat="41.5602900" lon="1.9253600">
        <ele>257.0</ele>
        <time>2022-04-09T07:06:08Z</time>
      </trkpt>
      <trkpt lat="41.5603110" lon="1.9255440">
        <ele>258.0</ele>
        <time>2022-04-09T07:06:12Z</time>
      </trkpt>
      <trkpt lat="41.5603020" lon="1.9255780">
        <ele>258.0</ele>
        <time>2022-04-09T07:06:13Z</time>
      </trkpt>
      <trkpt lat="41.5602800" lon="1.9256200">
        <ele>258.2</ele>
        <time>2022-04-09T07:06:14Z</time>
      </trkpt>
      <trkpt lat="41.5602180" lon="1.9256790">
        <ele>258.6</ele>
        <time>2022-04-09T07:06:17Z</time>
      </trkpt>
      <trkpt lat="41.5601970" lon="1.9256830">
        <ele>259.0</ele>
        <time>2022-04-09T07:06:18Z</time>
      </trkpt>
      <trkpt lat="41.5601200" lon="1.9256640">
        <ele>260.2</ele>
        <time>2022-04-09T07:06:22Z</time>
      </trkpt>
      <trkpt lat="41.5600520" lon="1.9256570">
        <ele>261.4</ele>
        <time>2022-04-09T07:06:25Z</time>
      </trkpt>
      <trkpt lat="41.5599730" lon="1.9256710">
        <ele>262.4</ele>
        <time>2022-04-09T07:06:28Z</time>
      </trkpt>
      <trkpt lat="41.5599380" lon="1.9256800">
        <ele>262.6</ele>
        <time>2022-04-09T07:06:29Z</time>
      </trkpt>
      <trkpt lat="41.5598350" lon="1.9257320">
        <ele>263.6</ele>
        <time>2022-04-09T07:06:33Z</time>
      </trkpt>
      <trkpt lat="41.5598110" lon="1.9257470">
        <ele>263.8</ele>
        <time>2022-04-09T07:06:34Z</time>
      </trkpt>
      <trkpt lat="41.5597180" lon="1.9257980">
        <ele>264.8</ele>
        <time>2022-04-09T07:06:38Z</time>
      </trkpt>
      <trkpt lat="41.5596690" lon="1.9258090">
        <ele>265.2</ele>
        <time>2022-04-09T07:06:40Z</time>
      </trkpt>
      <trkpt lat="41.5595860" lon="1.9258050">
        <ele>265.8</ele>
        <time>2022-04-09T07:06:43Z</time>
      </trkpt>
      <trkpt lat="41.5594450" lon="1.9258030">
        <ele>266.8</ele>
        <time>2022-04-09T07:06:47Z</time>
      </trkpt>
      <trkpt lat="41.5592620" lon="1.9257860">
        <ele>268.0</ele>
        <time>2022-04-09T07:06:52Z</time>
      </trkpt>
      <trkpt lat="41.5591600" lon="1.9258110">
        <ele>268.4</ele>
        <time>2022-04-09T07:06:55Z</time>
      </trkpt>
      <trkpt lat="41.5591030" lon="1.9258520">
        <ele>268.8</ele>
        <time>2022-04-09T07:06:57Z</time>
      </trkpt>
      <trkpt lat="41.5590600" lon="1.9259520">
        <ele>269.6</ele>
        <time>2022-04-09T07:07:00Z</time>
      </trkpt>
      <trkpt lat="41.5590370" lon="1.9260440">
        <ele>270.0</ele>
        <time>2022-04-09T07:07:02Z</time>
      </trkpt>
      <trkpt lat="41.5590370" lon="1.9261760">
        <ele>270.6</ele>
        <time>2022-04-09T07:07:05Z</time>
      </trkpt>
      <trkpt lat="41.5590430" lon="1.9262490">
        <ele>271.4</ele>
        <time>2022-04-09T07:07:07Z</time>
      </trkpt>
      <trkpt lat="41.5590370" lon="1.9265050">
        <ele>272.6</ele>
        <time>2022-04-09T07:07:13Z</time>
      </trkpt>
      <trkpt lat="41.5589620" lon="1.9266710">
        <ele>273.6</ele>
        <time>2022-04-09T07:07:18Z</time>
      </trkpt>
      <trkpt lat="41.5588860" lon="1.9267620">
        <ele>274.8</ele>
        <time>2022-04-09T07:07:22Z</time>
      </trkpt>
      <trkpt lat="41.5588240" lon="1.9268420">
        <ele>275.8</ele>
        <time>2022-04-09T07:07:25Z</time>
      </trkpt>
      <trkpt lat="41.5587390" lon="1.9270270">
        <ele>276.8</ele>
        <time>2022-04-09T07:07:30Z</time>
      </trkpt>
      <trkpt lat="41.5587270" lon="1.9270790">
        <ele>277.0</ele>
        <time>2022-04-09T07:07:31Z</time>
      </trkpt>
      <trkpt lat="41.5586320" lon="1.9274390">
        <ele>277.6</ele>
        <time>2022-04-09T07:07:39Z</time>
      </trkpt>
      <trkpt lat="41.5586030" lon="1.9277670">
        <ele>278.0</ele>
        <time>2022-04-09T07:07:45Z</time>
      </trkpt>
      <trkpt lat="41.5586120" lon="1.9278180">
        <ele>278.0</ele>
        <time>2022-04-09T07:07:46Z</time>
      </trkpt>
      <trkpt lat="41.5586340" lon="1.9279950">
        <ele>278.0</ele>
        <time>2022-04-09T07:07:49Z</time>
      </trkpt>
      <trkpt lat="41.5586110" lon="1.9281910">
        <ele>278.0</ele>
        <time>2022-04-09T07:07:52Z</time>
      </trkpt>
      <trkpt lat="41.5585920" lon="1.9283570">
        <ele>278.0</ele>
        <time>2022-04-09T07:07:54Z</time>
      </trkpt>
      <trkpt lat="41.5586090" lon="1.9285150">
        <ele>277.8</ele>
        <time>2022-04-09T07:07:56Z</time>
      </trkpt>
      <trkpt lat="41.5586780" lon="1.9286530">
        <ele>277.4</ele>
        <time>2022-04-09T07:07:58Z</time>
      </trkpt>
      <trkpt lat="41.5587570" lon="1.9287850">
        <ele>277.0</ele>
        <time>2022-04-09T07:08:00Z</time>
      </trkpt>
      <trkpt lat="41.5587870" lon="1.9288360">
        <ele>276.8</ele>
        <time>2022-04-09T07:08:01Z</time>
      </trkpt>
      <trkpt lat="41.5589450" lon="1.9291040">
        <ele>276.0</ele>
        <time>2022-04-09T07:08:05Z</time>
      </trkpt>
      <trkpt lat="41.5589980" lon="1.9291670">
        <ele>275.8</ele>
        <time>2022-04-09T07:08:06Z</time>
      </trkpt>
      <trkpt lat="41.5590580" lon="1.9292240">
        <ele>275.6</ele>
        <time>2022-04-09T07:08:07Z</time>
      </trkpt>
      <trkpt lat="41.5591770" lon="1.9293140">
        <ele>275.4</ele>
        <time>2022-04-09T07:08:09Z</time>
      </trkpt>
      <trkpt lat="41.5592930" lon="1.9294140">
        <ele>275.2</ele>
        <time>2022-04-09T07:08:11Z</time>
      </trkpt>
      <trkpt lat="41.5593390" lon="1.9295100">
        <ele>274.6</ele>
        <time>2022-04-09T07:08:12Z</time>
      </trkpt>
      <trkpt lat="41.5593480" lon="1.9295860">
        <ele>274.4</ele>
        <time>2022-04-09T07:08:13Z</time>
      </trkpt>
      <trkpt lat="41.5593460" lon="1.9296840">
        <ele>274.4</ele>
        <time>2022-04-09T07:08:14Z</time>
      </trkpt>
      <trkpt lat="41.5592550" lon="1.9298540">
        <ele>274.0</ele>
        <time>2022-04-09T07:08:16Z</time>
      </trkpt>
      <trkpt lat="41.5591400" lon="1.9299550">
        <ele>273.6</ele>
        <time>2022-04-09T07:08:18Z</time>
      </trkpt>
      <trkpt lat="41.5588500" lon="1.9302360">
        <ele>272.6</ele>
        <time>2022-04-09T07:08:23Z</time>
      </trkpt>
      <trkpt lat="41.5587960" lon="1.9303240">
        <ele>272.6</ele>
        <time>2022-04-09T07:08:24Z</time>
      </trkpt>
      <trkpt lat="41.5587020" lon="1.9305830">
        <ele>271.8</ele>
        <time>2022-04-09T07:08:27Z</time>
      </trkpt>
      <trkpt lat="41.5586850" lon="1.9306700">
        <ele>271.4</ele>
        <time>2022-04-09T07:08:28Z</time>
      </trkpt>
      <trkpt lat="41.5586710" lon="1.9307820">
        <ele>271.2</ele>
        <time>2022-04-09T07:08:29Z</time>
      </trkpt>
      <trkpt lat="41.5587090" lon="1.9310170">
        <ele>270.6</ele>
        <time>2022-04-09T07:08:31Z</time>
      </trkpt>
      <trkpt lat="41.5587490" lon="1.9310930">
        <ele>270.4</ele>
        <time>2022-04-09T07:08:32Z</time>
      </trkpt>
      <trkpt lat="41.5588600" lon="1.9313180">
        <ele>269.6</ele>
        <time>2022-04-09T07:08:34Z</time>
      </trkpt>
      <trkpt lat="41.5588940" lon="1.9314490">
        <ele>269.0</ele>
        <time>2022-04-09T07:08:35Z</time>
      </trkpt>
      <trkpt lat="41.5589070" lon="1.9315790">
        <ele>268.6</ele>
        <time>2022-04-09T07:08:36Z</time>
      </trkpt>
      <trkpt lat="41.5588870" lon="1.9316730">
        <ele>268.4</ele>
        <time>2022-04-09T07:08:37Z</time>
      </trkpt>
      <trkpt lat="41.5588290" lon="1.9317970">
        <ele>267.8</ele>
        <time>2022-04-09T07:08:38Z</time>
      </trkpt>
      <trkpt lat="41.5587600" lon="1.9318890">
        <ele>267.4</ele>
        <time>2022-04-09T07:08:39Z</time>
      </trkpt>
      <trkpt lat="41.5586750" lon="1.9319760">
        <ele>266.8</ele>
        <time>2022-04-09T07:08:40Z</time>
      </trkpt>
      <trkpt lat="41.5586020" lon="1.9320310">
        <ele>266.6</ele>
        <time>2022-04-09T07:08:41Z</time>
      </trkpt>
      <trkpt lat="41.5585130" lon="1.9320900">
        <ele>265.6</ele>
        <time>2022-04-09T07:08:42Z</time>
      </trkpt>
      <trkpt lat="41.5584240" lon="1.9321490">
        <ele>265.0</ele>
        <time>2022-04-09T07:08:43Z</time>
      </trkpt>
      <trkpt lat="41.5581590" lon="1.9323320">
        <ele>263.8</ele>
        <time>2022-04-09T07:08:46Z</time>
      </trkpt>
      <trkpt lat="41.5580110" lon="1.9324350">
        <ele>262.8</ele>
        <time>2022-04-09T07:08:48Z</time>
      </trkpt>
      <trkpt lat="41.5579180" lon="1.9324890">
        <ele>262.6</ele>
        <time>2022-04-09T07:08:49Z</time>
      </trkpt>
      <trkpt lat="41.5576250" lon="1.9326560">
        <ele>262.2</ele>
        <time>2022-04-09T07:08:53Z</time>
      </trkpt>
      <trkpt lat="41.5571580" lon="1.9330110">
        <ele>262.0</ele>
        <time>2022-04-09T07:09:00Z</time>
      </trkpt>
      <trkpt lat="41.5568280" lon="1.9332430">
        <ele>261.6</ele>
        <time>2022-04-09T07:09:05Z</time>
      </trkpt>
      <trkpt lat="41.5566370" lon="1.9333880">
        <ele>261.6</ele>
        <time>2022-04-09T07:09:08Z</time>
      </trkpt>
      <trkpt lat="41.5563290" lon="1.9335990">
        <ele>260.6</ele>
        <time>2022-04-09T07:09:12Z</time>
      </trkpt>
      <trkpt lat="41.5562420" lon="1.9336530">
        <ele>260.2</ele>
        <time>2022-04-09T07:09:13Z</time>
      </trkpt>
      <trkpt lat="41.5559660" lon="1.9338050">
        <ele>258.8</ele>
        <time>2022-04-09T07:09:16Z</time>
      </trkpt>
      <trkpt lat="41.5558690" lon="1.9338530">
        <ele>258.2</ele>
        <time>2022-04-09T07:09:17Z</time>
      </trkpt>
      <trkpt lat="41.5557680" lon="1.9339030">
        <ele>257.4</ele>
        <time>2022-04-09T07:09:18Z</time>
      </trkpt>
      <trkpt lat="41.5554310" lon="1.9340520">
        <ele>255.8</ele>
        <time>2022-04-09T07:09:21Z</time>
      </trkpt>
      <trkpt lat="41.5553410" lon="1.9340850">
        <ele>254.8</ele>
        <time>2022-04-09T07:09:22Z</time>
      </trkpt>
      <trkpt lat="41.5552360" lon="1.9341140">
        <ele>254.2</ele>
        <time>2022-04-09T07:09:23Z</time>
      </trkpt>
      <trkpt lat="41.5551330" lon="1.9341220">
        <ele>253.2</ele>
        <time>2022-04-09T07:09:24Z</time>
      </trkpt>
      <trkpt lat="41.5550310" lon="1.9341020">
        <ele>252.2</ele>
        <time>2022-04-09T07:09:25Z</time>
      </trkpt>
      <trkpt lat="41.5548820" lon="1.9339580">
        <ele>250.6</ele>
        <time>2022-04-09T07:09:27Z</time>
      </trkpt>
      <trkpt lat="41.5547170" lon="1.9338560">
        <ele>249.2</ele>
        <time>2022-04-09T07:09:29Z</time>
      </trkpt>
      <trkpt lat="41.5546270" lon="1.9338600">
        <ele>248.6</ele>
        <time>2022-04-09T07:09:30Z</time>
      </trkpt>
      <trkpt lat="41.5545490" lon="1.9339180">
        <ele>248.2</ele>
        <time>2022-04-09T07:09:31Z</time>
      </trkpt>
      <trkpt lat="41.5544910" lon="1.9340180">
        <ele>247.6</ele>
        <time>2022-04-09T07:09:32Z</time>
      </trkpt>
      <trkpt lat="41.5544450" lon="1.9341310">
        <ele>247.2</ele>
        <time>2022-04-09T07:09:33Z</time>
      </trkpt>
      <trkpt lat="41.5544000" lon="1.9342490">
        <ele>246.2</ele>
        <time>2022-04-09T07:09:34Z</time>
      </trkpt>
      <trkpt lat="41.5543010" lon="1.9344960">
        <ele>245.2</ele>
        <time>2022-04-09T07:09:36Z</time>
      </trkpt>
      <trkpt lat="41.5542000" lon="1.9347580">
        <ele>243.8</ele>
        <time>2022-04-09T07:09:38Z</time>
      </trkpt>
      <trkpt lat="41.5541400" lon="1.9348850">
        <ele>243.2</ele>
        <time>2022-04-09T07:09:39Z</time>
      </trkpt>
      <trkpt lat="41.5540640" lon="1.9350040">
        <ele>242.2</ele>
        <time>2022-04-09T07:09:40Z</time>
      </trkpt>
      <trkpt lat="41.5539740" lon="1.9351110">
        <ele>241.2</ele>
        <time>2022-04-09T07:09:41Z</time>
      </trkpt>
      <trkpt lat="41.5537670" lon="1.9352800">
        <ele>239.8</ele>
        <time>2022-04-09T07:09:43Z</time>
      </trkpt>
      <trkpt lat="41.5534620" lon="1.9355190">
        <ele>237.8</ele>
        <time>2022-04-09T07:09:46Z</time>
      </trkpt>
      <trkpt lat="41.5533660" lon="1.9355980">
        <ele>236.6</ele>
        <time>2022-04-09T07:09:47Z</time>
      </trkpt>
      <trkpt lat="41.5532700" lon="1.9356640">
        <ele>235.8</ele>
        <time>2022-04-09T07:09:48Z</time>
      </trkpt>
      <trkpt lat="41.5531650" lon="1.9357010">
        <ele>235.0</ele>
        <time>2022-04-09T07:09:49Z</time>
      </trkpt>
      <trkpt lat="41.5530570" lon="1.9357100">
        <ele>233.4</ele>
        <time>2022-04-09T07:09:50Z</time>
      </trkpt>
      <trkpt lat="41.5528680" lon="1.9357190">
        <ele>232.2</ele>
        <time>2022-04-09T07:09:52Z</time>
      </trkpt>
      <trkpt lat="41.5527810" lon="1.9357690">
        <ele>231.8</ele>
        <time>2022-04-09T07:09:53Z</time>
      </trkpt>
      <trkpt lat="41.5527100" lon="1.9358600">
        <ele>231.2</ele>
        <time>2022-04-09T07:09:54Z</time>
      </trkpt>
      <trkpt lat="41.5526540" lon="1.9359740">
        <ele>230.2</ele>
        <time>2022-04-09T07:09:55Z</time>
      </trkpt>
      <trkpt lat="41.5526170" lon="1.9361140">
        <ele>229.4</ele>
        <time>2022-04-09T07:09:56Z</time>
      </trkpt>
      <trkpt lat="41.5525960" lon="1.9362780">
        <ele>228.0</ele>
        <time>2022-04-09T07:09:57Z</time>
      </trkpt>
      <trkpt lat="41.5525350" lon="1.9365890">
        <ele>226.4</ele>
        <time>2022-04-09T07:09:59Z</time>
      </trkpt>
      <trkpt lat="41.5524670" lon="1.9366970">
        <ele>226.0</ele>
        <time>2022-04-09T07:10:00Z</time>
      </trkpt>
      <trkpt lat="41.5523650" lon="1.9367860">
        <ele>225.0</ele>
        <time>2022-04-09T07:10:01Z</time>
      </trkpt>
      <trkpt lat="41.5522630" lon="1.9367860">
        <ele>224.0</ele>
        <time>2022-04-09T07:10:02Z</time>
      </trkpt>
      <trkpt lat="41.5521600" lon="1.9367900">
        <ele>223.2</ele>
        <time>2022-04-09T07:10:03Z</time>
      </trkpt>
      <trkpt lat="41.5520460" lon="1.9368030">
        <ele>221.8</ele>
        <time>2022-04-09T07:10:04Z</time>
      </trkpt>
      <trkpt lat="41.5519330" lon="1.9368270">
        <ele>221.4</ele>
        <time>2022-04-09T07:10:05Z</time>
      </trkpt>
      <trkpt lat="41.5518130" lon="1.9368530">
        <ele>220.6</ele>
        <time>2022-04-09T07:10:06Z</time>
      </trkpt>
      <trkpt lat="41.5515690" lon="1.9369000">
        <ele>218.8</ele>
        <time>2022-04-09T07:10:08Z</time>
      </trkpt>
      <trkpt lat="41.5514440" lon="1.9369030">
        <ele>218.0</ele>
        <time>2022-04-09T07:10:09Z</time>
      </trkpt>
      <trkpt lat="41.5512960" lon="1.9369030">
        <ele>217.6</ele>
        <time>2022-04-09T07:10:10Z</time>
      </trkpt>
      <trkpt lat="41.5510710" lon="1.9369320">
        <ele>216.0</ele>
        <time>2022-04-09T07:10:12Z</time>
      </trkpt>
      <trkpt lat="41.5509460" lon="1.9369640">
        <ele>214.8</ele>
        <time>2022-04-09T07:10:13Z</time>
      </trkpt>
      <trkpt lat="41.5507060" lon="1.9370530">
        <ele>213.4</ele>
        <time>2022-04-09T07:10:15Z</time>
      </trkpt>
      <trkpt lat="41.5505970" lon="1.9371150">
        <ele>211.8</ele>
        <time>2022-04-09T07:10:16Z</time>
      </trkpt>
      <trkpt lat="41.5505050" lon="1.9371990">
        <ele>211.0</ele>
        <time>2022-04-09T07:10:17Z</time>
      </trkpt>
      <trkpt lat="41.5504340" lon="1.9373000">
        <ele>209.6</ele>
        <time>2022-04-09T07:10:18Z</time>
      </trkpt>
      <trkpt lat="41.5503780" lon="1.9374260">
        <ele>209.2</ele>
        <time>2022-04-09T07:10:19Z</time>
      </trkpt>
      <trkpt lat="41.5503450" lon="1.9375690">
        <ele>208.2</ele>
        <time>2022-04-09T07:10:20Z</time>
      </trkpt>
      <trkpt lat="41.5503260" lon="1.9378740">
        <ele>207.0</ele>
        <time>2022-04-09T07:10:22Z</time>
      </trkpt>
      <trkpt lat="41.5503280" lon="1.9380240">
        <ele>205.8</ele>
        <time>2022-04-09T07:10:23Z</time>
      </trkpt>
      <trkpt lat="41.5503370" lon="1.9382950">
        <ele>204.2</ele>
        <time>2022-04-09T07:10:25Z</time>
      </trkpt>
      <trkpt lat="41.5502850" lon="1.9385430">
        <ele>203.2</ele>
        <time>2022-04-09T07:10:27Z</time>
      </trkpt>
      <trkpt lat="41.5502530" lon="1.9386170">
        <ele>202.8</ele>
        <time>2022-04-09T07:10:28Z</time>
      </trkpt>
      <trkpt lat="41.5502100" lon="1.9387240">
        <ele>202.2</ele>
        <time>2022-04-09T07:10:29Z</time>
      </trkpt>
      <trkpt lat="41.5501610" lon="1.9388050">
        <ele>201.6</ele>
        <time>2022-04-09T07:10:30Z</time>
      </trkpt>
      <trkpt lat="41.5500250" lon="1.9389630">
        <ele>201.0</ele>
        <time>2022-04-09T07:10:32Z</time>
      </trkpt>
      <trkpt lat="41.5499130" lon="1.9391560">
        <ele>199.8</ele>
        <time>2022-04-09T07:10:34Z</time>
      </trkpt>
      <trkpt lat="41.5498900" lon="1.9392600">
        <ele>199.4</ele>
        <time>2022-04-09T07:10:35Z</time>
      </trkpt>
      <trkpt lat="41.5499000" lon="1.9393680">
        <ele>198.8</ele>
        <time>2022-04-09T07:10:36Z</time>
      </trkpt>
      <trkpt lat="41.5499390" lon="1.9394760">
        <ele>197.8</ele>
        <time>2022-04-09T07:10:37Z</time>
      </trkpt>
      <trkpt lat="41.5499950" lon="1.9395850">
        <ele>197.4</ele>
        <time>2022-04-09T07:10:38Z</time>
      </trkpt>
      <trkpt lat="41.5501010" lon="1.9397950">
        <ele>196.2</ele>
        <time>2022-04-09T07:10:40Z</time>
      </trkpt>
      <trkpt lat="41.5501810" lon="1.9399400">
        <ele>195.0</ele>
        <time>2022-04-09T07:10:41Z</time>
      </trkpt>
      <trkpt lat="41.5503130" lon="1.9401750">
        <ele>192.6</ele>
        <time>2022-04-09T07:10:43Z</time>
      </trkpt>
      <trkpt lat="41.5503780" lon="1.9402870">
        <ele>191.6</ele>
        <time>2022-04-09T07:10:44Z</time>
      </trkpt>
      <trkpt lat="41.5504890" lon="1.9404730">
        <ele>190.2</ele>
        <time>2022-04-09T07:10:46Z</time>
      </trkpt>
      <trkpt lat="41.5505480" lon="1.9405750">
        <ele>190.0</ele>
        <time>2022-04-09T07:10:47Z</time>
      </trkpt>
      <trkpt lat="41.5506640" lon="1.9407760">
        <ele>189.0</ele>
        <time>2022-04-09T07:10:49Z</time>
      </trkpt>
      <trkpt lat="41.5508190" lon="1.9410640">
        <ele>188.0</ele>
        <time>2022-04-09T07:10:52Z</time>
      </trkpt>
      <trkpt lat="41.5509170" lon="1.9412380">
        <ele>188.0</ele>
        <time>2022-04-09T07:10:54Z</time>
      </trkpt>
      <trkpt lat="41.5511050" lon="1.9415750">
        <ele>188.0</ele>
        <time>2022-04-09T07:10:58Z</time>
      </trkpt>
      <trkpt lat="41.5512040" lon="1.9417270">
        <ele>188.4</ele>
        <time>2022-04-09T07:11:00Z</time>
      </trkpt>
      <trkpt lat="41.5513160" lon="1.9418500">
        <ele>188.4</ele>
        <time>2022-04-09T07:11:02Z</time>
      </trkpt>
      <trkpt lat="41.5515400" lon="1.9420450">
        <ele>189.0</ele>
        <time>2022-04-09T07:11:06Z</time>
      </trkpt>
      <trkpt lat="41.5515960" lon="1.9420880">
        <ele>189.6</ele>
        <time>2022-04-09T07:11:07Z</time>
      </trkpt>
      <trkpt lat="41.5517060" lon="1.9421770">
        <ele>190.2</ele>
        <time>2022-04-09T07:11:09Z</time>
      </trkpt>
      <trkpt lat="41.5518030" lon="1.9422800">
        <ele>190.8</ele>
        <time>2022-04-09T07:11:11Z</time>
      </trkpt>
      <trkpt lat="41.5518840" lon="1.9424010">
        <ele>191.2</ele>
        <time>2022-04-09T07:11:13Z</time>
      </trkpt>
      <trkpt lat="41.5520040" lon="1.9426630">
        <ele>192.4</ele>
        <time>2022-04-09T07:11:17Z</time>
      </trkpt>
      <trkpt lat="41.5520290" lon="1.9427340">
        <ele>192.8</ele>
        <time>2022-04-09T07:11:18Z</time>
      </trkpt>
      <trkpt lat="41.5520790" lon="1.9428720">
        <ele>193.6</ele>
        <time>2022-04-09T07:11:20Z</time>
      </trkpt>
      <trkpt lat="41.5521900" lon="1.9432050">
        <ele>194.8</ele>
        <time>2022-04-09T07:11:25Z</time>
      </trkpt>
      <trkpt lat="41.5522300" lon="1.9433330">
        <ele>195.2</ele>
        <time>2022-04-09T07:11:27Z</time>
      </trkpt>
      <trkpt lat="41.5522920" lon="1.9435280">
        <ele>196.0</ele>
        <time>2022-04-09T07:11:30Z</time>
      </trkpt>
      <trkpt lat="41.5523580" lon="1.9437890">
        <ele>197.0</ele>
        <time>2022-04-09T07:11:34Z</time>
      </trkpt>
      <trkpt lat="41.5524070" lon="1.9441080">
        <ele>198.4</ele>
        <time>2022-04-09T07:11:39Z</time>
      </trkpt>
      <trkpt lat="41.5524160" lon="1.9442280">
        <ele>198.8</ele>
        <time>2022-04-09T07:11:41Z</time>
      </trkpt>
      <trkpt lat="41.5524270" lon="1.9443470">
        <ele>199.6</ele>
        <time>2022-04-09T07:11:43Z</time>
      </trkpt>
      <trkpt lat="41.5524470" lon="1.9445990">
        <ele>200.6</ele>
        <time>2022-04-09T07:11:47Z</time>
      </trkpt>
      <trkpt lat="41.5524680" lon="1.9448020">
        <ele>201.0</ele>
        <time>2022-04-09T07:11:50Z</time>
      </trkpt>
      <trkpt lat="41.5525190" lon="1.9452160">
        <ele>201.0</ele>
        <time>2022-04-09T07:11:56Z</time>
      </trkpt>
      <trkpt lat="41.5525320" lon="1.9452820">
        <ele>201.0</ele>
        <time>2022-04-09T07:11:57Z</time>
      </trkpt>
      <trkpt lat="41.5526930" lon="1.9457120">
        <ele>201.4</ele>
        <time>2022-04-09T07:12:04Z</time>
      </trkpt>
      <trkpt lat="41.5527810" lon="1.9458820">
        <ele>201.6</ele>
        <time>2022-04-09T07:12:07Z</time>
      </trkpt>
      <trkpt lat="41.5529290" lon="1.9461620">
        <ele>202.0</ele>
        <time>2022-04-09T07:12:12Z</time>
      </trkpt>
      <trkpt lat="41.5531130" lon="1.9465130">
        <ele>202.6</ele>
        <time>2022-04-09T07:12:18Z</time>
      </trkpt>
      <trkpt lat="41.5532540" lon="1.9467890">
        <ele>203.2</ele>
        <time>2022-04-09T07:12:23Z</time>
      </trkpt>
      <trkpt lat="41.5533440" lon="1.9469300">
        <ele>203.8</ele>
        <time>2022-04-09T07:12:26Z</time>
      </trkpt>
      <trkpt lat="41.5533890" lon="1.9469830">
        <ele>204.0</ele>
        <time>2022-04-09T07:12:27Z</time>
      </trkpt>
      <trkpt lat="41.5534730" lon="1.9470510">
        <ele>204.2</ele>
        <time>2022-04-09T07:12:29Z</time>
      </trkpt>
      <trkpt lat="41.5535560" lon="1.9470900">
        <ele>204.4</ele>
        <time>2022-04-09T07:12:31Z</time>
      </trkpt>
      <trkpt lat="41.5536560" lon="1.9471100">
        <ele>205.0</ele>
        <time>2022-04-09T07:12:33Z</time>
      </trkpt>
      <trkpt lat="41.5537000" lon="1.9471190">
        <ele>205.2</ele>
        <time>2022-04-09T07:12:34Z</time>
      </trkpt>
      <trkpt lat="41.5538670" lon="1.9471770">
        <ele>206.0</ele>
        <time>2022-04-09T07:12:38Z</time>
      </trkpt>
      <trkpt lat="41.5539020" lon="1.9472010">
        <ele>206.2</ele>
        <time>2022-04-09T07:12:39Z</time>
      </trkpt>
      <trkpt lat="41.5539350" lon="1.9472320">
        <ele>206.6</ele>
        <time>2022-04-09T07:12:40Z</time>
      </trkpt>
      <trkpt lat="41.5539920" lon="1.9473020">
        <ele>207.4</ele>
        <time>2022-04-09T07:12:42Z</time>
      </trkpt>
      <trkpt lat="41.5540560" lon="1.9474240">
        <ele>208.2</ele>
        <time>2022-04-09T07:12:45Z</time>
      </trkpt>
      <trkpt lat="41.5540760" lon="1.9474650">
        <ele>208.4</ele>
        <time>2022-04-09T07:12:46Z</time>
      </trkpt>
      <trkpt lat="41.5541460" lon="1.9476290">
        <ele>209.6</ele>
        <time>2022-04-09T07:12:50Z</time>
      </trkpt>
      <trkpt lat="41.5542030" lon="1.9477570">
        <ele>210.4</ele>
        <time>2022-04-09T07:12:53Z</time>
      </trkpt>
      <trkpt lat="41.5542210" lon="1.9478000">
        <ele>210.6</ele>
        <time>2022-04-09T07:12:54Z</time>
      </trkpt>
      <trkpt lat="41.5542890" lon="1.9479670">
        <ele>211.8</ele>
        <time>2022-04-09T07:12:58Z</time>
      </trkpt>
      <trkpt lat="41.5543700" lon="1.9481640">
        <ele>212.8</ele>
        <time>2022-04-09T07:13:03Z</time>
      </trkpt>
      <trkpt lat="41.5544300" lon="1.9483260">
        <ele>213.8</ele>
        <time>2022-04-09T07:13:07Z</time>
      </trkpt>
      <trkpt lat="41.5544760" lon="1.9484540">
        <ele>215.0</ele>
        <time>2022-04-09T07:13:10Z</time>
      </trkpt>
      <trkpt lat="41.5544920" lon="1.9484940">
        <ele>215.0</ele>
        <time>2022-04-09T07:13:11Z</time>
      </trkpt>
      <trkpt lat="41.5545370" lon="1.9486620">
        <ele>216.0</ele>
        <time>2022-04-09T07:13:15Z</time>
      </trkpt>
      <trkpt lat="41.5545680" lon="1.9488330">
        <ele>217.0</ele>
        <time>2022-04-09T07:13:19Z</time>
      </trkpt>
      <trkpt lat="41.5545710" lon="1.9488770">
        <ele>217.0</ele>
        <time>2022-04-09T07:13:20Z</time>
      </trkpt>
      <trkpt lat="41.5545630" lon="1.9491180">
        <ele>218.2</ele>
        <time>2022-04-09T07:13:26Z</time>
      </trkpt>
      <trkpt lat="41.5545610" lon="1.9491590">
        <ele>218.2</ele>
        <time>2022-04-09T07:13:27Z</time>
      </trkpt>
      <trkpt lat="41.5545500" lon="1.9492790">
        <ele>219.4</ele>
        <time>2022-04-09T07:13:30Z</time>
      </trkpt>
      <trkpt lat="41.5545540" lon="1.9494440">
        <ele>220.0</ele>
        <time>2022-04-09T07:13:34Z</time>
      </trkpt>
      <trkpt lat="41.5545510" lon="1.9495320">
        <ele>220.4</ele>
        <time>2022-04-09T07:13:36Z</time>
      </trkpt>
      <trkpt lat="41.5545510" lon="1.9496170">
        <ele>221.4</ele>
        <time>2022-04-09T07:13:38Z</time>
      </trkpt>
      <trkpt lat="41.5545510" lon="1.9496620">
        <ele>221.6</ele>
        <time>2022-04-09T07:13:39Z</time>
      </trkpt>
      <trkpt lat="41.5545580" lon="1.9498690">
        <ele>222.4</ele>
        <time>2022-04-09T07:13:44Z</time>
      </trkpt>
      <trkpt lat="41.5545680" lon="1.9500360">
        <ele>223.2</ele>
        <time>2022-04-09T07:13:48Z</time>
      </trkpt>
      <trkpt lat="41.5545750" lon="1.9500740">
        <ele>223.4</ele>
        <time>2022-04-09T07:13:49Z</time>
      </trkpt>
      <trkpt lat="41.5546250" lon="1.9502660">
        <ele>224.6</ele>
        <time>2022-04-09T07:13:54Z</time>
      </trkpt>
      <trkpt lat="41.5546580" lon="1.9503370">
        <ele>224.8</ele>
        <time>2022-04-09T07:13:56Z</time>
      </trkpt>
      <trkpt lat="41.5547140" lon="1.9504440">
        <ele>225.6</ele>
        <time>2022-04-09T07:13:59Z</time>
      </trkpt>
      <trkpt lat="41.5548040" lon="1.9506250">
        <ele>226.4</ele>
        <time>2022-04-09T07:14:04Z</time>
      </trkpt>
      <trkpt lat="41.5548260" lon="1.9506610">
        <ele>226.8</ele>
        <time>2022-04-09T07:14:05Z</time>
      </trkpt>
      <trkpt lat="41.5549290" lon="1.9508140">
        <ele>227.8</ele>
        <time>2022-04-09T07:14:10Z</time>
      </trkpt>
      <trkpt lat="41.5549980" lon="1.9508650">
        <ele>228.2</ele>
        <time>2022-04-09T07:14:12Z</time>
      </trkpt>
      <trkpt lat="41.5551630" lon="1.9509560">
        <ele>229.0</ele>
        <time>2022-04-09T07:14:17Z</time>
      </trkpt>
      <trkpt lat="41.5552750" lon="1.9509670">
        <ele>229.4</ele>
        <time>2022-04-09T07:14:20Z</time>
      </trkpt>
      <trkpt lat="41.5554900" lon="1.9510060">
        <ele>230.2</ele>
        <time>2022-04-09T07:14:26Z</time>
      </trkpt>
      <trkpt lat="41.5555220" lon="1.9510200">
        <ele>230.4</ele>
        <time>2022-04-09T07:14:27Z</time>
      </trkpt>
      <trkpt lat="41.5556150" lon="1.9511410">
        <ele>231.4</ele>
        <time>2022-04-09T07:14:31Z</time>
      </trkpt>
      <trkpt lat="41.5556300" lon="1.9511790">
        <ele>231.6</ele>
        <time>2022-04-09T07:14:32Z</time>
      </trkpt>
      <trkpt lat="41.5556740" lon="1.9512970">
        <ele>232.4</ele>
        <time>2022-04-09T07:14:35Z</time>
      </trkpt>
      <trkpt lat="41.5557220" lon="1.9514650">
        <ele>233.6</ele>
        <time>2022-04-09T07:14:39Z</time>
      </trkpt>
      <trkpt lat="41.5557840" lon="1.9516750">
        <ele>234.6</ele>
        <time>2022-04-09T07:14:44Z</time>
      </trkpt>
      <trkpt lat="41.5558350" lon="1.9517970">
        <ele>235.4</ele>
        <time>2022-04-09T07:14:47Z</time>
      </trkpt>
      <trkpt lat="41.5558710" lon="1.9518730">
        <ele>236.0</ele>
        <time>2022-04-09T07:14:49Z</time>
      </trkpt>
      <trkpt lat="41.5559740" lon="1.9520400">
        <ele>237.2</ele>
        <time>2022-04-09T07:14:54Z</time>
      </trkpt>
      <trkpt lat="41.5560630" lon="1.9521670">
        <ele>238.2</ele>
        <time>2022-04-09T07:14:58Z</time>
      </trkpt>
      <trkpt lat="41.5561320" lon="1.9522610">
        <ele>239.0</ele>
        <time>2022-04-09T07:15:01Z</time>
      </trkpt>
      <trkpt lat="41.5561780" lon="1.9523180">
        <ele>239.6</ele>
        <time>2022-04-09T07:15:03Z</time>
      </trkpt>
      <trkpt lat="41.5562760" lon="1.9524220">
        <ele>240.6</ele>
        <time>2022-04-09T07:15:07Z</time>
      </trkpt>
      <trkpt lat="41.5563560" lon="1.9525040">
        <ele>241.0</ele>
        <time>2022-04-09T07:15:10Z</time>
      </trkpt>
      <trkpt lat="41.5564330" lon="1.9525860">
        <ele>241.8</ele>
        <time>2022-04-09T07:15:13Z</time>
      </trkpt>
      <trkpt lat="41.5565440" lon="1.9527480">
        <ele>243.0</ele>
        <time>2022-04-09T07:15:18Z</time>
      </trkpt>
      <trkpt lat="41.5565630" lon="1.9527850">
        <ele>243.2</ele>
        <time>2022-04-09T07:15:19Z</time>
      </trkpt>
      <trkpt lat="41.5566230" lon="1.9529700">
        <ele>244.2</ele>
        <time>2022-04-09T07:15:24Z</time>
      </trkpt>
      <trkpt lat="41.5566300" lon="1.9529990">
        <ele>244.2</ele>
        <time>2022-04-09T07:15:25Z</time>
      </trkpt>
      <trkpt lat="41.5566420" lon="1.9530650">
        <ele>245.2</ele>
        <time>2022-04-09T07:15:27Z</time>
      </trkpt>
      <trkpt lat="41.5566740" lon="1.9532770">
        <ele>246.4</ele>
        <time>2022-04-09T07:15:32Z</time>
      </trkpt>
      <trkpt lat="41.5566390" lon="1.9534300">
        <ele>247.4</ele>
        <time>2022-04-09T07:15:36Z</time>
      </trkpt>
      <trkpt lat="41.5566160" lon="1.9534660">
        <ele>247.8</ele>
        <time>2022-04-09T07:15:37Z</time>
      </trkpt>
      <trkpt lat="41.5565410" lon="1.9535290">
        <ele>248.4</ele>
        <time>2022-04-09T07:15:40Z</time>
      </trkpt>
      <trkpt lat="41.5564560" lon="1.9535760">
        <ele>249.2</ele>
        <time>2022-04-09T07:15:43Z</time>
      </trkpt>
      <trkpt lat="41.5563990" lon="1.9536120">
        <ele>249.6</ele>
        <time>2022-04-09T07:15:45Z</time>
      </trkpt>
      <trkpt lat="41.5562870" lon="1.9537430">
        <ele>251.0</ele>
        <time>2022-04-09T07:15:50Z</time>
      </trkpt>
      <trkpt lat="41.5562000" lon="1.9539610">
        <ele>252.2</ele>
        <time>2022-04-09T07:15:56Z</time>
      </trkpt>
      <trkpt lat="41.5561890" lon="1.9540000">
        <ele>252.4</ele>
        <time>2022-04-09T07:15:57Z</time>
      </trkpt>
      <trkpt lat="41.5561360" lon="1.9541570">
        <ele>253.0</ele>
        <time>2022-04-09T07:16:01Z</time>
      </trkpt>
      <trkpt lat="41.5560730" lon="1.9542570">
        <ele>254.0</ele>
        <time>2022-04-09T07:16:04Z</time>
      </trkpt>
      <trkpt lat="41.5560170" lon="1.9542770">
        <ele>254.2</ele>
        <time>2022-04-09T07:16:06Z</time>
      </trkpt>
      <trkpt lat="41.5559850" lon="1.9542690">
        <ele>254.2</ele>
        <time>2022-04-09T07:16:07Z</time>
      </trkpt>
      <trkpt lat="41.5559610" lon="1.9542720">
        <ele>254.2</ele>
        <time>2022-04-09T07:16:08Z</time>
      </trkpt>
      <trkpt lat="41.5559050" lon="1.9542850">
        <ele>255.4</ele>
        <time>2022-04-09T07:16:10Z</time>
      </trkpt>
      <trkpt lat="41.5558780" lon="1.9542860">
        <ele>255.6</ele>
        <time>2022-04-09T07:16:11Z</time>
      </trkpt>
      <trkpt lat="41.5557580" lon="1.9542840">
        <ele>256.6</ele>
        <time>2022-04-09T07:16:15Z</time>
      </trkpt>
      <trkpt lat="41.5557030" lon="1.9542830">
        <ele>257.0</ele>
        <time>2022-04-09T07:16:17Z</time>
      </trkpt>
      <trkpt lat="41.5556520" lon="1.9542740">
        <ele>257.6</ele>
        <time>2022-04-09T07:16:19Z</time>
      </trkpt>
      <trkpt lat="41.5555450" lon="1.9542890">
        <ele>258.8</ele>
        <time>2022-04-09T07:16:23Z</time>
      </trkpt>
      <trkpt lat="41.5554480" lon="1.9545600">
        <ele>259.0</ele>
        <time>2022-04-09T07:16:29Z</time>
      </trkpt>
      <trkpt lat="41.5554460" lon="1.9547270">
        <ele>258.8</ele>
        <time>2022-04-09T07:16:31Z</time>
      </trkpt>
      <trkpt lat="41.5554680" lon="1.9549020">
        <ele>258.6</ele>
        <time>2022-04-09T07:16:33Z</time>
      </trkpt>
      <trkpt lat="41.5555070" lon="1.9550860">
        <ele>258.2</ele>
        <time>2022-04-09T07:16:35Z</time>
      </trkpt>
      <trkpt lat="41.5555810" lon="1.9552690">
        <ele>257.2</ele>
        <time>2022-04-09T07:16:37Z</time>
      </trkpt>
      <trkpt lat="41.5556700" lon="1.9554470">
        <ele>256.2</ele>
        <time>2022-04-09T07:16:39Z</time>
      </trkpt>
      <trkpt lat="41.5557880" lon="1.9556730">
        <ele>255.0</ele>
        <time>2022-04-09T07:16:41Z</time>
      </trkpt>
      <trkpt lat="41.5558460" lon="1.9557710">
        <ele>254.8</ele>
        <time>2022-04-09T07:16:42Z</time>
      </trkpt>
      <trkpt lat="41.5559120" lon="1.9558710">
        <ele>253.8</ele>
        <time>2022-04-09T07:16:43Z</time>
      </trkpt>
      <trkpt lat="41.5560610" lon="1.9560430">
        <ele>252.6</ele>
        <time>2022-04-09T07:16:45Z</time>
      </trkpt>
      <trkpt lat="41.5561450" lon="1.9561210">
        <ele>251.8</ele>
        <time>2022-04-09T07:16:46Z</time>
      </trkpt>
      <trkpt lat="41.5562290" lon="1.9562030">
        <ele>251.4</ele>
        <time>2022-04-09T07:16:47Z</time>
      </trkpt>
      <trkpt lat="41.5562970" lon="1.9562710">
        <ele>250.2</ele>
        <time>2022-04-09T07:16:48Z</time>
      </trkpt>
      <trkpt lat="41.5564760" lon="1.9564750">
        <ele>248.8</ele>
        <time>2022-04-09T07:16:50Z</time>
      </trkpt>
      <trkpt lat="41.5566370" lon="1.9566860">
        <ele>247.8</ele>
        <time>2022-04-09T07:16:52Z</time>
      </trkpt>
      <trkpt lat="41.5566980" lon="1.9567750">
        <ele>247.0</ele>
        <time>2022-04-09T07:16:53Z</time>
      </trkpt>
      <trkpt lat="41.5568590" lon="1.9570310">
        <ele>245.8</ele>
        <time>2022-04-09T07:16:55Z</time>
      </trkpt>
      <trkpt lat="41.5569770" lon="1.9572550">
        <ele>244.6</ele>
        <time>2022-04-09T07:16:57Z</time>
      </trkpt>
      <trkpt lat="41.5571090" lon="1.9575310">
        <ele>243.6</ele>
        <time>2022-04-09T07:16:59Z</time>
      </trkpt>
      <trkpt lat="41.5572120" lon="1.9577780">
        <ele>242.4</ele>
        <time>2022-04-09T07:17:01Z</time>
      </trkpt>
      <trkpt lat="41.5572960" lon="1.9580110">
        <ele>241.6</ele>
        <time>2022-04-09T07:17:03Z</time>
      </trkpt>
      <trkpt lat="41.5574540" lon="1.9585090">
        <ele>241.4</ele>
        <time>2022-04-09T07:17:08Z</time>
      </trkpt>
      <trkpt lat="41.5576070" lon="1.9589890">
        <ele>242.8</ele>
        <time>2022-04-09T07:17:14Z</time>
      </trkpt>
      <trkpt lat="41.5576550" lon="1.9591250">
        <ele>244.0</ele>
        <time>2022-04-09T07:17:16Z</time>
      </trkpt>
      <trkpt lat="41.5577240" lon="1.9593200">
        <ele>245.0</ele>
        <time>2022-04-09T07:17:19Z</time>
      </trkpt>
      <trkpt lat="41.5577980" lon="1.9595100">
        <ele>246.0</ele>
        <time>2022-04-09T07:17:22Z</time>
      </trkpt>
      <trkpt lat="41.5578240" lon="1.9595710">
        <ele>246.4</ele>
        <time>2022-04-09T07:17:23Z</time>
      </trkpt>
      <trkpt lat="41.5579260" lon="1.9598060">
        <ele>247.8</ele>
        <time>2022-04-09T07:17:27Z</time>
      </trkpt>
      <trkpt lat="41.5580080" lon="1.9599760">
        <ele>248.4</ele>
        <time>2022-04-09T07:17:30Z</time>
      </trkpt>
      <trkpt lat="41.5580260" lon="1.9600330">
        <ele>248.8</ele>
        <time>2022-04-09T07:17:31Z</time>
      </trkpt>
      <trkpt lat="41.5580350" lon="1.9600920">
        <ele>249.0</ele>
        <time>2022-04-09T07:17:32Z</time>
      </trkpt>
      <trkpt lat="41.5580320" lon="1.9602100">
        <ele>249.6</ele>
        <time>2022-04-09T07:17:34Z</time>
      </trkpt>
      <trkpt lat="41.5580360" lon="1.9602630">
        <ele>250.2</ele>
        <time>2022-04-09T07:17:35Z</time>
      </trkpt>
      <trkpt lat="41.5580750" lon="1.9603600">
        <ele>251.0</ele>
        <time>2022-04-09T07:17:37Z</time>
      </trkpt>
      <trkpt lat="41.5581390" lon="1.9604210">
        <ele>251.6</ele>
        <time>2022-04-09T07:17:39Z</time>
      </trkpt>
      <trkpt lat="41.5582220" lon="1.9604520">
        <ele>252.2</ele>
        <time>2022-04-09T07:17:41Z</time>
      </trkpt>
      <trkpt lat="41.5583150" lon="1.9604740">
        <ele>252.6</ele>
        <time>2022-04-09T07:17:43Z</time>
      </trkpt>
      <trkpt lat="41.5583940" lon="1.9605390">
        <ele>253.0</ele>
        <time>2022-04-09T07:17:45Z</time>
      </trkpt>
      <trkpt lat="41.5585820" lon="1.9607500">
        <ele>253.6</ele>
        <time>2022-04-09T07:17:51Z</time>
      </trkpt>
      <trkpt lat="41.5586840" lon="1.9608570">
        <ele>254.0</ele>
        <time>2022-04-09T07:17:54Z</time>
      </trkpt>
      <trkpt lat="41.5587460" lon="1.9609130">
        <ele>254.8</ele>
        <time>2022-04-09T07:17:56Z</time>
      </trkpt>
      <trkpt lat="41.5588210" lon="1.9609820">
        <ele>255.4</ele>
        <time>2022-04-09T07:17:58Z</time>
      </trkpt>
      <trkpt lat="41.5588830" lon="1.9610340">
        <ele>256.0</ele>
        <time>2022-04-09T07:18:00Z</time>
      </trkpt>
      <trkpt lat="41.5589210" lon="1.9610680">
        <ele>256.0</ele>
        <time>2022-04-09T07:18:01Z</time>
      </trkpt>
      <trkpt lat="41.5590590" lon="1.9611760">
        <ele>257.4</ele>
        <time>2022-04-09T07:18:05Z</time>
      </trkpt>
      <trkpt lat="41.5592320" lon="1.9612940">
        <ele>258.6</ele>
        <time>2022-04-09T07:18:10Z</time>
      </trkpt>
      <trkpt lat="41.5594150" lon="1.9614000">
        <ele>259.6</ele>
        <time>2022-04-09T07:18:15Z</time>
      </trkpt>
      <trkpt lat="41.5596070" lon="1.9614940">
        <ele>260.6</ele>
        <time>2022-04-09T07:18:20Z</time>
      </trkpt>
      <trkpt lat="41.5596380" lon="1.9615070">
        <ele>261.2</ele>
        <time>2022-04-09T07:18:21Z</time>
      </trkpt>
      <trkpt lat="41.5598360" lon="1.9615890">
        <ele>262.0</ele>
        <time>2022-04-09T07:18:26Z</time>
      </trkpt>
      <trkpt lat="41.5599900" lon="1.9616450">
        <ele>262.6</ele>
        <time>2022-04-09T07:18:30Z</time>
      </trkpt>
      <trkpt lat="41.5600230" lon="1.9616560">
        <ele>263.2</ele>
        <time>2022-04-09T07:18:31Z</time>
      </trkpt>
      <trkpt lat="41.5601940" lon="1.9617060">
        <ele>264.0</ele>
        <time>2022-04-09T07:18:35Z</time>
      </trkpt>
      <trkpt lat="41.5603960" lon="1.9617720">
        <ele>265.0</ele>
        <time>2022-04-09T07:18:40Z</time>
      </trkpt>
      <trkpt lat="41.5604690" lon="1.9617970">
        <ele>265.6</ele>
        <time>2022-04-09T07:18:42Z</time>
      </trkpt>
      <trkpt lat="41.5606760" lon="1.9618630">
        <ele>266.6</ele>
        <time>2022-04-09T07:18:47Z</time>
      </trkpt>
      <trkpt lat="41.5608330" lon="1.9619280">
        <ele>267.6</ele>
        <time>2022-04-09T07:18:51Z</time>
      </trkpt>
      <trkpt lat="41.5608700" lon="1.9619420">
        <ele>267.8</ele>
        <time>2022-04-09T07:18:52Z</time>
      </trkpt>
      <trkpt lat="41.5610970" lon="1.9620380">
        <ele>269.0</ele>
        <time>2022-04-09T07:18:58Z</time>
      </trkpt>
      <trkpt lat="41.5612070" lon="1.9620950">
        <ele>269.8</ele>
        <time>2022-04-09T07:19:01Z</time>
      </trkpt>
      <trkpt lat="41.5612450" lon="1.9621140">
        <ele>269.8</ele>
        <time>2022-04-09T07:19:02Z</time>
      </trkpt>
      <trkpt lat="41.5614200" lon="1.9622260">
        <ele>271.0</ele>
        <time>2022-04-09T07:19:07Z</time>
      </trkpt>
      <trkpt lat="41.5615270" lon="1.9622970">
        <ele>271.6</ele>
        <time>2022-04-09T07:19:10Z</time>
      </trkpt>
      <trkpt lat="41.5615990" lon="1.9623460">
        <ele>272.2</ele>
        <time>2022-04-09T07:19:12Z</time>
      </trkpt>
      <trkpt lat="41.5617680" lon="1.9624720">
        <ele>273.0</ele>
        <time>2022-04-09T07:19:17Z</time>
      </trkpt>
      <trkpt lat="41.5620210" lon="1.9626340">
        <ele>274.2</ele>
        <time>2022-04-09T07:19:24Z</time>
      </trkpt>
      <trkpt lat="41.5622290" lon="1.9627530">
        <ele>275.4</ele>
        <time>2022-04-09T07:19:30Z</time>
      </trkpt>
      <trkpt lat="41.5622970" lon="1.9627900">
        <ele>276.2</ele>
        <time>2022-04-09T07:19:32Z</time>
      </trkpt>
      <trkpt lat="41.5623270" lon="1.9628110">
        <ele>276.8</ele>
        <time>2022-04-09T07:19:33Z</time>
      </trkpt>
      <trkpt lat="41.5624110" lon="1.9629120">
        <ele>277.4</ele>
        <time>2022-04-09T07:19:37Z</time>
      </trkpt>
      <trkpt lat="41.5624240" lon="1.9629390">
        <ele>277.6</ele>
        <time>2022-04-09T07:19:38Z</time>
      </trkpt>
      <trkpt lat="41.5624630" lon="1.9630360">
        <ele>278.6</ele>
        <time>2022-04-09T07:19:42Z</time>
      </trkpt>
      <trkpt lat="41.5624750" lon="1.9630580">
        <ele>279.0</ele>
        <time>2022-04-09T07:19:43Z</time>
      </trkpt>
      <trkpt lat="41.5625750" lon="1.9631740">
        <ele>279.8</ele>
        <time>2022-04-09T07:19:50Z</time>
      </trkpt>
      <trkpt lat="41.5626170" lon="1.9631940">
        <ele>280.0</ele>
        <time>2022-04-09T07:19:52Z</time>
      </trkpt>
      <trkpt lat="41.5626940" lon="1.9631800">
        <ele>280.2</ele>
        <time>2022-04-09T07:19:55Z</time>
      </trkpt>
      <trkpt lat="41.5628490" lon="1.9630850">
        <ele>280.8</ele>
        <time>2022-04-09T07:20:00Z</time>
      </trkpt>
      <trkpt lat="41.5629760" lon="1.9630190">
        <ele>281.2</ele>
        <time>2022-04-09T07:20:04Z</time>
      </trkpt>
      <trkpt lat="41.5630080" lon="1.9630220">
        <ele>281.2</ele>
        <time>2022-04-09T07:20:05Z</time>
      </trkpt>
      <trkpt lat="41.5632540" lon="1.9630860">
        <ele>282.2</ele>
        <time>2022-04-09T07:20:13Z</time>
      </trkpt>
      <trkpt lat="41.5632860" lon="1.9630930">
        <ele>282.4</ele>
        <time>2022-04-09T07:20:14Z</time>
      </trkpt>
      <trkpt lat="41.5635530" lon="1.9631630">
        <ele>283.4</ele>
        <time>2022-04-09T07:20:22Z</time>
      </trkpt>
      <trkpt lat="41.5635880" lon="1.9631710">
        <ele>283.4</ele>
        <time>2022-04-09T07:20:23Z</time>
      </trkpt>
      <trkpt lat="41.5638250" lon="1.9632500">
        <ele>283.6</ele>
        <time>2022-04-09T07:20:30Z</time>
      </trkpt>
      <trkpt lat="41.5638850" lon="1.9632960">
        <ele>283.6</ele>
        <time>2022-04-09T07:20:32Z</time>
      </trkpt>
      <trkpt lat="41.5639200" lon="1.9633890">
        <ele>283.6</ele>
        <time>2022-04-09T07:20:34Z</time>
      </trkpt>
      <trkpt lat="41.5639380" lon="1.9634410">
        <ele>283.6</ele>
        <time>2022-04-09T07:20:35Z</time>
      </trkpt>
      <trkpt lat="41.5639980" lon="1.9635370">
        <ele>283.4</ele>
        <time>2022-04-09T07:20:37Z</time>
      </trkpt>
      <trkpt lat="41.5640370" lon="1.9635780">
        <ele>283.4</ele>
        <time>2022-04-09T07:20:38Z</time>
      </trkpt>
      <trkpt lat="41.5640810" lon="1.9636090">
        <ele>283.4</ele>
        <time>2022-04-09T07:20:39Z</time>
      </trkpt>
      <trkpt lat="41.5642730" lon="1.9637200">
        <ele>283.2</ele>
        <time>2022-04-09T07:20:43Z</time>
      </trkpt>
      <trkpt lat="41.5643520" lon="1.9638150">
        <ele>283.2</ele>
        <time>2022-04-09T07:20:45Z</time>
      </trkpt>
      <trkpt lat="41.5643820" lon="1.9638840">
        <ele>283.0</ele>
        <time>2022-04-09T07:20:46Z</time>
      </trkpt>
      <trkpt lat="41.5645000" lon="1.9642550">
        <ele>282.4</ele>
        <time>2022-04-09T07:20:51Z</time>
      </trkpt>
      <trkpt lat="41.5645450" lon="1.9644110">
        <ele>282.2</ele>
        <time>2022-04-09T07:20:53Z</time>
      </trkpt>
      <trkpt lat="41.5647010" lon="1.9649390">
        <ele>281.4</ele>
        <time>2022-04-09T07:21:00Z</time>
      </trkpt>
      <trkpt lat="41.5647190" lon="1.9650140">
        <ele>281.2</ele>
        <time>2022-04-09T07:21:01Z</time>
      </trkpt>
      <trkpt lat="41.5647370" lon="1.9652430">
        <ele>281.0</ele>
        <time>2022-04-09T07:21:04Z</time>
      </trkpt>
      <trkpt lat="41.5647110" lon="1.9653670">
        <ele>281.0</ele>
        <time>2022-04-09T07:21:06Z</time>
      </trkpt>
      <trkpt lat="41.5646620" lon="1.9654740">
        <ele>281.0</ele>
        <time>2022-04-09T07:21:08Z</time>
      </trkpt>
      <trkpt lat="41.5645920" lon="1.9655640">
        <ele>281.2</ele>
        <time>2022-04-09T07:21:10Z</time>
      </trkpt>
      <trkpt lat="41.5645040" lon="1.9656200">
        <ele>281.2</ele>
        <time>2022-04-09T07:21:12Z</time>
      </trkpt>
      <trkpt lat="41.5641390" lon="1.9656950">
        <ele>282.0</ele>
        <time>2022-04-09T07:21:19Z</time>
      </trkpt>
      <trkpt lat="41.5639680" lon="1.9657330">
        <ele>282.2</ele>
        <time>2022-04-09T07:21:22Z</time>
      </trkpt>
      <trkpt lat="41.5637360" lon="1.9657980">
        <ele>282.2</ele>
        <time>2022-04-09T07:21:26Z</time>
      </trkpt>
      <trkpt lat="41.5636770" lon="1.9658210">
        <ele>282.2</ele>
        <time>2022-04-09T07:21:27Z</time>
      </trkpt>
      <trkpt lat="41.5635340" lon="1.9658680">
        <ele>282.2</ele>
        <time>2022-04-09T07:21:30Z</time>
      </trkpt>
      <trkpt lat="41.5634770" lon="1.9658870">
        <ele>282.0</ele>
        <time>2022-04-09T07:21:32Z</time>
      </trkpt>
      <trkpt lat="41.5633320" lon="1.9659500">
        <ele>281.8</ele>
        <time>2022-04-09T07:21:37Z</time>
      </trkpt>
      <trkpt lat="41.5630450" lon="1.9661050">
        <ele>281.2</ele>
        <time>2022-04-09T07:21:45Z</time>
      </trkpt>
      <trkpt lat="41.5629620" lon="1.9661560">
        <ele>281.2</ele>
        <time>2022-04-09T07:21:47Z</time>
      </trkpt>
      <trkpt lat="41.5628320" lon="1.9662450">
        <ele>280.8</ele>
        <time>2022-04-09T07:21:50Z</time>
      </trkpt>
      <trkpt lat="41.5627890" lon="1.9662810">
        <ele>280.6</ele>
        <time>2022-04-09T07:21:51Z</time>
      </trkpt>
      <trkpt lat="41.5627440" lon="1.9663140">
        <ele>280.6</ele>
        <time>2022-04-09T07:21:52Z</time>
      </trkpt>
      <trkpt lat="41.5626990" lon="1.9663470">
        <ele>280.0</ele>
        <time>2022-04-09T07:21:53Z</time>
      </trkpt>
      <trkpt lat="41.5626530" lon="1.9663860">
        <ele>280.0</ele>
        <time>2022-04-09T07:21:54Z</time>
      </trkpt>
      <trkpt lat="41.5625620" lon="1.9664670">
        <ele>279.6</ele>
        <time>2022-04-09T07:21:56Z</time>
      </trkpt>
      <trkpt lat="41.5624170" lon="1.9665990">
        <ele>279.0</ele>
        <time>2022-04-09T07:21:59Z</time>
      </trkpt>
      <trkpt lat="41.5621730" lon="1.9668560">
        <ele>278.4</ele>
        <time>2022-04-09T07:22:04Z</time>
      </trkpt>
      <trkpt lat="41.5620700" lon="1.9669760">
        <ele>277.8</ele>
        <time>2022-04-09T07:22:06Z</time>
      </trkpt>
      <trkpt lat="41.5618140" lon="1.9673080">
        <ele>276.8</ele>
        <time>2022-04-09T07:22:11Z</time>
      </trkpt>
      <trkpt lat="41.5617620" lon="1.9673800">
        <ele>276.6</ele>
        <time>2022-04-09T07:22:12Z</time>
      </trkpt>
      <trkpt lat="41.5615090" lon="1.9677570">
        <ele>275.6</ele>
        <time>2022-04-09T07:22:17Z</time>
      </trkpt>
      <trkpt lat="41.5614070" lon="1.9679180">
        <ele>274.8</ele>
        <time>2022-04-09T07:22:19Z</time>
      </trkpt>
      <trkpt lat="41.5613100" lon="1.9680920">
        <ele>274.4</ele>
        <time>2022-04-09T07:22:21Z</time>
      </trkpt>
      <trkpt lat="41.5610870" lon="1.9685400">
        <ele>273.0</ele>
        <time>2022-04-09T07:22:26Z</time>
      </trkpt>
      <trkpt lat="41.5610460" lon="1.9686320">
        <ele>272.8</ele>
        <time>2022-04-09T07:22:27Z</time>
      </trkpt>
      <trkpt lat="41.5608840" lon="1.9690090">
        <ele>271.8</ele>
        <time>2022-04-09T07:22:31Z</time>
      </trkpt>
      <trkpt lat="41.5607780" lon="1.9692680">
        <ele>270.8</ele>
        <time>2022-04-09T07:22:34Z</time>
      </trkpt>
      <trkpt lat="41.5607460" lon="1.9693490">
        <ele>270.4</ele>
        <time>2022-04-09T07:22:35Z</time>
      </trkpt>
      <trkpt lat="41.5606350" lon="1.9696720">
        <ele>269.8</ele>
        <time>2022-04-09T07:22:39Z</time>
      </trkpt>
      <trkpt lat="41.5605780" lon="1.9698630">
        <ele>269.2</ele>
        <time>2022-04-09T07:22:41Z</time>
      </trkpt>
      <trkpt lat="41.5605300" lon="1.9700450">
        <ele>268.6</ele>
        <time>2022-04-09T07:22:43Z</time>
      </trkpt>
      <trkpt lat="41.5604070" lon="1.9705380">
        <ele>267.6</ele>
        <time>2022-04-09T07:22:48Z</time>
      </trkpt>
      <trkpt lat="41.5603830" lon="1.9706430">
        <ele>267.2</ele>
        <time>2022-04-09T07:22:49Z</time>
      </trkpt>
      <trkpt lat="41.5603230" lon="1.9709720">
        <ele>266.6</ele>
        <time>2022-04-09T07:22:52Z</time>
      </trkpt>
      <trkpt lat="41.5602580" lon="1.9714190">
        <ele>265.6</ele>
        <time>2022-04-09T07:22:56Z</time>
      </trkpt>
      <trkpt lat="41.5602070" lon="1.9718900">
        <ele>264.4</ele>
        <time>2022-04-09T07:23:00Z</time>
      </trkpt>
      <trkpt lat="41.5601830" lon="1.9722540">
        <ele>263.6</ele>
        <time>2022-04-09T07:23:03Z</time>
      </trkpt>
      <trkpt lat="41.5601760" lon="1.9723760">
        <ele>263.2</ele>
        <time>2022-04-09T07:23:04Z</time>
      </trkpt>
      <trkpt lat="41.5601580" lon="1.9727240">
        <ele>262.0</ele>
        <time>2022-04-09T07:23:07Z</time>
      </trkpt>
      <trkpt lat="41.5601490" lon="1.9730680">
        <ele>260.8</ele>
        <time>2022-04-09T07:23:10Z</time>
      </trkpt>
      <trkpt lat="41.5601440" lon="1.9731830">
        <ele>260.6</ele>
        <time>2022-04-09T07:23:11Z</time>
      </trkpt>
      <trkpt lat="41.5601020" lon="1.9737680">
        <ele>259.6</ele>
        <time>2022-04-09T07:23:16Z</time>
      </trkpt>
      <trkpt lat="41.5600800" lon="1.9741230">
        <ele>258.2</ele>
        <time>2022-04-09T07:23:19Z</time>
      </trkpt>
      <trkpt lat="41.5600530" lon="1.9744730">
        <ele>257.8</ele>
        <time>2022-04-09T07:23:22Z</time>
      </trkpt>
      <trkpt lat="41.5600120" lon="1.9749100">
        <ele>257.8</ele>
        <time>2022-04-09T07:23:26Z</time>
      </trkpt>
      <trkpt lat="41.5599590" lon="1.9753280">
        <ele>257.6</ele>
        <time>2022-04-09T07:23:30Z</time>
      </trkpt>
      <trkpt lat="41.5598950" lon="1.9757290">
        <ele>257.4</ele>
        <time>2022-04-09T07:23:34Z</time>
      </trkpt>
      <trkpt lat="41.5598740" lon="1.9758250">
        <ele>257.4</ele>
        <time>2022-04-09T07:23:35Z</time>
      </trkpt>
      <trkpt lat="41.5598240" lon="1.9760100">
        <ele>257.4</ele>
        <time>2022-04-09T07:23:37Z</time>
      </trkpt>
      <trkpt lat="41.5597400" lon="1.9763640">
        <ele>258.2</ele>
        <time>2022-04-09T07:23:41Z</time>
      </trkpt>
      <trkpt lat="41.5597130" lon="1.9764420">
        <ele>258.4</ele>
        <time>2022-04-09T07:23:42Z</time>
      </trkpt>
      <trkpt lat="41.5596830" lon="1.9765160">
        <ele>258.8</ele>
        <time>2022-04-09T07:23:43Z</time>
      </trkpt>
      <trkpt lat="41.5596550" lon="1.9765890">
        <ele>258.8</ele>
        <time>2022-04-09T07:23:44Z</time>
      </trkpt>
      <trkpt lat="41.5596280" lon="1.9767480">
        <ele>259.2</ele>
        <time>2022-04-09T07:23:46Z</time>
      </trkpt>
      <trkpt lat="41.5596100" lon="1.9769100">
        <ele>259.8</ele>
        <time>2022-04-09T07:23:48Z</time>
      </trkpt>
      <trkpt lat="41.5595510" lon="1.9771420">
        <ele>260.6</ele>
        <time>2022-04-09T07:23:51Z</time>
      </trkpt>
      <trkpt lat="41.5595300" lon="1.9772210">
        <ele>261.0</ele>
        <time>2022-04-09T07:23:52Z</time>
      </trkpt>
      <trkpt lat="41.5594140" lon="1.9775830">
        <ele>262.0</ele>
        <time>2022-04-09T07:23:57Z</time>
      </trkpt>
      <trkpt lat="41.5593930" lon="1.9776490">
        <ele>262.2</ele>
        <time>2022-04-09T07:23:58Z</time>
      </trkpt>
      <trkpt lat="41.5592750" lon="1.9780220">
        <ele>263.2</ele>
        <time>2022-04-09T07:24:04Z</time>
      </trkpt>
      <trkpt lat="41.5592550" lon="1.9780840">
        <ele>263.4</ele>
        <time>2022-04-09T07:24:05Z</time>
      </trkpt>
      <trkpt lat="41.5591800" lon="1.9783340">
        <ele>264.2</ele>
        <time>2022-04-09T07:24:09Z</time>
      </trkpt>
      <trkpt lat="41.5590560" lon="1.9787030">
        <ele>265.2</ele>
        <time>2022-04-09T07:24:15Z</time>
      </trkpt>
      <trkpt lat="41.5590350" lon="1.9787610">
        <ele>265.2</ele>
        <time>2022-04-09T07:24:16Z</time>
      </trkpt>
      <trkpt lat="41.5589230" lon="1.9791030">
        <ele>266.2</ele>
        <time>2022-04-09T07:24:22Z</time>
      </trkpt>
      <trkpt lat="41.5588700" lon="1.9792750">
        <ele>266.4</ele>
        <time>2022-04-09T07:24:25Z</time>
      </trkpt>
      <trkpt lat="41.5587730" lon="1.9795590">
        <ele>267.4</ele>
        <time>2022-04-09T07:24:30Z</time>
      </trkpt>
      <trkpt lat="41.5587550" lon="1.9796130">
        <ele>267.8</ele>
        <time>2022-04-09T07:24:31Z</time>
      </trkpt>
      <trkpt lat="41.5586760" lon="1.9799010">
        <ele>268.8</ele>
        <time>2022-04-09T07:24:36Z</time>
      </trkpt>
      <trkpt lat="41.5586360" lon="1.9800870">
        <ele>269.4</ele>
        <time>2022-04-09T07:24:39Z</time>
      </trkpt>
      <trkpt lat="41.5585760" lon="1.9803410">
        <ele>269.8</ele>
        <time>2022-04-09T07:24:43Z</time>
      </trkpt>
      <trkpt lat="41.5585400" lon="1.9804650">
        <ele>270.4</ele>
        <time>2022-04-09T07:24:45Z</time>
      </trkpt>
      <trkpt lat="41.5584900" lon="1.9805740">
        <ele>270.8</ele>
        <time>2022-04-09T07:24:47Z</time>
      </trkpt>
      <trkpt lat="41.5584620" lon="1.9806270">
        <ele>271.0</ele>
        <time>2022-04-09T07:24:48Z</time>
      </trkpt>
      <trkpt lat="41.5584400" lon="1.9806860">
        <ele>271.0</ele>
        <time>2022-04-09T07:24:49Z</time>
      </trkpt>
      <trkpt lat="41.5583650" lon="1.9809230">
        <ele>271.2</ele>
        <time>2022-04-09T07:24:53Z</time>
      </trkpt>
      <trkpt lat="41.5582430" lon="1.9813480">
        <ele>272.2</ele>
        <time>2022-04-09T07:25:00Z</time>
      </trkpt>
      <trkpt lat="41.5581880" lon="1.9815240">
        <ele>273.0</ele>
        <time>2022-04-09T07:25:03Z</time>
      </trkpt>
      <trkpt lat="41.5581700" lon="1.9815870">
        <ele>273.2</ele>
        <time>2022-04-09T07:25:04Z</time>
      </trkpt>
      <trkpt lat="41.5580730" lon="1.9819140">
        <ele>274.4</ele>
        <time>2022-04-09T07:25:10Z</time>
      </trkpt>
      <trkpt lat="41.5580030" lon="1.9821360">
        <ele>274.8</ele>
        <time>2022-04-09T07:25:14Z</time>
      </trkpt>
      <trkpt lat="41.5579510" lon="1.9822920">
        <ele>275.4</ele>
        <time>2022-04-09T07:25:17Z</time>
      </trkpt>
      <trkpt lat="41.5578730" lon="1.9825300">
        <ele>276.6</ele>
        <time>2022-04-09T07:25:22Z</time>
      </trkpt>
      <trkpt lat="41.5577840" lon="1.9827960">
        <ele>277.4</ele>
        <time>2022-04-09T07:25:27Z</time>
      </trkpt>
      <trkpt lat="41.5577650" lon="1.9828590">
        <ele>277.6</ele>
        <time>2022-04-09T07:25:28Z</time>
      </trkpt>
      <trkpt lat="41.5576370" lon="1.9832810">
        <ele>278.4</ele>
        <time>2022-04-09T07:25:35Z</time>
      </trkpt>
      <trkpt lat="41.5576020" lon="1.9833900">
        <ele>278.6</ele>
        <time>2022-04-09T07:25:37Z</time>
      </trkpt>
      <trkpt lat="41.5574930" lon="1.9837560">
        <ele>279.8</ele>
        <time>2022-04-09T07:25:44Z</time>
      </trkpt>
      <trkpt lat="41.5574610" lon="1.9838560">
        <ele>280.0</ele>
        <time>2022-04-09T07:25:46Z</time>
      </trkpt>
      <trkpt lat="41.5573650" lon="1.9841630">
        <ele>280.8</ele>
        <time>2022-04-09T07:25:52Z</time>
      </trkpt>
      <trkpt lat="41.5573370" lon="1.9842630">
        <ele>281.2</ele>
        <time>2022-04-09T07:25:54Z</time>
      </trkpt>
      <trkpt lat="41.5572720" lon="1.9844560">
        <ele>281.8</ele>
        <time>2022-04-09T07:25:58Z</time>
      </trkpt>
      <trkpt lat="41.5571970" lon="1.9846660">
        <ele>282.4</ele>
        <time>2022-04-09T07:26:02Z</time>
      </trkpt>
      <trkpt lat="41.5571160" lon="1.9849500">
        <ele>283.2</ele>
        <time>2022-04-09T07:26:07Z</time>
      </trkpt>
      <trkpt lat="41.5570200" lon="1.9852810">
        <ele>283.8</ele>
        <time>2022-04-09T07:26:13Z</time>
      </trkpt>
      <trkpt lat="41.5569670" lon="1.9854550">
        <ele>284.0</ele>
        <time>2022-04-09T07:26:16Z</time>
      </trkpt>
      <trkpt lat="41.5567850" lon="1.9859530">
        <ele>284.8</ele>
        <time>2022-04-09T07:26:24Z</time>
      </trkpt>
      <trkpt lat="41.5565920" lon="1.9863670">
        <ele>284.8</ele>
        <time>2022-04-09T07:26:30Z</time>
      </trkpt>
      <trkpt lat="41.5563410" lon="1.9868130">
        <ele>283.4</ele>
        <time>2022-04-09T07:26:36Z</time>
      </trkpt>
      <trkpt lat="41.5562060" lon="1.9870290">
        <ele>282.8</ele>
        <time>2022-04-09T07:26:39Z</time>
      </trkpt>
      <trkpt lat="41.5559990" lon="1.9873820">
        <ele>282.6</ele>
        <time>2022-04-09T07:26:44Z</time>
      </trkpt>
      <trkpt lat="41.5559570" lon="1.9874510">
        <ele>282.6</ele>
        <time>2022-04-09T07:26:45Z</time>
      </trkpt>
      <trkpt lat="41.5558340" lon="1.9876670">
        <ele>282.2</ele>
        <time>2022-04-09T07:26:48Z</time>
      </trkpt>
      <trkpt lat="41.5557510" lon="1.9878160">
        <ele>282.2</ele>
        <time>2022-04-09T07:26:50Z</time>
      </trkpt>
      <trkpt lat="41.5556740" lon="1.9879660">
        <ele>282.0</ele>
        <time>2022-04-09T07:26:52Z</time>
      </trkpt>
      <trkpt lat="41.5556380" lon="1.9881030">
        <ele>282.2</ele>
        <time>2022-04-09T07:26:54Z</time>
      </trkpt>
      <trkpt lat="41.5555770" lon="1.9883340">
        <ele>282.2</ele>
        <time>2022-04-09T07:26:57Z</time>
      </trkpt>
      <trkpt lat="41.5555580" lon="1.9884490">
        <ele>282.2</ele>
        <time>2022-04-09T07:26:58Z</time>
      </trkpt>
      <trkpt lat="41.5554630" lon="1.9891150">
        <ele>282.0</ele>
        <time>2022-04-09T07:27:05Z</time>
      </trkpt>
      <trkpt lat="41.5554360" lon="1.9892620">
        <ele>282.0</ele>
        <time>2022-04-09T07:27:07Z</time>
      </trkpt>
      <trkpt lat="41.5553990" lon="1.9894070">
        <ele>282.0</ele>
        <time>2022-04-09T07:27:09Z</time>
      </trkpt>
      <trkpt lat="41.5553850" lon="1.9894930">
        <ele>282.0</ele>
        <time>2022-04-09T07:27:10Z</time>
      </trkpt>
      <trkpt lat="41.5553550" lon="1.9897890">
        <ele>281.4</ele>
        <time>2022-04-09T07:27:13Z</time>
      </trkpt>
      <trkpt lat="41.5552940" lon="1.9904000">
        <ele>280.6</ele>
        <time>2022-04-09T07:27:19Z</time>
      </trkpt>
      <trkpt lat="41.5552670" lon="1.9905970">
        <ele>280.6</ele>
        <time>2022-04-09T07:27:21Z</time>
      </trkpt>
      <trkpt lat="41.5551590" lon="1.9913900">
        <ele>279.4</ele>
        <time>2022-04-09T07:27:29Z</time>
      </trkpt>
      <trkpt lat="41.5551190" lon="1.9917030">
        <ele>278.8</ele>
        <time>2022-04-09T07:27:32Z</time>
      </trkpt>
      <trkpt lat="41.5551190" lon="1.9918010">
        <ele>278.4</ele>
        <time>2022-04-09T07:27:33Z</time>
      </trkpt>
      <trkpt lat="41.5551340" lon="1.9918910">
        <ele>278.0</ele>
        <time>2022-04-09T07:27:34Z</time>
      </trkpt>
      <trkpt lat="41.5551700" lon="1.9919650">
        <ele>277.8</ele>
        <time>2022-04-09T07:27:35Z</time>
      </trkpt>
      <trkpt lat="41.5552230" lon="1.9920180">
        <ele>277.4</ele>
        <time>2022-04-09T07:27:36Z</time>
      </trkpt>
      <trkpt lat="41.5552820" lon="1.9920550">
        <ele>277.2</ele>
        <time>2022-04-09T07:27:37Z</time>
      </trkpt>
      <trkpt lat="41.5553430" lon="1.9920800">
        <ele>276.8</ele>
        <time>2022-04-09T07:27:38Z</time>
      </trkpt>
      <trkpt lat="41.5553430" lon="1.9920800">
        <ele>276.2</ele>
        <time>2022-04-09T07:27:41Z</time>
      </trkpt>
      <trkpt lat="41.5555100" lon="1.9921130">
        <ele>274.8</ele>
        <time>2022-04-09T07:27:43Z</time>
      </trkpt>
      <trkpt lat="41.5555670" lon="1.9921000">
        <ele>274.2</ele>
        <time>2022-04-09T07:27:44Z</time>
      </trkpt>
      <trkpt lat="41.5556950" lon="1.9920160">
        <ele>273.8</ele>
        <time>2022-04-09T07:27:46Z</time>
      </trkpt>
      <trkpt lat="41.5557430" lon="1.9919480">
        <ele>273.6</ele>
        <time>2022-04-09T07:27:47Z</time>
      </trkpt>
      <trkpt lat="41.5557860" lon="1.9918710">
        <ele>273.4</ele>
        <time>2022-04-09T07:27:48Z</time>
      </trkpt>
      <trkpt lat="41.5558530" lon="1.9917170">
        <ele>273.2</ele>
        <time>2022-04-09T07:27:50Z</time>
      </trkpt>
      <trkpt lat="41.5559080" lon="1.9915570">
        <ele>273.4</ele>
        <time>2022-04-09T07:27:52Z</time>
      </trkpt>
      <trkpt lat="41.5559530" lon="1.9913230">
        <ele>273.8</ele>
        <time>2022-04-09T07:27:55Z</time>
      </trkpt>
      <trkpt lat="41.5560110" lon="1.9910380">
        <ele>274.8</ele>
        <time>2022-04-09T07:27:59Z</time>
      </trkpt>
      <trkpt lat="41.5560380" lon="1.9908930">
        <ele>275.0</ele>
        <time>2022-04-09T07:28:01Z</time>
      </trkpt>
      <trkpt lat="41.5561050" lon="1.9905280">
        <ele>275.8</ele>
        <time>2022-04-09T07:28:06Z</time>
      </trkpt>
      <trkpt lat="41.5561580" lon="1.9902440">
        <ele>276.6</ele>
        <time>2022-04-09T07:28:10Z</time>
      </trkpt>
      <trkpt lat="41.5561680" lon="1.9901760">
        <ele>276.8</ele>
        <time>2022-04-09T07:28:11Z</time>
      </trkpt>
      <trkpt lat="41.5562160" lon="1.9898310">
        <ele>277.8</ele>
        <time>2022-04-09T07:28:16Z</time>
      </trkpt>
      <trkpt lat="41.5562270" lon="1.9897660">
        <ele>278.0</ele>
        <time>2022-04-09T07:28:17Z</time>
      </trkpt>
      <trkpt lat="41.5562450" lon="1.9897130">
        <ele>278.0</ele>
        <time>2022-04-09T07:28:18Z</time>
      </trkpt>
      <trkpt lat="41.5562700" lon="1.9896680">
        <ele>278.2</ele>
        <time>2022-04-09T07:28:19Z</time>
      </trkpt>
      <trkpt lat="41.5563560" lon="1.9896220">
        <ele>278.4</ele>
        <time>2022-04-09T07:28:21Z</time>
      </trkpt>
      <trkpt lat="41.5564640" lon="1.9896360">
        <ele>278.4</ele>
        <time>2022-04-09T07:28:23Z</time>
      </trkpt>
      <trkpt lat="41.5565850" lon="1.9896690">
        <ele>278.4</ele>
        <time>2022-04-09T07:28:25Z</time>
      </trkpt>
      <trkpt lat="41.5568180" lon="1.9897250">
        <ele>277.6</ele>
        <time>2022-04-09T07:28:29Z</time>
      </trkpt>
      <trkpt lat="41.5568660" lon="1.9897380">
        <ele>277.6</ele>
        <time>2022-04-09T07:28:30Z</time>
      </trkpt>
      <trkpt lat="41.5570180" lon="1.9897740">
        <ele>277.0</ele>
        <time>2022-04-09T07:28:33Z</time>
      </trkpt>
      <trkpt lat="41.5570710" lon="1.9897890">
        <ele>276.6</ele>
        <time>2022-04-09T07:28:34Z</time>
      </trkpt>
      <trkpt lat="41.5571250" lon="1.9898020">
        <ele>276.6</ele>
        <time>2022-04-09T07:28:35Z</time>
      </trkpt>
      <trkpt lat="41.5575130" lon="1.9899170">
        <ele>276.0</ele>
        <time>2022-04-09T07:28:42Z</time>
      </trkpt>
      <trkpt lat="41.5578810" lon="1.9900260">
        <ele>277.4</ele>
        <time>2022-04-09T07:28:49Z</time>
      </trkpt>
      <trkpt lat="41.5579750" lon="1.9900530">
        <ele>278.2</ele>
        <time>2022-04-09T07:28:51Z</time>
      </trkpt>
      <trkpt lat="41.5581160" lon="1.9900940">
        <ele>279.2</ele>
        <time>2022-04-09T07:28:54Z</time>
      </trkpt>
      <trkpt lat="41.5583030" lon="1.9901930">
        <ele>280.2</ele>
        <time>2022-04-09T07:28:58Z</time>
      </trkpt>
      <trkpt lat="41.5583560" lon="1.9902080">
        <ele>280.4</ele>
        <time>2022-04-09T07:28:59Z</time>
      </trkpt>
      <trkpt lat="41.5584530" lon="1.9902310">
        <ele>280.8</ele>
        <time>2022-04-09T07:29:01Z</time>
      </trkpt>
      <trkpt lat="41.5585350" lon="1.9902530">
        <ele>281.6</ele>
        <time>2022-04-09T07:29:03Z</time>
      </trkpt>
      <trkpt lat="41.5585750" lon="1.9902670">
        <ele>281.8</ele>
        <time>2022-04-09T07:29:04Z</time>
      </trkpt>
      <trkpt lat="41.5586320" lon="1.9902940">
        <ele>282.0</ele>
        <time>2022-04-09T07:29:06Z</time>
      </trkpt>
      <trkpt lat="41.5587120" lon="1.9903180">
        <ele>282.6</ele>
        <time>2022-04-09T07:29:09Z</time>
      </trkpt>
      <trkpt lat="41.5587410" lon="1.9903260">
        <ele>282.8</ele>
        <time>2022-04-09T07:29:10Z</time>
      </trkpt>
      <trkpt lat="41.5588220" lon="1.9903440">
        <ele>284.0</ele>
        <time>2022-04-09T07:29:13Z</time>
      </trkpt>
      <trkpt lat="41.5588880" lon="1.9903700">
        <ele>284.4</ele>
        <time>2022-04-09T07:29:16Z</time>
      </trkpt>
      <trkpt lat="41.5590390" lon="1.9904180">
        <ele>285.0</ele>
        <time>2022-04-09T07:29:21Z</time>
      </trkpt>
      <trkpt lat="41.5592750" lon="1.9904700">
        <ele>285.6</ele>
        <time>2022-04-09T07:29:27Z</time>
      </trkpt>
      <trkpt lat="41.5593540" lon="1.9904850">
        <ele>286.4</ele>
        <time>2022-04-09T07:29:29Z</time>
      </trkpt>
      <trkpt lat="41.5595440" lon="1.9905170">
        <ele>287.4</ele>
        <time>2022-04-09T07:29:34Z</time>
      </trkpt>
      <trkpt lat="41.5595760" lon="1.9905180">
        <ele>287.4</ele>
        <time>2022-04-09T07:29:35Z</time>
      </trkpt>
      <trkpt lat="41.5596900" lon="1.9905420">
        <ele>288.2</ele>
        <time>2022-04-09T07:29:39Z</time>
      </trkpt>
      <trkpt lat="41.5597680" lon="1.9905610">
        <ele>288.4</ele>
        <time>2022-04-09T07:29:41Z</time>
      </trkpt>
      <trkpt lat="41.5599150" lon="1.9906250">
        <ele>289.0</ele>
        <time>2022-04-09T07:29:45Z</time>
      </trkpt>
      <trkpt lat="41.5601420" lon="1.9907200">
        <ele>289.0</ele>
        <time>2022-04-09T07:29:49Z</time>
      </trkpt>
      <trkpt lat="41.5604470" lon="1.9907930">
        <ele>288.0</ele>
        <time>2022-04-09T07:29:53Z</time>
      </trkpt>
      <trkpt lat="41.5606140" lon="1.9908380">
        <ele>287.0</ele>
        <time>2022-04-09T07:29:55Z</time>
      </trkpt>
      <trkpt lat="41.5607790" lon="1.9908890">
        <ele>286.0</ele>
        <time>2022-04-09T07:29:57Z</time>
      </trkpt>
      <trkpt lat="41.5608530" lon="1.9909130">
        <ele>285.4</ele>
        <time>2022-04-09T07:29:58Z</time>
      </trkpt>
      <trkpt lat="41.5609260" lon="1.9909360">
        <ele>284.6</ele>
        <time>2022-04-09T07:29:59Z</time>
      </trkpt>
      <trkpt lat="41.5610670" lon="1.9909780">
        <ele>283.4</ele>
        <time>2022-04-09T07:30:01Z</time>
      </trkpt>
      <trkpt lat="41.5612510" lon="1.9910190">
        <ele>282.2</ele>
        <time>2022-04-09T07:30:04Z</time>
      </trkpt>
      <trkpt lat="41.5613460" lon="1.9910460">
        <ele>281.0</ele>
        <time>2022-04-09T07:30:06Z</time>
      </trkpt>
      <trkpt lat="41.5613950" lon="1.9910740">
        <ele>280.0</ele>
        <time>2022-04-09T07:30:08Z</time>
      </trkpt>
      <trkpt lat="41.5614070" lon="1.9910840">
        <ele>279.6</ele>
        <time>2022-04-09T07:30:09Z</time>
      </trkpt>
      <trkpt lat="41.5614150" lon="1.9910980">
        <ele>278.8</ele>
        <time>2022-04-09T07:30:12Z</time>
      </trkpt>
      <trkpt lat="41.5614280" lon="1.9911090">
        <ele>278.4</ele>
        <time>2022-04-09T07:30:14Z</time>
      </trkpt>
      <trkpt lat="41.5615010" lon="1.9911820">
        <ele>278.4</ele>
        <time>2022-04-09T07:30:17Z</time>
      </trkpt>
      <trkpt lat="41.5615990" lon="1.9912760">
        <ele>278.0</ele>
        <time>2022-04-09T07:30:20Z</time>
      </trkpt>
      <trkpt lat="41.5616540" lon="1.9913750">
        <ele>277.8</ele>
        <time>2022-04-09T07:30:22Z</time>
      </trkpt>
      <trkpt lat="41.5616760" lon="1.9914340">
        <ele>277.6</ele>
        <time>2022-04-09T07:30:23Z</time>
      </trkpt>
      <trkpt lat="41.5616900" lon="1.9914990">
        <ele>277.6</ele>
        <time>2022-04-09T07:30:24Z</time>
      </trkpt>
      <trkpt lat="41.5617000" lon="1.9915650">
        <ele>277.4</ele>
        <time>2022-04-09T07:30:25Z</time>
      </trkpt>
      <trkpt lat="41.5617300" lon="1.9917500">
        <ele>277.2</ele>
        <time>2022-04-09T07:30:28Z</time>
      </trkpt>
      <trkpt lat="41.5617570" lon="1.9919870">
        <ele>276.8</ele>
        <time>2022-04-09T07:30:32Z</time>
      </trkpt>
      <trkpt lat="41.5617660" lon="1.9921030">
        <ele>276.6</ele>
        <time>2022-04-09T07:30:34Z</time>
      </trkpt>
      <trkpt lat="41.5618140" lon="1.9922560">
        <ele>276.6</ele>
        <time>2022-04-09T07:30:37Z</time>
      </trkpt>
      <trkpt lat="41.5618800" lon="1.9923220">
        <ele>276.2</ele>
        <time>2022-04-09T07:30:39Z</time>
      </trkpt>
      <trkpt lat="41.5619220" lon="1.9923290">
        <ele>276.2</ele>
        <time>2022-04-09T07:30:40Z</time>
      </trkpt>
      <trkpt lat="41.5620170" lon="1.9923180">
        <ele>276.0</ele>
        <time>2022-04-09T07:30:42Z</time>
      </trkpt>
      <trkpt lat="41.5621530" lon="1.9923040">
        <ele>276.0</ele>
        <time>2022-04-09T07:30:45Z</time>
      </trkpt>
      <trkpt lat="41.5622360" lon="1.9922950">
        <ele>276.2</ele>
        <time>2022-04-09T07:30:47Z</time>
      </trkpt>
      <trkpt lat="41.5622770" lon="1.9922930">
        <ele>276.6</ele>
        <time>2022-04-09T07:30:48Z</time>
      </trkpt>
      <trkpt lat="41.5624060" lon="1.9923030">
        <ele>277.8</ele>
        <time>2022-04-09T07:30:51Z</time>
      </trkpt>
      <trkpt lat="41.5625440" lon="1.9923150">
        <ele>278.4</ele>
        <time>2022-04-09T07:30:54Z</time>
      </trkpt>
      <trkpt lat="41.5625900" lon="1.9923210">
        <ele>279.0</ele>
        <time>2022-04-09T07:30:55Z</time>
      </trkpt>
      <trkpt lat="41.5627240" lon="1.9923450">
        <ele>280.2</ele>
        <time>2022-04-09T07:30:58Z</time>
      </trkpt>
      <trkpt lat="41.5628510" lon="1.9923720">
        <ele>281.4</ele>
        <time>2022-04-09T07:31:01Z</time>
      </trkpt>
      <trkpt lat="41.5629790" lon="1.9924100">
        <ele>282.4</ele>
        <time>2022-04-09T07:31:04Z</time>
      </trkpt>
      <trkpt lat="41.5631090" lon="1.9924550">
        <ele>283.6</ele>
        <time>2022-04-09T07:31:07Z</time>
      </trkpt>
      <trkpt lat="41.5632680" lon="1.9925310">
        <ele>284.8</ele>
        <time>2022-04-09T07:31:11Z</time>
      </trkpt>
      <trkpt lat="41.5633070" lon="1.9925520">
        <ele>285.4</ele>
        <time>2022-04-09T07:31:12Z</time>
      </trkpt>
      <trkpt lat="41.5633800" lon="1.9925990">
        <ele>286.0</ele>
        <time>2022-04-09T07:31:14Z</time>
      </trkpt>
      <trkpt lat="41.5635150" lon="1.9926990">
        <ele>287.0</ele>
        <time>2022-04-09T07:31:18Z</time>
      </trkpt>
      <trkpt lat="41.5635780" lon="1.9927550">
        <ele>287.6</ele>
        <time>2022-04-09T07:31:20Z</time>
      </trkpt>
      <trkpt lat="41.5636110" lon="1.9927840">
        <ele>288.2</ele>
        <time>2022-04-09T07:31:21Z</time>
      </trkpt>
      <trkpt lat="41.5637990" lon="1.9929820">
        <ele>289.2</ele>
        <time>2022-04-09T07:31:27Z</time>
      </trkpt>
      <trkpt lat="41.5638270" lon="1.9930200">
        <ele>289.6</ele>
        <time>2022-04-09T07:31:28Z</time>
      </trkpt>
      <trkpt lat="41.5639830" lon="1.9932000">
        <ele>290.4</ele>
        <time>2022-04-09T07:31:33Z</time>
      </trkpt>
      <trkpt lat="41.5640810" lon="1.9933930">
        <ele>290.8</ele>
        <time>2022-04-09T07:31:38Z</time>
      </trkpt>
      <trkpt lat="41.5641080" lon="1.9934890">
        <ele>291.4</ele>
        <time>2022-04-09T07:31:40Z</time>
      </trkpt>
      <trkpt lat="41.5641390" lon="1.9936380">
        <ele>291.8</ele>
        <time>2022-04-09T07:31:43Z</time>
      </trkpt>
      <trkpt lat="41.5642270" lon="1.9938560">
        <ele>292.4</ele>
        <time>2022-04-09T07:31:47Z</time>
      </trkpt>
      <trkpt lat="41.5642550" lon="1.9939040">
        <ele>292.6</ele>
        <time>2022-04-09T07:31:48Z</time>
      </trkpt>
      <trkpt lat="41.5644370" lon="1.9941820">
        <ele>293.2</ele>
        <time>2022-04-09T07:31:53Z</time>
      </trkpt>
      <trkpt lat="41.5644750" lon="1.9942680">
        <ele>293.6</ele>
        <time>2022-04-09T07:31:55Z</time>
      </trkpt>
      <trkpt lat="41.5645630" lon="1.9943590">
        <ele>293.8</ele>
        <time>2022-04-09T07:31:57Z</time>
      </trkpt>
      <trkpt lat="41.5646930" lon="1.9945920">
        <ele>294.4</ele>
        <time>2022-04-09T07:32:02Z</time>
      </trkpt>
      <trkpt lat="41.5647720" lon="1.9947170">
        <ele>294.6</ele>
        <time>2022-04-09T07:32:05Z</time>
      </trkpt>
      <trkpt lat="41.5647940" lon="1.9947720">
        <ele>294.6</ele>
        <time>2022-04-09T07:32:06Z</time>
      </trkpt>
      <trkpt lat="41.5648180" lon="1.9948290">
        <ele>294.8</ele>
        <time>2022-04-09T07:32:07Z</time>
      </trkpt>
      <trkpt lat="41.5648790" lon="1.9949290">
        <ele>294.8</ele>
        <time>2022-04-09T07:32:09Z</time>
      </trkpt>
      <trkpt lat="41.5649670" lon="1.9951070">
        <ele>294.2</ele>
        <time>2022-04-09T07:32:12Z</time>
      </trkpt>
      <trkpt lat="41.5650180" lon="1.9952750">
        <ele>293.4</ele>
        <time>2022-04-09T07:32:15Z</time>
      </trkpt>
      <trkpt lat="41.5650640" lon="1.9953760">
        <ele>292.6</ele>
        <time>2022-04-09T07:32:17Z</time>
      </trkpt>
      <trkpt lat="41.5650990" lon="1.9954300">
        <ele>292.2</ele>
        <time>2022-04-09T07:32:18Z</time>
      </trkpt>
      <trkpt lat="41.5652040" lon="1.9956100">
        <ele>291.0</ele>
        <time>2022-04-09T07:32:21Z</time>
      </trkpt>
      <trkpt lat="41.5652430" lon="1.9956700">
        <ele>291.0</ele>
        <time>2022-04-09T07:32:22Z</time>
      </trkpt>
      <trkpt lat="41.5652790" lon="1.9957340">
        <ele>290.8</ele>
        <time>2022-04-09T07:32:23Z</time>
      </trkpt>
      <trkpt lat="41.5653500" lon="1.9958990">
        <ele>290.4</ele>
        <time>2022-04-09T07:32:26Z</time>
      </trkpt>
      <trkpt lat="41.5653710" lon="1.9959500">
        <ele>290.4</ele>
        <time>2022-04-09T07:32:27Z</time>
      </trkpt>
      <trkpt lat="41.5654220" lon="1.9960570">
        <ele>290.4</ele>
        <time>2022-04-09T07:32:29Z</time>
      </trkpt>
      <trkpt lat="41.5654770" lon="1.9961590">
        <ele>290.6</ele>
        <time>2022-04-09T07:32:31Z</time>
      </trkpt>
      <trkpt lat="41.5655610" lon="1.9963250">
        <ele>290.8</ele>
        <time>2022-04-09T07:32:34Z</time>
      </trkpt>
      <trkpt lat="41.5656550" lon="1.9965230">
        <ele>292.2</ele>
        <time>2022-04-09T07:32:38Z</time>
      </trkpt>
      <trkpt lat="41.5657310" lon="1.9966600">
        <ele>293.4</ele>
        <time>2022-04-09T07:32:41Z</time>
      </trkpt>
      <trkpt lat="41.5657550" lon="1.9967000">
        <ele>293.6</ele>
        <time>2022-04-09T07:32:42Z</time>
      </trkpt>
      <trkpt lat="41.5657840" lon="1.9967680">
        <ele>294.8</ele>
        <time>2022-04-09T07:32:44Z</time>
      </trkpt>
      <trkpt lat="41.5657920" lon="1.9968040">
        <ele>295.4</ele>
        <time>2022-04-09T07:32:45Z</time>
      </trkpt>
      <trkpt lat="41.5658040" lon="1.9968400">
        <ele>295.6</ele>
        <time>2022-04-09T07:32:46Z</time>
      </trkpt>
      <trkpt lat="41.5658260" lon="1.9968750">
        <ele>296.6</ele>
        <time>2022-04-09T07:32:47Z</time>
      </trkpt>
      <trkpt lat="41.5658710" lon="1.9969470">
        <ele>297.6</ele>
        <time>2022-04-09T07:32:49Z</time>
      </trkpt>
      <trkpt lat="41.5659300" lon="1.9969990">
        <ele>298.2</ele>
        <time>2022-04-09T07:32:51Z</time>
      </trkpt>
      <trkpt lat="41.5659620" lon="1.9970300">
        <ele>298.8</ele>
        <time>2022-04-09T07:32:52Z</time>
      </trkpt>
      <trkpt lat="41.5660390" lon="1.9971730">
        <ele>299.2</ele>
        <time>2022-04-09T07:32:55Z</time>
      </trkpt>
      <trkpt lat="41.5660840" lon="1.9972640">
        <ele>299.8</ele>
        <time>2022-04-09T07:32:57Z</time>
      </trkpt>
      <trkpt lat="41.5661520" lon="1.9974110">
        <ele>300.4</ele>
        <time>2022-04-09T07:33:00Z</time>
      </trkpt>
      <trkpt lat="41.5661820" lon="1.9974570">
        <ele>300.8</ele>
        <time>2022-04-09T07:33:01Z</time>
      </trkpt>
      <trkpt lat="41.5662430" lon="1.9975570">
        <ele>301.0</ele>
        <time>2022-04-09T07:33:03Z</time>
      </trkpt>
      <trkpt lat="41.5662680" lon="1.9976090">
        <ele>301.0</ele>
        <time>2022-04-09T07:33:04Z</time>
      </trkpt>
      <trkpt lat="41.5662970" lon="1.9976660">
        <ele>301.0</ele>
        <time>2022-04-09T07:33:05Z</time>
      </trkpt>
      <trkpt lat="41.5663240" lon="1.9977200">
        <ele>301.0</ele>
        <time>2022-04-09T07:33:06Z</time>
      </trkpt>
      <trkpt lat="41.5664270" lon="1.9979580">
        <ele>301.6</ele>
        <time>2022-04-09T07:33:10Z</time>
      </trkpt>
      <trkpt lat="41.5664470" lon="1.9980310">
        <ele>301.6</ele>
        <time>2022-04-09T07:33:11Z</time>
      </trkpt>
      <trkpt lat="41.5664860" lon="1.9981790">
        <ele>301.2</ele>
        <time>2022-04-09T07:33:13Z</time>
      </trkpt>
      <trkpt lat="41.5665100" lon="1.9982530">
        <ele>301.2</ele>
        <time>2022-04-09T07:33:14Z</time>
      </trkpt>
      <trkpt lat="41.5665390" lon="1.9983240">
        <ele>301.0</ele>
        <time>2022-04-09T07:33:15Z</time>
      </trkpt>
      <trkpt lat="41.5666850" lon="1.9985700">
        <ele>299.6</ele>
        <time>2022-04-09T07:33:19Z</time>
      </trkpt>
      <trkpt lat="41.5667680" lon="1.9987360">
        <ele>297.6</ele>
        <time>2022-04-09T07:33:22Z</time>
      </trkpt>
      <trkpt lat="41.5667990" lon="1.9988600">
        <ele>296.2</ele>
        <time>2022-04-09T07:33:24Z</time>
      </trkpt>
      <trkpt lat="41.5668270" lon="1.9989890">
        <ele>295.0</ele>
        <time>2022-04-09T07:33:26Z</time>
      </trkpt>
      <trkpt lat="41.5668550" lon="1.9990610">
        <ele>294.2</ele>
        <time>2022-04-09T07:33:27Z</time>
      </trkpt>
      <trkpt lat="41.5669190" lon="1.9992060">
        <ele>293.6</ele>
        <time>2022-04-09T07:33:29Z</time>
      </trkpt>
      <trkpt lat="41.5669630" lon="1.9993330">
        <ele>291.8</ele>
        <time>2022-04-09T07:33:31Z</time>
      </trkpt>
      <trkpt lat="41.5669790" lon="1.9994440">
        <ele>290.2</ele>
        <time>2022-04-09T07:33:33Z</time>
      </trkpt>
      <trkpt lat="41.5669940" lon="1.9994960">
        <ele>289.4</ele>
        <time>2022-04-09T07:33:34Z</time>
      </trkpt>
      <trkpt lat="41.5670020" lon="1.9995460">
        <ele>289.2</ele>
        <time>2022-04-09T07:33:35Z</time>
      </trkpt>
      <trkpt lat="41.5670290" lon="1.9996240">
        <ele>287.8</ele>
        <time>2022-04-09T07:33:37Z</time>
      </trkpt>
      <trkpt lat="41.5670510" lon="1.9996510">
        <ele>287.2</ele>
        <time>2022-04-09T07:33:38Z</time>
      </trkpt>
      <trkpt lat="41.5670930" lon="1.9997150">
        <ele>286.2</ele>
        <time>2022-04-09T07:33:40Z</time>
      </trkpt>
      <trkpt lat="41.5671180" lon="1.9997140">
        <ele>285.8</ele>
        <time>2022-04-09T07:33:41Z</time>
      </trkpt>
      <trkpt lat="41.5671950" lon="1.9996270">
        <ele>285.0</ele>
        <time>2022-04-09T07:33:43Z</time>
      </trkpt>
      <trkpt lat="41.5672280" lon="1.9995670">
        <ele>285.0</ele>
        <time>2022-04-09T07:33:44Z</time>
      </trkpt>
      <trkpt lat="41.5672780" lon="1.9995060">
        <ele>284.8</ele>
        <time>2022-04-09T07:33:46Z</time>
      </trkpt>
      <trkpt lat="41.5673000" lon="1.9994680">
        <ele>284.8</ele>
        <time>2022-04-09T07:33:47Z</time>
      </trkpt>
      <trkpt lat="41.5674650" lon="1.9991990">
        <ele>285.0</ele>
        <time>2022-04-09T07:33:52Z</time>
      </trkpt>
      <trkpt lat="41.5675330" lon="1.9990950">
        <ele>285.0</ele>
        <time>2022-04-09T07:33:54Z</time>
      </trkpt>
      <trkpt lat="41.5676290" lon="1.9989270">
        <ele>285.4</ele>
        <time>2022-04-09T07:33:57Z</time>
      </trkpt>
      <trkpt lat="41.5677870" lon="1.9986320">
        <ele>285.6</ele>
        <time>2022-04-09T07:34:02Z</time>
      </trkpt>
      <trkpt lat="41.5678750" lon="1.9985280">
        <ele>285.6</ele>
        <time>2022-04-09T07:34:04Z</time>
      </trkpt>
      <trkpt lat="41.5679800" lon="1.9984680">
        <ele>285.6</ele>
        <time>2022-04-09T07:34:06Z</time>
      </trkpt>
      <trkpt lat="41.5681160" lon="1.9984190">
        <ele>285.8</ele>
        <time>2022-04-09T07:34:09Z</time>
      </trkpt>
      <trkpt lat="41.5681600" lon="1.9984170">
        <ele>286.0</ele>
        <time>2022-04-09T07:34:10Z</time>
      </trkpt>
      <trkpt lat="41.5682040" lon="1.9984190">
        <ele>286.4</ele>
        <time>2022-04-09T07:34:11Z</time>
      </trkpt>
      <trkpt lat="41.5683260" lon="1.9983950">
        <ele>287.0</ele>
        <time>2022-04-09T07:34:14Z</time>
      </trkpt>
      <trkpt lat="41.5683690" lon="1.9983820">
        <ele>287.6</ele>
        <time>2022-04-09T07:34:15Z</time>
      </trkpt>
      <trkpt lat="41.5685470" lon="1.9982700">
        <ele>288.6</ele>
        <time>2022-04-09T07:34:19Z</time>
      </trkpt>
      <trkpt lat="41.5686260" lon="1.9982460">
        <ele>289.0</ele>
        <time>2022-04-09T07:34:21Z</time>
      </trkpt>
      <trkpt lat="41.5687040" lon="1.9983200">
        <ele>289.2</ele>
        <time>2022-04-09T07:34:23Z</time>
      </trkpt>
      <trkpt lat="41.5687780" lon="1.9983930">
        <ele>290.0</ele>
        <time>2022-04-09T07:34:25Z</time>
      </trkpt>
      <trkpt lat="41.5688030" lon="1.9984230">
        <ele>290.2</ele>
        <time>2022-04-09T07:34:26Z</time>
      </trkpt>
      <trkpt lat="41.5688440" lon="1.9984860">
        <ele>291.0</ele>
        <time>2022-04-09T07:34:28Z</time>
      </trkpt>
      <trkpt lat="41.5688650" lon="1.9985320">
        <ele>291.6</ele>
        <time>2022-04-09T07:34:30Z</time>
      </trkpt>
      <trkpt lat="41.5688590" lon="1.9985640">
        <ele>292.0</ele>
        <time>2022-04-09T07:34:31Z</time>
      </trkpt>
      <trkpt lat="41.5688230" lon="1.9986440">
        <ele>293.4</ele>
        <time>2022-04-09T07:34:33Z</time>
      </trkpt>
      <trkpt lat="41.5687980" lon="1.9986760">
        <ele>294.2</ele>
        <time>2022-04-09T07:34:34Z</time>
      </trkpt>
      <trkpt lat="41.5687520" lon="1.9987400">
        <ele>294.8</ele>
        <time>2022-04-09T07:34:36Z</time>
      </trkpt>
      <trkpt lat="41.5686950" lon="1.9989370">
        <ele>295.2</ele>
        <time>2022-04-09T07:34:39Z</time>
      </trkpt>
      <trkpt lat="41.5687000" lon="1.9990690">
        <ele>295.0</ele>
        <time>2022-04-09T07:34:41Z</time>
      </trkpt>
      <trkpt lat="41.5687280" lon="1.9990980">
        <ele>295.0</ele>
        <time>2022-04-09T07:34:42Z</time>
      </trkpt>
      <trkpt lat="41.5688250" lon="1.9991010">
        <ele>295.0</ele>
        <time>2022-04-09T07:34:45Z</time>
      </trkpt>
      <trkpt lat="41.5688640" lon="1.9990770">
        <ele>295.0</ele>
        <time>2022-04-09T07:34:46Z</time>
      </trkpt>
      <trkpt lat="41.5690160" lon="1.9989770">
        <ele>295.4</ele>
        <time>2022-04-09T07:34:51Z</time>
      </trkpt>
      <trkpt lat="41.5690480" lon="1.9989590">
        <ele>296.2</ele>
        <time>2022-04-09T07:34:52Z</time>
      </trkpt>
      <trkpt lat="41.5691280" lon="1.9989210">
        <ele>297.6</ele>
        <time>2022-04-09T07:34:55Z</time>
      </trkpt>
      <trkpt lat="41.5691710" lon="1.9988930">
        <ele>298.0</ele>
        <time>2022-04-09T07:34:57Z</time>
      </trkpt>
      <trkpt lat="41.5691940" lon="1.9988900">
        <ele>298.0</ele>
        <time>2022-04-09T07:34:58Z</time>
      </trkpt>
      <trkpt lat="41.5692120" lon="1.9988900">
        <ele>298.6</ele>
        <time>2022-04-09T07:34:59Z</time>
      </trkpt>
      <trkpt lat="41.5692370" lon="1.9988720">
        <ele>299.0</ele>
        <time>2022-04-09T07:35:00Z</time>
      </trkpt>
      <trkpt lat="41.5692670" lon="1.9988520">
        <ele>299.4</ele>
        <time>2022-04-09T07:35:01Z</time>
      </trkpt>
      <trkpt lat="41.5692970" lon="1.9988330">
        <ele>299.8</ele>
        <time>2022-04-09T07:35:02Z</time>
      </trkpt>
      <trkpt lat="41.5693820" lon="1.9987740">
        <ele>300.6</ele>
        <time>2022-04-09T07:35:05Z</time>
      </trkpt>
      <trkpt lat="41.5694130" lon="1.9987390">
        <ele>301.0</ele>
        <time>2022-04-09T07:35:06Z</time>
      </trkpt>
      <trkpt lat="41.5694440" lon="1.9987120">
        <ele>301.2</ele>
        <time>2022-04-09T07:35:07Z</time>
      </trkpt>
      <trkpt lat="41.5695410" lon="1.9986840">
        <ele>301.4</ele>
        <time>2022-04-09T07:35:10Z</time>
      </trkpt>
      <trkpt lat="41.5696050" lon="1.9987530">
        <ele>301.4</ele>
        <time>2022-04-09T07:35:12Z</time>
      </trkpt>
      <trkpt lat="41.5697590" lon="1.9989100">
        <ele>302.0</ele>
        <time>2022-04-09T07:35:17Z</time>
      </trkpt>
      <trkpt lat="41.5698240" lon="1.9989700">
        <ele>302.2</ele>
        <time>2022-04-09T07:35:19Z</time>
      </trkpt>
      <trkpt lat="41.5700450" lon="1.9992310">
        <ele>302.8</ele>
        <time>2022-04-09T07:35:26Z</time>
      </trkpt>
      <trkpt lat="41.5701090" lon="1.9992980">
        <ele>303.0</ele>
        <time>2022-04-09T07:35:28Z</time>
      </trkpt>
      <trkpt lat="41.5702650" lon="1.9995380">
        <ele>304.0</ele>
        <time>2022-04-09T07:35:34Z</time>
      </trkpt>
      <trkpt lat="41.5703150" lon="1.9996170">
        <ele>304.2</ele>
        <time>2022-04-09T07:35:36Z</time>
      </trkpt>
      <trkpt lat="41.5704500" lon="1.9997610">
        <ele>304.6</ele>
        <time>2022-04-09T07:35:40Z</time>
      </trkpt>
      <trkpt lat="41.5705970" lon="1.9998790">
        <ele>305.0</ele>
        <time>2022-04-09T07:35:44Z</time>
      </trkpt>
      <trkpt lat="41.5706660" lon="1.9999390">
        <ele>305.2</ele>
        <time>2022-04-09T07:35:46Z</time>
      </trkpt>
      <trkpt lat="41.5710300" lon="2.0002490">
        <ele>306.0</ele>
        <time>2022-04-09T07:35:56Z</time>
      </trkpt>
      <trkpt lat="41.5711820" lon="2.0003720">
        <ele>306.2</ele>
        <time>2022-04-09T07:36:00Z</time>
      </trkpt>
      <trkpt lat="41.5713740" lon="2.0005330">
        <ele>306.6</ele>
        <time>2022-04-09T07:36:05Z</time>
      </trkpt>
      <trkpt lat="41.5715090" lon="2.0006140">
        <ele>306.8</ele>
        <time>2022-04-09T07:36:08Z</time>
      </trkpt>
      <trkpt lat="41.5715850" lon="2.0006840">
        <ele>306.8</ele>
        <time>2022-04-09T07:36:10Z</time>
      </trkpt>
      <trkpt lat="41.5716290" lon="2.0007130">
        <ele>306.8</ele>
        <time>2022-04-09T07:36:11Z</time>
      </trkpt>
      <trkpt lat="41.5717590" lon="2.0007980">
        <ele>307.2</ele>
        <time>2022-04-09T07:36:14Z</time>
      </trkpt>
      <trkpt lat="41.5718390" lon="2.0008730">
        <ele>307.2</ele>
        <time>2022-04-09T07:36:16Z</time>
      </trkpt>
      <trkpt lat="41.5718810" lon="2.0008970">
        <ele>307.4</ele>
        <time>2022-04-09T07:36:17Z</time>
      </trkpt>
      <trkpt lat="41.5719300" lon="2.0009100">
        <ele>307.4</ele>
        <time>2022-04-09T07:36:18Z</time>
      </trkpt>
      <trkpt lat="41.5719810" lon="2.0009310">
        <ele>307.4</ele>
        <time>2022-04-09T07:36:19Z</time>
      </trkpt>
      <trkpt lat="41.5720250" lon="2.0009570">
        <ele>307.4</ele>
        <time>2022-04-09T07:36:20Z</time>
      </trkpt>
      <trkpt lat="41.5721860" lon="2.0010630">
        <ele>307.2</ele>
        <time>2022-04-09T07:36:24Z</time>
      </trkpt>
      <trkpt lat="41.5722310" lon="2.0010820">
        <ele>307.0</ele>
        <time>2022-04-09T07:36:25Z</time>
      </trkpt>
      <trkpt lat="41.5722770" lon="2.0010930">
        <ele>307.0</ele>
        <time>2022-04-09T07:36:26Z</time>
      </trkpt>
      <trkpt lat="41.5724240" lon="2.0011570">
        <ele>306.8</ele>
        <time>2022-04-09T07:36:29Z</time>
      </trkpt>
      <trkpt lat="41.5725550" lon="2.0012000">
        <ele>306.6</ele>
        <time>2022-04-09T07:36:31Z</time>
      </trkpt>
      <trkpt lat="41.5726240" lon="2.0012320">
        <ele>306.2</ele>
        <time>2022-04-09T07:36:32Z</time>
      </trkpt>
      <trkpt lat="41.5730150" lon="2.0016000">
        <ele>305.0</ele>
        <time>2022-04-09T07:36:38Z</time>
      </trkpt>
      <trkpt lat="41.5732980" lon="2.0017560">
        <ele>303.8</ele>
        <time>2022-04-09T07:36:42Z</time>
      </trkpt>
      <trkpt lat="41.5734300" lon="2.0018310">
        <ele>303.0</ele>
        <time>2022-04-09T07:36:44Z</time>
      </trkpt>
      <trkpt lat="41.5735440" lon="2.0019120">
        <ele>302.4</ele>
        <time>2022-04-09T07:36:46Z</time>
      </trkpt>
      <trkpt lat="41.5735960" lon="2.0019510">
        <ele>302.2</ele>
        <time>2022-04-09T07:36:47Z</time>
      </trkpt>
      <trkpt lat="41.5736750" lon="2.0020310">
        <ele>302.2</ele>
        <time>2022-04-09T07:36:49Z</time>
      </trkpt>
      <trkpt lat="41.5737310" lon="2.0021150">
        <ele>302.2</ele>
        <time>2022-04-09T07:36:51Z</time>
      </trkpt>
      <trkpt lat="41.5737780" lon="2.0022620">
        <ele>302.2</ele>
        <time>2022-04-09T07:36:54Z</time>
      </trkpt>
      <trkpt lat="41.5737900" lon="2.0023740">
        <ele>302.6</ele>
        <time>2022-04-09T07:36:56Z</time>
      </trkpt>
      <trkpt lat="41.5738100" lon="2.0026360">
        <ele>303.0</ele>
        <time>2022-04-09T07:37:00Z</time>
      </trkpt>
      <trkpt lat="41.5738490" lon="2.0027720">
        <ele>303.0</ele>
        <time>2022-04-09T07:37:02Z</time>
      </trkpt>
      <trkpt lat="41.5739440" lon="2.0030160">
        <ele>302.8</ele>
        <time>2022-04-09T07:37:06Z</time>
      </trkpt>
      <trkpt lat="41.5739630" lon="2.0030750">
        <ele>302.8</ele>
        <time>2022-04-09T07:37:07Z</time>
      </trkpt>
      <trkpt lat="41.5740010" lon="2.0032320">
        <ele>303.2</ele>
        <time>2022-04-09T07:37:10Z</time>
      </trkpt>
      <trkpt lat="41.5740220" lon="2.0033200">
        <ele>303.6</ele>
        <time>2022-04-09T07:37:12Z</time>
      </trkpt>
      <trkpt lat="41.5740400" lon="2.0034150">
        <ele>304.4</ele>
        <time>2022-04-09T07:37:15Z</time>
      </trkpt>
      <trkpt lat="41.5740420" lon="2.0034330">
        <ele>304.8</ele>
        <time>2022-04-09T07:37:16Z</time>
      </trkpt>
      <trkpt lat="41.5740390" lon="2.0034790">
        <ele>305.6</ele>
        <time>2022-04-09T07:37:19Z</time>
      </trkpt>
      <trkpt lat="41.5740360" lon="2.0034990">
        <ele>305.8</ele>
        <time>2022-04-09T07:37:20Z</time>
      </trkpt>
      <trkpt lat="41.5740470" lon="2.0035480">
        <ele>306.0</ele>
        <time>2022-04-09T07:37:22Z</time>
      </trkpt>
      <trkpt lat="41.5740490" lon="2.0035850">
        <ele>306.2</ele>
        <time>2022-04-09T07:37:23Z</time>
      </trkpt>
      <trkpt lat="41.5741000" lon="2.0038310">
        <ele>306.4</ele>
        <time>2022-04-09T07:37:28Z</time>
      </trkpt>
      <trkpt lat="41.5741340" lon="2.0039420">
        <ele>306.6</ele>
        <time>2022-04-09T07:37:30Z</time>
      </trkpt>
      <trkpt lat="41.5741670" lon="2.0040600">
        <ele>306.8</ele>
        <time>2022-04-09T07:37:32Z</time>
      </trkpt>
      <trkpt lat="41.5741930" lon="2.0042270">
        <ele>307.6</ele>
        <time>2022-04-09T07:37:35Z</time>
      </trkpt>
      <trkpt lat="41.5742100" lon="2.0042790">
        <ele>307.6</ele>
        <time>2022-04-09T07:37:36Z</time>
      </trkpt>
      <trkpt lat="41.5742220" lon="2.0043360">
        <ele>307.8</ele>
        <time>2022-04-09T07:37:37Z</time>
      </trkpt>
      <trkpt lat="41.5742410" lon="2.0045660">
        <ele>308.8</ele>
        <time>2022-04-09T07:37:41Z</time>
      </trkpt>
      <trkpt lat="41.5743110" lon="2.0047760">
        <ele>309.4</ele>
        <time>2022-04-09T07:37:45Z</time>
      </trkpt>
      <trkpt lat="41.5743240" lon="2.0049440">
        <ele>309.8</ele>
        <time>2022-04-09T07:37:48Z</time>
      </trkpt>
      <trkpt lat="41.5743900" lon="2.0051950">
        <ele>310.2</ele>
        <time>2022-04-09T07:37:52Z</time>
      </trkpt>
      <trkpt lat="41.5744820" lon="2.0055320">
        <ele>311.0</ele>
        <time>2022-04-09T07:37:57Z</time>
      </trkpt>
      <trkpt lat="41.5745450" lon="2.0058630">
        <ele>311.6</ele>
        <time>2022-04-09T07:38:02Z</time>
      </trkpt>
      <trkpt lat="41.5745590" lon="2.0060270">
        <ele>312.2</ele>
        <time>2022-04-09T07:38:05Z</time>
      </trkpt>
      <trkpt lat="41.5745710" lon="2.0061450">
        <ele>312.4</ele>
        <time>2022-04-09T07:38:07Z</time>
      </trkpt>
      <trkpt lat="41.5746120" lon="2.0064400">
        <ele>312.8</ele>
        <time>2022-04-09T07:38:12Z</time>
      </trkpt>
      <trkpt lat="41.5746340" lon="2.0065700">
        <ele>313.0</ele>
        <time>2022-04-09T07:38:14Z</time>
      </trkpt>
      <trkpt lat="41.5746640" lon="2.0066690">
        <ele>313.2</ele>
        <time>2022-04-09T07:38:16Z</time>
      </trkpt>
      <trkpt lat="41.5746810" lon="2.0067980">
        <ele>313.6</ele>
        <time>2022-04-09T07:38:18Z</time>
      </trkpt>
      <trkpt lat="41.5746770" lon="2.0069310">
        <ele>313.8</ele>
        <time>2022-04-09T07:38:20Z</time>
      </trkpt>
      <trkpt lat="41.5745590" lon="2.0072090">
        <ele>314.2</ele>
        <time>2022-04-09T07:38:24Z</time>
      </trkpt>
      <trkpt lat="41.5745460" lon="2.0073570">
        <ele>314.4</ele>
        <time>2022-04-09T07:38:26Z</time>
      </trkpt>
      <trkpt lat="41.5745690" lon="2.0074890">
        <ele>314.6</ele>
        <time>2022-04-09T07:38:28Z</time>
      </trkpt>
      <trkpt lat="41.5746210" lon="2.0076120">
        <ele>314.8</ele>
        <time>2022-04-09T07:38:30Z</time>
      </trkpt>
      <trkpt lat="41.5746880" lon="2.0078750">
        <ele>315.0</ele>
        <time>2022-04-09T07:38:34Z</time>
      </trkpt>
      <trkpt lat="41.5747040" lon="2.0079300">
        <ele>315.2</ele>
        <time>2022-04-09T07:38:35Z</time>
      </trkpt>
      <trkpt lat="41.5747180" lon="2.0079930">
        <ele>315.2</ele>
        <time>2022-04-09T07:38:36Z</time>
      </trkpt>
      <trkpt lat="41.5747240" lon="2.0080520">
        <ele>315.4</ele>
        <time>2022-04-09T07:38:37Z</time>
      </trkpt>
      <trkpt lat="41.5747380" lon="2.0081120">
        <ele>315.6</ele>
        <time>2022-04-09T07:38:38Z</time>
      </trkpt>
      <trkpt lat="41.5747540" lon="2.0083650">
        <ele>315.8</ele>
        <time>2022-04-09T07:38:42Z</time>
      </trkpt>
      <trkpt lat="41.5747650" lon="2.0085540">
        <ele>316.4</ele>
        <time>2022-04-09T07:38:45Z</time>
      </trkpt>
      <trkpt lat="41.5748070" lon="2.0087230">
        <ele>316.8</ele>
        <time>2022-04-09T07:38:48Z</time>
      </trkpt>
      <trkpt lat="41.5748620" lon="2.0090730">
        <ele>317.8</ele>
        <time>2022-04-09T07:38:54Z</time>
      </trkpt>
      <trkpt lat="41.5748450" lon="2.0091840">
        <ele>318.2</ele>
        <time>2022-04-09T07:38:56Z</time>
      </trkpt>
      <trkpt lat="41.5748160" lon="2.0093010">
        <ele>318.2</ele>
        <time>2022-04-09T07:38:58Z</time>
      </trkpt>
      <trkpt lat="41.5748020" lon="2.0093590">
        <ele>318.6</ele>
        <time>2022-04-09T07:38:59Z</time>
      </trkpt>
      <trkpt lat="41.5747830" lon="2.0094760">
        <ele>319.0</ele>
        <time>2022-04-09T07:39:01Z</time>
      </trkpt>
      <trkpt lat="41.5747790" lon="2.0095360">
        <ele>319.0</ele>
        <time>2022-04-09T07:39:02Z</time>
      </trkpt>
      <trkpt lat="41.5747710" lon="2.0095950">
        <ele>319.0</ele>
        <time>2022-04-09T07:39:03Z</time>
      </trkpt>
      <trkpt lat="41.5747710" lon="2.0096550">
        <ele>319.2</ele>
        <time>2022-04-09T07:39:04Z</time>
      </trkpt>
      <trkpt lat="41.5747720" lon="2.0098970">
        <ele>319.4</ele>
        <time>2022-04-09T07:39:08Z</time>
      </trkpt>
      <trkpt lat="41.5747880" lon="2.0101510">
        <ele>319.4</ele>
        <time>2022-04-09T07:39:12Z</time>
      </trkpt>
      <trkpt lat="41.5748160" lon="2.0103440">
        <ele>319.6</ele>
        <time>2022-04-09T07:39:15Z</time>
      </trkpt>
      <trkpt lat="41.5747880" lon="2.0106250">
        <ele>319.6</ele>
        <time>2022-04-09T07:39:19Z</time>
      </trkpt>
      <trkpt lat="41.5747870" lon="2.0107650">
        <ele>319.6</ele>
        <time>2022-04-09T07:39:21Z</time>
      </trkpt>
      <trkpt lat="41.5747720" lon="2.0109030">
        <ele>319.6</ele>
        <time>2022-04-09T07:39:23Z</time>
      </trkpt>
      <trkpt lat="41.5747840" lon="2.0110540">
        <ele>319.8</ele>
        <time>2022-04-09T07:39:25Z</time>
      </trkpt>
      <trkpt lat="41.5747840" lon="2.0112030">
        <ele>319.8</ele>
        <time>2022-04-09T07:39:27Z</time>
      </trkpt>
      <trkpt lat="41.5747790" lon="2.0114360">
        <ele>320.0</ele>
        <time>2022-04-09T07:39:30Z</time>
      </trkpt>
      <trkpt lat="41.5747790" lon="2.0115130">
        <ele>320.2</ele>
        <time>2022-04-09T07:39:31Z</time>
      </trkpt>
      <trkpt lat="41.5747920" lon="2.0115920">
        <ele>320.2</ele>
        <time>2022-04-09T07:39:32Z</time>
      </trkpt>
      <trkpt lat="41.5748650" lon="2.0118170">
        <ele>320.4</ele>
        <time>2022-04-09T07:39:35Z</time>
      </trkpt>
      <trkpt lat="41.5748970" lon="2.0120730">
        <ele>320.8</ele>
        <time>2022-04-09T07:39:40Z</time>
      </trkpt>
      <trkpt lat="41.5748860" lon="2.0121700">
        <ele>321.2</ele>
        <time>2022-04-09T07:39:43Z</time>
      </trkpt>
      <trkpt lat="41.5748810" lon="2.0122050">
        <ele>321.4</ele>
        <time>2022-04-09T07:39:45Z</time>
      </trkpt>
      <trkpt lat="41.5748750" lon="2.0122410">
        <ele>321.6</ele>
        <time>2022-04-09T07:40:08Z</time>
      </trkpt>
      <trkpt lat="41.5748700" lon="2.0122760">
        <ele>321.6</ele>
        <time>2022-04-09T07:40:09Z</time>
      </trkpt>
      <trkpt lat="41.5748630" lon="2.0124960">
        <ele>321.4</ele>
        <time>2022-04-09T07:40:13Z</time>
      </trkpt>
      <trkpt lat="41.5748650" lon="2.0125530">
        <ele>321.4</ele>
        <time>2022-04-09T07:40:14Z</time>
      </trkpt>
      <trkpt lat="41.5748580" lon="2.0126740">
        <ele>321.4</ele>
        <time>2022-04-09T07:40:16Z</time>
      </trkpt>
      <trkpt lat="41.5748330" lon="2.0128510">
        <ele>321.6</ele>
        <time>2022-04-09T07:40:19Z</time>
      </trkpt>
      <trkpt lat="41.5748470" lon="2.0129080">
        <ele>321.6</ele>
        <time>2022-04-09T07:40:20Z</time>
      </trkpt>
      <trkpt lat="41.5748760" lon="2.0132090">
        <ele>322.0</ele>
        <time>2022-04-09T07:40:25Z</time>
      </trkpt>
      <trkpt lat="41.5748820" lon="2.0132710">
        <ele>322.0</ele>
        <time>2022-04-09T07:40:26Z</time>
      </trkpt>
      <trkpt lat="41.5749180" lon="2.0135900">
        <ele>322.4</ele>
        <time>2022-04-09T07:40:31Z</time>
      </trkpt>
      <trkpt lat="41.5749670" lon="2.0142140">
        <ele>322.8</ele>
        <time>2022-04-09T07:40:40Z</time>
      </trkpt>
      <trkpt lat="41.5749730" lon="2.0144400">
        <ele>322.6</ele>
        <time>2022-04-09T07:40:43Z</time>
      </trkpt>
      <trkpt lat="41.5749830" lon="2.0146420">
        <ele>322.4</ele>
        <time>2022-04-09T07:40:46Z</time>
      </trkpt>
      <trkpt lat="41.5749830" lon="2.0146980">
        <ele>322.4</ele>
        <time>2022-04-09T07:40:47Z</time>
      </trkpt>
      <trkpt lat="41.5749700" lon="2.0148110">
        <ele>322.2</ele>
        <time>2022-04-09T07:40:49Z</time>
      </trkpt>
      <trkpt lat="41.5749620" lon="2.0148710">
        <ele>322.0</ele>
        <time>2022-04-09T07:40:50Z</time>
      </trkpt>
      <trkpt lat="41.5749580" lon="2.0149340">
        <ele>322.0</ele>
        <time>2022-04-09T07:40:51Z</time>
      </trkpt>
      <trkpt lat="41.5749710" lon="2.0151320">
        <ele>322.0</ele>
        <time>2022-04-09T07:40:54Z</time>
      </trkpt>
      <trkpt lat="41.5749700" lon="2.0152050">
        <ele>321.8</ele>
        <time>2022-04-09T07:40:55Z</time>
      </trkpt>
      <trkpt lat="41.5749960" lon="2.0155220">
        <ele>321.8</ele>
        <time>2022-04-09T07:40:59Z</time>
      </trkpt>
      <trkpt lat="41.5750370" lon="2.0158510">
        <ele>321.6</ele>
        <time>2022-04-09T07:41:03Z</time>
      </trkpt>
      <trkpt lat="41.5750470" lon="2.0159230">
        <ele>321.6</ele>
        <time>2022-04-09T07:41:04Z</time>
      </trkpt>
      <trkpt lat="41.5750810" lon="2.0163330">
        <ele>321.8</ele>
        <time>2022-04-09T07:41:09Z</time>
      </trkpt>
      <trkpt lat="41.5750840" lon="2.0163960">
        <ele>321.8</ele>
        <time>2022-04-09T07:41:10Z</time>
      </trkpt>
      <trkpt lat="41.5750710" lon="2.0167030">
        <ele>322.0</ele>
        <time>2022-04-09T07:41:14Z</time>
      </trkpt>
      <trkpt lat="41.5750810" lon="2.0167630">
        <ele>322.2</ele>
        <time>2022-04-09T07:41:15Z</time>
      </trkpt>
      <trkpt lat="41.5750930" lon="2.0168250">
        <ele>322.2</ele>
        <time>2022-04-09T07:41:16Z</time>
      </trkpt>
      <trkpt lat="41.5751270" lon="2.0169890">
        <ele>322.4</ele>
        <time>2022-04-09T07:41:20Z</time>
      </trkpt>
      <trkpt lat="41.5750690" lon="2.0171910">
        <ele>322.6</ele>
        <time>2022-04-09T07:41:25Z</time>
      </trkpt>
      <trkpt lat="41.5749490" lon="2.0174210">
        <ele>322.6</ele>
        <time>2022-04-09T07:41:28Z</time>
      </trkpt>
      <trkpt lat="41.5749600" lon="2.0175710">
        <ele>322.6</ele>
        <time>2022-04-09T07:41:30Z</time>
      </trkpt>
      <trkpt lat="41.5750160" lon="2.0177120">
        <ele>322.4</ele>
        <time>2022-04-09T07:41:32Z</time>
      </trkpt>
      <trkpt lat="41.5750610" lon="2.0177240">
        <ele>322.4</ele>
        <time>2022-04-09T07:41:33Z</time>
      </trkpt>
      <trkpt lat="41.5751330" lon="2.0177090">
        <ele>322.4</ele>
        <time>2022-04-09T07:41:34Z</time>
      </trkpt>
      <trkpt lat="41.5752230" lon="2.0176510">
        <ele>322.4</ele>
        <time>2022-04-09T07:41:36Z</time>
      </trkpt>
      <trkpt lat="41.5752910" lon="2.0175610">
        <ele>322.4</ele>
        <time>2022-04-09T07:41:38Z</time>
      </trkpt>
      <trkpt lat="41.5754120" lon="2.0174890">
        <ele>322.4</ele>
        <time>2022-04-09T07:41:40Z</time>
      </trkpt>
      <trkpt lat="41.5755190" lon="2.0174580">
        <ele>322.8</ele>
        <time>2022-04-09T07:41:42Z</time>
      </trkpt>
      <trkpt lat="41.5756390" lon="2.0174410">
        <ele>323.6</ele>
        <time>2022-04-09T07:41:44Z</time>
      </trkpt>
      <trkpt lat="41.5757050" lon="2.0174330">
        <ele>323.8</ele>
        <time>2022-04-09T07:41:45Z</time>
      </trkpt>
      <trkpt lat="41.5757420" lon="2.0174400">
        <ele>324.2</ele>
        <time>2022-04-09T07:41:46Z</time>
      </trkpt>
      <trkpt lat="41.5758440" lon="2.0174470">
        <ele>324.8</ele>
        <time>2022-04-09T07:41:48Z</time>
      </trkpt>
      <trkpt lat="41.5759050" lon="2.0174550">
        <ele>325.0</ele>
        <time>2022-04-09T07:41:49Z</time>
      </trkpt>
      <trkpt lat="41.5759850" lon="2.0174890">
        <ele>325.4</ele>
        <time>2022-04-09T07:41:51Z</time>
      </trkpt>
      <trkpt lat="41.5760260" lon="2.0175140">
        <ele>325.6</ele>
        <time>2022-04-09T07:41:52Z</time>
      </trkpt>
      <trkpt lat="41.5760660" lon="2.0175240">
        <ele>325.8</ele>
        <time>2022-04-09T07:41:53Z</time>
      </trkpt>
      <trkpt lat="41.5761650" lon="2.0175920">
        <ele>326.4</ele>
        <time>2022-04-09T07:41:56Z</time>
      </trkpt>
      <trkpt lat="41.5762180" lon="2.0175960">
        <ele>326.4</ele>
        <time>2022-04-09T07:41:57Z</time>
      </trkpt>
      <trkpt lat="41.5762650" lon="2.0175940">
        <ele>326.6</ele>
        <time>2022-04-09T07:41:58Z</time>
      </trkpt>
      <trkpt lat="41.5763460" lon="2.0175770">
        <ele>327.8</ele>
        <time>2022-04-09T07:42:00Z</time>
      </trkpt>
      <trkpt lat="41.5763990" lon="2.0175620">
        <ele>328.0</ele>
        <time>2022-04-09T07:42:01Z</time>
      </trkpt>
      <trkpt lat="41.5764740" lon="2.0175640">
        <ele>328.4</ele>
        <time>2022-04-09T07:42:03Z</time>
      </trkpt>
      <trkpt lat="41.5765220" lon="2.0175610">
        <ele>328.6</ele>
        <time>2022-04-09T07:42:05Z</time>
      </trkpt>
      <trkpt lat="41.5765490" lon="2.0175520">
        <ele>328.8</ele>
        <time>2022-04-09T07:42:06Z</time>
      </trkpt>
      <trkpt lat="41.5766180" lon="2.0175120">
        <ele>329.4</ele>
        <time>2022-04-09T07:42:10Z</time>
      </trkpt>
      <trkpt lat="41.5766450" lon="2.0175000">
        <ele>329.8</ele>
        <time>2022-04-09T07:42:12Z</time>
      </trkpt>
      <trkpt lat="41.5766470" lon="2.0175020">
        <ele>330.0</ele>
        <time>2022-04-09T07:42:15Z</time>
      </trkpt>
      <trkpt lat="41.5767000" lon="2.0174930">
        <ele>330.2</ele>
        <time>2022-04-09T07:42:28Z</time>
      </trkpt>
      <trkpt lat="41.5767450" lon="2.0175320">
        <ele>330.2</ele>
        <time>2022-04-09T07:42:30Z</time>
      </trkpt>
      <trkpt lat="41.5767690" lon="2.0175370">
        <ele>330.2</ele>
        <time>2022-04-09T07:42:31Z</time>
      </trkpt>
      <trkpt lat="41.5769570" lon="2.0175580">
        <ele>330.4</ele>
        <time>2022-04-09T07:42:36Z</time>
      </trkpt>
      <trkpt lat="41.5771460" lon="2.0175830">
        <ele>331.0</ele>
        <time>2022-04-09T07:42:41Z</time>
      </trkpt>
      <trkpt lat="41.5771880" lon="2.0175910">
        <ele>331.0</ele>
        <time>2022-04-09T07:42:42Z</time>
      </trkpt>
      <trkpt lat="41.5774340" lon="2.0176040">
        <ele>332.0</ele>
        <time>2022-04-09T07:42:48Z</time>
      </trkpt>
      <trkpt lat="41.5775880" lon="2.0176620">
        <ele>332.6</ele>
        <time>2022-04-09T07:42:52Z</time>
      </trkpt>
      <trkpt lat="41.5776530" lon="2.0177130">
        <ele>333.0</ele>
        <time>2022-04-09T07:42:54Z</time>
      </trkpt>
      <trkpt lat="41.5776940" lon="2.0177200">
        <ele>333.2</ele>
        <time>2022-04-09T07:42:55Z</time>
      </trkpt>
      <trkpt lat="41.5777870" lon="2.0177180">
        <ele>333.6</ele>
        <time>2022-04-09T07:42:57Z</time>
      </trkpt>
      <trkpt lat="41.5778260" lon="2.0177160">
        <ele>334.0</ele>
        <time>2022-04-09T07:42:58Z</time>
      </trkpt>
      <trkpt lat="41.5778700" lon="2.0177210">
        <ele>334.0</ele>
        <time>2022-04-09T07:42:59Z</time>
      </trkpt>
      <trkpt lat="41.5779190" lon="2.0177290">
        <ele>334.2</ele>
        <time>2022-04-09T07:43:00Z</time>
      </trkpt>
      <trkpt lat="41.5779610" lon="2.0177360">
        <ele>334.4</ele>
        <time>2022-04-09T07:43:01Z</time>
      </trkpt>
      <trkpt lat="41.5780320" lon="2.0177490">
        <ele>334.8</ele>
        <time>2022-04-09T07:43:03Z</time>
      </trkpt>
      <trkpt lat="41.5780850" lon="2.0177530">
        <ele>335.0</ele>
        <time>2022-04-09T07:43:04Z</time>
      </trkpt>
      <trkpt lat="41.5782140" lon="2.0177580">
        <ele>335.2</ele>
        <time>2022-04-09T07:43:07Z</time>
      </trkpt>
      <trkpt lat="41.5782520" lon="2.0177530">
        <ele>335.2</ele>
        <time>2022-04-09T07:43:08Z</time>
      </trkpt>
      <trkpt lat="41.5783030" lon="2.0177610">
        <ele>335.4</ele>
        <time>2022-04-09T07:43:09Z</time>
      </trkpt>
      <trkpt lat="41.5784990" lon="2.0178160">
        <ele>336.6</ele>
        <time>2022-04-09T07:43:14Z</time>
      </trkpt>
      <trkpt lat="41.5785780" lon="2.0178200">
        <ele>336.8</ele>
        <time>2022-04-09T07:43:16Z</time>
      </trkpt>
      <trkpt lat="41.5787920" lon="2.0178480">
        <ele>337.6</ele>
        <time>2022-04-09T07:43:21Z</time>
      </trkpt>
      <trkpt lat="41.5788830" lon="2.0178570">
        <ele>337.8</ele>
        <time>2022-04-09T07:43:23Z</time>
      </trkpt>
      <trkpt lat="41.5789640" lon="2.0178600">
        <ele>338.0</ele>
        <time>2022-04-09T07:43:25Z</time>
      </trkpt>
      <trkpt lat="41.5790620" lon="2.0178590">
        <ele>338.2</ele>
        <time>2022-04-09T07:43:27Z</time>
      </trkpt>
      <trkpt lat="41.5791050" lon="2.0178600">
        <ele>338.4</ele>
        <time>2022-04-09T07:43:28Z</time>
      </trkpt>
      <trkpt lat="41.5791470" lon="2.0178620">
        <ele>338.4</ele>
        <time>2022-04-09T07:43:29Z</time>
      </trkpt>
      <trkpt lat="41.5792190" lon="2.0178610">
        <ele>338.8</ele>
        <time>2022-04-09T07:43:31Z</time>
      </trkpt>
      <trkpt lat="41.5793180" lon="2.0178930">
        <ele>339.4</ele>
        <time>2022-04-09T07:43:34Z</time>
      </trkpt>
      <trkpt lat="41.5793560" lon="2.0179010">
        <ele>339.6</ele>
        <time>2022-04-09T07:43:35Z</time>
      </trkpt>
      <trkpt lat="41.5794010" lon="2.0178940">
        <ele>339.6</ele>
        <time>2022-04-09T07:43:36Z</time>
      </trkpt>
      <trkpt lat="41.5794790" lon="2.0178960">
        <ele>339.8</ele>
        <time>2022-04-09T07:43:38Z</time>
      </trkpt>
      <trkpt lat="41.5796450" lon="2.0179700">
        <ele>340.6</ele>
        <time>2022-04-09T07:43:43Z</time>
      </trkpt>
      <trkpt lat="41.5796860" lon="2.0179820">
        <ele>340.6</ele>
        <time>2022-04-09T07:43:44Z</time>
      </trkpt>
      <trkpt lat="41.5798460" lon="2.0180610">
        <ele>341.4</ele>
        <time>2022-04-09T07:43:48Z</time>
      </trkpt>
      <trkpt lat="41.5798740" lon="2.0180990">
        <ele>341.8</ele>
        <time>2022-04-09T07:43:49Z</time>
      </trkpt>
      <trkpt lat="41.5799690" lon="2.0182050">
        <ele>342.2</ele>
        <time>2022-04-09T07:43:52Z</time>
      </trkpt>
      <trkpt lat="41.5800070" lon="2.0182270">
        <ele>342.4</ele>
        <time>2022-04-09T07:43:53Z</time>
      </trkpt>
      <trkpt lat="41.5800490" lon="2.0182350">
        <ele>342.4</ele>
        <time>2022-04-09T07:43:54Z</time>
      </trkpt>
      <trkpt lat="41.5801220" lon="2.0182220">
        <ele>342.8</ele>
        <time>2022-04-09T07:43:56Z</time>
      </trkpt>
      <trkpt lat="41.5801540" lon="2.0182000">
        <ele>342.8</ele>
        <time>2022-04-09T07:43:57Z</time>
      </trkpt>
      <trkpt lat="41.5802990" lon="2.0180580">
        <ele>343.4</ele>
        <time>2022-04-09T07:44:02Z</time>
      </trkpt>
      <trkpt lat="41.5804280" lon="2.0180580">
        <ele>343.8</ele>
        <time>2022-04-09T07:44:05Z</time>
      </trkpt>
      <trkpt lat="41.5804670" lon="2.0180700">
        <ele>344.0</ele>
        <time>2022-04-09T07:44:06Z</time>
      </trkpt>
      <trkpt lat="41.5805430" lon="2.0180810">
        <ele>344.2</ele>
        <time>2022-04-09T07:44:08Z</time>
      </trkpt>
      <trkpt lat="41.5807030" lon="2.0180990">
        <ele>344.6</ele>
        <time>2022-04-09T07:44:12Z</time>
      </trkpt>
      <trkpt lat="41.5807380" lon="2.0181090">
        <ele>344.8</ele>
        <time>2022-04-09T07:44:13Z</time>
      </trkpt>
      <trkpt lat="41.5808200" lon="2.0181210">
        <ele>345.0</ele>
        <time>2022-04-09T07:44:15Z</time>
      </trkpt>
      <trkpt lat="41.5809800" lon="2.0181410">
        <ele>345.8</ele>
        <time>2022-04-09T07:44:19Z</time>
      </trkpt>
      <trkpt lat="41.5810230" lon="2.0181380">
        <ele>346.0</ele>
        <time>2022-04-09T07:44:20Z</time>
      </trkpt>
      <trkpt lat="41.5812250" lon="2.0181620">
        <ele>347.2</ele>
        <time>2022-04-09T07:44:25Z</time>
      </trkpt>
      <trkpt lat="41.5812670" lon="2.0181660">
        <ele>347.4</ele>
        <time>2022-04-09T07:44:26Z</time>
      </trkpt>
      <trkpt lat="41.5814750" lon="2.0181910">
        <ele>348.2</ele>
        <time>2022-04-09T07:44:31Z</time>
      </trkpt>
      <trkpt lat="41.5815180" lon="2.0181960">
        <ele>348.2</ele>
        <time>2022-04-09T07:44:32Z</time>
      </trkpt>
      <trkpt lat="41.5817300" lon="2.0182220">
        <ele>349.4</ele>
        <time>2022-04-09T07:44:37Z</time>
      </trkpt>
      <trkpt lat="41.5818210" lon="2.0182290">
        <ele>349.6</ele>
        <time>2022-04-09T07:44:39Z</time>
      </trkpt>
      <trkpt lat="41.5820620" lon="2.0182600">
        <ele>350.4</ele>
        <time>2022-04-09T07:44:45Z</time>
      </trkpt>
      <trkpt lat="41.5820990" lon="2.0182690">
        <ele>350.8</ele>
        <time>2022-04-09T07:44:46Z</time>
      </trkpt>
      <trkpt lat="41.5822620" lon="2.0182650">
        <ele>351.6</ele>
        <time>2022-04-09T07:44:50Z</time>
      </trkpt>
      <trkpt lat="41.5823660" lon="2.0182650">
        <ele>352.0</ele>
        <time>2022-04-09T07:44:53Z</time>
      </trkpt>
      <trkpt lat="41.5824370" lon="2.0182770">
        <ele>352.6</ele>
        <time>2022-04-09T07:44:57Z</time>
      </trkpt>
      <trkpt lat="41.5824980" lon="2.0182950">
        <ele>353.4</ele>
        <time>2022-04-09T07:45:03Z</time>
      </trkpt>
      <trkpt lat="41.5825380" lon="2.0183020">
        <ele>353.6</ele>
        <time>2022-04-09T07:45:06Z</time>
      </trkpt>
      <trkpt lat="41.5826200" lon="2.0183210">
        <ele>353.8</ele>
        <time>2022-04-09T07:45:10Z</time>
      </trkpt>
      <trkpt lat="41.5828290" lon="2.0183330">
        <ele>354.2</ele>
        <time>2022-04-09T07:45:16Z</time>
      </trkpt>
      <trkpt lat="41.5830480" lon="2.0183660">
        <ele>354.8</ele>
        <time>2022-04-09T07:45:22Z</time>
      </trkpt>
      <trkpt lat="41.5832870" lon="2.0183740">
        <ele>355.8</ele>
        <time>2022-04-09T07:45:28Z</time>
      </trkpt>
      <trkpt lat="41.5833630" lon="2.0183850">
        <ele>356.2</ele>
        <time>2022-04-09T07:45:30Z</time>
      </trkpt>
      <trkpt lat="41.5835860" lon="2.0184280">
        <ele>357.0</ele>
        <time>2022-04-09T07:45:36Z</time>
      </trkpt>
      <trkpt lat="41.5836220" lon="2.0184340">
        <ele>357.0</ele>
        <time>2022-04-09T07:45:37Z</time>
      </trkpt>
      <trkpt lat="41.5838110" lon="2.0184570">
        <ele>358.0</ele>
        <time>2022-04-09T07:45:42Z</time>
      </trkpt>
      <trkpt lat="41.5839580" lon="2.0184810">
        <ele>358.4</ele>
        <time>2022-04-09T07:45:46Z</time>
      </trkpt>
      <trkpt lat="41.5841400" lon="2.0185070">
        <ele>359.2</ele>
        <time>2022-04-09T07:45:51Z</time>
      </trkpt>
      <trkpt lat="41.5842090" lon="2.0185190">
        <ele>359.6</ele>
        <time>2022-04-09T07:45:54Z</time>
      </trkpt>
      <trkpt lat="41.5842150" lon="2.0185180">
        <ele>360.0</ele>
        <time>2022-04-09T07:45:57Z</time>
      </trkpt>
      <trkpt lat="41.5842370" lon="2.0185110">
        <ele>360.8</ele>
        <time>2022-04-09T07:46:38Z</time>
      </trkpt>
      <trkpt lat="41.5842770" lon="2.0185150">
        <ele>360.8</ele>
        <time>2022-04-09T07:46:40Z</time>
      </trkpt>
      <trkpt lat="41.5843730" lon="2.0185330">
        <ele>361.0</ele>
        <time>2022-04-09T07:46:43Z</time>
      </trkpt>
      <trkpt lat="41.5846910" lon="2.0185720">
        <ele>361.4</ele>
        <time>2022-04-09T07:46:52Z</time>
      </trkpt>
      <trkpt lat="41.5848370" lon="2.0185900">
        <ele>361.8</ele>
        <time>2022-04-09T07:46:56Z</time>
      </trkpt>
      <trkpt lat="41.5849940" lon="2.0186110">
        <ele>362.4</ele>
        <time>2022-04-09T07:47:00Z</time>
      </trkpt>
      <trkpt lat="41.5851510" lon="2.0186320">
        <ele>362.8</ele>
        <time>2022-04-09T07:47:04Z</time>
      </trkpt>
      <trkpt lat="41.5853130" lon="2.0186550">
        <ele>363.6</ele>
        <time>2022-04-09T07:47:08Z</time>
      </trkpt>
      <trkpt lat="41.5853980" lon="2.0186690">
        <ele>364.0</ele>
        <time>2022-04-09T07:47:10Z</time>
      </trkpt>
      <trkpt lat="41.5856050" lon="2.0186980">
        <ele>364.8</ele>
        <time>2022-04-09T07:47:15Z</time>
      </trkpt>
      <trkpt lat="41.5856460" lon="2.0187030">
        <ele>365.0</ele>
        <time>2022-04-09T07:47:16Z</time>
      </trkpt>
      <trkpt lat="41.5859400" lon="2.0187490">
        <ele>366.0</ele>
        <time>2022-04-09T07:47:23Z</time>
      </trkpt>
      <trkpt lat="41.5859840" lon="2.0187550">
        <ele>366.6</ele>
        <time>2022-04-09T07:47:24Z</time>
      </trkpt>
      <trkpt lat="41.5862990" lon="2.0187880">
        <ele>367.6</ele>
        <time>2022-04-09T07:47:31Z</time>
      </trkpt>
      <trkpt lat="41.5866870" lon="2.0188390">
        <ele>368.6</ele>
        <time>2022-04-09T07:47:40Z</time>
      </trkpt>
      <trkpt lat="41.5867730" lon="2.0188510">
        <ele>369.0</ele>
        <time>2022-04-09T07:47:42Z</time>
      </trkpt>
      <trkpt lat="41.5870750" lon="2.0189010">
        <ele>369.8</ele>
        <time>2022-04-09T07:47:49Z</time>
      </trkpt>
      <trkpt lat="41.5872040" lon="2.0189220">
        <ele>370.2</ele>
        <time>2022-04-09T07:47:52Z</time>
      </trkpt>
      <trkpt lat="41.5874260" lon="2.0189490">
        <ele>370.8</ele>
        <time>2022-04-09T07:47:57Z</time>
      </trkpt>
      <trkpt lat="41.5876340" lon="2.0189840">
        <ele>371.6</ele>
        <time>2022-04-09T07:48:02Z</time>
      </trkpt>
      <trkpt lat="41.5877180" lon="2.0190030">
        <ele>371.8</ele>
        <time>2022-04-09T07:48:04Z</time>
      </trkpt>
      <trkpt lat="41.5877580" lon="2.0190100">
        <ele>372.0</ele>
        <time>2022-04-09T07:48:05Z</time>
      </trkpt>
      <trkpt lat="41.5878880" lon="2.0190180">
        <ele>372.4</ele>
        <time>2022-04-09T07:48:07Z</time>
      </trkpt>
      <trkpt lat="41.5880220" lon="2.0190290">
        <ele>372.8</ele>
        <time>2022-04-09T07:48:10Z</time>
      </trkpt>
      <trkpt lat="41.5880670" lon="2.0190340">
        <ele>373.2</ele>
        <time>2022-04-09T07:48:11Z</time>
      </trkpt>
      <trkpt lat="41.5882350" lon="2.0190640">
        <ele>373.4</ele>
        <time>2022-04-09T07:48:15Z</time>
      </trkpt>
      <trkpt lat="41.5884540" lon="2.0191050">
        <ele>374.2</ele>
        <time>2022-04-09T07:48:20Z</time>
      </trkpt>
      <trkpt lat="41.5886640" lon="2.0191450">
        <ele>375.4</ele>
        <time>2022-04-09T07:48:25Z</time>
      </trkpt>
      <trkpt lat="41.5887080" lon="2.0191490">
        <ele>375.6</ele>
        <time>2022-04-09T07:48:26Z</time>
      </trkpt>
      <trkpt lat="41.5889270" lon="2.0191770">
        <ele>376.6</ele>
        <time>2022-04-09T07:48:31Z</time>
      </trkpt>
      <trkpt lat="41.5890850" lon="2.0192220">
        <ele>377.2</ele>
        <time>2022-04-09T07:48:35Z</time>
      </trkpt>
      <trkpt lat="41.5891280" lon="2.0192280">
        <ele>377.2</ele>
        <time>2022-04-09T07:48:36Z</time>
      </trkpt>
      <trkpt lat="41.5892120" lon="2.0192410">
        <ele>377.6</ele>
        <time>2022-04-09T07:48:38Z</time>
      </trkpt>
      <trkpt lat="41.5893860" lon="2.0192650">
        <ele>378.4</ele>
        <time>2022-04-09T07:48:42Z</time>
      </trkpt>
      <trkpt lat="41.5894280" lon="2.0192720">
        <ele>378.6</ele>
        <time>2022-04-09T07:48:43Z</time>
      </trkpt>
      <trkpt lat="41.5896850" lon="2.0193040">
        <ele>379.8</ele>
        <time>2022-04-09T07:48:49Z</time>
      </trkpt>
      <trkpt lat="41.5897300" lon="2.0193120">
        <ele>380.0</ele>
        <time>2022-04-09T07:48:50Z</time>
      </trkpt>
      <trkpt lat="41.5899110" lon="2.0193350">
        <ele>380.8</ele>
        <time>2022-04-09T07:48:54Z</time>
      </trkpt>
      <trkpt lat="41.5901270" lon="2.0193630">
        <ele>382.0</ele>
        <time>2022-04-09T07:48:59Z</time>
      </trkpt>
      <trkpt lat="41.5902200" lon="2.0193740">
        <ele>382.4</ele>
        <time>2022-04-09T07:49:01Z</time>
      </trkpt>
      <trkpt lat="41.5903210" lon="2.0194070">
        <ele>383.0</ele>
        <time>2022-04-09T07:49:04Z</time>
      </trkpt>
      <trkpt lat="41.5903600" lon="2.0194160">
        <ele>383.2</ele>
        <time>2022-04-09T07:49:05Z</time>
      </trkpt>
      <trkpt lat="41.5905800" lon="2.0194520">
        <ele>384.2</ele>
        <time>2022-04-09T07:49:10Z</time>
      </trkpt>
      <trkpt lat="41.5906470" lon="2.0195030">
        <ele>384.4</ele>
        <time>2022-04-09T07:49:12Z</time>
      </trkpt>
      <trkpt lat="41.5907200" lon="2.0195930">
        <ele>385.2</ele>
        <time>2022-04-09T07:49:15Z</time>
      </trkpt>
      <trkpt lat="41.5907480" lon="2.0196240">
        <ele>385.4</ele>
        <time>2022-04-09T07:49:16Z</time>
      </trkpt>
      <trkpt lat="41.5909550" lon="2.0198280">
        <ele>386.2</ele>
        <time>2022-04-09T07:49:22Z</time>
      </trkpt>
      <trkpt lat="41.5909920" lon="2.0198570">
        <ele>386.4</ele>
        <time>2022-04-09T07:49:23Z</time>
      </trkpt>
      <trkpt lat="41.5910720" lon="2.0199000">
        <ele>386.6</ele>
        <time>2022-04-09T07:49:25Z</time>
      </trkpt>
      <trkpt lat="41.5911930" lon="2.0199500">
        <ele>386.8</ele>
        <time>2022-04-09T07:49:28Z</time>
      </trkpt>
      <trkpt lat="41.5913070" lon="2.0200260">
        <ele>387.2</ele>
        <time>2022-04-09T07:49:31Z</time>
      </trkpt>
      <trkpt lat="41.5913630" lon="2.0201200">
        <ele>387.4</ele>
        <time>2022-04-09T07:49:33Z</time>
      </trkpt>
      <trkpt lat="41.5914120" lon="2.0202300">
        <ele>387.4</ele>
        <time>2022-04-09T07:49:35Z</time>
      </trkpt>
      <trkpt lat="41.5914450" lon="2.0202780">
        <ele>387.4</ele>
        <time>2022-04-09T07:49:36Z</time>
      </trkpt>
      <trkpt lat="41.5914870" lon="2.0203170">
        <ele>387.6</ele>
        <time>2022-04-09T07:49:37Z</time>
      </trkpt>
      <trkpt lat="41.5915320" lon="2.0203450">
        <ele>387.6</ele>
        <time>2022-04-09T07:49:38Z</time>
      </trkpt>
      <trkpt lat="41.5915770" lon="2.0203660">
        <ele>387.6</ele>
        <time>2022-04-09T07:49:39Z</time>
      </trkpt>
      <trkpt lat="41.5916640" lon="2.0203750">
        <ele>387.8</ele>
        <time>2022-04-09T07:49:41Z</time>
      </trkpt>
      <trkpt lat="41.5917090" lon="2.0203590">
        <ele>387.8</ele>
        <time>2022-04-09T07:49:42Z</time>
      </trkpt>
      <trkpt lat="41.5917540" lon="2.0203350">
        <ele>387.8</ele>
        <time>2022-04-09T07:49:43Z</time>
      </trkpt>
      <trkpt lat="41.5918260" lon="2.0202570">
        <ele>388.0</ele>
        <time>2022-04-09T07:49:45Z</time>
      </trkpt>
      <trkpt lat="41.5918520" lon="2.0202100">
        <ele>388.2</ele>
        <time>2022-04-09T07:49:46Z</time>
      </trkpt>
      <trkpt lat="41.5918720" lon="2.0201590">
        <ele>388.4</ele>
        <time>2022-04-09T07:49:47Z</time>
      </trkpt>
      <trkpt lat="41.5918870" lon="2.0201050">
        <ele>388.6</ele>
        <time>2022-04-09T07:49:48Z</time>
      </trkpt>
      <trkpt lat="41.5919340" lon="2.0199410">
        <ele>389.2</ele>
        <time>2022-04-09T07:49:51Z</time>
      </trkpt>
      <trkpt lat="41.5919870" lon="2.0198430">
        <ele>389.8</ele>
        <time>2022-04-09T07:49:53Z</time>
      </trkpt>
      <trkpt lat="41.5920610" lon="2.0197670">
        <ele>390.0</ele>
        <time>2022-04-09T07:49:55Z</time>
      </trkpt>
      <trkpt lat="41.5921020" lon="2.0197420">
        <ele>390.0</ele>
        <time>2022-04-09T07:49:56Z</time>
      </trkpt>
      <trkpt lat="41.5921840" lon="2.0197150">
        <ele>390.2</ele>
        <time>2022-04-09T07:49:58Z</time>
      </trkpt>
      <trkpt lat="41.5922880" lon="2.0197270">
        <ele>390.8</ele>
        <time>2022-04-09T07:50:01Z</time>
      </trkpt>
      <trkpt lat="41.5923900" lon="2.0197400">
        <ele>392.0</ele>
        <time>2022-04-09T07:50:04Z</time>
      </trkpt>
      <trkpt lat="41.5924810" lon="2.0197530">
        <ele>392.8</ele>
        <time>2022-04-09T07:50:07Z</time>
      </trkpt>
      <trkpt lat="41.5925140" lon="2.0197580">
        <ele>393.0</ele>
        <time>2022-04-09T07:50:08Z</time>
      </trkpt>
      <trkpt lat="41.5926050" lon="2.0197730">
        <ele>394.0</ele>
        <time>2022-04-09T07:50:13Z</time>
      </trkpt>
      <trkpt lat="41.5926050" lon="2.0197730">
        <ele>394.4</ele>
        <time>2022-04-09T07:50:14Z</time>
      </trkpt>
      <trkpt lat="41.5926430" lon="2.0197830">
        <ele>395.4</ele>
        <time>2022-04-09T07:50:25Z</time>
      </trkpt>
      <trkpt lat="41.5927020" lon="2.0197790">
        <ele>395.4</ele>
        <time>2022-04-09T07:50:27Z</time>
      </trkpt>
      <trkpt lat="41.5928890" lon="2.0197870">
        <ele>395.6</ele>
        <time>2022-04-09T07:50:32Z</time>
      </trkpt>
      <trkpt lat="41.5931720" lon="2.0197710">
        <ele>396.0</ele>
        <time>2022-04-09T07:50:39Z</time>
      </trkpt>
      <trkpt lat="41.5932870" lon="2.0197820">
        <ele>396.6</ele>
        <time>2022-04-09T07:50:42Z</time>
      </trkpt>
      <trkpt lat="41.5933960" lon="2.0198110">
        <ele>397.0</ele>
        <time>2022-04-09T07:50:45Z</time>
      </trkpt>
      <trkpt lat="41.5936320" lon="2.0198480">
        <ele>397.8</ele>
        <time>2022-04-09T07:50:51Z</time>
      </trkpt>
      <trkpt lat="41.5937110" lon="2.0198600">
        <ele>398.2</ele>
        <time>2022-04-09T07:50:53Z</time>
      </trkpt>
      <trkpt lat="41.5939110" lon="2.0198920">
        <ele>399.0</ele>
        <time>2022-04-09T07:50:58Z</time>
      </trkpt>
      <trkpt lat="41.5941070" lon="2.0199240">
        <ele>399.6</ele>
        <time>2022-04-09T07:51:03Z</time>
      </trkpt>
      <trkpt lat="41.5941870" lon="2.0199360">
        <ele>400.0</ele>
        <time>2022-04-09T07:51:05Z</time>
      </trkpt>
      <trkpt lat="41.5945110" lon="2.0199900">
        <ele>400.8</ele>
        <time>2022-04-09T07:51:13Z</time>
      </trkpt>
      <trkpt lat="41.5945530" lon="2.0199950">
        <ele>401.0</ele>
        <time>2022-04-09T07:51:14Z</time>
      </trkpt>
      <trkpt lat="41.5948050" lon="2.0200260">
        <ele>402.2</ele>
        <time>2022-04-09T07:51:20Z</time>
      </trkpt>
      <trkpt lat="41.5950220" lon="2.0200360">
        <ele>402.8</ele>
        <time>2022-04-09T07:51:25Z</time>
      </trkpt>
      <trkpt lat="41.5951480" lon="2.0200300">
        <ele>403.2</ele>
        <time>2022-04-09T07:51:28Z</time>
      </trkpt>
      <trkpt lat="41.5953470" lon="2.0199950">
        <ele>404.4</ele>
        <time>2022-04-09T07:51:33Z</time>
      </trkpt>
      <trkpt lat="41.5953850" lon="2.0199820">
        <ele>404.4</ele>
        <time>2022-04-09T07:51:34Z</time>
      </trkpt>
      <trkpt lat="41.5955800" lon="2.0199850">
        <ele>405.6</ele>
        <time>2022-04-09T07:51:39Z</time>
      </trkpt>
      <trkpt lat="41.5956180" lon="2.0200080">
        <ele>405.6</ele>
        <time>2022-04-09T07:51:40Z</time>
      </trkpt>
      <trkpt lat="41.5957490" lon="2.0201160">
        <ele>406.0</ele>
        <time>2022-04-09T07:51:44Z</time>
      </trkpt>
      <trkpt lat="41.5958660" lon="2.0201110">
        <ele>406.6</ele>
        <time>2022-04-09T07:51:47Z</time>
      </trkpt>
      <trkpt lat="41.5959030" lon="2.0201080">
        <ele>406.8</ele>
        <time>2022-04-09T07:51:48Z</time>
      </trkpt>
      <trkpt lat="41.5960940" lon="2.0201260">
        <ele>407.8</ele>
        <time>2022-04-09T07:51:53Z</time>
      </trkpt>
      <trkpt lat="41.5961650" lon="2.0201540">
        <ele>408.0</ele>
        <time>2022-04-09T07:51:55Z</time>
      </trkpt>
      <trkpt lat="41.5963790" lon="2.0202180">
        <ele>408.8</ele>
        <time>2022-04-09T07:52:01Z</time>
      </trkpt>
      <trkpt lat="41.5964540" lon="2.0202350">
        <ele>409.2</ele>
        <time>2022-04-09T07:52:03Z</time>
      </trkpt>
      <trkpt lat="41.5966020" lon="2.0202560">
        <ele>409.8</ele>
        <time>2022-04-09T07:52:07Z</time>
      </trkpt>
      <trkpt lat="41.5967930" lon="2.0202660">
        <ele>410.4</ele>
        <time>2022-04-09T07:52:12Z</time>
      </trkpt>
      <trkpt lat="41.5969080" lon="2.0202810">
        <ele>411.0</ele>
        <time>2022-04-09T07:52:15Z</time>
      </trkpt>
      <trkpt lat="41.5970170" lon="2.0203050">
        <ele>411.6</ele>
        <time>2022-04-09T07:52:18Z</time>
      </trkpt>
      <trkpt lat="41.5971320" lon="2.0203230">
        <ele>412.0</ele>
        <time>2022-04-09T07:52:21Z</time>
      </trkpt>
      <trkpt lat="41.5973530" lon="2.0203690">
        <ele>413.0</ele>
        <time>2022-04-09T07:52:27Z</time>
      </trkpt>
      <trkpt lat="41.5975760" lon="2.0204200">
        <ele>414.4</ele>
        <time>2022-04-09T07:52:33Z</time>
      </trkpt>
      <trkpt lat="41.5976970" lon="2.0204370">
        <ele>414.8</ele>
        <time>2022-04-09T07:52:36Z</time>
      </trkpt>
      <trkpt lat="41.5979260" lon="2.0204950">
        <ele>415.4</ele>
        <time>2022-04-09T07:52:42Z</time>
      </trkpt>
      <trkpt lat="41.5980470" lon="2.0205310">
        <ele>416.0</ele>
        <time>2022-04-09T07:52:45Z</time>
      </trkpt>
      <trkpt lat="41.5982080" lon="2.0205800">
        <ele>416.4</ele>
        <time>2022-04-09T07:52:49Z</time>
      </trkpt>
      <trkpt lat="41.5983510" lon="2.0206470">
        <ele>417.0</ele>
        <time>2022-04-09T07:52:53Z</time>
      </trkpt>
      <trkpt lat="41.5984670" lon="2.0206880">
        <ele>417.8</ele>
        <time>2022-04-09T07:52:56Z</time>
      </trkpt>
      <trkpt lat="41.5986930" lon="2.0207850">
        <ele>419.0</ele>
        <time>2022-04-09T07:53:02Z</time>
      </trkpt>
      <trkpt lat="41.5988920" lon="2.0208590">
        <ele>420.0</ele>
        <time>2022-04-09T07:53:07Z</time>
      </trkpt>
      <trkpt lat="41.5989700" lon="2.0208880">
        <ele>420.4</ele>
        <time>2022-04-09T07:53:09Z</time>
      </trkpt>
      <trkpt lat="41.5990910" lon="2.0209320">
        <ele>421.2</ele>
        <time>2022-04-09T07:53:12Z</time>
      </trkpt>
      <trkpt lat="41.5992950" lon="2.0209990">
        <ele>422.6</ele>
        <time>2022-04-09T07:53:17Z</time>
      </trkpt>
      <trkpt lat="41.5993800" lon="2.0210300">
        <ele>423.2</ele>
        <time>2022-04-09T07:53:19Z</time>
      </trkpt>
      <trkpt lat="41.5994100" lon="2.0210440">
        <ele>423.4</ele>
        <time>2022-04-09T07:53:20Z</time>
      </trkpt>
      <trkpt lat="41.5994910" lon="2.0210680">
        <ele>423.8</ele>
        <time>2022-04-09T07:53:22Z</time>
      </trkpt>
      <trkpt lat="41.5996190" lon="2.0211030">
        <ele>424.6</ele>
        <time>2022-04-09T07:53:25Z</time>
      </trkpt>
      <trkpt lat="41.5996580" lon="2.0211170">
        <ele>424.8</ele>
        <time>2022-04-09T07:53:26Z</time>
      </trkpt>
      <trkpt lat="41.5998340" lon="2.0212170">
        <ele>425.8</ele>
        <time>2022-04-09T07:53:31Z</time>
      </trkpt>
      <trkpt lat="41.5998710" lon="2.0212320">
        <ele>425.8</ele>
        <time>2022-04-09T07:53:32Z</time>
      </trkpt>
      <trkpt lat="41.5999440" lon="2.0212730">
        <ele>427.0</ele>
        <time>2022-04-09T07:53:35Z</time>
      </trkpt>
      <trkpt lat="41.6000300" lon="2.0213360">
        <ele>427.6</ele>
        <time>2022-04-09T07:53:37Z</time>
      </trkpt>
      <trkpt lat="41.6001510" lon="2.0213780">
        <ele>428.2</ele>
        <time>2022-04-09T07:53:40Z</time>
      </trkpt>
      <trkpt lat="41.6001820" lon="2.0213840">
        <ele>428.4</ele>
        <time>2022-04-09T07:53:41Z</time>
      </trkpt>
      <trkpt lat="41.6003830" lon="2.0214290">
        <ele>429.2</ele>
        <time>2022-04-09T07:53:46Z</time>
      </trkpt>
      <trkpt lat="41.6004280" lon="2.0214330">
        <ele>429.4</ele>
        <time>2022-04-09T07:53:47Z</time>
      </trkpt>
      <trkpt lat="41.6006750" lon="2.0214330">
        <ele>430.2</ele>
        <time>2022-04-09T07:53:53Z</time>
      </trkpt>
      <trkpt lat="41.6007510" lon="2.0214260">
        <ele>430.4</ele>
        <time>2022-04-09T07:53:55Z</time>
      </trkpt>
      <trkpt lat="41.6009170" lon="2.0213740">
        <ele>430.6</ele>
        <time>2022-04-09T07:53:59Z</time>
      </trkpt>
      <trkpt lat="41.6009580" lon="2.0213590">
        <ele>430.8</ele>
        <time>2022-04-09T07:54:00Z</time>
      </trkpt>
      <trkpt lat="41.6011150" lon="2.0212760">
        <ele>431.4</ele>
        <time>2022-04-09T07:54:04Z</time>
      </trkpt>
      <trkpt lat="41.6011940" lon="2.0212280">
        <ele>431.6</ele>
        <time>2022-04-09T07:54:06Z</time>
      </trkpt>
      <trkpt lat="41.6014150" lon="2.0210390">
        <ele>432.2</ele>
        <time>2022-04-09T07:54:12Z</time>
      </trkpt>
      <trkpt lat="41.6014820" lon="2.0209680">
        <ele>432.6</ele>
        <time>2022-04-09T07:54:14Z</time>
      </trkpt>
      <trkpt lat="41.6015110" lon="2.0209340">
        <ele>432.8</ele>
        <time>2022-04-09T07:54:15Z</time>
      </trkpt>
      <trkpt lat="41.6017000" lon="2.0206630">
        <ele>433.8</ele>
        <time>2022-04-09T07:54:22Z</time>
      </trkpt>
      <trkpt lat="41.6017500" lon="2.0205760">
        <ele>434.0</ele>
        <time>2022-04-09T07:54:24Z</time>
      </trkpt>
      <trkpt lat="41.6018620" lon="2.0204590">
        <ele>434.8</ele>
        <time>2022-04-09T07:54:28Z</time>
      </trkpt>
      <trkpt lat="41.6018930" lon="2.0204510">
        <ele>435.0</ele>
        <time>2022-04-09T07:54:29Z</time>
      </trkpt>
      <trkpt lat="41.6020600" lon="2.0203770">
        <ele>435.2</ele>
        <time>2022-04-09T07:54:34Z</time>
      </trkpt>
      <trkpt lat="41.6020840" lon="2.0203440">
        <ele>435.2</ele>
        <time>2022-04-09T07:54:35Z</time>
      </trkpt>
      <trkpt lat="41.6021450" lon="2.0202210">
        <ele>435.4</ele>
        <time>2022-04-09T07:54:38Z</time>
      </trkpt>
      <trkpt lat="41.6022690" lon="2.0200250">
        <ele>435.8</ele>
        <time>2022-04-09T07:54:43Z</time>
      </trkpt>
      <trkpt lat="41.6023210" lon="2.0199470">
        <ele>436.2</ele>
        <time>2022-04-09T07:54:45Z</time>
      </trkpt>
      <trkpt lat="41.6024450" lon="2.0197340">
        <ele>437.0</ele>
        <time>2022-04-09T07:54:50Z</time>
      </trkpt>
      <trkpt lat="41.6024980" lon="2.0196500">
        <ele>437.4</ele>
        <time>2022-04-09T07:54:52Z</time>
      </trkpt>
      <trkpt lat="41.6025770" lon="2.0195140">
        <ele>438.0</ele>
        <time>2022-04-09T07:54:55Z</time>
      </trkpt>
      <trkpt lat="41.6026220" lon="2.0194270">
        <ele>438.4</ele>
        <time>2022-04-09T07:54:57Z</time>
      </trkpt>
      <trkpt lat="41.6027510" lon="2.0192230">
        <ele>439.6</ele>
        <time>2022-04-09T07:55:02Z</time>
      </trkpt>
      <trkpt lat="41.6028290" lon="2.0191030">
        <ele>440.0</ele>
        <time>2022-04-09T07:55:05Z</time>
      </trkpt>
      <trkpt lat="41.6029500" lon="2.0188940">
        <ele>440.6</ele>
        <time>2022-04-09T07:55:10Z</time>
      </trkpt>
      <trkpt lat="41.6030260" lon="2.0187740">
        <ele>441.4</ele>
        <time>2022-04-09T07:55:13Z</time>
      </trkpt>
      <trkpt lat="41.6030810" lon="2.0186830">
        <ele>441.8</ele>
        <time>2022-04-09T07:55:15Z</time>
      </trkpt>
      <trkpt lat="41.6032140" lon="2.0184610">
        <ele>443.0</ele>
        <time>2022-04-09T07:55:20Z</time>
      </trkpt>
      <trkpt lat="41.6032620" lon="2.0183860">
        <ele>443.2</ele>
        <time>2022-04-09T07:55:22Z</time>
      </trkpt>
      <trkpt lat="41.6033950" lon="2.0181670">
        <ele>444.0</ele>
        <time>2022-04-09T07:55:27Z</time>
      </trkpt>
      <trkpt lat="41.6034930" lon="2.0180090">
        <ele>444.8</ele>
        <time>2022-04-09T07:55:31Z</time>
      </trkpt>
      <trkpt lat="41.6035250" lon="2.0179580">
        <ele>445.2</ele>
        <time>2022-04-09T07:55:32Z</time>
      </trkpt>
      <trkpt lat="41.6037120" lon="2.0176740">
        <ele>446.4</ele>
        <time>2022-04-09T07:55:39Z</time>
      </trkpt>
      <trkpt lat="41.6037620" lon="2.0175970">
        <ele>446.8</ele>
        <time>2022-04-09T07:55:41Z</time>
      </trkpt>
      <trkpt lat="41.6038280" lon="2.0174910">
        <ele>447.6</ele>
        <time>2022-04-09T07:55:44Z</time>
      </trkpt>
      <trkpt lat="41.6040110" lon="2.0171960">
        <ele>448.6</ele>
        <time>2022-04-09T07:55:51Z</time>
      </trkpt>
      <trkpt lat="41.6041580" lon="2.0169520">
        <ele>449.8</ele>
        <time>2022-04-09T07:55:57Z</time>
      </trkpt>
      <trkpt lat="41.6041780" lon="2.0169190">
        <ele>450.0</ele>
        <time>2022-04-09T07:55:58Z</time>
      </trkpt>
      <trkpt lat="41.6043430" lon="2.0166810">
        <ele>450.8</ele>
        <time>2022-04-09T07:56:04Z</time>
      </trkpt>
      <trkpt lat="41.6043680" lon="2.0166420">
        <ele>451.0</ele>
        <time>2022-04-09T07:56:05Z</time>
      </trkpt>
      <trkpt lat="41.6044830" lon="2.0164930">
        <ele>451.8</ele>
        <time>2022-04-09T07:56:09Z</time>
      </trkpt>
      <trkpt lat="41.6045970" lon="2.0163580">
        <ele>452.2</ele>
        <time>2022-04-09T07:56:13Z</time>
      </trkpt>
      <trkpt lat="41.6046500" lon="2.0163000">
        <ele>453.0</ele>
        <time>2022-04-09T07:56:15Z</time>
      </trkpt>
      <trkpt lat="41.6047900" lon="2.0162060">
        <ele>453.8</ele>
        <time>2022-04-09T07:56:19Z</time>
      </trkpt>
      <trkpt lat="41.6048190" lon="2.0161780">
        <ele>454.0</ele>
        <time>2022-04-09T07:56:20Z</time>
      </trkpt>
      <trkpt lat="41.6048570" lon="2.0160950">
        <ele>454.2</ele>
        <time>2022-04-09T07:56:22Z</time>
      </trkpt>
      <trkpt lat="41.6049780" lon="2.0158890">
        <ele>454.8</ele>
        <time>2022-04-09T07:56:27Z</time>
      </trkpt>
      <trkpt lat="41.6051070" lon="2.0157890">
        <ele>455.0</ele>
        <time>2022-04-09T07:56:31Z</time>
      </trkpt>
      <trkpt lat="41.6051930" lon="2.0156990">
        <ele>456.0</ele>
        <time>2022-04-09T07:56:34Z</time>
      </trkpt>
      <trkpt lat="41.6052560" lon="2.0156260">
        <ele>456.4</ele>
        <time>2022-04-09T07:56:36Z</time>
      </trkpt>
      <trkpt lat="41.6053400" lon="2.0155270">
        <ele>457.2</ele>
        <time>2022-04-09T07:56:39Z</time>
      </trkpt>
      <trkpt lat="41.6053880" lon="2.0154540">
        <ele>458.6</ele>
        <time>2022-04-09T07:56:41Z</time>
      </trkpt>
      <trkpt lat="41.6054360" lon="2.0153730">
        <ele>459.4</ele>
        <time>2022-04-09T07:56:43Z</time>
      </trkpt>
      <trkpt lat="41.6054600" lon="2.0153330">
        <ele>459.8</ele>
        <time>2022-04-09T07:56:44Z</time>
      </trkpt>
      <trkpt lat="41.6055850" lon="2.0150500">
        <ele>460.8</ele>
        <time>2022-04-09T07:56:50Z</time>
      </trkpt>
      <trkpt lat="41.6056020" lon="2.0150010">
        <ele>461.0</ele>
        <time>2022-04-09T07:56:51Z</time>
      </trkpt>
      <trkpt lat="41.6056870" lon="2.0147510">
        <ele>461.8</ele>
        <time>2022-04-09T07:56:56Z</time>
      </trkpt>
      <trkpt lat="41.6057250" lon="2.0146450">
        <ele>462.2</ele>
        <time>2022-04-09T07:56:58Z</time>
      </trkpt>
      <trkpt lat="41.6058000" lon="2.0143970">
        <ele>462.8</ele>
        <time>2022-04-09T07:57:04Z</time>
      </trkpt>
      <trkpt lat="41.6058120" lon="2.0143550">
        <ele>463.2</ele>
        <time>2022-04-09T07:57:05Z</time>
      </trkpt>
      <trkpt lat="41.6058820" lon="2.0141820">
        <ele>463.8</ele>
        <time>2022-04-09T07:57:09Z</time>
      </trkpt>
      <trkpt lat="41.6059550" lon="2.0140480">
        <ele>464.0</ele>
        <time>2022-04-09T07:57:12Z</time>
      </trkpt>
      <trkpt lat="41.6060150" lon="2.0139790">
        <ele>464.2</ele>
        <time>2022-04-09T07:57:14Z</time>
      </trkpt>
      <trkpt lat="41.6062470" lon="2.0136580">
        <ele>465.2</ele>
        <time>2022-04-09T07:57:22Z</time>
      </trkpt>
      <trkpt lat="41.6064220" lon="2.0133900">
        <ele>466.4</ele>
        <time>2022-04-09T07:57:28Z</time>
      </trkpt>
      <trkpt lat="41.6065260" lon="2.0131650">
        <ele>467.6</ele>
        <time>2022-04-09T07:57:33Z</time>
      </trkpt>
      <trkpt lat="41.6065500" lon="2.0131090">
        <ele>467.8</ele>
        <time>2022-04-09T07:57:34Z</time>
      </trkpt>
      <trkpt lat="41.6066580" lon="2.0128540">
        <ele>468.8</ele>
        <time>2022-04-09T07:57:39Z</time>
      </trkpt>
      <trkpt lat="41.6066850" lon="2.0128050">
        <ele>469.2</ele>
        <time>2022-04-09T07:57:40Z</time>
      </trkpt>
      <trkpt lat="41.6067420" lon="2.0127160">
        <ele>470.0</ele>
        <time>2022-04-09T07:57:42Z</time>
      </trkpt>
      <trkpt lat="41.6067910" lon="2.0126280">
        <ele>470.4</ele>
        <time>2022-04-09T07:57:45Z</time>
      </trkpt>
      <trkpt lat="41.6068230" lon="2.0125460">
        <ele>470.8</ele>
        <time>2022-04-09T07:57:48Z</time>
      </trkpt>
      <trkpt lat="41.6068700" lon="2.0124110">
        <ele>471.4</ele>
        <time>2022-04-09T07:57:51Z</time>
      </trkpt>
      <trkpt lat="41.6069300" lon="2.0122870">
        <ele>471.8</ele>
        <time>2022-04-09T07:57:54Z</time>
      </trkpt>
      <trkpt lat="41.6069710" lon="2.0122180">
        <ele>472.0</ele>
        <time>2022-04-09T07:57:56Z</time>
      </trkpt>
      <trkpt lat="41.6070700" lon="2.0120200">
        <ele>473.2</ele>
        <time>2022-04-09T07:58:01Z</time>
      </trkpt>
      <trkpt lat="41.6070960" lon="2.0119780">
        <ele>473.4</ele>
        <time>2022-04-09T07:58:02Z</time>
      </trkpt>
      <trkpt lat="41.6071490" lon="2.0118610">
        <ele>474.2</ele>
        <time>2022-04-09T07:58:05Z</time>
      </trkpt>
      <trkpt lat="41.6072270" lon="2.0117120">
        <ele>475.2</ele>
        <time>2022-04-09T07:58:08Z</time>
      </trkpt>
      <trkpt lat="41.6072550" lon="2.0116700">
        <ele>475.4</ele>
        <time>2022-04-09T07:58:09Z</time>
      </trkpt>
      <trkpt lat="41.6073900" lon="2.0114770">
        <ele>476.2</ele>
        <time>2022-04-09T07:58:14Z</time>
      </trkpt>
      <trkpt lat="41.6075080" lon="2.0112400">
        <ele>477.2</ele>
        <time>2022-04-09T07:58:19Z</time>
      </trkpt>
      <trkpt lat="41.6075280" lon="2.0111900">
        <ele>477.4</ele>
        <time>2022-04-09T07:58:20Z</time>
      </trkpt>
      <trkpt lat="41.6075910" lon="2.0110060">
        <ele>477.6</ele>
        <time>2022-04-09T07:58:23Z</time>
      </trkpt>
      <trkpt lat="41.6076140" lon="2.0108820">
        <ele>477.6</ele>
        <time>2022-04-09T07:58:25Z</time>
      </trkpt>
      <trkpt lat="41.6076280" lon="2.0108160">
        <ele>477.8</ele>
        <time>2022-04-09T07:58:26Z</time>
      </trkpt>
      <trkpt lat="41.6076440" lon="2.0106140">
        <ele>477.8</ele>
        <time>2022-04-09T07:58:29Z</time>
      </trkpt>
      <trkpt lat="41.6076520" lon="2.0105530">
        <ele>477.8</ele>
        <time>2022-04-09T07:58:30Z</time>
      </trkpt>
      <trkpt lat="41.6077030" lon="2.0102690">
        <ele>477.6</ele>
        <time>2022-04-09T07:58:35Z</time>
      </trkpt>
      <trkpt lat="41.6077310" lon="2.0101490">
        <ele>477.6</ele>
        <time>2022-04-09T07:58:37Z</time>
      </trkpt>
      <trkpt lat="41.6078490" lon="2.0099060">
        <ele>477.4</ele>
        <time>2022-04-09T07:58:41Z</time>
      </trkpt>
      <trkpt lat="41.6080700" lon="2.0095950">
        <ele>477.4</ele>
        <time>2022-04-09T07:58:47Z</time>
      </trkpt>
      <trkpt lat="41.6084560" lon="2.0092110">
        <ele>477.6</ele>
        <time>2022-04-09T07:58:56Z</time>
      </trkpt>
      <trkpt lat="41.6085590" lon="2.0091590">
        <ele>477.8</ele>
        <time>2022-04-09T07:58:58Z</time>
      </trkpt>
      <trkpt lat="41.6086640" lon="2.0091440">
        <ele>478.0</ele>
        <time>2022-04-09T07:59:00Z</time>
      </trkpt>
      <trkpt lat="41.6088060" lon="2.0091710">
        <ele>478.4</ele>
        <time>2022-04-09T07:59:03Z</time>
      </trkpt>
      <trkpt lat="41.6088890" lon="2.0091990">
        <ele>478.6</ele>
        <time>2022-04-09T07:59:05Z</time>
      </trkpt>
      <trkpt lat="41.6089270" lon="2.0092170">
        <ele>479.0</ele>
        <time>2022-04-09T07:59:06Z</time>
      </trkpt>
      <trkpt lat="41.6089610" lon="2.0092360">
        <ele>479.4</ele>
        <time>2022-04-09T07:59:07Z</time>
      </trkpt>
      <trkpt lat="41.6090770" lon="2.0092610">
        <ele>480.4</ele>
        <time>2022-04-09T07:59:10Z</time>
      </trkpt>
      <trkpt lat="41.6091810" lon="2.0092500">
        <ele>481.4</ele>
        <time>2022-04-09T07:59:13Z</time>
      </trkpt>
      <trkpt lat="41.6092590" lon="2.0092370">
        <ele>482.0</ele>
        <time>2022-04-09T07:59:15Z</time>
      </trkpt>
      <trkpt lat="41.6093370" lon="2.0092180">
        <ele>482.4</ele>
        <time>2022-04-09T07:59:17Z</time>
      </trkpt>
      <trkpt lat="41.6095320" lon="2.0091380">
        <ele>483.6</ele>
        <time>2022-04-09T07:59:22Z</time>
      </trkpt>
      <trkpt lat="41.6097480" lon="2.0090530">
        <ele>484.8</ele>
        <time>2022-04-09T07:59:27Z</time>
      </trkpt>
      <trkpt lat="41.6099210" lon="2.0089860">
        <ele>485.6</ele>
        <time>2022-04-09T07:59:31Z</time>
      </trkpt>
      <trkpt lat="41.6100150" lon="2.0089480">
        <ele>486.0</ele>
        <time>2022-04-09T07:59:33Z</time>
      </trkpt>
      <trkpt lat="41.6102260" lon="2.0088660">
        <ele>487.0</ele>
        <time>2022-04-09T07:59:38Z</time>
      </trkpt>
      <trkpt lat="41.6103340" lon="2.0088340">
        <ele>488.2</ele>
        <time>2022-04-09T07:59:41Z</time>
      </trkpt>
      <trkpt lat="41.6106160" lon="2.0087170">
        <ele>489.2</ele>
        <time>2022-04-09T07:59:48Z</time>
      </trkpt>
      <trkpt lat="41.6106490" lon="2.0087040">
        <ele>489.4</ele>
        <time>2022-04-09T07:59:49Z</time>
      </trkpt>
      <trkpt lat="41.6107350" lon="2.0086730">
        <ele>489.8</ele>
        <time>2022-04-09T07:59:51Z</time>
      </trkpt>
      <trkpt lat="41.6108130" lon="2.0086450">
        <ele>490.6</ele>
        <time>2022-04-09T07:59:53Z</time>
      </trkpt>
      <trkpt lat="41.6109340" lon="2.0085970">
        <ele>491.6</ele>
        <time>2022-04-09T07:59:56Z</time>
      </trkpt>
      <trkpt lat="41.6110850" lon="2.0085250">
        <ele>492.8</ele>
        <time>2022-04-09T08:00:00Z</time>
      </trkpt>
      <trkpt lat="41.6112630" lon="2.0084140">
        <ele>493.8</ele>
        <time>2022-04-09T08:00:05Z</time>
      </trkpt>
      <trkpt lat="41.6114430" lon="2.0082780">
        <ele>495.0</ele>
        <time>2022-04-09T08:00:10Z</time>
      </trkpt>
      <trkpt lat="41.6117050" lon="2.0080850">
        <ele>496.0</ele>
        <time>2022-04-09T08:00:17Z</time>
      </trkpt>
      <trkpt lat="41.6117780" lon="2.0080270">
        <ele>496.4</ele>
        <time>2022-04-09T08:00:19Z</time>
      </trkpt>
      <trkpt lat="41.6120270" lon="2.0078440">
        <ele>497.4</ele>
        <time>2022-04-09T08:00:26Z</time>
      </trkpt>
      <trkpt lat="41.6120630" lon="2.0078170">
        <ele>497.6</ele>
        <time>2022-04-09T08:00:27Z</time>
      </trkpt>
      <trkpt lat="41.6121670" lon="2.0077330">
        <ele>498.4</ele>
        <time>2022-04-09T08:00:30Z</time>
      </trkpt>
      <trkpt lat="41.6123940" lon="2.0075630">
        <ele>499.4</ele>
        <time>2022-04-09T08:00:36Z</time>
      </trkpt>
      <trkpt lat="41.6124300" lon="2.0075330">
        <ele>499.6</ele>
        <time>2022-04-09T08:00:37Z</time>
      </trkpt>
      <trkpt lat="41.6126490" lon="2.0073650">
        <ele>500.6</ele>
        <time>2022-04-09T08:00:43Z</time>
      </trkpt>
      <trkpt lat="41.6128330" lon="2.0072230">
        <ele>501.4</ele>
        <time>2022-04-09T08:00:48Z</time>
      </trkpt>
      <trkpt lat="41.6129180" lon="2.0071580">
        <ele>501.8</ele>
        <time>2022-04-09T08:00:50Z</time>
      </trkpt>
      <trkpt lat="41.6131030" lon="2.0070160">
        <ele>503.0</ele>
        <time>2022-04-09T08:00:55Z</time>
      </trkpt>
      <trkpt lat="41.6131660" lon="2.0069650">
        <ele>503.2</ele>
        <time>2022-04-09T08:00:57Z</time>
      </trkpt>
      <trkpt lat="41.6133580" lon="2.0068240">
        <ele>504.2</ele>
        <time>2022-04-09T08:01:02Z</time>
      </trkpt>
      <trkpt lat="41.6135940" lon="2.0066470">
        <ele>505.4</ele>
        <time>2022-04-09T08:01:08Z</time>
      </trkpt>
      <trkpt lat="41.6137320" lon="2.0065430">
        <ele>506.4</ele>
        <time>2022-04-09T08:01:12Z</time>
      </trkpt>
      <trkpt lat="41.6137680" lon="2.0065130">
        <ele>506.6</ele>
        <time>2022-04-09T08:01:13Z</time>
      </trkpt>
      <trkpt lat="41.6138810" lon="2.0064280">
        <ele>507.0</ele>
        <time>2022-04-09T08:01:16Z</time>
      </trkpt>
      <trkpt lat="41.6139930" lon="2.0063400">
        <ele>507.8</ele>
        <time>2022-04-09T08:01:19Z</time>
      </trkpt>
      <trkpt lat="41.6142120" lon="2.0061710">
        <ele>508.8</ele>
        <time>2022-04-09T08:01:25Z</time>
      </trkpt>
      <trkpt lat="41.6142490" lon="2.0061440">
        <ele>509.2</ele>
        <time>2022-04-09T08:01:26Z</time>
      </trkpt>
      <trkpt lat="41.6143900" lon="2.0060410">
        <ele>509.8</ele>
        <time>2022-04-09T08:01:30Z</time>
      </trkpt>
      <trkpt lat="41.6145280" lon="2.0059290">
        <ele>510.6</ele>
        <time>2022-04-09T08:01:34Z</time>
      </trkpt>
      <trkpt lat="41.6146030" lon="2.0058700">
        <ele>511.0</ele>
        <time>2022-04-09T08:01:36Z</time>
      </trkpt>
      <trkpt lat="41.6147040" lon="2.0057830">
        <ele>511.4</ele>
        <time>2022-04-09T08:01:39Z</time>
      </trkpt>
      <trkpt lat="41.6148120" lon="2.0057030">
        <ele>512.2</ele>
        <time>2022-04-09T08:01:42Z</time>
      </trkpt>
      <trkpt lat="41.6150680" lon="2.0055640">
        <ele>513.4</ele>
        <time>2022-04-09T08:01:49Z</time>
      </trkpt>
      <trkpt lat="41.6151030" lon="2.0055570">
        <ele>513.6</ele>
        <time>2022-04-09T08:01:50Z</time>
      </trkpt>
      <trkpt lat="41.6151680" lon="2.0055540">
        <ele>514.0</ele>
        <time>2022-04-09T08:01:52Z</time>
      </trkpt>
      <trkpt lat="41.6151900" lon="2.0055430">
        <ele>514.2</ele>
        <time>2022-04-09T08:01:53Z</time>
      </trkpt>
      <trkpt lat="41.6151900" lon="2.0055430">
        <ele>514.6</ele>
        <time>2022-04-09T08:01:54Z</time>
      </trkpt>
      <trkpt lat="41.6151900" lon="2.0055430">
        <ele>514.8</ele>
        <time>2022-04-09T08:01:55Z</time>
      </trkpt>
      <trkpt lat="41.6152260" lon="2.0055260">
        <ele>515.2</ele>
        <time>2022-04-09T08:02:39Z</time>
      </trkpt>
      <trkpt lat="41.6153630" lon="2.0054680">
        <ele>515.2</ele>
        <time>2022-04-09T08:02:43Z</time>
      </trkpt>
      <trkpt lat="41.6156230" lon="2.0053450">
        <ele>515.6</ele>
        <time>2022-04-09T08:02:49Z</time>
      </trkpt>
      <trkpt lat="41.6156670" lon="2.0053230">
        <ele>515.6</ele>
        <time>2022-04-09T08:02:50Z</time>
      </trkpt>
      <trkpt lat="41.6158960" lon="2.0052150">
        <ele>516.6</ele>
        <time>2022-04-09T08:02:55Z</time>
      </trkpt>
      <trkpt lat="41.6159810" lon="2.0051770">
        <ele>516.8</ele>
        <time>2022-04-09T08:02:57Z</time>
      </trkpt>
      <trkpt lat="41.6161790" lon="2.0050730">
        <ele>517.8</ele>
        <time>2022-04-09T08:03:01Z</time>
      </trkpt>
      <trkpt lat="41.6164010" lon="2.0049510">
        <ele>519.2</ele>
        <time>2022-04-09T08:03:06Z</time>
      </trkpt>
      <trkpt lat="41.6164510" lon="2.0049210">
        <ele>519.2</ele>
        <time>2022-04-09T08:03:07Z</time>
      </trkpt>
      <trkpt lat="41.6166230" lon="2.0048250">
        <ele>520.2</ele>
        <time>2022-04-09T08:03:12Z</time>
      </trkpt>
      <trkpt lat="41.6166670" lon="2.0047970">
        <ele>520.4</ele>
        <time>2022-04-09T08:03:13Z</time>
      </trkpt>
      <trkpt lat="41.6168870" lon="2.0046260">
        <ele>521.4</ele>
        <time>2022-04-09T08:03:19Z</time>
      </trkpt>
      <trkpt lat="41.6170230" lon="2.0045040">
        <ele>522.4</ele>
        <time>2022-04-09T08:03:23Z</time>
      </trkpt>
      <trkpt lat="41.6171430" lon="2.0043950">
        <ele>523.0</ele>
        <time>2022-04-09T08:03:27Z</time>
      </trkpt>
      <trkpt lat="41.6172570" lon="2.0042850">
        <ele>523.6</ele>
        <time>2022-04-09T08:03:31Z</time>
      </trkpt>
      <trkpt lat="41.6173110" lon="2.0042380">
        <ele>523.6</ele>
        <time>2022-04-09T08:03:33Z</time>
      </trkpt>
      <trkpt lat="41.6175100" lon="2.0040450">
        <ele>524.6</ele>
        <time>2022-04-09T08:03:40Z</time>
      </trkpt>
      <trkpt lat="41.6175600" lon="2.0040000">
        <ele>525.0</ele>
        <time>2022-04-09T08:03:42Z</time>
      </trkpt>
      <trkpt lat="41.6176780" lon="2.0038910">
        <ele>525.8</ele>
        <time>2022-04-09T08:03:46Z</time>
      </trkpt>
      <trkpt lat="41.6177660" lon="2.0038120">
        <ele>526.2</ele>
        <time>2022-04-09T08:03:49Z</time>
      </trkpt>
      <trkpt lat="41.6179110" lon="2.0036800">
        <ele>526.8</ele>
        <time>2022-04-09T08:03:54Z</time>
      </trkpt>
      <trkpt lat="41.6180060" lon="2.0036080">
        <ele>527.0</ele>
        <time>2022-04-09T08:03:57Z</time>
      </trkpt>
      <trkpt lat="41.6182240" lon="2.0034800">
        <ele>528.0</ele>
        <time>2022-04-09T08:04:04Z</time>
      </trkpt>
      <trkpt lat="41.6183120" lon="2.0034380">
        <ele>528.4</ele>
        <time>2022-04-09T08:04:07Z</time>
      </trkpt>
      <trkpt lat="41.6183990" lon="2.0034050">
        <ele>529.0</ele>
        <time>2022-04-09T08:04:10Z</time>
      </trkpt>
      <trkpt lat="41.6185880" lon="2.0033260">
        <ele>530.2</ele>
        <time>2022-04-09T08:04:16Z</time>
      </trkpt>
      <trkpt lat="41.6188170" lon="2.0032400">
        <ele>531.2</ele>
        <time>2022-04-09T08:04:23Z</time>
      </trkpt>
      <trkpt lat="41.6189150" lon="2.0032020">
        <ele>531.6</ele>
        <time>2022-04-09T08:04:26Z</time>
      </trkpt>
      <trkpt lat="41.6190400" lon="2.0031480">
        <ele>532.2</ele>
        <time>2022-04-09T08:04:30Z</time>
      </trkpt>
      <trkpt lat="41.6192090" lon="2.0030850">
        <ele>533.0</ele>
        <time>2022-04-09T08:04:35Z</time>
      </trkpt>
      <trkpt lat="41.6193060" lon="2.0030480">
        <ele>533.2</ele>
        <time>2022-04-09T08:04:38Z</time>
      </trkpt>
      <trkpt lat="41.6194810" lon="2.0029660">
        <ele>533.8</ele>
        <time>2022-04-09T08:04:43Z</time>
      </trkpt>
      <trkpt lat="41.6196740" lon="2.0028890">
        <ele>534.4</ele>
        <time>2022-04-09T08:04:48Z</time>
      </trkpt>
      <trkpt lat="41.6198930" lon="2.0027830">
        <ele>535.4</ele>
        <time>2022-04-09T08:04:54Z</time>
      </trkpt>
      <trkpt lat="41.6199350" lon="2.0027660">
        <ele>535.6</ele>
        <time>2022-04-09T08:04:55Z</time>
      </trkpt>
      <trkpt lat="41.6200490" lon="2.0027250">
        <ele>535.8</ele>
        <time>2022-04-09T08:04:59Z</time>
      </trkpt>
      <trkpt lat="41.6202220" lon="2.0026740">
        <ele>536.4</ele>
        <time>2022-04-09T08:05:04Z</time>
      </trkpt>
      <trkpt lat="41.6203400" lon="2.0026190">
        <ele>536.6</ele>
        <time>2022-04-09T08:05:07Z</time>
      </trkpt>
      <trkpt lat="41.6205190" lon="2.0025470">
        <ele>537.4</ele>
        <time>2022-04-09T08:05:13Z</time>
      </trkpt>
      <trkpt lat="41.6205980" lon="2.0025080">
        <ele>537.6</ele>
        <time>2022-04-09T08:05:15Z</time>
      </trkpt>
      <trkpt lat="41.6207430" lon="2.0024190">
        <ele>538.0</ele>
        <time>2022-04-09T08:05:19Z</time>
      </trkpt>
      <trkpt lat="41.6209570" lon="2.0022330">
        <ele>538.4</ele>
        <time>2022-04-09T08:05:25Z</time>
      </trkpt>
      <trkpt lat="41.6210250" lon="2.0021590">
        <ele>538.4</ele>
        <time>2022-04-09T08:05:27Z</time>
      </trkpt>
      <trkpt lat="41.6212210" lon="2.0019210">
        <ele>538.6</ele>
        <time>2022-04-09T08:05:32Z</time>
      </trkpt>
      <trkpt lat="41.6213780" lon="2.0017360">
        <ele>538.6</ele>
        <time>2022-04-09T08:05:36Z</time>
      </trkpt>
      <trkpt lat="41.6214690" lon="2.0016650">
        <ele>538.6</ele>
        <time>2022-04-09T08:05:38Z</time>
      </trkpt>
      <trkpt lat="41.6216750" lon="2.0015940">
        <ele>538.6</ele>
        <time>2022-04-09T08:05:42Z</time>
      </trkpt>
      <trkpt lat="41.6218320" lon="2.0015600">
        <ele>538.6</ele>
        <time>2022-04-09T08:05:45Z</time>
      </trkpt>
      <trkpt lat="41.6218810" lon="2.0015540">
        <ele>538.6</ele>
        <time>2022-04-09T08:05:46Z</time>
      </trkpt>
      <trkpt lat="41.6219720" lon="2.0015500">
        <ele>538.6</ele>
        <time>2022-04-09T08:05:48Z</time>
      </trkpt>
      <trkpt lat="41.6221770" lon="2.0015430">
        <ele>538.8</ele>
        <time>2022-04-09T08:05:52Z</time>
      </trkpt>
      <trkpt lat="41.6224150" lon="2.0014980">
        <ele>538.6</ele>
        <time>2022-04-09T08:05:56Z</time>
      </trkpt>
      <trkpt lat="41.6224740" lon="2.0014950">
        <ele>538.6</ele>
        <time>2022-04-09T08:05:57Z</time>
      </trkpt>
      <trkpt lat="41.6227040" lon="2.0014600">
        <ele>538.8</ele>
        <time>2022-04-09T08:06:01Z</time>
      </trkpt>
      <trkpt lat="41.6227550" lon="2.0014500">
        <ele>538.8</ele>
        <time>2022-04-09T08:06:02Z</time>
      </trkpt>
      <trkpt lat="41.6229850" lon="2.0014320">
        <ele>539.0</ele>
        <time>2022-04-09T08:06:06Z</time>
      </trkpt>
      <trkpt lat="41.6230230" lon="2.0014270">
        <ele>539.2</ele>
        <time>2022-04-09T08:06:07Z</time>
      </trkpt>
      <trkpt lat="41.6231780" lon="2.0014200">
        <ele>539.2</ele>
        <time>2022-04-09T08:06:10Z</time>
      </trkpt>
      <trkpt lat="41.6232810" lon="2.0013930">
        <ele>539.6</ele>
        <time>2022-04-09T08:06:12Z</time>
      </trkpt>
      <trkpt lat="41.6234440" lon="2.0013630">
        <ele>540.4</ele>
        <time>2022-04-09T08:06:16Z</time>
      </trkpt>
      <trkpt lat="41.6234920" lon="2.0013550">
        <ele>540.4</ele>
        <time>2022-04-09T08:06:17Z</time>
      </trkpt>
      <trkpt lat="41.6236490" lon="2.0013100">
        <ele>541.0</ele>
        <time>2022-04-09T08:06:22Z</time>
      </trkpt>
      <trkpt lat="41.6236760" lon="2.0013130">
        <ele>541.2</ele>
        <time>2022-04-09T08:06:23Z</time>
      </trkpt>
      <trkpt lat="41.6238350" lon="2.0012510">
        <ele>542.4</ele>
        <time>2022-04-09T08:06:28Z</time>
      </trkpt>
      <trkpt lat="41.6239870" lon="2.0011520">
        <ele>543.6</ele>
        <time>2022-04-09T08:06:33Z</time>
      </trkpt>
      <trkpt lat="41.6240100" lon="2.0011410">
        <ele>543.8</ele>
        <time>2022-04-09T08:06:34Z</time>
      </trkpt>
      <trkpt lat="41.6241350" lon="2.0010750">
        <ele>544.6</ele>
        <time>2022-04-09T08:06:38Z</time>
      </trkpt>
      <trkpt lat="41.6242030" lon="2.0010340">
        <ele>545.0</ele>
        <time>2022-04-09T08:06:40Z</time>
      </trkpt>
      <trkpt lat="41.6243220" lon="2.0009690">
        <ele>546.0</ele>
        <time>2022-04-09T08:06:44Z</time>
      </trkpt>
      <trkpt lat="41.6244330" lon="2.0008910">
        <ele>546.8</ele>
        <time>2022-04-09T08:06:48Z</time>
      </trkpt>
      <trkpt lat="41.6244600" lon="2.0008800">
        <ele>547.2</ele>
        <time>2022-04-09T08:06:49Z</time>
      </trkpt>
      <trkpt lat="41.6245850" lon="2.0008070">
        <ele>548.4</ele>
        <time>2022-04-09T08:06:54Z</time>
      </trkpt>
      <trkpt lat="41.6246120" lon="2.0007830">
        <ele>548.6</ele>
        <time>2022-04-09T08:06:55Z</time>
      </trkpt>
      <trkpt lat="41.6247230" lon="2.0007200">
        <ele>549.6</ele>
        <time>2022-04-09T08:06:59Z</time>
      </trkpt>
      <trkpt lat="41.6248120" lon="2.0006800">
        <ele>550.2</ele>
        <time>2022-04-09T08:07:02Z</time>
      </trkpt>
      <trkpt lat="41.6249020" lon="2.0006350">
        <ele>550.8</ele>
        <time>2022-04-09T08:07:05Z</time>
      </trkpt>
      <trkpt lat="41.6250210" lon="2.0005690">
        <ele>551.8</ele>
        <time>2022-04-09T08:07:09Z</time>
      </trkpt>
      <trkpt lat="41.6250480" lon="2.0005510">
        <ele>552.0</ele>
        <time>2022-04-09T08:07:10Z</time>
      </trkpt>
      <trkpt lat="41.6251230" lon="2.0005020">
        <ele>552.8</ele>
        <time>2022-04-09T08:07:13Z</time>
      </trkpt>
      <trkpt lat="41.6251480" lon="2.0004880">
        <ele>553.0</ele>
        <time>2022-04-09T08:07:14Z</time>
      </trkpt>
      <trkpt lat="41.6252920" lon="2.0004130">
        <ele>554.0</ele>
        <time>2022-04-09T08:07:19Z</time>
      </trkpt>
      <trkpt lat="41.6253170" lon="2.0003970">
        <ele>554.2</ele>
        <time>2022-04-09T08:07:20Z</time>
      </trkpt>
      <trkpt lat="41.6254390" lon="2.0003310">
        <ele>555.0</ele>
        <time>2022-04-09T08:07:24Z</time>
      </trkpt>
      <trkpt lat="41.6255290" lon="2.0002740">
        <ele>555.8</ele>
        <time>2022-04-09T08:07:27Z</time>
      </trkpt>
      <trkpt lat="41.6255830" lon="2.0002420">
        <ele>556.2</ele>
        <time>2022-04-09T08:07:29Z</time>
      </trkpt>
      <trkpt lat="41.6257320" lon="2.0001490">
        <ele>557.2</ele>
        <time>2022-04-09T08:07:34Z</time>
      </trkpt>
      <trkpt lat="41.6257970" lon="2.0001170">
        <ele>557.4</ele>
        <time>2022-04-09T08:07:36Z</time>
      </trkpt>
      <trkpt lat="41.6259520" lon="2.0000220">
        <ele>558.0</ele>
        <time>2022-04-09T08:07:41Z</time>
      </trkpt>
      <trkpt lat="41.6260330" lon="1.9999640">
        <ele>558.4</ele>
        <time>2022-04-09T08:07:44Z</time>
      </trkpt>
      <trkpt lat="41.6261480" lon="1.9998990">
        <ele>559.0</ele>
        <time>2022-04-09T08:07:48Z</time>
      </trkpt>
      <trkpt lat="41.6262720" lon="1.9998190">
        <ele>560.2</ele>
        <time>2022-04-09T08:07:52Z</time>
      </trkpt>
      <trkpt lat="41.6263040" lon="1.9998010">
        <ele>560.2</ele>
        <time>2022-04-09T08:07:53Z</time>
      </trkpt>
      <trkpt lat="41.6265030" lon="1.9996510">
        <ele>561.2</ele>
        <time>2022-04-09T08:08:00Z</time>
      </trkpt>
      <trkpt lat="41.6265560" lon="1.9996100">
        <ele>561.6</ele>
        <time>2022-04-09T08:08:02Z</time>
      </trkpt>
      <trkpt lat="41.6266400" lon="1.9995510">
        <ele>562.4</ele>
        <time>2022-04-09T08:08:05Z</time>
      </trkpt>
      <trkpt lat="41.6267440" lon="1.9994730">
        <ele>562.8</ele>
        <time>2022-04-09T08:08:09Z</time>
      </trkpt>
      <trkpt lat="41.6267710" lon="1.9994510">
        <ele>563.4</ele>
        <time>2022-04-09T08:08:10Z</time>
      </trkpt>
      <trkpt lat="41.6268660" lon="1.9993560">
        <ele>564.4</ele>
        <time>2022-04-09T08:08:13Z</time>
      </trkpt>
      <trkpt lat="41.6269550" lon="1.9992840">
        <ele>565.0</ele>
        <time>2022-04-09T08:08:16Z</time>
      </trkpt>
      <trkpt lat="41.6270110" lon="1.9992380">
        <ele>565.6</ele>
        <time>2022-04-09T08:08:18Z</time>
      </trkpt>
      <trkpt lat="41.6271890" lon="1.9991090">
        <ele>566.8</ele>
        <time>2022-04-09T08:08:24Z</time>
      </trkpt>
      <trkpt lat="41.6273120" lon="1.9990240">
        <ele>567.8</ele>
        <time>2022-04-09T08:08:28Z</time>
      </trkpt>
      <trkpt lat="41.6273850" lon="1.9989560">
        <ele>568.4</ele>
        <time>2022-04-09T08:08:31Z</time>
      </trkpt>
      <trkpt lat="41.6274580" lon="1.9988950">
        <ele>569.2</ele>
        <time>2022-04-09T08:08:34Z</time>
      </trkpt>
      <trkpt lat="41.6275520" lon="1.9987970">
        <ele>569.6</ele>
        <time>2022-04-09T08:08:37Z</time>
      </trkpt>
      <trkpt lat="41.6276130" lon="1.9987420">
        <ele>570.4</ele>
        <time>2022-04-09T08:08:39Z</time>
      </trkpt>
      <trkpt lat="41.6277280" lon="1.9986310">
        <ele>571.2</ele>
        <time>2022-04-09T08:08:43Z</time>
      </trkpt>
      <trkpt lat="41.6277530" lon="1.9986020">
        <ele>571.4</ele>
        <time>2022-04-09T08:08:44Z</time>
      </trkpt>
      <trkpt lat="41.6278580" lon="1.9985110">
        <ele>572.2</ele>
        <time>2022-04-09T08:08:48Z</time>
      </trkpt>
      <trkpt lat="41.6279090" lon="1.9984590">
        <ele>572.6</ele>
        <time>2022-04-09T08:08:50Z</time>
      </trkpt>
      <trkpt lat="41.6280240" lon="1.9983340">
        <ele>573.4</ele>
        <time>2022-04-09T08:08:54Z</time>
      </trkpt>
      <trkpt lat="41.6280420" lon="1.9983210">
        <ele>573.6</ele>
        <time>2022-04-09T08:08:55Z</time>
      </trkpt>
      <trkpt lat="41.6281340" lon="1.9982180">
        <ele>574.6</ele>
        <time>2022-04-09T08:08:59Z</time>
      </trkpt>
      <trkpt lat="41.6281620" lon="1.9981900">
        <ele>575.0</ele>
        <time>2022-04-09T08:09:00Z</time>
      </trkpt>
      <trkpt lat="41.6282810" lon="1.9980680">
        <ele>575.8</ele>
        <time>2022-04-09T08:09:04Z</time>
      </trkpt>
      <trkpt lat="41.6283400" lon="1.9980050">
        <ele>576.0</ele>
        <time>2022-04-09T08:09:06Z</time>
      </trkpt>
      <trkpt lat="41.6284550" lon="1.9978370">
        <ele>577.0</ele>
        <time>2022-04-09T08:09:11Z</time>
      </trkpt>
      <trkpt lat="41.6285120" lon="1.9977730">
        <ele>577.2</ele>
        <time>2022-04-09T08:09:13Z</time>
      </trkpt>
      <trkpt lat="41.6286940" lon="1.9975510">
        <ele>578.2</ele>
        <time>2022-04-09T08:09:20Z</time>
      </trkpt>
      <trkpt lat="41.6287220" lon="1.9975150">
        <ele>578.2</ele>
        <time>2022-04-09T08:09:21Z</time>
      </trkpt>
      <trkpt lat="41.6288820" lon="1.9973470">
        <ele>579.2</ele>
        <time>2022-04-09T08:09:27Z</time>
      </trkpt>
      <trkpt lat="41.6289020" lon="1.9973170">
        <ele>579.2</ele>
        <time>2022-04-09T08:09:28Z</time>
      </trkpt>
      <trkpt lat="41.6289940" lon="1.9971790">
        <ele>579.8</ele>
        <time>2022-04-09T08:09:33Z</time>
      </trkpt>
      <trkpt lat="41.6290350" lon="1.9970920">
        <ele>580.2</ele>
        <time>2022-04-09T08:09:35Z</time>
      </trkpt>
      <trkpt lat="41.6290760" lon="1.9969420">
        <ele>580.8</ele>
        <time>2022-04-09T08:09:39Z</time>
      </trkpt>
      <trkpt lat="41.6290870" lon="1.9968260">
        <ele>581.2</ele>
        <time>2022-04-09T08:09:42Z</time>
      </trkpt>
      <trkpt lat="41.6291070" lon="1.9966730">
        <ele>581.6</ele>
        <time>2022-04-09T08:09:45Z</time>
      </trkpt>
      <trkpt lat="41.6291610" lon="1.9964670">
        <ele>581.8</ele>
        <time>2022-04-09T08:09:49Z</time>
      </trkpt>
      <trkpt lat="41.6292990" lon="1.9961440">
        <ele>582.2</ele>
        <time>2022-04-09T08:09:55Z</time>
      </trkpt>
      <trkpt lat="41.6293310" lon="1.9960880">
        <ele>582.2</ele>
        <time>2022-04-09T08:09:56Z</time>
      </trkpt>
      <trkpt lat="41.6294270" lon="1.9959210">
        <ele>582.6</ele>
        <time>2022-04-09T08:10:00Z</time>
      </trkpt>
      <trkpt lat="41.6296080" lon="1.9956740">
        <ele>583.2</ele>
        <time>2022-04-09T08:10:05Z</time>
      </trkpt>
      <trkpt lat="41.6296740" lon="1.9955760">
        <ele>583.4</ele>
        <time>2022-04-09T08:10:07Z</time>
      </trkpt>
      <trkpt lat="41.6297440" lon="1.9954820">
        <ele>583.6</ele>
        <time>2022-04-09T08:10:09Z</time>
      </trkpt>
      <trkpt lat="41.6299330" lon="1.9952650">
        <ele>584.4</ele>
        <time>2022-04-09T08:10:14Z</time>
      </trkpt>
      <trkpt lat="41.6300000" lon="1.9951940">
        <ele>584.6</ele>
        <time>2022-04-09T08:10:16Z</time>
      </trkpt>
      <trkpt lat="41.6302160" lon="1.9949820">
        <ele>585.4</ele>
        <time>2022-04-09T08:10:22Z</time>
      </trkpt>
      <trkpt lat="41.6305570" lon="1.9947110">
        <ele>586.0</ele>
        <time>2022-04-09T08:10:30Z</time>
      </trkpt>
      <trkpt lat="41.6306550" lon="1.9946400">
        <ele>586.4</ele>
        <time>2022-04-09T08:10:33Z</time>
      </trkpt>
      <trkpt lat="41.6306800" lon="1.9946220">
        <ele>586.4</ele>
        <time>2022-04-09T08:10:34Z</time>
      </trkpt>
      <trkpt lat="41.6307050" lon="1.9946080">
        <ele>586.4</ele>
        <time>2022-04-09T08:10:35Z</time>
      </trkpt>
      <trkpt lat="41.6308080" lon="1.9945460">
        <ele>586.8</ele>
        <time>2022-04-09T08:10:38Z</time>
      </trkpt>
      <trkpt lat="41.6308900" lon="1.9945050">
        <ele>587.4</ele>
        <time>2022-04-09T08:10:40Z</time>
      </trkpt>
      <trkpt lat="41.6310090" lon="1.9944390">
        <ele>587.6</ele>
        <time>2022-04-09T08:10:43Z</time>
      </trkpt>
      <trkpt lat="41.6311140" lon="1.9943620">
        <ele>588.6</ele>
        <time>2022-04-09T08:10:47Z</time>
      </trkpt>
      <trkpt lat="41.6311340" lon="1.9943530">
        <ele>588.6</ele>
        <time>2022-04-09T08:10:48Z</time>
      </trkpt>
      <trkpt lat="41.6311620" lon="1.9943420">
        <ele>589.2</ele>
        <time>2022-04-09T08:10:49Z</time>
      </trkpt>
      <trkpt lat="41.6312350" lon="1.9943010">
        <ele>589.6</ele>
        <time>2022-04-09T08:10:51Z</time>
      </trkpt>
      <trkpt lat="41.6313330" lon="1.9942330">
        <ele>590.0</ele>
        <time>2022-04-09T08:10:54Z</time>
      </trkpt>
      <trkpt lat="41.6314480" lon="1.9941320">
        <ele>590.6</ele>
        <time>2022-04-09T08:10:58Z</time>
      </trkpt>
      <trkpt lat="41.6314720" lon="1.9941120">
        <ele>590.8</ele>
        <time>2022-04-09T08:10:59Z</time>
      </trkpt>
      <trkpt lat="41.6315870" lon="1.9940210">
        <ele>591.8</ele>
        <time>2022-04-09T08:11:03Z</time>
      </trkpt>
      <trkpt lat="41.6316670" lon="1.9939680">
        <ele>592.2</ele>
        <time>2022-04-09T08:11:05Z</time>
      </trkpt>
      <trkpt lat="41.6317020" lon="1.9939380">
        <ele>592.4</ele>
        <time>2022-04-09T08:11:06Z</time>
      </trkpt>
      <trkpt lat="41.6317650" lon="1.9938910">
        <ele>592.8</ele>
        <time>2022-04-09T08:11:08Z</time>
      </trkpt>
      <trkpt lat="41.6318040" lon="1.9938620">
        <ele>593.0</ele>
        <time>2022-04-09T08:11:09Z</time>
      </trkpt>
      <trkpt lat="41.6319690" lon="1.9937550">
        <ele>594.0</ele>
        <time>2022-04-09T08:11:13Z</time>
      </trkpt>
      <trkpt lat="41.6321010" lon="1.9936920">
        <ele>595.0</ele>
        <time>2022-04-09T08:11:16Z</time>
      </trkpt>
      <trkpt lat="41.6321380" lon="1.9936710">
        <ele>595.2</ele>
        <time>2022-04-09T08:11:17Z</time>
      </trkpt>
      <trkpt lat="41.6322770" lon="1.9936130">
        <ele>596.2</ele>
        <time>2022-04-09T08:11:21Z</time>
      </trkpt>
      <trkpt lat="41.6323170" lon="1.9935980">
        <ele>596.4</ele>
        <time>2022-04-09T08:11:22Z</time>
      </trkpt>
      <trkpt lat="41.6325000" lon="1.9935230">
        <ele>597.2</ele>
        <time>2022-04-09T08:11:27Z</time>
      </trkpt>
      <trkpt lat="41.6325800" lon="1.9934780">
        <ele>598.2</ele>
        <time>2022-04-09T08:11:29Z</time>
      </trkpt>
      <trkpt lat="41.6326220" lon="1.9934630">
        <ele>598.4</ele>
        <time>2022-04-09T08:11:30Z</time>
      </trkpt>
      <trkpt lat="41.6328370" lon="1.9933840">
        <ele>599.4</ele>
        <time>2022-04-09T08:11:36Z</time>
      </trkpt>
      <trkpt lat="41.6329500" lon="1.9933190">
        <ele>600.4</ele>
        <time>2022-04-09T08:11:40Z</time>
      </trkpt>
      <trkpt lat="41.6330240" lon="1.9932740">
        <ele>600.6</ele>
        <time>2022-04-09T08:11:42Z</time>
      </trkpt>
      <trkpt lat="41.6333470" lon="1.9931300">
        <ele>600.8</ele>
        <time>2022-04-09T08:11:51Z</time>
      </trkpt>
      <trkpt lat="41.6335240" lon="1.9930880">
        <ele>600.6</ele>
        <time>2022-04-09T08:11:56Z</time>
      </trkpt>
      <trkpt lat="41.6338180" lon="1.9931020">
        <ele>600.2</ele>
        <time>2022-04-09T08:12:03Z</time>
      </trkpt>
      <trkpt lat="41.6340750" lon="1.9930870">
        <ele>600.2</ele>
        <time>2022-04-09T08:12:08Z</time>
      </trkpt>
      <trkpt lat="41.6344570" lon="1.9931240">
        <ele>599.6</ele>
        <time>2022-04-09T08:12:16Z</time>
      </trkpt>
      <trkpt lat="41.6346460" lon="1.9931580">
        <ele>599.4</ele>
        <time>2022-04-09T08:12:21Z</time>
      </trkpt>
      <trkpt lat="41.6348740" lon="1.9931720">
        <ele>599.4</ele>
        <time>2022-04-09T08:12:26Z</time>
      </trkpt>
      <trkpt lat="41.6349380" lon="1.9931780">
        <ele>599.4</ele>
        <time>2022-04-09T08:12:27Z</time>
      </trkpt>
      <trkpt lat="41.6351280" lon="1.9932060">
        <ele>599.6</ele>
        <time>2022-04-09T08:12:31Z</time>
      </trkpt>
      <trkpt lat="41.6353890" lon="1.9932590">
        <ele>599.4</ele>
        <time>2022-04-09T08:12:36Z</time>
      </trkpt>
      <trkpt lat="41.6356990" lon="1.9934250">
        <ele>600.0</ele>
        <time>2022-04-09T08:12:43Z</time>
      </trkpt>
      <trkpt lat="41.6358300" lon="1.9934890">
        <ele>600.4</ele>
        <time>2022-04-09T08:12:46Z</time>
      </trkpt>
      <trkpt lat="41.6359890" lon="1.9935530">
        <ele>601.2</ele>
        <time>2022-04-09T08:12:50Z</time>
      </trkpt>
      <trkpt lat="41.6360650" lon="1.9935940">
        <ele>601.6</ele>
        <time>2022-04-09T08:12:52Z</time>
      </trkpt>
      <trkpt lat="41.6361590" lon="1.9936480">
        <ele>602.4</ele>
        <time>2022-04-09T08:12:55Z</time>
      </trkpt>
      <trkpt lat="41.6361830" lon="1.9936630">
        <ele>602.8</ele>
        <time>2022-04-09T08:12:56Z</time>
      </trkpt>
      <trkpt lat="41.6362660" lon="1.9937090">
        <ele>603.4</ele>
        <time>2022-04-09T08:12:59Z</time>
      </trkpt>
      <trkpt lat="41.6363980" lon="1.9938090">
        <ele>604.0</ele>
        <time>2022-04-09T08:13:04Z</time>
      </trkpt>
      <trkpt lat="41.6364260" lon="1.9938160">
        <ele>604.2</ele>
        <time>2022-04-09T08:13:05Z</time>
      </trkpt>
      <trkpt lat="41.6365330" lon="1.9938430">
        <ele>605.2</ele>
        <time>2022-04-09T08:13:08Z</time>
      </trkpt>
      <trkpt lat="41.6366760" lon="1.9939030">
        <ele>606.0</ele>
        <time>2022-04-09T08:13:12Z</time>
      </trkpt>
      <trkpt lat="41.6367190" lon="1.9939140">
        <ele>606.2</ele>
        <time>2022-04-09T08:13:13Z</time>
      </trkpt>
      <trkpt lat="41.6368290" lon="1.9939400">
        <ele>606.8</ele>
        <time>2022-04-09T08:13:16Z</time>
      </trkpt>
      <trkpt lat="41.6369010" lon="1.9939780">
        <ele>607.2</ele>
        <time>2022-04-09T08:13:18Z</time>
      </trkpt>
      <trkpt lat="41.6370140" lon="1.9940160">
        <ele>607.6</ele>
        <time>2022-04-09T08:13:21Z</time>
      </trkpt>
      <trkpt lat="41.6372200" lon="1.9940560">
        <ele>608.2</ele>
        <time>2022-04-09T08:13:26Z</time>
      </trkpt>
      <trkpt lat="41.6372570" lon="1.9940640">
        <ele>608.4</ele>
        <time>2022-04-09T08:13:27Z</time>
      </trkpt>
      <trkpt lat="41.6373970" lon="1.9941160">
        <ele>609.6</ele>
        <time>2022-04-09T08:13:31Z</time>
      </trkpt>
      <trkpt lat="41.6375170" lon="1.9941430">
        <ele>610.0</ele>
        <time>2022-04-09T08:13:35Z</time>
      </trkpt>
      <trkpt lat="41.6376150" lon="1.9941490">
        <ele>610.6</ele>
        <time>2022-04-09T08:13:38Z</time>
      </trkpt>
      <trkpt lat="41.6377210" lon="1.9941490">
        <ele>611.4</ele>
        <time>2022-04-09T08:13:41Z</time>
      </trkpt>
      <trkpt lat="41.6377640" lon="1.9941460">
        <ele>611.6</ele>
        <time>2022-04-09T08:13:42Z</time>
      </trkpt>
      <trkpt lat="41.6378980" lon="1.9941230">
        <ele>612.8</ele>
        <time>2022-04-09T08:13:46Z</time>
      </trkpt>
      <trkpt lat="41.6380060" lon="1.9940900">
        <ele>613.4</ele>
        <time>2022-04-09T08:13:49Z</time>
      </trkpt>
      <trkpt lat="41.6380780" lon="1.9940630">
        <ele>613.8</ele>
        <time>2022-04-09T08:13:51Z</time>
      </trkpt>
      <trkpt lat="41.6382530" lon="1.9939760">
        <ele>614.4</ele>
        <time>2022-04-09T08:13:56Z</time>
      </trkpt>
      <trkpt lat="41.6383520" lon="1.9939170">
        <ele>614.8</ele>
        <time>2022-04-09T08:13:59Z</time>
      </trkpt>
      <trkpt lat="41.6384720" lon="1.9938210">
        <ele>615.6</ele>
        <time>2022-04-09T08:14:03Z</time>
      </trkpt>
      <trkpt lat="41.6385550" lon="1.9937400">
        <ele>615.8</ele>
        <time>2022-04-09T08:14:06Z</time>
      </trkpt>
      <trkpt lat="41.6387260" lon="1.9935580">
        <ele>616.8</ele>
        <time>2022-04-09T08:14:12Z</time>
      </trkpt>
      <trkpt lat="41.6387820" lon="1.9934960">
        <ele>617.2</ele>
        <time>2022-04-09T08:14:14Z</time>
      </trkpt>
      <trkpt lat="41.6388840" lon="1.9933770">
        <ele>618.0</ele>
        <time>2022-04-09T08:14:18Z</time>
      </trkpt>
      <trkpt lat="41.6389640" lon="1.9932900">
        <ele>618.4</ele>
        <time>2022-04-09T08:14:21Z</time>
      </trkpt>
      <trkpt lat="41.6390700" lon="1.9931730">
        <ele>619.2</ele>
        <time>2022-04-09T08:14:25Z</time>
      </trkpt>
      <trkpt lat="41.6391700" lon="1.9930580">
        <ele>620.4</ele>
        <time>2022-04-09T08:14:29Z</time>
      </trkpt>
      <trkpt lat="41.6392430" lon="1.9929820">
        <ele>620.8</ele>
        <time>2022-04-09T08:14:32Z</time>
      </trkpt>
      <trkpt lat="41.6393310" lon="1.9928780">
        <ele>621.4</ele>
        <time>2022-04-09T08:14:36Z</time>
      </trkpt>
      <trkpt lat="41.6394980" lon="1.9926940">
        <ele>622.4</ele>
        <time>2022-04-09T08:14:43Z</time>
      </trkpt>
      <trkpt lat="41.6395540" lon="1.9926360">
        <ele>622.6</ele>
        <time>2022-04-09T08:14:45Z</time>
      </trkpt>
      <trkpt lat="41.6397190" lon="1.9924520">
        <ele>623.6</ele>
        <time>2022-04-09T08:14:52Z</time>
      </trkpt>
      <trkpt lat="41.6397480" lon="1.9924200">
        <ele>623.8</ele>
        <time>2022-04-09T08:14:53Z</time>
      </trkpt>
      <trkpt lat="41.6399470" lon="1.9922120">
        <ele>624.6</ele>
        <time>2022-04-09T08:15:01Z</time>
      </trkpt>
      <trkpt lat="41.6400300" lon="1.9921200">
        <ele>625.0</ele>
        <time>2022-04-09T08:15:04Z</time>
      </trkpt>
      <trkpt lat="41.6402160" lon="1.9919200">
        <ele>625.8</ele>
        <time>2022-04-09T08:15:11Z</time>
      </trkpt>
      <trkpt lat="41.6403240" lon="1.9918000">
        <ele>626.4</ele>
        <time>2022-04-09T08:15:15Z</time>
      </trkpt>
      <trkpt lat="41.6404500" lon="1.9916550">
        <ele>626.8</ele>
        <time>2022-04-09T08:15:20Z</time>
      </trkpt>
      <trkpt lat="41.6405550" lon="1.9915440">
        <ele>627.2</ele>
        <time>2022-04-09T08:15:24Z</time>
      </trkpt>
      <trkpt lat="41.6406580" lon="1.9914530">
        <ele>628.0</ele>
        <time>2022-04-09T08:15:28Z</time>
      </trkpt>
      <trkpt lat="41.6407620" lon="1.9913520">
        <ele>628.6</ele>
        <time>2022-04-09T08:15:32Z</time>
      </trkpt>
      <trkpt lat="41.6408710" lon="1.9912590">
        <ele>629.0</ele>
        <time>2022-04-09T08:15:36Z</time>
      </trkpt>
      <trkpt lat="41.6409750" lon="1.9911620">
        <ele>629.6</ele>
        <time>2022-04-09T08:15:40Z</time>
      </trkpt>
      <trkpt lat="41.6411670" lon="1.9909910">
        <ele>630.2</ele>
        <time>2022-04-09T08:15:47Z</time>
      </trkpt>
      <trkpt lat="41.6412150" lon="1.9909450">
        <ele>630.4</ele>
        <time>2022-04-09T08:15:49Z</time>
      </trkpt>
      <trkpt lat="41.6413900" lon="1.9907620">
        <ele>631.4</ele>
        <time>2022-04-09T08:15:55Z</time>
      </trkpt>
      <trkpt lat="41.6414270" lon="1.9906950">
        <ele>631.8</ele>
        <time>2022-04-09T08:15:57Z</time>
      </trkpt>
      <trkpt lat="41.6414770" lon="1.9905110">
        <ele>632.4</ele>
        <time>2022-04-09T08:16:02Z</time>
      </trkpt>
      <trkpt lat="41.6414900" lon="1.9904710">
        <ele>632.6</ele>
        <time>2022-04-09T08:16:03Z</time>
      </trkpt>
      <trkpt lat="41.6415110" lon="1.9902740">
        <ele>633.2</ele>
        <time>2022-04-09T08:16:08Z</time>
      </trkpt>
      <trkpt lat="41.6415160" lon="1.9902260">
        <ele>633.4</ele>
        <time>2022-04-09T08:16:09Z</time>
      </trkpt>
      <trkpt lat="41.6415300" lon="1.9901750">
        <ele>633.6</ele>
        <time>2022-04-09T08:16:10Z</time>
      </trkpt>
      <trkpt lat="41.6415450" lon="1.9901260">
        <ele>633.8</ele>
        <time>2022-04-09T08:16:11Z</time>
      </trkpt>
      <trkpt lat="41.6416740" lon="1.9897260">
        <ele>634.4</ele>
        <time>2022-04-09T08:16:19Z</time>
      </trkpt>
      <trkpt lat="41.6417250" lon="1.9895760">
        <ele>634.6</ele>
        <time>2022-04-09T08:16:22Z</time>
      </trkpt>
      <trkpt lat="41.6417510" lon="1.9894830">
        <ele>635.2</ele>
        <time>2022-04-09T08:16:25Z</time>
      </trkpt>
      <trkpt lat="41.6418160" lon="1.9893530">
        <ele>635.6</ele>
        <time>2022-04-09T08:16:28Z</time>
      </trkpt>
      <trkpt lat="41.6418640" lon="1.9892690">
        <ele>636.0</ele>
        <time>2022-04-09T08:16:30Z</time>
      </trkpt>
      <trkpt lat="41.6419670" lon="1.9890430">
        <ele>636.8</ele>
        <time>2022-04-09T08:16:35Z</time>
      </trkpt>
      <trkpt lat="41.6419920" lon="1.9890000">
        <ele>637.0</ele>
        <time>2022-04-09T08:16:36Z</time>
      </trkpt>
      <trkpt lat="41.6421120" lon="1.9887640">
        <ele>637.8</ele>
        <time>2022-04-09T08:16:42Z</time>
      </trkpt>
      <trkpt lat="41.6421400" lon="1.9887170">
        <ele>637.8</ele>
        <time>2022-04-09T08:16:43Z</time>
      </trkpt>
      <trkpt lat="41.6422540" lon="1.9885440">
        <ele>639.0</ele>
        <time>2022-04-09T08:16:48Z</time>
      </trkpt>
      <trkpt lat="41.6423640" lon="1.9883480">
        <ele>639.4</ele>
        <time>2022-04-09T08:16:53Z</time>
      </trkpt>
      <trkpt lat="41.6424170" lon="1.9882440">
        <ele>640.0</ele>
        <time>2022-04-09T08:16:55Z</time>
      </trkpt>
      <trkpt lat="41.6424850" lon="1.9880590">
        <ele>640.6</ele>
        <time>2022-04-09T08:16:59Z</time>
      </trkpt>
      <trkpt lat="41.6425190" lon="1.9879520">
        <ele>641.0</ele>
        <time>2022-04-09T08:17:01Z</time>
      </trkpt>
      <trkpt lat="41.6425850" lon="1.9877630">
        <ele>641.2</ele>
        <time>2022-04-09T08:17:04Z</time>
      </trkpt>
      <trkpt lat="41.6426920" lon="1.9874200">
        <ele>641.4</ele>
        <time>2022-04-09T08:17:10Z</time>
      </trkpt>
      <trkpt lat="41.6427700" lon="1.9871360">
        <ele>641.0</ele>
        <time>2022-04-09T08:17:16Z</time>
      </trkpt>
      <trkpt lat="41.6429390" lon="1.9867900">
        <ele>641.2</ele>
        <time>2022-04-09T08:17:22Z</time>
      </trkpt>
      <trkpt lat="41.6431900" lon="1.9865300">
        <ele>641.8</ele>
        <time>2022-04-09T08:17:29Z</time>
      </trkpt>
      <trkpt lat="41.6432370" lon="1.9864870">
        <ele>642.0</ele>
        <time>2022-04-09T08:17:30Z</time>
      </trkpt>
      <trkpt lat="41.6434280" lon="1.9863030">
        <ele>643.2</ele>
        <time>2022-04-09T08:17:35Z</time>
      </trkpt>
      <trkpt lat="41.6434990" lon="1.9862230">
        <ele>643.4</ele>
        <time>2022-04-09T08:17:37Z</time>
      </trkpt>
      <trkpt lat="41.6436030" lon="1.9861180">
        <ele>644.2</ele>
        <time>2022-04-09T08:17:40Z</time>
      </trkpt>
      <trkpt lat="41.6437740" lon="1.9859820">
        <ele>645.2</ele>
        <time>2022-04-09T08:17:46Z</time>
      </trkpt>
      <trkpt lat="41.6438000" lon="1.9859640">
        <ele>645.4</ele>
        <time>2022-04-09T08:17:47Z</time>
      </trkpt>
      <trkpt lat="41.6439960" lon="1.9858450">
        <ele>646.4</ele>
        <time>2022-04-09T08:17:52Z</time>
      </trkpt>
      <trkpt lat="41.6440520" lon="1.9858170">
        <ele>646.6</ele>
        <time>2022-04-09T08:17:54Z</time>
      </trkpt>
      <trkpt lat="41.6442250" lon="1.9857400">
        <ele>647.0</ele>
        <time>2022-04-09T08:17:59Z</time>
      </trkpt>
      <trkpt lat="41.6444070" lon="1.9855680">
        <ele>647.8</ele>
        <time>2022-04-09T08:18:05Z</time>
      </trkpt>
      <trkpt lat="41.6444340" lon="1.9855320">
        <ele>647.8</ele>
        <time>2022-04-09T08:18:06Z</time>
      </trkpt>
      <trkpt lat="41.6445600" lon="1.9853900">
        <ele>648.8</ele>
        <time>2022-04-09T08:18:10Z</time>
      </trkpt>
      <trkpt lat="41.6447260" lon="1.9852120">
        <ele>649.6</ele>
        <time>2022-04-09T08:18:15Z</time>
      </trkpt>
      <trkpt lat="41.6447530" lon="1.9851840">
        <ele>649.8</ele>
        <time>2022-04-09T08:18:16Z</time>
      </trkpt>
      <trkpt lat="41.6449520" lon="1.9849500">
        <ele>650.8</ele>
        <time>2022-04-09T08:18:22Z</time>
      </trkpt>
      <trkpt lat="41.6451300" lon="1.9847800">
        <ele>651.6</ele>
        <time>2022-04-09T08:18:26Z</time>
      </trkpt>
      <trkpt lat="41.6451680" lon="1.9847480">
        <ele>651.6</ele>
        <time>2022-04-09T08:18:27Z</time>
      </trkpt>
      <trkpt lat="41.6452210" lon="1.9846990">
        <ele>651.8</ele>
        <time>2022-04-09T08:18:28Z</time>
      </trkpt>
      <trkpt lat="41.6453330" lon="1.9845720">
        <ele>652.6</ele>
        <time>2022-04-09T08:18:32Z</time>
      </trkpt>
      <trkpt lat="41.6453370" lon="1.9845170">
        <ele>653.0</ele>
        <time>2022-04-09T08:18:34Z</time>
      </trkpt>
      <trkpt lat="41.6454220" lon="1.9844130">
        <ele>653.6</ele>
        <time>2022-04-09T08:18:37Z</time>
      </trkpt>
      <trkpt lat="41.6454610" lon="1.9843870">
        <ele>654.0</ele>
        <time>2022-04-09T08:18:39Z</time>
      </trkpt>
      <trkpt lat="41.6455520" lon="1.9843580">
        <ele>655.0</ele>
        <time>2022-04-09T08:18:43Z</time>
      </trkpt>
      <trkpt lat="41.6455690" lon="1.9843550">
        <ele>655.2</ele>
        <time>2022-04-09T08:18:44Z</time>
      </trkpt>
      <trkpt lat="41.6456130" lon="1.9843470">
        <ele>655.8</ele>
        <time>2022-04-09T08:18:46Z</time>
      </trkpt>
      <trkpt lat="41.6456260" lon="1.9843480">
        <ele>656.0</ele>
        <time>2022-04-09T08:18:47Z</time>
      </trkpt>
      <trkpt lat="41.6456620" lon="1.9843470">
        <ele>656.6</ele>
        <time>2022-04-09T08:18:49Z</time>
      </trkpt>
      <trkpt lat="41.6457350" lon="1.9843380">
        <ele>657.8</ele>
        <time>2022-04-09T08:18:52Z</time>
      </trkpt>
      <trkpt lat="41.6457640" lon="1.9843250">
        <ele>658.0</ele>
        <time>2022-04-09T08:18:53Z</time>
      </trkpt>
      <trkpt lat="41.6458810" lon="1.9842670">
        <ele>658.8</ele>
        <time>2022-04-09T08:18:57Z</time>
      </trkpt>
      <trkpt lat="41.6459100" lon="1.9842520">
        <ele>659.2</ele>
        <time>2022-04-09T08:18:58Z</time>
      </trkpt>
      <trkpt lat="41.6460050" lon="1.9841900">
        <ele>659.8</ele>
        <time>2022-04-09T08:19:01Z</time>
      </trkpt>
      <trkpt lat="41.6461170" lon="1.9840910">
        <ele>660.4</ele>
        <time>2022-04-09T08:19:05Z</time>
      </trkpt>
      <trkpt lat="41.6461360" lon="1.9840690">
        <ele>661.0</ele>
        <time>2022-04-09T08:19:06Z</time>
      </trkpt>
      <trkpt lat="41.6463030" lon="1.9838930">
        <ele>662.2</ele>
        <time>2022-04-09T08:19:12Z</time>
      </trkpt>
      <trkpt lat="41.6464370" lon="1.9837700">
        <ele>663.4</ele>
        <time>2022-04-09T08:19:17Z</time>
      </trkpt>
      <trkpt lat="41.6464610" lon="1.9837570">
        <ele>663.4</ele>
        <time>2022-04-09T08:19:18Z</time>
      </trkpt>
      <trkpt lat="41.6465120" lon="1.9837170">
        <ele>664.0</ele>
        <time>2022-04-09T08:19:20Z</time>
      </trkpt>
      <trkpt lat="41.6466070" lon="1.9837110">
        <ele>664.4</ele>
        <time>2022-04-09T08:19:23Z</time>
      </trkpt>
      <trkpt lat="41.6467560" lon="1.9837020">
        <ele>665.6</ele>
        <time>2022-04-09T08:19:28Z</time>
      </trkpt>
      <trkpt lat="41.6468460" lon="1.9837160">
        <ele>665.8</ele>
        <time>2022-04-09T08:19:31Z</time>
      </trkpt>
      <trkpt lat="41.6469310" lon="1.9837220">
        <ele>666.4</ele>
        <time>2022-04-09T08:19:34Z</time>
      </trkpt>
      <trkpt lat="41.6469860" lon="1.9837220">
        <ele>666.8</ele>
        <time>2022-04-09T08:19:36Z</time>
      </trkpt>
      <trkpt lat="41.6470840" lon="1.9837000">
        <ele>667.8</ele>
        <time>2022-04-09T08:19:40Z</time>
      </trkpt>
      <trkpt lat="41.6472030" lon="1.9836430">
        <ele>668.4</ele>
        <time>2022-04-09T08:19:44Z</time>
      </trkpt>
      <trkpt lat="41.6472900" lon="1.9836170">
        <ele>669.2</ele>
        <time>2022-04-09T08:19:47Z</time>
      </trkpt>
      <trkpt lat="41.6474270" lon="1.9835140">
        <ele>670.0</ele>
        <time>2022-04-09T08:19:52Z</time>
      </trkpt>
      <trkpt lat="41.6474810" lon="1.9834910">
        <ele>670.4</ele>
        <time>2022-04-09T08:19:54Z</time>
      </trkpt>
      <trkpt lat="41.6475820" lon="1.9834010">
        <ele>671.4</ele>
        <time>2022-04-09T08:19:59Z</time>
      </trkpt>
      <trkpt lat="41.6476830" lon="1.9832900">
        <ele>672.6</ele>
        <time>2022-04-09T08:20:04Z</time>
      </trkpt>
      <trkpt lat="41.6477010" lon="1.9832650">
        <ele>672.8</ele>
        <time>2022-04-09T08:20:05Z</time>
      </trkpt>
      <trkpt lat="41.6477560" lon="1.9831620">
        <ele>673.8</ele>
        <time>2022-04-09T08:20:10Z</time>
      </trkpt>
      <trkpt lat="41.6477660" lon="1.9831380">
        <ele>673.8</ele>
        <time>2022-04-09T08:20:11Z</time>
      </trkpt>
      <trkpt lat="41.6478160" lon="1.9830090">
        <ele>674.6</ele>
        <time>2022-04-09T08:20:17Z</time>
      </trkpt>
      <trkpt lat="41.6478270" lon="1.9829860">
        <ele>674.8</ele>
        <time>2022-04-09T08:20:18Z</time>
      </trkpt>
      <trkpt lat="41.6478830" lon="1.9828100">
        <ele>675.8</ele>
        <time>2022-04-09T08:20:26Z</time>
      </trkpt>
      <trkpt lat="41.6478890" lon="1.9827890">
        <ele>676.0</ele>
        <time>2022-04-09T08:20:27Z</time>
      </trkpt>
      <trkpt lat="41.6479450" lon="1.9826420">
        <ele>677.0</ele>
        <time>2022-04-09T08:20:32Z</time>
      </trkpt>
      <trkpt lat="41.6479530" lon="1.9826040">
        <ele>677.4</ele>
        <time>2022-04-09T08:20:34Z</time>
      </trkpt>
      <trkpt lat="41.6479590" lon="1.9825730">
        <ele>677.4</ele>
        <time>2022-04-09T08:20:35Z</time>
      </trkpt>
      <trkpt lat="41.6480090" lon="1.9824640">
        <ele>678.2</ele>
        <time>2022-04-09T08:20:39Z</time>
      </trkpt>
      <trkpt lat="41.6480180" lon="1.9824390">
        <ele>678.2</ele>
        <time>2022-04-09T08:20:40Z</time>
      </trkpt>
      <trkpt lat="41.6480960" lon="1.9822400">
        <ele>679.2</ele>
        <time>2022-04-09T08:20:46Z</time>
      </trkpt>
      <trkpt lat="41.6480940" lon="1.9822220">
        <ele>679.2</ele>
        <time>2022-04-09T08:20:47Z</time>
      </trkpt>
      <trkpt lat="41.6481480" lon="1.9820900">
        <ele>680.0</ele>
        <time>2022-04-09T08:20:52Z</time>
      </trkpt>
      <trkpt lat="41.6481580" lon="1.9820710">
        <ele>680.2</ele>
        <time>2022-04-09T08:20:53Z</time>
      </trkpt>
      <trkpt lat="41.6482090" lon="1.9819370">
        <ele>681.0</ele>
        <time>2022-04-09T08:20:58Z</time>
      </trkpt>
      <trkpt lat="41.6482160" lon="1.9819170">
        <ele>681.4</ele>
        <time>2022-04-09T08:20:59Z</time>
      </trkpt>
      <trkpt lat="41.6483480" lon="1.9817470">
        <ele>682.4</ele>
        <time>2022-04-09T08:21:06Z</time>
      </trkpt>
      <trkpt lat="41.6484930" lon="1.9816840">
        <ele>683.6</ele>
        <time>2022-04-09T08:21:13Z</time>
      </trkpt>
      <trkpt lat="41.6485920" lon="1.9816200">
        <ele>684.4</ele>
        <time>2022-04-09T08:21:18Z</time>
      </trkpt>
      <trkpt lat="41.6486110" lon="1.9816080">
        <ele>684.6</ele>
        <time>2022-04-09T08:21:19Z</time>
      </trkpt>
      <trkpt lat="41.6487170" lon="1.9815070">
        <ele>685.6</ele>
        <time>2022-04-09T08:21:24Z</time>
      </trkpt>
      <trkpt lat="41.6487600" lon="1.9814730">
        <ele>686.0</ele>
        <time>2022-04-09T08:21:26Z</time>
      </trkpt>
      <trkpt lat="41.6487740" lon="1.9814410">
        <ele>686.4</ele>
        <time>2022-04-09T08:21:27Z</time>
      </trkpt>
      <trkpt lat="41.6487790" lon="1.9814170">
        <ele>686.6</ele>
        <time>2022-04-09T08:21:28Z</time>
      </trkpt>
      <trkpt lat="41.6488030" lon="1.9813400">
        <ele>686.8</ele>
        <time>2022-04-09T08:21:31Z</time>
      </trkpt>
      <trkpt lat="41.6488520" lon="1.9811990">
        <ele>687.8</ele>
        <time>2022-04-09T08:21:36Z</time>
      </trkpt>
      <trkpt lat="41.6488870" lon="1.9811180">
        <ele>688.8</ele>
        <time>2022-04-09T08:21:39Z</time>
      </trkpt>
      <trkpt lat="41.6488940" lon="1.9810910">
        <ele>688.8</ele>
        <time>2022-04-09T08:21:40Z</time>
      </trkpt>
      <trkpt lat="41.6489440" lon="1.9808940">
        <ele>689.8</ele>
        <time>2022-04-09T08:21:47Z</time>
      </trkpt>
      <trkpt lat="41.6489540" lon="1.9808650">
        <ele>690.2</ele>
        <time>2022-04-09T08:21:48Z</time>
      </trkpt>
      <trkpt lat="41.6489920" lon="1.9807050">
        <ele>691.2</ele>
        <time>2022-04-09T08:21:54Z</time>
      </trkpt>
      <trkpt lat="41.6489990" lon="1.9806790">
        <ele>691.6</ele>
        <time>2022-04-09T08:21:55Z</time>
      </trkpt>
      <trkpt lat="41.6490580" lon="1.9805200">
        <ele>692.2</ele>
        <time>2022-04-09T08:22:00Z</time>
      </trkpt>
      <trkpt lat="41.6490750" lon="1.9804800">
        <ele>692.2</ele>
        <time>2022-04-09T08:22:01Z</time>
      </trkpt>
      <trkpt lat="41.6491150" lon="1.9804010">
        <ele>692.8</ele>
        <time>2022-04-09T08:22:04Z</time>
      </trkpt>
      <trkpt lat="41.6491160" lon="1.9803910">
        <ele>693.2</ele>
        <time>2022-04-09T08:22:06Z</time>
      </trkpt>
      <trkpt lat="41.6491150" lon="1.9803990">
        <ele>693.8</ele>
        <time>2022-04-09T08:22:07Z</time>
      </trkpt>
      <trkpt lat="41.6491210" lon="1.9804150">
        <ele>694.0</ele>
        <time>2022-04-09T08:22:08Z</time>
      </trkpt>
      <trkpt lat="41.6491430" lon="1.9804520">
        <ele>694.6</ele>
        <time>2022-04-09T08:22:10Z</time>
      </trkpt>
      <trkpt lat="41.6491790" lon="1.9804960">
        <ele>694.8</ele>
        <time>2022-04-09T08:22:12Z</time>
      </trkpt>
      <trkpt lat="41.6492840" lon="1.9805420">
        <ele>696.0</ele>
        <time>2022-04-09T08:22:15Z</time>
      </trkpt>
      <trkpt lat="41.6493290" lon="1.9805410">
        <ele>696.4</ele>
        <time>2022-04-09T08:22:16Z</time>
      </trkpt>
      <trkpt lat="41.6494480" lon="1.9805070">
        <ele>697.2</ele>
        <time>2022-04-09T08:22:20Z</time>
      </trkpt>
      <trkpt lat="41.6494900" lon="1.9804650">
        <ele>697.4</ele>
        <time>2022-04-09T08:22:22Z</time>
      </trkpt>
      <trkpt lat="41.6495430" lon="1.9803810">
        <ele>698.6</ele>
        <time>2022-04-09T08:22:25Z</time>
      </trkpt>
      <trkpt lat="41.6495610" lon="1.9802840">
        <ele>699.6</ele>
        <time>2022-04-09T08:22:28Z</time>
      </trkpt>
      <trkpt lat="41.6495660" lon="1.9802510">
        <ele>699.6</ele>
        <time>2022-04-09T08:22:29Z</time>
      </trkpt>
      <trkpt lat="41.6495970" lon="1.9800370">
        <ele>700.6</ele>
        <time>2022-04-09T08:22:35Z</time>
      </trkpt>
      <trkpt lat="41.6496320" lon="1.9799120">
        <ele>701.4</ele>
        <time>2022-04-09T08:22:40Z</time>
      </trkpt>
      <trkpt lat="41.6496530" lon="1.9798890">
        <ele>701.6</ele>
        <time>2022-04-09T08:22:41Z</time>
      </trkpt>
      <trkpt lat="41.6497340" lon="1.9798080">
        <ele>703.0</ele>
        <time>2022-04-09T08:22:46Z</time>
      </trkpt>
      <trkpt lat="41.6497490" lon="1.9797900">
        <ele>703.2</ele>
        <time>2022-04-09T08:22:47Z</time>
      </trkpt>
      <trkpt lat="41.6497770" lon="1.9797700">
        <ele>703.4</ele>
        <time>2022-04-09T08:22:49Z</time>
      </trkpt>
      <trkpt lat="41.6498070" lon="1.9797580">
        <ele>703.8</ele>
        <time>2022-04-09T08:22:51Z</time>
      </trkpt>
      <trkpt lat="41.6498270" lon="1.9797520">
        <ele>704.2</ele>
        <time>2022-04-09T08:22:53Z</time>
      </trkpt>
      <trkpt lat="41.6498380" lon="1.9797530">
        <ele>704.2</ele>
        <time>2022-04-09T08:22:56Z</time>
      </trkpt>
      <trkpt lat="41.6499080" lon="1.9797960">
        <ele>705.0</ele>
        <time>2022-04-09T08:22:59Z</time>
      </trkpt>
      <trkpt lat="41.6499490" lon="1.9798570">
        <ele>705.0</ele>
        <time>2022-04-09T08:23:01Z</time>
      </trkpt>
      <trkpt lat="41.6500280" lon="1.9799760">
        <ele>706.0</ele>
        <time>2022-04-09T08:23:05Z</time>
      </trkpt>
      <trkpt lat="41.6501150" lon="1.9800840">
        <ele>706.6</ele>
        <time>2022-04-09T08:23:09Z</time>
      </trkpt>
      <trkpt lat="41.6501990" lon="1.9801460">
        <ele>707.0</ele>
        <time>2022-04-09T08:23:12Z</time>
      </trkpt>
      <trkpt lat="41.6503310" lon="1.9801570">
        <ele>707.8</ele>
        <time>2022-04-09T08:23:16Z</time>
      </trkpt>
      <trkpt lat="41.6503920" lon="1.9801720">
        <ele>708.4</ele>
        <time>2022-04-09T08:23:18Z</time>
      </trkpt>
      <trkpt lat="41.6504770" lon="1.9801680">
        <ele>709.4</ele>
        <time>2022-04-09T08:23:21Z</time>
      </trkpt>
      <trkpt lat="41.6505220" lon="1.9801640">
        <ele>709.8</ele>
        <time>2022-04-09T08:23:23Z</time>
      </trkpt>
      <trkpt lat="41.6506670" lon="1.9801580">
        <ele>710.6</ele>
        <time>2022-04-09T08:23:28Z</time>
      </trkpt>
      <trkpt lat="41.6506950" lon="1.9801490">
        <ele>710.6</ele>
        <time>2022-04-09T08:23:29Z</time>
      </trkpt>
      <trkpt lat="41.6508620" lon="1.9801400">
        <ele>711.4</ele>
        <time>2022-04-09T08:23:34Z</time>
      </trkpt>
      <trkpt lat="41.6508890" lon="1.9801250">
        <ele>711.6</ele>
        <time>2022-04-09T08:23:35Z</time>
      </trkpt>
      <trkpt lat="41.6509670" lon="1.9800850">
        <ele>712.0</ele>
        <time>2022-04-09T08:23:38Z</time>
      </trkpt>
      <trkpt lat="41.6509840" lon="1.9800930">
        <ele>712.2</ele>
        <time>2022-04-09T08:23:39Z</time>
      </trkpt>
      <trkpt lat="41.6511430" lon="1.9800480">
        <ele>713.0</ele>
        <time>2022-04-09T08:23:43Z</time>
      </trkpt>
      <trkpt lat="41.6512000" lon="1.9800330">
        <ele>713.6</ele>
        <time>2022-04-09T08:23:45Z</time>
      </trkpt>
      <trkpt lat="41.6513240" lon="1.9800300">
        <ele>714.0</ele>
        <time>2022-04-09T08:23:49Z</time>
      </trkpt>
      <trkpt lat="41.6513850" lon="1.9800000">
        <ele>714.4</ele>
        <time>2022-04-09T08:23:51Z</time>
      </trkpt>
      <trkpt lat="41.6515400" lon="1.9798680">
        <ele>715.0</ele>
        <time>2022-04-09T08:23:57Z</time>
      </trkpt>
      <trkpt lat="41.6515620" lon="1.9798430">
        <ele>715.0</ele>
        <time>2022-04-09T08:23:58Z</time>
      </trkpt>
      <trkpt lat="41.6517460" lon="1.9795670">
        <ele>715.4</ele>
        <time>2022-04-09T08:24:06Z</time>
      </trkpt>
      <trkpt lat="41.6518910" lon="1.9792860">
        <ele>715.8</ele>
        <time>2022-04-09T08:24:13Z</time>
      </trkpt>
      <trkpt lat="41.6519270" lon="1.9791860">
        <ele>716.0</ele>
        <time>2022-04-09T08:24:16Z</time>
      </trkpt>
      <trkpt lat="41.6519470" lon="1.9791450">
        <ele>716.2</ele>
        <time>2022-04-09T08:24:17Z</time>
      </trkpt>
      <trkpt lat="41.6520910" lon="1.9788490">
        <ele>716.6</ele>
        <time>2022-04-09T08:24:24Z</time>
      </trkpt>
      <trkpt lat="41.6522030" lon="1.9785790">
        <ele>716.6</ele>
        <time>2022-04-09T08:24:30Z</time>
      </trkpt>
      <trkpt lat="41.6523260" lon="1.9783520">
        <ele>717.2</ele>
        <time>2022-04-09T08:24:35Z</time>
      </trkpt>
      <trkpt lat="41.6523870" lon="1.9782630">
        <ele>717.2</ele>
        <time>2022-04-09T08:24:37Z</time>
      </trkpt>
      <trkpt lat="41.6526010" lon="1.9779000">
        <ele>717.4</ele>
        <time>2022-04-09T08:24:46Z</time>
      </trkpt>
      <trkpt lat="41.6527330" lon="1.9776990">
        <ele>718.0</ele>
        <time>2022-04-09T08:24:51Z</time>
      </trkpt>
      <trkpt lat="41.6529500" lon="1.9774770">
        <ele>718.0</ele>
        <time>2022-04-09T08:24:57Z</time>
      </trkpt>
      <trkpt lat="41.6530950" lon="1.9774510">
        <ele>717.8</ele>
        <time>2022-04-09T08:25:01Z</time>
      </trkpt>
      <trkpt lat="41.6531720" lon="1.9775310">
        <ele>717.6</ele>
        <time>2022-04-09T08:25:03Z</time>
      </trkpt>
      <trkpt lat="41.6532260" lon="1.9776260">
        <ele>717.6</ele>
        <time>2022-04-09T08:25:05Z</time>
      </trkpt>
      <trkpt lat="41.6532550" lon="1.9777550">
        <ele>717.6</ele>
        <time>2022-04-09T08:25:07Z</time>
      </trkpt>
      <trkpt lat="41.6532560" lon="1.9778950">
        <ele>717.6</ele>
        <time>2022-04-09T08:25:09Z</time>
      </trkpt>
      <trkpt lat="41.6532210" lon="1.9780050">
        <ele>717.6</ele>
        <time>2022-04-09T08:25:11Z</time>
      </trkpt>
      <trkpt lat="41.6531940" lon="1.9780940">
        <ele>717.8</ele>
        <time>2022-04-09T08:25:13Z</time>
      </trkpt>
      <trkpt lat="41.6531620" lon="1.9781950">
        <ele>718.4</ele>
        <time>2022-04-09T08:25:15Z</time>
      </trkpt>
      <trkpt lat="41.6530930" lon="1.9783790">
        <ele>719.0</ele>
        <time>2022-04-09T08:25:19Z</time>
      </trkpt>
      <trkpt lat="41.6530610" lon="1.9784630">
        <ele>719.6</ele>
        <time>2022-04-09T08:25:21Z</time>
      </trkpt>
      <trkpt lat="41.6529730" lon="1.9787000">
        <ele>720.6</ele>
        <time>2022-04-09T08:25:27Z</time>
      </trkpt>
      <trkpt lat="41.6529600" lon="1.9787470">
        <ele>720.8</ele>
        <time>2022-04-09T08:25:28Z</time>
      </trkpt>
      <trkpt lat="41.6529060" lon="1.9789770">
        <ele>721.8</ele>
        <time>2022-04-09T08:25:33Z</time>
      </trkpt>
      <trkpt lat="41.6528960" lon="1.9790230">
        <ele>722.0</ele>
        <time>2022-04-09T08:25:34Z</time>
      </trkpt>
      <trkpt lat="41.6528840" lon="1.9792240">
        <ele>722.8</ele>
        <time>2022-04-09T08:25:38Z</time>
      </trkpt>
      <trkpt lat="41.6528790" lon="1.9793730">
        <ele>723.0</ele>
        <time>2022-04-09T08:25:41Z</time>
      </trkpt>
      <trkpt lat="41.6528470" lon="1.9796660">
        <ele>724.2</ele>
        <time>2022-04-09T08:25:47Z</time>
      </trkpt>
      <trkpt lat="41.6528390" lon="1.9797580">
        <ele>725.0</ele>
        <time>2022-04-09T08:25:49Z</time>
      </trkpt>
      <trkpt lat="41.6528340" lon="1.9798740">
        <ele>725.4</ele>
        <time>2022-04-09T08:25:51Z</time>
      </trkpt>
      <trkpt lat="41.6528310" lon="1.9800840">
        <ele>726.4</ele>
        <time>2022-04-09T08:25:55Z</time>
      </trkpt>
      <trkpt lat="41.6528350" lon="1.9801330">
        <ele>726.6</ele>
        <time>2022-04-09T08:25:56Z</time>
      </trkpt>
      <trkpt lat="41.6528840" lon="1.9803160">
        <ele>727.2</ele>
        <time>2022-04-09T08:26:00Z</time>
      </trkpt>
      <trkpt lat="41.6529090" lon="1.9803520">
        <ele>727.2</ele>
        <time>2022-04-09T08:26:01Z</time>
      </trkpt>
      <trkpt lat="41.6529320" lon="1.9803780">
        <ele>727.4</ele>
        <time>2022-04-09T08:26:02Z</time>
      </trkpt>
      <trkpt lat="41.6530980" lon="1.9805110">
        <ele>728.4</ele>
        <time>2022-04-09T08:26:07Z</time>
      </trkpt>
      <trkpt lat="41.6531960" lon="1.9807340">
        <ele>729.0</ele>
        <time>2022-04-09T08:26:12Z</time>
      </trkpt>
      <trkpt lat="41.6531400" lon="1.9809360">
        <ele>729.6</ele>
        <time>2022-04-09T08:26:16Z</time>
      </trkpt>
      <trkpt lat="41.6531290" lon="1.9809880">
        <ele>729.6</ele>
        <time>2022-04-09T08:26:17Z</time>
      </trkpt>
      <trkpt lat="41.6530720" lon="1.9813440">
        <ele>730.4</ele>
        <time>2022-04-09T08:26:24Z</time>
      </trkpt>
      <trkpt lat="41.6530660" lon="1.9813960">
        <ele>730.6</ele>
        <time>2022-04-09T08:26:25Z</time>
      </trkpt>
      <trkpt lat="41.6530160" lon="1.9815840">
        <ele>731.2</ele>
        <time>2022-04-09T08:26:29Z</time>
      </trkpt>
      <trkpt lat="41.6529880" lon="1.9816210">
        <ele>731.2</ele>
        <time>2022-04-09T08:26:30Z</time>
      </trkpt>
      <trkpt lat="41.6528980" lon="1.9817140">
        <ele>731.6</ele>
        <time>2022-04-09T08:26:33Z</time>
      </trkpt>
      <trkpt lat="41.6528110" lon="1.9818740">
        <ele>732.0</ele>
        <time>2022-04-09T08:26:37Z</time>
      </trkpt>
      <trkpt lat="41.6527910" lon="1.9820220">
        <ele>732.6</ele>
        <time>2022-04-09T08:26:40Z</time>
      </trkpt>
      <trkpt lat="41.6527920" lon="1.9820750">
        <ele>732.8</ele>
        <time>2022-04-09T08:26:41Z</time>
      </trkpt>
      <trkpt lat="41.6528680" lon="1.9823330">
        <ele>733.2</ele>
        <time>2022-04-09T08:26:46Z</time>
      </trkpt>
      <trkpt lat="41.6529490" lon="1.9824670">
        <ele>733.2</ele>
        <time>2022-04-09T08:26:49Z</time>
      </trkpt>
      <trkpt lat="41.6530750" lon="1.9826240">
        <ele>733.6</ele>
        <time>2022-04-09T08:26:53Z</time>
      </trkpt>
      <trkpt lat="41.6533470" lon="1.9828810">
        <ele>733.8</ele>
        <time>2022-04-09T08:27:00Z</time>
      </trkpt>
      <trkpt lat="41.6533910" lon="1.9829160">
        <ele>733.8</ele>
        <time>2022-04-09T08:27:01Z</time>
      </trkpt>
      <trkpt lat="41.6536330" lon="1.9830650">
        <ele>733.8</ele>
        <time>2022-04-09T08:27:06Z</time>
      </trkpt>
      <trkpt lat="41.6537350" lon="1.9831040">
        <ele>733.8</ele>
        <time>2022-04-09T08:27:08Z</time>
      </trkpt>
      <trkpt lat="41.6538430" lon="1.9831390">
        <ele>734.0</ele>
        <time>2022-04-09T08:27:10Z</time>
      </trkpt>
      <trkpt lat="41.6539360" lon="1.9831590">
        <ele>734.0</ele>
        <time>2022-04-09T08:27:12Z</time>
      </trkpt>
      <trkpt lat="41.6540140" lon="1.9831610">
        <ele>734.4</ele>
        <time>2022-04-09T08:27:14Z</time>
      </trkpt>
      <trkpt lat="41.6542040" lon="1.9831100">
        <ele>734.6</ele>
        <time>2022-04-09T08:27:18Z</time>
      </trkpt>
      <trkpt lat="41.6545180" lon="1.9830290">
        <ele>735.0</ele>
        <time>2022-04-09T08:27:24Z</time>
      </trkpt>
      <trkpt lat="41.6546120" lon="1.9830080">
        <ele>735.2</ele>
        <time>2022-04-09T08:27:26Z</time>
      </trkpt>
      <trkpt lat="41.6547130" lon="1.9830030">
        <ele>735.6</ele>
        <time>2022-04-09T08:27:28Z</time>
      </trkpt>
      <trkpt lat="41.6547520" lon="1.9830290">
        <ele>735.8</ele>
        <time>2022-04-09T08:27:29Z</time>
      </trkpt>
      <trkpt lat="41.6548320" lon="1.9831530">
        <ele>736.0</ele>
        <time>2022-04-09T08:27:31Z</time>
      </trkpt>
      <trkpt lat="41.6548530" lon="1.9832140">
        <ele>736.0</ele>
        <time>2022-04-09T08:27:32Z</time>
      </trkpt>
      <trkpt lat="41.6548630" lon="1.9832800">
        <ele>736.2</ele>
        <time>2022-04-09T08:27:33Z</time>
      </trkpt>
      <trkpt lat="41.6548950" lon="1.9834090">
        <ele>736.6</ele>
        <time>2022-04-09T08:27:35Z</time>
      </trkpt>
      <trkpt lat="41.6549440" lon="1.9835020">
        <ele>737.4</ele>
        <time>2022-04-09T08:27:37Z</time>
      </trkpt>
      <trkpt lat="41.6549800" lon="1.9835580">
        <ele>737.8</ele>
        <time>2022-04-09T08:27:38Z</time>
      </trkpt>
      <trkpt lat="41.6550130" lon="1.9835970">
        <ele>737.8</ele>
        <time>2022-04-09T08:27:39Z</time>
      </trkpt>
      <trkpt lat="41.6550530" lon="1.9836170">
        <ele>738.2</ele>
        <time>2022-04-09T08:27:40Z</time>
      </trkpt>
      <trkpt lat="41.6550910" lon="1.9836230">
        <ele>738.6</ele>
        <time>2022-04-09T08:27:41Z</time>
      </trkpt>
      <trkpt lat="41.6551820" lon="1.9836710">
        <ele>739.0</ele>
        <time>2022-04-09T08:27:43Z</time>
      </trkpt>
      <trkpt lat="41.6552950" lon="1.9837320">
        <ele>739.8</ele>
        <time>2022-04-09T08:27:46Z</time>
      </trkpt>
      <trkpt lat="41.6553320" lon="1.9837510">
        <ele>740.2</ele>
        <time>2022-04-09T08:27:47Z</time>
      </trkpt>
      <trkpt lat="41.6554470" lon="1.9837960">
        <ele>740.8</ele>
        <time>2022-04-09T08:27:50Z</time>
      </trkpt>
      <trkpt lat="41.6555140" lon="1.9838140">
        <ele>741.0</ele>
        <time>2022-04-09T08:27:52Z</time>
      </trkpt>
      <trkpt lat="41.6557640" lon="1.9838770">
        <ele>742.4</ele>
        <time>2022-04-09T08:27:59Z</time>
      </trkpt>
      <trkpt lat="41.6557980" lon="1.9838830">
        <ele>742.6</ele>
        <time>2022-04-09T08:28:00Z</time>
      </trkpt>
      <trkpt lat="41.6559260" lon="1.9838870">
        <ele>743.6</ele>
        <time>2022-04-09T08:28:04Z</time>
      </trkpt>
      <trkpt lat="41.6559760" lon="1.9838810">
        <ele>744.0</ele>
        <time>2022-04-09T08:28:06Z</time>
      </trkpt>
      <trkpt lat="41.6561090" lon="1.9838230">
        <ele>744.6</ele>
        <time>2022-04-09T08:28:10Z</time>
      </trkpt>
      <trkpt lat="41.6561460" lon="1.9837880">
        <ele>745.0</ele>
        <time>2022-04-09T08:28:11Z</time>
      </trkpt>
      <trkpt lat="41.6562720" lon="1.9837060">
        <ele>745.8</ele>
        <time>2022-04-09T08:28:15Z</time>
      </trkpt>
      <trkpt lat="41.6563990" lon="1.9836290">
        <ele>746.4</ele>
        <time>2022-04-09T08:28:19Z</time>
      </trkpt>
      <trkpt lat="41.6564320" lon="1.9836070">
        <ele>746.8</ele>
        <time>2022-04-09T08:28:20Z</time>
      </trkpt>
      <trkpt lat="41.6566180" lon="1.9834680">
        <ele>747.8</ele>
        <time>2022-04-09T08:28:26Z</time>
      </trkpt>
      <trkpt lat="41.6566790" lon="1.9834190">
        <ele>748.2</ele>
        <time>2022-04-09T08:28:28Z</time>
      </trkpt>
      <trkpt lat="41.6567970" lon="1.9833380">
        <ele>749.0</ele>
        <time>2022-04-09T08:28:32Z</time>
      </trkpt>
      <trkpt lat="41.6569180" lon="1.9832790">
        <ele>749.8</ele>
        <time>2022-04-09T08:28:36Z</time>
      </trkpt>
      <trkpt lat="41.6569800" lon="1.9832480">
        <ele>750.2</ele>
        <time>2022-04-09T08:28:38Z</time>
      </trkpt>
      <trkpt lat="41.6571340" lon="1.9831520">
        <ele>751.4</ele>
        <time>2022-04-09T08:28:43Z</time>
      </trkpt>
      <trkpt lat="41.6572040" lon="1.9831130">
        <ele>751.4</ele>
        <time>2022-04-09T08:28:45Z</time>
      </trkpt>
      <trkpt lat="41.6573830" lon="1.9830100">
        <ele>752.0</ele>
        <time>2022-04-09T08:28:50Z</time>
      </trkpt>
      <trkpt lat="41.6574510" lon="1.9829680">
        <ele>752.0</ele>
        <time>2022-04-09T08:28:52Z</time>
      </trkpt>
      <trkpt lat="41.6575770" lon="1.9829340">
        <ele>752.2</ele>
        <time>2022-04-09T08:28:56Z</time>
      </trkpt>
      <trkpt lat="41.6576660" lon="1.9829920">
        <ele>752.4</ele>
        <time>2022-04-09T08:28:59Z</time>
      </trkpt>
      <trkpt lat="41.6578060" lon="1.9830850">
        <ele>752.8</ele>
        <time>2022-04-09T08:29:03Z</time>
      </trkpt>
      <trkpt lat="41.6579360" lon="1.9832040">
        <ele>753.0</ele>
        <time>2022-04-09T08:29:07Z</time>
      </trkpt>
      <trkpt lat="41.6579520" lon="1.9833130">
        <ele>753.0</ele>
        <time>2022-04-09T08:29:09Z</time>
      </trkpt>
      <trkpt lat="41.6579360" lon="1.9833610">
        <ele>753.0</ele>
        <time>2022-04-09T08:29:10Z</time>
      </trkpt>
      <trkpt lat="41.6578210" lon="1.9834660">
        <ele>752.8</ele>
        <time>2022-04-09T08:29:14Z</time>
      </trkpt>
      <trkpt lat="41.6576850" lon="1.9835760">
        <ele>752.8</ele>
        <time>2022-04-09T08:29:19Z</time>
      </trkpt>
      <trkpt lat="41.6575080" lon="1.9837680">
        <ele>753.4</ele>
        <time>2022-04-09T08:29:25Z</time>
      </trkpt>
      <trkpt lat="41.6574850" lon="1.9838170">
        <ele>753.4</ele>
        <time>2022-04-09T08:29:26Z</time>
      </trkpt>
      <trkpt lat="41.6574560" lon="1.9838820">
        <ele>753.4</ele>
        <time>2022-04-09T08:29:27Z</time>
      </trkpt>
      <trkpt lat="41.6573920" lon="1.9839940">
        <ele>753.4</ele>
        <time>2022-04-09T08:29:29Z</time>
      </trkpt>
      <trkpt lat="41.6573600" lon="1.9840550">
        <ele>753.2</ele>
        <time>2022-04-09T08:29:30Z</time>
      </trkpt>
      <trkpt lat="41.6572820" lon="1.9842470">
        <ele>753.2</ele>
        <time>2022-04-09T08:29:33Z</time>
      </trkpt>
      <trkpt lat="41.6572290" lon="1.9844520">
        <ele>753.2</ele>
        <time>2022-04-09T08:29:36Z</time>
      </trkpt>
      <trkpt lat="41.6572240" lon="1.9845940">
        <ele>753.2</ele>
        <time>2022-04-09T08:29:38Z</time>
      </trkpt>
      <trkpt lat="41.6572600" lon="1.9847290">
        <ele>753.4</ele>
        <time>2022-04-09T08:29:40Z</time>
      </trkpt>
      <trkpt lat="41.6573240" lon="1.9848440">
        <ele>753.4</ele>
        <time>2022-04-09T08:29:42Z</time>
      </trkpt>
      <trkpt lat="41.6574420" lon="1.9850030">
        <ele>753.8</ele>
        <time>2022-04-09T08:29:45Z</time>
      </trkpt>
      <trkpt lat="41.6577030" lon="1.9852840">
        <ele>753.8</ele>
        <time>2022-04-09T08:29:50Z</time>
      </trkpt>
      <trkpt lat="41.6578880" lon="1.9855120">
        <ele>753.4</ele>
        <time>2022-04-09T08:29:54Z</time>
      </trkpt>
      <trkpt lat="41.6579520" lon="1.9856640">
        <ele>753.2</ele>
        <time>2022-04-09T08:29:56Z</time>
      </trkpt>
      <trkpt lat="41.6579550" lon="1.9858280">
        <ele>753.2</ele>
        <time>2022-04-09T08:29:58Z</time>
      </trkpt>
      <trkpt lat="41.6579090" lon="1.9860450">
        <ele>753.2</ele>
        <time>2022-04-09T08:30:01Z</time>
      </trkpt>
      <trkpt lat="41.6579070" lon="1.9861840">
        <ele>753.2</ele>
        <time>2022-04-09T08:30:03Z</time>
      </trkpt>
      <trkpt lat="41.6579160" lon="1.9862530">
        <ele>753.2</ele>
        <time>2022-04-09T08:30:04Z</time>
      </trkpt>
      <trkpt lat="41.6580140" lon="1.9869110">
        <ele>754.0</ele>
        <time>2022-04-09T08:30:13Z</time>
      </trkpt>
      <trkpt lat="41.6580540" lon="1.9870450">
        <ele>754.0</ele>
        <time>2022-04-09T08:30:15Z</time>
      </trkpt>
      <trkpt lat="41.6581190" lon="1.9871610">
        <ele>754.0</ele>
        <time>2022-04-09T08:30:17Z</time>
      </trkpt>
      <trkpt lat="41.6581600" lon="1.9872140">
        <ele>754.0</ele>
        <time>2022-04-09T08:30:18Z</time>
      </trkpt>
      <trkpt lat="41.6582580" lon="1.9872980">
        <ele>754.2</ele>
        <time>2022-04-09T08:30:20Z</time>
      </trkpt>
      <trkpt lat="41.6583110" lon="1.9873220">
        <ele>754.2</ele>
        <time>2022-04-09T08:30:21Z</time>
      </trkpt>
      <trkpt lat="41.6583640" lon="1.9873370">
        <ele>754.2</ele>
        <time>2022-04-09T08:30:22Z</time>
      </trkpt>
      <trkpt lat="41.6585310" lon="1.9873350">
        <ele>754.4</ele>
        <time>2022-04-09T08:30:25Z</time>
      </trkpt>
      <trkpt lat="41.6585870" lon="1.9873180">
        <ele>754.6</ele>
        <time>2022-04-09T08:30:26Z</time>
      </trkpt>
      <trkpt lat="41.6586390" lon="1.9873000">
        <ele>754.6</ele>
        <time>2022-04-09T08:30:27Z</time>
      </trkpt>
      <trkpt lat="41.6586860" lon="1.9872930">
        <ele>754.6</ele>
        <time>2022-04-09T08:30:28Z</time>
      </trkpt>
      <trkpt lat="41.6587780" lon="1.9873010">
        <ele>754.8</ele>
        <time>2022-04-09T08:30:30Z</time>
      </trkpt>
      <trkpt lat="41.6588880" lon="1.9873200">
        <ele>754.8</ele>
        <time>2022-04-09T08:30:32Z</time>
      </trkpt>
      <trkpt lat="41.6589960" lon="1.9873890">
        <ele>754.8</ele>
        <time>2022-04-09T08:30:34Z</time>
      </trkpt>
      <trkpt lat="41.6590720" lon="1.9875310">
        <ele>755.0</ele>
        <time>2022-04-09T08:30:36Z</time>
      </trkpt>
      <trkpt lat="41.6590800" lon="1.9876000">
        <ele>755.0</ele>
        <time>2022-04-09T08:30:37Z</time>
      </trkpt>
      <trkpt lat="41.6590640" lon="1.9876570">
        <ele>755.0</ele>
        <time>2022-04-09T08:30:38Z</time>
      </trkpt>
      <trkpt lat="41.6589770" lon="1.9877320">
        <ele>755.2</ele>
        <time>2022-04-09T08:30:40Z</time>
      </trkpt>
      <trkpt lat="41.6588870" lon="1.9878400">
        <ele>755.6</ele>
        <time>2022-04-09T08:30:43Z</time>
      </trkpt>
      <trkpt lat="41.6588620" lon="1.9878810">
        <ele>756.2</ele>
        <time>2022-04-09T08:30:44Z</time>
      </trkpt>
      <trkpt lat="41.6588240" lon="1.9879710">
        <ele>756.8</ele>
        <time>2022-04-09T08:30:46Z</time>
      </trkpt>
      <trkpt lat="41.6588030" lon="1.9881150">
        <ele>757.4</ele>
        <time>2022-04-09T08:30:49Z</time>
      </trkpt>
      <trkpt lat="41.6588060" lon="1.9881650">
        <ele>757.8</ele>
        <time>2022-04-09T08:30:50Z</time>
      </trkpt>
      <trkpt lat="41.6588260" lon="1.9883510">
        <ele>759.0</ele>
        <time>2022-04-09T08:30:54Z</time>
      </trkpt>
      <trkpt lat="41.6588620" lon="1.9884890">
        <ele>759.6</ele>
        <time>2022-04-09T08:30:57Z</time>
      </trkpt>
      <trkpt lat="41.6589090" lon="1.9885980">
        <ele>760.6</ele>
        <time>2022-04-09T08:31:00Z</time>
      </trkpt>
      <trkpt lat="41.6589510" lon="1.9886980">
        <ele>761.4</ele>
        <time>2022-04-09T08:31:03Z</time>
      </trkpt>
      <trkpt lat="41.6589840" lon="1.9887570">
        <ele>761.8</ele>
        <time>2022-04-09T08:31:05Z</time>
      </trkpt>
      <trkpt lat="41.6590770" lon="1.9888610">
        <ele>762.4</ele>
        <time>2022-04-09T08:31:09Z</time>
      </trkpt>
      <trkpt lat="41.6591220" lon="1.9889080">
        <ele>762.8</ele>
        <time>2022-04-09T08:31:11Z</time>
      </trkpt>
      <trkpt lat="41.6592000" lon="1.9889950">
        <ele>763.2</ele>
        <time>2022-04-09T08:31:14Z</time>
      </trkpt>
      <trkpt lat="41.6592180" lon="1.9891670">
        <ele>764.0</ele>
        <time>2022-04-09T08:31:18Z</time>
      </trkpt>
      <trkpt lat="41.6592020" lon="1.9892010">
        <ele>764.2</ele>
        <time>2022-04-09T08:31:19Z</time>
      </trkpt>
      <trkpt lat="41.6591700" lon="1.9892290">
        <ele>764.2</ele>
        <time>2022-04-09T08:31:20Z</time>
      </trkpt>
      <trkpt lat="41.6591380" lon="1.9892700">
        <ele>764.6</ele>
        <time>2022-04-09T08:31:22Z</time>
      </trkpt>
      <trkpt lat="41.6590880" lon="1.9893150">
        <ele>765.0</ele>
        <time>2022-04-09T08:31:24Z</time>
      </trkpt>
      <trkpt lat="41.6590100" lon="1.9894350">
        <ele>766.0</ele>
        <time>2022-04-09T08:31:28Z</time>
      </trkpt>
      <trkpt lat="41.6589870" lon="1.9894940">
        <ele>766.4</ele>
        <time>2022-04-09T08:31:30Z</time>
      </trkpt>
      <trkpt lat="41.6589410" lon="1.9895620">
        <ele>767.0</ele>
        <time>2022-04-09T08:31:32Z</time>
      </trkpt>
      <trkpt lat="41.6589120" lon="1.9895980">
        <ele>767.2</ele>
        <time>2022-04-09T08:31:33Z</time>
      </trkpt>
      <trkpt lat="41.6587860" lon="1.9897600">
        <ele>768.0</ele>
        <time>2022-04-09T08:31:38Z</time>
      </trkpt>
      <trkpt lat="41.6587370" lon="1.9898260">
        <ele>768.4</ele>
        <time>2022-04-09T08:31:40Z</time>
      </trkpt>
      <trkpt lat="41.6586250" lon="1.9899890">
        <ele>769.6</ele>
        <time>2022-04-09T08:31:45Z</time>
      </trkpt>
      <trkpt lat="41.6586120" lon="1.9902070">
        <ele>770.0</ele>
        <time>2022-04-09T08:31:50Z</time>
      </trkpt>
      <trkpt lat="41.6586500" lon="1.9903230">
        <ele>770.6</ele>
        <time>2022-04-09T08:31:53Z</time>
      </trkpt>
      <trkpt lat="41.6586920" lon="1.9903940">
        <ele>770.8</ele>
        <time>2022-04-09T08:31:55Z</time>
      </trkpt>
      <trkpt lat="41.6587880" lon="1.9905160">
        <ele>771.6</ele>
        <time>2022-04-09T08:31:59Z</time>
      </trkpt>
      <trkpt lat="41.6588930" lon="1.9906020">
        <ele>772.4</ele>
        <time>2022-04-09T08:32:03Z</time>
      </trkpt>
      <trkpt lat="41.6589510" lon="1.9906360">
        <ele>772.8</ele>
        <time>2022-04-09T08:32:05Z</time>
      </trkpt>
      <trkpt lat="41.6590740" lon="1.9906730">
        <ele>773.4</ele>
        <time>2022-04-09T08:32:09Z</time>
      </trkpt>
      <trkpt lat="41.6591360" lon="1.9906750">
        <ele>773.8</ele>
        <time>2022-04-09T08:32:11Z</time>
      </trkpt>
      <trkpt lat="41.6593090" lon="1.9906470">
        <ele>774.8</ele>
        <time>2022-04-09T08:32:17Z</time>
      </trkpt>
      <trkpt lat="41.6593380" lon="1.9906430">
        <ele>775.0</ele>
        <time>2022-04-09T08:32:18Z</time>
      </trkpt>
      <trkpt lat="41.6595290" lon="1.9906450">
        <ele>776.2</ele>
        <time>2022-04-09T08:32:24Z</time>
      </trkpt>
      <trkpt lat="41.6597670" lon="1.9906440">
        <ele>777.2</ele>
        <time>2022-04-09T08:32:31Z</time>
      </trkpt>
      <trkpt lat="41.6597970" lon="1.9906500">
        <ele>777.4</ele>
        <time>2022-04-09T08:32:32Z</time>
      </trkpt>
      <trkpt lat="41.6599910" lon="1.9907050">
        <ele>778.6</ele>
        <time>2022-04-09T08:32:38Z</time>
      </trkpt>
      <trkpt lat="41.6600210" lon="1.9907120">
        <ele>778.6</ele>
        <time>2022-04-09T08:32:39Z</time>
      </trkpt>
      <trkpt lat="41.6601410" lon="1.9907540">
        <ele>779.6</ele>
        <time>2022-04-09T08:32:44Z</time>
      </trkpt>
      <trkpt lat="41.6603030" lon="1.9908700">
        <ele>780.4</ele>
        <time>2022-04-09T08:32:50Z</time>
      </trkpt>
      <trkpt lat="41.6603280" lon="1.9908990">
        <ele>780.4</ele>
        <time>2022-04-09T08:32:51Z</time>
      </trkpt>
      <trkpt lat="41.6605010" lon="1.9910100">
        <ele>781.6</ele>
        <time>2022-04-09T08:32:57Z</time>
      </trkpt>
      <trkpt lat="41.6606950" lon="1.9910810">
        <ele>782.4</ele>
        <time>2022-04-09T08:33:03Z</time>
      </trkpt>
      <trkpt lat="41.6607300" lon="1.9910760">
        <ele>782.8</ele>
        <time>2022-04-09T08:33:04Z</time>
      </trkpt>
      <trkpt lat="41.6608540" lon="1.9910720">
        <ele>783.6</ele>
        <time>2022-04-09T08:33:08Z</time>
      </trkpt>
      <trkpt lat="41.6609440" lon="1.9910840">
        <ele>783.8</ele>
        <time>2022-04-09T08:33:11Z</time>
      </trkpt>
      <trkpt lat="41.6610140" lon="1.9911410">
        <ele>784.2</ele>
        <time>2022-04-09T08:33:14Z</time>
      </trkpt>
      <trkpt lat="41.6610890" lon="1.9913210">
        <ele>784.6</ele>
        <time>2022-04-09T08:33:19Z</time>
      </trkpt>
      <trkpt lat="41.6611030" lon="1.9914470">
        <ele>785.0</ele>
        <time>2022-04-09T08:33:22Z</time>
      </trkpt>
      <trkpt lat="41.6611020" lon="1.9916550">
        <ele>785.6</ele>
        <time>2022-04-09T08:33:27Z</time>
      </trkpt>
      <trkpt lat="41.6611370" lon="1.9918610">
        <ele>785.8</ele>
        <time>2022-04-09T08:33:32Z</time>
      </trkpt>
      <trkpt lat="41.6611510" lon="1.9918990">
        <ele>785.8</ele>
        <time>2022-04-09T08:33:33Z</time>
      </trkpt>
      <trkpt lat="41.6611710" lon="1.9919280">
        <ele>786.2</ele>
        <time>2022-04-09T08:33:34Z</time>
      </trkpt>
      <trkpt lat="41.6612200" lon="1.9919730">
        <ele>786.4</ele>
        <time>2022-04-09T08:33:36Z</time>
      </trkpt>
      <trkpt lat="41.6613800" lon="1.9919930">
        <ele>786.8</ele>
        <time>2022-04-09T08:33:42Z</time>
      </trkpt>
      <trkpt lat="41.6615490" lon="1.9918990">
        <ele>787.0</ele>
        <time>2022-04-09T08:33:48Z</time>
      </trkpt>
      <trkpt lat="41.6616240" lon="1.9918740">
        <ele>787.4</ele>
        <time>2022-04-09T08:33:50Z</time>
      </trkpt>
      <trkpt lat="41.6618490" lon="1.9917980">
        <ele>788.0</ele>
        <time>2022-04-09T08:33:56Z</time>
      </trkpt>
      <trkpt lat="41.6619270" lon="1.9917400">
        <ele>788.4</ele>
        <time>2022-04-09T08:33:58Z</time>
      </trkpt>
      <trkpt lat="41.6620300" lon="1.9917240">
        <ele>789.4</ele>
        <time>2022-04-09T08:34:02Z</time>
      </trkpt>
      <trkpt lat="41.6621060" lon="1.9916850">
        <ele>790.6</ele>
        <time>2022-04-09T08:34:05Z</time>
      </trkpt>
      <trkpt lat="41.6622000" lon="1.9916400">
        <ele>791.0</ele>
        <time>2022-04-09T08:34:08Z</time>
      </trkpt>
      <trkpt lat="41.6623000" lon="1.9915970">
        <ele>791.6</ele>
        <time>2022-04-09T08:34:11Z</time>
      </trkpt>
      <trkpt lat="41.6623920" lon="1.9915410">
        <ele>792.2</ele>
        <time>2022-04-09T08:34:14Z</time>
      </trkpt>
      <trkpt lat="41.6624630" lon="1.9914760">
        <ele>792.6</ele>
        <time>2022-04-09T08:34:17Z</time>
      </trkpt>
      <trkpt lat="41.6624890" lon="1.9914650">
        <ele>792.8</ele>
        <time>2022-04-09T08:34:18Z</time>
      </trkpt>
      <trkpt lat="41.6625790" lon="1.9914640">
        <ele>793.2</ele>
        <time>2022-04-09T08:34:20Z</time>
      </trkpt>
      <trkpt lat="41.6626800" lon="1.9914100">
        <ele>793.8</ele>
        <time>2022-04-09T08:34:24Z</time>
      </trkpt>
      <trkpt lat="41.6627920" lon="1.9913130">
        <ele>795.0</ele>
        <time>2022-04-09T08:34:28Z</time>
      </trkpt>
      <trkpt lat="41.6628410" lon="1.9912600">
        <ele>795.4</ele>
        <time>2022-04-09T08:34:31Z</time>
      </trkpt>
      <trkpt lat="41.6629070" lon="1.9911860">
        <ele>795.8</ele>
        <time>2022-04-09T08:34:34Z</time>
      </trkpt>
      <trkpt lat="41.6629310" lon="1.9911820">
        <ele>796.0</ele>
        <time>2022-04-09T08:34:35Z</time>
      </trkpt>
      <trkpt lat="41.6629980" lon="1.9912390">
        <ele>796.2</ele>
        <time>2022-04-09T08:34:38Z</time>
      </trkpt>
      <trkpt lat="41.6630500" lon="1.9914280">
        <ele>797.0</ele>
        <time>2022-04-09T08:34:43Z</time>
      </trkpt>
      <trkpt lat="41.6630560" lon="1.9914780">
        <ele>797.2</ele>
        <time>2022-04-09T08:34:44Z</time>
      </trkpt>
      <trkpt lat="41.6630180" lon="1.9916500">
        <ele>798.0</ele>
        <time>2022-04-09T08:34:48Z</time>
      </trkpt>
      <trkpt lat="41.6630010" lon="1.9917000">
        <ele>798.0</ele>
        <time>2022-04-09T08:34:49Z</time>
      </trkpt>
      <trkpt lat="41.6629570" lon="1.9918070">
        <ele>798.2</ele>
        <time>2022-04-09T08:34:51Z</time>
      </trkpt>
      <trkpt lat="41.6628870" lon="1.9919120">
        <ele>798.4</ele>
        <time>2022-04-09T08:34:53Z</time>
      </trkpt>
      <trkpt lat="41.6628510" lon="1.9919610">
        <ele>798.4</ele>
        <time>2022-04-09T08:34:54Z</time>
      </trkpt>
      <trkpt lat="41.6627460" lon="1.9921110">
        <ele>798.6</ele>
        <time>2022-04-09T08:34:57Z</time>
      </trkpt>
      <trkpt lat="41.6627210" lon="1.9921530">
        <ele>799.0</ele>
        <time>2022-04-09T08:34:58Z</time>
      </trkpt>
      <trkpt lat="41.6626760" lon="1.9922060">
        <ele>799.2</ele>
        <time>2022-04-09T08:35:00Z</time>
      </trkpt>
      <trkpt lat="41.6626420" lon="1.9922510">
        <ele>799.8</ele>
        <time>2022-04-09T08:35:02Z</time>
      </trkpt>
      <trkpt lat="41.6626260" lon="1.9922710">
        <ele>800.2</ele>
        <time>2022-04-09T08:35:03Z</time>
      </trkpt>
      <trkpt lat="41.6625350" lon="1.9924040">
        <ele>801.2</ele>
        <time>2022-04-09T08:35:08Z</time>
      </trkpt>
      <trkpt lat="41.6625240" lon="1.9924320">
        <ele>801.2</ele>
        <time>2022-04-09T08:35:09Z</time>
      </trkpt>
      <trkpt lat="41.6625220" lon="1.9925900">
        <ele>802.2</ele>
        <time>2022-04-09T08:35:14Z</time>
      </trkpt>
      <trkpt lat="41.6625480" lon="1.9926560">
        <ele>802.4</ele>
        <time>2022-04-09T08:35:16Z</time>
      </trkpt>
      <trkpt lat="41.6626120" lon="1.9927490">
        <ele>803.0</ele>
        <time>2022-04-09T08:35:20Z</time>
      </trkpt>
      <trkpt lat="41.6626290" lon="1.9927650">
        <ele>803.4</ele>
        <time>2022-04-09T08:35:21Z</time>
      </trkpt>
      <trkpt lat="41.6627030" lon="1.9928090">
        <ele>804.0</ele>
        <time>2022-04-09T08:35:25Z</time>
      </trkpt>
      <trkpt lat="41.6627710" lon="1.9928360">
        <ele>804.6</ele>
        <time>2022-04-09T08:35:28Z</time>
      </trkpt>
      <trkpt lat="41.6628350" lon="1.9928670">
        <ele>805.0</ele>
        <time>2022-04-09T08:35:31Z</time>
      </trkpt>
      <trkpt lat="41.6629660" lon="1.9929140">
        <ele>805.8</ele>
        <time>2022-04-09T08:35:36Z</time>
      </trkpt>
      <trkpt lat="41.6630570" lon="1.9929360">
        <ele>806.8</ele>
        <time>2022-04-09T08:35:39Z</time>
      </trkpt>
      <trkpt lat="41.6630890" lon="1.9929450">
        <ele>807.0</ele>
        <time>2022-04-09T08:35:40Z</time>
      </trkpt>
      <trkpt lat="41.6632440" lon="1.9929710">
        <ele>807.8</ele>
        <time>2022-04-09T08:35:45Z</time>
      </trkpt>
      <trkpt lat="41.6633980" lon="1.9930150">
        <ele>809.0</ele>
        <time>2022-04-09T08:35:51Z</time>
      </trkpt>
      <trkpt lat="41.6634540" lon="1.9930280">
        <ele>809.2</ele>
        <time>2022-04-09T08:35:53Z</time>
      </trkpt>
      <trkpt lat="41.6635590" lon="1.9930600">
        <ele>810.4</ele>
        <time>2022-04-09T08:35:57Z</time>
      </trkpt>
      <trkpt lat="41.6635860" lon="1.9930690">
        <ele>810.8</ele>
        <time>2022-04-09T08:35:58Z</time>
      </trkpt>
      <trkpt lat="41.6636950" lon="1.9931090">
        <ele>811.6</ele>
        <time>2022-04-09T08:36:03Z</time>
      </trkpt>
      <trkpt lat="41.6637660" lon="1.9931310">
        <ele>812.2</ele>
        <time>2022-04-09T08:36:06Z</time>
      </trkpt>
      <trkpt lat="41.6638170" lon="1.9931310">
        <ele>812.6</ele>
        <time>2022-04-09T08:36:08Z</time>
      </trkpt>
      <trkpt lat="41.6639330" lon="1.9931690">
        <ele>813.4</ele>
        <time>2022-04-09T08:36:12Z</time>
      </trkpt>
      <trkpt lat="41.6639590" lon="1.9931770">
        <ele>813.6</ele>
        <time>2022-04-09T08:36:13Z</time>
      </trkpt>
      <trkpt lat="41.6639910" lon="1.9931800">
        <ele>813.8</ele>
        <time>2022-04-09T08:36:14Z</time>
      </trkpt>
      <trkpt lat="41.6640860" lon="1.9931970">
        <ele>814.4</ele>
        <time>2022-04-09T08:36:17Z</time>
      </trkpt>
      <trkpt lat="41.6641410" lon="1.9932220">
        <ele>814.8</ele>
        <time>2022-04-09T08:36:19Z</time>
      </trkpt>
      <trkpt lat="41.6642750" lon="1.9932340">
        <ele>816.0</ele>
        <time>2022-04-09T08:36:24Z</time>
      </trkpt>
      <trkpt lat="41.6644100" lon="1.9932630">
        <ele>817.0</ele>
        <time>2022-04-09T08:36:28Z</time>
      </trkpt>
      <trkpt lat="41.6645250" lon="1.9932800">
        <ele>817.6</ele>
        <time>2022-04-09T08:36:31Z</time>
      </trkpt>
      <trkpt lat="41.6646220" lon="1.9933150">
        <ele>818.2</ele>
        <time>2022-04-09T08:36:34Z</time>
      </trkpt>
      <trkpt lat="41.6647650" lon="1.9933590">
        <ele>819.0</ele>
        <time>2022-04-09T08:36:38Z</time>
      </trkpt>
      <trkpt lat="41.6648230" lon="1.9933650">
        <ele>819.2</ele>
        <time>2022-04-09T08:36:40Z</time>
      </trkpt>
      <trkpt lat="41.6649070" lon="1.9933920">
        <ele>820.0</ele>
        <time>2022-04-09T08:36:43Z</time>
      </trkpt>
      <trkpt lat="41.6649750" lon="1.9934010">
        <ele>820.4</ele>
        <time>2022-04-09T08:36:45Z</time>
      </trkpt>
      <trkpt lat="41.6651410" lon="1.9934310">
        <ele>821.8</ele>
        <time>2022-04-09T08:36:50Z</time>
      </trkpt>
      <trkpt lat="41.6651690" lon="1.9934370">
        <ele>822.0</ele>
        <time>2022-04-09T08:36:51Z</time>
      </trkpt>
      <trkpt lat="41.6653040" lon="1.9934840">
        <ele>823.0</ele>
        <time>2022-04-09T08:36:55Z</time>
      </trkpt>
      <trkpt lat="41.6653700" lon="1.9935080">
        <ele>823.4</ele>
        <time>2022-04-09T08:36:57Z</time>
      </trkpt>
      <trkpt lat="41.6654950" lon="1.9935600">
        <ele>824.2</ele>
        <time>2022-04-09T08:37:01Z</time>
      </trkpt>
      <trkpt lat="41.6655590" lon="1.9935840">
        <ele>824.8</ele>
        <time>2022-04-09T08:37:03Z</time>
      </trkpt>
      <trkpt lat="41.6656280" lon="1.9936040">
        <ele>825.4</ele>
        <time>2022-04-09T08:37:05Z</time>
      </trkpt>
      <trkpt lat="41.6657050" lon="1.9935910">
        <ele>825.8</ele>
        <time>2022-04-09T08:37:07Z</time>
      </trkpt>
      <trkpt lat="41.6657880" lon="1.9935380">
        <ele>826.4</ele>
        <time>2022-04-09T08:37:09Z</time>
      </trkpt>
      <trkpt lat="41.6659290" lon="1.9934750">
        <ele>827.4</ele>
        <time>2022-04-09T08:37:13Z</time>
      </trkpt>
      <trkpt lat="41.6659550" lon="1.9934550">
        <ele>827.6</ele>
        <time>2022-04-09T08:37:14Z</time>
      </trkpt>
      <trkpt lat="41.6660280" lon="1.9933910">
        <ele>828.8</ele>
        <time>2022-04-09T08:37:17Z</time>
      </trkpt>
      <trkpt lat="41.6661620" lon="1.9932860">
        <ele>830.0</ele>
        <time>2022-04-09T08:37:22Z</time>
      </trkpt>
      <trkpt lat="41.6662000" lon="1.9932640">
        <ele>830.4</ele>
        <time>2022-04-09T08:37:23Z</time>
      </trkpt>
      <trkpt lat="41.6662840" lon="1.9932170">
        <ele>831.0</ele>
        <time>2022-04-09T08:37:26Z</time>
      </trkpt>
      <trkpt lat="41.6663630" lon="1.9931790">
        <ele>832.2</ele>
        <time>2022-04-09T08:37:29Z</time>
      </trkpt>
      <trkpt lat="41.6663870" lon="1.9931730">
        <ele>832.6</ele>
        <time>2022-04-09T08:37:30Z</time>
      </trkpt>
      <trkpt lat="41.6664610" lon="1.9931780">
        <ele>833.4</ele>
        <time>2022-04-09T08:37:32Z</time>
      </trkpt>
      <trkpt lat="41.6665290" lon="1.9932210">
        <ele>833.8</ele>
        <time>2022-04-09T08:37:34Z</time>
      </trkpt>
      <trkpt lat="41.6665840" lon="1.9932610">
        <ele>834.6</ele>
        <time>2022-04-09T08:37:36Z</time>
      </trkpt>
      <trkpt lat="41.6667550" lon="1.9933510">
        <ele>835.8</ele>
        <time>2022-04-09T08:37:41Z</time>
      </trkpt>
      <trkpt lat="41.6669680" lon="1.9934520">
        <ele>836.8</ele>
        <time>2022-04-09T08:37:46Z</time>
      </trkpt>
      <trkpt lat="41.6670390" lon="1.9934860">
        <ele>837.2</ele>
        <time>2022-04-09T08:37:48Z</time>
      </trkpt>
      <trkpt lat="41.6671730" lon="1.9935190">
        <ele>837.8</ele>
        <time>2022-04-09T08:37:51Z</time>
      </trkpt>
      <trkpt lat="41.6673380" lon="1.9935190">
        <ele>838.4</ele>
        <time>2022-04-09T08:37:55Z</time>
      </trkpt>
      <trkpt lat="41.6674840" lon="1.9935090">
        <ele>839.0</ele>
        <time>2022-04-09T08:37:59Z</time>
      </trkpt>
      <trkpt lat="41.6675640" lon="1.9935140">
        <ele>839.4</ele>
        <time>2022-04-09T08:38:01Z</time>
      </trkpt>
      <trkpt lat="41.6676970" lon="1.9935910">
        <ele>840.0</ele>
        <time>2022-04-09T08:38:05Z</time>
      </trkpt>
      <trkpt lat="41.6677500" lon="1.9936390">
        <ele>840.2</ele>
        <time>2022-04-09T08:38:07Z</time>
      </trkpt>
      <trkpt lat="41.6678630" lon="1.9937290">
        <ele>841.4</ele>
        <time>2022-04-09T08:38:11Z</time>
      </trkpt>
      <trkpt lat="41.6679500" lon="1.9937830">
        <ele>841.8</ele>
        <time>2022-04-09T08:38:13Z</time>
      </trkpt>
      <trkpt lat="41.6680360" lon="1.9938030">
        <ele>842.4</ele>
        <time>2022-04-09T08:38:16Z</time>
      </trkpt>
      <trkpt lat="41.6680880" lon="1.9938130">
        <ele>843.0</ele>
        <time>2022-04-09T08:38:18Z</time>
      </trkpt>
      <trkpt lat="41.6681470" lon="1.9938230">
        <ele>843.6</ele>
        <time>2022-04-09T08:38:20Z</time>
      </trkpt>
      <trkpt lat="41.6682340" lon="1.9938470">
        <ele>844.6</ele>
        <time>2022-04-09T08:38:23Z</time>
      </trkpt>
      <trkpt lat="41.6682590" lon="1.9938610">
        <ele>845.0</ele>
        <time>2022-04-09T08:38:24Z</time>
      </trkpt>
      <trkpt lat="41.6683580" lon="1.9939210">
        <ele>845.6</ele>
        <time>2022-04-09T08:38:27Z</time>
      </trkpt>
      <trkpt lat="41.6683900" lon="1.9939410">
        <ele>845.8</ele>
        <time>2022-04-09T08:38:28Z</time>
      </trkpt>
      <trkpt lat="41.6685650" lon="1.9940610">
        <ele>847.0</ele>
        <time>2022-04-09T08:38:34Z</time>
      </trkpt>
      <trkpt lat="41.6686280" lon="1.9941140">
        <ele>848.0</ele>
        <time>2022-04-09T08:38:37Z</time>
      </trkpt>
      <trkpt lat="41.6686680" lon="1.9941430">
        <ele>848.4</ele>
        <time>2022-04-09T08:38:39Z</time>
      </trkpt>
      <trkpt lat="41.6686870" lon="1.9941560">
        <ele>848.8</ele>
        <time>2022-04-09T08:38:40Z</time>
      </trkpt>
      <trkpt lat="41.6687490" lon="1.9942000">
        <ele>849.2</ele>
        <time>2022-04-09T08:38:42Z</time>
      </trkpt>
      <trkpt lat="41.6688340" lon="1.9942690">
        <ele>849.8</ele>
        <time>2022-04-09T08:38:45Z</time>
      </trkpt>
      <trkpt lat="41.6688860" lon="1.9942990">
        <ele>850.2</ele>
        <time>2022-04-09T08:38:46Z</time>
      </trkpt>
      <trkpt lat="41.6690300" lon="1.9943860">
        <ele>850.8</ele>
        <time>2022-04-09T08:38:50Z</time>
      </trkpt>
      <trkpt lat="41.6690730" lon="1.9944080">
        <ele>851.2</ele>
        <time>2022-04-09T08:38:51Z</time>
      </trkpt>
      <trkpt lat="41.6692250" lon="1.9945000">
        <ele>852.2</ele>
        <time>2022-04-09T08:38:55Z</time>
      </trkpt>
      <trkpt lat="41.6692530" lon="1.9945250">
        <ele>852.6</ele>
        <time>2022-04-09T08:38:56Z</time>
      </trkpt>
      <trkpt lat="41.6693940" lon="1.9945550">
        <ele>853.6</ele>
        <time>2022-04-09T08:39:00Z</time>
      </trkpt>
      <trkpt lat="41.6694660" lon="1.9945720">
        <ele>854.4</ele>
        <time>2022-04-09T08:39:02Z</time>
      </trkpt>
      <trkpt lat="41.6695040" lon="1.9945820">
        <ele>854.8</ele>
        <time>2022-04-09T08:39:03Z</time>
      </trkpt>
      <trkpt lat="41.6696670" lon="1.9946380">
        <ele>856.0</ele>
        <time>2022-04-09T08:39:08Z</time>
      </trkpt>
      <trkpt lat="41.6697320" lon="1.9946500">
        <ele>856.4</ele>
        <time>2022-04-09T08:39:10Z</time>
      </trkpt>
      <trkpt lat="41.6698280" lon="1.9946850">
        <ele>857.2</ele>
        <time>2022-04-09T08:39:13Z</time>
      </trkpt>
      <trkpt lat="41.6699980" lon="1.9947430">
        <ele>858.4</ele>
        <time>2022-04-09T08:39:18Z</time>
      </trkpt>
      <trkpt lat="41.6701620" lon="1.9947810">
        <ele>859.4</ele>
        <time>2022-04-09T08:39:23Z</time>
      </trkpt>
      <trkpt lat="41.6701920" lon="1.9947940">
        <ele>859.8</ele>
        <time>2022-04-09T08:39:24Z</time>
      </trkpt>
      <trkpt lat="41.6703120" lon="1.9948630">
        <ele>860.8</ele>
        <time>2022-04-09T08:39:28Z</time>
      </trkpt>
      <trkpt lat="41.6703720" lon="1.9948970">
        <ele>861.0</ele>
        <time>2022-04-09T08:39:30Z</time>
      </trkpt>
      <trkpt lat="41.6703900" lon="1.9949190">
        <ele>861.2</ele>
        <time>2022-04-09T08:39:31Z</time>
      </trkpt>
      <trkpt lat="41.6704330" lon="1.9949950">
        <ele>861.4</ele>
        <time>2022-04-09T08:39:34Z</time>
      </trkpt>
      <trkpt lat="41.6704610" lon="1.9950340">
        <ele>861.6</ele>
        <time>2022-04-09T08:39:36Z</time>
      </trkpt>
      <trkpt lat="41.6705120" lon="1.9950680">
        <ele>861.8</ele>
        <time>2022-04-09T08:39:38Z</time>
      </trkpt>
      <trkpt lat="41.6705170" lon="1.9950720">
        <ele>861.8</ele>
        <time>2022-04-09T08:39:39Z</time>
      </trkpt>
      <trkpt lat="41.6705170" lon="1.9950720">
        <ele>862.0</ele>
        <time>2022-04-09T08:39:42Z</time>
      </trkpt>
      <trkpt lat="41.6704980" lon="1.9951030">
        <ele>860.8</ele>
        <time>2022-04-09T08:45:46Z</time>
      </trkpt>
      <trkpt lat="41.6704870" lon="1.9951420">
        <ele>860.8</ele>
        <time>2022-04-09T08:45:47Z</time>
      </trkpt>
      <trkpt lat="41.6704650" lon="1.9953220">
        <ele>860.6</ele>
        <time>2022-04-09T08:45:51Z</time>
      </trkpt>
      <trkpt lat="41.6704960" lon="1.9954460">
        <ele>860.6</ele>
        <time>2022-04-09T08:45:53Z</time>
      </trkpt>
      <trkpt lat="41.6705580" lon="1.9955660">
        <ele>860.2</ele>
        <time>2022-04-09T08:45:55Z</time>
      </trkpt>
      <trkpt lat="41.6706330" lon="1.9957000">
        <ele>859.8</ele>
        <time>2022-04-09T08:45:57Z</time>
      </trkpt>
      <trkpt lat="41.6707140" lon="1.9958470">
        <ele>859.2</ele>
        <time>2022-04-09T08:45:59Z</time>
      </trkpt>
      <trkpt lat="41.6708250" lon="1.9960190">
        <ele>858.8</ele>
        <time>2022-04-09T08:46:01Z</time>
      </trkpt>
      <trkpt lat="41.6709550" lon="1.9961860">
        <ele>858.2</ele>
        <time>2022-04-09T08:46:03Z</time>
      </trkpt>
      <trkpt lat="41.6711280" lon="1.9964390">
        <ele>857.0</ele>
        <time>2022-04-09T08:46:06Z</time>
      </trkpt>
      <trkpt lat="41.6712830" lon="1.9967050">
        <ele>855.6</ele>
        <time>2022-04-09T08:46:09Z</time>
      </trkpt>
      <trkpt lat="41.6713770" lon="1.9968870">
        <ele>855.2</ele>
        <time>2022-04-09T08:46:11Z</time>
      </trkpt>
      <trkpt lat="41.6714180" lon="1.9969830">
        <ele>854.4</ele>
        <time>2022-04-09T08:46:12Z</time>
      </trkpt>
      <trkpt lat="41.6714440" lon="1.9970610">
        <ele>854.0</ele>
        <time>2022-04-09T08:46:13Z</time>
      </trkpt>
      <trkpt lat="41.6715240" lon="1.9971180">
        <ele>853.2</ele>
        <time>2022-04-09T08:46:15Z</time>
      </trkpt>
      <trkpt lat="41.6715810" lon="1.9970210">
        <ele>852.4</ele>
        <time>2022-04-09T08:46:17Z</time>
      </trkpt>
      <trkpt lat="41.6715970" lon="1.9969560">
        <ele>852.2</ele>
        <time>2022-04-09T08:46:18Z</time>
      </trkpt>
      <trkpt lat="41.6715860" lon="1.9968830">
        <ele>852.0</ele>
        <time>2022-04-09T08:46:19Z</time>
      </trkpt>
      <trkpt lat="41.6715520" lon="1.9968070">
        <ele>851.8</ele>
        <time>2022-04-09T08:46:20Z</time>
      </trkpt>
      <trkpt lat="41.6715060" lon="1.9967300">
        <ele>851.6</ele>
        <time>2022-04-09T08:46:21Z</time>
      </trkpt>
      <trkpt lat="41.6714020" lon="1.9965630">
        <ele>851.0</ele>
        <time>2022-04-09T08:46:23Z</time>
      </trkpt>
      <trkpt lat="41.6713010" lon="1.9963470">
        <ele>849.8</ele>
        <time>2022-04-09T08:46:25Z</time>
      </trkpt>
      <trkpt lat="41.6711810" lon="1.9960190">
        <ele>848.6</ele>
        <time>2022-04-09T08:46:28Z</time>
      </trkpt>
      <trkpt lat="41.6711490" lon="1.9958370">
        <ele>848.0</ele>
        <time>2022-04-09T08:46:30Z</time>
      </trkpt>
      <trkpt lat="41.6711480" lon="1.9957400">
        <ele>847.8</ele>
        <time>2022-04-09T08:46:31Z</time>
      </trkpt>
      <trkpt lat="41.6711720" lon="1.9956560">
        <ele>847.2</ele>
        <time>2022-04-09T08:46:32Z</time>
      </trkpt>
      <trkpt lat="41.6712220" lon="1.9955930">
        <ele>846.2</ele>
        <time>2022-04-09T08:46:33Z</time>
      </trkpt>
      <trkpt lat="41.6712730" lon="1.9955680">
        <ele>845.8</ele>
        <time>2022-04-09T08:46:34Z</time>
      </trkpt>
      <trkpt lat="41.6713290" lon="1.9955630">
        <ele>845.2</ele>
        <time>2022-04-09T08:46:35Z</time>
      </trkpt>
      <trkpt lat="41.6713890" lon="1.9955820">
        <ele>845.0</ele>
        <time>2022-04-09T08:46:36Z</time>
      </trkpt>
      <trkpt lat="41.6715280" lon="1.9956530">
        <ele>843.8</ele>
        <time>2022-04-09T08:46:38Z</time>
      </trkpt>
      <trkpt lat="41.6716810" lon="1.9957220">
        <ele>842.8</ele>
        <time>2022-04-09T08:46:40Z</time>
      </trkpt>
      <trkpt lat="41.6718730" lon="1.9957550">
        <ele>841.8</ele>
        <time>2022-04-09T08:46:42Z</time>
      </trkpt>
      <trkpt lat="41.6719680" lon="1.9957410">
        <ele>841.4</ele>
        <time>2022-04-09T08:46:43Z</time>
      </trkpt>
      <trkpt lat="41.6720440" lon="1.9956960">
        <ele>841.0</ele>
        <time>2022-04-09T08:46:44Z</time>
      </trkpt>
      <trkpt lat="41.6720990" lon="1.9956220">
        <ele>840.8</ele>
        <time>2022-04-09T08:46:45Z</time>
      </trkpt>
      <trkpt lat="41.6721440" lon="1.9955310">
        <ele>840.4</ele>
        <time>2022-04-09T08:46:46Z</time>
      </trkpt>
      <trkpt lat="41.6721750" lon="1.9954260">
        <ele>840.2</ele>
        <time>2022-04-09T08:46:47Z</time>
      </trkpt>
      <trkpt lat="41.6721970" lon="1.9953070">
        <ele>839.8</ele>
        <time>2022-04-09T08:46:48Z</time>
      </trkpt>
      <trkpt lat="41.6722280" lon="1.9951850">
        <ele>839.0</ele>
        <time>2022-04-09T08:46:49Z</time>
      </trkpt>
      <trkpt lat="41.6722810" lon="1.9950940">
        <ele>838.6</ele>
        <time>2022-04-09T08:46:50Z</time>
      </trkpt>
      <trkpt lat="41.6723550" lon="1.9950170">
        <ele>838.0</ele>
        <time>2022-04-09T08:46:51Z</time>
      </trkpt>
      <trkpt lat="41.6724220" lon="1.9950210">
        <ele>837.6</ele>
        <time>2022-04-09T08:46:52Z</time>
      </trkpt>
      <trkpt lat="41.6725980" lon="1.9950780">
        <ele>836.6</ele>
        <time>2022-04-09T08:46:54Z</time>
      </trkpt>
      <trkpt lat="41.6727530" lon="1.9952270">
        <ele>835.8</ele>
        <time>2022-04-09T08:46:56Z</time>
      </trkpt>
      <trkpt lat="41.6728690" lon="1.9953840">
        <ele>835.4</ele>
        <time>2022-04-09T08:46:58Z</time>
      </trkpt>
      <trkpt lat="41.6729430" lon="1.9954640">
        <ele>835.2</ele>
        <time>2022-04-09T08:46:59Z</time>
      </trkpt>
      <trkpt lat="41.6730450" lon="1.9955420">
        <ele>834.8</ele>
        <time>2022-04-09T08:47:00Z</time>
      </trkpt>
      <trkpt lat="41.6731210" lon="1.9955750">
        <ele>834.0</ele>
        <time>2022-04-09T08:47:01Z</time>
      </trkpt>
      <trkpt lat="41.6732240" lon="1.9955820">
        <ele>833.6</ele>
        <time>2022-04-09T08:47:02Z</time>
      </trkpt>
      <trkpt lat="41.6733190" lon="1.9955480">
        <ele>833.0</ele>
        <time>2022-04-09T08:47:03Z</time>
      </trkpt>
      <trkpt lat="41.6734060" lon="1.9954960">
        <ele>832.8</ele>
        <time>2022-04-09T08:47:04Z</time>
      </trkpt>
      <trkpt lat="41.6735020" lon="1.9954600">
        <ele>832.4</ele>
        <time>2022-04-09T08:47:05Z</time>
      </trkpt>
      <trkpt lat="41.6736960" lon="1.9954770">
        <ele>831.0</ele>
        <time>2022-04-09T08:47:07Z</time>
      </trkpt>
      <trkpt lat="41.6737830" lon="1.9954840">
        <ele>830.2</ele>
        <time>2022-04-09T08:47:08Z</time>
      </trkpt>
      <trkpt lat="41.6738600" lon="1.9954700">
        <ele>829.6</ele>
        <time>2022-04-09T08:47:09Z</time>
      </trkpt>
      <trkpt lat="41.6739160" lon="1.9954120">
        <ele>828.4</ele>
        <time>2022-04-09T08:47:10Z</time>
      </trkpt>
      <trkpt lat="41.6739570" lon="1.9953340">
        <ele>828.0</ele>
        <time>2022-04-09T08:47:11Z</time>
      </trkpt>
      <trkpt lat="41.6739740" lon="1.9952340">
        <ele>827.6</ele>
        <time>2022-04-09T08:47:12Z</time>
      </trkpt>
      <trkpt lat="41.6740320" lon="1.9950670">
        <ele>827.0</ele>
        <time>2022-04-09T08:47:14Z</time>
      </trkpt>
      <trkpt lat="41.6741600" lon="1.9950550">
        <ele>826.2</ele>
        <time>2022-04-09T08:47:16Z</time>
      </trkpt>
      <trkpt lat="41.6742670" lon="1.9950810">
        <ele>825.6</ele>
        <time>2022-04-09T08:47:17Z</time>
      </trkpt>
      <trkpt lat="41.6743720" lon="1.9951070">
        <ele>825.4</ele>
        <time>2022-04-09T08:47:18Z</time>
      </trkpt>
      <trkpt lat="41.6744630" lon="1.9951530">
        <ele>824.6</ele>
        <time>2022-04-09T08:47:19Z</time>
      </trkpt>
      <trkpt lat="41.6745220" lon="1.9952140">
        <ele>824.4</ele>
        <time>2022-04-09T08:47:20Z</time>
      </trkpt>
      <trkpt lat="41.6745980" lon="1.9953260">
        <ele>824.0</ele>
        <time>2022-04-09T08:47:21Z</time>
      </trkpt>
      <trkpt lat="41.6746540" lon="1.9954050">
        <ele>823.4</ele>
        <time>2022-04-09T08:47:22Z</time>
      </trkpt>
      <trkpt lat="41.6748080" lon="1.9955580">
        <ele>822.2</ele>
        <time>2022-04-09T08:47:24Z</time>
      </trkpt>
      <trkpt lat="41.6749900" lon="1.9956550">
        <ele>821.2</ele>
        <time>2022-04-09T08:47:26Z</time>
      </trkpt>
      <trkpt lat="41.6751820" lon="1.9957600">
        <ele>820.4</ele>
        <time>2022-04-09T08:47:28Z</time>
      </trkpt>
      <trkpt lat="41.6752480" lon="1.9957770">
        <ele>819.8</ele>
        <time>2022-04-09T08:47:29Z</time>
      </trkpt>
      <trkpt lat="41.6753210" lon="1.9957760">
        <ele>819.6</ele>
        <time>2022-04-09T08:47:30Z</time>
      </trkpt>
      <trkpt lat="41.6753920" lon="1.9957670">
        <ele>818.6</ele>
        <time>2022-04-09T08:47:31Z</time>
      </trkpt>
      <trkpt lat="41.6755440" lon="1.9957490">
        <ele>817.8</ele>
        <time>2022-04-09T08:47:33Z</time>
      </trkpt>
      <trkpt lat="41.6756110" lon="1.9957710">
        <ele>817.4</ele>
        <time>2022-04-09T08:47:34Z</time>
      </trkpt>
      <trkpt lat="41.6757290" lon="1.9958570">
        <ele>816.2</ele>
        <time>2022-04-09T08:47:36Z</time>
      </trkpt>
      <trkpt lat="41.6757800" lon="1.9959180">
        <ele>816.0</ele>
        <time>2022-04-09T08:47:37Z</time>
      </trkpt>
      <trkpt lat="41.6758010" lon="1.9959950">
        <ele>815.2</ele>
        <time>2022-04-09T08:47:38Z</time>
      </trkpt>
      <trkpt lat="41.6757710" lon="1.9960620">
        <ele>814.8</ele>
        <time>2022-04-09T08:47:39Z</time>
      </trkpt>
      <trkpt lat="41.6757190" lon="1.9961130">
        <ele>814.0</ele>
        <time>2022-04-09T08:47:40Z</time>
      </trkpt>
      <trkpt lat="41.6756130" lon="1.9961430">
        <ele>813.8</ele>
        <time>2022-04-09T08:47:41Z</time>
      </trkpt>
      <trkpt lat="41.6754050" lon="1.9961680">
        <ele>813.0</ele>
        <time>2022-04-09T08:47:43Z</time>
      </trkpt>
      <trkpt lat="41.6752870" lon="1.9961690">
        <ele>812.8</ele>
        <time>2022-04-09T08:47:44Z</time>
      </trkpt>
      <trkpt lat="41.6751830" lon="1.9961510">
        <ele>812.8</ele>
        <time>2022-04-09T08:47:45Z</time>
      </trkpt>
      <trkpt lat="41.6750830" lon="1.9961060">
        <ele>812.0</ele>
        <time>2022-04-09T08:47:46Z</time>
      </trkpt>
      <trkpt lat="41.6749910" lon="1.9960320">
        <ele>811.2</ele>
        <time>2022-04-09T08:47:47Z</time>
      </trkpt>
      <trkpt lat="41.6748920" lon="1.9959590">
        <ele>810.6</ele>
        <time>2022-04-09T08:47:48Z</time>
      </trkpt>
      <trkpt lat="41.6747860" lon="1.9959160">
        <ele>810.0</ele>
        <time>2022-04-09T08:47:49Z</time>
      </trkpt>
      <trkpt lat="41.6746900" lon="1.9959110">
        <ele>809.6</ele>
        <time>2022-04-09T08:47:50Z</time>
      </trkpt>
      <trkpt lat="41.6744910" lon="1.9959250">
        <ele>808.2</ele>
        <time>2022-04-09T08:47:52Z</time>
      </trkpt>
      <trkpt lat="41.6743250" lon="1.9960380">
        <ele>806.4</ele>
        <time>2022-04-09T08:47:54Z</time>
      </trkpt>
      <trkpt lat="41.6741910" lon="1.9962290">
        <ele>805.4</ele>
        <time>2022-04-09T08:47:56Z</time>
      </trkpt>
      <trkpt lat="41.6741130" lon="1.9962890">
        <ele>805.0</ele>
        <time>2022-04-09T08:47:57Z</time>
      </trkpt>
      <trkpt lat="41.6740140" lon="1.9963140">
        <ele>804.2</ele>
        <time>2022-04-09T08:47:58Z</time>
      </trkpt>
      <trkpt lat="41.6738880" lon="1.9963240">
        <ele>803.0</ele>
        <time>2022-04-09T08:47:59Z</time>
      </trkpt>
      <trkpt lat="41.6737810" lon="1.9963230">
        <ele>802.6</ele>
        <time>2022-04-09T08:48:00Z</time>
      </trkpt>
      <trkpt lat="41.6736980" lon="1.9963280">
        <ele>801.0</ele>
        <time>2022-04-09T08:48:01Z</time>
      </trkpt>
      <trkpt lat="41.6734890" lon="1.9963560">
        <ele>799.4</ele>
        <time>2022-04-09T08:48:03Z</time>
      </trkpt>
      <trkpt lat="41.6732620" lon="1.9963880">
        <ele>798.4</ele>
        <time>2022-04-09T08:48:05Z</time>
      </trkpt>
      <trkpt lat="41.6729750" lon="1.9964660">
        <ele>796.4</ele>
        <time>2022-04-09T08:48:08Z</time>
      </trkpt>
      <trkpt lat="41.6729210" lon="1.9965210">
        <ele>796.0</ele>
        <time>2022-04-09T08:48:09Z</time>
      </trkpt>
      <trkpt lat="41.6728390" lon="1.9965820">
        <ele>795.2</ele>
        <time>2022-04-09T08:48:10Z</time>
      </trkpt>
      <trkpt lat="41.6728340" lon="1.9966500">
        <ele>795.0</ele>
        <time>2022-04-09T08:48:11Z</time>
      </trkpt>
      <trkpt lat="41.6728770" lon="1.9967240">
        <ele>794.8</ele>
        <time>2022-04-09T08:48:12Z</time>
      </trkpt>
      <trkpt lat="41.6730070" lon="1.9966910">
        <ele>794.0</ele>
        <time>2022-04-09T08:48:14Z</time>
      </trkpt>
      <trkpt lat="41.6730460" lon="1.9966470">
        <ele>793.4</ele>
        <time>2022-04-09T08:48:15Z</time>
      </trkpt>
      <trkpt lat="41.6732420" lon="1.9966110">
        <ele>792.6</ele>
        <time>2022-04-09T08:48:17Z</time>
      </trkpt>
      <trkpt lat="41.6733610" lon="1.9966480">
        <ele>792.0</ele>
        <time>2022-04-09T08:48:18Z</time>
      </trkpt>
      <trkpt lat="41.6734840" lon="1.9967040">
        <ele>791.2</ele>
        <time>2022-04-09T08:48:19Z</time>
      </trkpt>
      <trkpt lat="41.6736210" lon="1.9968260">
        <ele>790.6</ele>
        <time>2022-04-09T08:48:20Z</time>
      </trkpt>
      <trkpt lat="41.6737330" lon="1.9969310">
        <ele>790.0</ele>
        <time>2022-04-09T08:48:21Z</time>
      </trkpt>
      <trkpt lat="41.6738100" lon="1.9970190">
        <ele>789.0</ele>
        <time>2022-04-09T08:48:22Z</time>
      </trkpt>
      <trkpt lat="41.6738820" lon="1.9971170">
        <ele>788.4</ele>
        <time>2022-04-09T08:48:23Z</time>
      </trkpt>
      <trkpt lat="41.6739340" lon="1.9972100">
        <ele>787.2</ele>
        <time>2022-04-09T08:48:24Z</time>
      </trkpt>
      <trkpt lat="41.6739940" lon="1.9972970">
        <ele>786.6</ele>
        <time>2022-04-09T08:48:25Z</time>
      </trkpt>
      <trkpt lat="41.6740500" lon="1.9973380">
        <ele>785.8</ele>
        <time>2022-04-09T08:48:26Z</time>
      </trkpt>
      <trkpt lat="41.6740930" lon="1.9973200">
        <ele>785.0</ele>
        <time>2022-04-09T08:48:27Z</time>
      </trkpt>
      <trkpt lat="41.6741530" lon="1.9972540">
        <ele>784.6</ele>
        <time>2022-04-09T08:48:28Z</time>
      </trkpt>
      <trkpt lat="41.6742430" lon="1.9972020">
        <ele>783.8</ele>
        <time>2022-04-09T08:48:29Z</time>
      </trkpt>
      <trkpt lat="41.6743280" lon="1.9971510">
        <ele>783.4</ele>
        <time>2022-04-09T08:48:30Z</time>
      </trkpt>
      <trkpt lat="41.6744130" lon="1.9971310">
        <ele>782.8</ele>
        <time>2022-04-09T08:48:31Z</time>
      </trkpt>
      <trkpt lat="41.6745300" lon="1.9971490">
        <ele>782.2</ele>
        <time>2022-04-09T08:48:32Z</time>
      </trkpt>
      <trkpt lat="41.6746130" lon="1.9971760">
        <ele>781.0</ele>
        <time>2022-04-09T08:48:33Z</time>
      </trkpt>
      <trkpt lat="41.6747160" lon="1.9972130">
        <ele>780.6</ele>
        <time>2022-04-09T08:48:34Z</time>
      </trkpt>
      <trkpt lat="41.6748140" lon="1.9972500">
        <ele>779.0</ele>
        <time>2022-04-09T08:48:35Z</time>
      </trkpt>
      <trkpt lat="41.6749250" lon="1.9972960">
        <ele>777.8</ele>
        <time>2022-04-09T08:48:36Z</time>
      </trkpt>
      <trkpt lat="41.6750020" lon="1.9973260">
        <ele>776.8</ele>
        <time>2022-04-09T08:48:37Z</time>
      </trkpt>
      <trkpt lat="41.6750980" lon="1.9973640">
        <ele>775.8</ele>
        <time>2022-04-09T08:48:38Z</time>
      </trkpt>
      <trkpt lat="41.6752720" lon="1.9974300">
        <ele>773.8</ele>
        <time>2022-04-09T08:48:40Z</time>
      </trkpt>
      <trkpt lat="41.6754600" lon="1.9974980">
        <ele>772.2</ele>
        <time>2022-04-09T08:48:42Z</time>
      </trkpt>
      <trkpt lat="41.6755620" lon="1.9975460">
        <ele>771.4</ele>
        <time>2022-04-09T08:48:43Z</time>
      </trkpt>
      <trkpt lat="41.6756640" lon="1.9975890">
        <ele>771.0</ele>
        <time>2022-04-09T08:48:44Z</time>
      </trkpt>
      <trkpt lat="41.6758730" lon="1.9976760">
        <ele>769.8</ele>
        <time>2022-04-09T08:48:46Z</time>
      </trkpt>
      <trkpt lat="41.6759790" lon="1.9977610">
        <ele>768.6</ele>
        <time>2022-04-09T08:48:47Z</time>
      </trkpt>
      <trkpt lat="41.6761420" lon="1.9979450">
        <ele>766.8</ele>
        <time>2022-04-09T08:48:49Z</time>
      </trkpt>
      <trkpt lat="41.6762400" lon="1.9979920">
        <ele>766.2</ele>
        <time>2022-04-09T08:48:50Z</time>
      </trkpt>
      <trkpt lat="41.6763430" lon="1.9980010">
        <ele>766.0</ele>
        <time>2022-04-09T08:48:51Z</time>
      </trkpt>
      <trkpt lat="41.6764460" lon="1.9979960">
        <ele>764.4</ele>
        <time>2022-04-09T08:48:52Z</time>
      </trkpt>
      <trkpt lat="41.6765440" lon="1.9979920">
        <ele>764.0</ele>
        <time>2022-04-09T08:48:53Z</time>
      </trkpt>
      <trkpt lat="41.6766450" lon="1.9980030">
        <ele>763.0</ele>
        <time>2022-04-09T08:48:54Z</time>
      </trkpt>
      <trkpt lat="41.6767420" lon="1.9980540">
        <ele>762.4</ele>
        <time>2022-04-09T08:48:55Z</time>
      </trkpt>
      <trkpt lat="41.6768450" lon="1.9981320">
        <ele>760.6</ele>
        <time>2022-04-09T08:48:56Z</time>
      </trkpt>
      <trkpt lat="41.6770620" lon="1.9983030">
        <ele>759.2</ele>
        <time>2022-04-09T08:48:58Z</time>
      </trkpt>
      <trkpt lat="41.6771720" lon="1.9983850">
        <ele>758.0</ele>
        <time>2022-04-09T08:48:59Z</time>
      </trkpt>
      <trkpt lat="41.6773950" lon="1.9985610">
        <ele>756.2</ele>
        <time>2022-04-09T08:49:01Z</time>
      </trkpt>
      <trkpt lat="41.6775920" lon="1.9987720">
        <ele>754.2</ele>
        <time>2022-04-09T08:49:03Z</time>
      </trkpt>
      <trkpt lat="41.6777810" lon="1.9989940">
        <ele>753.0</ele>
        <time>2022-04-09T08:49:05Z</time>
      </trkpt>
      <trkpt lat="41.6778480" lon="1.9991240">
        <ele>751.8</ele>
        <time>2022-04-09T08:49:06Z</time>
      </trkpt>
      <trkpt lat="41.6779190" lon="1.9992500">
        <ele>751.2</ele>
        <time>2022-04-09T08:49:07Z</time>
      </trkpt>
      <trkpt lat="41.6779850" lon="1.9993420">
        <ele>750.0</ele>
        <time>2022-04-09T08:49:08Z</time>
      </trkpt>
      <trkpt lat="41.6781640" lon="1.9996000">
        <ele>748.0</ele>
        <time>2022-04-09T08:49:10Z</time>
      </trkpt>
      <trkpt lat="41.6782450" lon="1.9997110">
        <ele>747.0</ele>
        <time>2022-04-09T08:49:11Z</time>
      </trkpt>
      <trkpt lat="41.6783890" lon="1.9998880">
        <ele>744.6</ele>
        <time>2022-04-09T08:49:13Z</time>
      </trkpt>
      <trkpt lat="41.6785060" lon="1.9999490">
        <ele>743.8</ele>
        <time>2022-04-09T08:49:14Z</time>
      </trkpt>
      <trkpt lat="41.6786200" lon="1.9999590">
        <ele>741.8</ele>
        <time>2022-04-09T08:49:15Z</time>
      </trkpt>
      <trkpt lat="41.6788560" lon="2.0000170">
        <ele>739.8</ele>
        <time>2022-04-09T08:49:17Z</time>
      </trkpt>
      <trkpt lat="41.6790970" lon="2.0001250">
        <ele>738.4</ele>
        <time>2022-04-09T08:49:19Z</time>
      </trkpt>
      <trkpt lat="41.6793220" lon="2.0002440">
        <ele>737.0</ele>
        <time>2022-04-09T08:49:21Z</time>
      </trkpt>
      <trkpt lat="41.6794400" lon="2.0003170">
        <ele>735.4</ele>
        <time>2022-04-09T08:49:22Z</time>
      </trkpt>
      <trkpt lat="41.6796580" lon="2.0004800">
        <ele>733.4</ele>
        <time>2022-04-09T08:49:24Z</time>
      </trkpt>
      <trkpt lat="41.6797640" lon="2.0005580">
        <ele>732.2</ele>
        <time>2022-04-09T08:49:25Z</time>
      </trkpt>
      <trkpt lat="41.6798400" lon="2.0006590">
        <ele>731.8</ele>
        <time>2022-04-09T08:49:26Z</time>
      </trkpt>
      <trkpt lat="41.6798870" lon="2.0007580">
        <ele>730.6</ele>
        <time>2022-04-09T08:49:27Z</time>
      </trkpt>
      <trkpt lat="41.6799450" lon="2.0009900">
        <ele>729.2</ele>
        <time>2022-04-09T08:49:29Z</time>
      </trkpt>
      <trkpt lat="41.6800180" lon="2.0013550">
        <ele>728.0</ele>
        <time>2022-04-09T08:49:32Z</time>
      </trkpt>
      <trkpt lat="41.6800680" lon="2.0016170">
        <ele>727.6</ele>
        <time>2022-04-09T08:49:34Z</time>
      </trkpt>
      <trkpt lat="41.6801060" lon="2.0017210">
        <ele>727.4</ele>
        <time>2022-04-09T08:49:35Z</time>
      </trkpt>
      <trkpt lat="41.6801580" lon="2.0017950">
        <ele>727.0</ele>
        <time>2022-04-09T08:49:36Z</time>
      </trkpt>
      <trkpt lat="41.6802300" lon="2.0018660">
        <ele>727.0</ele>
        <time>2022-04-09T08:49:37Z</time>
      </trkpt>
      <trkpt lat="41.6804050" lon="2.0019720">
        <ele>726.8</ele>
        <time>2022-04-09T08:49:39Z</time>
      </trkpt>
      <trkpt lat="41.6805640" lon="2.0020260">
        <ele>726.8</ele>
        <time>2022-04-09T08:49:41Z</time>
      </trkpt>
      <trkpt lat="41.6806490" lon="2.0020310">
        <ele>726.8</ele>
        <time>2022-04-09T08:49:42Z</time>
      </trkpt>
      <trkpt lat="41.6807480" lon="2.0020110">
        <ele>726.8</ele>
        <time>2022-04-09T08:49:43Z</time>
      </trkpt>
      <trkpt lat="41.6808940" lon="2.0019600">
        <ele>726.8</ele>
        <time>2022-04-09T08:49:45Z</time>
      </trkpt>
      <trkpt lat="41.6811470" lon="2.0018720">
        <ele>726.6</ele>
        <time>2022-04-09T08:49:48Z</time>
      </trkpt>
      <trkpt lat="41.6813130" lon="2.0018770">
        <ele>726.2</ele>
        <time>2022-04-09T08:49:50Z</time>
      </trkpt>
      <trkpt lat="41.6813940" lon="2.0018970">
        <ele>726.0</ele>
        <time>2022-04-09T08:49:51Z</time>
      </trkpt>
      <trkpt lat="41.6814660" lon="2.0019340">
        <ele>725.4</ele>
        <time>2022-04-09T08:49:52Z</time>
      </trkpt>
      <trkpt lat="41.6815410" lon="2.0019910">
        <ele>725.2</ele>
        <time>2022-04-09T08:49:53Z</time>
      </trkpt>
      <trkpt lat="41.6816090" lon="2.0020700">
        <ele>724.8</ele>
        <time>2022-04-09T08:49:54Z</time>
      </trkpt>
      <trkpt lat="41.6817280" lon="2.0022550">
        <ele>724.0</ele>
        <time>2022-04-09T08:49:56Z</time>
      </trkpt>
      <trkpt lat="41.6818510" lon="2.0024400">
        <ele>723.8</ele>
        <time>2022-04-09T08:49:58Z</time>
      </trkpt>
      <trkpt lat="41.6819920" lon="2.0025980">
        <ele>723.4</ele>
        <time>2022-04-09T08:50:00Z</time>
      </trkpt>
      <trkpt lat="41.6820720" lon="2.0026380">
        <ele>723.0</ele>
        <time>2022-04-09T08:50:01Z</time>
      </trkpt>
      <trkpt lat="41.6821700" lon="2.0026620">
        <ele>722.8</ele>
        <time>2022-04-09T08:50:02Z</time>
      </trkpt>
      <trkpt lat="41.6822710" lon="2.0026800">
        <ele>722.8</ele>
        <time>2022-04-09T08:50:03Z</time>
      </trkpt>
      <trkpt lat="41.6825780" lon="2.0027410">
        <ele>722.0</ele>
        <time>2022-04-09T08:50:06Z</time>
      </trkpt>
      <trkpt lat="41.6827820" lon="2.0027770">
        <ele>721.6</ele>
        <time>2022-04-09T08:50:08Z</time>
      </trkpt>
      <trkpt lat="41.6831470" lon="2.0027860">
        <ele>720.4</ele>
        <time>2022-04-09T08:50:12Z</time>
      </trkpt>
      <trkpt lat="41.6832340" lon="2.0027870">
        <ele>720.0</ele>
        <time>2022-04-09T08:50:13Z</time>
      </trkpt>
      <trkpt lat="41.6834110" lon="2.0027890">
        <ele>719.2</ele>
        <time>2022-04-09T08:50:15Z</time>
      </trkpt>
      <trkpt lat="41.6836970" lon="2.0027540">
        <ele>718.2</ele>
        <time>2022-04-09T08:50:18Z</time>
      </trkpt>
      <trkpt lat="41.6837950" lon="2.0027290">
        <ele>718.0</ele>
        <time>2022-04-09T08:50:19Z</time>
      </trkpt>
      <trkpt lat="41.6839000" lon="2.0026880">
        <ele>717.4</ele>
        <time>2022-04-09T08:50:20Z</time>
      </trkpt>
      <trkpt lat="41.6839780" lon="2.0026410">
        <ele>717.0</ele>
        <time>2022-04-09T08:50:21Z</time>
      </trkpt>
      <trkpt lat="41.6840710" lon="2.0025640">
        <ele>716.6</ele>
        <time>2022-04-09T08:50:22Z</time>
      </trkpt>
      <trkpt lat="41.6841760" lon="2.0024640">
        <ele>716.0</ele>
        <time>2022-04-09T08:50:23Z</time>
      </trkpt>
      <trkpt lat="41.6844400" lon="2.0022810">
        <ele>714.6</ele>
        <time>2022-04-09T08:50:26Z</time>
      </trkpt>
      <trkpt lat="41.6845540" lon="2.0022170">
        <ele>713.2</ele>
        <time>2022-04-09T08:50:27Z</time>
      </trkpt>
      <trkpt lat="41.6847920" lon="2.0021030">
        <ele>710.2</ele>
        <time>2022-04-09T08:50:29Z</time>
      </trkpt>
      <trkpt lat="41.6849090" lon="2.0020290">
        <ele>708.8</ele>
        <time>2022-04-09T08:50:30Z</time>
      </trkpt>
      <trkpt lat="41.6851320" lon="2.0018510">
        <ele>707.6</ele>
        <time>2022-04-09T08:50:32Z</time>
      </trkpt>
      <trkpt lat="41.6853490" lon="2.0016570">
        <ele>706.0</ele>
        <time>2022-04-09T08:50:34Z</time>
      </trkpt>
      <trkpt lat="41.6855720" lon="2.0014560">
        <ele>704.0</ele>
        <time>2022-04-09T08:50:36Z</time>
      </trkpt>
      <trkpt lat="41.6856820" lon="2.0013650">
        <ele>702.4</ele>
        <time>2022-04-09T08:50:37Z</time>
      </trkpt>
      <trkpt lat="41.6857810" lon="2.0012790">
        <ele>701.2</ele>
        <time>2022-04-09T08:50:38Z</time>
      </trkpt>
      <trkpt lat="41.6858660" lon="2.0012000">
        <ele>700.0</ele>
        <time>2022-04-09T08:50:39Z</time>
      </trkpt>
      <trkpt lat="41.6860010" lon="2.0010570">
        <ele>698.4</ele>
        <time>2022-04-09T08:50:41Z</time>
      </trkpt>
      <trkpt lat="41.6860180" lon="2.0009610">
        <ele>697.6</ele>
        <time>2022-04-09T08:50:42Z</time>
      </trkpt>
      <trkpt lat="41.6860410" lon="2.0008490">
        <ele>696.8</ele>
        <time>2022-04-09T08:50:43Z</time>
      </trkpt>
      <trkpt lat="41.6860410" lon="2.0007390">
        <ele>696.4</ele>
        <time>2022-04-09T08:50:44Z</time>
      </trkpt>
      <trkpt lat="41.6860250" lon="2.0006310">
        <ele>696.0</ele>
        <time>2022-04-09T08:50:45Z</time>
      </trkpt>
      <trkpt lat="41.6860290" lon="2.0005270">
        <ele>695.0</ele>
        <time>2022-04-09T08:50:46Z</time>
      </trkpt>
      <trkpt lat="41.6860710" lon="2.0004390">
        <ele>694.2</ele>
        <time>2022-04-09T08:50:47Z</time>
      </trkpt>
      <trkpt lat="41.6861350" lon="2.0003720">
        <ele>693.4</ele>
        <time>2022-04-09T08:50:48Z</time>
      </trkpt>
      <trkpt lat="41.6863020" lon="2.0002800">
        <ele>692.2</ele>
        <time>2022-04-09T08:50:50Z</time>
      </trkpt>
      <trkpt lat="41.6865030" lon="2.0002270">
        <ele>690.6</ele>
        <time>2022-04-09T08:50:52Z</time>
      </trkpt>
      <trkpt lat="41.6867170" lon="2.0001990">
        <ele>689.4</ele>
        <time>2022-04-09T08:50:54Z</time>
      </trkpt>
      <trkpt lat="41.6869450" lon="2.0001760">
        <ele>688.0</ele>
        <time>2022-04-09T08:50:56Z</time>
      </trkpt>
      <trkpt lat="41.6871920" lon="2.0001470">
        <ele>686.6</ele>
        <time>2022-04-09T08:50:58Z</time>
      </trkpt>
      <trkpt lat="41.6873090" lon="2.0001010">
        <ele>685.4</ele>
        <time>2022-04-09T08:50:59Z</time>
      </trkpt>
      <trkpt lat="41.6874160" lon="2.0000360">
        <ele>683.8</ele>
        <time>2022-04-09T08:51:00Z</time>
      </trkpt>
      <trkpt lat="41.6876110" lon="1.9999300">
        <ele>682.6</ele>
        <time>2022-04-09T08:51:02Z</time>
      </trkpt>
      <trkpt lat="41.6877010" lon="1.9999150">
        <ele>682.2</ele>
        <time>2022-04-09T08:51:03Z</time>
      </trkpt>
      <trkpt lat="41.6878000" lon="1.9999250">
        <ele>681.2</ele>
        <time>2022-04-09T08:51:04Z</time>
      </trkpt>
      <trkpt lat="41.6878930" lon="1.9999700">
        <ele>680.8</ele>
        <time>2022-04-09T08:51:05Z</time>
      </trkpt>
      <trkpt lat="41.6879850" lon="2.0000430">
        <ele>679.8</ele>
        <time>2022-04-09T08:51:06Z</time>
      </trkpt>
      <trkpt lat="41.6880850" lon="2.0001100">
        <ele>678.6</ele>
        <time>2022-04-09T08:51:07Z</time>
      </trkpt>
      <trkpt lat="41.6883020" lon="2.0002180">
        <ele>677.0</ele>
        <time>2022-04-09T08:51:09Z</time>
      </trkpt>
      <trkpt lat="41.6884160" lon="2.0002580">
        <ele>676.2</ele>
        <time>2022-04-09T08:51:10Z</time>
      </trkpt>
      <trkpt lat="41.6885310" lon="2.0002810">
        <ele>675.2</ele>
        <time>2022-04-09T08:51:11Z</time>
      </trkpt>
      <trkpt lat="41.6886470" lon="2.0002880">
        <ele>674.6</ele>
        <time>2022-04-09T08:51:12Z</time>
      </trkpt>
      <trkpt lat="41.6887580" lon="2.0002810">
        <ele>673.4</ele>
        <time>2022-04-09T08:51:13Z</time>
      </trkpt>
      <trkpt lat="41.6889790" lon="2.0002660">
        <ele>672.0</ele>
        <time>2022-04-09T08:51:15Z</time>
      </trkpt>
      <trkpt lat="41.6891880" lon="2.0002370">
        <ele>670.4</ele>
        <time>2022-04-09T08:51:17Z</time>
      </trkpt>
      <trkpt lat="41.6892950" lon="2.0002110">
        <ele>669.2</ele>
        <time>2022-04-09T08:51:18Z</time>
      </trkpt>
      <trkpt lat="41.6895050" lon="2.0001320">
        <ele>667.6</ele>
        <time>2022-04-09T08:51:20Z</time>
      </trkpt>
      <trkpt lat="41.6896150" lon="2.0000780">
        <ele>665.8</ele>
        <time>2022-04-09T08:51:21Z</time>
      </trkpt>
      <trkpt lat="41.6897230" lon="2.0000120">
        <ele>665.0</ele>
        <time>2022-04-09T08:51:22Z</time>
      </trkpt>
      <trkpt lat="41.6898250" lon="1.9999220">
        <ele>664.0</ele>
        <time>2022-04-09T08:51:23Z</time>
      </trkpt>
      <trkpt lat="41.6900210" lon="1.9997190">
        <ele>662.2</ele>
        <time>2022-04-09T08:51:25Z</time>
      </trkpt>
      <trkpt lat="41.6901900" lon="1.9994810">
        <ele>660.0</ele>
        <time>2022-04-09T08:51:27Z</time>
      </trkpt>
      <trkpt lat="41.6902530" lon="1.9993620">
        <ele>658.6</ele>
        <time>2022-04-09T08:51:28Z</time>
      </trkpt>
      <trkpt lat="41.6902990" lon="1.9992420">
        <ele>657.8</ele>
        <time>2022-04-09T08:51:29Z</time>
      </trkpt>
      <trkpt lat="41.6903220" lon="1.9991240">
        <ele>657.0</ele>
        <time>2022-04-09T08:51:30Z</time>
      </trkpt>
      <trkpt lat="41.6903370" lon="1.9990150">
        <ele>656.4</ele>
        <time>2022-04-09T08:51:31Z</time>
      </trkpt>
      <trkpt lat="41.6903640" lon="1.9989250">
        <ele>655.2</ele>
        <time>2022-04-09T08:51:32Z</time>
      </trkpt>
      <trkpt lat="41.6904030" lon="1.9988600">
        <ele>654.4</ele>
        <time>2022-04-09T08:51:33Z</time>
      </trkpt>
      <trkpt lat="41.6904550" lon="1.9988200">
        <ele>653.4</ele>
        <time>2022-04-09T08:51:34Z</time>
      </trkpt>
      <trkpt lat="41.6905130" lon="1.9988050">
        <ele>652.8</ele>
        <time>2022-04-09T08:51:35Z</time>
      </trkpt>
      <trkpt lat="41.6905730" lon="1.9988260">
        <ele>652.6</ele>
        <time>2022-04-09T08:51:36Z</time>
      </trkpt>
      <trkpt lat="41.6906500" lon="1.9988710">
        <ele>652.0</ele>
        <time>2022-04-09T08:51:37Z</time>
      </trkpt>
      <trkpt lat="41.6907370" lon="1.9989160">
        <ele>651.4</ele>
        <time>2022-04-09T08:51:38Z</time>
      </trkpt>
      <trkpt lat="41.6908370" lon="1.9989350">
        <ele>650.4</ele>
        <time>2022-04-09T08:51:39Z</time>
      </trkpt>
      <trkpt lat="41.6909430" lon="1.9989280">
        <ele>650.2</ele>
        <time>2022-04-09T08:51:40Z</time>
      </trkpt>
      <trkpt lat="41.6911520" lon="1.9988480">
        <ele>649.0</ele>
        <time>2022-04-09T08:51:42Z</time>
      </trkpt>
      <trkpt lat="41.6913670" lon="1.9987190">
        <ele>647.2</ele>
        <time>2022-04-09T08:51:44Z</time>
      </trkpt>
      <trkpt lat="41.6915800" lon="1.9985640">
        <ele>645.0</ele>
        <time>2022-04-09T08:51:46Z</time>
      </trkpt>
      <trkpt lat="41.6918810" lon="1.9983310">
        <ele>643.0</ele>
        <time>2022-04-09T08:51:49Z</time>
      </trkpt>
      <trkpt lat="41.6920610" lon="1.9981940">
        <ele>641.6</ele>
        <time>2022-04-09T08:51:51Z</time>
      </trkpt>
      <trkpt lat="41.6921460" lon="1.9981380">
        <ele>641.2</ele>
        <time>2022-04-09T08:51:52Z</time>
      </trkpt>
      <trkpt lat="41.6922360" lon="1.9981020">
        <ele>640.8</ele>
        <time>2022-04-09T08:51:53Z</time>
      </trkpt>
      <trkpt lat="41.6923320" lon="1.9980930">
        <ele>640.8</ele>
        <time>2022-04-09T08:51:54Z</time>
      </trkpt>
      <trkpt lat="41.6924280" lon="1.9981040">
        <ele>640.6</ele>
        <time>2022-04-09T08:51:55Z</time>
      </trkpt>
      <trkpt lat="41.6925940" lon="1.9981790">
        <ele>640.4</ele>
        <time>2022-04-09T08:51:57Z</time>
      </trkpt>
      <trkpt lat="41.6926750" lon="1.9982170">
        <ele>640.2</ele>
        <time>2022-04-09T08:51:58Z</time>
      </trkpt>
      <trkpt lat="41.6928300" lon="1.9982550">
        <ele>640.0</ele>
        <time>2022-04-09T08:52:00Z</time>
      </trkpt>
      <trkpt lat="41.6929110" lon="1.9982500">
        <ele>640.0</ele>
        <time>2022-04-09T08:52:01Z</time>
      </trkpt>
      <trkpt lat="41.6929890" lon="1.9982510">
        <ele>639.6</ele>
        <time>2022-04-09T08:52:02Z</time>
      </trkpt>
      <trkpt lat="41.6933810" lon="1.9982510">
        <ele>638.6</ele>
        <time>2022-04-09T08:52:07Z</time>
      </trkpt>
      <trkpt lat="41.6938020" lon="1.9982040">
        <ele>638.6</ele>
        <time>2022-04-09T08:52:13Z</time>
      </trkpt>
      <trkpt lat="41.6939400" lon="1.9981320">
        <ele>638.6</ele>
        <time>2022-04-09T08:52:15Z</time>
      </trkpt>
      <trkpt lat="41.6940000" lon="1.9980760">
        <ele>638.6</ele>
        <time>2022-04-09T08:52:16Z</time>
      </trkpt>
      <trkpt lat="41.6940520" lon="1.9980130">
        <ele>638.6</ele>
        <time>2022-04-09T08:52:17Z</time>
      </trkpt>
      <trkpt lat="41.6941920" lon="1.9977650">
        <ele>638.4</ele>
        <time>2022-04-09T08:52:20Z</time>
      </trkpt>
      <trkpt lat="41.6943140" lon="1.9976400">
        <ele>638.2</ele>
        <time>2022-04-09T08:52:22Z</time>
      </trkpt>
      <trkpt lat="41.6943890" lon="1.9976160">
        <ele>638.2</ele>
        <time>2022-04-09T08:52:23Z</time>
      </trkpt>
      <trkpt lat="41.6945740" lon="1.9976270">
        <ele>638.0</ele>
        <time>2022-04-09T08:52:26Z</time>
      </trkpt>
      <trkpt lat="41.6948510" lon="1.9977450">
        <ele>637.8</ele>
        <time>2022-04-09T08:52:30Z</time>
      </trkpt>
      <trkpt lat="41.6949140" lon="1.9977670">
        <ele>637.6</ele>
        <time>2022-04-09T08:52:31Z</time>
      </trkpt>
      <trkpt lat="41.6951420" lon="1.9978050">
        <ele>637.4</ele>
        <time>2022-04-09T08:52:35Z</time>
      </trkpt>
      <trkpt lat="41.6954420" lon="1.9977940">
        <ele>638.0</ele>
        <time>2022-04-09T08:52:40Z</time>
      </trkpt>
      <trkpt lat="41.6955070" lon="1.9977750">
        <ele>638.0</ele>
        <time>2022-04-09T08:52:41Z</time>
      </trkpt>
      <trkpt lat="41.6955700" lon="1.9977520">
        <ele>638.2</ele>
        <time>2022-04-09T08:52:42Z</time>
      </trkpt>
      <trkpt lat="41.6958180" lon="1.9976080">
        <ele>638.4</ele>
        <time>2022-04-09T08:52:46Z</time>
      </trkpt>
      <trkpt lat="41.6959320" lon="1.9975510">
        <ele>638.6</ele>
        <time>2022-04-09T08:52:48Z</time>
      </trkpt>
      <trkpt lat="41.6959890" lon="1.9975450">
        <ele>638.8</ele>
        <time>2022-04-09T08:52:49Z</time>
      </trkpt>
      <trkpt lat="41.6960530" lon="1.9975500">
        <ele>639.0</ele>
        <time>2022-04-09T08:52:50Z</time>
      </trkpt>
      <trkpt lat="41.6962300" lon="1.9975590">
        <ele>639.6</ele>
        <time>2022-04-09T08:52:53Z</time>
      </trkpt>
      <trkpt lat="41.6962790" lon="1.9975350">
        <ele>640.0</ele>
        <time>2022-04-09T08:52:54Z</time>
      </trkpt>
      <trkpt lat="41.6963300" lon="1.9974920">
        <ele>640.2</ele>
        <time>2022-04-09T08:52:55Z</time>
      </trkpt>
      <trkpt lat="41.6964050" lon="1.9973630">
        <ele>640.6</ele>
        <time>2022-04-09T08:52:57Z</time>
      </trkpt>
      <trkpt lat="41.6964220" lon="1.9972940">
        <ele>640.8</ele>
        <time>2022-04-09T08:52:58Z</time>
      </trkpt>
      <trkpt lat="41.6964520" lon="1.9971480">
        <ele>641.2</ele>
        <time>2022-04-09T08:53:00Z</time>
      </trkpt>
      <trkpt lat="41.6965220" lon="1.9969410">
        <ele>641.8</ele>
        <time>2022-04-09T08:53:03Z</time>
      </trkpt>
      <trkpt lat="41.6965560" lon="1.9968770">
        <ele>642.0</ele>
        <time>2022-04-09T08:53:04Z</time>
      </trkpt>
      <trkpt lat="41.6965980" lon="1.9968210">
        <ele>642.0</ele>
        <time>2022-04-09T08:53:05Z</time>
      </trkpt>
      <trkpt lat="41.6966450" lon="1.9967760">
        <ele>642.2</ele>
        <time>2022-04-09T08:53:06Z</time>
      </trkpt>
      <trkpt lat="41.6967450" lon="1.9967040">
        <ele>642.6</ele>
        <time>2022-04-09T08:53:08Z</time>
      </trkpt>
      <trkpt lat="41.6969260" lon="1.9965930">
        <ele>643.2</ele>
        <time>2022-04-09T08:53:12Z</time>
      </trkpt>
      <trkpt lat="41.6969990" lon="1.9965460">
        <ele>643.2</ele>
        <time>2022-04-09T08:53:14Z</time>
      </trkpt>
      <trkpt lat="41.6971260" lon="1.9964650">
        <ele>643.6</ele>
        <time>2022-04-09T08:53:17Z</time>
      </trkpt>
      <trkpt lat="41.6972270" lon="1.9964020">
        <ele>644.0</ele>
        <time>2022-04-09T08:53:19Z</time>
      </trkpt>
      <trkpt lat="41.6973380" lon="1.9963330">
        <ele>644.2</ele>
        <time>2022-04-09T08:53:21Z</time>
      </trkpt>
      <trkpt lat="41.6975760" lon="1.9961220">
        <ele>645.2</ele>
        <time>2022-04-09T08:53:26Z</time>
      </trkpt>
      <trkpt lat="41.6976710" lon="1.9960310">
        <ele>645.4</ele>
        <time>2022-04-09T08:53:28Z</time>
      </trkpt>
      <trkpt lat="41.6977420" lon="1.9959270">
        <ele>645.6</ele>
        <time>2022-04-09T08:53:30Z</time>
      </trkpt>
      <trkpt lat="41.6977680" lon="1.9958670">
        <ele>645.6</ele>
        <time>2022-04-09T08:53:31Z</time>
      </trkpt>
      <trkpt lat="41.6978430" lon="1.9956690">
        <ele>646.2</ele>
        <time>2022-04-09T08:53:34Z</time>
      </trkpt>
      <trkpt lat="41.6978750" lon="1.9956060">
        <ele>646.6</ele>
        <time>2022-04-09T08:53:35Z</time>
      </trkpt>
      <trkpt lat="41.6979180" lon="1.9955470">
        <ele>647.0</ele>
        <time>2022-04-09T08:53:36Z</time>
      </trkpt>
      <trkpt lat="41.6979640" lon="1.9955020">
        <ele>647.0</ele>
        <time>2022-04-09T08:53:37Z</time>
      </trkpt>
      <trkpt lat="41.6980940" lon="1.9953980">
        <ele>647.2</ele>
        <time>2022-04-09T08:53:40Z</time>
      </trkpt>
      <trkpt lat="41.6981700" lon="1.9953140">
        <ele>647.4</ele>
        <time>2022-04-09T08:53:42Z</time>
      </trkpt>
      <trkpt lat="41.6982040" lon="1.9952620">
        <ele>647.4</ele>
        <time>2022-04-09T08:53:43Z</time>
      </trkpt>
      <trkpt lat="41.6982910" lon="1.9951700">
        <ele>647.8</ele>
        <time>2022-04-09T08:53:45Z</time>
      </trkpt>
      <trkpt lat="41.6983920" lon="1.9951180">
        <ele>648.2</ele>
        <time>2022-04-09T08:53:47Z</time>
      </trkpt>
      <trkpt lat="41.6984970" lon="1.9950880">
        <ele>648.4</ele>
        <time>2022-04-09T08:53:49Z</time>
      </trkpt>
      <trkpt lat="41.6985500" lon="1.9950730">
        <ele>648.4</ele>
        <time>2022-04-09T08:53:50Z</time>
      </trkpt>
      <trkpt lat="41.6986470" lon="1.9950230">
        <ele>648.6</ele>
        <time>2022-04-09T08:53:52Z</time>
      </trkpt>
      <trkpt lat="41.6987290" lon="1.9949380">
        <ele>649.0</ele>
        <time>2022-04-09T08:53:54Z</time>
      </trkpt>
      <trkpt lat="41.6988130" lon="1.9947800">
        <ele>649.2</ele>
        <time>2022-04-09T08:53:57Z</time>
      </trkpt>
      <trkpt lat="41.6988540" lon="1.9947220">
        <ele>649.4</ele>
        <time>2022-04-09T08:53:58Z</time>
      </trkpt>
      <trkpt lat="41.6988990" lon="1.9946720">
        <ele>649.6</ele>
        <time>2022-04-09T08:53:59Z</time>
      </trkpt>
      <trkpt lat="41.6989920" lon="1.9945960">
        <ele>649.8</ele>
        <time>2022-04-09T08:54:01Z</time>
      </trkpt>
      <trkpt lat="41.6990990" lon="1.9945350">
        <ele>650.0</ele>
        <time>2022-04-09T08:54:03Z</time>
      </trkpt>
      <trkpt lat="41.6991490" lon="1.9945030">
        <ele>650.0</ele>
        <time>2022-04-09T08:54:04Z</time>
      </trkpt>
      <trkpt lat="41.6992490" lon="1.9944190">
        <ele>650.2</ele>
        <time>2022-04-09T08:54:06Z</time>
      </trkpt>
      <trkpt lat="41.6993510" lon="1.9943390">
        <ele>650.4</ele>
        <time>2022-04-09T08:54:08Z</time>
      </trkpt>
      <trkpt lat="41.6994720" lon="1.9942900">
        <ele>650.4</ele>
        <time>2022-04-09T08:54:10Z</time>
      </trkpt>
      <trkpt lat="41.6996030" lon="1.9942800">
        <ele>650.4</ele>
        <time>2022-04-09T08:54:12Z</time>
      </trkpt>
      <trkpt lat="41.6997320" lon="1.9942940">
        <ele>650.2</ele>
        <time>2022-04-09T08:54:14Z</time>
      </trkpt>
      <trkpt lat="41.6998490" lon="1.9943500">
        <ele>650.0</ele>
        <time>2022-04-09T08:54:16Z</time>
      </trkpt>
      <trkpt lat="41.7000580" lon="1.9944830">
        <ele>649.6</ele>
        <time>2022-04-09T08:54:20Z</time>
      </trkpt>
      <trkpt lat="41.7001080" lon="1.9944840">
        <ele>649.6</ele>
        <time>2022-04-09T08:54:21Z</time>
      </trkpt>
      <trkpt lat="41.7001530" lon="1.9944620">
        <ele>649.6</ele>
        <time>2022-04-09T08:54:22Z</time>
      </trkpt>
      <trkpt lat="41.7002320" lon="1.9943470">
        <ele>649.6</ele>
        <time>2022-04-09T08:54:24Z</time>
      </trkpt>
      <trkpt lat="41.7003000" lon="1.9941960">
        <ele>649.6</ele>
        <time>2022-04-09T08:54:26Z</time>
      </trkpt>
      <trkpt lat="41.7004180" lon="1.9940700">
        <ele>649.6</ele>
        <time>2022-04-09T08:54:28Z</time>
      </trkpt>
      <trkpt lat="41.7007510" lon="1.9938620">
        <ele>649.4</ele>
        <time>2022-04-09T08:54:33Z</time>
      </trkpt>
      <trkpt lat="41.7008140" lon="1.9938260">
        <ele>648.8</ele>
        <time>2022-04-09T08:54:34Z</time>
      </trkpt>
      <trkpt lat="41.7012130" lon="1.9935940">
        <ele>647.8</ele>
        <time>2022-04-09T08:54:40Z</time>
      </trkpt>
      <trkpt lat="41.7013450" lon="1.9935040">
        <ele>647.6</ele>
        <time>2022-04-09T08:54:42Z</time>
      </trkpt>
      <trkpt lat="41.7015960" lon="1.9933160">
        <ele>647.8</ele>
        <time>2022-04-09T08:54:46Z</time>
      </trkpt>
      <trkpt lat="41.7017850" lon="1.9931600">
        <ele>648.0</ele>
        <time>2022-04-09T08:54:49Z</time>
      </trkpt>
      <trkpt lat="41.7022140" lon="1.9927800">
        <ele>648.0</ele>
        <time>2022-04-09T08:54:56Z</time>
      </trkpt>
      <trkpt lat="41.7022600" lon="1.9927080">
        <ele>647.8</ele>
        <time>2022-04-09T08:54:57Z</time>
      </trkpt>
      <trkpt lat="41.7022960" lon="1.9926280">
        <ele>647.8</ele>
        <time>2022-04-09T08:54:58Z</time>
      </trkpt>
      <trkpt lat="41.7023420" lon="1.9924450">
        <ele>647.6</ele>
        <time>2022-04-09T08:55:00Z</time>
      </trkpt>
      <trkpt lat="41.7023780" lon="1.9922470">
        <ele>647.4</ele>
        <time>2022-04-09T08:55:02Z</time>
      </trkpt>
      <trkpt lat="41.7024330" lon="1.9920410">
        <ele>647.0</ele>
        <time>2022-04-09T08:55:04Z</time>
      </trkpt>
      <trkpt lat="41.7025260" lon="1.9918650">
        <ele>646.6</ele>
        <time>2022-04-09T08:55:06Z</time>
      </trkpt>
      <trkpt lat="41.7026520" lon="1.9917210">
        <ele>646.0</ele>
        <time>2022-04-09T08:55:08Z</time>
      </trkpt>
      <trkpt lat="41.7027250" lon="1.9916580">
        <ele>645.6</ele>
        <time>2022-04-09T08:55:09Z</time>
      </trkpt>
      <trkpt lat="41.7029640" lon="1.9915110">
        <ele>644.8</ele>
        <time>2022-04-09T08:55:12Z</time>
      </trkpt>
      <trkpt lat="41.7032050" lon="1.9913800">
        <ele>643.4</ele>
        <time>2022-04-09T08:55:15Z</time>
      </trkpt>
      <trkpt lat="41.7034380" lon="1.9912520">
        <ele>642.0</ele>
        <time>2022-04-09T08:55:18Z</time>
      </trkpt>
      <trkpt lat="41.7036110" lon="1.9911890">
        <ele>641.4</ele>
        <time>2022-04-09T08:55:20Z</time>
      </trkpt>
      <trkpt lat="41.7037860" lon="1.9911780">
        <ele>640.6</ele>
        <time>2022-04-09T08:55:22Z</time>
      </trkpt>
      <trkpt lat="41.7039700" lon="1.9912190">
        <ele>639.4</ele>
        <time>2022-04-09T08:55:24Z</time>
      </trkpt>
      <trkpt lat="41.7042390" lon="1.9913290">
        <ele>638.2</ele>
        <time>2022-04-09T08:55:27Z</time>
      </trkpt>
      <trkpt lat="41.7046010" lon="1.9914910">
        <ele>636.0</ele>
        <time>2022-04-09T08:55:31Z</time>
      </trkpt>
      <trkpt lat="41.7046920" lon="1.9915340">
        <ele>634.4</ele>
        <time>2022-04-09T08:55:32Z</time>
      </trkpt>
      <trkpt lat="41.7048760" lon="1.9916150">
        <ele>633.0</ele>
        <time>2022-04-09T08:55:34Z</time>
      </trkpt>
      <trkpt lat="41.7050600" lon="1.9916940">
        <ele>631.2</ele>
        <time>2022-04-09T08:55:36Z</time>
      </trkpt>
      <trkpt lat="41.7052380" lon="1.9917690">
        <ele>629.6</ele>
        <time>2022-04-09T08:55:38Z</time>
      </trkpt>
      <trkpt lat="41.7053240" lon="1.9918050">
        <ele>628.4</ele>
        <time>2022-04-09T08:55:39Z</time>
      </trkpt>
      <trkpt lat="41.7054090" lon="1.9918340">
        <ele>628.0</ele>
        <time>2022-04-09T08:55:40Z</time>
      </trkpt>
      <trkpt lat="41.7054940" lon="1.9918520">
        <ele>627.4</ele>
        <time>2022-04-09T08:55:41Z</time>
      </trkpt>
      <trkpt lat="41.7055800" lon="1.9918580">
        <ele>627.2</ele>
        <time>2022-04-09T08:55:42Z</time>
      </trkpt>
      <trkpt lat="41.7057480" lon="1.9918530">
        <ele>626.0</ele>
        <time>2022-04-09T08:55:44Z</time>
      </trkpt>
      <trkpt lat="41.7058290" lon="1.9918610">
        <ele>625.6</ele>
        <time>2022-04-09T08:55:45Z</time>
      </trkpt>
      <trkpt lat="41.7059820" lon="1.9919270">
        <ele>625.2</ele>
        <time>2022-04-09T08:55:47Z</time>
      </trkpt>
      <trkpt lat="41.7060460" lon="1.9919880">
        <ele>625.0</ele>
        <time>2022-04-09T08:55:48Z</time>
      </trkpt>
      <trkpt lat="41.7061560" lon="1.9920990">
        <ele>624.6</ele>
        <time>2022-04-09T08:55:50Z</time>
      </trkpt>
      <trkpt lat="41.7062150" lon="1.9921270">
        <ele>624.4</ele>
        <time>2022-04-09T08:55:51Z</time>
      </trkpt>
      <trkpt lat="41.7062780" lon="1.9921220">
        <ele>623.6</ele>
        <time>2022-04-09T08:55:52Z</time>
      </trkpt>
      <trkpt lat="41.7063340" lon="1.9920700">
        <ele>622.8</ele>
        <time>2022-04-09T08:55:53Z</time>
      </trkpt>
      <trkpt lat="41.7063840" lon="1.9919870">
        <ele>622.6</ele>
        <time>2022-04-09T08:55:54Z</time>
      </trkpt>
      <trkpt lat="41.7065260" lon="1.9918350">
        <ele>621.8</ele>
        <time>2022-04-09T08:55:56Z</time>
      </trkpt>
      <trkpt lat="41.7066130" lon="1.9917870">
        <ele>621.2</ele>
        <time>2022-04-09T08:55:57Z</time>
      </trkpt>
      <trkpt lat="41.7068040" lon="1.9917250">
        <ele>619.8</ele>
        <time>2022-04-09T08:55:59Z</time>
      </trkpt>
      <trkpt lat="41.7069910" lon="1.9916680">
        <ele>618.4</ele>
        <time>2022-04-09T08:56:01Z</time>
      </trkpt>
      <trkpt lat="41.7072670" lon="1.9916020">
        <ele>615.8</ele>
        <time>2022-04-09T08:56:04Z</time>
      </trkpt>
      <trkpt lat="41.7073580" lon="1.9915870">
        <ele>614.8</ele>
        <time>2022-04-09T08:56:05Z</time>
      </trkpt>
      <trkpt lat="41.7074500" lon="1.9915810">
        <ele>613.6</ele>
        <time>2022-04-09T08:56:06Z</time>
      </trkpt>
      <trkpt lat="41.7076330" lon="1.9915950">
        <ele>612.6</ele>
        <time>2022-04-09T08:56:08Z</time>
      </trkpt>
      <trkpt lat="41.7077200" lon="1.9916060">
        <ele>611.0</ele>
        <time>2022-04-09T08:56:09Z</time>
      </trkpt>
      <trkpt lat="41.7078110" lon="1.9916040">
        <ele>610.6</ele>
        <time>2022-04-09T08:56:10Z</time>
      </trkpt>
      <trkpt lat="41.7079040" lon="1.9915920">
        <ele>609.8</ele>
        <time>2022-04-09T08:56:11Z</time>
      </trkpt>
      <trkpt lat="41.7080830" lon="1.9915560">
        <ele>609.0</ele>
        <time>2022-04-09T08:56:13Z</time>
      </trkpt>
      <trkpt lat="41.7081740" lon="1.9915370">
        <ele>608.4</ele>
        <time>2022-04-09T08:56:14Z</time>
      </trkpt>
      <trkpt lat="41.7083520" lon="1.9915020">
        <ele>607.2</ele>
        <time>2022-04-09T08:56:16Z</time>
      </trkpt>
      <trkpt lat="41.7086140" lon="1.9914520">
        <ele>606.2</ele>
        <time>2022-04-09T08:56:19Z</time>
      </trkpt>
      <trkpt lat="41.7087680" lon="1.9914320">
        <ele>605.6</ele>
        <time>2022-04-09T08:56:21Z</time>
      </trkpt>
      <trkpt lat="41.7089640" lon="1.9913880">
        <ele>605.4</ele>
        <time>2022-04-09T08:56:24Z</time>
      </trkpt>
      <trkpt lat="41.7090300" lon="1.9913560">
        <ele>605.0</ele>
        <time>2022-04-09T08:56:25Z</time>
      </trkpt>
      <trkpt lat="41.7090940" lon="1.9913030">
        <ele>604.6</ele>
        <time>2022-04-09T08:56:26Z</time>
      </trkpt>
      <trkpt lat="41.7091870" lon="1.9911460">
        <ele>604.2</ele>
        <time>2022-04-09T08:56:28Z</time>
      </trkpt>
      <trkpt lat="41.7092160" lon="1.9908210">
        <ele>604.0</ele>
        <time>2022-04-09T08:56:31Z</time>
      </trkpt>
      <trkpt lat="41.7092470" lon="1.9907320">
        <ele>603.8</ele>
        <time>2022-04-09T08:56:32Z</time>
      </trkpt>
      <trkpt lat="41.7092940" lon="1.9906660">
        <ele>603.6</ele>
        <time>2022-04-09T08:56:33Z</time>
      </trkpt>
      <trkpt lat="41.7093630" lon="1.9906300">
        <ele>603.4</ele>
        <time>2022-04-09T08:56:34Z</time>
      </trkpt>
      <trkpt lat="41.7095000" lon="1.9905580">
        <ele>602.8</ele>
        <time>2022-04-09T08:56:36Z</time>
      </trkpt>
      <trkpt lat="41.7095580" lon="1.9904900">
        <ele>602.4</ele>
        <time>2022-04-09T08:56:37Z</time>
      </trkpt>
      <trkpt lat="41.7096040" lon="1.9904230">
        <ele>602.2</ele>
        <time>2022-04-09T08:56:38Z</time>
      </trkpt>
      <trkpt lat="41.7096920" lon="1.9903190">
        <ele>601.8</ele>
        <time>2022-04-09T08:56:40Z</time>
      </trkpt>
      <trkpt lat="41.7097790" lon="1.9902190">
        <ele>601.4</ele>
        <time>2022-04-09T08:56:42Z</time>
      </trkpt>
      <trkpt lat="41.7097970" lon="1.9901580">
        <ele>601.2</ele>
        <time>2022-04-09T08:56:43Z</time>
      </trkpt>
      <trkpt lat="41.7097970" lon="1.9901020">
        <ele>601.0</ele>
        <time>2022-04-09T08:56:44Z</time>
      </trkpt>
      <trkpt lat="41.7097280" lon="1.9900320">
        <ele>600.6</ele>
        <time>2022-04-09T08:56:46Z</time>
      </trkpt>
      <trkpt lat="41.7096780" lon="1.9900340">
        <ele>600.4</ele>
        <time>2022-04-09T08:56:47Z</time>
      </trkpt>
      <trkpt lat="41.7096300" lon="1.9900720">
        <ele>600.2</ele>
        <time>2022-04-09T08:56:48Z</time>
      </trkpt>
      <trkpt lat="41.7095940" lon="1.9901370">
        <ele>600.0</ele>
        <time>2022-04-09T08:56:49Z</time>
      </trkpt>
      <trkpt lat="41.7095330" lon="1.9902910">
        <ele>599.8</ele>
        <time>2022-04-09T08:56:51Z</time>
      </trkpt>
      <trkpt lat="41.7094300" lon="1.9903870">
        <ele>598.8</ele>
        <time>2022-04-09T08:56:53Z</time>
      </trkpt>
      <trkpt lat="41.7093660" lon="1.9904070">
        <ele>598.6</ele>
        <time>2022-04-09T08:56:54Z</time>
      </trkpt>
      <trkpt lat="41.7092410" lon="1.9904570">
        <ele>597.8</ele>
        <time>2022-04-09T08:56:56Z</time>
      </trkpt>
      <trkpt lat="41.7091510" lon="1.9905630">
        <ele>597.2</ele>
        <time>2022-04-09T08:56:58Z</time>
      </trkpt>
      <trkpt lat="41.7090900" lon="1.9907860">
        <ele>596.8</ele>
        <time>2022-04-09T08:57:01Z</time>
      </trkpt>
      <trkpt lat="41.7090760" lon="1.9908670">
        <ele>596.4</ele>
        <time>2022-04-09T08:57:02Z</time>
      </trkpt>
      <trkpt lat="41.7090410" lon="1.9910370">
        <ele>596.0</ele>
        <time>2022-04-09T08:57:04Z</time>
      </trkpt>
      <trkpt lat="41.7089780" lon="1.9911740">
        <ele>595.8</ele>
        <time>2022-04-09T08:57:06Z</time>
      </trkpt>
      <trkpt lat="41.7089280" lon="1.9912070">
        <ele>595.8</ele>
        <time>2022-04-09T08:57:07Z</time>
      </trkpt>
      <trkpt lat="41.7088720" lon="1.9912180">
        <ele>595.8</ele>
        <time>2022-04-09T08:57:08Z</time>
      </trkpt>
      <trkpt lat="41.7087440" lon="1.9911870">
        <ele>595.8</ele>
        <time>2022-04-09T08:57:10Z</time>
      </trkpt>
      <trkpt lat="41.7086800" lon="1.9911490">
        <ele>595.6</ele>
        <time>2022-04-09T08:57:11Z</time>
      </trkpt>
      <trkpt lat="41.7082750" lon="1.9909110">
        <ele>595.2</ele>
        <time>2022-04-09T08:57:17Z</time>
      </trkpt>
      <trkpt lat="41.7081420" lon="1.9908250">
        <ele>594.4</ele>
        <time>2022-04-09T08:57:19Z</time>
      </trkpt>
      <trkpt lat="41.7080160" lon="1.9907030">
        <ele>593.6</ele>
        <time>2022-04-09T08:57:21Z</time>
      </trkpt>
      <trkpt lat="41.7079680" lon="1.9906320">
        <ele>593.4</ele>
        <time>2022-04-09T08:57:22Z</time>
      </trkpt>
      <trkpt lat="41.7079380" lon="1.9905450">
        <ele>592.8</ele>
        <time>2022-04-09T08:57:23Z</time>
      </trkpt>
      <trkpt lat="41.7078920" lon="1.9903530">
        <ele>592.0</ele>
        <time>2022-04-09T08:57:25Z</time>
      </trkpt>
      <trkpt lat="41.7078680" lon="1.9902650">
        <ele>591.4</ele>
        <time>2022-04-09T08:57:26Z</time>
      </trkpt>
      <trkpt lat="41.7078320" lon="1.9901980">
        <ele>590.8</ele>
        <time>2022-04-09T08:57:27Z</time>
      </trkpt>
      <trkpt lat="41.7077800" lon="1.9901640">
        <ele>590.2</ele>
        <time>2022-04-09T08:57:28Z</time>
      </trkpt>
      <trkpt lat="41.7076630" lon="1.9902160">
        <ele>589.6</ele>
        <time>2022-04-09T08:57:30Z</time>
      </trkpt>
      <trkpt lat="41.7075530" lon="1.9904930">
        <ele>588.4</ele>
        <time>2022-04-09T08:57:33Z</time>
      </trkpt>
      <trkpt lat="41.7074390" lon="1.9907510">
        <ele>587.0</ele>
        <time>2022-04-09T08:57:36Z</time>
      </trkpt>
      <trkpt lat="41.7073870" lon="1.9908110">
        <ele>586.2</ele>
        <time>2022-04-09T08:57:37Z</time>
      </trkpt>
      <trkpt lat="41.7073220" lon="1.9908380">
        <ele>585.6</ele>
        <time>2022-04-09T08:57:38Z</time>
      </trkpt>
      <trkpt lat="41.7072440" lon="1.9908250">
        <ele>585.0</ele>
        <time>2022-04-09T08:57:39Z</time>
      </trkpt>
      <trkpt lat="41.7071580" lon="1.9907920">
        <ele>584.2</ele>
        <time>2022-04-09T08:57:40Z</time>
      </trkpt>
      <trkpt lat="41.7070780" lon="1.9907730">
        <ele>583.8</ele>
        <time>2022-04-09T08:57:41Z</time>
      </trkpt>
      <trkpt lat="41.7069940" lon="1.9907630">
        <ele>583.4</ele>
        <time>2022-04-09T08:57:42Z</time>
      </trkpt>
      <trkpt lat="41.7069070" lon="1.9907650">
        <ele>583.0</ele>
        <time>2022-04-09T08:57:43Z</time>
      </trkpt>
      <trkpt lat="41.7068220" lon="1.9907540">
        <ele>582.2</ele>
        <time>2022-04-09T08:57:44Z</time>
      </trkpt>
      <trkpt lat="41.7067430" lon="1.9907260">
        <ele>581.8</ele>
        <time>2022-04-09T08:57:45Z</time>
      </trkpt>
      <trkpt lat="41.7066720" lon="1.9906810">
        <ele>581.2</ele>
        <time>2022-04-09T08:57:46Z</time>
      </trkpt>
      <trkpt lat="41.7066100" lon="1.9906320">
        <ele>580.6</ele>
        <time>2022-04-09T08:57:47Z</time>
      </trkpt>
      <trkpt lat="41.7064920" lon="1.9905250">
        <ele>580.2</ele>
        <time>2022-04-09T08:57:49Z</time>
      </trkpt>
      <trkpt lat="41.7064000" lon="1.9903940">
        <ele>579.8</ele>
        <time>2022-04-09T08:57:51Z</time>
      </trkpt>
      <trkpt lat="41.7063410" lon="1.9902150">
        <ele>579.6</ele>
        <time>2022-04-09T08:57:53Z</time>
      </trkpt>
      <trkpt lat="41.7063250" lon="1.9901160">
        <ele>579.4</ele>
        <time>2022-04-09T08:57:54Z</time>
      </trkpt>
      <trkpt lat="41.7062950" lon="1.9899130">
        <ele>579.0</ele>
        <time>2022-04-09T08:57:56Z</time>
      </trkpt>
      <trkpt lat="41.7062200" lon="1.9897710">
        <ele>578.8</ele>
        <time>2022-04-09T08:57:58Z</time>
      </trkpt>
      <trkpt lat="41.7061650" lon="1.9897490">
        <ele>578.6</ele>
        <time>2022-04-09T08:57:59Z</time>
      </trkpt>
      <trkpt lat="41.7061050" lon="1.9897610">
        <ele>577.8</ele>
        <time>2022-04-09T08:58:00Z</time>
      </trkpt>
      <trkpt lat="41.7060450" lon="1.9898040">
        <ele>577.0</ele>
        <time>2022-04-09T08:58:01Z</time>
      </trkpt>
      <trkpt lat="41.7059900" lon="1.9898670">
        <ele>576.8</ele>
        <time>2022-04-09T08:58:02Z</time>
      </trkpt>
      <trkpt lat="41.7059370" lon="1.9899380">
        <ele>576.6</ele>
        <time>2022-04-09T08:58:03Z</time>
      </trkpt>
      <trkpt lat="41.7058370" lon="1.9900820">
        <ele>575.8</ele>
        <time>2022-04-09T08:58:05Z</time>
      </trkpt>
      <trkpt lat="41.7057370" lon="1.9902100">
        <ele>574.8</ele>
        <time>2022-04-09T08:58:07Z</time>
      </trkpt>
      <trkpt lat="41.7056810" lon="1.9902550">
        <ele>574.4</ele>
        <time>2022-04-09T08:58:08Z</time>
      </trkpt>
      <trkpt lat="41.7056170" lon="1.9902790">
        <ele>574.2</ele>
        <time>2022-04-09T08:58:09Z</time>
      </trkpt>
      <trkpt lat="41.7055590" lon="1.9902930">
        <ele>573.6</ele>
        <time>2022-04-09T08:58:10Z</time>
      </trkpt>
      <trkpt lat="41.7055100" lon="1.9902790">
        <ele>573.6</ele>
        <time>2022-04-09T08:58:11Z</time>
      </trkpt>
      <trkpt lat="41.7054680" lon="1.9902310">
        <ele>573.4</ele>
        <time>2022-04-09T08:58:12Z</time>
      </trkpt>
      <trkpt lat="41.7054430" lon="1.9901460">
        <ele>573.4</ele>
        <time>2022-04-09T08:58:13Z</time>
      </trkpt>
      <trkpt lat="41.7054150" lon="1.9899610">
        <ele>573.2</ele>
        <time>2022-04-09T08:58:15Z</time>
      </trkpt>
      <trkpt lat="41.7053620" lon="1.9896900">
        <ele>573.4</ele>
        <time>2022-04-09T08:58:18Z</time>
      </trkpt>
      <trkpt lat="41.7052780" lon="1.9895550">
        <ele>573.4</ele>
        <time>2022-04-09T08:58:20Z</time>
      </trkpt>
      <trkpt lat="41.7051550" lon="1.9894640">
        <ele>573.0</ele>
        <time>2022-04-09T08:58:22Z</time>
      </trkpt>
      <trkpt lat="41.7050090" lon="1.9893950">
        <ele>573.2</ele>
        <time>2022-04-09T08:58:24Z</time>
      </trkpt>
      <trkpt lat="41.7045040" lon="1.9891210">
        <ele>572.0</ele>
        <time>2022-04-09T08:58:31Z</time>
      </trkpt>
      <trkpt lat="41.7042190" lon="1.9889170">
        <ele>571.6</ele>
        <time>2022-04-09T08:58:35Z</time>
      </trkpt>
      <trkpt lat="41.7041760" lon="1.9888360">
        <ele>571.6</ele>
        <time>2022-04-09T08:58:36Z</time>
      </trkpt>
      <trkpt lat="41.7041630" lon="1.9887470">
        <ele>570.8</ele>
        <time>2022-04-09T08:58:37Z</time>
      </trkpt>
      <trkpt lat="41.7041720" lon="1.9886350">
        <ele>569.8</ele>
        <time>2022-04-09T08:58:38Z</time>
      </trkpt>
      <trkpt lat="41.7041820" lon="1.9885380">
        <ele>569.4</ele>
        <time>2022-04-09T08:58:39Z</time>
      </trkpt>
      <trkpt lat="41.7041810" lon="1.9884560">
        <ele>569.0</ele>
        <time>2022-04-09T08:58:40Z</time>
      </trkpt>
      <trkpt lat="41.7041200" lon="1.9882870">
        <ele>568.6</ele>
        <time>2022-04-09T08:58:42Z</time>
      </trkpt>
      <trkpt lat="41.7040850" lon="1.9881950">
        <ele>568.4</ele>
        <time>2022-04-09T08:58:43Z</time>
      </trkpt>
      <trkpt lat="41.7040840" lon="1.9881340">
        <ele>568.4</ele>
        <time>2022-04-09T08:58:44Z</time>
      </trkpt>
      <trkpt lat="41.7041540" lon="1.9880370">
        <ele>567.6</ele>
        <time>2022-04-09T08:58:46Z</time>
      </trkpt>
      <trkpt lat="41.7042130" lon="1.9880190">
        <ele>567.2</ele>
        <time>2022-04-09T08:58:47Z</time>
      </trkpt>
      <trkpt lat="41.7042750" lon="1.9880090">
        <ele>567.0</ele>
        <time>2022-04-09T08:58:48Z</time>
      </trkpt>
      <trkpt lat="41.7044080" lon="1.9879890">
        <ele>566.4</ele>
        <time>2022-04-09T08:58:50Z</time>
      </trkpt>
      <trkpt lat="41.7044740" lon="1.9879710">
        <ele>566.2</ele>
        <time>2022-04-09T08:58:51Z</time>
      </trkpt>
      <trkpt lat="41.7048000" lon="1.9878060">
        <ele>565.6</ele>
        <time>2022-04-09T08:58:56Z</time>
      </trkpt>
      <trkpt lat="41.7050060" lon="1.9876830">
        <ele>565.0</ele>
        <time>2022-04-09T08:58:59Z</time>
      </trkpt>
      <trkpt lat="41.7052930" lon="1.9875010">
        <ele>564.4</ele>
        <time>2022-04-09T08:59:03Z</time>
      </trkpt>
      <trkpt lat="41.7055100" lon="1.9873540">
        <ele>563.8</ele>
        <time>2022-04-09T08:59:06Z</time>
      </trkpt>
      <trkpt lat="41.7058050" lon="1.9871560">
        <ele>562.8</ele>
        <time>2022-04-09T08:59:10Z</time>
      </trkpt>
      <trkpt lat="41.7060190" lon="1.9869740">
        <ele>562.0</ele>
        <time>2022-04-09T08:59:13Z</time>
      </trkpt>
      <trkpt lat="41.7060630" lon="1.9868870">
        <ele>561.8</ele>
        <time>2022-04-09T08:59:14Z</time>
      </trkpt>
      <trkpt lat="41.7060850" lon="1.9867860">
        <ele>561.8</ele>
        <time>2022-04-09T08:59:15Z</time>
      </trkpt>
      <trkpt lat="41.7060660" lon="1.9865790">
        <ele>561.4</ele>
        <time>2022-04-09T08:59:17Z</time>
      </trkpt>
      <trkpt lat="41.7059720" lon="1.9864500">
        <ele>561.0</ele>
        <time>2022-04-09T08:59:19Z</time>
      </trkpt>
      <trkpt lat="41.7058990" lon="1.9864270">
        <ele>560.6</ele>
        <time>2022-04-09T08:59:20Z</time>
      </trkpt>
      <trkpt lat="41.7053790" lon="1.9862630">
        <ele>559.6</ele>
        <time>2022-04-09T08:59:27Z</time>
      </trkpt>
      <trkpt lat="41.7048470" lon="1.9859390">
        <ele>558.8</ele>
        <time>2022-04-09T08:59:35Z</time>
      </trkpt>
      <trkpt lat="41.7047430" lon="1.9858040">
        <ele>558.6</ele>
        <time>2022-04-09T08:59:37Z</time>
      </trkpt>
      <trkpt lat="41.7047060" lon="1.9857250">
        <ele>558.6</ele>
        <time>2022-04-09T08:59:38Z</time>
      </trkpt>
      <trkpt lat="41.7046780" lon="1.9856360">
        <ele>558.6</ele>
        <time>2022-04-09T08:59:39Z</time>
      </trkpt>
      <trkpt lat="41.7045760" lon="1.9852770">
        <ele>558.2</ele>
        <time>2022-04-09T08:59:43Z</time>
      </trkpt>
      <trkpt lat="41.7045280" lon="1.9852030">
        <ele>558.0</ele>
        <time>2022-04-09T08:59:44Z</time>
      </trkpt>
      <trkpt lat="41.7044770" lon="1.9851270">
        <ele>557.6</ele>
        <time>2022-04-09T08:59:45Z</time>
      </trkpt>
      <trkpt lat="41.7043300" lon="1.9848830">
        <ele>556.8</ele>
        <time>2022-04-09T08:59:48Z</time>
      </trkpt>
      <trkpt lat="41.7042770" lon="1.9848150">
        <ele>556.6</ele>
        <time>2022-04-09T08:59:49Z</time>
      </trkpt>
      <trkpt lat="41.7040880" lon="1.9846250">
        <ele>555.2</ele>
        <time>2022-04-09T08:59:52Z</time>
      </trkpt>
      <trkpt lat="41.7040230" lon="1.9845520">
        <ele>555.0</ele>
        <time>2022-04-09T08:59:53Z</time>
      </trkpt>
      <trkpt lat="41.7039640" lon="1.9844690">
        <ele>554.6</ele>
        <time>2022-04-09T08:59:54Z</time>
      </trkpt>
      <trkpt lat="41.7039170" lon="1.9843750">
        <ele>554.2</ele>
        <time>2022-04-09T08:59:55Z</time>
      </trkpt>
      <trkpt lat="41.7038980" lon="1.9842760">
        <ele>554.0</ele>
        <time>2022-04-09T08:59:56Z</time>
      </trkpt>
      <trkpt lat="41.7039830" lon="1.9839330">
        <ele>553.0</ele>
        <time>2022-04-09T08:59:59Z</time>
      </trkpt>
      <trkpt lat="41.7040380" lon="1.9837030">
        <ele>551.6</ele>
        <time>2022-04-09T09:00:01Z</time>
      </trkpt>
      <trkpt lat="41.7040720" lon="1.9834890">
        <ele>550.4</ele>
        <time>2022-04-09T09:00:03Z</time>
      </trkpt>
      <trkpt lat="41.7040650" lon="1.9833800">
        <ele>549.8</ele>
        <time>2022-04-09T09:00:04Z</time>
      </trkpt>
      <trkpt lat="41.7040430" lon="1.9832850">
        <ele>549.6</ele>
        <time>2022-04-09T09:00:05Z</time>
      </trkpt>
      <trkpt lat="41.7039760" lon="1.9832260">
        <ele>549.2</ele>
        <time>2022-04-09T09:00:06Z</time>
      </trkpt>
      <trkpt lat="41.7038190" lon="1.9831610">
        <ele>548.0</ele>
        <time>2022-04-09T09:00:08Z</time>
      </trkpt>
      <trkpt lat="41.7036600" lon="1.9831000">
        <ele>547.0</ele>
        <time>2022-04-09T09:00:10Z</time>
      </trkpt>
      <trkpt lat="41.7033360" lon="1.9829660">
        <ele>545.8</ele>
        <time>2022-04-09T09:00:14Z</time>
      </trkpt>
      <trkpt lat="41.7031820" lon="1.9829200">
        <ele>544.0</ele>
        <time>2022-04-09T09:00:16Z</time>
      </trkpt>
      <trkpt lat="41.7031050" lon="1.9828920">
        <ele>543.8</ele>
        <time>2022-04-09T09:00:17Z</time>
      </trkpt>
      <trkpt lat="41.7029740" lon="1.9827790">
        <ele>543.0</ele>
        <time>2022-04-09T09:00:19Z</time>
      </trkpt>
      <trkpt lat="41.7029120" lon="1.9827130">
        <ele>542.2</ele>
        <time>2022-04-09T09:00:20Z</time>
      </trkpt>
      <trkpt lat="41.7028410" lon="1.9826460">
        <ele>541.8</ele>
        <time>2022-04-09T09:00:21Z</time>
      </trkpt>
      <trkpt lat="41.7027110" lon="1.9825460">
        <ele>540.6</ele>
        <time>2022-04-09T09:00:23Z</time>
      </trkpt>
      <trkpt lat="41.7026510" lon="1.9824950">
        <ele>540.4</ele>
        <time>2022-04-09T09:00:24Z</time>
      </trkpt>
      <trkpt lat="41.7025650" lon="1.9823530">
        <ele>539.8</ele>
        <time>2022-04-09T09:00:26Z</time>
      </trkpt>
      <trkpt lat="41.7025560" lon="1.9822720">
        <ele>539.4</ele>
        <time>2022-04-09T09:00:27Z</time>
      </trkpt>
      <trkpt lat="41.7026500" lon="1.9821140">
        <ele>538.8</ele>
        <time>2022-04-09T09:00:29Z</time>
      </trkpt>
      <trkpt lat="41.7027160" lon="1.9820480">
        <ele>538.6</ele>
        <time>2022-04-09T09:00:30Z</time>
      </trkpt>
      <trkpt lat="41.7027910" lon="1.9819970">
        <ele>538.2</ele>
        <time>2022-04-09T09:00:31Z</time>
      </trkpt>
      <trkpt lat="41.7028670" lon="1.9819440">
        <ele>537.4</ele>
        <time>2022-04-09T09:00:32Z</time>
      </trkpt>
      <trkpt lat="41.7029390" lon="1.9818820">
        <ele>537.2</ele>
        <time>2022-04-09T09:00:33Z</time>
      </trkpt>
      <trkpt lat="41.7030570" lon="1.9817050">
        <ele>536.2</ele>
        <time>2022-04-09T09:00:35Z</time>
      </trkpt>
      <trkpt lat="41.7031510" lon="1.9814910">
        <ele>534.6</ele>
        <time>2022-04-09T09:00:37Z</time>
      </trkpt>
      <trkpt lat="41.7031940" lon="1.9812540">
        <ele>533.4</ele>
        <time>2022-04-09T09:00:39Z</time>
      </trkpt>
      <trkpt lat="41.7031360" lon="1.9810230">
        <ele>532.8</ele>
        <time>2022-04-09T09:00:41Z</time>
      </trkpt>
      <trkpt lat="41.7030680" lon="1.9809300">
        <ele>532.4</ele>
        <time>2022-04-09T09:00:42Z</time>
      </trkpt>
      <trkpt lat="41.7029120" lon="1.9807540">
        <ele>531.2</ele>
        <time>2022-04-09T09:00:44Z</time>
      </trkpt>
      <trkpt lat="41.7027480" lon="1.9805950">
        <ele>529.8</ele>
        <time>2022-04-09T09:00:46Z</time>
      </trkpt>
      <trkpt lat="41.7026590" lon="1.9805280">
        <ele>529.2</ele>
        <time>2022-04-09T09:00:47Z</time>
      </trkpt>
      <trkpt lat="41.7025720" lon="1.9804730">
        <ele>528.8</ele>
        <time>2022-04-09T09:00:48Z</time>
      </trkpt>
      <trkpt lat="41.7023440" lon="1.9803640">
        <ele>527.6</ele>
        <time>2022-04-09T09:00:51Z</time>
      </trkpt>
      <trkpt lat="41.7022700" lon="1.9803320">
        <ele>527.4</ele>
        <time>2022-04-09T09:00:52Z</time>
      </trkpt>
      <trkpt lat="41.7019090" lon="1.9802030">
        <ele>526.6</ele>
        <time>2022-04-09T09:00:57Z</time>
      </trkpt>
      <trkpt lat="41.7018340" lon="1.9801970">
        <ele>526.6</ele>
        <time>2022-04-09T09:00:58Z</time>
      </trkpt>
      <trkpt lat="41.7016860" lon="1.9801990">
        <ele>526.6</ele>
        <time>2022-04-09T09:01:00Z</time>
      </trkpt>
      <trkpt lat="41.7013990" lon="1.9802160">
        <ele>526.4</ele>
        <time>2022-04-09T09:01:04Z</time>
      </trkpt>
      <trkpt lat="41.7012760" lon="1.9801650">
        <ele>526.2</ele>
        <time>2022-04-09T09:01:06Z</time>
      </trkpt>
      <trkpt lat="41.7012260" lon="1.9801110">
        <ele>526.2</ele>
        <time>2022-04-09T09:01:07Z</time>
      </trkpt>
      <trkpt lat="41.7011880" lon="1.9800330">
        <ele>526.2</ele>
        <time>2022-04-09T09:01:08Z</time>
      </trkpt>
      <trkpt lat="41.7011730" lon="1.9798590">
        <ele>525.8</ele>
        <time>2022-04-09T09:01:10Z</time>
      </trkpt>
      <trkpt lat="41.7012520" lon="1.9796930">
        <ele>525.4</ele>
        <time>2022-04-09T09:01:12Z</time>
      </trkpt>
      <trkpt lat="41.7014580" lon="1.9795060">
        <ele>525.0</ele>
        <time>2022-04-09T09:01:15Z</time>
      </trkpt>
      <trkpt lat="41.7015110" lon="1.9794260">
        <ele>524.8</ele>
        <time>2022-04-09T09:01:16Z</time>
      </trkpt>
      <trkpt lat="41.7015360" lon="1.9793320">
        <ele>524.8</ele>
        <time>2022-04-09T09:01:17Z</time>
      </trkpt>
      <trkpt lat="41.7015380" lon="1.9792320">
        <ele>523.8</ele>
        <time>2022-04-09T09:01:18Z</time>
      </trkpt>
      <trkpt lat="41.7015220" lon="1.9791330">
        <ele>523.4</ele>
        <time>2022-04-09T09:01:19Z</time>
      </trkpt>
      <trkpt lat="41.7014570" lon="1.9789370">
        <ele>522.8</ele>
        <time>2022-04-09T09:01:21Z</time>
      </trkpt>
      <trkpt lat="41.7014350" lon="1.9788490">
        <ele>522.4</ele>
        <time>2022-04-09T09:01:22Z</time>
      </trkpt>
      <trkpt lat="41.7014350" lon="1.9787640">
        <ele>521.4</ele>
        <time>2022-04-09T09:01:23Z</time>
      </trkpt>
      <trkpt lat="41.7014650" lon="1.9786930">
        <ele>521.2</ele>
        <time>2022-04-09T09:01:24Z</time>
      </trkpt>
      <trkpt lat="41.7015870" lon="1.9786460">
        <ele>520.6</ele>
        <time>2022-04-09T09:01:26Z</time>
      </trkpt>
      <trkpt lat="41.7016630" lon="1.9786440">
        <ele>520.0</ele>
        <time>2022-04-09T09:01:27Z</time>
      </trkpt>
      <trkpt lat="41.7019100" lon="1.9786560">
        <ele>518.6</ele>
        <time>2022-04-09T09:01:30Z</time>
      </trkpt>
      <trkpt lat="41.7019970" lon="1.9786500">
        <ele>518.4</ele>
        <time>2022-04-09T09:01:31Z</time>
      </trkpt>
      <trkpt lat="41.7021590" lon="1.9785790">
        <ele>517.6</ele>
        <time>2022-04-09T09:01:33Z</time>
      </trkpt>
      <trkpt lat="41.7022220" lon="1.9785010">
        <ele>517.0</ele>
        <time>2022-04-09T09:01:34Z</time>
      </trkpt>
      <trkpt lat="41.7022690" lon="1.9783930">
        <ele>516.4</ele>
        <time>2022-04-09T09:01:35Z</time>
      </trkpt>
      <trkpt lat="41.7023210" lon="1.9781620">
        <ele>515.2</ele>
        <time>2022-04-09T09:01:37Z</time>
      </trkpt>
      <trkpt lat="41.7022780" lon="1.9779520">
        <ele>513.6</ele>
        <time>2022-04-09T09:01:39Z</time>
      </trkpt>
      <trkpt lat="41.7021260" lon="1.9777180">
        <ele>512.4</ele>
        <time>2022-04-09T09:01:42Z</time>
      </trkpt>
      <trkpt lat="41.7020820" lon="1.9775470">
        <ele>512.0</ele>
        <time>2022-04-09T09:01:44Z</time>
      </trkpt>
      <trkpt lat="41.7021010" lon="1.9774600">
        <ele>511.8</ele>
        <time>2022-04-09T09:01:45Z</time>
      </trkpt>
      <trkpt lat="41.7021440" lon="1.9773760">
        <ele>511.6</ele>
        <time>2022-04-09T09:01:46Z</time>
      </trkpt>
      <trkpt lat="41.7022360" lon="1.9772010">
        <ele>511.2</ele>
        <time>2022-04-09T09:01:48Z</time>
      </trkpt>
      <trkpt lat="41.7022670" lon="1.9770980">
        <ele>510.8</ele>
        <time>2022-04-09T09:01:49Z</time>
      </trkpt>
      <trkpt lat="41.7022830" lon="1.9769880">
        <ele>510.6</ele>
        <time>2022-04-09T09:01:50Z</time>
      </trkpt>
      <trkpt lat="41.7022870" lon="1.9768780">
        <ele>510.2</ele>
        <time>2022-04-09T09:01:51Z</time>
      </trkpt>
      <trkpt lat="41.7022760" lon="1.9767750">
        <ele>509.8</ele>
        <time>2022-04-09T09:01:52Z</time>
      </trkpt>
      <trkpt lat="41.7022200" lon="1.9766020">
        <ele>509.0</ele>
        <time>2022-04-09T09:01:54Z</time>
      </trkpt>
      <trkpt lat="41.7021790" lon="1.9765160">
        <ele>508.6</ele>
        <time>2022-04-09T09:01:55Z</time>
      </trkpt>
      <trkpt lat="41.7021350" lon="1.9764220">
        <ele>507.8</ele>
        <time>2022-04-09T09:01:56Z</time>
      </trkpt>
      <trkpt lat="41.7020370" lon="1.9762460">
        <ele>506.6</ele>
        <time>2022-04-09T09:01:58Z</time>
      </trkpt>
      <trkpt lat="41.7019760" lon="1.9761880">
        <ele>506.2</ele>
        <time>2022-04-09T09:01:59Z</time>
      </trkpt>
      <trkpt lat="41.7019140" lon="1.9761860">
        <ele>505.4</ele>
        <time>2022-04-09T09:02:00Z</time>
      </trkpt>
      <trkpt lat="41.7018510" lon="1.9762260">
        <ele>505.0</ele>
        <time>2022-04-09T09:02:01Z</time>
      </trkpt>
      <trkpt lat="41.7018150" lon="1.9763120">
        <ele>504.0</ele>
        <time>2022-04-09T09:02:02Z</time>
      </trkpt>
      <trkpt lat="41.7018110" lon="1.9764140">
        <ele>503.4</ele>
        <time>2022-04-09T09:02:03Z</time>
      </trkpt>
      <trkpt lat="41.7018180" lon="1.9765210">
        <ele>503.2</ele>
        <time>2022-04-09T09:02:04Z</time>
      </trkpt>
      <trkpt lat="41.7018340" lon="1.9766290">
        <ele>502.8</ele>
        <time>2022-04-09T09:02:05Z</time>
      </trkpt>
      <trkpt lat="41.7018640" lon="1.9768390">
        <ele>502.2</ele>
        <time>2022-04-09T09:02:07Z</time>
      </trkpt>
      <trkpt lat="41.7018380" lon="1.9770510">
        <ele>501.4</ele>
        <time>2022-04-09T09:02:09Z</time>
      </trkpt>
      <trkpt lat="41.7017880" lon="1.9771430">
        <ele>501.0</ele>
        <time>2022-04-09T09:02:10Z</time>
      </trkpt>
      <trkpt lat="41.7017170" lon="1.9772150">
        <ele>500.6</ele>
        <time>2022-04-09T09:02:11Z</time>
      </trkpt>
      <trkpt lat="41.7016460" lon="1.9772900">
        <ele>500.2</ele>
        <time>2022-04-09T09:02:12Z</time>
      </trkpt>
      <trkpt lat="41.7015970" lon="1.9773880">
        <ele>499.8</ele>
        <time>2022-04-09T09:02:13Z</time>
      </trkpt>
      <trkpt lat="41.7015700" lon="1.9774960">
        <ele>499.0</ele>
        <time>2022-04-09T09:02:14Z</time>
      </trkpt>
      <trkpt lat="41.7015580" lon="1.9776020">
        <ele>498.4</ele>
        <time>2022-04-09T09:02:15Z</time>
      </trkpt>
      <trkpt lat="41.7015760" lon="1.9777050">
        <ele>497.6</ele>
        <time>2022-04-09T09:02:16Z</time>
      </trkpt>
      <trkpt lat="41.7016150" lon="1.9778750">
        <ele>496.2</ele>
        <time>2022-04-09T09:02:18Z</time>
      </trkpt>
      <trkpt lat="41.7015940" lon="1.9779450">
        <ele>495.4</ele>
        <time>2022-04-09T09:02:19Z</time>
      </trkpt>
      <trkpt lat="41.7015570" lon="1.9780130">
        <ele>495.2</ele>
        <time>2022-04-09T09:02:20Z</time>
      </trkpt>
      <trkpt lat="41.7014980" lon="1.9780490">
        <ele>494.8</ele>
        <time>2022-04-09T09:02:21Z</time>
      </trkpt>
      <trkpt lat="41.7014290" lon="1.9780510">
        <ele>494.8</ele>
        <time>2022-04-09T09:02:22Z</time>
      </trkpt>
      <trkpt lat="41.7012710" lon="1.9779600">
        <ele>494.4</ele>
        <time>2022-04-09T09:02:24Z</time>
      </trkpt>
      <trkpt lat="41.7010970" lon="1.9778470">
        <ele>493.8</ele>
        <time>2022-04-09T09:02:26Z</time>
      </trkpt>
      <trkpt lat="41.7009200" lon="1.9777650">
        <ele>492.8</ele>
        <time>2022-04-09T09:02:28Z</time>
      </trkpt>
      <trkpt lat="41.7008310" lon="1.9777290">
        <ele>492.4</ele>
        <time>2022-04-09T09:02:29Z</time>
      </trkpt>
      <trkpt lat="41.7007480" lon="1.9776930">
        <ele>491.4</ele>
        <time>2022-04-09T09:02:30Z</time>
      </trkpt>
      <trkpt lat="41.7006700" lon="1.9776480">
        <ele>490.4</ele>
        <time>2022-04-09T09:02:31Z</time>
      </trkpt>
      <trkpt lat="41.7005970" lon="1.9775920">
        <ele>490.2</ele>
        <time>2022-04-09T09:02:32Z</time>
      </trkpt>
      <trkpt lat="41.7005360" lon="1.9775390">
        <ele>488.8</ele>
        <time>2022-04-09T09:02:33Z</time>
      </trkpt>
      <trkpt lat="41.7004440" lon="1.9774400">
        <ele>487.4</ele>
        <time>2022-04-09T09:02:35Z</time>
      </trkpt>
      <trkpt lat="41.7004130" lon="1.9773990">
        <ele>487.0</ele>
        <time>2022-04-09T09:02:36Z</time>
      </trkpt>
      <trkpt lat="41.7003960" lon="1.9773640">
        <ele>486.4</ele>
        <time>2022-04-09T09:02:37Z</time>
      </trkpt>
      <trkpt lat="41.7004000" lon="1.9773250">
        <ele>485.8</ele>
        <time>2022-04-09T09:02:38Z</time>
      </trkpt>
      <trkpt lat="41.7004210" lon="1.9772980">
        <ele>485.6</ele>
        <time>2022-04-09T09:02:39Z</time>
      </trkpt>
      <trkpt lat="41.7004450" lon="1.9772780">
        <ele>484.6</ele>
        <time>2022-04-09T09:02:40Z</time>
      </trkpt>
      <trkpt lat="41.7005180" lon="1.9772810">
        <ele>483.8</ele>
        <time>2022-04-09T09:02:42Z</time>
      </trkpt>
      <trkpt lat="41.7006120" lon="1.9773560">
        <ele>483.4</ele>
        <time>2022-04-09T09:02:44Z</time>
      </trkpt>
      <trkpt lat="41.7006640" lon="1.9774070">
        <ele>482.6</ele>
        <time>2022-04-09T09:02:45Z</time>
      </trkpt>
      <trkpt lat="41.7007730" lon="1.9775120">
        <ele>482.0</ele>
        <time>2022-04-09T09:02:47Z</time>
      </trkpt>
      <trkpt lat="41.7009690" lon="1.9776330">
        <ele>481.4</ele>
        <time>2022-04-09T09:02:50Z</time>
      </trkpt>
      <trkpt lat="41.7010420" lon="1.9776410">
        <ele>481.2</ele>
        <time>2022-04-09T09:02:51Z</time>
      </trkpt>
      <trkpt lat="41.7011180" lon="1.9776300">
        <ele>481.0</ele>
        <time>2022-04-09T09:02:52Z</time>
      </trkpt>
      <trkpt lat="41.7011890" lon="1.9775960">
        <ele>481.0</ele>
        <time>2022-04-09T09:02:53Z</time>
      </trkpt>
      <trkpt lat="41.7012440" lon="1.9775240">
        <ele>480.6</ele>
        <time>2022-04-09T09:02:54Z</time>
      </trkpt>
      <trkpt lat="41.7012860" lon="1.9774360">
        <ele>480.2</ele>
        <time>2022-04-09T09:02:55Z</time>
      </trkpt>
      <trkpt lat="41.7013110" lon="1.9773350">
        <ele>479.8</ele>
        <time>2022-04-09T09:02:56Z</time>
      </trkpt>
      <trkpt lat="41.7013070" lon="1.9771030">
        <ele>479.2</ele>
        <time>2022-04-09T09:02:58Z</time>
      </trkpt>
      <trkpt lat="41.7013180" lon="1.9769890">
        <ele>478.6</ele>
        <time>2022-04-09T09:02:59Z</time>
      </trkpt>
      <trkpt lat="41.7013610" lon="1.9767660">
        <ele>477.6</ele>
        <time>2022-04-09T09:03:01Z</time>
      </trkpt>
      <trkpt lat="41.7013840" lon="1.9766630">
        <ele>477.2</ele>
        <time>2022-04-09T09:03:02Z</time>
      </trkpt>
      <trkpt lat="41.7014040" lon="1.9765670">
        <ele>475.8</ele>
        <time>2022-04-09T09:03:03Z</time>
      </trkpt>
      <trkpt lat="41.7014080" lon="1.9764910">
        <ele>475.0</ele>
        <time>2022-04-09T09:03:04Z</time>
      </trkpt>
      <trkpt lat="41.7014140" lon="1.9764360">
        <ele>474.2</ele>
        <time>2022-04-09T09:03:05Z</time>
      </trkpt>
      <trkpt lat="41.7014040" lon="1.9763960">
        <ele>473.4</ele>
        <time>2022-04-09T09:03:06Z</time>
      </trkpt>
      <trkpt lat="41.7013370" lon="1.9763550">
        <ele>472.6</ele>
        <time>2022-04-09T09:03:08Z</time>
      </trkpt>
      <trkpt lat="41.7012940" lon="1.9763580">
        <ele>472.4</ele>
        <time>2022-04-09T09:03:09Z</time>
      </trkpt>
      <trkpt lat="41.7012710" lon="1.9763770">
        <ele>472.0</ele>
        <time>2022-04-09T09:03:10Z</time>
      </trkpt>
      <trkpt lat="41.7012670" lon="1.9764230">
        <ele>471.4</ele>
        <time>2022-04-09T09:03:12Z</time>
      </trkpt>
      <trkpt lat="41.7012590" lon="1.9766880">
        <ele>470.4</ele>
        <time>2022-04-09T09:03:18Z</time>
      </trkpt>
      <trkpt lat="41.7012430" lon="1.9767360">
        <ele>470.4</ele>
        <time>2022-04-09T09:03:19Z</time>
      </trkpt>
      <trkpt lat="41.7012200" lon="1.9767720">
        <ele>470.4</ele>
        <time>2022-04-09T09:03:20Z</time>
      </trkpt>
      <trkpt lat="41.7011900" lon="1.9767950">
        <ele>470.4</ele>
        <time>2022-04-09T09:03:21Z</time>
      </trkpt>
      <trkpt lat="41.7010820" lon="1.9768640">
        <ele>469.8</ele>
        <time>2022-04-09T09:03:25Z</time>
      </trkpt>
      <trkpt lat="41.7010600" lon="1.9768780">
        <ele>469.4</ele>
        <time>2022-04-09T09:03:26Z</time>
      </trkpt>
      <trkpt lat="41.7010380" lon="1.9768860">
        <ele>469.4</ele>
        <time>2022-04-09T09:03:27Z</time>
      </trkpt>
      <trkpt lat="41.7010170" lon="1.9768810">
        <ele>469.2</ele>
        <time>2022-04-09T09:03:28Z</time>
      </trkpt>
      <trkpt lat="41.7009160" lon="1.9767610">
        <ele>467.8</ele>
        <time>2022-04-09T09:03:33Z</time>
      </trkpt>
      <trkpt lat="41.7009020" lon="1.9767280">
        <ele>467.2</ele>
        <time>2022-04-09T09:03:34Z</time>
      </trkpt>
      <trkpt lat="41.7008660" lon="1.9766570">
        <ele>466.0</ele>
        <time>2022-04-09T09:03:36Z</time>
      </trkpt>
      <trkpt lat="41.7008250" lon="1.9765950">
        <ele>464.4</ele>
        <time>2022-04-09T09:03:38Z</time>
      </trkpt>
      <trkpt lat="41.7007730" lon="1.9765430">
        <ele>463.8</ele>
        <time>2022-04-09T09:03:40Z</time>
      </trkpt>
      <trkpt lat="41.7007170" lon="1.9764910">
        <ele>463.4</ele>
        <time>2022-04-09T09:03:42Z</time>
      </trkpt>
      <trkpt lat="41.7006440" lon="1.9764630">
        <ele>462.0</ele>
        <time>2022-04-09T09:03:45Z</time>
      </trkpt>
      <trkpt lat="41.7006160" lon="1.9764430">
        <ele>462.0</ele>
        <time>2022-04-09T09:03:46Z</time>
      </trkpt>
      <trkpt lat="41.7005030" lon="1.9763580">
        <ele>461.8</ele>
        <time>2022-04-09T09:03:52Z</time>
      </trkpt>
      <trkpt lat="41.7003680" lon="1.9761890">
        <ele>462.2</ele>
        <time>2022-04-09T09:04:01Z</time>
      </trkpt>
      <trkpt lat="41.7002670" lon="1.9761120">
        <ele>462.0</ele>
        <time>2022-04-09T09:04:07Z</time>
      </trkpt>
      <trkpt lat="41.7001870" lon="1.9761000">
        <ele>462.2</ele>
        <time>2022-04-09T09:04:11Z</time>
      </trkpt>
      <trkpt lat="41.7001670" lon="1.9761070">
        <ele>462.2</ele>
        <time>2022-04-09T09:04:12Z</time>
      </trkpt>
      <trkpt lat="41.7000560" lon="1.9761000">
        <ele>462.8</ele>
        <time>2022-04-09T09:04:16Z</time>
      </trkpt>
      <trkpt lat="41.6999980" lon="1.9761120">
        <ele>463.4</ele>
        <time>2022-04-09T09:04:18Z</time>
      </trkpt>
      <trkpt lat="41.6999080" lon="1.9761240">
        <ele>464.0</ele>
        <time>2022-04-09T09:04:21Z</time>
      </trkpt>
      <trkpt lat="41.6998850" lon="1.9761290">
        <ele>464.6</ele>
        <time>2022-04-09T09:04:22Z</time>
      </trkpt>
      <trkpt lat="41.6998290" lon="1.9761200">
        <ele>465.6</ele>
        <time>2022-04-09T09:04:25Z</time>
      </trkpt>
      <trkpt lat="41.6997760" lon="1.9761060">
        <ele>466.6</ele>
        <time>2022-04-09T09:04:28Z</time>
      </trkpt>
      <trkpt lat="41.6997590" lon="1.9761090">
        <ele>466.8</ele>
        <time>2022-04-09T09:04:29Z</time>
      </trkpt>
      <trkpt lat="41.6996620" lon="1.9760980">
        <ele>467.2</ele>
        <time>2022-04-09T09:04:35Z</time>
      </trkpt>
      <trkpt lat="41.6996560" lon="1.9760950">
        <ele>467.2</ele>
        <time>2022-04-09T09:04:38Z</time>
      </trkpt>
      <trkpt lat="41.6996560" lon="1.9760950">
        <ele>467.2</ele>
        <time>2022-04-09T09:04:41Z</time>
      </trkpt>
      <trkpt lat="41.6997680" lon="1.9761390">
        <ele>464.8</ele>
        <time>2022-04-09T09:53:13Z</time>
      </trkpt>
      <trkpt lat="41.6998270" lon="1.9761420">
        <ele>464.4</ele>
        <time>2022-04-09T09:53:15Z</time>
      </trkpt>
      <trkpt lat="41.7000130" lon="1.9761540">
        <ele>463.4</ele>
        <time>2022-04-09T09:53:21Z</time>
      </trkpt>
      <trkpt lat="41.7000840" lon="1.9761540">
        <ele>462.8</ele>
        <time>2022-04-09T09:53:23Z</time>
      </trkpt>
      <trkpt lat="41.7001690" lon="1.9761760">
        <ele>462.2</ele>
        <time>2022-04-09T09:53:26Z</time>
      </trkpt>
      <trkpt lat="41.7002090" lon="1.9762050">
        <ele>461.8</ele>
        <time>2022-04-09T09:53:28Z</time>
      </trkpt>
      <trkpt lat="41.7003300" lon="1.9762750">
        <ele>461.2</ele>
        <time>2022-04-09T09:53:33Z</time>
      </trkpt>
      <trkpt lat="41.7003500" lon="1.9762880">
        <ele>461.2</ele>
        <time>2022-04-09T09:53:34Z</time>
      </trkpt>
      <trkpt lat="41.7004910" lon="1.9764340">
        <ele>460.4</ele>
        <time>2022-04-09T09:53:41Z</time>
      </trkpt>
      <trkpt lat="41.7005410" lon="1.9764780">
        <ele>460.2</ele>
        <time>2022-04-09T09:53:44Z</time>
      </trkpt>
      <trkpt lat="41.7006320" lon="1.9765270">
        <ele>460.0</ele>
        <time>2022-04-09T09:53:48Z</time>
      </trkpt>
      <trkpt lat="41.7007780" lon="1.9765230">
        <ele>459.8</ele>
        <time>2022-04-09T09:53:55Z</time>
      </trkpt>
      <trkpt lat="41.7008300" lon="1.9764030">
        <ele>459.6</ele>
        <time>2022-04-09T09:53:59Z</time>
      </trkpt>
      <trkpt lat="41.7008290" lon="1.9763410">
        <ele>459.4</ele>
        <time>2022-04-09T09:54:00Z</time>
      </trkpt>
      <trkpt lat="41.7008270" lon="1.9762790">
        <ele>459.2</ele>
        <time>2022-04-09T09:54:01Z</time>
      </trkpt>
      <trkpt lat="41.7008280" lon="1.9761210">
        <ele>458.6</ele>
        <time>2022-04-09T09:54:03Z</time>
      </trkpt>
      <trkpt lat="41.7008280" lon="1.9759300">
        <ele>458.6</ele>
        <time>2022-04-09T09:54:05Z</time>
      </trkpt>
      <trkpt lat="41.7008610" lon="1.9757360">
        <ele>457.8</ele>
        <time>2022-04-09T09:54:07Z</time>
      </trkpt>
      <trkpt lat="41.7009510" lon="1.9755600">
        <ele>457.2</ele>
        <time>2022-04-09T09:54:09Z</time>
      </trkpt>
      <trkpt lat="41.7010110" lon="1.9754930">
        <ele>457.0</ele>
        <time>2022-04-09T09:54:10Z</time>
      </trkpt>
      <trkpt lat="41.7010500" lon="1.9754710">
        <ele>456.8</ele>
        <time>2022-04-09T09:54:11Z</time>
      </trkpt>
      <trkpt lat="41.7010900" lon="1.9754490">
        <ele>455.4</ele>
        <time>2022-04-09T09:54:12Z</time>
      </trkpt>
      <trkpt lat="41.7012490" lon="1.9753620">
        <ele>454.0</ele>
        <time>2022-04-09T09:54:14Z</time>
      </trkpt>
      <trkpt lat="41.7014430" lon="1.9752320">
        <ele>452.8</ele>
        <time>2022-04-09T09:54:16Z</time>
      </trkpt>
      <trkpt lat="41.7014560" lon="1.9752010">
        <ele>452.0</ele>
        <time>2022-04-09T09:54:17Z</time>
      </trkpt>
      <trkpt lat="41.7014690" lon="1.9751700">
        <ele>451.8</ele>
        <time>2022-04-09T09:54:18Z</time>
      </trkpt>
      <trkpt lat="41.7014920" lon="1.9750270">
        <ele>451.2</ele>
        <time>2022-04-09T09:54:19Z</time>
      </trkpt>
      <trkpt lat="41.7015010" lon="1.9749860">
        <ele>450.8</ele>
        <time>2022-04-09T09:54:20Z</time>
      </trkpt>
      <trkpt lat="41.7015100" lon="1.9749460">
        <ele>450.0</ele>
        <time>2022-04-09T09:54:21Z</time>
      </trkpt>
      <trkpt lat="41.7016390" lon="1.9745270">
        <ele>448.2</ele>
        <time>2022-04-09T09:54:24Z</time>
      </trkpt>
      <trkpt lat="41.7017180" lon="1.9742970">
        <ele>446.4</ele>
        <time>2022-04-09T09:54:26Z</time>
      </trkpt>
      <trkpt lat="41.7017850" lon="1.9740840">
        <ele>444.8</ele>
        <time>2022-04-09T09:54:28Z</time>
      </trkpt>
      <trkpt lat="41.7018210" lon="1.9739810">
        <ele>443.2</ele>
        <time>2022-04-09T09:54:29Z</time>
      </trkpt>
      <trkpt lat="41.7018410" lon="1.9739130">
        <ele>443.0</ele>
        <time>2022-04-09T09:54:30Z</time>
      </trkpt>
      <trkpt lat="41.7018610" lon="1.9738450">
        <ele>441.4</ele>
        <time>2022-04-09T09:54:31Z</time>
      </trkpt>
      <trkpt lat="41.7019410" lon="1.9735720">
        <ele>439.2</ele>
        <time>2022-04-09T09:54:33Z</time>
      </trkpt>
      <trkpt lat="41.7019720" lon="1.9734500">
        <ele>438.6</ele>
        <time>2022-04-09T09:54:34Z</time>
      </trkpt>
      <trkpt lat="41.7020190" lon="1.9733310">
        <ele>437.6</ele>
        <time>2022-04-09T09:54:35Z</time>
      </trkpt>
      <trkpt lat="41.7021290" lon="1.9730840">
        <ele>436.4</ele>
        <time>2022-04-09T09:54:37Z</time>
      </trkpt>
      <trkpt lat="41.7021880" lon="1.9729680">
        <ele>434.6</ele>
        <time>2022-04-09T09:54:38Z</time>
      </trkpt>
      <trkpt lat="41.7022460" lon="1.9728520">
        <ele>432.4</ele>
        <time>2022-04-09T09:54:40Z</time>
      </trkpt>
      <trkpt lat="41.7023460" lon="1.9726190">
        <ele>431.0</ele>
        <time>2022-04-09T09:54:42Z</time>
      </trkpt>
      <trkpt lat="41.7023800" lon="1.9725030">
        <ele>430.6</ele>
        <time>2022-04-09T09:54:43Z</time>
      </trkpt>
      <trkpt lat="41.7024090" lon="1.9722880">
        <ele>430.4</ele>
        <time>2022-04-09T09:54:44Z</time>
      </trkpt>
      <trkpt lat="41.7023980" lon="1.9721860">
        <ele>429.8</ele>
        <time>2022-04-09T09:54:45Z</time>
      </trkpt>
      <trkpt lat="41.7023020" lon="1.9720400">
        <ele>429.2</ele>
        <time>2022-04-09T09:54:47Z</time>
      </trkpt>
      <trkpt lat="41.7020950" lon="1.9719220">
        <ele>428.6</ele>
        <time>2022-04-09T09:54:50Z</time>
      </trkpt>
      <trkpt lat="41.7020260" lon="1.9718830">
        <ele>428.4</ele>
        <time>2022-04-09T09:54:52Z</time>
      </trkpt>
      <trkpt lat="41.7017370" lon="1.9717070">
        <ele>428.4</ele>
        <time>2022-04-09T09:54:55Z</time>
      </trkpt>
      <trkpt lat="41.7015990" lon="1.9715880">
        <ele>428.0</ele>
        <time>2022-04-09T09:54:57Z</time>
      </trkpt>
      <trkpt lat="41.7014750" lon="1.9714460">
        <ele>428.0</ele>
        <time>2022-04-09T09:54:59Z</time>
      </trkpt>
      <trkpt lat="41.7013810" lon="1.9712700">
        <ele>427.8</ele>
        <time>2022-04-09T09:55:01Z</time>
      </trkpt>
      <trkpt lat="41.7013480" lon="1.9711680">
        <ele>428.0</ele>
        <time>2022-04-09T09:55:03Z</time>
      </trkpt>
      <trkpt lat="41.7012940" lon="1.9708120">
        <ele>427.8</ele>
        <time>2022-04-09T09:55:05Z</time>
      </trkpt>
      <trkpt lat="41.7013370" lon="1.9702750">
        <ele>427.4</ele>
        <time>2022-04-09T09:55:09Z</time>
      </trkpt>
      <trkpt lat="41.7013710" lon="1.9699990">
        <ele>426.0</ele>
        <time>2022-04-09T09:55:12Z</time>
      </trkpt>
      <trkpt lat="41.7014280" lon="1.9696130">
        <ele>424.8</ele>
        <time>2022-04-09T09:55:14Z</time>
      </trkpt>
      <trkpt lat="41.7014660" lon="1.9694250">
        <ele>423.6</ele>
        <time>2022-04-09T09:55:15Z</time>
      </trkpt>
      <trkpt lat="41.7015040" lon="1.9692380">
        <ele>422.4</ele>
        <time>2022-04-09T09:55:17Z</time>
      </trkpt>
      <trkpt lat="41.7015480" lon="1.9689950">
        <ele>421.6</ele>
        <time>2022-04-09T09:55:19Z</time>
      </trkpt>
      <trkpt lat="41.7015530" lon="1.9688780">
        <ele>421.2</ele>
        <time>2022-04-09T09:55:20Z</time>
      </trkpt>
      <trkpt lat="41.7015420" lon="1.9687700">
        <ele>420.8</ele>
        <time>2022-04-09T09:55:21Z</time>
      </trkpt>
      <trkpt lat="41.7015080" lon="1.9687050">
        <ele>420.6</ele>
        <time>2022-04-09T09:55:22Z</time>
      </trkpt>
      <trkpt lat="41.7014740" lon="1.9686410">
        <ele>420.4</ele>
        <time>2022-04-09T09:55:23Z</time>
      </trkpt>
      <trkpt lat="41.7014060" lon="1.9685120">
        <ele>420.4</ele>
        <time>2022-04-09T09:55:24Z</time>
      </trkpt>
      <trkpt lat="41.7013450" lon="1.9684810">
        <ele>419.8</ele>
        <time>2022-04-09T09:55:25Z</time>
      </trkpt>
      <trkpt lat="41.7012840" lon="1.9684510">
        <ele>419.8</ele>
        <time>2022-04-09T09:55:26Z</time>
      </trkpt>
      <trkpt lat="41.7011610" lon="1.9683900">
        <ele>419.8</ele>
        <time>2022-04-09T09:55:27Z</time>
      </trkpt>
      <trkpt lat="41.7008080" lon="1.9682960">
        <ele>420.8</ele>
        <time>2022-04-09T09:55:32Z</time>
      </trkpt>
      <trkpt lat="41.7006380" lon="1.9682340">
        <ele>421.4</ele>
        <time>2022-04-09T09:55:35Z</time>
      </trkpt>
      <trkpt lat="41.7005820" lon="1.9681890">
        <ele>421.6</ele>
        <time>2022-04-09T09:55:36Z</time>
      </trkpt>
      <trkpt lat="41.7004920" lon="1.9680530">
        <ele>422.0</ele>
        <time>2022-04-09T09:55:38Z</time>
      </trkpt>
      <trkpt lat="41.7004180" lon="1.9679010">
        <ele>422.4</ele>
        <time>2022-04-09T09:55:40Z</time>
      </trkpt>
      <trkpt lat="41.7003860" lon="1.9677310">
        <ele>423.0</ele>
        <time>2022-04-09T09:55:42Z</time>
      </trkpt>
      <trkpt lat="41.7003940" lon="1.9676510">
        <ele>423.2</ele>
        <time>2022-04-09T09:55:43Z</time>
      </trkpt>
      <trkpt lat="41.7004150" lon="1.9675780">
        <ele>423.4</ele>
        <time>2022-04-09T09:55:44Z</time>
      </trkpt>
      <trkpt lat="41.7004900" lon="1.9673640">
        <ele>423.6</ele>
        <time>2022-04-09T09:55:47Z</time>
      </trkpt>
      <trkpt lat="41.7005220" lon="1.9673070">
        <ele>424.0</ele>
        <time>2022-04-09T09:55:48Z</time>
      </trkpt>
      <trkpt lat="41.7005960" lon="1.9671810">
        <ele>424.2</ele>
        <time>2022-04-09T09:55:50Z</time>
      </trkpt>
      <trkpt lat="41.7006850" lon="1.9669230">
        <ele>424.4</ele>
        <time>2022-04-09T09:55:53Z</time>
      </trkpt>
      <trkpt lat="41.7008190" lon="1.9664380">
        <ele>424.6</ele>
        <time>2022-04-09T09:55:58Z</time>
      </trkpt>
      <trkpt lat="41.7008980" lon="1.9659750">
        <ele>424.0</ele>
        <time>2022-04-09T09:56:03Z</time>
      </trkpt>
      <trkpt lat="41.7008900" lon="1.9658810">
        <ele>424.0</ele>
        <time>2022-04-09T09:56:04Z</time>
      </trkpt>
      <trkpt lat="41.7008500" lon="1.9654700">
        <ele>423.2</ele>
        <time>2022-04-09T09:56:08Z</time>
      </trkpt>
      <trkpt lat="41.7008340" lon="1.9653610">
        <ele>423.0</ele>
        <time>2022-04-09T09:56:09Z</time>
      </trkpt>
      <trkpt lat="41.7008050" lon="1.9651370">
        <ele>422.8</ele>
        <time>2022-04-09T09:56:11Z</time>
      </trkpt>
      <trkpt lat="41.7007680" lon="1.9647610">
        <ele>421.4</ele>
        <time>2022-04-09T09:56:14Z</time>
      </trkpt>
      <trkpt lat="41.7007610" lon="1.9646290">
        <ele>420.2</ele>
        <time>2022-04-09T09:56:16Z</time>
      </trkpt>
      <trkpt lat="41.7007530" lon="1.9642050">
        <ele>418.8</ele>
        <time>2022-04-09T09:56:18Z</time>
      </trkpt>
      <trkpt lat="41.7007630" lon="1.9639160">
        <ele>417.2</ele>
        <time>2022-04-09T09:56:20Z</time>
      </trkpt>
      <trkpt lat="41.7007850" lon="1.9636320">
        <ele>416.2</ele>
        <time>2022-04-09T09:56:22Z</time>
      </trkpt>
      <trkpt lat="41.7008110" lon="1.9634980">
        <ele>415.2</ele>
        <time>2022-04-09T09:56:23Z</time>
      </trkpt>
      <trkpt lat="41.7008560" lon="1.9633700">
        <ele>414.8</ele>
        <time>2022-04-09T09:56:24Z</time>
      </trkpt>
      <trkpt lat="41.7009170" lon="1.9632490">
        <ele>414.2</ele>
        <time>2022-04-09T09:56:25Z</time>
      </trkpt>
      <trkpt lat="41.7010440" lon="1.9630100">
        <ele>413.0</ele>
        <time>2022-04-09T09:56:27Z</time>
      </trkpt>
      <trkpt lat="41.7011000" lon="1.9628920">
        <ele>412.4</ele>
        <time>2022-04-09T09:56:28Z</time>
      </trkpt>
      <trkpt lat="41.7011740" lon="1.9626970">
        <ele>411.4</ele>
        <time>2022-04-09T09:56:30Z</time>
      </trkpt>
      <trkpt lat="41.7011910" lon="1.9626390">
        <ele>410.8</ele>
        <time>2022-04-09T09:56:31Z</time>
      </trkpt>
      <trkpt lat="41.7012070" lon="1.9625800">
        <ele>410.0</ele>
        <time>2022-04-09T09:56:32Z</time>
      </trkpt>
      <trkpt lat="41.7012150" lon="1.9625440">
        <ele>409.8</ele>
        <time>2022-04-09T09:56:33Z</time>
      </trkpt>
      <trkpt lat="41.7012660" lon="1.9623490">
        <ele>409.2</ele>
        <time>2022-04-09T09:56:37Z</time>
      </trkpt>
      <trkpt lat="41.7013060" lon="1.9622940">
        <ele>409.0</ele>
        <time>2022-04-09T09:56:38Z</time>
      </trkpt>
      <trkpt lat="41.7015200" lon="1.9620570">
        <ele>408.6</ele>
        <time>2022-04-09T09:56:42Z</time>
      </trkpt>
      <trkpt lat="41.7016780" lon="1.9618880">
        <ele>408.0</ele>
        <time>2022-04-09T09:56:46Z</time>
      </trkpt>
      <trkpt lat="41.7017480" lon="1.9618030">
        <ele>406.8</ele>
        <time>2022-04-09T09:56:49Z</time>
      </trkpt>
      <trkpt lat="41.7018590" lon="1.9616720">
        <ele>406.8</ele>
        <time>2022-04-09T09:56:51Z</time>
      </trkpt>
      <trkpt lat="41.7019310" lon="1.9615920">
        <ele>406.8</ele>
        <time>2022-04-09T09:56:53Z</time>
      </trkpt>
      <trkpt lat="41.7020390" lon="1.9614620">
        <ele>407.0</ele>
        <time>2022-04-09T09:56:56Z</time>
      </trkpt>
      <trkpt lat="41.7020940" lon="1.9613590">
        <ele>407.4</ele>
        <time>2022-04-09T09:56:58Z</time>
      </trkpt>
      <trkpt lat="41.7021170" lon="1.9613020">
        <ele>407.6</ele>
        <time>2022-04-09T09:56:59Z</time>
      </trkpt>
      <trkpt lat="41.7021400" lon="1.9612450">
        <ele>407.8</ele>
        <time>2022-04-09T09:57:00Z</time>
      </trkpt>
      <trkpt lat="41.7023490" lon="1.9607660">
        <ele>409.0</ele>
        <time>2022-04-09T09:57:08Z</time>
      </trkpt>
      <trkpt lat="41.7023850" lon="1.9607090">
        <ele>409.0</ele>
        <time>2022-04-09T09:57:09Z</time>
      </trkpt>
      <trkpt lat="41.7025410" lon="1.9604640">
        <ele>408.6</ele>
        <time>2022-04-09T09:57:13Z</time>
      </trkpt>
      <trkpt lat="41.7025990" lon="1.9603150">
        <ele>408.4</ele>
        <time>2022-04-09T09:57:15Z</time>
      </trkpt>
      <trkpt lat="41.7026810" lon="1.9600800">
        <ele>408.0</ele>
        <time>2022-04-09T09:57:18Z</time>
      </trkpt>
      <trkpt lat="41.7027720" lon="1.9599300">
        <ele>407.6</ele>
        <time>2022-04-09T09:57:20Z</time>
      </trkpt>
      <trkpt lat="41.7029010" lon="1.9598160">
        <ele>407.4</ele>
        <time>2022-04-09T09:57:22Z</time>
      </trkpt>
      <trkpt lat="41.7029720" lon="1.9597710">
        <ele>406.6</ele>
        <time>2022-04-09T09:57:23Z</time>
      </trkpt>
      <trkpt lat="41.7030610" lon="1.9597270">
        <ele>406.4</ele>
        <time>2022-04-09T09:57:24Z</time>
      </trkpt>
      <trkpt lat="41.7032040" lon="1.9596880">
        <ele>405.4</ele>
        <time>2022-04-09T09:57:26Z</time>
      </trkpt>
      <trkpt lat="41.7032870" lon="1.9596770">
        <ele>405.2</ele>
        <time>2022-04-09T09:57:27Z</time>
      </trkpt>
      <trkpt lat="41.7035410" lon="1.9596490">
        <ele>404.0</ele>
        <time>2022-04-09T09:57:30Z</time>
      </trkpt>
      <trkpt lat="41.7038260" lon="1.9596080">
        <ele>403.2</ele>
        <time>2022-04-09T09:57:33Z</time>
      </trkpt>
      <trkpt lat="41.7039110" lon="1.9595720">
        <ele>403.0</ele>
        <time>2022-04-09T09:57:34Z</time>
      </trkpt>
      <trkpt lat="41.7039720" lon="1.9595280">
        <ele>402.6</ele>
        <time>2022-04-09T09:57:35Z</time>
      </trkpt>
      <trkpt lat="41.7040480" lon="1.9594510">
        <ele>402.6</ele>
        <time>2022-04-09T09:57:36Z</time>
      </trkpt>
      <trkpt lat="41.7041440" lon="1.9593260">
        <ele>402.4</ele>
        <time>2022-04-09T09:57:38Z</time>
      </trkpt>
      <trkpt lat="41.7042710" lon="1.9592130">
        <ele>402.0</ele>
        <time>2022-04-09T09:57:40Z</time>
      </trkpt>
      <trkpt lat="41.7043410" lon="1.9591620">
        <ele>401.8</ele>
        <time>2022-04-09T09:57:41Z</time>
      </trkpt>
      <trkpt lat="41.7044930" lon="1.9590710">
        <ele>401.6</ele>
        <time>2022-04-09T09:57:43Z</time>
      </trkpt>
      <trkpt lat="41.7046660" lon="1.9590010">
        <ele>401.2</ele>
        <time>2022-04-09T09:57:45Z</time>
      </trkpt>
      <trkpt lat="41.7047610" lon="1.9589750">
        <ele>400.6</ele>
        <time>2022-04-09T09:57:46Z</time>
      </trkpt>
      <trkpt lat="41.7050490" lon="1.9589350">
        <ele>399.4</ele>
        <time>2022-04-09T09:57:49Z</time>
      </trkpt>
      <trkpt lat="41.7051380" lon="1.9589280">
        <ele>399.4</ele>
        <time>2022-04-09T09:57:50Z</time>
      </trkpt>
      <trkpt lat="41.7053910" lon="1.9589210">
        <ele>397.6</ele>
        <time>2022-04-09T09:57:53Z</time>
      </trkpt>
      <trkpt lat="41.7056530" lon="1.9589390">
        <ele>396.4</ele>
        <time>2022-04-09T09:57:56Z</time>
      </trkpt>
      <trkpt lat="41.7058290" lon="1.9588940">
        <ele>395.8</ele>
        <time>2022-04-09T09:57:58Z</time>
      </trkpt>
      <trkpt lat="41.7059150" lon="1.9588420">
        <ele>395.6</ele>
        <time>2022-04-09T09:57:59Z</time>
      </trkpt>
      <trkpt lat="41.7059980" lon="1.9587770">
        <ele>395.2</ele>
        <time>2022-04-09T09:58:00Z</time>
      </trkpt>
      <trkpt lat="41.7063370" lon="1.9584990">
        <ele>394.0</ele>
        <time>2022-04-09T09:58:04Z</time>
      </trkpt>
      <trkpt lat="41.7064160" lon="1.9584220">
        <ele>393.4</ele>
        <time>2022-04-09T09:58:05Z</time>
      </trkpt>
      <trkpt lat="41.7064940" lon="1.9583510">
        <ele>393.2</ele>
        <time>2022-04-09T09:58:06Z</time>
      </trkpt>
      <trkpt lat="41.7065920" lon="1.9582740">
        <ele>393.0</ele>
        <time>2022-04-09T09:58:07Z</time>
      </trkpt>
      <trkpt lat="41.7067420" lon="1.9581410">
        <ele>392.6</ele>
        <time>2022-04-09T09:58:09Z</time>
      </trkpt>
      <trkpt lat="41.7070590" lon="1.9577650">
        <ele>392.2</ele>
        <time>2022-04-09T09:58:13Z</time>
      </trkpt>
      <trkpt lat="41.7072030" lon="1.9575490">
        <ele>391.4</ele>
        <time>2022-04-09T09:58:15Z</time>
      </trkpt>
      <trkpt lat="41.7073360" lon="1.9573310">
        <ele>390.0</ele>
        <time>2022-04-09T09:58:17Z</time>
      </trkpt>
      <trkpt lat="41.7074080" lon="1.9571990">
        <ele>389.6</ele>
        <time>2022-04-09T09:58:18Z</time>
      </trkpt>
      <trkpt lat="41.7074590" lon="1.9570790">
        <ele>388.8</ele>
        <time>2022-04-09T09:58:19Z</time>
      </trkpt>
      <trkpt lat="41.7075370" lon="1.9568600">
        <ele>387.0</ele>
        <time>2022-04-09T09:58:21Z</time>
      </trkpt>
      <trkpt lat="41.7076880" lon="1.9563590">
        <ele>385.8</ele>
        <time>2022-04-09T09:58:25Z</time>
      </trkpt>
      <trkpt lat="41.7078150" lon="1.9559510">
        <ele>384.8</ele>
        <time>2022-04-09T09:58:28Z</time>
      </trkpt>
      <trkpt lat="41.7079890" lon="1.9554460">
        <ele>383.6</ele>
        <time>2022-04-09T09:58:32Z</time>
      </trkpt>
      <trkpt lat="41.7081410" lon="1.9549400">
        <ele>382.6</ele>
        <time>2022-04-09T09:58:36Z</time>
      </trkpt>
      <trkpt lat="41.7081660" lon="1.9548240">
        <ele>382.4</ele>
        <time>2022-04-09T09:58:37Z</time>
      </trkpt>
      <trkpt lat="41.7081860" lon="1.9546220">
        <ele>382.0</ele>
        <time>2022-04-09T09:58:39Z</time>
      </trkpt>
      <trkpt lat="41.7081540" lon="1.9543900">
        <ele>381.8</ele>
        <time>2022-04-09T09:58:41Z</time>
      </trkpt>
      <trkpt lat="41.7080970" lon="1.9543020">
        <ele>381.6</ele>
        <time>2022-04-09T09:58:42Z</time>
      </trkpt>
      <trkpt lat="41.7080290" lon="1.9542370">
        <ele>381.4</ele>
        <time>2022-04-09T09:58:43Z</time>
      </trkpt>
      <trkpt lat="41.7079690" lon="1.9542000">
        <ele>381.2</ele>
        <time>2022-04-09T09:58:44Z</time>
      </trkpt>
      <trkpt lat="41.7078780" lon="1.9541590">
        <ele>381.2</ele>
        <time>2022-04-09T09:58:45Z</time>
      </trkpt>
      <trkpt lat="41.7077560" lon="1.9541140">
        <ele>381.4</ele>
        <time>2022-04-09T09:58:47Z</time>
      </trkpt>
      <trkpt lat="41.7076850" lon="1.9540940">
        <ele>381.4</ele>
        <time>2022-04-09T09:58:48Z</time>
      </trkpt>
      <trkpt lat="41.7074680" lon="1.9540400">
        <ele>382.4</ele>
        <time>2022-04-09T09:58:51Z</time>
      </trkpt>
      <trkpt lat="41.7074110" lon="1.9539850">
        <ele>382.8</ele>
        <time>2022-04-09T09:58:52Z</time>
      </trkpt>
      <trkpt lat="41.7073620" lon="1.9539150">
        <ele>382.6</ele>
        <time>2022-04-09T09:58:53Z</time>
      </trkpt>
      <trkpt lat="41.7073270" lon="1.9538330">
        <ele>382.6</ele>
        <time>2022-04-09T09:58:54Z</time>
      </trkpt>
      <trkpt lat="41.7073080" lon="1.9537390">
        <ele>382.8</ele>
        <time>2022-04-09T09:58:55Z</time>
      </trkpt>
      <trkpt lat="41.7073180" lon="1.9535360">
        <ele>383.0</ele>
        <time>2022-04-09T09:58:57Z</time>
      </trkpt>
      <trkpt lat="41.7073780" lon="1.9533510">
        <ele>383.0</ele>
        <time>2022-04-09T09:58:59Z</time>
      </trkpt>
      <trkpt lat="41.7074330" lon="1.9532780">
        <ele>382.8</ele>
        <time>2022-04-09T09:59:00Z</time>
      </trkpt>
      <trkpt lat="41.7074960" lon="1.9532090">
        <ele>382.8</ele>
        <time>2022-04-09T09:59:01Z</time>
      </trkpt>
      <trkpt lat="41.7076950" lon="1.9530080">
        <ele>382.8</ele>
        <time>2022-04-09T09:59:04Z</time>
      </trkpt>
      <trkpt lat="41.7078210" lon="1.9528520">
        <ele>382.6</ele>
        <time>2022-04-09T09:59:06Z</time>
      </trkpt>
      <trkpt lat="41.7079060" lon="1.9526600">
        <ele>382.4</ele>
        <time>2022-04-09T09:59:08Z</time>
      </trkpt>
      <trkpt lat="41.7082200" lon="1.9520540">
        <ele>381.6</ele>
        <time>2022-04-09T09:59:14Z</time>
      </trkpt>
      <trkpt lat="41.7082820" lon="1.9519520">
        <ele>381.2</ele>
        <time>2022-04-09T09:59:15Z</time>
      </trkpt>
      <trkpt lat="41.7086030" lon="1.9514410">
        <ele>380.0</ele>
        <time>2022-04-09T09:59:20Z</time>
      </trkpt>
      <trkpt lat="41.7087070" lon="1.9512770">
        <ele>379.6</ele>
        <time>2022-04-09T09:59:22Z</time>
      </trkpt>
      <trkpt lat="41.7090480" lon="1.9508340">
        <ele>379.0</ele>
        <time>2022-04-09T09:59:27Z</time>
      </trkpt>
      <trkpt lat="41.7091500" lon="1.9507410">
        <ele>378.6</ele>
        <time>2022-04-09T09:59:28Z</time>
      </trkpt>
      <trkpt lat="41.7092400" lon="1.9506710">
        <ele>377.8</ele>
        <time>2022-04-09T09:59:29Z</time>
      </trkpt>
      <trkpt lat="41.7094940" lon="1.9504960">
        <ele>377.4</ele>
        <time>2022-04-09T09:59:32Z</time>
      </trkpt>
      <trkpt lat="41.7095980" lon="1.9504150">
        <ele>376.6</ele>
        <time>2022-04-09T09:59:33Z</time>
      </trkpt>
      <trkpt lat="41.7097580" lon="1.9502720">
        <ele>375.8</ele>
        <time>2022-04-09T09:59:35Z</time>
      </trkpt>
      <trkpt lat="41.7098300" lon="1.9501850">
        <ele>375.6</ele>
        <time>2022-04-09T09:59:36Z</time>
      </trkpt>
      <trkpt lat="41.7098800" lon="1.9501100">
        <ele>375.4</ele>
        <time>2022-04-09T09:59:37Z</time>
      </trkpt>
      <trkpt lat="41.7101670" lon="1.9496270">
        <ele>374.6</ele>
        <time>2022-04-09T09:59:42Z</time>
      </trkpt>
      <trkpt lat="41.7102030" lon="1.9495530">
        <ele>374.4</ele>
        <time>2022-04-09T09:59:43Z</time>
      </trkpt>
      <trkpt lat="41.7103400" lon="1.9492800">
        <ele>374.2</ele>
        <time>2022-04-09T09:59:46Z</time>
      </trkpt>
      <trkpt lat="41.7103980" lon="1.9492110">
        <ele>374.2</ele>
        <time>2022-04-09T09:59:47Z</time>
      </trkpt>
      <trkpt lat="41.7104780" lon="1.9491490">
        <ele>374.4</ele>
        <time>2022-04-09T09:59:48Z</time>
      </trkpt>
      <trkpt lat="41.7105870" lon="1.9490400">
        <ele>374.4</ele>
        <time>2022-04-09T09:59:50Z</time>
      </trkpt>
      <trkpt lat="41.7106120" lon="1.9488360">
        <ele>374.0</ele>
        <time>2022-04-09T09:59:52Z</time>
      </trkpt>
      <trkpt lat="41.7105560" lon="1.9486520">
        <ele>373.8</ele>
        <time>2022-04-09T09:59:54Z</time>
      </trkpt>
      <trkpt lat="41.7105170" lon="1.9485890">
        <ele>373.6</ele>
        <time>2022-04-09T09:59:55Z</time>
      </trkpt>
      <trkpt lat="41.7104630" lon="1.9484810">
        <ele>373.6</ele>
        <time>2022-04-09T09:59:56Z</time>
      </trkpt>
      <trkpt lat="41.7103860" lon="1.9482650">
        <ele>373.4</ele>
        <time>2022-04-09T09:59:58Z</time>
      </trkpt>
      <trkpt lat="41.7103170" lon="1.9480500">
        <ele>373.2</ele>
        <time>2022-04-09T10:00:00Z</time>
      </trkpt>
      <trkpt lat="41.7102690" lon="1.9479000">
        <ele>372.0</ele>
        <time>2022-04-09T10:00:01Z</time>
      </trkpt>
      <trkpt lat="41.7102310" lon="1.9477720">
        <ele>370.8</ele>
        <time>2022-04-09T10:00:02Z</time>
      </trkpt>
      <trkpt lat="41.7101990" lon="1.9476480">
        <ele>370.4</ele>
        <time>2022-04-09T10:00:03Z</time>
      </trkpt>
      <trkpt lat="41.7101360" lon="1.9474180">
        <ele>369.2</ele>
        <time>2022-04-09T10:00:05Z</time>
      </trkpt>
      <trkpt lat="41.7100650" lon="1.9471220">
        <ele>368.2</ele>
        <time>2022-04-09T10:00:07Z</time>
      </trkpt>
      <trkpt lat="41.7100080" lon="1.9468600">
        <ele>367.4</ele>
        <time>2022-04-09T10:00:09Z</time>
      </trkpt>
      <trkpt lat="41.7099540" lon="1.9466240">
        <ele>366.8</ele>
        <time>2022-04-09T10:00:11Z</time>
      </trkpt>
      <trkpt lat="41.7098850" lon="1.9463030">
        <ele>366.4</ele>
        <time>2022-04-09T10:00:14Z</time>
      </trkpt>
      <trkpt lat="41.7098400" lon="1.9460310">
        <ele>365.6</ele>
        <time>2022-04-09T10:00:16Z</time>
      </trkpt>
      <trkpt lat="41.7098130" lon="1.9457480">
        <ele>365.4</ele>
        <time>2022-04-09T10:00:18Z</time>
      </trkpt>
      <trkpt lat="41.7098440" lon="1.9453040">
        <ele>365.2</ele>
        <time>2022-04-09T10:00:21Z</time>
      </trkpt>
      <trkpt lat="41.7098380" lon="1.9452070">
        <ele>364.2</ele>
        <time>2022-04-09T10:00:22Z</time>
      </trkpt>
      <trkpt lat="41.7098320" lon="1.9451110">
        <ele>363.6</ele>
        <time>2022-04-09T10:00:23Z</time>
      </trkpt>
      <trkpt lat="41.7098200" lon="1.9449170">
        <ele>363.2</ele>
        <time>2022-04-09T10:00:24Z</time>
      </trkpt>
      <trkpt lat="41.7097780" lon="1.9446310">
        <ele>362.2</ele>
        <time>2022-04-09T10:00:26Z</time>
      </trkpt>
      <trkpt lat="41.7097630" lon="1.9444980">
        <ele>361.0</ele>
        <time>2022-04-09T10:00:27Z</time>
      </trkpt>
      <trkpt lat="41.7097540" lon="1.9441330">
        <ele>359.8</ele>
        <time>2022-04-09T10:00:30Z</time>
      </trkpt>
      <trkpt lat="41.7097930" lon="1.9437440">
        <ele>359.4</ele>
        <time>2022-04-09T10:00:33Z</time>
      </trkpt>
      <trkpt lat="41.7098470" lon="1.9434960">
        <ele>359.2</ele>
        <time>2022-04-09T10:00:35Z</time>
      </trkpt>
      <trkpt lat="41.7099210" lon="1.9431280">
        <ele>359.0</ele>
        <time>2022-04-09T10:00:38Z</time>
      </trkpt>
      <trkpt lat="41.7099350" lon="1.9428820">
        <ele>358.6</ele>
        <time>2022-04-09T10:00:40Z</time>
      </trkpt>
      <trkpt lat="41.7099400" lon="1.9426350">
        <ele>358.4</ele>
        <time>2022-04-09T10:00:42Z</time>
      </trkpt>
      <trkpt lat="41.7099640" lon="1.9424480">
        <ele>358.4</ele>
        <time>2022-04-09T10:00:44Z</time>
      </trkpt>
      <trkpt lat="41.7099790" lon="1.9420180">
        <ele>358.2</ele>
        <time>2022-04-09T10:00:49Z</time>
      </trkpt>
      <trkpt lat="41.7099230" lon="1.9418840">
        <ele>358.4</ele>
        <time>2022-04-09T10:00:51Z</time>
      </trkpt>
      <trkpt lat="41.7098650" lon="1.9418040">
        <ele>358.6</ele>
        <time>2022-04-09T10:00:52Z</time>
      </trkpt>
      <trkpt lat="41.7096310" lon="1.9415850">
        <ele>358.4</ele>
        <time>2022-04-09T10:00:56Z</time>
      </trkpt>
      <trkpt lat="41.7092380" lon="1.9412950">
        <ele>358.0</ele>
        <time>2022-04-09T10:01:01Z</time>
      </trkpt>
      <trkpt lat="41.7091060" lon="1.9411560">
        <ele>357.8</ele>
        <time>2022-04-09T10:01:03Z</time>
      </trkpt>
      <trkpt lat="41.7090620" lon="1.9411020">
        <ele>357.4</ele>
        <time>2022-04-09T10:01:04Z</time>
      </trkpt>
      <trkpt lat="41.7090120" lon="1.9410250">
        <ele>357.2</ele>
        <time>2022-04-09T10:01:05Z</time>
      </trkpt>
      <trkpt lat="41.7089450" lon="1.9408450">
        <ele>356.6</ele>
        <time>2022-04-09T10:01:07Z</time>
      </trkpt>
      <trkpt lat="41.7089340" lon="1.9407370">
        <ele>356.4</ele>
        <time>2022-04-09T10:01:08Z</time>
      </trkpt>
      <trkpt lat="41.7089440" lon="1.9406280">
        <ele>355.8</ele>
        <time>2022-04-09T10:01:09Z</time>
      </trkpt>
      <trkpt lat="41.7089820" lon="1.9405200">
        <ele>355.6</ele>
        <time>2022-04-09T10:01:10Z</time>
      </trkpt>
      <trkpt lat="41.7090420" lon="1.9404210">
        <ele>354.8</ele>
        <time>2022-04-09T10:01:11Z</time>
      </trkpt>
      <trkpt lat="41.7091130" lon="1.9403320">
        <ele>354.8</ele>
        <time>2022-04-09T10:01:12Z</time>
      </trkpt>
      <trkpt lat="41.7091910" lon="1.9402540">
        <ele>354.4</ele>
        <time>2022-04-09T10:01:13Z</time>
      </trkpt>
      <trkpt lat="41.7093780" lon="1.9401520">
        <ele>353.8</ele>
        <time>2022-04-09T10:01:15Z</time>
      </trkpt>
      <trkpt lat="41.7094870" lon="1.9401360">
        <ele>353.2</ele>
        <time>2022-04-09T10:01:16Z</time>
      </trkpt>
      <trkpt lat="41.7097080" lon="1.9401460">
        <ele>351.6</ele>
        <time>2022-04-09T10:01:18Z</time>
      </trkpt>
      <trkpt lat="41.7099320" lon="1.9401780">
        <ele>349.4</ele>
        <time>2022-04-09T10:01:20Z</time>
      </trkpt>
      <trkpt lat="41.7100420" lon="1.9401970">
        <ele>347.6</ele>
        <time>2022-04-09T10:01:21Z</time>
      </trkpt>
      <trkpt lat="41.7102620" lon="1.9402310">
        <ele>346.4</ele>
        <time>2022-04-09T10:01:23Z</time>
      </trkpt>
      <trkpt lat="41.7104760" lon="1.9401830">
        <ele>345.4</ele>
        <time>2022-04-09T10:01:25Z</time>
      </trkpt>
      <trkpt lat="41.7106790" lon="1.9400150">
        <ele>345.0</ele>
        <time>2022-04-09T10:01:27Z</time>
      </trkpt>
      <trkpt lat="41.7107550" lon="1.9399370">
        <ele>344.6</ele>
        <time>2022-04-09T10:01:28Z</time>
      </trkpt>
      <trkpt lat="41.7109540" lon="1.9397080">
        <ele>344.2</ele>
        <time>2022-04-09T10:01:31Z</time>
      </trkpt>
      <trkpt lat="41.7110080" lon="1.9396310">
        <ele>344.2</ele>
        <time>2022-04-09T10:01:32Z</time>
      </trkpt>
      <trkpt lat="41.7112240" lon="1.9393100">
        <ele>345.6</ele>
        <time>2022-04-09T10:01:37Z</time>
      </trkpt>
      <trkpt lat="41.7112600" lon="1.9392490">
        <ele>345.8</ele>
        <time>2022-04-09T10:01:38Z</time>
      </trkpt>
      <trkpt lat="41.7112900" lon="1.9391920">
        <ele>346.2</ele>
        <time>2022-04-09T10:01:39Z</time>
      </trkpt>
      <trkpt lat="41.7113390" lon="1.9390840">
        <ele>346.8</ele>
        <time>2022-04-09T10:01:41Z</time>
      </trkpt>
      <trkpt lat="41.7113630" lon="1.9390330">
        <ele>347.2</ele>
        <time>2022-04-09T10:01:42Z</time>
      </trkpt>
      <trkpt lat="41.7114300" lon="1.9388840">
        <ele>348.2</ele>
        <time>2022-04-09T10:01:45Z</time>
      </trkpt>
      <trkpt lat="41.7114950" lon="1.9387320">
        <ele>349.4</ele>
        <time>2022-04-09T10:01:48Z</time>
      </trkpt>
      <trkpt lat="41.7115460" lon="1.9386440">
        <ele>350.0</ele>
        <time>2022-04-09T10:01:50Z</time>
      </trkpt>
      <trkpt lat="41.7115920" lon="1.9385600">
        <ele>350.2</ele>
        <time>2022-04-09T10:01:52Z</time>
      </trkpt>
      <trkpt lat="41.7116120" lon="1.9385200">
        <ele>350.6</ele>
        <time>2022-04-09T10:01:53Z</time>
      </trkpt>
      <trkpt lat="41.7117120" lon="1.9383310">
        <ele>351.8</ele>
        <time>2022-04-09T10:01:58Z</time>
      </trkpt>
      <trkpt lat="41.7117260" lon="1.9382840">
        <ele>352.0</ele>
        <time>2022-04-09T10:01:59Z</time>
      </trkpt>
      <trkpt lat="41.7117750" lon="1.9381420">
        <ele>353.0</ele>
        <time>2022-04-09T10:02:02Z</time>
      </trkpt>
      <trkpt lat="41.7118120" lon="1.9379810">
        <ele>354.0</ele>
        <time>2022-04-09T10:02:05Z</time>
      </trkpt>
      <trkpt lat="41.7118240" lon="1.9379360">
        <ele>354.2</ele>
        <time>2022-04-09T10:02:06Z</time>
      </trkpt>
      <trkpt lat="41.7118650" lon="1.9378020">
        <ele>355.4</ele>
        <time>2022-04-09T10:02:09Z</time>
      </trkpt>
      <trkpt lat="41.7118760" lon="1.9377570">
        <ele>355.6</ele>
        <time>2022-04-09T10:02:10Z</time>
      </trkpt>
      <trkpt lat="41.7119270" lon="1.9375760">
        <ele>356.6</ele>
        <time>2022-04-09T10:02:14Z</time>
      </trkpt>
      <trkpt lat="41.7119550" lon="1.9374820">
        <ele>357.2</ele>
        <time>2022-04-09T10:02:16Z</time>
      </trkpt>
      <trkpt lat="41.7119700" lon="1.9373890">
        <ele>357.6</ele>
        <time>2022-04-09T10:02:18Z</time>
      </trkpt>
      <trkpt lat="41.7119820" lon="1.9372610">
        <ele>358.4</ele>
        <time>2022-04-09T10:02:21Z</time>
      </trkpt>
      <trkpt lat="41.7119830" lon="1.9372070">
        <ele>358.6</ele>
        <time>2022-04-09T10:02:22Z</time>
      </trkpt>
      <trkpt lat="41.7119940" lon="1.9370560">
        <ele>359.8</ele>
        <time>2022-04-09T10:02:25Z</time>
      </trkpt>
      <trkpt lat="41.7120180" lon="1.9369640">
        <ele>360.4</ele>
        <time>2022-04-09T10:02:27Z</time>
      </trkpt>
      <trkpt lat="41.7120370" lon="1.9369170">
        <ele>360.6</ele>
        <time>2022-04-09T10:02:28Z</time>
      </trkpt>
      <trkpt lat="41.7120630" lon="1.9368860">
        <ele>360.8</ele>
        <time>2022-04-09T10:02:29Z</time>
      </trkpt>
      <trkpt lat="41.7121280" lon="1.9368450">
        <ele>361.6</ele>
        <time>2022-04-09T10:02:31Z</time>
      </trkpt>
      <trkpt lat="41.7121610" lon="1.9368310">
        <ele>361.8</ele>
        <time>2022-04-09T10:02:32Z</time>
      </trkpt>
      <trkpt lat="41.7122630" lon="1.9367460">
        <ele>363.0</ele>
        <time>2022-04-09T10:02:36Z</time>
      </trkpt>
      <trkpt lat="41.7122840" lon="1.9367190">
        <ele>363.0</ele>
        <time>2022-04-09T10:02:37Z</time>
      </trkpt>
      <trkpt lat="41.7123280" lon="1.9366230">
        <ele>364.2</ele>
        <time>2022-04-09T10:02:40Z</time>
      </trkpt>
      <trkpt lat="41.7123480" lon="1.9365280">
        <ele>364.8</ele>
        <time>2022-04-09T10:02:43Z</time>
      </trkpt>
      <trkpt lat="41.7123520" lon="1.9364940">
        <ele>365.0</ele>
        <time>2022-04-09T10:02:44Z</time>
      </trkpt>
      <trkpt lat="41.7123780" lon="1.9363120">
        <ele>366.2</ele>
        <time>2022-04-09T10:02:49Z</time>
      </trkpt>
      <trkpt lat="41.7124760" lon="1.9361460">
        <ele>366.8</ele>
        <time>2022-04-09T10:02:55Z</time>
      </trkpt>
      <trkpt lat="41.7124950" lon="1.9361370">
        <ele>367.4</ele>
        <time>2022-04-09T10:02:56Z</time>
      </trkpt>
      <trkpt lat="41.7125910" lon="1.9361540">
        <ele>368.6</ele>
        <time>2022-04-09T10:03:00Z</time>
      </trkpt>
      <trkpt lat="41.7126560" lon="1.9361610">
        <ele>369.2</ele>
        <time>2022-04-09T10:03:02Z</time>
      </trkpt>
      <trkpt lat="41.7126880" lon="1.9361500">
        <ele>369.6</ele>
        <time>2022-04-09T10:03:03Z</time>
      </trkpt>
      <trkpt lat="41.7127550" lon="1.9361180">
        <ele>370.2</ele>
        <time>2022-04-09T10:03:05Z</time>
      </trkpt>
      <trkpt lat="41.7127860" lon="1.9360910">
        <ele>370.8</ele>
        <time>2022-04-09T10:03:06Z</time>
      </trkpt>
      <trkpt lat="41.7128830" lon="1.9359600">
        <ele>371.8</ele>
        <time>2022-04-09T10:03:10Z</time>
      </trkpt>
      <trkpt lat="41.7129050" lon="1.9359190">
        <ele>372.0</ele>
        <time>2022-04-09T10:03:11Z</time>
      </trkpt>
      <trkpt lat="41.7129390" lon="1.9358180">
        <ele>372.8</ele>
        <time>2022-04-09T10:03:14Z</time>
      </trkpt>
      <trkpt lat="41.7129900" lon="1.9356440">
        <ele>374.0</ele>
        <time>2022-04-09T10:03:19Z</time>
      </trkpt>
      <trkpt lat="41.7130600" lon="1.9355140">
        <ele>375.0</ele>
        <time>2022-04-09T10:03:24Z</time>
      </trkpt>
      <trkpt lat="41.7130980" lon="1.9354610">
        <ele>375.6</ele>
        <time>2022-04-09T10:03:26Z</time>
      </trkpt>
      <trkpt lat="41.7131610" lon="1.9354250">
        <ele>376.2</ele>
        <time>2022-04-09T10:03:29Z</time>
      </trkpt>
      <trkpt lat="41.7132050" lon="1.9354140">
        <ele>376.4</ele>
        <time>2022-04-09T10:03:31Z</time>
      </trkpt>
      <trkpt lat="41.7132560" lon="1.9354210">
        <ele>377.0</ele>
        <time>2022-04-09T10:03:33Z</time>
      </trkpt>
      <trkpt lat="41.7132780" lon="1.9354300">
        <ele>377.2</ele>
        <time>2022-04-09T10:03:34Z</time>
      </trkpt>
      <trkpt lat="41.7133150" lon="1.9354450">
        <ele>378.4</ele>
        <time>2022-04-09T10:03:36Z</time>
      </trkpt>
      <trkpt lat="41.7133490" lon="1.9354630">
        <ele>378.8</ele>
        <time>2022-04-09T10:03:38Z</time>
      </trkpt>
      <trkpt lat="41.7134000" lon="1.9355070">
        <ele>379.4</ele>
        <time>2022-04-09T10:03:41Z</time>
      </trkpt>
      <trkpt lat="41.7134460" lon="1.9355760">
        <ele>380.2</ele>
        <time>2022-04-09T10:03:44Z</time>
      </trkpt>
      <trkpt lat="41.7134640" lon="1.9356010">
        <ele>380.6</ele>
        <time>2022-04-09T10:03:45Z</time>
      </trkpt>
      <trkpt lat="41.7135620" lon="1.9357410">
        <ele>381.6</ele>
        <time>2022-04-09T10:03:49Z</time>
      </trkpt>
      <trkpt lat="41.7135880" lon="1.9357750">
        <ele>381.8</ele>
        <time>2022-04-09T10:03:50Z</time>
      </trkpt>
      <trkpt lat="41.7137050" lon="1.9358680">
        <ele>382.2</ele>
        <time>2022-04-09T10:03:54Z</time>
      </trkpt>
      <trkpt lat="41.7139590" lon="1.9359940">
        <ele>382.4</ele>
        <time>2022-04-09T10:04:02Z</time>
      </trkpt>
      <trkpt lat="41.7141150" lon="1.9360950">
        <ele>382.2</ele>
        <time>2022-04-09T10:04:07Z</time>
      </trkpt>
      <trkpt lat="41.7142830" lon="1.9360640">
        <ele>382.6</ele>
        <time>2022-04-09T10:04:11Z</time>
      </trkpt>
      <trkpt lat="41.7143300" lon="1.9360460">
        <ele>382.6</ele>
        <time>2022-04-09T10:04:12Z</time>
      </trkpt>
      <trkpt lat="41.7145160" lon="1.9359990">
        <ele>383.8</ele>
        <time>2022-04-09T10:04:17Z</time>
      </trkpt>
      <trkpt lat="41.7145650" lon="1.9359970">
        <ele>384.0</ele>
        <time>2022-04-09T10:04:19Z</time>
      </trkpt>
      <trkpt lat="41.7146710" lon="1.9360350">
        <ele>384.8</ele>
        <time>2022-04-09T10:04:23Z</time>
      </trkpt>
      <trkpt lat="41.7146990" lon="1.9360590">
        <ele>385.2</ele>
        <time>2022-04-09T10:04:24Z</time>
      </trkpt>
      <trkpt lat="41.7147210" lon="1.9360710">
        <ele>385.6</ele>
        <time>2022-04-09T10:04:25Z</time>
      </trkpt>
      <trkpt lat="41.7147650" lon="1.9361030">
        <ele>386.0</ele>
        <time>2022-04-09T10:04:27Z</time>
      </trkpt>
      <trkpt lat="41.7148010" lon="1.9361050">
        <ele>386.4</ele>
        <time>2022-04-09T10:04:28Z</time>
      </trkpt>
      <trkpt lat="41.7148860" lon="1.9360610">
        <ele>387.4</ele>
        <time>2022-04-09T10:04:31Z</time>
      </trkpt>
      <trkpt lat="41.7149400" lon="1.9360010">
        <ele>388.0</ele>
        <time>2022-04-09T10:04:33Z</time>
      </trkpt>
      <trkpt lat="41.7149650" lon="1.9359690">
        <ele>388.2</ele>
        <time>2022-04-09T10:04:34Z</time>
      </trkpt>
      <trkpt lat="41.7149840" lon="1.9359320">
        <ele>388.4</ele>
        <time>2022-04-09T10:04:35Z</time>
      </trkpt>
      <trkpt lat="41.7150450" lon="1.9358240">
        <ele>389.4</ele>
        <time>2022-04-09T10:04:38Z</time>
      </trkpt>
      <trkpt lat="41.7150610" lon="1.9357990">
        <ele>389.8</ele>
        <time>2022-04-09T10:04:39Z</time>
      </trkpt>
      <trkpt lat="41.7151750" lon="1.9357140">
        <ele>390.6</ele>
        <time>2022-04-09T10:04:44Z</time>
      </trkpt>
      <trkpt lat="41.7152160" lon="1.9357160">
        <ele>390.8</ele>
        <time>2022-04-09T10:04:45Z</time>
      </trkpt>
      <trkpt lat="41.7153230" lon="1.9357310">
        <ele>392.0</ele>
        <time>2022-04-09T10:04:49Z</time>
      </trkpt>
      <trkpt lat="41.7153720" lon="1.9357890">
        <ele>392.0</ele>
        <time>2022-04-09T10:04:51Z</time>
      </trkpt>
      <trkpt lat="41.7154250" lon="1.9358480">
        <ele>392.4</ele>
        <time>2022-04-09T10:04:53Z</time>
      </trkpt>
      <trkpt lat="41.7155690" lon="1.9360450">
        <ele>392.8</ele>
        <time>2022-04-09T10:04:58Z</time>
      </trkpt>
      <trkpt lat="41.7156190" lon="1.9360990">
        <ele>393.2</ele>
        <time>2022-04-09T10:05:00Z</time>
      </trkpt>
      <trkpt lat="41.7157030" lon="1.9361390">
        <ele>393.6</ele>
        <time>2022-04-09T10:05:03Z</time>
      </trkpt>
      <trkpt lat="41.7157430" lon="1.9361530">
        <ele>393.8</ele>
        <time>2022-04-09T10:05:04Z</time>
      </trkpt>
      <trkpt lat="41.7159480" lon="1.9362180">
        <ele>394.8</ele>
        <time>2022-04-09T10:05:10Z</time>
      </trkpt>
      <trkpt lat="41.7159670" lon="1.9362490">
        <ele>394.8</ele>
        <time>2022-04-09T10:05:11Z</time>
      </trkpt>
      <trkpt lat="41.7159870" lon="1.9363120">
        <ele>395.0</ele>
        <time>2022-04-09T10:05:13Z</time>
      </trkpt>
      <trkpt lat="41.7159870" lon="1.9363510">
        <ele>395.2</ele>
        <time>2022-04-09T10:05:14Z</time>
      </trkpt>
      <trkpt lat="41.7159700" lon="1.9364660">
        <ele>396.2</ele>
        <time>2022-04-09T10:05:18Z</time>
      </trkpt>
      <trkpt lat="41.7159560" lon="1.9365260">
        <ele>397.0</ele>
        <time>2022-04-09T10:05:20Z</time>
      </trkpt>
      <trkpt lat="41.7159480" lon="1.9365600">
        <ele>397.4</ele>
        <time>2022-04-09T10:05:21Z</time>
      </trkpt>
      <trkpt lat="41.7159360" lon="1.9367000">
        <ele>398.6</ele>
        <time>2022-04-09T10:05:25Z</time>
      </trkpt>
      <trkpt lat="41.7159400" lon="1.9367370">
        <ele>399.2</ele>
        <time>2022-04-09T10:05:26Z</time>
      </trkpt>
      <trkpt lat="41.7159450" lon="1.9368090">
        <ele>400.0</ele>
        <time>2022-04-09T10:05:28Z</time>
      </trkpt>
      <trkpt lat="41.7159570" lon="1.9369370">
        <ele>400.6</ele>
        <time>2022-04-09T10:05:32Z</time>
      </trkpt>
      <trkpt lat="41.7159720" lon="1.9369590">
        <ele>401.2</ele>
        <time>2022-04-09T10:05:33Z</time>
      </trkpt>
      <trkpt lat="41.7160240" lon="1.9369940">
        <ele>402.4</ele>
        <time>2022-04-09T10:05:36Z</time>
      </trkpt>
      <trkpt lat="41.7160470" lon="1.9370020">
        <ele>402.6</ele>
        <time>2022-04-09T10:05:37Z</time>
      </trkpt>
      <trkpt lat="41.7160710" lon="1.9370000">
        <ele>402.8</ele>
        <time>2022-04-09T10:05:38Z</time>
      </trkpt>
      <trkpt lat="41.7161250" lon="1.9369800">
        <ele>403.4</ele>
        <time>2022-04-09T10:05:40Z</time>
      </trkpt>
      <trkpt lat="41.7161540" lon="1.9369590">
        <ele>403.4</ele>
        <time>2022-04-09T10:05:41Z</time>
      </trkpt>
      <trkpt lat="41.7163730" lon="1.9367160">
        <ele>404.4</ele>
        <time>2022-04-09T10:05:50Z</time>
      </trkpt>
      <trkpt lat="41.7163900" lon="1.9366910">
        <ele>404.6</ele>
        <time>2022-04-09T10:05:51Z</time>
      </trkpt>
      <trkpt lat="41.7165240" lon="1.9365770">
        <ele>405.6</ele>
        <time>2022-04-09T10:05:56Z</time>
      </trkpt>
      <trkpt lat="41.7165520" lon="1.9365620">
        <ele>405.6</ele>
        <time>2022-04-09T10:05:57Z</time>
      </trkpt>
      <trkpt lat="41.7166480" lon="1.9365340">
        <ele>406.6</ele>
        <time>2022-04-09T10:06:00Z</time>
      </trkpt>
      <trkpt lat="41.7167450" lon="1.9365310">
        <ele>407.8</ele>
        <time>2022-04-09T10:06:03Z</time>
      </trkpt>
      <trkpt lat="41.7168400" lon="1.9364760">
        <ele>408.6</ele>
        <time>2022-04-09T10:06:07Z</time>
      </trkpt>
      <trkpt lat="41.7168470" lon="1.9364370">
        <ele>409.0</ele>
        <time>2022-04-09T10:06:08Z</time>
      </trkpt>
      <trkpt lat="41.7168370" lon="1.9364060">
        <ele>409.2</ele>
        <time>2022-04-09T10:06:09Z</time>
      </trkpt>
      <trkpt lat="41.7168150" lon="1.9363900">
        <ele>409.4</ele>
        <time>2022-04-09T10:06:10Z</time>
      </trkpt>
      <trkpt lat="41.7166870" lon="1.9363830">
        <ele>410.2</ele>
        <time>2022-04-09T10:06:14Z</time>
      </trkpt>
      <trkpt lat="41.7166130" lon="1.9363810">
        <ele>410.6</ele>
        <time>2022-04-09T10:06:16Z</time>
      </trkpt>
      <trkpt lat="41.7164220" lon="1.9363480">
        <ele>411.4</ele>
        <time>2022-04-09T10:06:22Z</time>
      </trkpt>
      <trkpt lat="41.7163960" lon="1.9363250">
        <ele>411.6</ele>
        <time>2022-04-09T10:06:23Z</time>
      </trkpt>
      <trkpt lat="41.7163410" lon="1.9361370">
        <ele>412.2</ele>
        <time>2022-04-09T10:06:28Z</time>
      </trkpt>
      <trkpt lat="41.7163650" lon="1.9359840">
        <ele>412.6</ele>
        <time>2022-04-09T10:06:32Z</time>
      </trkpt>
      <trkpt lat="41.7163770" lon="1.9359050">
        <ele>413.0</ele>
        <time>2022-04-09T10:06:34Z</time>
      </trkpt>
      <trkpt lat="41.7163730" lon="1.9358130">
        <ele>413.6</ele>
        <time>2022-04-09T10:06:36Z</time>
      </trkpt>
      <trkpt lat="41.7163430" lon="1.9357530">
        <ele>414.0</ele>
        <time>2022-04-09T10:06:38Z</time>
      </trkpt>
      <trkpt lat="41.7162460" lon="1.9357070">
        <ele>414.6</ele>
        <time>2022-04-09T10:06:41Z</time>
      </trkpt>
      <trkpt lat="41.7161810" lon="1.9356700">
        <ele>416.0</ele>
        <time>2022-04-09T10:06:43Z</time>
      </trkpt>
      <trkpt lat="41.7161490" lon="1.9356410">
        <ele>416.4</ele>
        <time>2022-04-09T10:06:44Z</time>
      </trkpt>
      <trkpt lat="41.7160900" lon="1.9355740">
        <ele>417.2</ele>
        <time>2022-04-09T10:06:46Z</time>
      </trkpt>
      <trkpt lat="41.7159880" lon="1.9354630">
        <ele>418.0</ele>
        <time>2022-04-09T10:06:49Z</time>
      </trkpt>
      <trkpt lat="41.7159560" lon="1.9354210">
        <ele>418.4</ele>
        <time>2022-04-09T10:06:50Z</time>
      </trkpt>
      <trkpt lat="41.7159200" lon="1.9353770">
        <ele>418.6</ele>
        <time>2022-04-09T10:06:51Z</time>
      </trkpt>
      <trkpt lat="41.7158120" lon="1.9352520">
        <ele>419.0</ele>
        <time>2022-04-09T10:06:54Z</time>
      </trkpt>
      <trkpt lat="41.7157700" lon="1.9352220">
        <ele>419.2</ele>
        <time>2022-04-09T10:06:55Z</time>
      </trkpt>
      <trkpt lat="41.7157220" lon="1.9352020">
        <ele>419.4</ele>
        <time>2022-04-09T10:06:56Z</time>
      </trkpt>
      <trkpt lat="41.7156730" lon="1.9351840">
        <ele>419.4</ele>
        <time>2022-04-09T10:06:57Z</time>
      </trkpt>
      <trkpt lat="41.7155840" lon="1.9351510">
        <ele>419.4</ele>
        <time>2022-04-09T10:06:59Z</time>
      </trkpt>
      <trkpt lat="41.7154920" lon="1.9351230">
        <ele>419.4</ele>
        <time>2022-04-09T10:07:01Z</time>
      </trkpt>
      <trkpt lat="41.7151140" lon="1.9350030">
        <ele>419.6</ele>
        <time>2022-04-09T10:07:09Z</time>
      </trkpt>
      <trkpt lat="41.7149550" lon="1.9349680">
        <ele>420.6</ele>
        <time>2022-04-09T10:07:13Z</time>
      </trkpt>
      <trkpt lat="41.7149120" lon="1.9349660">
        <ele>420.8</ele>
        <time>2022-04-09T10:07:14Z</time>
      </trkpt>
      <trkpt lat="41.7148330" lon="1.9349560">
        <ele>421.4</ele>
        <time>2022-04-09T10:07:16Z</time>
      </trkpt>
      <trkpt lat="41.7147970" lon="1.9349420">
        <ele>422.2</ele>
        <time>2022-04-09T10:07:17Z</time>
      </trkpt>
      <trkpt lat="41.7147340" lon="1.9349010">
        <ele>422.6</ele>
        <time>2022-04-09T10:07:19Z</time>
      </trkpt>
      <trkpt lat="41.7146450" lon="1.9348170">
        <ele>423.2</ele>
        <time>2022-04-09T10:07:22Z</time>
      </trkpt>
      <trkpt lat="41.7146210" lon="1.9347770">
        <ele>423.2</ele>
        <time>2022-04-09T10:07:23Z</time>
      </trkpt>
      <trkpt lat="41.7144350" lon="1.9345620">
        <ele>423.4</ele>
        <time>2022-04-09T10:07:29Z</time>
      </trkpt>
      <trkpt lat="41.7143200" lon="1.9344980">
        <ele>424.4</ele>
        <time>2022-04-09T10:07:32Z</time>
      </trkpt>
      <trkpt lat="41.7142840" lon="1.9344740">
        <ele>424.4</ele>
        <time>2022-04-09T10:07:33Z</time>
      </trkpt>
      <trkpt lat="41.7142030" lon="1.9344230">
        <ele>424.4</ele>
        <time>2022-04-09T10:07:35Z</time>
      </trkpt>
      <trkpt lat="41.7141630" lon="1.9343880">
        <ele>424.4</ele>
        <time>2022-04-09T10:07:36Z</time>
      </trkpt>
      <trkpt lat="41.7140830" lon="1.9342610">
        <ele>424.6</ele>
        <time>2022-04-09T10:07:39Z</time>
      </trkpt>
      <trkpt lat="41.7139780" lon="1.9340550">
        <ele>424.6</ele>
        <time>2022-04-09T10:07:44Z</time>
      </trkpt>
      <trkpt lat="41.7139580" lon="1.9338400">
        <ele>424.4</ele>
        <time>2022-04-09T10:07:49Z</time>
      </trkpt>
      <trkpt lat="41.7139440" lon="1.9334960">
        <ele>424.0</ele>
        <time>2022-04-09T10:07:54Z</time>
      </trkpt>
      <trkpt lat="41.7139470" lon="1.9334400">
        <ele>423.6</ele>
        <time>2022-04-09T10:07:55Z</time>
      </trkpt>
      <trkpt lat="41.7139690" lon="1.9332250">
        <ele>423.4</ele>
        <time>2022-04-09T10:07:58Z</time>
      </trkpt>
      <trkpt lat="41.7139820" lon="1.9331700">
        <ele>423.2</ele>
        <time>2022-04-09T10:07:59Z</time>
      </trkpt>
      <trkpt lat="41.7139920" lon="1.9331270">
        <ele>423.2</ele>
        <time>2022-04-09T10:08:00Z</time>
      </trkpt>
      <trkpt lat="41.7140360" lon="1.9329590">
        <ele>423.0</ele>
        <time>2022-04-09T10:08:04Z</time>
      </trkpt>
      <trkpt lat="41.7140660" lon="1.9327970">
        <ele>423.2</ele>
        <time>2022-04-09T10:08:10Z</time>
      </trkpt>
      <trkpt lat="41.7140990" lon="1.9325920">
        <ele>423.4</ele>
        <time>2022-04-09T10:08:15Z</time>
      </trkpt>
      <trkpt lat="41.7140620" lon="1.9323760">
        <ele>423.6</ele>
        <time>2022-04-09T10:08:20Z</time>
      </trkpt>
      <trkpt lat="41.7139590" lon="1.9322440">
        <ele>423.6</ele>
        <time>2022-04-09T10:08:24Z</time>
      </trkpt>
      <trkpt lat="41.7137520" lon="1.9320300">
        <ele>423.6</ele>
        <time>2022-04-09T10:08:30Z</time>
      </trkpt>
      <trkpt lat="41.7136790" lon="1.9319140">
        <ele>423.8</ele>
        <time>2022-04-09T10:08:33Z</time>
      </trkpt>
      <trkpt lat="41.7136640" lon="1.9318420">
        <ele>423.8</ele>
        <time>2022-04-09T10:08:34Z</time>
      </trkpt>
      <trkpt lat="41.7136570" lon="1.9317630">
        <ele>423.8</ele>
        <time>2022-04-09T10:08:35Z</time>
      </trkpt>
      <trkpt lat="41.7136600" lon="1.9316850">
        <ele>423.8</ele>
        <time>2022-04-09T10:08:36Z</time>
      </trkpt>
      <trkpt lat="41.7136730" lon="1.9316010">
        <ele>423.8</ele>
        <time>2022-04-09T10:08:37Z</time>
      </trkpt>
      <trkpt lat="41.7136950" lon="1.9315180">
        <ele>424.0</ele>
        <time>2022-04-09T10:08:38Z</time>
      </trkpt>
      <trkpt lat="41.7139010" lon="1.9308810">
        <ele>423.8</ele>
        <time>2022-04-09T10:08:46Z</time>
      </trkpt>
      <trkpt lat="41.7139310" lon="1.9308020">
        <ele>424.0</ele>
        <time>2022-04-09T10:08:47Z</time>
      </trkpt>
      <trkpt lat="41.7140590" lon="1.9305940">
        <ele>424.0</ele>
        <time>2022-04-09T10:08:50Z</time>
      </trkpt>
      <trkpt lat="41.7140990" lon="1.9305210">
        <ele>424.2</ele>
        <time>2022-04-09T10:08:51Z</time>
      </trkpt>
      <trkpt lat="41.7141620" lon="1.9303540">
        <ele>424.4</ele>
        <time>2022-04-09T10:08:53Z</time>
      </trkpt>
      <trkpt lat="41.7141660" lon="1.9302530">
        <ele>424.4</ele>
        <time>2022-04-09T10:08:54Z</time>
      </trkpt>
      <trkpt lat="41.7141630" lon="1.9301880">
        <ele>424.4</ele>
        <time>2022-04-09T10:08:55Z</time>
      </trkpt>
      <trkpt lat="41.7141750" lon="1.9300430">
        <ele>424.4</ele>
        <time>2022-04-09T10:08:57Z</time>
      </trkpt>
      <trkpt lat="41.7141900" lon="1.9299830">
        <ele>424.4</ele>
        <time>2022-04-09T10:08:58Z</time>
      </trkpt>
      <trkpt lat="41.7142310" lon="1.9298800">
        <ele>424.6</ele>
        <time>2022-04-09T10:09:00Z</time>
      </trkpt>
      <trkpt lat="41.7143000" lon="1.9297960">
        <ele>424.8</ele>
        <time>2022-04-09T10:09:02Z</time>
      </trkpt>
      <trkpt lat="41.7144290" lon="1.9297060">
        <ele>425.0</ele>
        <time>2022-04-09T10:09:05Z</time>
      </trkpt>
      <trkpt lat="41.7145330" lon="1.9296610">
        <ele>425.0</ele>
        <time>2022-04-09T10:09:07Z</time>
      </trkpt>
      <trkpt lat="41.7146290" lon="1.9296260">
        <ele>425.0</ele>
        <time>2022-04-09T10:09:09Z</time>
      </trkpt>
      <trkpt lat="41.7148230" lon="1.9295590">
        <ele>425.0</ele>
        <time>2022-04-09T10:09:12Z</time>
      </trkpt>
      <trkpt lat="41.7149480" lon="1.9294880">
        <ele>425.0</ele>
        <time>2022-04-09T10:09:14Z</time>
      </trkpt>
      <trkpt lat="41.7150130" lon="1.9294160">
        <ele>425.2</ele>
        <time>2022-04-09T10:09:15Z</time>
      </trkpt>
      <trkpt lat="41.7150500" lon="1.9293420">
        <ele>425.2</ele>
        <time>2022-04-09T10:09:16Z</time>
      </trkpt>
      <trkpt lat="41.7150660" lon="1.9292600">
        <ele>425.0</ele>
        <time>2022-04-09T10:09:17Z</time>
      </trkpt>
      <trkpt lat="41.7150670" lon="1.9291900">
        <ele>425.0</ele>
        <time>2022-04-09T10:09:18Z</time>
      </trkpt>
      <trkpt lat="41.7150250" lon="1.9290060">
        <ele>425.0</ele>
        <time>2022-04-09T10:09:20Z</time>
      </trkpt>
      <trkpt lat="41.7150050" lon="1.9289160">
        <ele>425.0</ele>
        <time>2022-04-09T10:09:21Z</time>
      </trkpt>
      <trkpt lat="41.7150050" lon="1.9287470">
        <ele>425.0</ele>
        <time>2022-04-09T10:09:23Z</time>
      </trkpt>
      <trkpt lat="41.7150730" lon="1.9285800">
        <ele>425.2</ele>
        <time>2022-04-09T10:09:25Z</time>
      </trkpt>
      <trkpt lat="41.7151610" lon="1.9284810">
        <ele>425.8</ele>
        <time>2022-04-09T10:09:27Z</time>
      </trkpt>
      <trkpt lat="41.7152250" lon="1.9284200">
        <ele>426.2</ele>
        <time>2022-04-09T10:09:28Z</time>
      </trkpt>
      <trkpt lat="41.7153340" lon="1.9283190">
        <ele>426.6</ele>
        <time>2022-04-09T10:09:30Z</time>
      </trkpt>
      <trkpt lat="41.7154280" lon="1.9282230">
        <ele>427.0</ele>
        <time>2022-04-09T10:09:32Z</time>
      </trkpt>
      <trkpt lat="41.7155210" lon="1.9280770">
        <ele>427.2</ele>
        <time>2022-04-09T10:09:34Z</time>
      </trkpt>
      <trkpt lat="41.7155770" lon="1.9278490">
        <ele>427.6</ele>
        <time>2022-04-09T10:09:37Z</time>
      </trkpt>
      <trkpt lat="41.7155860" lon="1.9277460">
        <ele>427.6</ele>
        <time>2022-04-09T10:09:38Z</time>
      </trkpt>
      <trkpt lat="41.7155880" lon="1.9276590">
        <ele>427.8</ele>
        <time>2022-04-09T10:09:39Z</time>
      </trkpt>
      <trkpt lat="41.7155960" lon="1.9274070">
        <ele>428.0</ele>
        <time>2022-04-09T10:09:42Z</time>
      </trkpt>
      <trkpt lat="41.7157020" lon="1.9269180">
        <ele>428.2</ele>
        <time>2022-04-09T10:09:48Z</time>
      </trkpt>
      <trkpt lat="41.7157220" lon="1.9267590">
        <ele>428.4</ele>
        <time>2022-04-09T10:09:50Z</time>
      </trkpt>
      <trkpt lat="41.7157320" lon="1.9264440">
        <ele>428.2</ele>
        <time>2022-04-09T10:09:53Z</time>
      </trkpt>
      <trkpt lat="41.7156960" lon="1.9258550">
        <ele>427.2</ele>
        <time>2022-04-09T10:09:58Z</time>
      </trkpt>
      <trkpt lat="41.7156880" lon="1.9256170">
        <ele>425.6</ele>
        <time>2022-04-09T10:10:00Z</time>
      </trkpt>
      <trkpt lat="41.7156850" lon="1.9254530">
        <ele>425.2</ele>
        <time>2022-04-09T10:10:01Z</time>
      </trkpt>
      <trkpt lat="41.7156920" lon="1.9253130">
        <ele>424.2</ele>
        <time>2022-04-09T10:10:02Z</time>
      </trkpt>
      <trkpt lat="41.7157060" lon="1.9251990">
        <ele>423.2</ele>
        <time>2022-04-09T10:10:03Z</time>
      </trkpt>
      <trkpt lat="41.7157310" lon="1.9250640">
        <ele>422.8</ele>
        <time>2022-04-09T10:10:04Z</time>
      </trkpt>
      <trkpt lat="41.7157890" lon="1.9247800">
        <ele>422.0</ele>
        <time>2022-04-09T10:10:06Z</time>
      </trkpt>
      <trkpt lat="41.7158150" lon="1.9246350">
        <ele>420.6</ele>
        <time>2022-04-09T10:10:07Z</time>
      </trkpt>
      <trkpt lat="41.7158120" lon="1.9243320">
        <ele>419.2</ele>
        <time>2022-04-09T10:10:09Z</time>
      </trkpt>
      <trkpt lat="41.7157870" lon="1.9241840">
        <ele>417.6</ele>
        <time>2022-04-09T10:10:10Z</time>
      </trkpt>
      <trkpt lat="41.7156720" lon="1.9239120">
        <ele>415.6</ele>
        <time>2022-04-09T10:10:12Z</time>
      </trkpt>
      <trkpt lat="41.7156170" lon="1.9236070">
        <ele>414.2</ele>
        <time>2022-04-09T10:10:14Z</time>
      </trkpt>
      <trkpt lat="41.7156060" lon="1.9234110">
        <ele>413.2</ele>
        <time>2022-04-09T10:10:15Z</time>
      </trkpt>
      <trkpt lat="41.7156040" lon="1.9229120">
        <ele>411.6</ele>
        <time>2022-04-09T10:10:18Z</time>
      </trkpt>
      <trkpt lat="41.7156020" lon="1.9227800">
        <ele>410.2</ele>
        <time>2022-04-09T10:10:19Z</time>
      </trkpt>
      <trkpt lat="41.7155970" lon="1.9225820">
        <ele>409.4</ele>
        <time>2022-04-09T10:10:20Z</time>
      </trkpt>
      <trkpt lat="41.7155940" lon="1.9224180">
        <ele>408.0</ele>
        <time>2022-04-09T10:10:21Z</time>
      </trkpt>
      <trkpt lat="41.7155990" lon="1.9222650">
        <ele>406.6</ele>
        <time>2022-04-09T10:10:22Z</time>
      </trkpt>
      <trkpt lat="41.7156540" lon="1.9220190">
        <ele>405.2</ele>
        <time>2022-04-09T10:10:24Z</time>
      </trkpt>
      <trkpt lat="41.7157770" lon="1.9217880">
        <ele>403.8</ele>
        <time>2022-04-09T10:10:26Z</time>
      </trkpt>
      <trkpt lat="41.7158710" lon="1.9216720">
        <ele>403.0</ele>
        <time>2022-04-09T10:10:27Z</time>
      </trkpt>
      <trkpt lat="41.7159230" lon="1.9215940">
        <ele>401.8</ele>
        <time>2022-04-09T10:10:28Z</time>
      </trkpt>
      <trkpt lat="41.7159750" lon="1.9214680">
        <ele>401.2</ele>
        <time>2022-04-09T10:10:29Z</time>
      </trkpt>
      <trkpt lat="41.7159820" lon="1.9213460">
        <ele>400.8</ele>
        <time>2022-04-09T10:10:30Z</time>
      </trkpt>
      <trkpt lat="41.7159500" lon="1.9212520">
        <ele>400.0</ele>
        <time>2022-04-09T10:10:31Z</time>
      </trkpt>
      <trkpt lat="41.7158670" lon="1.9211470">
        <ele>399.8</ele>
        <time>2022-04-09T10:10:32Z</time>
      </trkpt>
      <trkpt lat="41.7157900" lon="1.9211210">
        <ele>398.8</ele>
        <time>2022-04-09T10:10:33Z</time>
      </trkpt>
      <trkpt lat="41.7156630" lon="1.9211110">
        <ele>398.4</ele>
        <time>2022-04-09T10:10:34Z</time>
      </trkpt>
      <trkpt lat="41.7155740" lon="1.9211010">
        <ele>397.6</ele>
        <time>2022-04-09T10:10:35Z</time>
      </trkpt>
      <trkpt lat="41.7154680" lon="1.9210740">
        <ele>396.8</ele>
        <time>2022-04-09T10:10:36Z</time>
      </trkpt>
      <trkpt lat="41.7153720" lon="1.9210230">
        <ele>396.6</ele>
        <time>2022-04-09T10:10:37Z</time>
      </trkpt>
      <trkpt lat="41.7152960" lon="1.9209330">
        <ele>396.0</ele>
        <time>2022-04-09T10:10:38Z</time>
      </trkpt>
      <trkpt lat="41.7152150" lon="1.9206760">
        <ele>394.4</ele>
        <time>2022-04-09T10:10:40Z</time>
      </trkpt>
      <trkpt lat="41.7151860" lon="1.9203830">
        <ele>393.6</ele>
        <time>2022-04-09T10:10:42Z</time>
      </trkpt>
      <trkpt lat="41.7151850" lon="1.9202340">
        <ele>392.4</ele>
        <time>2022-04-09T10:10:43Z</time>
      </trkpt>
      <trkpt lat="41.7152160" lon="1.9199310">
        <ele>391.2</ele>
        <time>2022-04-09T10:10:45Z</time>
      </trkpt>
      <trkpt lat="41.7152490" lon="1.9197870">
        <ele>391.0</ele>
        <time>2022-04-09T10:10:46Z</time>
      </trkpt>
      <trkpt lat="41.7153050" lon="1.9194890">
        <ele>390.2</ele>
        <time>2022-04-09T10:10:48Z</time>
      </trkpt>
      <trkpt lat="41.7153110" lon="1.9193420">
        <ele>389.2</ele>
        <time>2022-04-09T10:10:49Z</time>
      </trkpt>
      <trkpt lat="41.7152950" lon="1.9191950">
        <ele>388.0</ele>
        <time>2022-04-09T10:10:50Z</time>
      </trkpt>
      <trkpt lat="41.7152270" lon="1.9188940">
        <ele>387.2</ele>
        <time>2022-04-09T10:10:52Z</time>
      </trkpt>
      <trkpt lat="41.7152070" lon="1.9187330">
        <ele>386.8</ele>
        <time>2022-04-09T10:10:53Z</time>
      </trkpt>
      <trkpt lat="41.7151720" lon="1.9183700">
        <ele>386.0</ele>
        <time>2022-04-09T10:10:55Z</time>
      </trkpt>
      <trkpt lat="41.7151740" lon="1.9182360">
        <ele>385.0</ele>
        <time>2022-04-09T10:10:56Z</time>
      </trkpt>
      <trkpt lat="41.7152220" lon="1.9178850">
        <ele>383.8</ele>
        <time>2022-04-09T10:10:58Z</time>
      </trkpt>
      <trkpt lat="41.7152640" lon="1.9177520">
        <ele>382.8</ele>
        <time>2022-04-09T10:10:59Z</time>
      </trkpt>
      <trkpt lat="41.7153120" lon="1.9176620">
        <ele>382.4</ele>
        <time>2022-04-09T10:11:00Z</time>
      </trkpt>
      <trkpt lat="41.7153820" lon="1.9175830">
        <ele>381.2</ele>
        <time>2022-04-09T10:11:01Z</time>
      </trkpt>
      <trkpt lat="41.7155400" lon="1.9174460">
        <ele>379.4</ele>
        <time>2022-04-09T10:11:03Z</time>
      </trkpt>
      <trkpt lat="41.7155900" lon="1.9173580">
        <ele>378.0</ele>
        <time>2022-04-09T10:11:04Z</time>
      </trkpt>
      <trkpt lat="41.7155880" lon="1.9172570">
        <ele>377.4</ele>
        <time>2022-04-09T10:11:05Z</time>
      </trkpt>
      <trkpt lat="41.7155580" lon="1.9171790">
        <ele>376.8</ele>
        <time>2022-04-09T10:11:06Z</time>
      </trkpt>
      <trkpt lat="41.7154900" lon="1.9170730">
        <ele>376.6</ele>
        <time>2022-04-09T10:11:07Z</time>
      </trkpt>
      <trkpt lat="41.7154190" lon="1.9169890">
        <ele>375.4</ele>
        <time>2022-04-09T10:11:08Z</time>
      </trkpt>
      <trkpt lat="41.7153490" lon="1.9169000">
        <ele>375.0</ele>
        <time>2022-04-09T10:11:09Z</time>
      </trkpt>
      <trkpt lat="41.7152930" lon="1.9168160">
        <ele>374.4</ele>
        <time>2022-04-09T10:11:10Z</time>
      </trkpt>
      <trkpt lat="41.7152290" lon="1.9166760">
        <ele>373.6</ele>
        <time>2022-04-09T10:11:11Z</time>
      </trkpt>
      <trkpt lat="41.7151920" lon="1.9165420">
        <ele>373.0</ele>
        <time>2022-04-09T10:11:12Z</time>
      </trkpt>
      <trkpt lat="41.7151640" lon="1.9164000">
        <ele>372.2</ele>
        <time>2022-04-09T10:11:13Z</time>
      </trkpt>
      <trkpt lat="41.7151110" lon="1.9161370">
        <ele>370.8</ele>
        <time>2022-04-09T10:11:15Z</time>
      </trkpt>
      <trkpt lat="41.7150500" lon="1.9158170">
        <ele>369.6</ele>
        <time>2022-04-09T10:11:17Z</time>
      </trkpt>
      <trkpt lat="41.7150220" lon="1.9156760">
        <ele>369.2</ele>
        <time>2022-04-09T10:11:18Z</time>
      </trkpt>
      <trkpt lat="41.7149890" lon="1.9155380">
        <ele>369.2</ele>
        <time>2022-04-09T10:11:19Z</time>
      </trkpt>
      <trkpt lat="41.7149490" lon="1.9154330">
        <ele>368.2</ele>
        <time>2022-04-09T10:11:20Z</time>
      </trkpt>
      <trkpt lat="41.7148880" lon="1.9153000">
        <ele>368.0</ele>
        <time>2022-04-09T10:11:21Z</time>
      </trkpt>
      <trkpt lat="41.7148090" lon="1.9151450">
        <ele>366.6</ele>
        <time>2022-04-09T10:11:22Z</time>
      </trkpt>
      <trkpt lat="41.7146700" lon="1.9148970">
        <ele>365.4</ele>
        <time>2022-04-09T10:11:24Z</time>
      </trkpt>
      <trkpt lat="41.7145180" lon="1.9146500">
        <ele>364.2</ele>
        <time>2022-04-09T10:11:26Z</time>
      </trkpt>
      <trkpt lat="41.7143690" lon="1.9144060">
        <ele>363.0</ele>
        <time>2022-04-09T10:11:28Z</time>
      </trkpt>
      <trkpt lat="41.7141890" lon="1.9141760">
        <ele>362.0</ele>
        <time>2022-04-09T10:11:30Z</time>
      </trkpt>
      <trkpt lat="41.7140880" lon="1.9140820">
        <ele>361.2</ele>
        <time>2022-04-09T10:11:31Z</time>
      </trkpt>
      <trkpt lat="41.7138810" lon="1.9139140">
        <ele>359.8</ele>
        <time>2022-04-09T10:11:33Z</time>
      </trkpt>
      <trkpt lat="41.7138100" lon="1.9138380">
        <ele>359.2</ele>
        <time>2022-04-09T10:11:34Z</time>
      </trkpt>
      <trkpt lat="41.7137230" lon="1.9137010">
        <ele>359.0</ele>
        <time>2022-04-09T10:11:35Z</time>
      </trkpt>
      <trkpt lat="41.7136590" lon="1.9135620">
        <ele>358.8</ele>
        <time>2022-04-09T10:11:36Z</time>
      </trkpt>
      <trkpt lat="41.7135470" lon="1.9133000">
        <ele>357.2</ele>
        <time>2022-04-09T10:11:38Z</time>
      </trkpt>
      <trkpt lat="41.7134810" lon="1.9131500">
        <ele>355.8</ele>
        <time>2022-04-09T10:11:39Z</time>
      </trkpt>
      <trkpt lat="41.7134210" lon="1.9130070">
        <ele>355.4</ele>
        <time>2022-04-09T10:11:40Z</time>
      </trkpt>
      <trkpt lat="41.7133600" lon="1.9128630">
        <ele>354.8</ele>
        <time>2022-04-09T10:11:41Z</time>
      </trkpt>
      <trkpt lat="41.7133080" lon="1.9127230">
        <ele>354.2</ele>
        <time>2022-04-09T10:11:42Z</time>
      </trkpt>
      <trkpt lat="41.7132700" lon="1.9125710">
        <ele>353.2</ele>
        <time>2022-04-09T10:11:43Z</time>
      </trkpt>
      <trkpt lat="41.7132610" lon="1.9123800">
        <ele>352.6</ele>
        <time>2022-04-09T10:11:44Z</time>
      </trkpt>
      <trkpt lat="41.7132930" lon="1.9122090">
        <ele>351.8</ele>
        <time>2022-04-09T10:11:45Z</time>
      </trkpt>
      <trkpt lat="41.7133690" lon="1.9117410">
        <ele>350.0</ele>
        <time>2022-04-09T10:11:48Z</time>
      </trkpt>
      <trkpt lat="41.7134160" lon="1.9113610">
        <ele>348.8</ele>
        <time>2022-04-09T10:11:50Z</time>
      </trkpt>
      <trkpt lat="41.7134790" lon="1.9108900">
        <ele>347.6</ele>
        <time>2022-04-09T10:11:53Z</time>
      </trkpt>
      <trkpt lat="41.7135180" lon="1.9106930">
        <ele>346.6</ele>
        <time>2022-04-09T10:11:54Z</time>
      </trkpt>
      <trkpt lat="41.7135670" lon="1.9105360">
        <ele>345.6</ele>
        <time>2022-04-09T10:11:55Z</time>
      </trkpt>
      <trkpt lat="41.7136160" lon="1.9104200">
        <ele>345.0</ele>
        <time>2022-04-09T10:11:56Z</time>
      </trkpt>
      <trkpt lat="41.7136820" lon="1.9102850">
        <ele>343.2</ele>
        <time>2022-04-09T10:11:57Z</time>
      </trkpt>
      <trkpt lat="41.7137630" lon="1.9101400">
        <ele>342.4</ele>
        <time>2022-04-09T10:11:58Z</time>
      </trkpt>
      <trkpt lat="41.7138210" lon="1.9100590">
        <ele>341.0</ele>
        <time>2022-04-09T10:11:59Z</time>
      </trkpt>
      <trkpt lat="41.7139160" lon="1.9099600">
        <ele>339.8</ele>
        <time>2022-04-09T10:12:00Z</time>
      </trkpt>
      <trkpt lat="41.7140120" lon="1.9099180">
        <ele>339.0</ele>
        <time>2022-04-09T10:12:01Z</time>
      </trkpt>
      <trkpt lat="41.7140970" lon="1.9099210">
        <ele>337.6</ele>
        <time>2022-04-09T10:12:02Z</time>
      </trkpt>
      <trkpt lat="41.7141990" lon="1.9099440">
        <ele>337.2</ele>
        <time>2022-04-09T10:12:03Z</time>
      </trkpt>
      <trkpt lat="41.7143140" lon="1.9099690">
        <ele>336.4</ele>
        <time>2022-04-09T10:12:04Z</time>
      </trkpt>
      <trkpt lat="41.7143990" lon="1.9099640">
        <ele>336.0</ele>
        <time>2022-04-09T10:12:05Z</time>
      </trkpt>
      <trkpt lat="41.7144540" lon="1.9099030">
        <ele>335.6</ele>
        <time>2022-04-09T10:12:06Z</time>
      </trkpt>
      <trkpt lat="41.7144690" lon="1.9098170">
        <ele>334.8</ele>
        <time>2022-04-09T10:12:07Z</time>
      </trkpt>
      <trkpt lat="41.7144670" lon="1.9096770">
        <ele>334.4</ele>
        <time>2022-04-09T10:12:08Z</time>
      </trkpt>
      <trkpt lat="41.7143810" lon="1.9094770">
        <ele>333.8</ele>
        <time>2022-04-09T10:12:10Z</time>
      </trkpt>
      <trkpt lat="41.7143240" lon="1.9094090">
        <ele>333.4</ele>
        <time>2022-04-09T10:12:11Z</time>
      </trkpt>
      <trkpt lat="41.7141950" lon="1.9091940">
        <ele>332.6</ele>
        <time>2022-04-09T10:12:13Z</time>
      </trkpt>
      <trkpt lat="41.7141730" lon="1.9090830">
        <ele>332.0</ele>
        <time>2022-04-09T10:12:14Z</time>
      </trkpt>
      <trkpt lat="41.7141900" lon="1.9089740">
        <ele>331.6</ele>
        <time>2022-04-09T10:12:15Z</time>
      </trkpt>
      <trkpt lat="41.7142820" lon="1.9087690">
        <ele>330.8</ele>
        <time>2022-04-09T10:12:17Z</time>
      </trkpt>
      <trkpt lat="41.7143210" lon="1.9086580">
        <ele>330.2</ele>
        <time>2022-04-09T10:12:18Z</time>
      </trkpt>
      <trkpt lat="41.7143370" lon="1.9085370">
        <ele>330.0</ele>
        <time>2022-04-09T10:12:19Z</time>
      </trkpt>
      <trkpt lat="41.7143220" lon="1.9084110">
        <ele>329.6</ele>
        <time>2022-04-09T10:12:20Z</time>
      </trkpt>
      <trkpt lat="41.7142530" lon="1.9083310">
        <ele>329.2</ele>
        <time>2022-04-09T10:12:21Z</time>
      </trkpt>
      <trkpt lat="41.7141600" lon="1.9082270">
        <ele>329.0</ele>
        <time>2022-04-09T10:12:22Z</time>
      </trkpt>
      <trkpt lat="41.7140750" lon="1.9081600">
        <ele>328.2</ele>
        <time>2022-04-09T10:12:23Z</time>
      </trkpt>
      <trkpt lat="41.7139130" lon="1.9080190">
        <ele>327.4</ele>
        <time>2022-04-09T10:12:25Z</time>
      </trkpt>
      <trkpt lat="41.7138680" lon="1.9079400">
        <ele>327.4</ele>
        <time>2022-04-09T10:12:26Z</time>
      </trkpt>
      <trkpt lat="41.7138190" lon="1.9077970">
        <ele>327.0</ele>
        <time>2022-04-09T10:12:27Z</time>
      </trkpt>
      <trkpt lat="41.7137730" lon="1.9075350">
        <ele>326.4</ele>
        <time>2022-04-09T10:12:29Z</time>
      </trkpt>
      <trkpt lat="41.7137220" lon="1.9072910">
        <ele>326.0</ele>
        <time>2022-04-09T10:12:31Z</time>
      </trkpt>
      <trkpt lat="41.7136650" lon="1.9071340">
        <ele>325.6</ele>
        <time>2022-04-09T10:12:32Z</time>
      </trkpt>
      <trkpt lat="41.7135510" lon="1.9068870">
        <ele>324.2</ele>
        <time>2022-04-09T10:12:34Z</time>
      </trkpt>
      <trkpt lat="41.7134470" lon="1.9066320">
        <ele>323.2</ele>
        <time>2022-04-09T10:12:36Z</time>
      </trkpt>
      <trkpt lat="41.7133430" lon="1.9063740">
        <ele>321.8</ele>
        <time>2022-04-09T10:12:38Z</time>
      </trkpt>
      <trkpt lat="41.7133040" lon="1.9061240">
        <ele>320.4</ele>
        <time>2022-04-09T10:12:40Z</time>
      </trkpt>
      <trkpt lat="41.7133100" lon="1.9059540">
        <ele>320.0</ele>
        <time>2022-04-09T10:12:41Z</time>
      </trkpt>
      <trkpt lat="41.7133220" lon="1.9058050">
        <ele>319.4</ele>
        <time>2022-04-09T10:12:42Z</time>
      </trkpt>
      <trkpt lat="41.7133230" lon="1.9056540">
        <ele>319.0</ele>
        <time>2022-04-09T10:12:43Z</time>
      </trkpt>
      <trkpt lat="41.7133080" lon="1.9055020">
        <ele>318.2</ele>
        <time>2022-04-09T10:12:44Z</time>
      </trkpt>
      <trkpt lat="41.7132210" lon="1.9048790">
        <ele>317.2</ele>
        <time>2022-04-09T10:12:48Z</time>
      </trkpt>
      <trkpt lat="41.7132160" lon="1.9047240">
        <ele>316.6</ele>
        <time>2022-04-09T10:12:49Z</time>
      </trkpt>
      <trkpt lat="41.7132250" lon="1.9045980">
        <ele>316.4</ele>
        <time>2022-04-09T10:12:50Z</time>
      </trkpt>
      <trkpt lat="41.7132500" lon="1.9044140">
        <ele>315.4</ele>
        <time>2022-04-09T10:12:51Z</time>
      </trkpt>
      <trkpt lat="41.7132740" lon="1.9041110">
        <ele>313.8</ele>
        <time>2022-04-09T10:12:53Z</time>
      </trkpt>
      <trkpt lat="41.7132120" lon="1.9038330">
        <ele>312.4</ele>
        <time>2022-04-09T10:12:55Z</time>
      </trkpt>
      <trkpt lat="41.7131410" lon="1.9037170">
        <ele>311.6</ele>
        <time>2022-04-09T10:12:56Z</time>
      </trkpt>
      <trkpt lat="41.7130700" lon="1.9036040">
        <ele>311.2</ele>
        <time>2022-04-09T10:12:57Z</time>
      </trkpt>
      <trkpt lat="41.7130100" lon="1.9034860">
        <ele>310.2</ele>
        <time>2022-04-09T10:12:58Z</time>
      </trkpt>
      <trkpt lat="41.7129750" lon="1.9033830">
        <ele>310.2</ele>
        <time>2022-04-09T10:12:59Z</time>
      </trkpt>
      <trkpt lat="41.7129490" lon="1.9032200">
        <ele>309.8</ele>
        <time>2022-04-09T10:13:00Z</time>
      </trkpt>
      <trkpt lat="41.7129480" lon="1.9030810">
        <ele>309.6</ele>
        <time>2022-04-09T10:13:01Z</time>
      </trkpt>
      <trkpt lat="41.7129510" lon="1.9025190">
        <ele>308.8</ele>
        <time>2022-04-09T10:13:05Z</time>
      </trkpt>
      <trkpt lat="41.7129270" lon="1.9023750">
        <ele>308.6</ele>
        <time>2022-04-09T10:13:06Z</time>
      </trkpt>
      <trkpt lat="41.7128990" lon="1.9021060">
        <ele>308.0</ele>
        <time>2022-04-09T10:13:08Z</time>
      </trkpt>
      <trkpt lat="41.7129080" lon="1.9019250">
        <ele>307.4</ele>
        <time>2022-04-09T10:13:09Z</time>
      </trkpt>
      <trkpt lat="41.7129640" lon="1.9016520">
        <ele>306.4</ele>
        <time>2022-04-09T10:13:11Z</time>
      </trkpt>
      <trkpt lat="41.7129980" lon="1.9014670">
        <ele>304.6</ele>
        <time>2022-04-09T10:13:12Z</time>
      </trkpt>
      <trkpt lat="41.7130140" lon="1.9013380">
        <ele>304.2</ele>
        <time>2022-04-09T10:13:13Z</time>
      </trkpt>
      <trkpt lat="41.7130250" lon="1.9011490">
        <ele>302.8</ele>
        <time>2022-04-09T10:13:14Z</time>
      </trkpt>
      <trkpt lat="41.7130260" lon="1.9008390">
        <ele>301.6</ele>
        <time>2022-04-09T10:13:16Z</time>
      </trkpt>
      <trkpt lat="41.7130280" lon="1.9006860">
        <ele>301.2</ele>
        <time>2022-04-09T10:13:17Z</time>
      </trkpt>
      <trkpt lat="41.7130320" lon="1.9005690">
        <ele>300.2</ele>
        <time>2022-04-09T10:13:18Z</time>
      </trkpt>
      <trkpt lat="41.7130460" lon="1.9004010">
        <ele>298.8</ele>
        <time>2022-04-09T10:13:19Z</time>
      </trkpt>
      <trkpt lat="41.7130790" lon="1.9002840">
        <ele>298.2</ele>
        <time>2022-04-09T10:13:20Z</time>
      </trkpt>
      <trkpt lat="41.7131280" lon="1.9001840">
        <ele>297.6</ele>
        <time>2022-04-09T10:13:21Z</time>
      </trkpt>
      <trkpt lat="41.7131830" lon="1.8999610">
        <ele>296.6</ele>
        <time>2022-04-09T10:13:23Z</time>
      </trkpt>
      <trkpt lat="41.7131720" lon="1.8998410">
        <ele>296.4</ele>
        <time>2022-04-09T10:13:24Z</time>
      </trkpt>
      <trkpt lat="41.7131380" lon="1.8997270">
        <ele>296.0</ele>
        <time>2022-04-09T10:13:25Z</time>
      </trkpt>
      <trkpt lat="41.7130930" lon="1.8996470">
        <ele>295.4</ele>
        <time>2022-04-09T10:13:26Z</time>
      </trkpt>
      <trkpt lat="41.7130250" lon="1.8995580">
        <ele>295.2</ele>
        <time>2022-04-09T10:13:27Z</time>
      </trkpt>
      <trkpt lat="41.7128550" lon="1.8994090">
        <ele>294.6</ele>
        <time>2022-04-09T10:13:29Z</time>
      </trkpt>
      <trkpt lat="41.7127580" lon="1.8993490">
        <ele>294.4</ele>
        <time>2022-04-09T10:13:30Z</time>
      </trkpt>
      <trkpt lat="41.7126560" lon="1.8993030">
        <ele>294.2</ele>
        <time>2022-04-09T10:13:31Z</time>
      </trkpt>
      <trkpt lat="41.7125530" lon="1.8992710">
        <ele>293.6</ele>
        <time>2022-04-09T10:13:32Z</time>
      </trkpt>
      <trkpt lat="41.7124500" lon="1.8992490">
        <ele>292.8</ele>
        <time>2022-04-09T10:13:33Z</time>
      </trkpt>
      <trkpt lat="41.7122330" lon="1.8992230">
        <ele>291.0</ele>
        <time>2022-04-09T10:13:35Z</time>
      </trkpt>
      <trkpt lat="41.7119890" lon="1.8991600">
        <ele>289.4</ele>
        <time>2022-04-09T10:13:37Z</time>
      </trkpt>
      <trkpt lat="41.7117670" lon="1.8990380">
        <ele>288.4</ele>
        <time>2022-04-09T10:13:39Z</time>
      </trkpt>
      <trkpt lat="41.7116620" lon="1.8989710">
        <ele>287.8</ele>
        <time>2022-04-09T10:13:40Z</time>
      </trkpt>
      <trkpt lat="41.7114540" lon="1.8988360">
        <ele>287.0</ele>
        <time>2022-04-09T10:13:42Z</time>
      </trkpt>
      <trkpt lat="41.7112500" lon="1.8987110">
        <ele>284.4</ele>
        <time>2022-04-09T10:13:44Z</time>
      </trkpt>
      <trkpt lat="41.7111500" lon="1.8986420">
        <ele>283.4</ele>
        <time>2022-04-09T10:13:45Z</time>
      </trkpt>
      <trkpt lat="41.7110720" lon="1.8985790">
        <ele>282.0</ele>
        <time>2022-04-09T10:13:46Z</time>
      </trkpt>
      <trkpt lat="41.7109590" lon="1.8984710">
        <ele>281.0</ele>
        <time>2022-04-09T10:13:47Z</time>
      </trkpt>
      <trkpt lat="41.7107720" lon="1.8982750">
        <ele>279.8</ele>
        <time>2022-04-09T10:13:49Z</time>
      </trkpt>
      <trkpt lat="41.7106770" lon="1.8981810">
        <ele>279.6</ele>
        <time>2022-04-09T10:13:50Z</time>
      </trkpt>
      <trkpt lat="41.7104940" lon="1.8980210">
        <ele>278.8</ele>
        <time>2022-04-09T10:13:52Z</time>
      </trkpt>
      <trkpt lat="41.7103850" lon="1.8979540">
        <ele>277.6</ele>
        <time>2022-04-09T10:13:53Z</time>
      </trkpt>
      <trkpt lat="41.7102730" lon="1.8978960">
        <ele>276.8</ele>
        <time>2022-04-09T10:13:54Z</time>
      </trkpt>
      <trkpt lat="41.7101620" lon="1.8978420">
        <ele>276.0</ele>
        <time>2022-04-09T10:13:55Z</time>
      </trkpt>
      <trkpt lat="41.7099520" lon="1.8977250">
        <ele>274.2</ele>
        <time>2022-04-09T10:13:57Z</time>
      </trkpt>
      <trkpt lat="41.7097740" lon="1.8975540">
        <ele>273.2</ele>
        <time>2022-04-09T10:13:59Z</time>
      </trkpt>
      <trkpt lat="41.7096390" lon="1.8973240">
        <ele>272.0</ele>
        <time>2022-04-09T10:14:01Z</time>
      </trkpt>
      <trkpt lat="41.7095920" lon="1.8971860">
        <ele>271.8</ele>
        <time>2022-04-09T10:14:02Z</time>
      </trkpt>
      <trkpt lat="41.7095080" lon="1.8969020">
        <ele>271.0</ele>
        <time>2022-04-09T10:14:04Z</time>
      </trkpt>
      <trkpt lat="41.7094490" lon="1.8967740">
        <ele>269.6</ele>
        <time>2022-04-09T10:14:05Z</time>
      </trkpt>
      <trkpt lat="41.7093690" lon="1.8966580">
        <ele>269.2</ele>
        <time>2022-04-09T10:14:06Z</time>
      </trkpt>
      <trkpt lat="41.7092770" lon="1.8965530">
        <ele>268.4</ele>
        <time>2022-04-09T10:14:07Z</time>
      </trkpt>
      <trkpt lat="41.7091820" lon="1.8964610">
        <ele>267.6</ele>
        <time>2022-04-09T10:14:08Z</time>
      </trkpt>
      <trkpt lat="41.7090910" lon="1.8963690">
        <ele>267.2</ele>
        <time>2022-04-09T10:14:09Z</time>
      </trkpt>
      <trkpt lat="41.7089600" lon="1.8961600">
        <ele>265.8</ele>
        <time>2022-04-09T10:14:11Z</time>
      </trkpt>
      <trkpt lat="41.7089200" lon="1.8959140">
        <ele>264.4</ele>
        <time>2022-04-09T10:14:13Z</time>
      </trkpt>
      <trkpt lat="41.7089450" lon="1.8957870">
        <ele>263.8</ele>
        <time>2022-04-09T10:14:14Z</time>
      </trkpt>
      <trkpt lat="41.7089890" lon="1.8956620">
        <ele>262.6</ele>
        <time>2022-04-09T10:14:15Z</time>
      </trkpt>
      <trkpt lat="41.7091030" lon="1.8954360">
        <ele>260.8</ele>
        <time>2022-04-09T10:14:17Z</time>
      </trkpt>
      <trkpt lat="41.7092200" lon="1.8952210">
        <ele>259.6</ele>
        <time>2022-04-09T10:14:19Z</time>
      </trkpt>
      <trkpt lat="41.7092430" lon="1.8950960">
        <ele>259.4</ele>
        <time>2022-04-09T10:14:20Z</time>
      </trkpt>
      <trkpt lat="41.7092400" lon="1.8949730">
        <ele>259.0</ele>
        <time>2022-04-09T10:14:21Z</time>
      </trkpt>
      <trkpt lat="41.7092160" lon="1.8948640">
        <ele>258.6</ele>
        <time>2022-04-09T10:14:22Z</time>
      </trkpt>
      <trkpt lat="41.7091740" lon="1.8947780">
        <ele>258.2</ele>
        <time>2022-04-09T10:14:23Z</time>
      </trkpt>
      <trkpt lat="41.7090830" lon="1.8946390">
        <ele>257.6</ele>
        <time>2022-04-09T10:14:25Z</time>
      </trkpt>
      <trkpt lat="41.7090340" lon="1.8945640">
        <ele>257.2</ele>
        <time>2022-04-09T10:14:26Z</time>
      </trkpt>
      <trkpt lat="41.7088140" lon="1.8941890">
        <ele>256.8</ele>
        <time>2022-04-09T10:14:31Z</time>
      </trkpt>
      <trkpt lat="41.7087840" lon="1.8939960">
        <ele>256.8</ele>
        <time>2022-04-09T10:14:33Z</time>
      </trkpt>
      <trkpt lat="41.7087830" lon="1.8938940">
        <ele>256.8</ele>
        <time>2022-04-09T10:14:34Z</time>
      </trkpt>
      <trkpt lat="41.7087940" lon="1.8933390">
        <ele>256.2</ele>
        <time>2022-04-09T10:14:39Z</time>
      </trkpt>
      <trkpt lat="41.7087810" lon="1.8931020">
        <ele>255.6</ele>
        <time>2022-04-09T10:14:41Z</time>
      </trkpt>
      <trkpt lat="41.7087150" lon="1.8928760">
        <ele>254.8</ele>
        <time>2022-04-09T10:14:43Z</time>
      </trkpt>
      <trkpt lat="41.7085010" lon="1.8925590">
        <ele>253.6</ele>
        <time>2022-04-09T10:14:47Z</time>
      </trkpt>
      <trkpt lat="41.7083430" lon="1.8922930">
        <ele>252.8</ele>
        <time>2022-04-09T10:14:50Z</time>
      </trkpt>
      <trkpt lat="41.7082660" lon="1.8920840">
        <ele>252.6</ele>
        <time>2022-04-09T10:14:52Z</time>
      </trkpt>
      <trkpt lat="41.7081650" lon="1.8915280">
        <ele>252.6</ele>
        <time>2022-04-09T10:14:57Z</time>
      </trkpt>
      <trkpt lat="41.7081190" lon="1.8913180">
        <ele>252.6</ele>
        <time>2022-04-09T10:14:59Z</time>
      </trkpt>
      <trkpt lat="41.7080410" lon="1.8911310">
        <ele>252.6</ele>
        <time>2022-04-09T10:15:01Z</time>
      </trkpt>
      <trkpt lat="41.7079430" lon="1.8909770">
        <ele>252.4</ele>
        <time>2022-04-09T10:15:03Z</time>
      </trkpt>
      <trkpt lat="41.7077910" lon="1.8907540">
        <ele>252.0</ele>
        <time>2022-04-09T10:15:06Z</time>
      </trkpt>
      <trkpt lat="41.7076830" lon="1.8906130">
        <ele>252.0</ele>
        <time>2022-04-09T10:15:08Z</time>
      </trkpt>
      <trkpt lat="41.7076250" lon="1.8905490">
        <ele>251.8</ele>
        <time>2022-04-09T10:15:09Z</time>
      </trkpt>
      <trkpt lat="41.7075040" lon="1.8904420">
        <ele>251.8</ele>
        <time>2022-04-09T10:15:11Z</time>
      </trkpt>
      <trkpt lat="41.7074380" lon="1.8904000">
        <ele>251.8</ele>
        <time>2022-04-09T10:15:12Z</time>
      </trkpt>
      <trkpt lat="41.7071720" lon="1.8902640">
        <ele>252.0</ele>
        <time>2022-04-09T10:15:16Z</time>
      </trkpt>
      <trkpt lat="41.7069170" lon="1.8901150">
        <ele>252.0</ele>
        <time>2022-04-09T10:15:20Z</time>
      </trkpt>
      <trkpt lat="41.7068610" lon="1.8900580">
        <ele>252.0</ele>
        <time>2022-04-09T10:15:21Z</time>
      </trkpt>
      <trkpt lat="41.7067630" lon="1.8899290">
        <ele>252.0</ele>
        <time>2022-04-09T10:15:23Z</time>
      </trkpt>
      <trkpt lat="41.7066840" lon="1.8897720">
        <ele>252.0</ele>
        <time>2022-04-09T10:15:25Z</time>
      </trkpt>
      <trkpt lat="41.7066420" lon="1.8895930">
        <ele>251.8</ele>
        <time>2022-04-09T10:15:27Z</time>
      </trkpt>
      <trkpt lat="41.7066370" lon="1.8894940">
        <ele>251.8</ele>
        <time>2022-04-09T10:15:28Z</time>
      </trkpt>
      <trkpt lat="41.7066450" lon="1.8893920">
        <ele>251.6</ele>
        <time>2022-04-09T10:15:29Z</time>
      </trkpt>
      <trkpt lat="41.7067030" lon="1.8892000">
        <ele>251.2</ele>
        <time>2022-04-09T10:15:31Z</time>
      </trkpt>
      <trkpt lat="41.7068070" lon="1.8890420">
        <ele>250.4</ele>
        <time>2022-04-09T10:15:33Z</time>
      </trkpt>
      <trkpt lat="41.7068700" lon="1.8889720">
        <ele>250.0</ele>
        <time>2022-04-09T10:15:34Z</time>
      </trkpt>
      <trkpt lat="41.7070610" lon="1.8887710">
        <ele>249.6</ele>
        <time>2022-04-09T10:15:37Z</time>
      </trkpt>
      <trkpt lat="41.7072130" lon="1.8886870">
        <ele>249.0</ele>
        <time>2022-04-09T10:15:39Z</time>
      </trkpt>
      <trkpt lat="41.7075830" lon="1.8886620">
        <ele>248.2</ele>
        <time>2022-04-09T10:15:43Z</time>
      </trkpt>
      <trkpt lat="41.7077710" lon="1.8886420">
        <ele>247.8</ele>
        <time>2022-04-09T10:15:45Z</time>
      </trkpt>
      <trkpt lat="41.7079450" lon="1.8885490">
        <ele>247.4</ele>
        <time>2022-04-09T10:15:47Z</time>
      </trkpt>
      <trkpt lat="41.7080240" lon="1.8884730">
        <ele>247.0</ele>
        <time>2022-04-09T10:15:48Z</time>
      </trkpt>
      <trkpt lat="41.7080950" lon="1.8883850">
        <ele>246.8</ele>
        <time>2022-04-09T10:15:49Z</time>
      </trkpt>
      <trkpt lat="41.7081560" lon="1.8882870">
        <ele>246.2</ele>
        <time>2022-04-09T10:15:50Z</time>
      </trkpt>
      <trkpt lat="41.7082010" lon="1.8881750">
        <ele>246.0</ele>
        <time>2022-04-09T10:15:51Z</time>
      </trkpt>
      <trkpt lat="41.7082530" lon="1.8879190">
        <ele>244.8</ele>
        <time>2022-04-09T10:15:53Z</time>
      </trkpt>
      <trkpt lat="41.7082360" lon="1.8876640">
        <ele>244.0</ele>
        <time>2022-04-09T10:15:55Z</time>
      </trkpt>
      <trkpt lat="41.7081340" lon="1.8874540">
        <ele>243.4</ele>
        <time>2022-04-09T10:15:57Z</time>
      </trkpt>
      <trkpt lat="41.7079920" lon="1.8873280">
        <ele>242.4</ele>
        <time>2022-04-09T10:15:59Z</time>
      </trkpt>
      <trkpt lat="41.7079180" lon="1.8872910">
        <ele>242.0</ele>
        <time>2022-04-09T10:16:00Z</time>
      </trkpt>
      <trkpt lat="41.7078460" lon="1.8872560">
        <ele>242.0</ele>
        <time>2022-04-09T10:16:01Z</time>
      </trkpt>
      <trkpt lat="41.7077350" lon="1.8871220">
        <ele>241.8</ele>
        <time>2022-04-09T10:16:03Z</time>
      </trkpt>
      <trkpt lat="41.7077030" lon="1.8869510">
        <ele>241.6</ele>
        <time>2022-04-09T10:16:05Z</time>
      </trkpt>
      <trkpt lat="41.7077080" lon="1.8868540">
        <ele>241.6</ele>
        <time>2022-04-09T10:16:06Z</time>
      </trkpt>
      <trkpt lat="41.7077350" lon="1.8867700">
        <ele>241.8</ele>
        <time>2022-04-09T10:16:07Z</time>
      </trkpt>
      <trkpt lat="41.7077800" lon="1.8867020">
        <ele>241.8</ele>
        <time>2022-04-09T10:16:08Z</time>
      </trkpt>
      <trkpt lat="41.7078230" lon="1.8866310">
        <ele>242.0</ele>
        <time>2022-04-09T10:16:09Z</time>
      </trkpt>
      <trkpt lat="41.7078600" lon="1.8864490">
        <ele>242.2</ele>
        <time>2022-04-09T10:16:11Z</time>
      </trkpt>
      <trkpt lat="41.7078140" lon="1.8862720">
        <ele>242.4</ele>
        <time>2022-04-09T10:16:13Z</time>
      </trkpt>
      <trkpt lat="41.7077690" lon="1.8861980">
        <ele>242.4</ele>
        <time>2022-04-09T10:16:14Z</time>
      </trkpt>
      <trkpt lat="41.7075020" lon="1.8859160">
        <ele>242.4</ele>
        <time>2022-04-09T10:16:19Z</time>
      </trkpt>
      <trkpt lat="41.7073850" lon="1.8858900">
        <ele>242.4</ele>
        <time>2022-04-09T10:16:21Z</time>
      </trkpt>
      <trkpt lat="41.7073280" lon="1.8859310">
        <ele>242.2</ele>
        <time>2022-04-09T10:16:22Z</time>
      </trkpt>
      <trkpt lat="41.7072770" lon="1.8859950">
        <ele>242.2</ele>
        <time>2022-04-09T10:16:23Z</time>
      </trkpt>
      <trkpt lat="41.7071680" lon="1.8861280">
        <ele>242.2</ele>
        <time>2022-04-09T10:16:25Z</time>
      </trkpt>
      <trkpt lat="41.7070330" lon="1.8861900">
        <ele>242.0</ele>
        <time>2022-04-09T10:16:27Z</time>
      </trkpt>
      <trkpt lat="41.7069620" lon="1.8861910">
        <ele>242.0</ele>
        <time>2022-04-09T10:16:28Z</time>
      </trkpt>
      <trkpt lat="41.7068930" lon="1.8861700">
        <ele>242.0</ele>
        <time>2022-04-09T10:16:29Z</time>
      </trkpt>
      <trkpt lat="41.7067780" lon="1.8860720">
        <ele>242.0</ele>
        <time>2022-04-09T10:16:31Z</time>
      </trkpt>
      <trkpt lat="41.7064080" lon="1.8855360">
        <ele>242.0</ele>
        <time>2022-04-09T10:16:38Z</time>
      </trkpt>
      <trkpt lat="41.7063670" lon="1.8854750">
        <ele>242.0</ele>
        <time>2022-04-09T10:16:39Z</time>
      </trkpt>
      <trkpt lat="41.7060040" lon="1.8849310">
        <ele>242.0</ele>
        <time>2022-04-09T10:16:46Z</time>
      </trkpt>
      <trkpt lat="41.7059070" lon="1.8848260">
        <ele>242.0</ele>
        <time>2022-04-09T10:16:48Z</time>
      </trkpt>
      <trkpt lat="41.7057800" lon="1.8847530">
        <ele>242.0</ele>
        <time>2022-04-09T10:16:50Z</time>
      </trkpt>
      <trkpt lat="41.7053640" lon="1.8846890">
        <ele>242.4</ele>
        <time>2022-04-09T10:16:56Z</time>
      </trkpt>
      <trkpt lat="41.7049320" lon="1.8846660">
        <ele>243.2</ele>
        <time>2022-04-09T10:17:03Z</time>
      </trkpt>
      <trkpt lat="41.7047960" lon="1.8846420">
        <ele>243.8</ele>
        <time>2022-04-09T10:17:05Z</time>
      </trkpt>
      <trkpt lat="41.7046870" lon="1.8845870">
        <ele>244.2</ele>
        <time>2022-04-09T10:17:07Z</time>
      </trkpt>
      <trkpt lat="41.7046480" lon="1.8845510">
        <ele>244.4</ele>
        <time>2022-04-09T10:17:08Z</time>
      </trkpt>
      <trkpt lat="41.7046020" lon="1.8845020">
        <ele>244.4</ele>
        <time>2022-04-09T10:17:09Z</time>
      </trkpt>
      <trkpt lat="41.7045180" lon="1.8843670">
        <ele>244.8</ele>
        <time>2022-04-09T10:17:11Z</time>
      </trkpt>
      <trkpt lat="41.7044670" lon="1.8842190">
        <ele>245.2</ele>
        <time>2022-04-09T10:17:13Z</time>
      </trkpt>
      <trkpt lat="41.7044480" lon="1.8841320">
        <ele>245.4</ele>
        <time>2022-04-09T10:17:14Z</time>
      </trkpt>
      <trkpt lat="41.7044170" lon="1.8838640">
        <ele>245.4</ele>
        <time>2022-04-09T10:17:17Z</time>
      </trkpt>
      <trkpt lat="41.7044160" lon="1.8837380">
        <ele>245.4</ele>
        <time>2022-04-09T10:17:18Z</time>
      </trkpt>
      <trkpt lat="41.7044620" lon="1.8835450">
        <ele>245.2</ele>
        <time>2022-04-09T10:17:20Z</time>
      </trkpt>
      <trkpt lat="41.7046200" lon="1.8832040">
        <ele>244.2</ele>
        <time>2022-04-09T10:17:23Z</time>
      </trkpt>
      <trkpt lat="41.7046770" lon="1.8830950">
        <ele>243.8</ele>
        <time>2022-04-09T10:17:24Z</time>
      </trkpt>
      <trkpt lat="41.7047930" lon="1.8828610">
        <ele>242.8</ele>
        <time>2022-04-09T10:17:26Z</time>
      </trkpt>
      <trkpt lat="41.7049260" lon="1.8826550">
        <ele>241.2</ele>
        <time>2022-04-09T10:17:28Z</time>
      </trkpt>
      <trkpt lat="41.7051070" lon="1.8825810">
        <ele>239.6</ele>
        <time>2022-04-09T10:17:30Z</time>
      </trkpt>
      <trkpt lat="41.7051810" lon="1.8826060">
        <ele>238.4</ele>
        <time>2022-04-09T10:17:31Z</time>
      </trkpt>
      <trkpt lat="41.7052880" lon="1.8826630">
        <ele>238.0</ele>
        <time>2022-04-09T10:17:32Z</time>
      </trkpt>
      <trkpt lat="41.7053780" lon="1.8826900">
        <ele>237.0</ele>
        <time>2022-04-09T10:17:33Z</time>
      </trkpt>
      <trkpt lat="41.7054670" lon="1.8826810">
        <ele>236.6</ele>
        <time>2022-04-09T10:17:34Z</time>
      </trkpt>
      <trkpt lat="41.7055450" lon="1.8826230">
        <ele>235.8</ele>
        <time>2022-04-09T10:17:35Z</time>
      </trkpt>
      <trkpt lat="41.7055850" lon="1.8825380">
        <ele>235.4</ele>
        <time>2022-04-09T10:17:36Z</time>
      </trkpt>
      <trkpt lat="41.7056080" lon="1.8824140">
        <ele>235.0</ele>
        <time>2022-04-09T10:17:37Z</time>
      </trkpt>
      <trkpt lat="41.7056260" lon="1.8822540">
        <ele>234.0</ele>
        <time>2022-04-09T10:17:38Z</time>
      </trkpt>
      <trkpt lat="41.7056710" lon="1.8819770">
        <ele>233.0</ele>
        <time>2022-04-09T10:17:40Z</time>
      </trkpt>
      <trkpt lat="41.7056770" lon="1.8818600">
        <ele>232.6</ele>
        <time>2022-04-09T10:17:41Z</time>
      </trkpt>
      <trkpt lat="41.7056590" lon="1.8816820">
        <ele>231.8</ele>
        <time>2022-04-09T10:17:42Z</time>
      </trkpt>
      <trkpt lat="41.7056200" lon="1.8815620">
        <ele>231.4</ele>
        <time>2022-04-09T10:17:43Z</time>
      </trkpt>
      <trkpt lat="41.7055560" lon="1.8814270">
        <ele>231.0</ele>
        <time>2022-04-09T10:17:44Z</time>
      </trkpt>
      <trkpt lat="41.7054820" lon="1.8813070">
        <ele>230.0</ele>
        <time>2022-04-09T10:17:45Z</time>
      </trkpt>
      <trkpt lat="41.7054000" lon="1.8812010">
        <ele>229.4</ele>
        <time>2022-04-09T10:17:46Z</time>
      </trkpt>
      <trkpt lat="41.7053090" lon="1.8811020">
        <ele>228.4</ele>
        <time>2022-04-09T10:17:47Z</time>
      </trkpt>
      <trkpt lat="41.7052100" lon="1.8810130">
        <ele>228.0</ele>
        <time>2022-04-09T10:17:48Z</time>
      </trkpt>
      <trkpt lat="41.7051060" lon="1.8809310">
        <ele>227.0</ele>
        <time>2022-04-09T10:17:49Z</time>
      </trkpt>
      <trkpt lat="41.7050040" lon="1.8808450">
        <ele>226.6</ele>
        <time>2022-04-09T10:17:50Z</time>
      </trkpt>
      <trkpt lat="41.7049200" lon="1.8807390">
        <ele>225.8</ele>
        <time>2022-04-09T10:17:51Z</time>
      </trkpt>
      <trkpt lat="41.7048640" lon="1.8806180">
        <ele>224.4</ele>
        <time>2022-04-09T10:17:52Z</time>
      </trkpt>
      <trkpt lat="41.7048520" lon="1.8803070">
        <ele>222.8</ele>
        <time>2022-04-09T10:17:54Z</time>
      </trkpt>
      <trkpt lat="41.7049030" lon="1.8800400">
        <ele>220.4</ele>
        <time>2022-04-09T10:17:56Z</time>
      </trkpt>
      <trkpt lat="41.7049580" lon="1.8796980">
        <ele>219.0</ele>
        <time>2022-04-09T10:17:58Z</time>
      </trkpt>
      <trkpt lat="41.7049670" lon="1.8795420">
        <ele>218.2</ele>
        <time>2022-04-09T10:17:59Z</time>
      </trkpt>
      <trkpt lat="41.7049630" lon="1.8794210">
        <ele>217.4</ele>
        <time>2022-04-09T10:18:00Z</time>
      </trkpt>
      <trkpt lat="41.7049440" lon="1.8791190">
        <ele>216.2</ele>
        <time>2022-04-09T10:18:02Z</time>
      </trkpt>
      <trkpt lat="41.7049360" lon="1.8789970">
        <ele>215.0</ele>
        <time>2022-04-09T10:18:03Z</time>
      </trkpt>
      <trkpt lat="41.7049340" lon="1.8788870">
        <ele>214.4</ele>
        <time>2022-04-09T10:18:04Z</time>
      </trkpt>
      <trkpt lat="41.7049420" lon="1.8788150">
        <ele>212.6</ele>
        <time>2022-04-09T10:18:05Z</time>
      </trkpt>
      <trkpt lat="41.7049590" lon="1.8787260">
        <ele>211.6</ele>
        <time>2022-04-09T10:18:06Z</time>
      </trkpt>
      <trkpt lat="41.7049650" lon="1.8786700">
        <ele>211.0</ele>
        <time>2022-04-09T10:18:07Z</time>
      </trkpt>
      <trkpt lat="41.7049590" lon="1.8786320">
        <ele>210.0</ele>
        <time>2022-04-09T10:18:08Z</time>
      </trkpt>
      <trkpt lat="41.7049480" lon="1.8786070">
        <ele>209.2</ele>
        <time>2022-04-09T10:18:10Z</time>
      </trkpt>
      <trkpt lat="41.7049480" lon="1.8786070">
        <ele>209.0</ele>
        <time>2022-04-09T10:18:11Z</time>
      </trkpt>
      <trkpt lat="41.7049270" lon="1.8785640">
        <ele>207.8</ele>
        <time>2022-04-09T10:20:49Z</time>
      </trkpt>
      <trkpt lat="41.7049150" lon="1.8785280">
        <ele>207.8</ele>
        <time>2022-04-09T10:20:50Z</time>
      </trkpt>
      <trkpt lat="41.7048820" lon="1.8784160">
        <ele>207.6</ele>
        <time>2022-04-09T10:20:52Z</time>
      </trkpt>
      <trkpt lat="41.7048510" lon="1.8782510">
        <ele>207.6</ele>
        <time>2022-04-09T10:20:54Z</time>
      </trkpt>
      <trkpt lat="41.7048000" lon="1.8779930">
        <ele>206.6</ele>
        <time>2022-04-09T10:20:57Z</time>
      </trkpt>
      <trkpt lat="41.7047660" lon="1.8777620">
        <ele>206.2</ele>
        <time>2022-04-09T10:20:59Z</time>
      </trkpt>
      <trkpt lat="41.7047190" lon="1.8774400">
        <ele>205.2</ele>
        <time>2022-04-09T10:21:02Z</time>
      </trkpt>
      <trkpt lat="41.7046870" lon="1.8772030">
        <ele>203.8</ele>
        <time>2022-04-09T10:21:04Z</time>
      </trkpt>
      <trkpt lat="41.7046690" lon="1.8770120">
        <ele>202.4</ele>
        <time>2022-04-09T10:21:06Z</time>
      </trkpt>
      <trkpt lat="41.7046480" lon="1.8767610">
        <ele>201.0</ele>
        <time>2022-04-09T10:21:08Z</time>
      </trkpt>
      <trkpt lat="41.7046150" lon="1.8765240">
        <ele>199.8</ele>
        <time>2022-04-09T10:21:10Z</time>
      </trkpt>
      <trkpt lat="41.7045050" lon="1.8763420">
        <ele>198.8</ele>
        <time>2022-04-09T10:21:12Z</time>
      </trkpt>
      <trkpt lat="41.7044390" lon="1.8763000">
        <ele>197.8</ele>
        <time>2022-04-09T10:21:13Z</time>
      </trkpt>
      <trkpt lat="41.7043380" lon="1.8762770">
        <ele>197.4</ele>
        <time>2022-04-09T10:21:14Z</time>
      </trkpt>
      <trkpt lat="41.7042540" lon="1.8762830">
        <ele>196.6</ele>
        <time>2022-04-09T10:21:15Z</time>
      </trkpt>
      <trkpt lat="41.7041860" lon="1.8762930">
        <ele>196.2</ele>
        <time>2022-04-09T10:21:16Z</time>
      </trkpt>
      <trkpt lat="41.7040920" lon="1.8763040">
        <ele>196.0</ele>
        <time>2022-04-09T10:21:17Z</time>
      </trkpt>
      <trkpt lat="41.7040150" lon="1.8762960">
        <ele>195.2</ele>
        <time>2022-04-09T10:21:18Z</time>
      </trkpt>
      <trkpt lat="41.7039470" lon="1.8762590">
        <ele>194.6</ele>
        <time>2022-04-09T10:21:19Z</time>
      </trkpt>
      <trkpt lat="41.7038730" lon="1.8761240">
        <ele>194.0</ele>
        <time>2022-04-09T10:21:21Z</time>
      </trkpt>
      <trkpt lat="41.7038500" lon="1.8759230">
        <ele>193.6</ele>
        <time>2022-04-09T10:21:23Z</time>
      </trkpt>
      <trkpt lat="41.7038570" lon="1.8758360">
        <ele>193.4</ele>
        <time>2022-04-09T10:21:24Z</time>
      </trkpt>
      <trkpt lat="41.7038870" lon="1.8753330">
        <ele>193.0</ele>
        <time>2022-04-09T10:21:29Z</time>
      </trkpt>
      <trkpt lat="41.7038960" lon="1.8751940">
        <ele>193.0</ele>
        <time>2022-04-09T10:21:30Z</time>
      </trkpt>
      <trkpt lat="41.7039370" lon="1.8748650">
        <ele>192.6</ele>
        <time>2022-04-09T10:21:33Z</time>
      </trkpt>
      <trkpt lat="41.7039750" lon="1.8747260">
        <ele>192.2</ele>
        <time>2022-04-09T10:21:34Z</time>
      </trkpt>
      <trkpt lat="41.7040130" lon="1.8746360">
        <ele>192.2</ele>
        <time>2022-04-09T10:21:35Z</time>
      </trkpt>
      <trkpt lat="41.7040740" lon="1.8745050">
        <ele>191.8</ele>
        <time>2022-04-09T10:21:36Z</time>
      </trkpt>
      <trkpt lat="41.7041920" lon="1.8742950">
        <ele>191.4</ele>
        <time>2022-04-09T10:21:38Z</time>
      </trkpt>
      <trkpt lat="41.7044960" lon="1.8737860">
        <ele>190.8</ele>
        <time>2022-04-09T10:21:43Z</time>
      </trkpt>
      <trkpt lat="41.7045880" lon="1.8735890">
        <ele>190.4</ele>
        <time>2022-04-09T10:21:45Z</time>
      </trkpt>
      <trkpt lat="41.7046410" lon="1.8734480">
        <ele>190.2</ele>
        <time>2022-04-09T10:21:46Z</time>
      </trkpt>
      <trkpt lat="41.7046970" lon="1.8731900">
        <ele>189.8</ele>
        <time>2022-04-09T10:21:48Z</time>
      </trkpt>
      <trkpt lat="41.7047120" lon="1.8726320">
        <ele>189.0</ele>
        <time>2022-04-09T10:21:52Z</time>
      </trkpt>
      <trkpt lat="41.7047090" lon="1.8724920">
        <ele>188.6</ele>
        <time>2022-04-09T10:21:53Z</time>
      </trkpt>
      <trkpt lat="41.7046980" lon="1.8720660">
        <ele>187.6</ele>
        <time>2022-04-09T10:21:56Z</time>
      </trkpt>
      <trkpt lat="41.7046640" lon="1.8714210">
        <ele>186.4</ele>
        <time>2022-04-09T10:22:01Z</time>
      </trkpt>
      <trkpt lat="41.7046450" lon="1.8713000">
        <ele>186.2</ele>
        <time>2022-04-09T10:22:02Z</time>
      </trkpt>
      <trkpt lat="41.7046080" lon="1.8710370">
        <ele>186.0</ele>
        <time>2022-04-09T10:22:04Z</time>
      </trkpt>
      <trkpt lat="41.7046240" lon="1.8708090">
        <ele>185.6</ele>
        <time>2022-04-09T10:22:06Z</time>
      </trkpt>
      <trkpt lat="41.7046090" lon="1.8707020">
        <ele>185.4</ele>
        <time>2022-04-09T10:22:07Z</time>
      </trkpt>
      <trkpt lat="41.7045740" lon="1.8706360">
        <ele>185.4</ele>
        <time>2022-04-09T10:22:08Z</time>
      </trkpt>
      <trkpt lat="41.7045000" lon="1.8705790">
        <ele>185.2</ele>
        <time>2022-04-09T10:22:09Z</time>
      </trkpt>
      <trkpt lat="41.7043510" lon="1.8706280">
        <ele>185.0</ele>
        <time>2022-04-09T10:22:11Z</time>
      </trkpt>
      <trkpt lat="41.7042920" lon="1.8706510">
        <ele>185.0</ele>
        <time>2022-04-09T10:22:12Z</time>
      </trkpt>
      <trkpt lat="41.7041490" lon="1.8706910">
        <ele>185.0</ele>
        <time>2022-04-09T10:22:14Z</time>
      </trkpt>
      <trkpt lat="41.7040730" lon="1.8707000">
        <ele>185.0</ele>
        <time>2022-04-09T10:22:15Z</time>
      </trkpt>
      <trkpt lat="41.7036240" lon="1.8706880">
        <ele>185.4</ele>
        <time>2022-04-09T10:22:21Z</time>
      </trkpt>
      <trkpt lat="41.7030850" lon="1.8706860">
        <ele>185.6</ele>
        <time>2022-04-09T10:22:28Z</time>
      </trkpt>
      <trkpt lat="41.7026570" lon="1.8707160">
        <ele>185.4</ele>
        <time>2022-04-09T10:22:34Z</time>
      </trkpt>
      <trkpt lat="41.7021040" lon="1.8707910">
        <ele>185.2</ele>
        <time>2022-04-09T10:22:42Z</time>
      </trkpt>
      <trkpt lat="41.7017620" lon="1.8708280">
        <ele>184.4</ele>
        <time>2022-04-09T10:22:47Z</time>
      </trkpt>
      <trkpt lat="41.7015010" lon="1.8708520">
        <ele>184.2</ele>
        <time>2022-04-09T10:22:51Z</time>
      </trkpt>
      <trkpt lat="41.7014210" lon="1.8708530">
        <ele>184.2</ele>
        <time>2022-04-09T10:22:52Z</time>
      </trkpt>
      <trkpt lat="41.7012380" lon="1.8708070">
        <ele>184.2</ele>
        <time>2022-04-09T10:22:55Z</time>
      </trkpt>
      <trkpt lat="41.7010850" lon="1.8707520">
        <ele>184.4</ele>
        <time>2022-04-09T10:22:59Z</time>
      </trkpt>
      <trkpt lat="41.7010510" lon="1.8707370">
        <ele>184.0</ele>
        <time>2022-04-09T10:23:03Z</time>
      </trkpt>
      <trkpt lat="41.7010070" lon="1.8707090">
        <ele>183.2</ele>
        <time>2022-04-09T10:23:08Z</time>
      </trkpt>
      <trkpt lat="41.7009510" lon="1.8706880">
        <ele>183.2</ele>
        <time>2022-04-09T10:23:10Z</time>
      </trkpt>
      <trkpt lat="41.7007620" lon="1.8705520">
        <ele>182.6</ele>
        <time>2022-04-09T10:23:14Z</time>
      </trkpt>
      <trkpt lat="41.7007130" lon="1.8705100">
        <ele>182.2</ele>
        <time>2022-04-09T10:23:15Z</time>
      </trkpt>
      <trkpt lat="41.7006330" lon="1.8704690">
        <ele>182.0</ele>
        <time>2022-04-09T10:23:16Z</time>
      </trkpt>
      <trkpt lat="41.7005600" lon="1.8704460">
        <ele>181.8</ele>
        <time>2022-04-09T10:23:17Z</time>
      </trkpt>
      <trkpt lat="41.7003640" lon="1.8703750">
        <ele>181.2</ele>
        <time>2022-04-09T10:23:20Z</time>
      </trkpt>
      <trkpt lat="41.7002160" lon="1.8703260">
        <ele>180.2</ele>
        <time>2022-04-09T10:23:22Z</time>
      </trkpt>
      <trkpt lat="41.7001500" lon="1.8703140">
        <ele>180.0</ele>
        <time>2022-04-09T10:23:23Z</time>
      </trkpt>
      <trkpt lat="41.6997810" lon="1.8702430">
        <ele>179.2</ele>
        <time>2022-04-09T10:23:28Z</time>
      </trkpt>
      <trkpt lat="41.6997110" lon="1.8702460">
        <ele>179.0</ele>
        <time>2022-04-09T10:23:29Z</time>
      </trkpt>
      <trkpt lat="41.6996340" lon="1.8702530">
        <ele>179.0</ele>
        <time>2022-04-09T10:23:30Z</time>
      </trkpt>
      <trkpt lat="41.6994840" lon="1.8702680">
        <ele>178.8</ele>
        <time>2022-04-09T10:23:32Z</time>
      </trkpt>
      <trkpt lat="41.6992890" lon="1.8702720">
        <ele>178.8</ele>
        <time>2022-04-09T10:23:35Z</time>
      </trkpt>
      <trkpt lat="41.6990720" lon="1.8702070">
        <ele>178.8</ele>
        <time>2022-04-09T10:23:39Z</time>
      </trkpt>
      <trkpt lat="41.6990470" lon="1.8701620">
        <ele>179.2</ele>
        <time>2022-04-09T10:23:41Z</time>
      </trkpt>
      <trkpt lat="41.6989490" lon="1.8699680">
        <ele>179.4</ele>
        <time>2022-04-09T10:23:44Z</time>
      </trkpt>
      <trkpt lat="41.6988470" lon="1.8699310">
        <ele>179.6</ele>
        <time>2022-04-09T10:23:46Z</time>
      </trkpt>
      <trkpt lat="41.6987220" lon="1.8699560">
        <ele>179.8</ele>
        <time>2022-04-09T10:23:48Z</time>
      </trkpt>
      <trkpt lat="41.6985780" lon="1.8700040">
        <ele>179.8</ele>
        <time>2022-04-09T10:23:50Z</time>
      </trkpt>
      <trkpt lat="41.6984460" lon="1.8700520">
        <ele>179.6</ele>
        <time>2022-04-09T10:23:52Z</time>
      </trkpt>
      <trkpt lat="41.6978990" lon="1.8703000">
        <ele>178.0</ele>
        <time>2022-04-09T10:24:00Z</time>
      </trkpt>
      <trkpt lat="41.6977380" lon="1.8703590">
        <ele>177.8</ele>
        <time>2022-04-09T10:24:02Z</time>
      </trkpt>
      <trkpt lat="41.6973890" lon="1.8704560">
        <ele>177.0</ele>
        <time>2022-04-09T10:24:07Z</time>
      </trkpt>
      <trkpt lat="41.6971280" lon="1.8705180">
        <ele>176.6</ele>
        <time>2022-04-09T10:24:11Z</time>
      </trkpt>
      <trkpt lat="41.6970630" lon="1.8705310">
        <ele>176.6</ele>
        <time>2022-04-09T10:24:12Z</time>
      </trkpt>
      <trkpt lat="41.6969360" lon="1.8705700">
        <ele>176.6</ele>
        <time>2022-04-09T10:24:14Z</time>
      </trkpt>
      <trkpt lat="41.6966910" lon="1.8706930">
        <ele>176.6</ele>
        <time>2022-04-09T10:24:18Z</time>
      </trkpt>
      <trkpt lat="41.6962220" lon="1.8709910">
        <ele>175.8</ele>
        <time>2022-04-09T10:24:25Z</time>
      </trkpt>
      <trkpt lat="41.6960990" lon="1.8710770">
        <ele>175.4</ele>
        <time>2022-04-09T10:24:27Z</time>
      </trkpt>
      <trkpt lat="41.6956670" lon="1.8713650">
        <ele>174.8</ele>
        <time>2022-04-09T10:24:33Z</time>
      </trkpt>
      <trkpt lat="41.6954120" lon="1.8715280">
        <ele>174.0</ele>
        <time>2022-04-09T10:24:37Z</time>
      </trkpt>
      <trkpt lat="41.6951350" lon="1.8716850">
        <ele>173.0</ele>
        <time>2022-04-09T10:24:41Z</time>
      </trkpt>
      <trkpt lat="41.6946300" lon="1.8719000">
        <ele>171.8</ele>
        <time>2022-04-09T10:24:48Z</time>
      </trkpt>
      <trkpt lat="41.6940580" lon="1.8721300">
        <ele>170.8</ele>
        <time>2022-04-09T10:24:56Z</time>
      </trkpt>
      <trkpt lat="41.6937940" lon="1.8722370">
        <ele>170.6</ele>
        <time>2022-04-09T10:25:00Z</time>
      </trkpt>
      <trkpt lat="41.6934020" lon="1.8723960">
        <ele>171.0</ele>
        <time>2022-04-09T10:25:06Z</time>
      </trkpt>
      <trkpt lat="41.6930230" lon="1.8725410">
        <ele>172.0</ele>
        <time>2022-04-09T10:25:12Z</time>
      </trkpt>
      <trkpt lat="41.6929600" lon="1.8725670">
        <ele>172.0</ele>
        <time>2022-04-09T10:25:13Z</time>
      </trkpt>
      <trkpt lat="41.6923920" lon="1.8727830">
        <ele>172.4</ele>
        <time>2022-04-09T10:25:22Z</time>
      </trkpt>
      <trkpt lat="41.6918110" lon="1.8730000">
        <ele>172.2</ele>
        <time>2022-04-09T10:25:31Z</time>
      </trkpt>
      <trkpt lat="41.6917580" lon="1.8730190">
        <ele>172.2</ele>
        <time>2022-04-09T10:25:32Z</time>
      </trkpt>
      <trkpt lat="41.6911930" lon="1.8732460">
        <ele>172.2</ele>
        <time>2022-04-09T10:25:40Z</time>
      </trkpt>
      <trkpt lat="41.6911280" lon="1.8732690">
        <ele>172.2</ele>
        <time>2022-04-09T10:25:41Z</time>
      </trkpt>
      <trkpt lat="41.6907440" lon="1.8734190">
        <ele>172.0</ele>
        <time>2022-04-09T10:25:47Z</time>
      </trkpt>
      <trkpt lat="41.6903280" lon="1.8735820">
        <ele>172.8</ele>
        <time>2022-04-09T10:25:54Z</time>
      </trkpt>
      <trkpt lat="41.6902680" lon="1.8735950">
        <ele>173.0</ele>
        <time>2022-04-09T10:25:55Z</time>
      </trkpt>
      <trkpt lat="41.6899770" lon="1.8736170">
        <ele>174.0</ele>
        <time>2022-04-09T10:26:00Z</time>
      </trkpt>
      <trkpt lat="41.6898470" lon="1.8736200">
        <ele>174.0</ele>
        <time>2022-04-09T10:26:02Z</time>
      </trkpt>
      <trkpt lat="41.6896370" lon="1.8736110">
        <ele>174.6</ele>
        <time>2022-04-09T10:26:06Z</time>
      </trkpt>
      <trkpt lat="41.6895320" lon="1.8735990">
        <ele>175.2</ele>
        <time>2022-04-09T10:26:08Z</time>
      </trkpt>
      <trkpt lat="41.6894920" lon="1.8735990">
        <ele>175.2</ele>
        <time>2022-04-09T10:26:09Z</time>
      </trkpt>
      <trkpt lat="41.6894120" lon="1.8735960">
        <ele>176.0</ele>
        <time>2022-04-09T10:26:11Z</time>
      </trkpt>
      <trkpt lat="41.6893730" lon="1.8735920">
        <ele>176.2</ele>
        <time>2022-04-09T10:26:12Z</time>
      </trkpt>
      <trkpt lat="41.6892020" lon="1.8735800">
        <ele>177.4</ele>
        <time>2022-04-09T10:26:16Z</time>
      </trkpt>
      <trkpt lat="41.6891150" lon="1.8735760">
        <ele>178.0</ele>
        <time>2022-04-09T10:26:18Z</time>
      </trkpt>
      <trkpt lat="41.6890370" lon="1.8735690">
        <ele>178.4</ele>
        <time>2022-04-09T10:26:20Z</time>
      </trkpt>
      <trkpt lat="41.6888590" lon="1.8735420">
        <ele>179.4</ele>
        <time>2022-04-09T10:26:25Z</time>
      </trkpt>
      <trkpt lat="41.6887260" lon="1.8734680">
        <ele>181.0</ele>
        <time>2022-04-09T10:26:29Z</time>
      </trkpt>
      <trkpt lat="41.6886880" lon="1.8734420">
        <ele>181.2</ele>
        <time>2022-04-09T10:26:30Z</time>
      </trkpt>
      <trkpt lat="41.6885690" lon="1.8733430">
        <ele>182.2</ele>
        <time>2022-04-09T10:26:34Z</time>
      </trkpt>
      <trkpt lat="41.6885110" lon="1.8732800">
        <ele>182.6</ele>
        <time>2022-04-09T10:26:36Z</time>
      </trkpt>
      <trkpt lat="41.6884180" lon="1.8731830">
        <ele>183.4</ele>
        <time>2022-04-09T10:26:39Z</time>
      </trkpt>
      <trkpt lat="41.6883060" lon="1.8730570">
        <ele>184.8</ele>
        <time>2022-04-09T10:26:43Z</time>
      </trkpt>
      <trkpt lat="41.6882700" lon="1.8730150">
        <ele>185.0</ele>
        <time>2022-04-09T10:26:44Z</time>
      </trkpt>
      <trkpt lat="41.6881380" lon="1.8728720">
        <ele>186.0</ele>
        <time>2022-04-09T10:26:48Z</time>
      </trkpt>
      <trkpt lat="41.6879660" lon="1.8726800">
        <ele>187.0</ele>
        <time>2022-04-09T10:26:53Z</time>
      </trkpt>
      <trkpt lat="41.6879010" lon="1.8725880">
        <ele>187.4</ele>
        <time>2022-04-09T10:26:55Z</time>
      </trkpt>
      <trkpt lat="41.6877660" lon="1.8723240">
        <ele>188.4</ele>
        <time>2022-04-09T10:27:00Z</time>
      </trkpt>
      <trkpt lat="41.6877480" lon="1.8722790">
        <ele>188.4</ele>
        <time>2022-04-09T10:27:01Z</time>
      </trkpt>
      <trkpt lat="41.6876010" lon="1.8718420">
        <ele>189.2</ele>
        <time>2022-04-09T10:27:08Z</time>
      </trkpt>
      <trkpt lat="41.6875460" lon="1.8716750">
        <ele>189.6</ele>
        <time>2022-04-09T10:27:11Z</time>
      </trkpt>
      <trkpt lat="41.6874090" lon="1.8712730">
        <ele>190.6</ele>
        <time>2022-04-09T10:27:18Z</time>
      </trkpt>
      <trkpt lat="41.6873920" lon="1.8712170">
        <ele>190.8</ele>
        <time>2022-04-09T10:27:19Z</time>
      </trkpt>
      <trkpt lat="41.6872400" lon="1.8707730">
        <ele>191.4</ele>
        <time>2022-04-09T10:27:27Z</time>
      </trkpt>
      <trkpt lat="41.6871820" lon="1.8706160">
        <ele>191.8</ele>
        <time>2022-04-09T10:27:30Z</time>
      </trkpt>
      <trkpt lat="41.6871090" lon="1.8704480">
        <ele>192.6</ele>
        <time>2022-04-09T10:27:34Z</time>
      </trkpt>
      <trkpt lat="41.6870890" lon="1.8703920">
        <ele>192.8</ele>
        <time>2022-04-09T10:27:35Z</time>
      </trkpt>
      <trkpt lat="41.6870570" lon="1.8702730">
        <ele>193.0</ele>
        <time>2022-04-09T10:27:37Z</time>
      </trkpt>
      <trkpt lat="41.6869570" lon="1.8699650">
        <ele>193.8</ele>
        <time>2022-04-09T10:27:42Z</time>
      </trkpt>
      <trkpt lat="41.6869150" lon="1.8698530">
        <ele>194.2</ele>
        <time>2022-04-09T10:27:44Z</time>
      </trkpt>
      <trkpt lat="41.6868350" lon="1.8696420">
        <ele>195.0</ele>
        <time>2022-04-09T10:27:48Z</time>
      </trkpt>
      <trkpt lat="41.6867990" lon="1.8695810">
        <ele>195.4</ele>
        <time>2022-04-09T10:27:49Z</time>
      </trkpt>
      <trkpt lat="41.6865800" lon="1.8692600">
        <ele>196.4</ele>
        <time>2022-04-09T10:27:56Z</time>
      </trkpt>
      <trkpt lat="41.6865550" lon="1.8692290">
        <ele>196.4</ele>
        <time>2022-04-09T10:27:57Z</time>
      </trkpt>
      <trkpt lat="41.6863610" lon="1.8689550">
        <ele>197.4</ele>
        <time>2022-04-09T10:28:03Z</time>
      </trkpt>
      <trkpt lat="41.6862470" lon="1.8687820">
        <ele>198.2</ele>
        <time>2022-04-09T10:28:07Z</time>
      </trkpt>
      <trkpt lat="41.6862120" lon="1.8687270">
        <ele>198.4</ele>
        <time>2022-04-09T10:28:08Z</time>
      </trkpt>
      <trkpt lat="41.6860920" lon="1.8685540">
        <ele>199.4</ele>
        <time>2022-04-09T10:28:12Z</time>
      </trkpt>
      <trkpt lat="41.6860090" lon="1.8684390">
        <ele>200.6</ele>
        <time>2022-04-09T10:28:15Z</time>
      </trkpt>
      <trkpt lat="41.6858680" lon="1.8682860">
        <ele>201.8</ele>
        <time>2022-04-09T10:28:19Z</time>
      </trkpt>
      <trkpt lat="41.6857500" lon="1.8682010">
        <ele>202.6</ele>
        <time>2022-04-09T10:28:22Z</time>
      </trkpt>
      <trkpt lat="41.6856660" lon="1.8681490">
        <ele>203.2</ele>
        <time>2022-04-09T10:28:24Z</time>
      </trkpt>
      <trkpt lat="41.6854320" lon="1.8680180">
        <ele>204.4</ele>
        <time>2022-04-09T10:28:30Z</time>
      </trkpt>
      <trkpt lat="41.6852740" lon="1.8679320">
        <ele>205.6</ele>
        <time>2022-04-09T10:28:34Z</time>
      </trkpt>
      <trkpt lat="41.6850900" lon="1.8678400">
        <ele>206.8</ele>
        <time>2022-04-09T10:28:39Z</time>
      </trkpt>
      <trkpt lat="41.6850080" lon="1.8677940">
        <ele>207.4</ele>
        <time>2022-04-09T10:28:41Z</time>
      </trkpt>
      <trkpt lat="41.6849320" lon="1.8677500">
        <ele>208.2</ele>
        <time>2022-04-09T10:28:43Z</time>
      </trkpt>
      <trkpt lat="41.6847520" lon="1.8676520">
        <ele>209.4</ele>
        <time>2022-04-09T10:28:48Z</time>
      </trkpt>
      <trkpt lat="41.6846660" lon="1.8676060">
        <ele>209.6</ele>
        <time>2022-04-09T10:28:50Z</time>
      </trkpt>
      <trkpt lat="41.6844860" lon="1.8675060">
        <ele>210.6</ele>
        <time>2022-04-09T10:28:55Z</time>
      </trkpt>
      <trkpt lat="41.6843050" lon="1.8674100">
        <ele>211.8</ele>
        <time>2022-04-09T10:29:00Z</time>
      </trkpt>
      <trkpt lat="41.6841070" lon="1.8673000">
        <ele>213.0</ele>
        <time>2022-04-09T10:29:06Z</time>
      </trkpt>
      <trkpt lat="41.6839650" lon="1.8672180">
        <ele>213.6</ele>
        <time>2022-04-09T10:29:10Z</time>
      </trkpt>
      <trkpt lat="41.6838580" lon="1.8671500">
        <ele>214.0</ele>
        <time>2022-04-09T10:29:13Z</time>
      </trkpt>
      <trkpt lat="41.6836970" lon="1.8670560">
        <ele>214.4</ele>
        <time>2022-04-09T10:29:18Z</time>
      </trkpt>
      <trkpt lat="41.6834350" lon="1.8668930">
        <ele>214.2</ele>
        <time>2022-04-09T10:29:24Z</time>
      </trkpt>
      <trkpt lat="41.6831070" lon="1.8666890">
        <ele>213.4</ele>
        <time>2022-04-09T10:29:30Z</time>
      </trkpt>
      <trkpt lat="41.6830490" lon="1.8666510">
        <ele>213.0</ele>
        <time>2022-04-09T10:29:31Z</time>
      </trkpt>
      <trkpt lat="41.6827930" lon="1.8664860">
        <ele>211.8</ele>
        <time>2022-04-09T10:29:35Z</time>
      </trkpt>
      <trkpt lat="41.6827120" lon="1.8664330">
        <ele>211.6</ele>
        <time>2022-04-09T10:29:36Z</time>
      </trkpt>
      <trkpt lat="41.6825040" lon="1.8663000">
        <ele>210.2</ele>
        <time>2022-04-09T10:29:39Z</time>
      </trkpt>
      <trkpt lat="41.6822540" lon="1.8661310">
        <ele>209.2</ele>
        <time>2022-04-09T10:29:42Z</time>
      </trkpt>
      <trkpt lat="41.6820330" lon="1.8659780">
        <ele>208.0</ele>
        <time>2022-04-09T10:29:45Z</time>
      </trkpt>
      <trkpt lat="41.6818900" lon="1.8658800">
        <ele>207.0</ele>
        <time>2022-04-09T10:29:47Z</time>
      </trkpt>
      <trkpt lat="41.6814680" lon="1.8655840">
        <ele>205.8</ele>
        <time>2022-04-09T10:29:53Z</time>
      </trkpt>
      <trkpt lat="41.6812650" lon="1.8654410">
        <ele>205.2</ele>
        <time>2022-04-09T10:29:56Z</time>
      </trkpt>
      <trkpt lat="41.6808870" lon="1.8651830">
        <ele>205.2</ele>
        <time>2022-04-09T10:30:02Z</time>
      </trkpt>
      <trkpt lat="41.6806870" lon="1.8650300">
        <ele>205.0</ele>
        <time>2022-04-09T10:30:05Z</time>
      </trkpt>
      <trkpt lat="41.6805750" lon="1.8649040">
        <ele>204.8</ele>
        <time>2022-04-09T10:30:07Z</time>
      </trkpt>
      <trkpt lat="41.6805320" lon="1.8648410">
        <ele>204.6</ele>
        <time>2022-04-09T10:30:08Z</time>
      </trkpt>
      <trkpt lat="41.6804280" lon="1.8646520">
        <ele>204.4</ele>
        <time>2022-04-09T10:30:10Z</time>
      </trkpt>
      <trkpt lat="41.6803630" lon="1.8644810">
        <ele>204.2</ele>
        <time>2022-04-09T10:30:12Z</time>
      </trkpt>
      <trkpt lat="41.6802420" lon="1.8640770">
        <ele>203.6</ele>
        <time>2022-04-09T10:30:16Z</time>
      </trkpt>
      <trkpt lat="41.6801620" lon="1.8638050">
        <ele>203.4</ele>
        <time>2022-04-09T10:30:19Z</time>
      </trkpt>
      <trkpt lat="41.6800050" lon="1.8632620">
        <ele>203.2</ele>
        <time>2022-04-09T10:30:25Z</time>
      </trkpt>
      <trkpt lat="41.6797810" lon="1.8625370">
        <ele>203.2</ele>
        <time>2022-04-09T10:30:33Z</time>
      </trkpt>
      <trkpt lat="41.6797040" lon="1.8623630">
        <ele>203.2</ele>
        <time>2022-04-09T10:30:35Z</time>
      </trkpt>
      <trkpt lat="41.6796030" lon="1.8622050">
        <ele>203.2</ele>
        <time>2022-04-09T10:30:37Z</time>
      </trkpt>
      <trkpt lat="41.6795460" lon="1.8621350">
        <ele>203.2</ele>
        <time>2022-04-09T10:30:38Z</time>
      </trkpt>
      <trkpt lat="41.6794830" lon="1.8620720">
        <ele>203.2</ele>
        <time>2022-04-09T10:30:39Z</time>
      </trkpt>
      <trkpt lat="41.6793450" lon="1.8619800">
        <ele>203.0</ele>
        <time>2022-04-09T10:30:41Z</time>
      </trkpt>
      <trkpt lat="41.6792700" lon="1.8619450">
        <ele>203.0</ele>
        <time>2022-04-09T10:30:42Z</time>
      </trkpt>
      <trkpt lat="41.6789530" lon="1.8618490">
        <ele>202.4</ele>
        <time>2022-04-09T10:30:46Z</time>
      </trkpt>
      <trkpt lat="41.6787920" lon="1.8618040">
        <ele>202.0</ele>
        <time>2022-04-09T10:30:48Z</time>
      </trkpt>
      <trkpt lat="41.6783230" lon="1.8616730">
        <ele>201.4</ele>
        <time>2022-04-09T10:30:54Z</time>
      </trkpt>
      <trkpt lat="41.6780390" lon="1.8615960">
        <ele>200.4</ele>
        <time>2022-04-09T10:30:57Z</time>
      </trkpt>
      <trkpt lat="41.6779460" lon="1.8615720">
        <ele>200.0</ele>
        <time>2022-04-09T10:30:58Z</time>
      </trkpt>
      <trkpt lat="41.6776570" lon="1.8615030">
        <ele>199.0</ele>
        <time>2022-04-09T10:31:01Z</time>
      </trkpt>
      <trkpt lat="41.6773590" lon="1.8614250">
        <ele>197.6</ele>
        <time>2022-04-09T10:31:04Z</time>
      </trkpt>
      <trkpt lat="41.6772570" lon="1.8613960">
        <ele>197.0</ele>
        <time>2022-04-09T10:31:05Z</time>
      </trkpt>
      <trkpt lat="41.6771540" lon="1.8613680">
        <ele>196.2</ele>
        <time>2022-04-09T10:31:06Z</time>
      </trkpt>
      <trkpt lat="41.6769630" lon="1.8613170">
        <ele>194.8</ele>
        <time>2022-04-09T10:31:08Z</time>
      </trkpt>
      <trkpt lat="41.6767240" lon="1.8612530">
        <ele>193.6</ele>
        <time>2022-04-09T10:31:10Z</time>
      </trkpt>
      <trkpt lat="41.6766340" lon="1.8612300">
        <ele>193.0</ele>
        <time>2022-04-09T10:31:11Z</time>
      </trkpt>
      <trkpt lat="41.6764100" lon="1.8611670">
        <ele>192.0</ele>
        <time>2022-04-09T10:31:13Z</time>
      </trkpt>
      <trkpt lat="41.6760480" lon="1.8610660">
        <ele>190.0</ele>
        <time>2022-04-09T10:31:16Z</time>
      </trkpt>
      <trkpt lat="41.6758220" lon="1.8610120">
        <ele>189.0</ele>
        <time>2022-04-09T10:31:18Z</time>
      </trkpt>
      <trkpt lat="41.6756090" lon="1.8609860">
        <ele>187.4</ele>
        <time>2022-04-09T10:31:20Z</time>
      </trkpt>
      <trkpt lat="41.6755080" lon="1.8609920">
        <ele>185.8</ele>
        <time>2022-04-09T10:31:21Z</time>
      </trkpt>
      <trkpt lat="41.6754260" lon="1.8610030">
        <ele>185.2</ele>
        <time>2022-04-09T10:31:22Z</time>
      </trkpt>
      <trkpt lat="41.6753060" lon="1.8610290">
        <ele>184.4</ele>
        <time>2022-04-09T10:31:23Z</time>
      </trkpt>
      <trkpt lat="41.6751360" lon="1.8610820">
        <ele>183.4</ele>
        <time>2022-04-09T10:31:25Z</time>
      </trkpt>
      <trkpt lat="41.6749500" lon="1.8611470">
        <ele>182.6</ele>
        <time>2022-04-09T10:31:27Z</time>
      </trkpt>
      <trkpt lat="41.6748420" lon="1.8611870">
        <ele>181.8</ele>
        <time>2022-04-09T10:31:28Z</time>
      </trkpt>
      <trkpt lat="41.6746660" lon="1.8612580">
        <ele>180.8</ele>
        <time>2022-04-09T10:31:30Z</time>
      </trkpt>
      <trkpt lat="41.6744850" lon="1.8613180">
        <ele>179.4</ele>
        <time>2022-04-09T10:31:32Z</time>
      </trkpt>
      <trkpt lat="41.6743200" lon="1.8613680">
        <ele>178.2</ele>
        <time>2022-04-09T10:31:34Z</time>
      </trkpt>
      <trkpt lat="41.6740450" lon="1.8614600">
        <ele>177.0</ele>
        <time>2022-04-09T10:31:37Z</time>
      </trkpt>
      <trkpt lat="41.6738660" lon="1.8615200">
        <ele>176.6</ele>
        <time>2022-04-09T10:31:39Z</time>
      </trkpt>
      <trkpt lat="41.6735960" lon="1.8616140">
        <ele>175.8</ele>
        <time>2022-04-09T10:31:42Z</time>
      </trkpt>
      <trkpt lat="41.6734120" lon="1.8616650">
        <ele>174.8</ele>
        <time>2022-04-09T10:31:44Z</time>
      </trkpt>
      <trkpt lat="41.6733280" lon="1.8616970">
        <ele>174.6</ele>
        <time>2022-04-09T10:31:45Z</time>
      </trkpt>
      <trkpt lat="41.6730740" lon="1.8617900">
        <ele>173.6</ele>
        <time>2022-04-09T10:31:48Z</time>
      </trkpt>
      <trkpt lat="41.6729220" lon="1.8618430">
        <ele>173.0</ele>
        <time>2022-04-09T10:31:50Z</time>
      </trkpt>
      <trkpt lat="41.6727380" lon="1.8619050">
        <ele>172.4</ele>
        <time>2022-04-09T10:31:52Z</time>
      </trkpt>
      <trkpt lat="41.6725020" lon="1.8619890">
        <ele>171.4</ele>
        <time>2022-04-09T10:31:55Z</time>
      </trkpt>
      <trkpt lat="41.6722400" lon="1.8620860">
        <ele>170.4</ele>
        <time>2022-04-09T10:31:58Z</time>
      </trkpt>
      <trkpt lat="41.6721610" lon="1.8621160">
        <ele>170.2</ele>
        <time>2022-04-09T10:31:59Z</time>
      </trkpt>
      <trkpt lat="41.6720060" lon="1.8621770">
        <ele>169.2</ele>
        <time>2022-04-09T10:32:01Z</time>
      </trkpt>
      <trkpt lat="41.6716200" lon="1.8623100">
        <ele>168.6</ele>
        <time>2022-04-09T10:32:06Z</time>
      </trkpt>
      <trkpt lat="41.6714180" lon="1.8623790">
        <ele>168.2</ele>
        <time>2022-04-09T10:32:09Z</time>
      </trkpt>
      <trkpt lat="41.6712690" lon="1.8624280">
        <ele>168.0</ele>
        <time>2022-04-09T10:32:11Z</time>
      </trkpt>
      <trkpt lat="41.6708700" lon="1.8625660">
        <ele>167.6</ele>
        <time>2022-04-09T10:32:17Z</time>
      </trkpt>
      <trkpt lat="41.6706090" lon="1.8626750">
        <ele>167.0</ele>
        <time>2022-04-09T10:32:21Z</time>
      </trkpt>
      <trkpt lat="41.6705470" lon="1.8626970">
        <ele>166.8</ele>
        <time>2022-04-09T10:32:22Z</time>
      </trkpt>
      <trkpt lat="41.6704860" lon="1.8627210">
        <ele>166.8</ele>
        <time>2022-04-09T10:32:23Z</time>
      </trkpt>
      <trkpt lat="41.6702680" lon="1.8627920">
        <ele>166.4</ele>
        <time>2022-04-09T10:32:27Z</time>
      </trkpt>
      <trkpt lat="41.6701990" lon="1.8628150">
        <ele>166.2</ele>
        <time>2022-04-09T10:32:28Z</time>
      </trkpt>
      <trkpt lat="41.6700150" lon="1.8629020">
        <ele>166.0</ele>
        <time>2022-04-09T10:32:31Z</time>
      </trkpt>
      <trkpt lat="41.6699260" lon="1.8629060">
        <ele>166.0</ele>
        <time>2022-04-09T10:32:33Z</time>
      </trkpt>
      <trkpt lat="41.6697400" lon="1.8629770">
        <ele>166.2</ele>
        <time>2022-04-09T10:32:37Z</time>
      </trkpt>
      <trkpt lat="41.6697100" lon="1.8629880">
        <ele>166.2</ele>
        <time>2022-04-09T10:32:38Z</time>
      </trkpt>
      <trkpt lat="41.6696500" lon="1.8630130">
        <ele>166.2</ele>
        <time>2022-04-09T10:32:41Z</time>
      </trkpt>
      <trkpt lat="41.6696210" lon="1.8630290">
        <ele>166.2</ele>
        <time>2022-04-09T10:32:44Z</time>
      </trkpt>
      <trkpt lat="41.6695650" lon="1.8630500">
        <ele>166.2</ele>
        <time>2022-04-09T10:32:46Z</time>
      </trkpt>
      <trkpt lat="41.6693530" lon="1.8631350">
        <ele>166.2</ele>
        <time>2022-04-09T10:32:52Z</time>
      </trkpt>
      <trkpt lat="41.6691340" lon="1.8632000">
        <ele>166.2</ele>
        <time>2022-04-09T10:32:57Z</time>
      </trkpt>
      <trkpt lat="41.6690760" lon="1.8632140">
        <ele>166.2</ele>
        <time>2022-04-09T10:32:58Z</time>
      </trkpt>
      <trkpt lat="41.6689150" lon="1.8632660">
        <ele>166.0</ele>
        <time>2022-04-09T10:33:01Z</time>
      </trkpt>
      <trkpt lat="41.6685890" lon="1.8633700">
        <ele>165.8</ele>
        <time>2022-04-09T10:33:07Z</time>
      </trkpt>
      <trkpt lat="41.6684490" lon="1.8634180">
        <ele>165.8</ele>
        <time>2022-04-09T10:33:09Z</time>
      </trkpt>
      <trkpt lat="41.6682820" lon="1.8634740">
        <ele>166.2</ele>
        <time>2022-04-09T10:33:12Z</time>
      </trkpt>
      <trkpt lat="41.6681820" lon="1.8635120">
        <ele>166.6</ele>
        <time>2022-04-09T10:33:14Z</time>
      </trkpt>
      <trkpt lat="41.6681400" lon="1.8636760">
        <ele>167.0</ele>
        <time>2022-04-09T10:33:16Z</time>
      </trkpt>
      <trkpt lat="41.6681340" lon="1.8638040">
        <ele>167.2</ele>
        <time>2022-04-09T10:33:17Z</time>
      </trkpt>
      <trkpt lat="41.6681330" lon="1.8639110">
        <ele>167.4</ele>
        <time>2022-04-09T10:33:18Z</time>
      </trkpt>
      <trkpt lat="41.6681260" lon="1.8641190">
        <ele>167.4</ele>
        <time>2022-04-09T10:33:20Z</time>
      </trkpt>
      <trkpt lat="41.6681380" lon="1.8642310">
        <ele>167.6</ele>
        <time>2022-04-09T10:33:21Z</time>
      </trkpt>
      <trkpt lat="41.6681600" lon="1.8645440">
        <ele>167.2</ele>
        <time>2022-04-09T10:33:24Z</time>
      </trkpt>
      <trkpt lat="41.6680370" lon="1.8646930">
        <ele>166.6</ele>
        <time>2022-04-09T10:33:26Z</time>
      </trkpt>
      <trkpt lat="41.6679520" lon="1.8647390">
        <ele>166.2</ele>
        <time>2022-04-09T10:33:27Z</time>
      </trkpt>
      <trkpt lat="41.6678670" lon="1.8647220">
        <ele>165.8</ele>
        <time>2022-04-09T10:33:28Z</time>
      </trkpt>
      <trkpt lat="41.6677650" lon="1.8646230">
        <ele>165.2</ele>
        <time>2022-04-09T10:33:30Z</time>
      </trkpt>
      <trkpt lat="41.6677030" lon="1.8645230">
        <ele>165.0</ele>
        <time>2022-04-09T10:33:31Z</time>
      </trkpt>
      <trkpt lat="41.6675080" lon="1.8641650">
        <ele>163.2</ele>
        <time>2022-04-09T10:33:35Z</time>
      </trkpt>
      <trkpt lat="41.6673480" lon="1.8638900">
        <ele>162.4</ele>
        <time>2022-04-09T10:33:38Z</time>
      </trkpt>
      <trkpt lat="41.6673040" lon="1.8638140">
        <ele>162.0</ele>
        <time>2022-04-09T10:33:39Z</time>
      </trkpt>
      <trkpt lat="41.6672560" lon="1.8637460">
        <ele>161.8</ele>
        <time>2022-04-09T10:33:40Z</time>
      </trkpt>
      <trkpt lat="41.6672200" lon="1.8637120">
        <ele>160.6</ele>
        <time>2022-04-09T10:33:41Z</time>
      </trkpt>
      <trkpt lat="41.6671820" lon="1.8636870">
        <ele>160.0</ele>
        <time>2022-04-09T10:33:42Z</time>
      </trkpt>
      <trkpt lat="41.6671480" lon="1.8636590">
        <ele>159.6</ele>
        <time>2022-04-09T10:33:43Z</time>
      </trkpt>
      <trkpt lat="41.6671370" lon="1.8636360">
        <ele>159.2</ele>
        <time>2022-04-09T10:33:44Z</time>
      </trkpt>
      <trkpt lat="41.6671180" lon="1.8635970">
        <ele>158.8</ele>
        <time>2022-04-09T10:33:46Z</time>
      </trkpt>
      <trkpt lat="41.6671040" lon="1.8635630">
        <ele>158.6</ele>
        <time>2022-04-09T10:33:47Z</time>
      </trkpt>
      <trkpt lat="41.6670900" lon="1.8635290">
        <ele>158.2</ele>
        <time>2022-04-09T10:33:50Z</time>
      </trkpt>
      <trkpt lat="41.6670760" lon="1.8634960">
        <ele>158.0</ele>
        <time>2022-04-09T10:33:51Z</time>
      </trkpt>
      <trkpt lat="41.6669740" lon="1.8631640">
        <ele>158.0</ele>
        <time>2022-04-09T10:33:56Z</time>
      </trkpt>
      <trkpt lat="41.6669420" lon="1.8630970">
        <ele>157.6</ele>
        <time>2022-04-09T10:33:57Z</time>
      </trkpt>
      <trkpt lat="41.6668730" lon="1.8629710">
        <ele>157.8</ele>
        <time>2022-04-09T10:33:59Z</time>
      </trkpt>
      <trkpt lat="41.6668090" lon="1.8628360">
        <ele>157.6</ele>
        <time>2022-04-09T10:34:01Z</time>
      </trkpt>
      <trkpt lat="41.6667360" lon="1.8626920">
        <ele>157.4</ele>
        <time>2022-04-09T10:34:03Z</time>
      </trkpt>
      <trkpt lat="41.6666170" lon="1.8623990">
        <ele>156.8</ele>
        <time>2022-04-09T10:34:06Z</time>
      </trkpt>
      <trkpt lat="41.6665800" lon="1.8623260">
        <ele>156.4</ele>
        <time>2022-04-09T10:34:07Z</time>
      </trkpt>
      <trkpt lat="41.6665380" lon="1.8622480">
        <ele>156.2</ele>
        <time>2022-04-09T10:34:08Z</time>
      </trkpt>
      <trkpt lat="41.6664620" lon="1.8620380">
        <ele>156.2</ele>
        <time>2022-04-09T10:34:10Z</time>
      </trkpt>
      <trkpt lat="41.6662990" lon="1.8617120">
        <ele>155.2</ele>
        <time>2022-04-09T10:34:14Z</time>
      </trkpt>
      <trkpt lat="41.6662210" lon="1.8615640">
        <ele>154.8</ele>
        <time>2022-04-09T10:34:16Z</time>
      </trkpt>
      <trkpt lat="41.6660670" lon="1.8612590">
        <ele>154.2</ele>
        <time>2022-04-09T10:34:20Z</time>
      </trkpt>
      <trkpt lat="41.6659400" lon="1.8610180">
        <ele>153.6</ele>
        <time>2022-04-09T10:34:23Z</time>
      </trkpt>
      <trkpt lat="41.6657050" lon="1.8606190">
        <ele>153.0</ele>
        <time>2022-04-09T10:34:28Z</time>
      </trkpt>
      <trkpt lat="41.6656140" lon="1.8604030">
        <ele>152.6</ele>
        <time>2022-04-09T10:34:31Z</time>
      </trkpt>
      <trkpt lat="41.6655950" lon="1.8602980">
        <ele>152.4</ele>
        <time>2022-04-09T10:34:32Z</time>
      </trkpt>
      <trkpt lat="41.6655920" lon="1.8602060">
        <ele>152.4</ele>
        <time>2022-04-09T10:34:33Z</time>
      </trkpt>
      <trkpt lat="41.6656170" lon="1.8600500">
        <ele>152.4</ele>
        <time>2022-04-09T10:34:35Z</time>
      </trkpt>
      <trkpt lat="41.6656620" lon="1.8598880">
        <ele>152.4</ele>
        <time>2022-04-09T10:34:37Z</time>
      </trkpt>
      <trkpt lat="41.6657150" lon="1.8597410">
        <ele>152.4</ele>
        <time>2022-04-09T10:34:39Z</time>
      </trkpt>
      <trkpt lat="41.6657900" lon="1.8595090">
        <ele>152.8</ele>
        <time>2022-04-09T10:34:42Z</time>
      </trkpt>
      <trkpt lat="41.6658210" lon="1.8592740">
        <ele>153.4</ele>
        <time>2022-04-09T10:34:45Z</time>
      </trkpt>
      <trkpt lat="41.6658100" lon="1.8591110">
        <ele>153.8</ele>
        <time>2022-04-09T10:34:47Z</time>
      </trkpt>
      <trkpt lat="41.6657880" lon="1.8590210">
        <ele>153.8</ele>
        <time>2022-04-09T10:34:48Z</time>
      </trkpt>
      <trkpt lat="41.6657630" lon="1.8589470">
        <ele>154.0</ele>
        <time>2022-04-09T10:34:49Z</time>
      </trkpt>
      <trkpt lat="41.6657440" lon="1.8588890">
        <ele>154.4</ele>
        <time>2022-04-09T10:34:50Z</time>
      </trkpt>
      <trkpt lat="41.6657080" lon="1.8587990">
        <ele>154.6</ele>
        <time>2022-04-09T10:34:51Z</time>
      </trkpt>
      <trkpt lat="41.6656450" lon="1.8586430">
        <ele>155.0</ele>
        <time>2022-04-09T10:34:53Z</time>
      </trkpt>
      <trkpt lat="41.6654200" lon="1.8580730">
        <ele>155.4</ele>
        <time>2022-04-09T10:35:00Z</time>
      </trkpt>
      <trkpt lat="41.6651250" lon="1.8573900">
        <ele>155.0</ele>
        <time>2022-04-09T10:35:08Z</time>
      </trkpt>
      <trkpt lat="41.6649830" lon="1.8570500">
        <ele>154.8</ele>
        <time>2022-04-09T10:35:13Z</time>
      </trkpt>
      <trkpt lat="41.6649630" lon="1.8569840">
        <ele>154.8</ele>
        <time>2022-04-09T10:35:14Z</time>
      </trkpt>
      <trkpt lat="41.6649770" lon="1.8568370">
        <ele>154.8</ele>
        <time>2022-04-09T10:35:16Z</time>
      </trkpt>
      <trkpt lat="41.6650150" lon="1.8565900">
        <ele>154.8</ele>
        <time>2022-04-09T10:35:19Z</time>
      </trkpt>
      <trkpt lat="41.6650070" lon="1.8565040">
        <ele>155.0</ele>
        <time>2022-04-09T10:35:20Z</time>
      </trkpt>
      <trkpt lat="41.6649890" lon="1.8563430">
        <ele>155.0</ele>
        <time>2022-04-09T10:35:22Z</time>
      </trkpt>
      <trkpt lat="41.6650460" lon="1.8561950">
        <ele>155.0</ele>
        <time>2022-04-09T10:35:24Z</time>
      </trkpt>
      <trkpt lat="41.6652680" lon="1.8559680">
        <ele>155.2</ele>
        <time>2022-04-09T10:35:28Z</time>
      </trkpt>
      <trkpt lat="41.6655650" lon="1.8555180">
        <ele>155.2</ele>
        <time>2022-04-09T10:35:34Z</time>
      </trkpt>
      <trkpt lat="41.6657080" lon="1.8552640">
        <ele>155.0</ele>
        <time>2022-04-09T10:35:37Z</time>
      </trkpt>
      <trkpt lat="41.6658360" lon="1.8551210">
        <ele>154.8</ele>
        <time>2022-04-09T10:35:39Z</time>
      </trkpt>
      <trkpt lat="41.6661550" lon="1.8549610">
        <ele>154.2</ele>
        <time>2022-04-09T10:35:43Z</time>
      </trkpt>
      <trkpt lat="41.6662340" lon="1.8549260">
        <ele>154.0</ele>
        <time>2022-04-09T10:35:44Z</time>
      </trkpt>
      <trkpt lat="41.6665510" lon="1.8547980">
        <ele>153.2</ele>
        <time>2022-04-09T10:35:48Z</time>
      </trkpt>
      <trkpt lat="41.6668960" lon="1.8546590">
        <ele>152.4</ele>
        <time>2022-04-09T10:35:53Z</time>
      </trkpt>
      <trkpt lat="41.6672870" lon="1.8544620">
        <ele>152.6</ele>
        <time>2022-04-09T10:35:59Z</time>
      </trkpt>
      <trkpt lat="41.6676420" lon="1.8543480">
        <ele>152.8</ele>
        <time>2022-04-09T10:36:04Z</time>
      </trkpt>
      <trkpt lat="41.6677920" lon="1.8543320">
        <ele>152.8</ele>
        <time>2022-04-09T10:36:06Z</time>
      </trkpt>
      <trkpt lat="41.6680860" lon="1.8543230">
        <ele>152.8</ele>
        <time>2022-04-09T10:36:10Z</time>
      </trkpt>
      <trkpt lat="41.6686660" lon="1.8543100">
        <ele>152.6</ele>
        <time>2022-04-09T10:36:18Z</time>
      </trkpt>
      <trkpt lat="41.6687380" lon="1.8543070">
        <ele>152.6</ele>
        <time>2022-04-09T10:36:19Z</time>
      </trkpt>
      <trkpt lat="41.6691420" lon="1.8542930">
        <ele>153.0</ele>
        <time>2022-04-09T10:36:25Z</time>
      </trkpt>
      <trkpt lat="41.6695100" lon="1.8541600">
        <ele>153.4</ele>
        <time>2022-04-09T10:36:31Z</time>
      </trkpt>
      <trkpt lat="41.6695710" lon="1.8541450">
        <ele>153.4</ele>
        <time>2022-04-09T10:36:32Z</time>
      </trkpt>
      <trkpt lat="41.6696830" lon="1.8541800">
        <ele>153.4</ele>
        <time>2022-04-09T10:36:34Z</time>
      </trkpt>
      <trkpt lat="41.6697060" lon="1.8542780">
        <ele>153.8</ele>
        <time>2022-04-09T10:36:36Z</time>
      </trkpt>
      <trkpt lat="41.6696850" lon="1.8543290">
        <ele>153.8</ele>
        <time>2022-04-09T10:36:37Z</time>
      </trkpt>
      <trkpt lat="41.6695990" lon="1.8544000">
        <ele>153.8</ele>
        <time>2022-04-09T10:36:39Z</time>
      </trkpt>
      <trkpt lat="41.6694900" lon="1.8544440">
        <ele>154.0</ele>
        <time>2022-04-09T10:36:41Z</time>
      </trkpt>
      <trkpt lat="41.6692460" lon="1.8545340">
        <ele>153.8</ele>
        <time>2022-04-09T10:36:45Z</time>
      </trkpt>
      <trkpt lat="41.6687050" lon="1.8547610">
        <ele>153.4</ele>
        <time>2022-04-09T10:36:53Z</time>
      </trkpt>
      <trkpt lat="41.6681350" lon="1.8549860">
        <ele>153.2</ele>
        <time>2022-04-09T10:37:01Z</time>
      </trkpt>
      <trkpt lat="41.6680630" lon="1.8550140">
        <ele>153.0</ele>
        <time>2022-04-09T10:37:02Z</time>
      </trkpt>
      <trkpt lat="41.6674960" lon="1.8552670">
        <ele>152.6</ele>
        <time>2022-04-09T10:37:10Z</time>
      </trkpt>
      <trkpt lat="41.6673590" lon="1.8553370">
        <ele>152.2</ele>
        <time>2022-04-09T10:37:12Z</time>
      </trkpt>
      <trkpt lat="41.6668420" lon="1.8556120">
        <ele>153.0</ele>
        <time>2022-04-09T10:37:20Z</time>
      </trkpt>
      <trkpt lat="41.6667820" lon="1.8556420">
        <ele>153.2</ele>
        <time>2022-04-09T10:37:21Z</time>
      </trkpt>
      <trkpt lat="41.6665000" lon="1.8558030">
        <ele>154.2</ele>
        <time>2022-04-09T10:37:26Z</time>
      </trkpt>
      <trkpt lat="41.6663960" lon="1.8558590">
        <ele>154.6</ele>
        <time>2022-04-09T10:37:28Z</time>
      </trkpt>
      <trkpt lat="41.6663240" lon="1.8558960">
        <ele>155.2</ele>
        <time>2022-04-09T10:37:29Z</time>
      </trkpt>
      <trkpt lat="41.6660340" lon="1.8560440">
        <ele>156.2</ele>
        <time>2022-04-09T10:37:34Z</time>
      </trkpt>
      <trkpt lat="41.6656960" lon="1.8562080">
        <ele>157.2</ele>
        <time>2022-04-09T10:37:40Z</time>
      </trkpt>
      <trkpt lat="41.6655310" lon="1.8562890">
        <ele>158.4</ele>
        <time>2022-04-09T10:37:43Z</time>
      </trkpt>
      <trkpt lat="41.6653720" lon="1.8563610">
        <ele>159.4</ele>
        <time>2022-04-09T10:37:46Z</time>
      </trkpt>
      <trkpt lat="41.6651470" lon="1.8564590">
        <ele>160.2</ele>
        <time>2022-04-09T10:37:50Z</time>
      </trkpt>
      <trkpt lat="41.6650440" lon="1.8565080">
        <ele>160.4</ele>
        <time>2022-04-09T10:37:52Z</time>
      </trkpt>
      <trkpt lat="41.6648930" lon="1.8565890">
        <ele>161.8</ele>
        <time>2022-04-09T10:37:55Z</time>
      </trkpt>
      <trkpt lat="41.6647470" lon="1.8566760">
        <ele>162.8</ele>
        <time>2022-04-09T10:37:58Z</time>
      </trkpt>
      <trkpt lat="41.6646990" lon="1.8567080">
        <ele>162.8</ele>
        <time>2022-04-09T10:37:59Z</time>
      </trkpt>
      <trkpt lat="41.6644360" lon="1.8568940">
        <ele>164.2</ele>
        <time>2022-04-09T10:38:05Z</time>
      </trkpt>
      <trkpt lat="41.6643450" lon="1.8569660">
        <ele>164.6</ele>
        <time>2022-04-09T10:38:07Z</time>
      </trkpt>
      <trkpt lat="41.6641100" lon="1.8571840">
        <ele>165.4</ele>
        <time>2022-04-09T10:38:12Z</time>
      </trkpt>
      <trkpt lat="41.6639780" lon="1.8573130">
        <ele>166.0</ele>
        <time>2022-04-09T10:38:15Z</time>
      </trkpt>
      <trkpt lat="41.6637230" lon="1.8575770">
        <ele>166.4</ele>
        <time>2022-04-09T10:38:21Z</time>
      </trkpt>
      <trkpt lat="41.6636330" lon="1.8576700">
        <ele>166.6</ele>
        <time>2022-04-09T10:38:23Z</time>
      </trkpt>
      <trkpt lat="41.6632140" lon="1.8580620">
        <ele>167.0</ele>
        <time>2022-04-09T10:38:32Z</time>
      </trkpt>
      <trkpt lat="41.6627170" lon="1.8584150">
        <ele>167.0</ele>
        <time>2022-04-09T10:38:41Z</time>
      </trkpt>
      <trkpt lat="41.6622030" lon="1.8586720">
        <ele>166.2</ele>
        <time>2022-04-09T10:38:49Z</time>
      </trkpt>
      <trkpt lat="41.6621330" lon="1.8587010">
        <ele>166.2</ele>
        <time>2022-04-09T10:38:50Z</time>
      </trkpt>
      <trkpt lat="41.6615870" lon="1.8588460">
        <ele>165.4</ele>
        <time>2022-04-09T10:38:57Z</time>
      </trkpt>
      <trkpt lat="41.6615050" lon="1.8588560">
        <ele>165.2</ele>
        <time>2022-04-09T10:38:58Z</time>
      </trkpt>
      <trkpt lat="41.6610860" lon="1.8588710">
        <ele>164.0</ele>
        <time>2022-04-09T10:39:03Z</time>
      </trkpt>
      <trkpt lat="41.6606590" lon="1.8588460">
        <ele>162.8</ele>
        <time>2022-04-09T10:39:08Z</time>
      </trkpt>
      <trkpt lat="41.6605720" lon="1.8588360">
        <ele>162.4</ele>
        <time>2022-04-09T10:39:09Z</time>
      </trkpt>
      <trkpt lat="41.6605040" lon="1.8588280">
        <ele>161.8</ele>
        <time>2022-04-09T10:39:10Z</time>
      </trkpt>
      <trkpt lat="41.6600580" lon="1.8587660">
        <ele>160.8</ele>
        <time>2022-04-09T10:39:15Z</time>
      </trkpt>
      <trkpt lat="41.6598020" lon="1.8587110">
        <ele>160.0</ele>
        <time>2022-04-09T10:39:18Z</time>
      </trkpt>
      <trkpt lat="41.6596320" lon="1.8586780">
        <ele>159.4</ele>
        <time>2022-04-09T10:39:20Z</time>
      </trkpt>
      <trkpt lat="41.6591660" lon="1.8585620">
        <ele>158.8</ele>
        <time>2022-04-09T10:39:26Z</time>
      </trkpt>
      <trkpt lat="41.6590400" lon="1.8585010">
        <ele>158.6</ele>
        <time>2022-04-09T10:39:28Z</time>
      </trkpt>
      <trkpt lat="41.6588180" lon="1.8584440">
        <ele>158.2</ele>
        <time>2022-04-09T10:39:31Z</time>
      </trkpt>
      <trkpt lat="41.6583390" lon="1.8583260">
        <ele>157.6</ele>
        <time>2022-04-09T10:39:38Z</time>
      </trkpt>
      <trkpt lat="41.6581310" lon="1.8582740">
        <ele>157.2</ele>
        <time>2022-04-09T10:39:41Z</time>
      </trkpt>
      <trkpt lat="41.6575950" lon="1.8581450">
        <ele>156.8</ele>
        <time>2022-04-09T10:39:49Z</time>
      </trkpt>
      <trkpt lat="41.6571400" lon="1.8580490">
        <ele>156.4</ele>
        <time>2022-04-09T10:39:56Z</time>
      </trkpt>
      <trkpt lat="41.6569290" lon="1.8579960">
        <ele>156.2</ele>
        <time>2022-04-09T10:39:59Z</time>
      </trkpt>
      <trkpt lat="41.6564880" lon="1.8578770">
        <ele>155.6</ele>
        <time>2022-04-09T10:40:06Z</time>
      </trkpt>
      <trkpt lat="41.6559780" lon="1.8577530">
        <ele>155.6</ele>
        <time>2022-04-09T10:40:14Z</time>
      </trkpt>
      <trkpt lat="41.6555900" lon="1.8576720">
        <ele>155.4</ele>
        <time>2022-04-09T10:40:20Z</time>
      </trkpt>
      <trkpt lat="41.6552900" lon="1.8575890">
        <ele>155.0</ele>
        <time>2022-04-09T10:40:25Z</time>
      </trkpt>
      <trkpt lat="41.6551510" lon="1.8575560">
        <ele>155.0</ele>
        <time>2022-04-09T10:40:27Z</time>
      </trkpt>
      <trkpt lat="41.6547970" lon="1.8574760">
        <ele>154.4</ele>
        <time>2022-04-09T10:40:32Z</time>
      </trkpt>
      <trkpt lat="41.6542260" lon="1.8573450">
        <ele>154.2</ele>
        <time>2022-04-09T10:40:40Z</time>
      </trkpt>
      <trkpt lat="41.6541550" lon="1.8573300">
        <ele>154.2</ele>
        <time>2022-04-09T10:40:41Z</time>
      </trkpt>
      <trkpt lat="41.6540990" lon="1.8573150">
        <ele>153.8</ele>
        <time>2022-04-09T10:40:42Z</time>
      </trkpt>
      <trkpt lat="41.6535280" lon="1.8571870">
        <ele>154.0</ele>
        <time>2022-04-09T10:40:50Z</time>
      </trkpt>
      <trkpt lat="41.6533270" lon="1.8571440">
        <ele>154.0</ele>
        <time>2022-04-09T10:40:53Z</time>
      </trkpt>
      <trkpt lat="41.6529200" lon="1.8570840">
        <ele>154.2</ele>
        <time>2022-04-09T10:40:59Z</time>
      </trkpt>
      <trkpt lat="41.6523390" lon="1.8569540">
        <ele>154.8</ele>
        <time>2022-04-09T10:41:07Z</time>
      </trkpt>
      <trkpt lat="41.6522680" lon="1.8569370">
        <ele>154.8</ele>
        <time>2022-04-09T10:41:08Z</time>
      </trkpt>
      <trkpt lat="41.6521460" lon="1.8569140">
        <ele>155.0</ele>
        <time>2022-04-09T10:41:10Z</time>
      </trkpt>
      <trkpt lat="41.6519450" lon="1.8568750">
        <ele>155.0</ele>
        <time>2022-04-09T10:41:13Z</time>
      </trkpt>
      <trkpt lat="41.6516000" lon="1.8568600">
        <ele>156.0</ele>
        <time>2022-04-09T10:41:19Z</time>
      </trkpt>
      <trkpt lat="41.6515290" lon="1.8568640">
        <ele>156.4</ele>
        <time>2022-04-09T10:41:20Z</time>
      </trkpt>
      <trkpt lat="41.6514150" lon="1.8568760">
        <ele>156.8</ele>
        <time>2022-04-09T10:41:22Z</time>
      </trkpt>
      <trkpt lat="41.6513030" lon="1.8568960">
        <ele>157.4</ele>
        <time>2022-04-09T10:41:24Z</time>
      </trkpt>
      <trkpt lat="41.6511500" lon="1.8569280">
        <ele>157.8</ele>
        <time>2022-04-09T10:41:27Z</time>
      </trkpt>
      <trkpt lat="41.6510500" lon="1.8569320">
        <ele>158.2</ele>
        <time>2022-04-09T10:41:29Z</time>
      </trkpt>
      <trkpt lat="41.6509960" lon="1.8569400">
        <ele>158.4</ele>
        <time>2022-04-09T10:41:30Z</time>
      </trkpt>
      <trkpt lat="41.6509430" lon="1.8569540">
        <ele>158.8</ele>
        <time>2022-04-09T10:41:31Z</time>
      </trkpt>
      <trkpt lat="41.6508910" lon="1.8569730">
        <ele>158.8</ele>
        <time>2022-04-09T10:41:32Z</time>
      </trkpt>
      <trkpt lat="41.6506990" lon="1.8570590">
        <ele>159.8</ele>
        <time>2022-04-09T10:41:36Z</time>
      </trkpt>
      <trkpt lat="41.6505630" lon="1.8571250">
        <ele>160.2</ele>
        <time>2022-04-09T10:41:39Z</time>
      </trkpt>
      <trkpt lat="41.6504710" lon="1.8571670">
        <ele>161.0</ele>
        <time>2022-04-09T10:41:41Z</time>
      </trkpt>
      <trkpt lat="41.6504350" lon="1.8571840">
        <ele>161.2</ele>
        <time>2022-04-09T10:41:42Z</time>
      </trkpt>
      <trkpt lat="41.6503440" lon="1.8572300">
        <ele>161.8</ele>
        <time>2022-04-09T10:41:44Z</time>
      </trkpt>
      <trkpt lat="41.6503010" lon="1.8572430">
        <ele>162.2</ele>
        <time>2022-04-09T10:41:45Z</time>
      </trkpt>
      <trkpt lat="41.6502680" lon="1.8572540">
        <ele>162.4</ele>
        <time>2022-04-09T10:41:46Z</time>
      </trkpt>
      <trkpt lat="41.6501830" lon="1.8572820">
        <ele>163.0</ele>
        <time>2022-04-09T10:41:48Z</time>
      </trkpt>
      <trkpt lat="41.6501400" lon="1.8572980">
        <ele>163.2</ele>
        <time>2022-04-09T10:41:49Z</time>
      </trkpt>
      <trkpt lat="41.6500980" lon="1.8573130">
        <ele>163.8</ele>
        <time>2022-04-09T10:41:50Z</time>
      </trkpt>
      <trkpt lat="41.6500160" lon="1.8573490">
        <ele>164.6</ele>
        <time>2022-04-09T10:41:52Z</time>
      </trkpt>
      <trkpt lat="41.6499340" lon="1.8573820">
        <ele>165.4</ele>
        <time>2022-04-09T10:41:54Z</time>
      </trkpt>
      <trkpt lat="41.6499000" lon="1.8574000">
        <ele>165.8</ele>
        <time>2022-04-09T10:41:55Z</time>
      </trkpt>
      <trkpt lat="41.6496140" lon="1.8575390">
        <ele>167.2</ele>
        <time>2022-04-09T10:42:02Z</time>
      </trkpt>
      <trkpt lat="41.6495750" lon="1.8575560">
        <ele>167.4</ele>
        <time>2022-04-09T10:42:03Z</time>
      </trkpt>
      <trkpt lat="41.6494580" lon="1.8576070">
        <ele>168.4</ele>
        <time>2022-04-09T10:42:06Z</time>
      </trkpt>
      <trkpt lat="41.6492890" lon="1.8576650">
        <ele>169.2</ele>
        <time>2022-04-09T10:42:10Z</time>
      </trkpt>
      <trkpt lat="41.6492060" lon="1.8577160">
        <ele>169.6</ele>
        <time>2022-04-09T10:42:12Z</time>
      </trkpt>
      <trkpt lat="41.6490230" lon="1.8577840">
        <ele>170.6</ele>
        <time>2022-04-09T10:42:16Z</time>
      </trkpt>
      <trkpt lat="41.6487810" lon="1.8577780">
        <ele>171.2</ele>
        <time>2022-04-09T10:42:23Z</time>
      </trkpt>
      <trkpt lat="41.6486960" lon="1.8577800">
        <ele>171.8</ele>
        <time>2022-04-09T10:42:25Z</time>
      </trkpt>
      <trkpt lat="41.6485040" lon="1.8577480">
        <ele>172.4</ele>
        <time>2022-04-09T10:42:30Z</time>
      </trkpt>
      <trkpt lat="41.6483040" lon="1.8576710">
        <ele>172.8</ele>
        <time>2022-04-09T10:42:35Z</time>
      </trkpt>
      <trkpt lat="41.6481820" lon="1.8576070">
        <ele>173.2</ele>
        <time>2022-04-09T10:42:38Z</time>
      </trkpt>
      <trkpt lat="41.6481000" lon="1.8575670">
        <ele>173.8</ele>
        <time>2022-04-09T10:42:40Z</time>
      </trkpt>
      <trkpt lat="41.6478260" lon="1.8574410">
        <ele>174.6</ele>
        <time>2022-04-09T10:42:47Z</time>
      </trkpt>
      <trkpt lat="41.6477080" lon="1.8573860">
        <ele>174.8</ele>
        <time>2022-04-09T10:42:50Z</time>
      </trkpt>
      <trkpt lat="41.6475190" lon="1.8572970">
        <ele>175.6</ele>
        <time>2022-04-09T10:42:55Z</time>
      </trkpt>
      <trkpt lat="41.6474490" lon="1.8572530">
        <ele>176.0</ele>
        <time>2022-04-09T10:42:57Z</time>
      </trkpt>
      <trkpt lat="41.6473420" lon="1.8572080">
        <ele>176.4</ele>
        <time>2022-04-09T10:43:01Z</time>
      </trkpt>
      <trkpt lat="41.6473040" lon="1.8571970">
        <ele>177.0</ele>
        <time>2022-04-09T10:43:03Z</time>
      </trkpt>
      <trkpt lat="41.6472420" lon="1.8571760">
        <ele>177.4</ele>
        <time>2022-04-09T10:43:06Z</time>
      </trkpt>
      <trkpt lat="41.6471440" lon="1.8571400">
        <ele>178.2</ele>
        <time>2022-04-09T10:43:10Z</time>
      </trkpt>
      <trkpt lat="41.6470470" lon="1.8571230">
        <ele>178.4</ele>
        <time>2022-04-09T10:43:14Z</time>
      </trkpt>
      <trkpt lat="41.6468750" lon="1.8570610">
        <ele>179.4</ele>
        <time>2022-04-09T10:43:21Z</time>
      </trkpt>
      <trkpt lat="41.6468510" lon="1.8570560">
        <ele>179.6</ele>
        <time>2022-04-09T10:43:22Z</time>
      </trkpt>
      <trkpt lat="41.6466210" lon="1.8569950">
        <ele>180.6</ele>
        <time>2022-04-09T10:43:30Z</time>
      </trkpt>
      <trkpt lat="41.6465710" lon="1.8569770">
        <ele>180.8</ele>
        <time>2022-04-09T10:43:32Z</time>
      </trkpt>
      <trkpt lat="41.6465400" lon="1.8569710">
        <ele>180.8</ele>
        <time>2022-04-09T10:43:33Z</time>
      </trkpt>
      <trkpt lat="41.6462990" lon="1.8569460">
        <ele>181.0</ele>
        <time>2022-04-09T10:43:40Z</time>
      </trkpt>
      <trkpt lat="41.6461030" lon="1.8568970">
        <ele>180.6</ele>
        <time>2022-04-09T10:43:45Z</time>
      </trkpt>
      <trkpt lat="41.6460550" lon="1.8568870">
        <ele>180.8</ele>
        <time>2022-04-09T10:43:46Z</time>
      </trkpt>
      <trkpt lat="41.6459230" lon="1.8568300">
        <ele>180.6</ele>
        <time>2022-04-09T10:43:49Z</time>
      </trkpt>
      <trkpt lat="41.6457080" lon="1.8567770">
        <ele>180.0</ele>
        <time>2022-04-09T10:43:53Z</time>
      </trkpt>
      <trkpt lat="41.6456470" lon="1.8567750">
        <ele>179.8</ele>
        <time>2022-04-09T10:43:54Z</time>
      </trkpt>
      <trkpt lat="41.6455170" lon="1.8567790">
        <ele>179.6</ele>
        <time>2022-04-09T10:43:56Z</time>
      </trkpt>
      <trkpt lat="41.6453970" lon="1.8567510">
        <ele>179.4</ele>
        <time>2022-04-09T10:43:58Z</time>
      </trkpt>
      <trkpt lat="41.6450320" lon="1.8566720">
        <ele>178.6</ele>
        <time>2022-04-09T10:44:04Z</time>
      </trkpt>
      <trkpt lat="41.6447560" lon="1.8566790">
        <ele>178.2</ele>
        <time>2022-04-09T10:44:08Z</time>
      </trkpt>
      <trkpt lat="41.6446160" lon="1.8566890">
        <ele>178.0</ele>
        <time>2022-04-09T10:44:10Z</time>
      </trkpt>
      <trkpt lat="41.6443380" lon="1.8566950">
        <ele>177.2</ele>
        <time>2022-04-09T10:44:14Z</time>
      </trkpt>
      <trkpt lat="41.6441230" lon="1.8566940">
        <ele>176.2</ele>
        <time>2022-04-09T10:44:17Z</time>
      </trkpt>
      <trkpt lat="41.6440490" lon="1.8566980">
        <ele>175.8</ele>
        <time>2022-04-09T10:44:18Z</time>
      </trkpt>
      <trkpt lat="41.6439740" lon="1.8566980">
        <ele>175.8</ele>
        <time>2022-04-09T10:44:19Z</time>
      </trkpt>
      <trkpt lat="41.6438560" lon="1.8565590">
        <ele>175.6</ele>
        <time>2022-04-09T10:44:21Z</time>
      </trkpt>
      <trkpt lat="41.6438080" lon="1.8563130">
        <ele>175.4</ele>
        <time>2022-04-09T10:44:23Z</time>
      </trkpt>
      <trkpt lat="41.6437810" lon="1.8560880">
        <ele>175.0</ele>
        <time>2022-04-09T10:44:25Z</time>
      </trkpt>
      <trkpt lat="41.6436680" lon="1.8557820">
        <ele>174.0</ele>
        <time>2022-04-09T10:44:28Z</time>
      </trkpt>
      <trkpt lat="41.6436390" lon="1.8556690">
        <ele>173.2</ele>
        <time>2022-04-09T10:44:29Z</time>
      </trkpt>
      <trkpt lat="41.6436170" lon="1.8554360">
        <ele>172.6</ele>
        <time>2022-04-09T10:44:31Z</time>
      </trkpt>
      <trkpt lat="41.6436330" lon="1.8553220">
        <ele>172.4</ele>
        <time>2022-04-09T10:44:32Z</time>
      </trkpt>
      <trkpt lat="41.6436650" lon="1.8552170">
        <ele>172.2</ele>
        <time>2022-04-09T10:44:33Z</time>
      </trkpt>
      <trkpt lat="41.6437430" lon="1.8550070">
        <ele>171.4</ele>
        <time>2022-04-09T10:44:35Z</time>
      </trkpt>
      <trkpt lat="41.6437930" lon="1.8549060">
        <ele>170.2</ele>
        <time>2022-04-09T10:44:36Z</time>
      </trkpt>
      <trkpt lat="41.6439220" lon="1.8547260">
        <ele>168.6</ele>
        <time>2022-04-09T10:44:38Z</time>
      </trkpt>
      <trkpt lat="41.6440000" lon="1.8546590">
        <ele>168.0</ele>
        <time>2022-04-09T10:44:39Z</time>
      </trkpt>
      <trkpt lat="41.6441780" lon="1.8545490">
        <ele>167.4</ele>
        <time>2022-04-09T10:44:41Z</time>
      </trkpt>
      <trkpt lat="41.6443540" lon="1.8544610">
        <ele>167.0</ele>
        <time>2022-04-09T10:44:43Z</time>
      </trkpt>
      <trkpt lat="41.6445160" lon="1.8543810">
        <ele>166.6</ele>
        <time>2022-04-09T10:44:45Z</time>
      </trkpt>
      <trkpt lat="41.6445680" lon="1.8543240">
        <ele>166.2</ele>
        <time>2022-04-09T10:44:46Z</time>
      </trkpt>
      <trkpt lat="41.6445980" lon="1.8542610">
        <ele>166.0</ele>
        <time>2022-04-09T10:44:47Z</time>
      </trkpt>
      <trkpt lat="41.6446090" lon="1.8541960">
        <ele>165.6</ele>
        <time>2022-04-09T10:44:48Z</time>
      </trkpt>
      <trkpt lat="41.6446060" lon="1.8541360">
        <ele>165.4</ele>
        <time>2022-04-09T10:44:49Z</time>
      </trkpt>
      <trkpt lat="41.6445840" lon="1.8540960">
        <ele>165.0</ele>
        <time>2022-04-09T10:44:50Z</time>
      </trkpt>
      <trkpt lat="41.6445540" lon="1.8540780">
        <ele>164.8</ele>
        <time>2022-04-09T10:44:51Z</time>
      </trkpt>
      <trkpt lat="41.6444970" lon="1.8540870">
        <ele>164.8</ele>
        <time>2022-04-09T10:44:52Z</time>
      </trkpt>
      <trkpt lat="41.6443790" lon="1.8541550">
        <ele>164.2</ele>
        <time>2022-04-09T10:44:54Z</time>
      </trkpt>
      <trkpt lat="41.6443190" lon="1.8541950">
        <ele>163.8</ele>
        <time>2022-04-09T10:44:55Z</time>
      </trkpt>
      <trkpt lat="41.6439810" lon="1.8544430">
        <ele>162.6</ele>
        <time>2022-04-09T10:45:00Z</time>
      </trkpt>
      <trkpt lat="41.6438270" lon="1.8545640">
        <ele>161.8</ele>
        <time>2022-04-09T10:45:02Z</time>
      </trkpt>
      <trkpt lat="41.6436840" lon="1.8547190">
        <ele>161.0</ele>
        <time>2022-04-09T10:45:04Z</time>
      </trkpt>
      <trkpt lat="41.6436120" lon="1.8548060">
        <ele>160.4</ele>
        <time>2022-04-09T10:45:05Z</time>
      </trkpt>
      <trkpt lat="41.6435480" lon="1.8548950">
        <ele>160.0</ele>
        <time>2022-04-09T10:45:06Z</time>
      </trkpt>
      <trkpt lat="41.6434220" lon="1.8550760">
        <ele>159.0</ele>
        <time>2022-04-09T10:45:08Z</time>
      </trkpt>
      <trkpt lat="41.6432770" lon="1.8552520">
        <ele>158.2</ele>
        <time>2022-04-09T10:45:10Z</time>
      </trkpt>
      <trkpt lat="41.6432030" lon="1.8553280">
        <ele>157.8</ele>
        <time>2022-04-09T10:45:11Z</time>
      </trkpt>
      <trkpt lat="41.6429610" lon="1.8555420">
        <ele>156.6</ele>
        <time>2022-04-09T10:45:14Z</time>
      </trkpt>
      <trkpt lat="41.6428770" lon="1.8556110">
        <ele>156.4</ele>
        <time>2022-04-09T10:45:15Z</time>
      </trkpt>
      <trkpt lat="41.6427980" lon="1.8556810">
        <ele>155.6</ele>
        <time>2022-04-09T10:45:16Z</time>
      </trkpt>
      <trkpt lat="41.6426440" lon="1.8558300">
        <ele>154.4</ele>
        <time>2022-04-09T10:45:18Z</time>
      </trkpt>
      <trkpt lat="41.6425780" lon="1.8559080">
        <ele>153.4</ele>
        <time>2022-04-09T10:45:19Z</time>
      </trkpt>
      <trkpt lat="41.6425190" lon="1.8559920">
        <ele>152.8</ele>
        <time>2022-04-09T10:45:20Z</time>
      </trkpt>
      <trkpt lat="41.6424620" lon="1.8560830">
        <ele>152.2</ele>
        <time>2022-04-09T10:45:21Z</time>
      </trkpt>
      <trkpt lat="41.6422530" lon="1.8564370">
        <ele>150.8</ele>
        <time>2022-04-09T10:45:25Z</time>
      </trkpt>
      <trkpt lat="41.6421370" lon="1.8566190">
        <ele>149.6</ele>
        <time>2022-04-09T10:45:27Z</time>
      </trkpt>
      <trkpt lat="41.6419430" lon="1.8568580">
        <ele>148.4</ele>
        <time>2022-04-09T10:45:30Z</time>
      </trkpt>
      <trkpt lat="41.6418770" lon="1.8569340">
        <ele>148.0</ele>
        <time>2022-04-09T10:45:31Z</time>
      </trkpt>
      <trkpt lat="41.6417410" lon="1.8570830">
        <ele>147.2</ele>
        <time>2022-04-09T10:45:33Z</time>
      </trkpt>
      <trkpt lat="41.6414900" lon="1.8573610">
        <ele>146.2</ele>
        <time>2022-04-09T10:45:37Z</time>
      </trkpt>
      <trkpt lat="41.6414250" lon="1.8574310">
        <ele>145.8</ele>
        <time>2022-04-09T10:45:38Z</time>
      </trkpt>
      <trkpt lat="41.6412860" lon="1.8575550">
        <ele>144.8</ele>
        <time>2022-04-09T10:45:40Z</time>
      </trkpt>
      <trkpt lat="41.6412070" lon="1.8576080">
        <ele>144.6</ele>
        <time>2022-04-09T10:45:41Z</time>
      </trkpt>
      <trkpt lat="41.6411210" lon="1.8576500">
        <ele>143.8</ele>
        <time>2022-04-09T10:45:42Z</time>
      </trkpt>
      <trkpt lat="41.6410350" lon="1.8576740">
        <ele>143.6</ele>
        <time>2022-04-09T10:45:43Z</time>
      </trkpt>
      <trkpt lat="41.6408670" lon="1.8576940">
        <ele>142.4</ele>
        <time>2022-04-09T10:45:45Z</time>
      </trkpt>
      <trkpt lat="41.6407830" lon="1.8577010">
        <ele>142.0</ele>
        <time>2022-04-09T10:45:46Z</time>
      </trkpt>
      <trkpt lat="41.6407180" lon="1.8577070">
        <ele>141.4</ele>
        <time>2022-04-09T10:45:47Z</time>
      </trkpt>
      <trkpt lat="41.6401520" lon="1.8577740">
        <ele>140.4</ele>
        <time>2022-04-09T10:45:54Z</time>
      </trkpt>
      <trkpt lat="41.6400940" lon="1.8577800">
        <ele>140.4</ele>
        <time>2022-04-09T10:45:55Z</time>
      </trkpt>
      <trkpt lat="41.6397420" lon="1.8578160">
        <ele>140.2</ele>
        <time>2022-04-09T10:46:00Z</time>
      </trkpt>
      <trkpt lat="41.6396880" lon="1.8578140">
        <ele>140.0</ele>
        <time>2022-04-09T10:46:01Z</time>
      </trkpt>
      <trkpt lat="41.6395450" lon="1.8577670">
        <ele>140.0</ele>
        <time>2022-04-09T10:46:03Z</time>
      </trkpt>
      <trkpt lat="41.6394860" lon="1.8577230">
        <ele>140.0</ele>
        <time>2022-04-09T10:46:04Z</time>
      </trkpt>
      <trkpt lat="41.6394080" lon="1.8575870">
        <ele>139.8</ele>
        <time>2022-04-09T10:46:06Z</time>
      </trkpt>
      <trkpt lat="41.6393680" lon="1.8572510">
        <ele>139.8</ele>
        <time>2022-04-09T10:46:09Z</time>
      </trkpt>
      <trkpt lat="41.6393530" lon="1.8571430">
        <ele>139.4</ele>
        <time>2022-04-09T10:46:10Z</time>
      </trkpt>
      <trkpt lat="41.6393150" lon="1.8569450">
        <ele>139.0</ele>
        <time>2022-04-09T10:46:12Z</time>
      </trkpt>
      <trkpt lat="41.6392700" lon="1.8568030">
        <ele>138.2</ele>
        <time>2022-04-09T10:46:14Z</time>
      </trkpt>
      <trkpt lat="41.6391810" lon="1.8566220">
        <ele>137.0</ele>
        <time>2022-04-09T10:46:17Z</time>
      </trkpt>
      <trkpt lat="41.6391170" lon="1.8565380">
        <ele>136.8</ele>
        <time>2022-04-09T10:46:19Z</time>
      </trkpt>
      <trkpt lat="41.6389540" lon="1.8564150">
        <ele>136.4</ele>
        <time>2022-04-09T10:46:23Z</time>
      </trkpt>
      <trkpt lat="41.6389000" lon="1.8563040">
        <ele>136.4</ele>
        <time>2022-04-09T10:46:25Z</time>
      </trkpt>
      <trkpt lat="41.6388440" lon="1.8561870">
        <ele>136.6</ele>
        <time>2022-04-09T10:46:27Z</time>
      </trkpt>
      <trkpt lat="41.6387860" lon="1.8560740">
        <ele>136.6</ele>
        <time>2022-04-09T10:46:29Z</time>
      </trkpt>
      <trkpt lat="41.6387290" lon="1.8559600">
        <ele>137.0</ele>
        <time>2022-04-09T10:46:31Z</time>
      </trkpt>
      <trkpt lat="41.6386800" lon="1.8557110">
        <ele>138.2</ele>
        <time>2022-04-09T10:46:35Z</time>
      </trkpt>
      <trkpt lat="41.6386450" lon="1.8555690">
        <ele>139.0</ele>
        <time>2022-04-09T10:46:37Z</time>
      </trkpt>
      <trkpt lat="41.6386250" lon="1.8555100">
        <ele>139.4</ele>
        <time>2022-04-09T10:46:38Z</time>
      </trkpt>
      <trkpt lat="41.6385590" lon="1.8553470">
        <ele>140.4</ele>
        <time>2022-04-09T10:46:41Z</time>
      </trkpt>
      <trkpt lat="41.6385080" lon="1.8552410">
        <ele>141.2</ele>
        <time>2022-04-09T10:46:43Z</time>
      </trkpt>
      <trkpt lat="41.6384860" lon="1.8551900">
        <ele>141.6</ele>
        <time>2022-04-09T10:46:44Z</time>
      </trkpt>
      <trkpt lat="41.6384500" lon="1.8551030">
        <ele>142.0</ele>
        <time>2022-04-09T10:46:46Z</time>
      </trkpt>
      <trkpt lat="41.6384030" lon="1.8550080">
        <ele>142.8</ele>
        <time>2022-04-09T10:46:48Z</time>
      </trkpt>
      <trkpt lat="41.6383100" lon="1.8548970">
        <ele>144.4</ele>
        <time>2022-04-09T10:46:51Z</time>
      </trkpt>
      <trkpt lat="41.6381610" lon="1.8547800">
        <ele>145.4</ele>
        <time>2022-04-09T10:46:55Z</time>
      </trkpt>
      <trkpt lat="41.6381260" lon="1.8547560">
        <ele>145.6</ele>
        <time>2022-04-09T10:46:56Z</time>
      </trkpt>
      <trkpt lat="41.6379230" lon="1.8546040">
        <ele>146.6</ele>
        <time>2022-04-09T10:47:02Z</time>
      </trkpt>
      <trkpt lat="41.6378870" lon="1.8545810">
        <ele>146.8</ele>
        <time>2022-04-09T10:47:03Z</time>
      </trkpt>
      <trkpt lat="41.6377530" lon="1.8544800">
        <ele>147.8</ele>
        <time>2022-04-09T10:47:07Z</time>
      </trkpt>
      <trkpt lat="41.6376500" lon="1.8544110">
        <ele>148.4</ele>
        <time>2022-04-09T10:47:10Z</time>
      </trkpt>
      <trkpt lat="41.6375820" lon="1.8543710">
        <ele>148.8</ele>
        <time>2022-04-09T10:47:12Z</time>
      </trkpt>
      <trkpt lat="41.6374330" lon="1.8543180">
        <ele>149.8</ele>
        <time>2022-04-09T10:47:16Z</time>
      </trkpt>
      <trkpt lat="41.6373940" lon="1.8543100">
        <ele>150.2</ele>
        <time>2022-04-09T10:47:17Z</time>
      </trkpt>
      <trkpt lat="41.6371650" lon="1.8542780">
        <ele>151.2</ele>
        <time>2022-04-09T10:47:23Z</time>
      </trkpt>
      <trkpt lat="41.6368530" lon="1.8542040">
        <ele>152.2</ele>
        <time>2022-04-09T10:47:31Z</time>
      </trkpt>
      <trkpt lat="41.6368130" lon="1.8541960">
        <ele>152.4</ele>
        <time>2022-04-09T10:47:32Z</time>
      </trkpt>
      <trkpt lat="41.6365920" lon="1.8541550">
        <ele>152.4</ele>
        <time>2022-04-09T10:47:37Z</time>
      </trkpt>
      <trkpt lat="41.6362640" lon="1.8540960">
        <ele>153.0</ele>
        <time>2022-04-09T10:47:44Z</time>
      </trkpt>
      <trkpt lat="41.6358860" lon="1.8540680">
        <ele>152.8</ele>
        <time>2022-04-09T10:47:51Z</time>
      </trkpt>
      <trkpt lat="41.6353160" lon="1.8540590">
        <ele>152.0</ele>
        <time>2022-04-09T10:48:00Z</time>
      </trkpt>
      <trkpt lat="41.6348100" lon="1.8540360">
        <ele>151.4</ele>
        <time>2022-04-09T10:48:08Z</time>
      </trkpt>
      <trkpt lat="41.6343890" lon="1.8539120">
        <ele>151.6</ele>
        <time>2022-04-09T10:48:15Z</time>
      </trkpt>
      <trkpt lat="41.6339510" lon="1.8537130">
        <ele>152.6</ele>
        <time>2022-04-09T10:48:23Z</time>
      </trkpt>
      <trkpt lat="41.6337340" lon="1.8536150">
        <ele>153.4</ele>
        <time>2022-04-09T10:48:27Z</time>
      </trkpt>
      <trkpt lat="41.6334100" lon="1.8534840">
        <ele>154.0</ele>
        <time>2022-04-09T10:48:33Z</time>
      </trkpt>
      <trkpt lat="41.6333010" lon="1.8534510">
        <ele>154.2</ele>
        <time>2022-04-09T10:48:35Z</time>
      </trkpt>
      <trkpt lat="41.6332580" lon="1.8534450">
        <ele>154.4</ele>
        <time>2022-04-09T10:48:36Z</time>
      </trkpt>
      <trkpt lat="41.6331360" lon="1.8534420">
        <ele>155.0</ele>
        <time>2022-04-09T10:48:38Z</time>
      </trkpt>
      <trkpt lat="41.6330860" lon="1.8534480">
        <ele>155.2</ele>
        <time>2022-04-09T10:48:39Z</time>
      </trkpt>
      <trkpt lat="41.6330460" lon="1.8534560">
        <ele>155.4</ele>
        <time>2022-04-09T10:48:40Z</time>
      </trkpt>
      <trkpt lat="41.6328340" lon="1.8535360">
        <ele>156.0</ele>
        <time>2022-04-09T10:48:44Z</time>
      </trkpt>
      <trkpt lat="41.6327320" lon="1.8535860">
        <ele>156.2</ele>
        <time>2022-04-09T10:48:46Z</time>
      </trkpt>
      <trkpt lat="41.6325850" lon="1.8536920">
        <ele>156.6</ele>
        <time>2022-04-09T10:48:49Z</time>
      </trkpt>
      <trkpt lat="41.6325470" lon="1.8537200">
        <ele>156.8</ele>
        <time>2022-04-09T10:48:50Z</time>
      </trkpt>
      <trkpt lat="41.6321300" lon="1.8540270">
        <ele>156.6</ele>
        <time>2022-04-09T10:48:59Z</time>
      </trkpt>
      <trkpt lat="41.6320300" lon="1.8541000">
        <ele>156.4</ele>
        <time>2022-04-09T10:49:01Z</time>
      </trkpt>
      <trkpt lat="41.6319360" lon="1.8541520">
        <ele>156.0</ele>
        <time>2022-04-09T10:49:03Z</time>
      </trkpt>
      <trkpt lat="41.6317890" lon="1.8542510">
        <ele>156.0</ele>
        <time>2022-04-09T10:49:06Z</time>
      </trkpt>
      <trkpt lat="41.6316470" lon="1.8543630">
        <ele>155.8</ele>
        <time>2022-04-09T10:49:09Z</time>
      </trkpt>
      <trkpt lat="41.6312990" lon="1.8546780">
        <ele>155.6</ele>
        <time>2022-04-09T10:49:16Z</time>
      </trkpt>
      <trkpt lat="41.6311870" lon="1.8548370">
        <ele>155.4</ele>
        <time>2022-04-09T10:49:19Z</time>
      </trkpt>
      <trkpt lat="41.6309440" lon="1.8552200">
        <ele>155.0</ele>
        <time>2022-04-09T10:49:25Z</time>
      </trkpt>
      <trkpt lat="41.6307880" lon="1.8555120">
        <ele>154.4</ele>
        <time>2022-04-09T10:49:29Z</time>
      </trkpt>
      <trkpt lat="41.6307040" lon="1.8556690">
        <ele>154.4</ele>
        <time>2022-04-09T10:49:31Z</time>
      </trkpt>
      <trkpt lat="41.6306720" lon="1.8557420">
        <ele>154.2</ele>
        <time>2022-04-09T10:49:32Z</time>
      </trkpt>
      <trkpt lat="41.6304760" lon="1.8562640">
        <ele>154.2</ele>
        <time>2022-04-09T10:49:39Z</time>
      </trkpt>
      <trkpt lat="41.6304390" lon="1.8563440">
        <ele>154.0</ele>
        <time>2022-04-09T10:49:40Z</time>
      </trkpt>
      <trkpt lat="41.6302890" lon="1.8566620">
        <ele>154.0</ele>
        <time>2022-04-09T10:49:44Z</time>
      </trkpt>
      <trkpt lat="41.6301850" lon="1.8568960">
        <ele>153.2</ele>
        <time>2022-04-09T10:49:47Z</time>
      </trkpt>
      <trkpt lat="41.6300510" lon="1.8571570">
        <ele>152.8</ele>
        <time>2022-04-09T10:49:50Z</time>
      </trkpt>
      <trkpt lat="41.6299280" lon="1.8574040">
        <ele>152.2</ele>
        <time>2022-04-09T10:49:53Z</time>
      </trkpt>
      <trkpt lat="41.6297530" lon="1.8577740">
        <ele>151.2</ele>
        <time>2022-04-09T10:49:58Z</time>
      </trkpt>
      <trkpt lat="41.6297140" lon="1.8578490">
        <ele>151.0</ele>
        <time>2022-04-09T10:49:59Z</time>
      </trkpt>
      <trkpt lat="41.6296500" lon="1.8580010">
        <ele>150.8</ele>
        <time>2022-04-09T10:50:01Z</time>
      </trkpt>
      <trkpt lat="41.6295980" lon="1.8581670">
        <ele>150.8</ele>
        <time>2022-04-09T10:50:03Z</time>
      </trkpt>
      <trkpt lat="41.6295340" lon="1.8586230">
        <ele>150.4</ele>
        <time>2022-04-09T10:50:08Z</time>
      </trkpt>
      <trkpt lat="41.6295120" lon="1.8588200">
        <ele>150.0</ele>
        <time>2022-04-09T10:50:10Z</time>
      </trkpt>
      <trkpt lat="41.6294590" lon="1.8592090">
        <ele>149.0</ele>
        <time>2022-04-09T10:50:14Z</time>
      </trkpt>
      <trkpt lat="41.6293920" lon="1.8595880">
        <ele>147.8</ele>
        <time>2022-04-09T10:50:18Z</time>
      </trkpt>
      <trkpt lat="41.6293220" lon="1.8598610">
        <ele>147.2</ele>
        <time>2022-04-09T10:50:21Z</time>
      </trkpt>
      <trkpt lat="41.6292350" lon="1.8602430">
        <ele>147.0</ele>
        <time>2022-04-09T10:50:26Z</time>
      </trkpt>
      <trkpt lat="41.6291710" lon="1.8604800">
        <ele>146.8</ele>
        <time>2022-04-09T10:50:29Z</time>
      </trkpt>
      <trkpt lat="41.6291360" lon="1.8606120">
        <ele>146.6</ele>
        <time>2022-04-09T10:50:31Z</time>
      </trkpt>
      <trkpt lat="41.6289410" lon="1.8612930">
        <ele>145.8</ele>
        <time>2022-04-09T10:50:40Z</time>
      </trkpt>
      <trkpt lat="41.6288850" lon="1.8615440">
        <ele>146.0</ele>
        <time>2022-04-09T10:50:43Z</time>
      </trkpt>
      <trkpt lat="41.6288500" lon="1.8616890">
        <ele>146.0</ele>
        <time>2022-04-09T10:50:45Z</time>
      </trkpt>
      <trkpt lat="41.6287270" lon="1.8622280">
        <ele>146.2</ele>
        <time>2022-04-09T10:50:51Z</time>
      </trkpt>
      <trkpt lat="41.6286900" lon="1.8623690">
        <ele>146.2</ele>
        <time>2022-04-09T10:50:53Z</time>
      </trkpt>
      <trkpt lat="41.6286720" lon="1.8624370">
        <ele>146.4</ele>
        <time>2022-04-09T10:50:54Z</time>
      </trkpt>
      <trkpt lat="41.6286410" lon="1.8625740">
        <ele>146.4</ele>
        <time>2022-04-09T10:50:57Z</time>
      </trkpt>
      <trkpt lat="41.6286360" lon="1.8625890">
        <ele>146.8</ele>
        <time>2022-04-09T10:51:01Z</time>
      </trkpt>
      <trkpt lat="41.6287700" lon="1.8626240">
        <ele>147.6</ele>
        <time>2022-04-09T10:54:37Z</time>
      </trkpt>
      <trkpt lat="41.6287630" lon="1.8626450">
        <ele>147.6</ele>
        <time>2022-04-09T10:54:38Z</time>
      </trkpt>
      <trkpt lat="41.6287360" lon="1.8626890">
        <ele>147.6</ele>
        <time>2022-04-09T10:54:40Z</time>
      </trkpt>
      <trkpt lat="41.6286690" lon="1.8628120">
        <ele>147.6</ele>
        <time>2022-04-09T10:54:43Z</time>
      </trkpt>
      <trkpt lat="41.6285970" lon="1.8629990">
        <ele>147.8</ele>
        <time>2022-04-09T10:54:47Z</time>
      </trkpt>
      <trkpt lat="41.6285460" lon="1.8632310">
        <ele>147.8</ele>
        <time>2022-04-09T10:54:51Z</time>
      </trkpt>
      <trkpt lat="41.6285490" lon="1.8633020">
        <ele>147.8</ele>
        <time>2022-04-09T10:54:52Z</time>
      </trkpt>
      <trkpt lat="41.6285800" lon="1.8634380">
        <ele>147.8</ele>
        <time>2022-04-09T10:54:54Z</time>
      </trkpt>
      <trkpt lat="41.6286050" lon="1.8634920">
        <ele>147.8</ele>
        <time>2022-04-09T10:54:55Z</time>
      </trkpt>
      <trkpt lat="41.6286370" lon="1.8635390">
        <ele>147.8</ele>
        <time>2022-04-09T10:54:56Z</time>
      </trkpt>
      <trkpt lat="41.6286780" lon="1.8635740">
        <ele>148.0</ele>
        <time>2022-04-09T10:54:57Z</time>
      </trkpt>
      <trkpt lat="41.6287690" lon="1.8636290">
        <ele>148.4</ele>
        <time>2022-04-09T10:54:59Z</time>
      </trkpt>
      <trkpt lat="41.6289410" lon="1.8637670">
        <ele>149.0</ele>
        <time>2022-04-09T10:55:03Z</time>
      </trkpt>
      <trkpt lat="41.6289660" lon="1.8638260">
        <ele>149.0</ele>
        <time>2022-04-09T10:55:04Z</time>
      </trkpt>
      <trkpt lat="41.6289720" lon="1.8638930">
        <ele>149.2</ele>
        <time>2022-04-09T10:55:05Z</time>
      </trkpt>
      <trkpt lat="41.6289750" lon="1.8641670">
        <ele>149.6</ele>
        <time>2022-04-09T10:55:09Z</time>
      </trkpt>
      <trkpt lat="41.6289710" lon="1.8642170">
        <ele>149.6</ele>
        <time>2022-04-09T10:55:10Z</time>
      </trkpt>
      <trkpt lat="41.6289460" lon="1.8642700">
        <ele>149.6</ele>
        <time>2022-04-09T10:55:11Z</time>
      </trkpt>
      <trkpt lat="41.6288990" lon="1.8643700">
        <ele>149.8</ele>
        <time>2022-04-09T10:55:13Z</time>
      </trkpt>
      <trkpt lat="41.6288720" lon="1.8644300">
        <ele>150.0</ele>
        <time>2022-04-09T10:55:14Z</time>
      </trkpt>
      <trkpt lat="41.6287290" lon="1.8647690">
        <ele>150.0</ele>
        <time>2022-04-09T10:55:19Z</time>
      </trkpt>
      <trkpt lat="41.6284910" lon="1.8653030">
        <ele>150.0</ele>
        <time>2022-04-09T10:55:26Z</time>
      </trkpt>
      <trkpt lat="41.6282560" lon="1.8657190">
        <ele>150.0</ele>
        <time>2022-04-09T10:55:32Z</time>
      </trkpt>
      <trkpt lat="41.6281010" lon="1.8659350">
        <ele>150.4</ele>
        <time>2022-04-09T10:55:36Z</time>
      </trkpt>
      <trkpt lat="41.6279520" lon="1.8661630">
        <ele>151.2</ele>
        <time>2022-04-09T10:55:40Z</time>
      </trkpt>
      <trkpt lat="41.6279180" lon="1.8662200">
        <ele>151.2</ele>
        <time>2022-04-09T10:55:41Z</time>
      </trkpt>
      <trkpt lat="41.6278800" lon="1.8662780">
        <ele>151.4</ele>
        <time>2022-04-09T10:55:42Z</time>
      </trkpt>
      <trkpt lat="41.6276520" lon="1.8666660">
        <ele>151.8</ele>
        <time>2022-04-09T10:55:48Z</time>
      </trkpt>
      <trkpt lat="41.6273980" lon="1.8670520">
        <ele>150.0</ele>
        <time>2022-04-09T10:55:54Z</time>
      </trkpt>
      <trkpt lat="41.6273710" lon="1.8670920">
        <ele>149.6</ele>
        <time>2022-04-09T10:55:55Z</time>
      </trkpt>
      <trkpt lat="41.6273280" lon="1.8671530">
        <ele>148.6</ele>
        <time>2022-04-09T10:55:57Z</time>
      </trkpt>
      <trkpt lat="41.6273150" lon="1.8671770">
        <ele>148.2</ele>
        <time>2022-04-09T10:55:58Z</time>
      </trkpt>
      <trkpt lat="41.6272600" lon="1.8672680">
        <ele>147.6</ele>
        <time>2022-04-09T10:56:03Z</time>
      </trkpt>
      <trkpt lat="41.6272540" lon="1.8672780">
        <ele>147.4</ele>
        <time>2022-04-09T10:56:04Z</time>
      </trkpt>
      <trkpt lat="41.6272190" lon="1.8673480">
        <ele>146.6</ele>
        <time>2022-04-09T10:56:10Z</time>
      </trkpt>
      <trkpt lat="41.6272160" lon="1.8673580">
        <ele>146.4</ele>
        <time>2022-04-09T10:56:11Z</time>
      </trkpt>
      <trkpt lat="41.6271860" lon="1.8674420">
        <ele>146.0</ele>
        <time>2022-04-09T10:56:18Z</time>
      </trkpt>
      <trkpt lat="41.6271340" lon="1.8676170">
        <ele>145.6</ele>
        <time>2022-04-09T10:56:22Z</time>
      </trkpt>
      <trkpt lat="41.6270830" lon="1.8677470">
        <ele>145.4</ele>
        <time>2022-04-09T10:56:24Z</time>
      </trkpt>
      <trkpt lat="41.6270170" lon="1.8678950">
        <ele>145.0</ele>
        <time>2022-04-09T10:56:26Z</time>
      </trkpt>
      <trkpt lat="41.6269150" lon="1.8680210">
        <ele>144.2</ele>
        <time>2022-04-09T10:56:28Z</time>
      </trkpt>
      <trkpt lat="41.6268510" lon="1.8680760">
        <ele>144.2</ele>
        <time>2022-04-09T10:56:29Z</time>
      </trkpt>
      <trkpt lat="41.6267830" lon="1.8681260">
        <ele>143.8</ele>
        <time>2022-04-09T10:56:30Z</time>
      </trkpt>
      <trkpt lat="41.6267150" lon="1.8681710">
        <ele>143.4</ele>
        <time>2022-04-09T10:56:31Z</time>
      </trkpt>
      <trkpt lat="41.6266460" lon="1.8682200">
        <ele>142.8</ele>
        <time>2022-04-09T10:56:32Z</time>
      </trkpt>
      <trkpt lat="41.6265070" lon="1.8683060">
        <ele>142.0</ele>
        <time>2022-04-09T10:56:34Z</time>
      </trkpt>
      <trkpt lat="41.6264350" lon="1.8683520">
        <ele>141.4</ele>
        <time>2022-04-09T10:56:35Z</time>
      </trkpt>
      <trkpt lat="41.6262040" lon="1.8684680">
        <ele>140.2</ele>
        <time>2022-04-09T10:56:38Z</time>
      </trkpt>
      <trkpt lat="41.6261330" lon="1.8685070">
        <ele>140.0</ele>
        <time>2022-04-09T10:56:39Z</time>
      </trkpt>
      <trkpt lat="41.6258020" lon="1.8686920">
        <ele>139.0</ele>
        <time>2022-04-09T10:56:43Z</time>
      </trkpt>
      <trkpt lat="41.6257040" lon="1.8687260">
        <ele>138.4</ele>
        <time>2022-04-09T10:56:44Z</time>
      </trkpt>
      <trkpt lat="41.6255990" lon="1.8687470">
        <ele>138.0</ele>
        <time>2022-04-09T10:56:45Z</time>
      </trkpt>
      <trkpt lat="41.6254820" lon="1.8687610">
        <ele>137.2</ele>
        <time>2022-04-09T10:56:46Z</time>
      </trkpt>
      <trkpt lat="41.6253710" lon="1.8687420">
        <ele>136.8</ele>
        <time>2022-04-09T10:56:47Z</time>
      </trkpt>
      <trkpt lat="41.6252650" lon="1.8687040">
        <ele>136.4</ele>
        <time>2022-04-09T10:56:48Z</time>
      </trkpt>
      <trkpt lat="41.6251630" lon="1.8686570">
        <ele>135.2</ele>
        <time>2022-04-09T10:56:49Z</time>
      </trkpt>
      <trkpt lat="41.6248600" lon="1.8685060">
        <ele>133.8</ele>
        <time>2022-04-09T10:56:52Z</time>
      </trkpt>
      <trkpt lat="41.6246630" lon="1.8684090">
        <ele>132.4</ele>
        <time>2022-04-09T10:56:54Z</time>
      </trkpt>
      <trkpt lat="41.6244680" lon="1.8683090">
        <ele>131.0</ele>
        <time>2022-04-09T10:56:56Z</time>
      </trkpt>
      <trkpt lat="41.6242110" lon="1.8681870">
        <ele>130.0</ele>
        <time>2022-04-09T10:56:59Z</time>
      </trkpt>
      <trkpt lat="41.6241310" lon="1.8681380">
        <ele>129.6</ele>
        <time>2022-04-09T10:57:00Z</time>
      </trkpt>
      <trkpt lat="41.6239010" lon="1.8679890">
        <ele>128.8</ele>
        <time>2022-04-09T10:57:03Z</time>
      </trkpt>
      <trkpt lat="41.6236720" lon="1.8678620">
        <ele>128.0</ele>
        <time>2022-04-09T10:57:06Z</time>
      </trkpt>
      <trkpt lat="41.6236020" lon="1.8678230">
        <ele>127.8</ele>
        <time>2022-04-09T10:57:07Z</time>
      </trkpt>
      <trkpt lat="41.6234680" lon="1.8677330">
        <ele>127.4</ele>
        <time>2022-04-09T10:57:09Z</time>
      </trkpt>
      <trkpt lat="41.6234090" lon="1.8676790">
        <ele>126.8</ele>
        <time>2022-04-09T10:57:10Z</time>
      </trkpt>
      <trkpt lat="41.6233450" lon="1.8676190">
        <ele>126.6</ele>
        <time>2022-04-09T10:57:11Z</time>
      </trkpt>
      <trkpt lat="41.6232780" lon="1.8675620">
        <ele>126.2</ele>
        <time>2022-04-09T10:57:12Z</time>
      </trkpt>
      <trkpt lat="41.6232100" lon="1.8675110">
        <ele>126.2</ele>
        <time>2022-04-09T10:57:13Z</time>
      </trkpt>
      <trkpt lat="41.6229750" lon="1.8673220">
        <ele>125.8</ele>
        <time>2022-04-09T10:57:17Z</time>
      </trkpt>
      <trkpt lat="41.6229300" lon="1.8672800">
        <ele>125.8</ele>
        <time>2022-04-09T10:57:18Z</time>
      </trkpt>
      <trkpt lat="41.6228010" lon="1.8671570">
        <ele>125.6</ele>
        <time>2022-04-09T10:57:21Z</time>
      </trkpt>
      <trkpt lat="41.6227190" lon="1.8670510">
        <ele>125.6</ele>
        <time>2022-04-09T10:57:23Z</time>
      </trkpt>
      <trkpt lat="41.6226700" lon="1.8670050">
        <ele>125.6</ele>
        <time>2022-04-09T10:57:24Z</time>
      </trkpt>
      <trkpt lat="41.6225710" lon="1.8669100">
        <ele>125.6</ele>
        <time>2022-04-09T10:57:26Z</time>
      </trkpt>
      <trkpt lat="41.6225160" lon="1.8668640">
        <ele>125.4</ele>
        <time>2022-04-09T10:57:27Z</time>
      </trkpt>
      <trkpt lat="41.6223230" lon="1.8665580">
        <ele>125.0</ele>
        <time>2022-04-09T10:57:32Z</time>
      </trkpt>
      <trkpt lat="41.6222810" lon="1.8665000">
        <ele>125.0</ele>
        <time>2022-04-09T10:57:33Z</time>
      </trkpt>
      <trkpt lat="41.6219080" lon="1.8659810">
        <ele>124.8</ele>
        <time>2022-04-09T10:57:42Z</time>
      </trkpt>
      <trkpt lat="41.6215750" lon="1.8655210">
        <ele>124.6</ele>
        <time>2022-04-09T10:57:50Z</time>
      </trkpt>
      <trkpt lat="41.6214420" lon="1.8653500">
        <ele>124.2</ele>
        <time>2022-04-09T10:57:53Z</time>
      </trkpt>
      <trkpt lat="41.6214160" lon="1.8652770">
        <ele>124.2</ele>
        <time>2022-04-09T10:57:54Z</time>
      </trkpt>
      <trkpt lat="41.6213920" lon="1.8652090">
        <ele>124.2</ele>
        <time>2022-04-09T10:57:55Z</time>
      </trkpt>
      <trkpt lat="41.6212980" lon="1.8650070">
        <ele>124.0</ele>
        <time>2022-04-09T10:57:58Z</time>
      </trkpt>
      <trkpt lat="41.6212380" lon="1.8647820">
        <ele>123.6</ele>
        <time>2022-04-09T10:58:01Z</time>
      </trkpt>
      <trkpt lat="41.6212250" lon="1.8646210">
        <ele>123.6</ele>
        <time>2022-04-09T10:58:03Z</time>
      </trkpt>
      <trkpt lat="41.6212450" lon="1.8643670">
        <ele>123.6</ele>
        <time>2022-04-09T10:58:06Z</time>
      </trkpt>
      <trkpt lat="41.6213770" lon="1.8638860">
        <ele>123.6</ele>
        <time>2022-04-09T10:58:12Z</time>
      </trkpt>
      <trkpt lat="41.6215580" lon="1.8634740">
        <ele>123.6</ele>
        <time>2022-04-09T10:58:17Z</time>
      </trkpt>
      <trkpt lat="41.6217490" lon="1.8631640">
        <ele>123.2</ele>
        <time>2022-04-09T10:58:21Z</time>
      </trkpt>
      <trkpt lat="41.6218410" lon="1.8630130">
        <ele>123.0</ele>
        <time>2022-04-09T10:58:23Z</time>
      </trkpt>
      <trkpt lat="41.6220590" lon="1.8626220">
        <ele>123.0</ele>
        <time>2022-04-09T10:58:28Z</time>
      </trkpt>
      <trkpt lat="41.6222950" lon="1.8621820">
        <ele>122.8</ele>
        <time>2022-04-09T10:58:33Z</time>
      </trkpt>
      <trkpt lat="41.6225310" lon="1.8615050">
        <ele>122.8</ele>
        <time>2022-04-09T10:58:40Z</time>
      </trkpt>
      <trkpt lat="41.6225640" lon="1.8614060">
        <ele>122.8</ele>
        <time>2022-04-09T10:58:41Z</time>
      </trkpt>
      <trkpt lat="41.6227050" lon="1.8609190">
        <ele>122.6</ele>
        <time>2022-04-09T10:58:46Z</time>
      </trkpt>
      <trkpt lat="41.6227570" lon="1.8607200">
        <ele>122.2</ele>
        <time>2022-04-09T10:58:48Z</time>
      </trkpt>
      <trkpt lat="41.6229440" lon="1.8599530">
        <ele>122.0</ele>
        <time>2022-04-09T10:58:56Z</time>
      </trkpt>
      <trkpt lat="41.6231050" lon="1.8596220">
        <ele>122.0</ele>
        <time>2022-04-09T10:59:00Z</time>
      </trkpt>
      <trkpt lat="41.6232760" lon="1.8592960">
        <ele>121.6</ele>
        <time>2022-04-09T10:59:04Z</time>
      </trkpt>
      <trkpt lat="41.6233530" lon="1.8591250">
        <ele>121.4</ele>
        <time>2022-04-09T10:59:06Z</time>
      </trkpt>
      <trkpt lat="41.6234640" lon="1.8587820">
        <ele>121.2</ele>
        <time>2022-04-09T10:59:10Z</time>
      </trkpt>
      <trkpt lat="41.6235160" lon="1.8586020">
        <ele>121.2</ele>
        <time>2022-04-09T10:59:12Z</time>
      </trkpt>
      <trkpt lat="41.6235850" lon="1.8583200">
        <ele>121.0</ele>
        <time>2022-04-09T10:59:15Z</time>
      </trkpt>
      <trkpt lat="41.6236790" lon="1.8579300">
        <ele>120.8</ele>
        <time>2022-04-09T10:59:19Z</time>
      </trkpt>
      <trkpt lat="41.6237030" lon="1.8578320">
        <ele>120.8</ele>
        <time>2022-04-09T10:59:20Z</time>
      </trkpt>
      <trkpt lat="41.6237260" lon="1.8577360">
        <ele>120.8</ele>
        <time>2022-04-09T10:59:21Z</time>
      </trkpt>
      <trkpt lat="41.6237610" lon="1.8574450">
        <ele>120.8</ele>
        <time>2022-04-09T10:59:24Z</time>
      </trkpt>
      <trkpt lat="41.6237450" lon="1.8569520">
        <ele>120.6</ele>
        <time>2022-04-09T10:59:29Z</time>
      </trkpt>
      <trkpt lat="41.6236640" lon="1.8564680">
        <ele>120.2</ele>
        <time>2022-04-09T10:59:34Z</time>
      </trkpt>
      <trkpt lat="41.6235990" lon="1.8562870">
        <ele>120.2</ele>
        <time>2022-04-09T10:59:36Z</time>
      </trkpt>
      <trkpt lat="41.6233560" lon="1.8558320">
        <ele>120.4</ele>
        <time>2022-04-09T10:59:42Z</time>
      </trkpt>
      <trkpt lat="41.6230850" lon="1.8554410">
        <ele>120.6</ele>
        <time>2022-04-09T10:59:48Z</time>
      </trkpt>
      <trkpt lat="41.6230430" lon="1.8553730">
        <ele>120.6</ele>
        <time>2022-04-09T10:59:49Z</time>
      </trkpt>
      <trkpt lat="41.6229590" lon="1.8552360">
        <ele>120.6</ele>
        <time>2022-04-09T10:59:51Z</time>
      </trkpt>
      <trkpt lat="41.6229100" lon="1.8551720">
        <ele>120.6</ele>
        <time>2022-04-09T10:59:52Z</time>
      </trkpt>
      <trkpt lat="41.6226050" lon="1.8548280">
        <ele>120.6</ele>
        <time>2022-04-09T10:59:58Z</time>
      </trkpt>
      <trkpt lat="41.6221400" lon="1.8544800">
        <ele>120.6</ele>
        <time>2022-04-09T11:00:06Z</time>
      </trkpt>
      <trkpt lat="41.6220800" lon="1.8544470">
        <ele>120.6</ele>
        <time>2022-04-09T11:00:07Z</time>
      </trkpt>
      <trkpt lat="41.6218100" lon="1.8543420">
        <ele>120.8</ele>
        <time>2022-04-09T11:00:11Z</time>
      </trkpt>
      <trkpt lat="41.6215980" lon="1.8542690">
        <ele>120.4</ele>
        <time>2022-04-09T11:00:14Z</time>
      </trkpt>
      <trkpt lat="41.6214620" lon="1.8542120">
        <ele>120.2</ele>
        <time>2022-04-09T11:00:16Z</time>
      </trkpt>
      <trkpt lat="41.6210470" lon="1.8540640">
        <ele>119.8</ele>
        <time>2022-04-09T11:00:22Z</time>
      </trkpt>
      <trkpt lat="41.6205200" lon="1.8538290">
        <ele>119.8</ele>
        <time>2022-04-09T11:00:30Z</time>
      </trkpt>
      <trkpt lat="41.6204550" lon="1.8537970">
        <ele>119.8</ele>
        <time>2022-04-09T11:00:31Z</time>
      </trkpt>
      <trkpt lat="41.6202680" lon="1.8536820">
        <ele>119.8</ele>
        <time>2022-04-09T11:00:34Z</time>
      </trkpt>
      <trkpt lat="41.6199590" lon="1.8534630">
        <ele>119.6</ele>
        <time>2022-04-09T11:00:39Z</time>
      </trkpt>
      <trkpt lat="41.6196100" lon="1.8532610">
        <ele>119.8</ele>
        <time>2022-04-09T11:00:45Z</time>
      </trkpt>
      <trkpt lat="41.6190900" lon="1.8531020">
        <ele>119.6</ele>
        <time>2022-04-09T11:00:53Z</time>
      </trkpt>
      <trkpt lat="41.6185420" lon="1.8529420">
        <ele>120.2</ele>
        <time>2022-04-09T11:01:01Z</time>
      </trkpt>
      <trkpt lat="41.6184750" lon="1.8529140">
        <ele>120.2</ele>
        <time>2022-04-09T11:01:02Z</time>
      </trkpt>
      <trkpt lat="41.6182680" lon="1.8528310">
        <ele>120.8</ele>
        <time>2022-04-09T11:01:05Z</time>
      </trkpt>
      <trkpt lat="41.6181280" lon="1.8527730">
        <ele>120.8</ele>
        <time>2022-04-09T11:01:07Z</time>
      </trkpt>
      <trkpt lat="41.6180560" lon="1.8527550">
        <ele>120.8</ele>
        <time>2022-04-09T11:01:08Z</time>
      </trkpt>
      <trkpt lat="41.6175640" lon="1.8526340">
        <ele>121.0</ele>
        <time>2022-04-09T11:01:15Z</time>
      </trkpt>
      <trkpt lat="41.6170940" lon="1.8524800">
        <ele>120.8</ele>
        <time>2022-04-09T11:01:22Z</time>
      </trkpt>
      <trkpt lat="41.6170340" lon="1.8524490">
        <ele>120.8</ele>
        <time>2022-04-09T11:01:23Z</time>
      </trkpt>
      <trkpt lat="41.6169710" lon="1.8524250">
        <ele>120.8</ele>
        <time>2022-04-09T11:01:24Z</time>
      </trkpt>
      <trkpt lat="41.6168480" lon="1.8523830">
        <ele>120.8</ele>
        <time>2022-04-09T11:01:26Z</time>
      </trkpt>
      <trkpt lat="41.6167260" lon="1.8523230">
        <ele>120.8</ele>
        <time>2022-04-09T11:01:28Z</time>
      </trkpt>
      <trkpt lat="41.6163150" lon="1.8521340">
        <ele>120.6</ele>
        <time>2022-04-09T11:01:35Z</time>
      </trkpt>
      <trkpt lat="41.6162460" lon="1.8521050">
        <ele>120.6</ele>
        <time>2022-04-09T11:01:36Z</time>
      </trkpt>
      <trkpt lat="41.6158080" lon="1.8518610">
        <ele>120.2</ele>
        <time>2022-04-09T11:01:42Z</time>
      </trkpt>
      <trkpt lat="41.6153280" lon="1.8515010">
        <ele>120.0</ele>
        <time>2022-04-09T11:01:49Z</time>
      </trkpt>
      <trkpt lat="41.6152600" lon="1.8514520">
        <ele>120.0</ele>
        <time>2022-04-09T11:01:50Z</time>
      </trkpt>
      <trkpt lat="41.6148110" lon="1.8511300">
        <ele>120.0</ele>
        <time>2022-04-09T11:01:57Z</time>
      </trkpt>
      <trkpt lat="41.6144360" lon="1.8508090">
        <ele>119.6</ele>
        <time>2022-04-09T11:02:03Z</time>
      </trkpt>
      <trkpt lat="41.6143830" lon="1.8507350">
        <ele>119.4</ele>
        <time>2022-04-09T11:02:04Z</time>
      </trkpt>
      <trkpt lat="41.6142300" lon="1.8503760">
        <ele>119.2</ele>
        <time>2022-04-09T11:02:08Z</time>
      </trkpt>
      <trkpt lat="41.6141870" lon="1.8501920">
        <ele>119.0</ele>
        <time>2022-04-09T11:02:10Z</time>
      </trkpt>
      <trkpt lat="41.6141500" lon="1.8500010">
        <ele>119.0</ele>
        <time>2022-04-09T11:02:12Z</time>
      </trkpt>
      <trkpt lat="41.6140320" lon="1.8494710">
        <ele>119.0</ele>
        <time>2022-04-09T11:02:18Z</time>
      </trkpt>
      <trkpt lat="41.6140120" lon="1.8493910">
        <ele>118.8</ele>
        <time>2022-04-09T11:02:19Z</time>
      </trkpt>
      <trkpt lat="41.6139550" lon="1.8491310">
        <ele>119.0</ele>
        <time>2022-04-09T11:02:22Z</time>
      </trkpt>
      <trkpt lat="41.6139230" lon="1.8489520">
        <ele>119.0</ele>
        <time>2022-04-09T11:02:24Z</time>
      </trkpt>
      <trkpt lat="41.6137710" lon="1.8483470">
        <ele>119.2</ele>
        <time>2022-04-09T11:02:31Z</time>
      </trkpt>
      <trkpt lat="41.6137460" lon="1.8482650">
        <ele>119.2</ele>
        <time>2022-04-09T11:02:32Z</time>
      </trkpt>
      <trkpt lat="41.6135980" lon="1.8479940">
        <ele>119.4</ele>
        <time>2022-04-09T11:02:36Z</time>
      </trkpt>
      <trkpt lat="41.6134740" lon="1.8477510">
        <ele>119.8</ele>
        <time>2022-04-09T11:02:40Z</time>
      </trkpt>
      <trkpt lat="41.6134170" lon="1.8476410">
        <ele>120.2</ele>
        <time>2022-04-09T11:02:42Z</time>
      </trkpt>
      <trkpt lat="41.6133770" lon="1.8475990">
        <ele>120.8</ele>
        <time>2022-04-09T11:02:43Z</time>
      </trkpt>
      <trkpt lat="41.6133340" lon="1.8475680">
        <ele>120.8</ele>
        <time>2022-04-09T11:02:44Z</time>
      </trkpt>
      <trkpt lat="41.6132940" lon="1.8475380">
        <ele>121.2</ele>
        <time>2022-04-09T11:02:45Z</time>
      </trkpt>
      <trkpt lat="41.6132140" lon="1.8474770">
        <ele>121.6</ele>
        <time>2022-04-09T11:02:47Z</time>
      </trkpt>
      <trkpt lat="41.6131730" lon="1.8474580">
        <ele>121.8</ele>
        <time>2022-04-09T11:02:48Z</time>
      </trkpt>
      <trkpt lat="41.6131370" lon="1.8474310">
        <ele>122.2</ele>
        <time>2022-04-09T11:02:49Z</time>
      </trkpt>
      <trkpt lat="41.6130760" lon="1.8473880">
        <ele>123.0</ele>
        <time>2022-04-09T11:02:51Z</time>
      </trkpt>
      <trkpt lat="41.6128690" lon="1.8473000">
        <ele>124.0</ele>
        <time>2022-04-09T11:02:55Z</time>
      </trkpt>
      <trkpt lat="41.6128440" lon="1.8472730">
        <ele>124.2</ele>
        <time>2022-04-09T11:02:56Z</time>
      </trkpt>
      <trkpt lat="41.6127990" lon="1.8472140">
        <ele>124.6</ele>
        <time>2022-04-09T11:02:57Z</time>
      </trkpt>
      <trkpt lat="41.6126980" lon="1.8471640">
        <ele>125.0</ele>
        <time>2022-04-09T11:02:59Z</time>
      </trkpt>
      <trkpt lat="41.6126420" lon="1.8471490">
        <ele>125.4</ele>
        <time>2022-04-09T11:03:00Z</time>
      </trkpt>
      <trkpt lat="41.6122280" lon="1.8470550">
        <ele>126.2</ele>
        <time>2022-04-09T11:03:07Z</time>
      </trkpt>
      <trkpt lat="41.6118930" lon="1.8470530">
        <ele>126.2</ele>
        <time>2022-04-09T11:03:12Z</time>
      </trkpt>
      <trkpt lat="41.6118350" lon="1.8470650">
        <ele>126.4</ele>
        <time>2022-04-09T11:03:13Z</time>
      </trkpt>
      <trkpt lat="41.6117300" lon="1.8470800">
        <ele>126.4</ele>
        <time>2022-04-09T11:03:15Z</time>
      </trkpt>
      <trkpt lat="41.6115650" lon="1.8471470">
        <ele>126.4</ele>
        <time>2022-04-09T11:03:18Z</time>
      </trkpt>
      <trkpt lat="41.6115170" lon="1.8471790">
        <ele>126.6</ele>
        <time>2022-04-09T11:03:19Z</time>
      </trkpt>
      <trkpt lat="41.6114720" lon="1.8472250">
        <ele>126.6</ele>
        <time>2022-04-09T11:03:20Z</time>
      </trkpt>
      <trkpt lat="41.6113760" lon="1.8473550">
        <ele>126.6</ele>
        <time>2022-04-09T11:03:23Z</time>
      </trkpt>
      <trkpt lat="41.6112140" lon="1.8475940">
        <ele>127.0</ele>
        <time>2022-04-09T11:03:29Z</time>
      </trkpt>
      <trkpt lat="41.6110930" lon="1.8476880">
        <ele>127.6</ele>
        <time>2022-04-09T11:03:32Z</time>
      </trkpt>
      <trkpt lat="41.6110350" lon="1.8477010">
        <ele>127.8</ele>
        <time>2022-04-09T11:03:33Z</time>
      </trkpt>
      <trkpt lat="41.6109780" lon="1.8477060">
        <ele>128.0</ele>
        <time>2022-04-09T11:03:34Z</time>
      </trkpt>
      <trkpt lat="41.6109130" lon="1.8476390">
        <ele>128.2</ele>
        <time>2022-04-09T11:03:36Z</time>
      </trkpt>
      <trkpt lat="41.6108970" lon="1.8475840">
        <ele>128.4</ele>
        <time>2022-04-09T11:03:37Z</time>
      </trkpt>
      <trkpt lat="41.6108680" lon="1.8474700">
        <ele>128.8</ele>
        <time>2022-04-09T11:03:39Z</time>
      </trkpt>
      <trkpt lat="41.6108200" lon="1.8472950">
        <ele>129.2</ele>
        <time>2022-04-09T11:03:42Z</time>
      </trkpt>
      <trkpt lat="41.6107380" lon="1.8470340">
        <ele>129.8</ele>
        <time>2022-04-09T11:03:47Z</time>
      </trkpt>
      <trkpt lat="41.6107250" lon="1.8469830">
        <ele>129.8</ele>
        <time>2022-04-09T11:03:48Z</time>
      </trkpt>
      <trkpt lat="41.6107000" lon="1.8468870">
        <ele>130.2</ele>
        <time>2022-04-09T11:03:50Z</time>
      </trkpt>
      <trkpt lat="41.6106860" lon="1.8468350">
        <ele>130.2</ele>
        <time>2022-04-09T11:03:51Z</time>
      </trkpt>
      <trkpt lat="41.6105960" lon="1.8465670">
        <ele>130.4</ele>
        <time>2022-04-09T11:03:56Z</time>
      </trkpt>
      <trkpt lat="41.6105020" lon="1.8462120">
        <ele>130.4</ele>
        <time>2022-04-09T11:04:03Z</time>
      </trkpt>
      <trkpt lat="41.6104980" lon="1.8461500">
        <ele>130.2</ele>
        <time>2022-04-09T11:04:07Z</time>
      </trkpt>
      <trkpt lat="41.6104850" lon="1.8461070">
        <ele>130.0</ele>
        <time>2022-04-09T11:04:09Z</time>
      </trkpt>
      <trkpt lat="41.6104280" lon="1.8460730">
        <ele>129.6</ele>
        <time>2022-04-09T11:04:11Z</time>
      </trkpt>
      <trkpt lat="41.6102620" lon="1.8461090">
        <ele>129.0</ele>
        <time>2022-04-09T11:04:15Z</time>
      </trkpt>
      <trkpt lat="41.6102200" lon="1.8461240">
        <ele>128.8</ele>
        <time>2022-04-09T11:04:16Z</time>
      </trkpt>
      <trkpt lat="41.6100110" lon="1.8462030">
        <ele>128.6</ele>
        <time>2022-04-09T11:04:21Z</time>
      </trkpt>
      <trkpt lat="41.6098010" lon="1.8462570">
        <ele>128.4</ele>
        <time>2022-04-09T11:04:25Z</time>
      </trkpt>
      <trkpt lat="41.6097540" lon="1.8462720">
        <ele>128.4</ele>
        <time>2022-04-09T11:04:26Z</time>
      </trkpt>
      <trkpt lat="41.6096360" lon="1.8463060">
        <ele>128.4</ele>
        <time>2022-04-09T11:04:28Z</time>
      </trkpt>
      <trkpt lat="41.6093670" lon="1.8464610">
        <ele>128.6</ele>
        <time>2022-04-09T11:04:33Z</time>
      </trkpt>
      <trkpt lat="41.6089840" lon="1.8466870">
        <ele>129.6</ele>
        <time>2022-04-09T11:04:40Z</time>
      </trkpt>
      <trkpt lat="41.6087120" lon="1.8468680">
        <ele>130.4</ele>
        <time>2022-04-09T11:04:45Z</time>
      </trkpt>
      <trkpt lat="41.6085440" lon="1.8469610">
        <ele>131.2</ele>
        <time>2022-04-09T11:04:48Z</time>
      </trkpt>
      <trkpt lat="41.6084970" lon="1.8469860">
        <ele>131.6</ele>
        <time>2022-04-09T11:04:49Z</time>
      </trkpt>
      <trkpt lat="41.6082910" lon="1.8471470">
        <ele>132.4</ele>
        <time>2022-04-09T11:04:53Z</time>
      </trkpt>
      <trkpt lat="41.6082380" lon="1.8471950">
        <ele>132.6</ele>
        <time>2022-04-09T11:04:54Z</time>
      </trkpt>
      <trkpt lat="41.6080910" lon="1.8473170">
        <ele>133.2</ele>
        <time>2022-04-09T11:04:57Z</time>
      </trkpt>
      <trkpt lat="41.6080440" lon="1.8473690">
        <ele>133.4</ele>
        <time>2022-04-09T11:04:58Z</time>
      </trkpt>
      <trkpt lat="41.6080040" lon="1.8474090">
        <ele>133.8</ele>
        <time>2022-04-09T11:04:59Z</time>
      </trkpt>
      <trkpt lat="41.6079610" lon="1.8474510">
        <ele>134.2</ele>
        <time>2022-04-09T11:05:00Z</time>
      </trkpt>
      <trkpt lat="41.6077710" lon="1.8476490">
        <ele>134.8</ele>
        <time>2022-04-09T11:05:04Z</time>
      </trkpt>
      <trkpt lat="41.6077310" lon="1.8476890">
        <ele>135.0</ele>
        <time>2022-04-09T11:05:05Z</time>
      </trkpt>
      <trkpt lat="41.6076520" lon="1.8477630">
        <ele>135.4</ele>
        <time>2022-04-09T11:05:07Z</time>
      </trkpt>
      <trkpt lat="41.6074520" lon="1.8479520">
        <ele>136.0</ele>
        <time>2022-04-09T11:05:12Z</time>
      </trkpt>
      <trkpt lat="41.6073700" lon="1.8480250">
        <ele>136.8</ele>
        <time>2022-04-09T11:05:14Z</time>
      </trkpt>
      <trkpt lat="41.6072830" lon="1.8481110">
        <ele>136.8</ele>
        <time>2022-04-09T11:05:16Z</time>
      </trkpt>
      <trkpt lat="41.6071580" lon="1.8482340">
        <ele>137.2</ele>
        <time>2022-04-09T11:05:19Z</time>
      </trkpt>
      <trkpt lat="41.6071170" lon="1.8482780">
        <ele>137.2</ele>
        <time>2022-04-09T11:05:20Z</time>
      </trkpt>
      <trkpt lat="41.6067130" lon="1.8486540">
        <ele>137.8</ele>
        <time>2022-04-09T11:05:29Z</time>
      </trkpt>
      <trkpt lat="41.6065090" lon="1.8488260">
        <ele>138.0</ele>
        <time>2022-04-09T11:05:33Z</time>
      </trkpt>
      <trkpt lat="41.6063580" lon="1.8489640">
        <ele>137.8</ele>
        <time>2022-04-09T11:05:36Z</time>
      </trkpt>
      <trkpt lat="41.6060910" lon="1.8492140">
        <ele>138.0</ele>
        <time>2022-04-09T11:05:41Z</time>
      </trkpt>
      <trkpt lat="41.6058590" lon="1.8494210">
        <ele>138.0</ele>
        <time>2022-04-09T11:05:45Z</time>
      </trkpt>
      <trkpt lat="41.6058130" lon="1.8494510">
        <ele>138.2</ele>
        <time>2022-04-09T11:05:46Z</time>
      </trkpt>
      <trkpt lat="41.6057630" lon="1.8494880">
        <ele>138.2</ele>
        <time>2022-04-09T11:05:47Z</time>
      </trkpt>
      <trkpt lat="41.6052680" lon="1.8499070">
        <ele>137.8</ele>
        <time>2022-04-09T11:05:56Z</time>
      </trkpt>
      <trkpt lat="41.6051110" lon="1.8500530">
        <ele>137.6</ele>
        <time>2022-04-09T11:05:59Z</time>
      </trkpt>
      <trkpt lat="41.6047920" lon="1.8503270">
        <ele>137.0</ele>
        <time>2022-04-09T11:06:05Z</time>
      </trkpt>
      <trkpt lat="41.6046240" lon="1.8504510">
        <ele>136.6</ele>
        <time>2022-04-09T11:06:08Z</time>
      </trkpt>
      <trkpt lat="41.6042640" lon="1.8507770">
        <ele>136.0</ele>
        <time>2022-04-09T11:06:14Z</time>
      </trkpt>
      <trkpt lat="41.6042040" lon="1.8508380">
        <ele>135.8</ele>
        <time>2022-04-09T11:06:15Z</time>
      </trkpt>
      <trkpt lat="41.6038860" lon="1.8510680">
        <ele>135.2</ele>
        <time>2022-04-09T11:06:20Z</time>
      </trkpt>
      <trkpt lat="41.6038140" lon="1.8511060">
        <ele>134.8</ele>
        <time>2022-04-09T11:06:21Z</time>
      </trkpt>
      <trkpt lat="41.6034990" lon="1.8512060">
        <ele>133.6</ele>
        <time>2022-04-09T11:06:25Z</time>
      </trkpt>
      <trkpt lat="41.6032460" lon="1.8512690">
        <ele>132.4</ele>
        <time>2022-04-09T11:06:28Z</time>
      </trkpt>
      <trkpt lat="41.6030710" lon="1.8512980">
        <ele>131.4</ele>
        <time>2022-04-09T11:06:30Z</time>
      </trkpt>
      <trkpt lat="41.6027930" lon="1.8513400">
        <ele>130.2</ele>
        <time>2022-04-09T11:06:33Z</time>
      </trkpt>
      <trkpt lat="41.6026070" lon="1.8513590">
        <ele>129.0</ele>
        <time>2022-04-09T11:06:35Z</time>
      </trkpt>
      <trkpt lat="41.6025130" lon="1.8513580">
        <ele>128.6</ele>
        <time>2022-04-09T11:06:36Z</time>
      </trkpt>
      <trkpt lat="41.6023300" lon="1.8513200">
        <ele>127.8</ele>
        <time>2022-04-09T11:06:38Z</time>
      </trkpt>
      <trkpt lat="41.6022440" lon="1.8512790">
        <ele>127.2</ele>
        <time>2022-04-09T11:06:39Z</time>
      </trkpt>
      <trkpt lat="41.6021610" lon="1.8512250">
        <ele>126.8</ele>
        <time>2022-04-09T11:06:40Z</time>
      </trkpt>
      <trkpt lat="41.6020790" lon="1.8511700">
        <ele>126.8</ele>
        <time>2022-04-09T11:06:41Z</time>
      </trkpt>
      <trkpt lat="41.6017520" lon="1.8509740">
        <ele>125.6</ele>
        <time>2022-04-09T11:06:45Z</time>
      </trkpt>
      <trkpt lat="41.6016790" lon="1.8509090">
        <ele>125.0</ele>
        <time>2022-04-09T11:06:46Z</time>
      </trkpt>
      <trkpt lat="41.6016020" lon="1.8508050">
        <ele>124.8</ele>
        <time>2022-04-09T11:06:47Z</time>
      </trkpt>
      <trkpt lat="41.6015490" lon="1.8507290">
        <ele>124.6</ele>
        <time>2022-04-09T11:06:48Z</time>
      </trkpt>
      <trkpt lat="41.6013250" lon="1.8504540">
        <ele>123.0</ele>
        <time>2022-04-09T11:06:51Z</time>
      </trkpt>
      <trkpt lat="41.6011220" lon="1.8501620">
        <ele>121.4</ele>
        <time>2022-04-09T11:06:54Z</time>
      </trkpt>
      <trkpt lat="41.6010450" lon="1.8500710">
        <ele>121.2</ele>
        <time>2022-04-09T11:06:55Z</time>
      </trkpt>
      <trkpt lat="41.6008730" lon="1.8499120">
        <ele>120.4</ele>
        <time>2022-04-09T11:06:57Z</time>
      </trkpt>
      <trkpt lat="41.6007760" lon="1.8498450">
        <ele>119.6</ele>
        <time>2022-04-09T11:06:58Z</time>
      </trkpt>
      <trkpt lat="41.6006770" lon="1.8497880">
        <ele>119.2</ele>
        <time>2022-04-09T11:06:59Z</time>
      </trkpt>
      <trkpt lat="41.6004650" lon="1.8496940">
        <ele>117.8</ele>
        <time>2022-04-09T11:07:01Z</time>
      </trkpt>
      <trkpt lat="41.6001090" lon="1.8495900">
        <ele>117.2</ele>
        <time>2022-04-09T11:07:04Z</time>
      </trkpt>
      <trkpt lat="41.5999910" lon="1.8495640">
        <ele>116.8</ele>
        <time>2022-04-09T11:07:05Z</time>
      </trkpt>
      <trkpt lat="41.5998750" lon="1.8495490">
        <ele>116.6</ele>
        <time>2022-04-09T11:07:06Z</time>
      </trkpt>
      <trkpt lat="41.5997540" lon="1.8495530">
        <ele>116.0</ele>
        <time>2022-04-09T11:07:07Z</time>
      </trkpt>
      <trkpt lat="41.5996320" lon="1.8495730">
        <ele>115.2</ele>
        <time>2022-04-09T11:07:08Z</time>
      </trkpt>
      <trkpt lat="41.5994010" lon="1.8496170">
        <ele>113.8</ele>
        <time>2022-04-09T11:07:10Z</time>
      </trkpt>
      <trkpt lat="41.5992900" lon="1.8496500">
        <ele>113.6</ele>
        <time>2022-04-09T11:07:11Z</time>
      </trkpt>
      <trkpt lat="41.5991840" lon="1.8496950">
        <ele>112.8</ele>
        <time>2022-04-09T11:07:12Z</time>
      </trkpt>
      <trkpt lat="41.5990630" lon="1.8497580">
        <ele>111.8</ele>
        <time>2022-04-09T11:07:13Z</time>
      </trkpt>
      <trkpt lat="41.5988740" lon="1.8499130">
        <ele>110.8</ele>
        <time>2022-04-09T11:07:15Z</time>
      </trkpt>
      <trkpt lat="41.5986320" lon="1.8501360">
        <ele>110.6</ele>
        <time>2022-04-09T11:07:18Z</time>
      </trkpt>
      <trkpt lat="41.5985440" lon="1.8502420">
        <ele>110.6</ele>
        <time>2022-04-09T11:07:19Z</time>
      </trkpt>
      <trkpt lat="41.5981520" lon="1.8507040">
        <ele>111.2</ele>
        <time>2022-04-09T11:07:24Z</time>
      </trkpt>
      <trkpt lat="41.5979710" lon="1.8509880">
        <ele>111.8</ele>
        <time>2022-04-09T11:07:27Z</time>
      </trkpt>
      <trkpt lat="41.5978600" lon="1.8511660">
        <ele>112.0</ele>
        <time>2022-04-09T11:07:29Z</time>
      </trkpt>
      <trkpt lat="41.5976770" lon="1.8515100">
        <ele>112.2</ele>
        <time>2022-04-09T11:07:33Z</time>
      </trkpt>
      <trkpt lat="41.5975850" lon="1.8516810">
        <ele>112.6</ele>
        <time>2022-04-09T11:07:35Z</time>
      </trkpt>
      <trkpt lat="41.5974970" lon="1.8518770">
        <ele>113.6</ele>
        <time>2022-04-09T11:07:37Z</time>
      </trkpt>
      <trkpt lat="41.5974630" lon="1.8519680">
        <ele>114.4</ele>
        <time>2022-04-09T11:07:38Z</time>
      </trkpt>
      <trkpt lat="41.5974280" lon="1.8520510">
        <ele>114.6</ele>
        <time>2022-04-09T11:07:39Z</time>
      </trkpt>
      <trkpt lat="41.5973160" lon="1.8523240">
        <ele>115.4</ele>
        <time>2022-04-09T11:07:43Z</time>
      </trkpt>
      <trkpt lat="41.5972630" lon="1.8524750">
        <ele>115.8</ele>
        <time>2022-04-09T11:07:45Z</time>
      </trkpt>
      <trkpt lat="41.5972070" lon="1.8526400">
        <ele>117.0</ele>
        <time>2022-04-09T11:07:48Z</time>
      </trkpt>
      <trkpt lat="41.5971860" lon="1.8526900">
        <ele>117.0</ele>
        <time>2022-04-09T11:07:49Z</time>
      </trkpt>
      <trkpt lat="41.5970820" lon="1.8529050">
        <ele>117.8</ele>
        <time>2022-04-09T11:07:54Z</time>
      </trkpt>
      <trkpt lat="41.5970580" lon="1.8529390">
        <ele>117.8</ele>
        <time>2022-04-09T11:07:55Z</time>
      </trkpt>
      <trkpt lat="41.5968890" lon="1.8531140">
        <ele>118.4</ele>
        <time>2022-04-09T11:08:00Z</time>
      </trkpt>
      <trkpt lat="41.5968040" lon="1.8532090">
        <ele>118.8</ele>
        <time>2022-04-09T11:08:03Z</time>
      </trkpt>
      <trkpt lat="41.5967440" lon="1.8532670">
        <ele>119.2</ele>
        <time>2022-04-09T11:08:05Z</time>
      </trkpt>
      <trkpt lat="41.5966560" lon="1.8533530">
        <ele>120.0</ele>
        <time>2022-04-09T11:08:08Z</time>
      </trkpt>
      <trkpt lat="41.5965880" lon="1.8534390">
        <ele>120.6</ele>
        <time>2022-04-09T11:08:11Z</time>
      </trkpt>
      <trkpt lat="41.5965300" lon="1.8535100">
        <ele>121.0</ele>
        <time>2022-04-09T11:08:13Z</time>
      </trkpt>
      <trkpt lat="41.5964110" lon="1.8536140">
        <ele>121.6</ele>
        <time>2022-04-09T11:08:17Z</time>
      </trkpt>
      <trkpt lat="41.5963830" lon="1.8536380">
        <ele>122.0</ele>
        <time>2022-04-09T11:08:18Z</time>
      </trkpt>
      <trkpt lat="41.5961880" lon="1.8537740">
        <ele>123.0</ele>
        <time>2022-04-09T11:08:24Z</time>
      </trkpt>
      <trkpt lat="41.5960160" lon="1.8538210">
        <ele>124.0</ele>
        <time>2022-04-09T11:08:29Z</time>
      </trkpt>
      <trkpt lat="41.5959780" lon="1.8538290">
        <ele>124.2</ele>
        <time>2022-04-09T11:08:30Z</time>
      </trkpt>
      <trkpt lat="41.5957920" lon="1.8538320">
        <ele>125.4</ele>
        <time>2022-04-09T11:08:35Z</time>
      </trkpt>
      <trkpt lat="41.5957520" lon="1.8538350">
        <ele>125.8</ele>
        <time>2022-04-09T11:08:36Z</time>
      </trkpt>
      <trkpt lat="41.5956040" lon="1.8538140">
        <ele>126.6</ele>
        <time>2022-04-09T11:08:40Z</time>
      </trkpt>
      <trkpt lat="41.5954770" lon="1.8538120">
        <ele>127.2</ele>
        <time>2022-04-09T11:08:43Z</time>
      </trkpt>
      <trkpt lat="41.5953510" lon="1.8537930">
        <ele>127.6</ele>
        <time>2022-04-09T11:08:46Z</time>
      </trkpt>
      <trkpt lat="41.5953070" lon="1.8537810">
        <ele>127.6</ele>
        <time>2022-04-09T11:08:47Z</time>
      </trkpt>
      <trkpt lat="41.5952630" lon="1.8537660">
        <ele>127.8</ele>
        <time>2022-04-09T11:08:48Z</time>
      </trkpt>
      <trkpt lat="41.5951720" lon="1.8537350">
        <ele>128.0</ele>
        <time>2022-04-09T11:08:50Z</time>
      </trkpt>
      <trkpt lat="41.5950500" lon="1.8536550">
        <ele>128.2</ele>
        <time>2022-04-09T11:08:53Z</time>
      </trkpt>
      <trkpt lat="41.5949690" lon="1.8535990">
        <ele>128.2</ele>
        <time>2022-04-09T11:08:55Z</time>
      </trkpt>
      <trkpt lat="41.5948850" lon="1.8535210">
        <ele>128.2</ele>
        <time>2022-04-09T11:08:57Z</time>
      </trkpt>
      <trkpt lat="41.5948400" lon="1.8534830">
        <ele>128.2</ele>
        <time>2022-04-09T11:08:58Z</time>
      </trkpt>
      <trkpt lat="41.5946340" lon="1.8533350">
        <ele>128.0</ele>
        <time>2022-04-09T11:09:02Z</time>
      </trkpt>
      <trkpt lat="41.5945350" lon="1.8532290">
        <ele>127.8</ele>
        <time>2022-04-09T11:09:04Z</time>
      </trkpt>
      <trkpt lat="41.5944720" lon="1.8531090">
        <ele>127.6</ele>
        <time>2022-04-09T11:09:06Z</time>
      </trkpt>
      <trkpt lat="41.5944250" lon="1.8530530">
        <ele>127.6</ele>
        <time>2022-04-09T11:09:07Z</time>
      </trkpt>
      <trkpt lat="41.5942700" lon="1.8527650">
        <ele>127.4</ele>
        <time>2022-04-09T11:09:11Z</time>
      </trkpt>
      <trkpt lat="41.5941190" lon="1.8525590">
        <ele>126.6</ele>
        <time>2022-04-09T11:09:14Z</time>
      </trkpt>
      <trkpt lat="41.5940070" lon="1.8524340">
        <ele>126.2</ele>
        <time>2022-04-09T11:09:16Z</time>
      </trkpt>
      <trkpt lat="41.5938160" lon="1.8522430">
        <ele>125.2</ele>
        <time>2022-04-09T11:09:19Z</time>
      </trkpt>
      <trkpt lat="41.5936880" lon="1.8521060">
        <ele>124.2</ele>
        <time>2022-04-09T11:09:21Z</time>
      </trkpt>
      <trkpt lat="41.5936240" lon="1.8520350">
        <ele>123.8</ele>
        <time>2022-04-09T11:09:22Z</time>
      </trkpt>
      <trkpt lat="41.5933010" lon="1.8516830">
        <ele>122.8</ele>
        <time>2022-04-09T11:09:27Z</time>
      </trkpt>
      <trkpt lat="41.5932340" lon="1.8516150">
        <ele>122.0</ele>
        <time>2022-04-09T11:09:28Z</time>
      </trkpt>
      <trkpt lat="41.5931020" lon="1.8514890">
        <ele>121.4</ele>
        <time>2022-04-09T11:09:30Z</time>
      </trkpt>
      <trkpt lat="41.5927620" lon="1.8512200">
        <ele>120.8</ele>
        <time>2022-04-09T11:09:35Z</time>
      </trkpt>
      <trkpt lat="41.5925490" lon="1.8511190">
        <ele>120.6</ele>
        <time>2022-04-09T11:09:38Z</time>
      </trkpt>
      <trkpt lat="41.5924100" lon="1.8510740">
        <ele>120.6</ele>
        <time>2022-04-09T11:09:40Z</time>
      </trkpt>
      <trkpt lat="41.5923420" lon="1.8510510">
        <ele>120.4</ele>
        <time>2022-04-09T11:09:41Z</time>
      </trkpt>
      <trkpt lat="41.5920040" lon="1.8509370">
        <ele>119.6</ele>
        <time>2022-04-09T11:09:46Z</time>
      </trkpt>
      <trkpt lat="41.5919380" lon="1.8509150">
        <ele>119.6</ele>
        <time>2022-04-09T11:09:47Z</time>
      </trkpt>
      <trkpt lat="41.5917420" lon="1.8508780">
        <ele>119.2</ele>
        <time>2022-04-09T11:09:50Z</time>
      </trkpt>
      <trkpt lat="41.5916780" lon="1.8508670">
        <ele>119.2</ele>
        <time>2022-04-09T11:09:51Z</time>
      </trkpt>
      <trkpt lat="41.5915580" lon="1.8508440">
        <ele>119.0</ele>
        <time>2022-04-09T11:09:53Z</time>
      </trkpt>
      <trkpt lat="41.5914470" lon="1.8508140">
        <ele>119.0</ele>
        <time>2022-04-09T11:09:55Z</time>
      </trkpt>
      <trkpt lat="41.5912520" lon="1.8506340">
        <ele>119.0</ele>
        <time>2022-04-09T11:10:00Z</time>
      </trkpt>
      <trkpt lat="41.5911810" lon="1.8505460">
        <ele>119.2</ele>
        <time>2022-04-09T11:10:03Z</time>
      </trkpt>
      <trkpt lat="41.5911660" lon="1.8505190">
        <ele>119.2</ele>
        <time>2022-04-09T11:10:04Z</time>
      </trkpt>
      <trkpt lat="41.5911540" lon="1.8504950">
        <ele>119.4</ele>
        <time>2022-04-09T11:10:08Z</time>
      </trkpt>
      <trkpt lat="41.5911130" lon="1.8505000">
        <ele>119.8</ele>
        <time>2022-04-09T11:11:40Z</time>
      </trkpt>
      <trkpt lat="41.5910940" lon="1.8504520">
        <ele>119.8</ele>
        <time>2022-04-09T11:11:42Z</time>
      </trkpt>
      <trkpt lat="41.5909800" lon="1.8503180">
        <ele>120.0</ele>
        <time>2022-04-09T11:11:47Z</time>
      </trkpt>
      <trkpt lat="41.5909610" lon="1.8502900">
        <ele>120.0</ele>
        <time>2022-04-09T11:11:48Z</time>
      </trkpt>
      <trkpt lat="41.5908800" lon="1.8501980">
        <ele>120.4</ele>
        <time>2022-04-09T11:11:52Z</time>
      </trkpt>
      <trkpt lat="41.5907460" lon="1.8501700">
        <ele>121.0</ele>
        <time>2022-04-09T11:11:56Z</time>
      </trkpt>
      <trkpt lat="41.5907200" lon="1.8501850">
        <ele>121.0</ele>
        <time>2022-04-09T11:11:57Z</time>
      </trkpt>
      <trkpt lat="41.5906020" lon="1.8502910">
        <ele>122.0</ele>
        <time>2022-04-09T11:12:01Z</time>
      </trkpt>
      <trkpt lat="41.5905890" lon="1.8503180">
        <ele>122.0</ele>
        <time>2022-04-09T11:12:02Z</time>
      </trkpt>
      <trkpt lat="41.5905100" lon="1.8505060">
        <ele>123.4</ele>
        <time>2022-04-09T11:12:06Z</time>
      </trkpt>
      <trkpt lat="41.5904490" lon="1.8506250">
        <ele>124.0</ele>
        <time>2022-04-09T11:12:09Z</time>
      </trkpt>
      <trkpt lat="41.5903840" lon="1.8507480">
        <ele>124.4</ele>
        <time>2022-04-09T11:12:12Z</time>
      </trkpt>
      <trkpt lat="41.5903170" lon="1.8508540">
        <ele>125.0</ele>
        <time>2022-04-09T11:12:15Z</time>
      </trkpt>
      <trkpt lat="41.5902860" lon="1.8509010">
        <ele>125.4</ele>
        <time>2022-04-09T11:12:16Z</time>
      </trkpt>
      <trkpt lat="41.5902190" lon="1.8509700">
        <ele>126.4</ele>
        <time>2022-04-09T11:12:19Z</time>
      </trkpt>
      <trkpt lat="41.5901970" lon="1.8509850">
        <ele>127.0</ele>
        <time>2022-04-09T11:12:20Z</time>
      </trkpt>
      <trkpt lat="41.5901440" lon="1.8510330">
        <ele>127.6</ele>
        <time>2022-04-09T11:12:22Z</time>
      </trkpt>
      <trkpt lat="41.5900500" lon="1.8510820">
        <ele>128.6</ele>
        <time>2022-04-09T11:12:25Z</time>
      </trkpt>
      <trkpt lat="41.5899850" lon="1.8511140">
        <ele>129.2</ele>
        <time>2022-04-09T11:12:27Z</time>
      </trkpt>
      <trkpt lat="41.5898960" lon="1.8511660">
        <ele>129.6</ele>
        <time>2022-04-09T11:12:30Z</time>
      </trkpt>
      <trkpt lat="41.5898440" lon="1.8512150">
        <ele>130.8</ele>
        <time>2022-04-09T11:12:32Z</time>
      </trkpt>
      <trkpt lat="41.5897910" lon="1.8512710">
        <ele>131.0</ele>
        <time>2022-04-09T11:12:34Z</time>
      </trkpt>
      <trkpt lat="41.5896800" lon="1.8513720">
        <ele>131.8</ele>
        <time>2022-04-09T11:12:38Z</time>
      </trkpt>
      <trkpt lat="41.5895470" lon="1.8514450">
        <ele>132.4</ele>
        <time>2022-04-09T11:12:42Z</time>
      </trkpt>
      <trkpt lat="41.5894660" lon="1.8514740">
        <ele>132.8</ele>
        <time>2022-04-09T11:12:44Z</time>
      </trkpt>
      <trkpt lat="41.5893140" lon="1.8514650">
        <ele>134.0</ele>
        <time>2022-04-09T11:12:48Z</time>
      </trkpt>
      <trkpt lat="41.5891780" lon="1.8513330">
        <ele>134.8</ele>
        <time>2022-04-09T11:12:53Z</time>
      </trkpt>
      <trkpt lat="41.5891520" lon="1.8513060">
        <ele>135.0</ele>
        <time>2022-04-09T11:12:54Z</time>
      </trkpt>
      <trkpt lat="41.5890670" lon="1.8511670">
        <ele>136.0</ele>
        <time>2022-04-09T11:12:58Z</time>
      </trkpt>
      <trkpt lat="41.5889750" lon="1.8510320">
        <ele>136.6</ele>
        <time>2022-04-09T11:13:02Z</time>
      </trkpt>
      <trkpt lat="41.5889180" lon="1.8508750">
        <ele>137.2</ele>
        <time>2022-04-09T11:13:06Z</time>
      </trkpt>
      <trkpt lat="41.5888900" lon="1.8508020">
        <ele>137.4</ele>
        <time>2022-04-09T11:13:08Z</time>
      </trkpt>
      <trkpt lat="41.5888170" lon="1.8506580">
        <ele>138.4</ele>
        <time>2022-04-09T11:13:12Z</time>
      </trkpt>
      <trkpt lat="41.5887830" lon="1.8506050">
        <ele>138.6</ele>
        <time>2022-04-09T11:13:14Z</time>
      </trkpt>
      <trkpt lat="41.5886690" lon="1.8505300">
        <ele>139.0</ele>
        <time>2022-04-09T11:13:18Z</time>
      </trkpt>
      <trkpt lat="41.5886400" lon="1.8505250">
        <ele>139.6</ele>
        <time>2022-04-09T11:13:19Z</time>
      </trkpt>
      <trkpt lat="41.5885070" lon="1.8505720">
        <ele>140.4</ele>
        <time>2022-04-09T11:13:23Z</time>
      </trkpt>
      <trkpt lat="41.5884770" lon="1.8506080">
        <ele>140.6</ele>
        <time>2022-04-09T11:13:24Z</time>
      </trkpt>
      <trkpt lat="41.5884030" lon="1.8507740">
        <ele>141.2</ele>
        <time>2022-04-09T11:13:28Z</time>
      </trkpt>
      <trkpt lat="41.5883780" lon="1.8508750">
        <ele>142.0</ele>
        <time>2022-04-09T11:13:30Z</time>
      </trkpt>
      <trkpt lat="41.5883460" lon="1.8510520">
        <ele>143.0</ele>
        <time>2022-04-09T11:13:34Z</time>
      </trkpt>
      <trkpt lat="41.5883350" lon="1.8510940">
        <ele>143.2</ele>
        <time>2022-04-09T11:13:35Z</time>
      </trkpt>
      <trkpt lat="41.5883040" lon="1.8513300">
        <ele>144.4</ele>
        <time>2022-04-09T11:13:40Z</time>
      </trkpt>
      <trkpt lat="41.5882960" lon="1.8514140">
        <ele>145.0</ele>
        <time>2022-04-09T11:13:42Z</time>
      </trkpt>
      <trkpt lat="41.5883000" lon="1.8515070">
        <ele>145.4</ele>
        <time>2022-04-09T11:13:44Z</time>
      </trkpt>
      <trkpt lat="41.5882660" lon="1.8517300">
        <ele>146.4</ele>
        <time>2022-04-09T11:13:49Z</time>
      </trkpt>
      <trkpt lat="41.5882210" lon="1.8517840">
        <ele>146.6</ele>
        <time>2022-04-09T11:13:51Z</time>
      </trkpt>
      <trkpt lat="41.5881910" lon="1.8517890">
        <ele>147.0</ele>
        <time>2022-04-09T11:13:52Z</time>
      </trkpt>
      <trkpt lat="41.5881600" lon="1.8517870">
        <ele>147.2</ele>
        <time>2022-04-09T11:13:53Z</time>
      </trkpt>
      <trkpt lat="41.5880700" lon="1.8517160">
        <ele>147.8</ele>
        <time>2022-04-09T11:13:56Z</time>
      </trkpt>
      <trkpt lat="41.5879530" lon="1.8515170">
        <ele>148.6</ele>
        <time>2022-04-09T11:14:02Z</time>
      </trkpt>
      <trkpt lat="41.5879270" lon="1.8514860">
        <ele>148.8</ele>
        <time>2022-04-09T11:14:03Z</time>
      </trkpt>
      <trkpt lat="41.5877630" lon="1.8513460">
        <ele>149.8</ele>
        <time>2022-04-09T11:14:09Z</time>
      </trkpt>
      <trkpt lat="41.5875550" lon="1.8512080">
        <ele>151.0</ele>
        <time>2022-04-09T11:14:16Z</time>
      </trkpt>
      <trkpt lat="41.5875030" lon="1.8511650">
        <ele>151.4</ele>
        <time>2022-04-09T11:14:18Z</time>
      </trkpt>
      <trkpt lat="41.5873960" lon="1.8510930">
        <ele>152.0</ele>
        <time>2022-04-09T11:14:22Z</time>
      </trkpt>
      <trkpt lat="41.5873670" lon="1.8510830">
        <ele>152.0</ele>
        <time>2022-04-09T11:14:23Z</time>
      </trkpt>
      <trkpt lat="41.5872480" lon="1.8510740">
        <ele>152.8</ele>
        <time>2022-04-09T11:14:26Z</time>
      </trkpt>
      <trkpt lat="41.5871770" lon="1.8510670">
        <ele>153.2</ele>
        <time>2022-04-09T11:14:28Z</time>
      </trkpt>
      <trkpt lat="41.5870860" lon="1.8510480">
        <ele>153.8</ele>
        <time>2022-04-09T11:14:31Z</time>
      </trkpt>
      <trkpt lat="41.5870400" lon="1.8510660">
        <ele>154.2</ele>
        <time>2022-04-09T11:14:33Z</time>
      </trkpt>
      <trkpt lat="41.5870050" lon="1.8511190">
        <ele>154.6</ele>
        <time>2022-04-09T11:14:35Z</time>
      </trkpt>
      <trkpt lat="41.5869520" lon="1.8513450">
        <ele>155.2</ele>
        <time>2022-04-09T11:14:39Z</time>
      </trkpt>
      <trkpt lat="41.5869310" lon="1.8517150">
        <ele>155.8</ele>
        <time>2022-04-09T11:14:46Z</time>
      </trkpt>
      <trkpt lat="41.5868940" lon="1.8519040">
        <ele>156.4</ele>
        <time>2022-04-09T11:14:50Z</time>
      </trkpt>
      <trkpt lat="41.5867630" lon="1.8520450">
        <ele>156.8</ele>
        <time>2022-04-09T11:14:55Z</time>
      </trkpt>
      <trkpt lat="41.5866490" lon="1.8520320">
        <ele>157.2</ele>
        <time>2022-04-09T11:14:59Z</time>
      </trkpt>
      <trkpt lat="41.5866230" lon="1.8520310">
        <ele>158.0</ele>
        <time>2022-04-09T11:15:00Z</time>
      </trkpt>
      <trkpt lat="41.5864800" lon="1.8520670">
        <ele>159.0</ele>
        <time>2022-04-09T11:15:04Z</time>
      </trkpt>
      <trkpt lat="41.5864510" lon="1.8520960">
        <ele>159.2</ele>
        <time>2022-04-09T11:15:05Z</time>
      </trkpt>
      <trkpt lat="41.5863690" lon="1.8521900">
        <ele>160.2</ele>
        <time>2022-04-09T11:15:08Z</time>
      </trkpt>
      <trkpt lat="41.5863280" lon="1.8522710">
        <ele>160.6</ele>
        <time>2022-04-09T11:15:10Z</time>
      </trkpt>
      <trkpt lat="41.5862570" lon="1.8524260">
        <ele>161.6</ele>
        <time>2022-04-09T11:15:14Z</time>
      </trkpt>
      <trkpt lat="41.5862120" lon="1.8524980">
        <ele>162.0</ele>
        <time>2022-04-09T11:15:16Z</time>
      </trkpt>
      <trkpt lat="41.5861540" lon="1.8525370">
        <ele>162.2</ele>
        <time>2022-04-09T11:15:18Z</time>
      </trkpt>
      <trkpt lat="41.5861310" lon="1.8525430">
        <ele>162.6</ele>
        <time>2022-04-09T11:15:19Z</time>
      </trkpt>
      <trkpt lat="41.5859880" lon="1.8525140">
        <ele>164.0</ele>
        <time>2022-04-09T11:15:23Z</time>
      </trkpt>
      <trkpt lat="41.5859580" lon="1.8525020">
        <ele>164.2</ele>
        <time>2022-04-09T11:15:24Z</time>
      </trkpt>
      <trkpt lat="41.5857540" lon="1.8524580">
        <ele>165.2</ele>
        <time>2022-04-09T11:15:30Z</time>
      </trkpt>
      <trkpt lat="41.5857180" lon="1.8524630">
        <ele>165.2</ele>
        <time>2022-04-09T11:15:31Z</time>
      </trkpt>
      <trkpt lat="41.5855920" lon="1.8525030">
        <ele>166.2</ele>
        <time>2022-04-09T11:15:35Z</time>
      </trkpt>
      <trkpt lat="41.5854970" lon="1.8525400">
        <ele>166.8</ele>
        <time>2022-04-09T11:15:38Z</time>
      </trkpt>
      <trkpt lat="41.5854310" lon="1.8525780">
        <ele>167.2</ele>
        <time>2022-04-09T11:15:40Z</time>
      </trkpt>
      <trkpt lat="41.5852720" lon="1.8526640">
        <ele>167.6</ele>
        <time>2022-04-09T11:15:45Z</time>
      </trkpt>
      <trkpt lat="41.5852030" lon="1.8527000">
        <ele>168.2</ele>
        <time>2022-04-09T11:15:47Z</time>
      </trkpt>
      <trkpt lat="41.5851040" lon="1.8527810">
        <ele>169.4</ele>
        <time>2022-04-09T11:15:51Z</time>
      </trkpt>
      <trkpt lat="41.5849910" lon="1.8529560">
        <ele>170.4</ele>
        <time>2022-04-09T11:15:56Z</time>
      </trkpt>
      <trkpt lat="41.5848880" lon="1.8532600">
        <ele>171.6</ele>
        <time>2022-04-09T11:16:03Z</time>
      </trkpt>
      <trkpt lat="41.5848570" lon="1.8533430">
        <ele>172.0</ele>
        <time>2022-04-09T11:16:05Z</time>
      </trkpt>
      <trkpt lat="41.5848080" lon="1.8534660">
        <ele>172.8</ele>
        <time>2022-04-09T11:16:08Z</time>
      </trkpt>
      <trkpt lat="41.5847130" lon="1.8535990">
        <ele>173.6</ele>
        <time>2022-04-09T11:16:12Z</time>
      </trkpt>
      <trkpt lat="41.5846650" lon="1.8536470">
        <ele>174.0</ele>
        <time>2022-04-09T11:16:14Z</time>
      </trkpt>
      <trkpt lat="41.5845390" lon="1.8537610">
        <ele>174.8</ele>
        <time>2022-04-09T11:16:19Z</time>
      </trkpt>
      <trkpt lat="41.5845070" lon="1.8537850">
        <ele>175.2</ele>
        <time>2022-04-09T11:16:20Z</time>
      </trkpt>
      <trkpt lat="41.5843810" lon="1.8539110">
        <ele>175.8</ele>
        <time>2022-04-09T11:16:25Z</time>
      </trkpt>
      <trkpt lat="41.5843140" lon="1.8540090">
        <ele>176.4</ele>
        <time>2022-04-09T11:16:28Z</time>
      </trkpt>
      <trkpt lat="41.5841770" lon="1.8542190">
        <ele>177.8</ele>
        <time>2022-04-09T11:16:34Z</time>
      </trkpt>
      <trkpt lat="41.5840030" lon="1.8544350">
        <ele>179.0</ele>
        <time>2022-04-09T11:16:41Z</time>
      </trkpt>
      <trkpt lat="41.5838870" lon="1.8545350">
        <ele>180.4</ele>
        <time>2022-04-09T11:16:45Z</time>
      </trkpt>
      <trkpt lat="41.5838320" lon="1.8545910">
        <ele>181.0</ele>
        <time>2022-04-09T11:16:47Z</time>
      </trkpt>
      <trkpt lat="41.5837880" lon="1.8546350">
        <ele>181.4</ele>
        <time>2022-04-09T11:16:49Z</time>
      </trkpt>
      <trkpt lat="41.5837030" lon="1.8547480">
        <ele>181.6</ele>
        <time>2022-04-09T11:16:52Z</time>
      </trkpt>
      <trkpt lat="41.5835810" lon="1.8549370">
        <ele>182.4</ele>
        <time>2022-04-09T11:16:57Z</time>
      </trkpt>
      <trkpt lat="41.5835190" lon="1.8549980">
        <ele>182.8</ele>
        <time>2022-04-09T11:17:00Z</time>
      </trkpt>
      <trkpt lat="41.5835020" lon="1.8550320">
        <ele>183.0</ele>
        <time>2022-04-09T11:17:01Z</time>
      </trkpt>
      <trkpt lat="41.5834290" lon="1.8551570">
        <ele>183.4</ele>
        <time>2022-04-09T11:17:05Z</time>
      </trkpt>
      <trkpt lat="41.5833590" lon="1.8552290">
        <ele>184.0</ele>
        <time>2022-04-09T11:17:08Z</time>
      </trkpt>
      <trkpt lat="41.5833100" lon="1.8552700">
        <ele>184.6</ele>
        <time>2022-04-09T11:17:10Z</time>
      </trkpt>
      <trkpt lat="41.5831740" lon="1.8553740">
        <ele>185.8</ele>
        <time>2022-04-09T11:17:15Z</time>
      </trkpt>
      <trkpt lat="41.5831440" lon="1.8553930">
        <ele>186.0</ele>
        <time>2022-04-09T11:17:16Z</time>
      </trkpt>
      <trkpt lat="41.5829860" lon="1.8554940">
        <ele>187.0</ele>
        <time>2022-04-09T11:17:22Z</time>
      </trkpt>
      <trkpt lat="41.5829600" lon="1.8555090">
        <ele>187.2</ele>
        <time>2022-04-09T11:17:23Z</time>
      </trkpt>
      <trkpt lat="41.5828100" lon="1.8556250">
        <ele>188.0</ele>
        <time>2022-04-09T11:17:28Z</time>
      </trkpt>
      <trkpt lat="41.5827480" lon="1.8556870">
        <ele>188.4</ele>
        <time>2022-04-09T11:17:30Z</time>
      </trkpt>
      <trkpt lat="41.5826420" lon="1.8558060">
        <ele>189.4</ele>
        <time>2022-04-09T11:17:34Z</time>
      </trkpt>
      <trkpt lat="41.5825940" lon="1.8558320">
        <ele>189.8</ele>
        <time>2022-04-09T11:17:36Z</time>
      </trkpt>
      <trkpt lat="41.5825260" lon="1.8558300">
        <ele>190.2</ele>
        <time>2022-04-09T11:17:38Z</time>
      </trkpt>
      <trkpt lat="41.5824920" lon="1.8558120">
        <ele>190.6</ele>
        <time>2022-04-09T11:17:39Z</time>
      </trkpt>
      <trkpt lat="41.5824250" lon="1.8557960">
        <ele>191.2</ele>
        <time>2022-04-09T11:17:41Z</time>
      </trkpt>
      <trkpt lat="41.5823270" lon="1.8557670">
        <ele>191.8</ele>
        <time>2022-04-09T11:17:44Z</time>
      </trkpt>
      <trkpt lat="41.5822880" lon="1.8557570">
        <ele>191.8</ele>
        <time>2022-04-09T11:17:45Z</time>
      </trkpt>
      <trkpt lat="41.5822360" lon="1.8557550">
        <ele>192.0</ele>
        <time>2022-04-09T11:17:46Z</time>
      </trkpt>
      <trkpt lat="41.5820680" lon="1.8557610">
        <ele>192.6</ele>
        <time>2022-04-09T11:17:50Z</time>
      </trkpt>
      <trkpt lat="41.5820180" lon="1.8557750">
        <ele>192.8</ele>
        <time>2022-04-09T11:17:51Z</time>
      </trkpt>
      <trkpt lat="41.5819830" lon="1.8557990">
        <ele>192.8</ele>
        <time>2022-04-09T11:17:52Z</time>
      </trkpt>
      <trkpt lat="41.5819270" lon="1.8558440">
        <ele>193.4</ele>
        <time>2022-04-09T11:17:55Z</time>
      </trkpt>
      <trkpt lat="41.5819110" lon="1.8558750">
        <ele>193.8</ele>
        <time>2022-04-09T11:17:56Z</time>
      </trkpt>
      <trkpt lat="41.5818450" lon="1.8560140">
        <ele>194.6</ele>
        <time>2022-04-09T11:18:00Z</time>
      </trkpt>
      <trkpt lat="41.5818170" lon="1.8560810">
        <ele>195.0</ele>
        <time>2022-04-09T11:18:02Z</time>
      </trkpt>
      <trkpt lat="41.5817420" lon="1.8562560">
        <ele>196.2</ele>
        <time>2022-04-09T11:18:07Z</time>
      </trkpt>
      <trkpt lat="41.5816480" lon="1.8563910">
        <ele>197.4</ele>
        <time>2022-04-09T11:18:12Z</time>
      </trkpt>
      <trkpt lat="41.5816220" lon="1.8564060">
        <ele>197.6</ele>
        <time>2022-04-09T11:18:13Z</time>
      </trkpt>
      <trkpt lat="41.5815680" lon="1.8564210">
        <ele>198.2</ele>
        <time>2022-04-09T11:18:15Z</time>
      </trkpt>
      <trkpt lat="41.5814690" lon="1.8564520">
        <ele>198.6</ele>
        <time>2022-04-09T11:18:18Z</time>
      </trkpt>
      <trkpt lat="41.5813680" lon="1.8564450">
        <ele>199.0</ele>
        <time>2022-04-09T11:18:22Z</time>
      </trkpt>
      <trkpt lat="41.5813020" lon="1.8564480">
        <ele>199.2</ele>
        <time>2022-04-09T11:18:24Z</time>
      </trkpt>
      <trkpt lat="41.5812080" lon="1.8564420">
        <ele>199.4</ele>
        <time>2022-04-09T11:18:27Z</time>
      </trkpt>
      <trkpt lat="41.5810940" lon="1.8564120">
        <ele>200.4</ele>
        <time>2022-04-09T11:18:31Z</time>
      </trkpt>
      <trkpt lat="41.5810660" lon="1.8564010">
        <ele>200.6</ele>
        <time>2022-04-09T11:18:32Z</time>
      </trkpt>
      <trkpt lat="41.5809450" lon="1.8563950">
        <ele>201.0</ele>
        <time>2022-04-09T11:18:36Z</time>
      </trkpt>
      <trkpt lat="41.5809120" lon="1.8564050">
        <ele>201.0</ele>
        <time>2022-04-09T11:18:37Z</time>
      </trkpt>
      <trkpt lat="41.5807970" lon="1.8564270">
        <ele>201.4</ele>
        <time>2022-04-09T11:18:41Z</time>
      </trkpt>
      <trkpt lat="41.5807700" lon="1.8564160">
        <ele>201.6</ele>
        <time>2022-04-09T11:18:42Z</time>
      </trkpt>
      <trkpt lat="41.5807460" lon="1.8563990">
        <ele>201.8</ele>
        <time>2022-04-09T11:18:43Z</time>
      </trkpt>
      <trkpt lat="41.5806070" lon="1.8563540">
        <ele>202.4</ele>
        <time>2022-04-09T11:18:48Z</time>
      </trkpt>
      <trkpt lat="41.5805730" lon="1.8563560">
        <ele>202.6</ele>
        <time>2022-04-09T11:18:49Z</time>
      </trkpt>
      <trkpt lat="41.5804080" lon="1.8564310">
        <ele>203.6</ele>
        <time>2022-04-09T11:18:54Z</time>
      </trkpt>
      <trkpt lat="41.5802850" lon="1.8565130">
        <ele>204.8</ele>
        <time>2022-04-09T11:18:58Z</time>
      </trkpt>
      <trkpt lat="41.5802320" lon="1.8565510">
        <ele>205.0</ele>
        <time>2022-04-09T11:19:00Z</time>
      </trkpt>
      <trkpt lat="41.5801090" lon="1.8566220">
        <ele>206.0</ele>
        <time>2022-04-09T11:19:04Z</time>
      </trkpt>
      <trkpt lat="41.5800180" lon="1.8566780">
        <ele>206.6</ele>
        <time>2022-04-09T11:19:07Z</time>
      </trkpt>
      <trkpt lat="41.5799640" lon="1.8567060">
        <ele>207.2</ele>
        <time>2022-04-09T11:19:09Z</time>
      </trkpt>
      <trkpt lat="41.5798480" lon="1.8567310">
        <ele>207.6</ele>
        <time>2022-04-09T11:19:13Z</time>
      </trkpt>
      <trkpt lat="41.5797560" lon="1.8567550">
        <ele>208.4</ele>
        <time>2022-04-09T11:19:16Z</time>
      </trkpt>
      <trkpt lat="41.5796940" lon="1.8567560">
        <ele>208.6</ele>
        <time>2022-04-09T11:19:18Z</time>
      </trkpt>
      <trkpt lat="41.5795420" lon="1.8567560">
        <ele>209.4</ele>
        <time>2022-04-09T11:19:23Z</time>
      </trkpt>
      <trkpt lat="41.5794900" lon="1.8567670">
        <ele>209.8</ele>
        <time>2022-04-09T11:19:25Z</time>
      </trkpt>
      <trkpt lat="41.5793390" lon="1.8568100">
        <ele>210.6</ele>
        <time>2022-04-09T11:19:30Z</time>
      </trkpt>
      <trkpt lat="41.5792570" lon="1.8568560">
        <ele>211.2</ele>
        <time>2022-04-09T11:19:33Z</time>
      </trkpt>
      <trkpt lat="41.5792010" lon="1.8568730">
        <ele>211.4</ele>
        <time>2022-04-09T11:19:35Z</time>
      </trkpt>
      <trkpt lat="41.5790870" lon="1.8568760">
        <ele>212.2</ele>
        <time>2022-04-09T11:19:39Z</time>
      </trkpt>
      <trkpt lat="41.5789620" lon="1.8568660">
        <ele>212.6</ele>
        <time>2022-04-09T11:19:43Z</time>
      </trkpt>
      <trkpt lat="41.5788220" lon="1.8568860">
        <ele>213.8</ele>
        <time>2022-04-09T11:19:48Z</time>
      </trkpt>
      <trkpt lat="41.5786290" lon="1.8569410">
        <ele>214.8</ele>
        <time>2022-04-09T11:19:55Z</time>
      </trkpt>
      <trkpt lat="41.5784880" lon="1.8569440">
        <ele>215.6</ele>
        <time>2022-04-09T11:20:00Z</time>
      </trkpt>
      <trkpt lat="41.5784650" lon="1.8569440">
        <ele>215.8</ele>
        <time>2022-04-09T11:20:01Z</time>
      </trkpt>
      <trkpt lat="41.5784400" lon="1.8569380">
        <ele>216.0</ele>
        <time>2022-04-09T11:20:02Z</time>
      </trkpt>
      <trkpt lat="41.5783790" lon="1.8569250">
        <ele>216.2</ele>
        <time>2022-04-09T11:20:04Z</time>
      </trkpt>
      <trkpt lat="41.5781770" lon="1.8569260">
        <ele>216.8</ele>
        <time>2022-04-09T11:20:10Z</time>
      </trkpt>
      <trkpt lat="41.5779910" lon="1.8569590">
        <ele>217.2</ele>
        <time>2022-04-09T11:20:16Z</time>
      </trkpt>
      <trkpt lat="41.5778170" lon="1.8569770">
        <ele>217.6</ele>
        <time>2022-04-09T11:20:21Z</time>
      </trkpt>
      <trkpt lat="41.5776730" lon="1.8569340">
        <ele>218.2</ele>
        <time>2022-04-09T11:20:26Z</time>
      </trkpt>
      <trkpt lat="41.5776420" lon="1.8569370">
        <ele>218.4</ele>
        <time>2022-04-09T11:20:27Z</time>
      </trkpt>
      <trkpt lat="41.5775360" lon="1.8569360">
        <ele>219.0</ele>
        <time>2022-04-09T11:20:30Z</time>
      </trkpt>
      <trkpt lat="41.5775060" lon="1.8569300">
        <ele>219.4</ele>
        <time>2022-04-09T11:20:31Z</time>
      </trkpt>
      <trkpt lat="41.5773610" lon="1.8568960">
        <ele>220.0</ele>
        <time>2022-04-09T11:20:36Z</time>
      </trkpt>
      <trkpt lat="41.5773000" lon="1.8568830">
        <ele>220.4</ele>
        <time>2022-04-09T11:20:38Z</time>
      </trkpt>
      <trkpt lat="41.5772410" lon="1.8568710">
        <ele>220.8</ele>
        <time>2022-04-09T11:20:40Z</time>
      </trkpt>
      <trkpt lat="41.5771610" lon="1.8568340">
        <ele>221.6</ele>
        <time>2022-04-09T11:20:43Z</time>
      </trkpt>
      <trkpt lat="41.5770410" lon="1.8567740">
        <ele>222.0</ele>
        <time>2022-04-09T11:20:47Z</time>
      </trkpt>
      <trkpt lat="41.5768960" lon="1.8567510">
        <ele>222.6</ele>
        <time>2022-04-09T11:20:52Z</time>
      </trkpt>
      <trkpt lat="41.5768600" lon="1.8567550">
        <ele>222.6</ele>
        <time>2022-04-09T11:20:53Z</time>
      </trkpt>
      <trkpt lat="41.5767090" lon="1.8567710">
        <ele>223.4</ele>
        <time>2022-04-09T11:20:59Z</time>
      </trkpt>
      <trkpt lat="41.5766550" lon="1.8567320">
        <ele>223.8</ele>
        <time>2022-04-09T11:21:01Z</time>
      </trkpt>
      <trkpt lat="41.5766010" lon="1.8566320">
        <ele>224.2</ele>
        <time>2022-04-09T11:21:04Z</time>
      </trkpt>
      <trkpt lat="41.5765510" lon="1.8564710">
        <ele>224.8</ele>
        <time>2022-04-09T11:21:08Z</time>
      </trkpt>
      <trkpt lat="41.5764920" lon="1.8563020">
        <ele>225.4</ele>
        <time>2022-04-09T11:21:12Z</time>
      </trkpt>
      <trkpt lat="41.5764340" lon="1.8562000">
        <ele>226.0</ele>
        <time>2022-04-09T11:21:15Z</time>
      </trkpt>
      <trkpt lat="41.5763620" lon="1.8561190">
        <ele>227.0</ele>
        <time>2022-04-09T11:21:18Z</time>
      </trkpt>
      <trkpt lat="41.5763170" lon="1.8560570">
        <ele>227.4</ele>
        <time>2022-04-09T11:21:20Z</time>
      </trkpt>
      <trkpt lat="41.5762700" lon="1.8558820">
        <ele>228.0</ele>
        <time>2022-04-09T11:21:24Z</time>
      </trkpt>
      <trkpt lat="41.5762300" lon="1.8557480">
        <ele>228.4</ele>
        <time>2022-04-09T11:21:27Z</time>
      </trkpt>
      <trkpt lat="41.5761580" lon="1.8555580">
        <ele>229.2</ele>
        <time>2022-04-09T11:21:32Z</time>
      </trkpt>
      <trkpt lat="41.5761410" lon="1.8555260">
        <ele>229.4</ele>
        <time>2022-04-09T11:21:33Z</time>
      </trkpt>
      <trkpt lat="41.5760310" lon="1.8553820">
        <ele>230.2</ele>
        <time>2022-04-09T11:21:38Z</time>
      </trkpt>
      <trkpt lat="41.5760000" lon="1.8553620">
        <ele>230.6</ele>
        <time>2022-04-09T11:21:39Z</time>
      </trkpt>
      <trkpt lat="41.5758870" lon="1.8552710">
        <ele>231.2</ele>
        <time>2022-04-09T11:21:43Z</time>
      </trkpt>
      <trkpt lat="41.5757470" lon="1.8551400">
        <ele>231.8</ele>
        <time>2022-04-09T11:21:48Z</time>
      </trkpt>
      <trkpt lat="41.5756500" lon="1.8550160">
        <ele>232.4</ele>
        <time>2022-04-09T11:21:52Z</time>
      </trkpt>
      <trkpt lat="41.5755900" lon="1.8548820">
        <ele>233.2</ele>
        <time>2022-04-09T11:21:56Z</time>
      </trkpt>
      <trkpt lat="41.5755710" lon="1.8548480">
        <ele>233.6</ele>
        <time>2022-04-09T11:21:57Z</time>
      </trkpt>
      <trkpt lat="41.5754600" lon="1.8546370">
        <ele>234.8</ele>
        <time>2022-04-09T11:22:03Z</time>
      </trkpt>
      <trkpt lat="41.5754270" lon="1.8545660">
        <ele>235.4</ele>
        <time>2022-04-09T11:22:05Z</time>
      </trkpt>
      <trkpt lat="41.5753580" lon="1.8544090">
        <ele>235.8</ele>
        <time>2022-04-09T11:22:09Z</time>
      </trkpt>
      <trkpt lat="41.5752990" lon="1.8541930">
        <ele>237.0</ele>
        <time>2022-04-09T11:22:14Z</time>
      </trkpt>
      <trkpt lat="41.5752380" lon="1.8540390">
        <ele>238.0</ele>
        <time>2022-04-09T11:22:18Z</time>
      </trkpt>
      <trkpt lat="41.5752040" lon="1.8539650">
        <ele>238.4</ele>
        <time>2022-04-09T11:22:20Z</time>
      </trkpt>
      <trkpt lat="41.5750550" lon="1.8537480">
        <ele>239.0</ele>
        <time>2022-04-09T11:22:27Z</time>
      </trkpt>
      <trkpt lat="41.5749380" lon="1.8535980">
        <ele>239.6</ele>
        <time>2022-04-09T11:22:33Z</time>
      </trkpt>
      <trkpt lat="41.5748150" lon="1.8534230">
        <ele>240.0</ele>
        <time>2022-04-09T11:22:38Z</time>
      </trkpt>
      <trkpt lat="41.5747490" lon="1.8533200">
        <ele>240.2</ele>
        <time>2022-04-09T11:22:41Z</time>
      </trkpt>
      <trkpt lat="41.5746430" lon="1.8531390">
        <ele>240.6</ele>
        <time>2022-04-09T11:22:46Z</time>
      </trkpt>
      <trkpt lat="41.5746280" lon="1.8531090">
        <ele>240.8</ele>
        <time>2022-04-09T11:22:47Z</time>
      </trkpt>
      <trkpt lat="41.5745980" lon="1.8530280">
        <ele>241.0</ele>
        <time>2022-04-09T11:22:49Z</time>
      </trkpt>
      <trkpt lat="41.5745790" lon="1.8528400">
        <ele>241.8</ele>
        <time>2022-04-09T11:22:53Z</time>
      </trkpt>
      <trkpt lat="41.5745760" lon="1.8527970">
        <ele>242.2</ele>
        <time>2022-04-09T11:22:54Z</time>
      </trkpt>
      <trkpt lat="41.5745590" lon="1.8525550">
        <ele>243.6</ele>
        <time>2022-04-09T11:22:59Z</time>
      </trkpt>
      <trkpt lat="41.5745580" lon="1.8525070">
        <ele>243.8</ele>
        <time>2022-04-09T11:23:00Z</time>
      </trkpt>
      <trkpt lat="41.5745660" lon="1.8522700">
        <ele>244.6</ele>
        <time>2022-04-09T11:23:05Z</time>
      </trkpt>
      <trkpt lat="41.5745730" lon="1.8521330">
        <ele>245.6</ele>
        <time>2022-04-09T11:23:08Z</time>
      </trkpt>
      <trkpt lat="41.5745730" lon="1.8520850">
        <ele>245.6</ele>
        <time>2022-04-09T11:23:09Z</time>
      </trkpt>
      <trkpt lat="41.5745830" lon="1.8519780">
        <ele>246.0</ele>
        <time>2022-04-09T11:23:11Z</time>
      </trkpt>
      <trkpt lat="41.5745910" lon="1.8518020">
        <ele>246.6</ele>
        <time>2022-04-09T11:23:15Z</time>
      </trkpt>
      <trkpt lat="41.5746030" lon="1.8517050">
        <ele>246.8</ele>
        <time>2022-04-09T11:23:17Z</time>
      </trkpt>
      <trkpt lat="41.5746210" lon="1.8515790">
        <ele>247.8</ele>
        <time>2022-04-09T11:23:20Z</time>
      </trkpt>
      <trkpt lat="41.5746390" lon="1.8514120">
        <ele>248.6</ele>
        <time>2022-04-09T11:23:24Z</time>
      </trkpt>
      <trkpt lat="41.5746450" lon="1.8513230">
        <ele>249.0</ele>
        <time>2022-04-09T11:23:26Z</time>
      </trkpt>
      <trkpt lat="41.5746530" lon="1.8511520">
        <ele>250.0</ele>
        <time>2022-04-09T11:23:30Z</time>
      </trkpt>
      <trkpt lat="41.5746550" lon="1.8511100">
        <ele>250.2</ele>
        <time>2022-04-09T11:23:31Z</time>
      </trkpt>
      <trkpt lat="41.5746690" lon="1.8509330">
        <ele>251.4</ele>
        <time>2022-04-09T11:23:35Z</time>
      </trkpt>
      <trkpt lat="41.5746700" lon="1.8508880">
        <ele>251.6</ele>
        <time>2022-04-09T11:23:36Z</time>
      </trkpt>
      <trkpt lat="41.5746680" lon="1.8507070">
        <ele>252.4</ele>
        <time>2022-04-09T11:23:40Z</time>
      </trkpt>
      <trkpt lat="41.5746720" lon="1.8505680">
        <ele>253.2</ele>
        <time>2022-04-09T11:23:43Z</time>
      </trkpt>
      <trkpt lat="41.5746700" lon="1.8504880">
        <ele>253.4</ele>
        <time>2022-04-09T11:23:45Z</time>
      </trkpt>
      <trkpt lat="41.5746300" lon="1.8502990">
        <ele>254.0</ele>
        <time>2022-04-09T11:23:50Z</time>
      </trkpt>
      <trkpt lat="41.5745950" lon="1.8501820">
        <ele>254.6</ele>
        <time>2022-04-09T11:23:53Z</time>
      </trkpt>
      <trkpt lat="41.5745560" lon="1.8500860">
        <ele>255.2</ele>
        <time>2022-04-09T11:23:56Z</time>
      </trkpt>
      <trkpt lat="41.5744980" lon="1.8500010">
        <ele>255.8</ele>
        <time>2022-04-09T11:23:59Z</time>
      </trkpt>
      <trkpt lat="41.5744110" lon="1.8499220">
        <ele>256.0</ele>
        <time>2022-04-09T11:24:02Z</time>
      </trkpt>
      <trkpt lat="41.5742580" lon="1.8498030">
        <ele>256.6</ele>
        <time>2022-04-09T11:24:07Z</time>
      </trkpt>
      <trkpt lat="41.5741870" lon="1.8497500">
        <ele>256.8</ele>
        <time>2022-04-09T11:24:09Z</time>
      </trkpt>
      <trkpt lat="41.5739540" lon="1.8495720">
        <ele>257.0</ele>
        <time>2022-04-09T11:24:15Z</time>
      </trkpt>
      <trkpt lat="41.5737700" lon="1.8494130">
        <ele>257.6</ele>
        <time>2022-04-09T11:24:20Z</time>
      </trkpt>
      <trkpt lat="41.5737170" lon="1.8493340">
        <ele>258.0</ele>
        <time>2022-04-09T11:24:22Z</time>
      </trkpt>
      <trkpt lat="41.5736550" lon="1.8492530">
        <ele>258.8</ele>
        <time>2022-04-09T11:24:24Z</time>
      </trkpt>
      <trkpt lat="41.5735220" lon="1.8490110">
        <ele>259.4</ele>
        <time>2022-04-09T11:24:30Z</time>
      </trkpt>
      <trkpt lat="41.5734770" lon="1.8488860">
        <ele>259.6</ele>
        <time>2022-04-09T11:24:33Z</time>
      </trkpt>
      <trkpt lat="41.5734090" lon="1.8487140">
        <ele>260.4</ele>
        <time>2022-04-09T11:24:37Z</time>
      </trkpt>
      <trkpt lat="41.5733440" lon="1.8485940">
        <ele>260.8</ele>
        <time>2022-04-09T11:24:40Z</time>
      </trkpt>
      <trkpt lat="41.5732090" lon="1.8483140">
        <ele>262.0</ele>
        <time>2022-04-09T11:24:47Z</time>
      </trkpt>
      <trkpt lat="41.5731740" lon="1.8480630">
        <ele>263.2</ele>
        <time>2022-04-09T11:24:52Z</time>
      </trkpt>
      <trkpt lat="41.5731560" lon="1.8479560">
        <ele>263.8</ele>
        <time>2022-04-09T11:24:54Z</time>
      </trkpt>
      <trkpt lat="41.5731060" lon="1.8477620">
        <ele>264.4</ele>
        <time>2022-04-09T11:24:58Z</time>
      </trkpt>
      <trkpt lat="41.5730750" lon="1.8476890">
        <ele>265.0</ele>
        <time>2022-04-09T11:25:00Z</time>
      </trkpt>
      <trkpt lat="41.5730200" lon="1.8475700">
        <ele>265.4</ele>
        <time>2022-04-09T11:25:03Z</time>
      </trkpt>
      <trkpt lat="41.5729640" lon="1.8474080">
        <ele>266.0</ele>
        <time>2022-04-09T11:25:07Z</time>
      </trkpt>
      <trkpt lat="41.5729220" lon="1.8472780">
        <ele>266.6</ele>
        <time>2022-04-09T11:25:10Z</time>
      </trkpt>
      <trkpt lat="41.5728620" lon="1.8471070">
        <ele>267.6</ele>
        <time>2022-04-09T11:25:14Z</time>
      </trkpt>
      <trkpt lat="41.5728300" lon="1.8469840">
        <ele>268.2</ele>
        <time>2022-04-09T11:25:17Z</time>
      </trkpt>
      <trkpt lat="41.5728170" lon="1.8468920">
        <ele>268.6</ele>
        <time>2022-04-09T11:25:19Z</time>
      </trkpt>
      <trkpt lat="41.5728030" lon="1.8467380">
        <ele>269.4</ele>
        <time>2022-04-09T11:25:22Z</time>
      </trkpt>
      <trkpt lat="41.5728010" lon="1.8466030">
        <ele>269.6</ele>
        <time>2022-04-09T11:25:25Z</time>
      </trkpt>
      <trkpt lat="41.5727810" lon="1.8464510">
        <ele>269.8</ele>
        <time>2022-04-09T11:25:28Z</time>
      </trkpt>
      <trkpt lat="41.5727480" lon="1.8462720">
        <ele>271.0</ele>
        <time>2022-04-09T11:25:32Z</time>
      </trkpt>
      <trkpt lat="41.5727080" lon="1.8460640">
        <ele>271.8</ele>
        <time>2022-04-09T11:25:37Z</time>
      </trkpt>
      <trkpt lat="41.5727000" lon="1.8460320">
        <ele>272.2</ele>
        <time>2022-04-09T11:25:38Z</time>
      </trkpt>
      <trkpt lat="41.5726380" lon="1.8457190">
        <ele>273.2</ele>
        <time>2022-04-09T11:25:45Z</time>
      </trkpt>
      <trkpt lat="41.5725920" lon="1.8454560">
        <ele>274.4</ele>
        <time>2022-04-09T11:25:51Z</time>
      </trkpt>
      <trkpt lat="41.5725900" lon="1.8454140">
        <ele>274.4</ele>
        <time>2022-04-09T11:25:52Z</time>
      </trkpt>
      <trkpt lat="41.5725690" lon="1.8452450">
        <ele>275.2</ele>
        <time>2022-04-09T11:25:56Z</time>
      </trkpt>
      <trkpt lat="41.5725760" lon="1.8451140">
        <ele>275.6</ele>
        <time>2022-04-09T11:25:59Z</time>
      </trkpt>
      <trkpt lat="41.5725970" lon="1.8449690">
        <ele>276.4</ele>
        <time>2022-04-09T11:26:02Z</time>
      </trkpt>
      <trkpt lat="41.5726260" lon="1.8448380">
        <ele>277.0</ele>
        <time>2022-04-09T11:26:05Z</time>
      </trkpt>
      <trkpt lat="41.5726550" lon="1.8447140">
        <ele>277.4</ele>
        <time>2022-04-09T11:26:08Z</time>
      </trkpt>
      <trkpt lat="41.5727030" lon="1.8445480">
        <ele>278.2</ele>
        <time>2022-04-09T11:26:12Z</time>
      </trkpt>
      <trkpt lat="41.5727290" lon="1.8444650">
        <ele>278.6</ele>
        <time>2022-04-09T11:26:14Z</time>
      </trkpt>
      <trkpt lat="41.5727920" lon="1.8442430">
        <ele>279.4</ele>
        <time>2022-04-09T11:26:19Z</time>
      </trkpt>
      <trkpt lat="41.5728160" lon="1.8441590">
        <ele>279.8</ele>
        <time>2022-04-09T11:26:21Z</time>
      </trkpt>
      <trkpt lat="41.5729090" lon="1.8439170">
        <ele>280.4</ele>
        <time>2022-04-09T11:26:27Z</time>
      </trkpt>
      <trkpt lat="41.5729280" lon="1.8438830">
        <ele>280.8</ele>
        <time>2022-04-09T11:26:28Z</time>
      </trkpt>
      <trkpt lat="41.5730180" lon="1.8437030">
        <ele>282.0</ele>
        <time>2022-04-09T11:26:33Z</time>
      </trkpt>
      <trkpt lat="41.5730920" lon="1.8434950">
        <ele>283.2</ele>
        <time>2022-04-09T11:26:38Z</time>
      </trkpt>
      <trkpt lat="41.5731200" lon="1.8434190">
        <ele>283.8</ele>
        <time>2022-04-09T11:26:40Z</time>
      </trkpt>
      <trkpt lat="41.5731610" lon="1.8432840">
        <ele>284.4</ele>
        <time>2022-04-09T11:26:43Z</time>
      </trkpt>
      <trkpt lat="41.5731780" lon="1.8431500">
        <ele>284.8</ele>
        <time>2022-04-09T11:26:46Z</time>
      </trkpt>
      <trkpt lat="41.5731800" lon="1.8429300">
        <ele>285.2</ele>
        <time>2022-04-09T11:26:51Z</time>
      </trkpt>
      <trkpt lat="41.5731890" lon="1.8426230">
        <ele>285.8</ele>
        <time>2022-04-09T11:26:57Z</time>
      </trkpt>
      <trkpt lat="41.5731780" lon="1.8425690">
        <ele>286.2</ele>
        <time>2022-04-09T11:26:59Z</time>
      </trkpt>
      <trkpt lat="41.5731530" lon="1.8424990">
        <ele>286.4</ele>
        <time>2022-04-09T11:27:01Z</time>
      </trkpt>
      <trkpt lat="41.5731370" lon="1.8424710">
        <ele>286.6</ele>
        <time>2022-04-09T11:27:02Z</time>
      </trkpt>
      <trkpt lat="41.5730160" lon="1.8423780">
        <ele>287.0</ele>
        <time>2022-04-09T11:27:06Z</time>
      </trkpt>
      <trkpt lat="41.5729560" lon="1.8423200">
        <ele>287.4</ele>
        <time>2022-04-09T11:27:08Z</time>
      </trkpt>
      <trkpt lat="41.5728530" lon="1.8421620">
        <ele>288.6</ele>
        <time>2022-04-09T11:27:12Z</time>
      </trkpt>
      <trkpt lat="41.5728380" lon="1.8421340">
        <ele>289.0</ele>
        <time>2022-04-09T11:27:13Z</time>
      </trkpt>
      <trkpt lat="41.5727790" lon="1.8419580">
        <ele>289.6</ele>
        <time>2022-04-09T11:27:17Z</time>
      </trkpt>
      <trkpt lat="41.5727400" lon="1.8418970">
        <ele>289.8</ele>
        <time>2022-04-09T11:27:19Z</time>
      </trkpt>
      <trkpt lat="41.5726900" lon="1.8417410">
        <ele>290.6</ele>
        <time>2022-04-09T11:27:23Z</time>
      </trkpt>
      <trkpt lat="41.5726630" lon="1.8416270">
        <ele>291.2</ele>
        <time>2022-04-09T11:27:26Z</time>
      </trkpt>
      <trkpt lat="41.5726230" lon="1.8415080">
        <ele>291.6</ele>
        <time>2022-04-09T11:27:29Z</time>
      </trkpt>
      <trkpt lat="41.5725410" lon="1.8413600">
        <ele>292.6</ele>
        <time>2022-04-09T11:27:33Z</time>
      </trkpt>
      <trkpt lat="41.5725240" lon="1.8413220">
        <ele>292.8</ele>
        <time>2022-04-09T11:27:34Z</time>
      </trkpt>
      <trkpt lat="41.5724780" lon="1.8410720">
        <ele>293.8</ele>
        <time>2022-04-09T11:27:40Z</time>
      </trkpt>
      <trkpt lat="41.5724610" lon="1.8407970">
        <ele>295.0</ele>
        <time>2022-04-09T11:27:46Z</time>
      </trkpt>
      <trkpt lat="41.5724670" lon="1.8407480">
        <ele>295.2</ele>
        <time>2022-04-09T11:27:47Z</time>
      </trkpt>
      <trkpt lat="41.5724700" lon="1.8405750">
        <ele>296.2</ele>
        <time>2022-04-09T11:27:51Z</time>
      </trkpt>
      <trkpt lat="41.5724640" lon="1.8403560">
        <ele>296.8</ele>
        <time>2022-04-09T11:27:56Z</time>
      </trkpt>
      <trkpt lat="41.5724320" lon="1.8402170">
        <ele>297.0</ele>
        <time>2022-04-09T11:28:00Z</time>
      </trkpt>
      <trkpt lat="41.5724060" lon="1.8401410">
        <ele>297.4</ele>
        <time>2022-04-09T11:28:02Z</time>
      </trkpt>
      <trkpt lat="41.5723160" lon="1.8399430">
        <ele>298.2</ele>
        <time>2022-04-09T11:28:07Z</time>
      </trkpt>
      <trkpt lat="41.5722930" lon="1.8399050">
        <ele>298.2</ele>
        <time>2022-04-09T11:28:08Z</time>
      </trkpt>
      <trkpt lat="41.5722040" lon="1.8397450">
        <ele>299.2</ele>
        <time>2022-04-09T11:28:12Z</time>
      </trkpt>
      <trkpt lat="41.5721450" lon="1.8395740">
        <ele>300.0</ele>
        <time>2022-04-09T11:28:16Z</time>
      </trkpt>
      <trkpt lat="41.5721310" lon="1.8395270">
        <ele>300.2</ele>
        <time>2022-04-09T11:28:17Z</time>
      </trkpt>
      <trkpt lat="41.5720940" lon="1.8393330">
        <ele>301.4</ele>
        <time>2022-04-09T11:28:21Z</time>
      </trkpt>
      <trkpt lat="41.5720360" lon="1.8391330">
        <ele>302.4</ele>
        <time>2022-04-09T11:28:25Z</time>
      </trkpt>
      <trkpt lat="41.5720090" lon="1.8389490">
        <ele>302.8</ele>
        <time>2022-04-09T11:28:29Z</time>
      </trkpt>
      <trkpt lat="41.5719690" lon="1.8388580">
        <ele>303.4</ele>
        <time>2022-04-09T11:28:31Z</time>
      </trkpt>
      <trkpt lat="41.5719740" lon="1.8386970">
        <ele>304.0</ele>
        <time>2022-04-09T11:28:34Z</time>
      </trkpt>
      <trkpt lat="41.5719090" lon="1.8385080">
        <ele>304.4</ele>
        <time>2022-04-09T11:28:38Z</time>
      </trkpt>
      <trkpt lat="41.5718820" lon="1.8383630">
        <ele>304.8</ele>
        <time>2022-04-09T11:28:41Z</time>
      </trkpt>
      <trkpt lat="41.5718210" lon="1.8381330">
        <ele>305.4</ele>
        <time>2022-04-09T11:28:46Z</time>
      </trkpt>
      <trkpt lat="41.5717900" lon="1.8379970">
        <ele>306.0</ele>
        <time>2022-04-09T11:28:49Z</time>
      </trkpt>
      <trkpt lat="41.5717760" lon="1.8378580">
        <ele>306.4</ele>
        <time>2022-04-09T11:28:52Z</time>
      </trkpt>
      <trkpt lat="41.5717750" lon="1.8377120">
        <ele>307.4</ele>
        <time>2022-04-09T11:28:55Z</time>
      </trkpt>
      <trkpt lat="41.5717810" lon="1.8376660">
        <ele>307.6</ele>
        <time>2022-04-09T11:28:56Z</time>
      </trkpt>
      <trkpt lat="41.5718140" lon="1.8374550">
        <ele>308.4</ele>
        <time>2022-04-09T11:29:01Z</time>
      </trkpt>
      <trkpt lat="41.5718230" lon="1.8374130">
        <ele>309.0</ele>
        <time>2022-04-09T11:29:02Z</time>
      </trkpt>
      <trkpt lat="41.5718500" lon="1.8372450">
        <ele>310.2</ele>
        <time>2022-04-09T11:29:06Z</time>
      </trkpt>
      <trkpt lat="41.5718600" lon="1.8370970">
        <ele>310.6</ele>
        <time>2022-04-09T11:29:10Z</time>
      </trkpt>
      <trkpt lat="41.5718410" lon="1.8369320">
        <ele>311.2</ele>
        <time>2022-04-09T11:29:14Z</time>
      </trkpt>
      <trkpt lat="41.5718380" lon="1.8368890">
        <ele>311.4</ele>
        <time>2022-04-09T11:29:15Z</time>
      </trkpt>
      <trkpt lat="41.5718230" lon="1.8366620">
        <ele>312.6</ele>
        <time>2022-04-09T11:29:20Z</time>
      </trkpt>
      <trkpt lat="41.5718290" lon="1.8366150">
        <ele>312.6</ele>
        <time>2022-04-09T11:29:21Z</time>
      </trkpt>
      <trkpt lat="41.5719030" lon="1.8364520">
        <ele>313.8</ele>
        <time>2022-04-09T11:29:25Z</time>
      </trkpt>
      <trkpt lat="41.5719250" lon="1.8364090">
        <ele>313.8</ele>
        <time>2022-04-09T11:29:26Z</time>
      </trkpt>
      <trkpt lat="41.5720230" lon="1.8361930">
        <ele>314.8</ele>
        <time>2022-04-09T11:29:31Z</time>
      </trkpt>
      <trkpt lat="41.5720370" lon="1.8361420">
        <ele>314.8</ele>
        <time>2022-04-09T11:29:32Z</time>
      </trkpt>
      <trkpt lat="41.5721060" lon="1.8358650">
        <ele>315.8</ele>
        <time>2022-04-09T11:29:38Z</time>
      </trkpt>
      <trkpt lat="41.5721200" lon="1.8358240">
        <ele>316.2</ele>
        <time>2022-04-09T11:29:39Z</time>
      </trkpt>
      <trkpt lat="41.5721550" lon="1.8356960">
        <ele>316.8</ele>
        <time>2022-04-09T11:29:42Z</time>
      </trkpt>
      <trkpt lat="41.5721690" lon="1.8356180">
        <ele>317.0</ele>
        <time>2022-04-09T11:29:44Z</time>
      </trkpt>
      <trkpt lat="41.5721770" lon="1.8354240">
        <ele>317.6</ele>
        <time>2022-04-09T11:29:49Z</time>
      </trkpt>
      <trkpt lat="41.5721520" lon="1.8352560">
        <ele>318.0</ele>
        <time>2022-04-09T11:29:53Z</time>
      </trkpt>
      <trkpt lat="41.5721360" lon="1.8351590">
        <ele>318.2</ele>
        <time>2022-04-09T11:29:55Z</time>
      </trkpt>
      <trkpt lat="41.5721070" lon="1.8349560">
        <ele>319.0</ele>
        <time>2022-04-09T11:30:00Z</time>
      </trkpt>
      <trkpt lat="41.5720870" lon="1.8348200">
        <ele>319.2</ele>
        <time>2022-04-09T11:30:03Z</time>
      </trkpt>
      <trkpt lat="41.5720910" lon="1.8345450">
        <ele>320.0</ele>
        <time>2022-04-09T11:30:09Z</time>
      </trkpt>
      <trkpt lat="41.5721010" lon="1.8343410">
        <ele>320.8</ele>
        <time>2022-04-09T11:30:14Z</time>
      </trkpt>
      <trkpt lat="41.5720940" lon="1.8342540">
        <ele>321.2</ele>
        <time>2022-04-09T11:30:16Z</time>
      </trkpt>
      <trkpt lat="41.5720750" lon="1.8340920">
        <ele>322.2</ele>
        <time>2022-04-09T11:30:20Z</time>
      </trkpt>
      <trkpt lat="41.5720630" lon="1.8340530">
        <ele>322.4</ele>
        <time>2022-04-09T11:30:21Z</time>
      </trkpt>
      <trkpt lat="41.5720040" lon="1.8339560">
        <ele>323.2</ele>
        <time>2022-04-09T11:30:24Z</time>
      </trkpt>
      <trkpt lat="41.5719550" lon="1.8339020">
        <ele>323.4</ele>
        <time>2022-04-09T11:30:26Z</time>
      </trkpt>
      <trkpt lat="41.5718130" lon="1.8338080">
        <ele>324.4</ele>
        <time>2022-04-09T11:30:31Z</time>
      </trkpt>
      <trkpt lat="41.5717830" lon="1.8337920">
        <ele>324.6</ele>
        <time>2022-04-09T11:30:32Z</time>
      </trkpt>
      <trkpt lat="41.5716550" lon="1.8337290">
        <ele>325.4</ele>
        <time>2022-04-09T11:30:36Z</time>
      </trkpt>
      <trkpt lat="41.5715640" lon="1.8336710">
        <ele>325.8</ele>
        <time>2022-04-09T11:30:39Z</time>
      </trkpt>
      <trkpt lat="41.5715290" lon="1.8336380">
        <ele>326.0</ele>
        <time>2022-04-09T11:30:40Z</time>
      </trkpt>
      <trkpt lat="41.5714550" lon="1.8335280">
        <ele>326.4</ele>
        <time>2022-04-09T11:30:43Z</time>
      </trkpt>
      <trkpt lat="41.5714470" lon="1.8334950">
        <ele>326.6</ele>
        <time>2022-04-09T11:30:44Z</time>
      </trkpt>
      <trkpt lat="41.5714420" lon="1.8333600">
        <ele>327.6</ele>
        <time>2022-04-09T11:30:47Z</time>
      </trkpt>
      <trkpt lat="41.5714440" lon="1.8332820">
        <ele>327.8</ele>
        <time>2022-04-09T11:30:49Z</time>
      </trkpt>
      <trkpt lat="41.5714470" lon="1.8331400">
        <ele>329.0</ele>
        <time>2022-04-09T11:30:52Z</time>
      </trkpt>
      <trkpt lat="41.5714550" lon="1.8330080">
        <ele>329.8</ele>
        <time>2022-04-09T11:30:55Z</time>
      </trkpt>
      <trkpt lat="41.5715010" lon="1.8328580">
        <ele>330.0</ele>
        <time>2022-04-09T11:30:59Z</time>
      </trkpt>
      <trkpt lat="41.5715400" lon="1.8327890">
        <ele>330.2</ele>
        <time>2022-04-09T11:31:01Z</time>
      </trkpt>
      <trkpt lat="41.5716010" lon="1.8326920">
        <ele>331.0</ele>
        <time>2022-04-09T11:31:04Z</time>
      </trkpt>
      <trkpt lat="41.5717120" lon="1.8325450">
        <ele>332.2</ele>
        <time>2022-04-09T11:31:09Z</time>
      </trkpt>
      <trkpt lat="41.5717930" lon="1.8323700">
        <ele>333.2</ele>
        <time>2022-04-09T11:31:14Z</time>
      </trkpt>
      <trkpt lat="41.5718480" lon="1.8320930">
        <ele>334.2</ele>
        <time>2022-04-09T11:31:21Z</time>
      </trkpt>
      <trkpt lat="41.5718530" lon="1.8320530">
        <ele>334.4</ele>
        <time>2022-04-09T11:31:22Z</time>
      </trkpt>
      <trkpt lat="41.5718700" lon="1.8317510">
        <ele>335.4</ele>
        <time>2022-04-09T11:31:29Z</time>
      </trkpt>
      <trkpt lat="41.5718710" lon="1.8314550">
        <ele>336.0</ele>
        <time>2022-04-09T11:31:36Z</time>
      </trkpt>
      <trkpt lat="41.5718870" lon="1.8313370">
        <ele>336.6</ele>
        <time>2022-04-09T11:31:39Z</time>
      </trkpt>
      <trkpt lat="41.5719030" lon="1.8311710">
        <ele>337.6</ele>
        <time>2022-04-09T11:31:43Z</time>
      </trkpt>
      <trkpt lat="41.5719120" lon="1.8311220">
        <ele>337.8</ele>
        <time>2022-04-09T11:31:44Z</time>
      </trkpt>
      <trkpt lat="41.5719900" lon="1.8309030">
        <ele>338.2</ele>
        <time>2022-04-09T11:31:50Z</time>
      </trkpt>
      <trkpt lat="41.5720480" lon="1.8307990">
        <ele>339.0</ele>
        <time>2022-04-09T11:31:53Z</time>
      </trkpt>
      <trkpt lat="41.5721180" lon="1.8306640">
        <ele>340.2</ele>
        <time>2022-04-09T11:31:57Z</time>
      </trkpt>
      <trkpt lat="41.5721520" lon="1.8306010">
        <ele>340.6</ele>
        <time>2022-04-09T11:31:59Z</time>
      </trkpt>
      <trkpt lat="41.5722140" lon="1.8304620">
        <ele>341.2</ele>
        <time>2022-04-09T11:32:03Z</time>
      </trkpt>
      <trkpt lat="41.5722260" lon="1.8304230">
        <ele>341.4</ele>
        <time>2022-04-09T11:32:04Z</time>
      </trkpt>
      <trkpt lat="41.5722510" lon="1.8302110">
        <ele>342.4</ele>
        <time>2022-04-09T11:32:09Z</time>
      </trkpt>
      <trkpt lat="41.5722540" lon="1.8301720">
        <ele>342.6</ele>
        <time>2022-04-09T11:32:10Z</time>
      </trkpt>
      <trkpt lat="41.5722250" lon="1.8299650">
        <ele>343.4</ele>
        <time>2022-04-09T11:32:15Z</time>
      </trkpt>
      <trkpt lat="41.5722180" lon="1.8299210">
        <ele>343.6</ele>
        <time>2022-04-09T11:32:16Z</time>
      </trkpt>
      <trkpt lat="41.5721200" lon="1.8296850">
        <ele>344.4</ele>
        <time>2022-04-09T11:32:22Z</time>
      </trkpt>
      <trkpt lat="41.5720890" lon="1.8296560">
        <ele>344.6</ele>
        <time>2022-04-09T11:32:23Z</time>
      </trkpt>
      <trkpt lat="41.5719010" lon="1.8295260">
        <ele>345.6</ele>
        <time>2022-04-09T11:32:29Z</time>
      </trkpt>
      <trkpt lat="41.5716540" lon="1.8293260">
        <ele>346.8</ele>
        <time>2022-04-09T11:32:37Z</time>
      </trkpt>
      <trkpt lat="41.5714980" lon="1.8291090">
        <ele>347.8</ele>
        <time>2022-04-09T11:32:43Z</time>
      </trkpt>
      <trkpt lat="41.5714770" lon="1.8290660">
        <ele>347.8</ele>
        <time>2022-04-09T11:32:44Z</time>
      </trkpt>
      <trkpt lat="41.5714190" lon="1.8288810">
        <ele>348.6</ele>
        <time>2022-04-09T11:32:48Z</time>
      </trkpt>
      <trkpt lat="41.5714050" lon="1.8287990">
        <ele>349.2</ele>
        <time>2022-04-09T11:32:50Z</time>
      </trkpt>
      <trkpt lat="41.5713380" lon="1.8286200">
        <ele>349.8</ele>
        <time>2022-04-09T11:32:54Z</time>
      </trkpt>
      <trkpt lat="41.5712880" lon="1.8285510">
        <ele>350.0</ele>
        <time>2022-04-09T11:32:56Z</time>
      </trkpt>
      <trkpt lat="41.5711150" lon="1.8284550">
        <ele>350.4</ele>
        <time>2022-04-09T11:33:02Z</time>
      </trkpt>
      <trkpt lat="41.5710180" lon="1.8284590">
        <ele>350.8</ele>
        <time>2022-04-09T11:33:07Z</time>
      </trkpt>
      <trkpt lat="41.5710050" lon="1.8284610">
        <ele>351.0</ele>
        <time>2022-04-09T11:33:08Z</time>
      </trkpt>
      <trkpt lat="41.5709520" lon="1.8285490">
        <ele>351.2</ele>
        <time>2022-04-09T11:33:13Z</time>
      </trkpt>
      <trkpt lat="41.5709410" lon="1.8286950">
        <ele>352.0</ele>
        <time>2022-04-09T11:33:17Z</time>
      </trkpt>
      <trkpt lat="41.5709430" lon="1.8288120">
        <ele>352.4</ele>
        <time>2022-04-09T11:33:20Z</time>
      </trkpt>
      <trkpt lat="41.5709230" lon="1.8290260">
        <ele>352.8</ele>
        <time>2022-04-09T11:33:25Z</time>
      </trkpt>
      <trkpt lat="41.5709220" lon="1.8290780">
        <ele>353.0</ele>
        <time>2022-04-09T11:33:26Z</time>
      </trkpt>
      <trkpt lat="41.5708730" lon="1.8294210">
        <ele>353.6</ele>
        <time>2022-04-09T11:33:32Z</time>
      </trkpt>
      <trkpt lat="41.5708700" lon="1.8296000">
        <ele>354.0</ele>
        <time>2022-04-09T11:33:35Z</time>
      </trkpt>
      <trkpt lat="41.5708230" lon="1.8297820">
        <ele>354.2</ele>
        <time>2022-04-09T11:33:38Z</time>
      </trkpt>
      <trkpt lat="41.5708280" lon="1.8298410">
        <ele>354.2</ele>
        <time>2022-04-09T11:33:39Z</time>
      </trkpt>
      <trkpt lat="41.5708330" lon="1.8299500">
        <ele>354.4</ele>
        <time>2022-04-09T11:33:41Z</time>
      </trkpt>
      <trkpt lat="41.5708270" lon="1.8300680">
        <ele>354.6</ele>
        <time>2022-04-09T11:33:43Z</time>
      </trkpt>
      <trkpt lat="41.5708130" lon="1.8301290">
        <ele>354.6</ele>
        <time>2022-04-09T11:33:44Z</time>
      </trkpt>
      <trkpt lat="41.5707870" lon="1.8302450">
        <ele>355.0</ele>
        <time>2022-04-09T11:33:46Z</time>
      </trkpt>
      <trkpt lat="41.5707420" lon="1.8304030">
        <ele>356.2</ele>
        <time>2022-04-09T11:33:49Z</time>
      </trkpt>
      <trkpt lat="41.5707200" lon="1.8304540">
        <ele>356.4</ele>
        <time>2022-04-09T11:33:50Z</time>
      </trkpt>
      <trkpt lat="41.5706630" lon="1.8305430">
        <ele>356.6</ele>
        <time>2022-04-09T11:33:52Z</time>
      </trkpt>
      <trkpt lat="41.5706290" lon="1.8305770">
        <ele>356.6</ele>
        <time>2022-04-09T11:33:53Z</time>
      </trkpt>
      <trkpt lat="41.5705940" lon="1.8306010">
        <ele>356.8</ele>
        <time>2022-04-09T11:33:54Z</time>
      </trkpt>
      <trkpt lat="41.5704720" lon="1.8306300">
        <ele>357.2</ele>
        <time>2022-04-09T11:33:57Z</time>
      </trkpt>
      <trkpt lat="41.5704320" lon="1.8306370">
        <ele>357.2</ele>
        <time>2022-04-09T11:33:58Z</time>
      </trkpt>
      <trkpt lat="41.5703910" lon="1.8306490">
        <ele>357.4</ele>
        <time>2022-04-09T11:33:59Z</time>
      </trkpt>
      <trkpt lat="41.5703100" lon="1.8306960">
        <ele>357.6</ele>
        <time>2022-04-09T11:34:01Z</time>
      </trkpt>
      <trkpt lat="41.5702690" lon="1.8307250">
        <ele>357.6</ele>
        <time>2022-04-09T11:34:02Z</time>
      </trkpt>
      <trkpt lat="41.5701610" lon="1.8308330">
        <ele>357.8</ele>
        <time>2022-04-09T11:34:05Z</time>
      </trkpt>
      <trkpt lat="41.5701240" lon="1.8309060">
        <ele>358.0</ele>
        <time>2022-04-09T11:34:07Z</time>
      </trkpt>
      <trkpt lat="41.5701040" lon="1.8309510">
        <ele>358.2</ele>
        <time>2022-04-09T11:34:08Z</time>
      </trkpt>
      <trkpt lat="41.5700790" lon="1.8310350">
        <ele>358.4</ele>
        <time>2022-04-09T11:34:10Z</time>
      </trkpt>
      <trkpt lat="41.5700660" lon="1.8310640">
        <ele>358.6</ele>
        <time>2022-04-09T11:34:11Z</time>
      </trkpt>
      <trkpt lat="41.5700500" lon="1.8311060">
        <ele>358.6</ele>
        <time>2022-04-09T11:34:12Z</time>
      </trkpt>
      <trkpt lat="41.5697600" lon="1.8312990">
        <ele>359.0</ele>
        <time>2022-04-09T11:34:17Z</time>
      </trkpt>
      <trkpt lat="41.5696010" lon="1.8314000">
        <ele>359.4</ele>
        <time>2022-04-09T11:34:23Z</time>
      </trkpt>
      <trkpt lat="41.5692730" lon="1.8316150">
        <ele>359.2</ele>
        <time>2022-04-09T11:34:29Z</time>
      </trkpt>
      <trkpt lat="41.5691710" lon="1.8316430">
        <ele>359.0</ele>
        <time>2022-04-09T11:34:31Z</time>
      </trkpt>
      <trkpt lat="41.5690730" lon="1.8316340">
        <ele>359.0</ele>
        <time>2022-04-09T11:34:33Z</time>
      </trkpt>
      <trkpt lat="41.5690270" lon="1.8316240">
        <ele>359.0</ele>
        <time>2022-04-09T11:34:34Z</time>
      </trkpt>
      <trkpt lat="41.5689880" lon="1.8315960">
        <ele>359.0</ele>
        <time>2022-04-09T11:34:35Z</time>
      </trkpt>
      <trkpt lat="41.5688820" lon="1.8314710">
        <ele>358.8</ele>
        <time>2022-04-09T11:34:38Z</time>
      </trkpt>
      <trkpt lat="41.5687240" lon="1.8312150">
        <ele>358.8</ele>
        <time>2022-04-09T11:34:43Z</time>
      </trkpt>
      <trkpt lat="41.5686140" lon="1.8310200">
        <ele>358.6</ele>
        <time>2022-04-09T11:34:46Z</time>
      </trkpt>
      <trkpt lat="41.5683780" lon="1.8306380">
        <ele>357.4</ele>
        <time>2022-04-09T11:34:51Z</time>
      </trkpt>
      <trkpt lat="41.5681840" lon="1.8304430">
        <ele>355.6</ele>
        <time>2022-04-09T11:34:54Z</time>
      </trkpt>
      <trkpt lat="41.5681030" lon="1.8304160">
        <ele>354.6</ele>
        <time>2022-04-09T11:34:55Z</time>
      </trkpt>
      <trkpt lat="41.5680130" lon="1.8304160">
        <ele>354.2</ele>
        <time>2022-04-09T11:34:56Z</time>
      </trkpt>
      <trkpt lat="41.5678220" lon="1.8304370">
        <ele>353.4</ele>
        <time>2022-04-09T11:34:58Z</time>
      </trkpt>
      <trkpt lat="41.5676200" lon="1.8304560">
        <ele>351.8</ele>
        <time>2022-04-09T11:35:00Z</time>
      </trkpt>
      <trkpt lat="41.5674110" lon="1.8304410">
        <ele>350.8</ele>
        <time>2022-04-09T11:35:02Z</time>
      </trkpt>
      <trkpt lat="41.5672480" lon="1.8302740">
        <ele>349.8</ele>
        <time>2022-04-09T11:35:04Z</time>
      </trkpt>
      <trkpt lat="41.5671880" lon="1.8301500">
        <ele>349.4</ele>
        <time>2022-04-09T11:35:05Z</time>
      </trkpt>
      <trkpt lat="41.5671140" lon="1.8300500">
        <ele>348.6</ele>
        <time>2022-04-09T11:35:06Z</time>
      </trkpt>
      <trkpt lat="41.5670310" lon="1.8299640">
        <ele>348.0</ele>
        <time>2022-04-09T11:35:07Z</time>
      </trkpt>
      <trkpt lat="41.5669380" lon="1.8299110">
        <ele>347.6</ele>
        <time>2022-04-09T11:35:08Z</time>
      </trkpt>
      <trkpt lat="41.5668370" lon="1.8299030">
        <ele>346.8</ele>
        <time>2022-04-09T11:35:09Z</time>
      </trkpt>
      <trkpt lat="41.5667400" lon="1.8299340">
        <ele>346.2</ele>
        <time>2022-04-09T11:35:10Z</time>
      </trkpt>
      <trkpt lat="41.5666380" lon="1.8299810">
        <ele>345.4</ele>
        <time>2022-04-09T11:35:11Z</time>
      </trkpt>
      <trkpt lat="41.5665370" lon="1.8300160">
        <ele>344.8</ele>
        <time>2022-04-09T11:35:12Z</time>
      </trkpt>
      <trkpt lat="41.5664320" lon="1.8300570">
        <ele>343.8</ele>
        <time>2022-04-09T11:35:13Z</time>
      </trkpt>
      <trkpt lat="41.5662330" lon="1.8301740">
        <ele>342.8</ele>
        <time>2022-04-09T11:35:15Z</time>
      </trkpt>
      <trkpt lat="41.5661340" lon="1.8302510">
        <ele>342.0</ele>
        <time>2022-04-09T11:35:16Z</time>
      </trkpt>
      <trkpt lat="41.5659450" lon="1.8304340">
        <ele>341.2</ele>
        <time>2022-04-09T11:35:18Z</time>
      </trkpt>
      <trkpt lat="41.5657620" lon="1.8306330">
        <ele>340.2</ele>
        <time>2022-04-09T11:35:20Z</time>
      </trkpt>
      <trkpt lat="41.5656680" lon="1.8307310">
        <ele>338.6</ele>
        <time>2022-04-09T11:35:21Z</time>
      </trkpt>
      <trkpt lat="41.5654810" lon="1.8309080">
        <ele>337.0</ele>
        <time>2022-04-09T11:35:23Z</time>
      </trkpt>
      <trkpt lat="41.5652770" lon="1.8310820">
        <ele>335.2</ele>
        <time>2022-04-09T11:35:25Z</time>
      </trkpt>
      <trkpt lat="41.5650630" lon="1.8312280">
        <ele>333.8</ele>
        <time>2022-04-09T11:35:27Z</time>
      </trkpt>
      <trkpt lat="41.5649510" lon="1.8312920">
        <ele>332.0</ele>
        <time>2022-04-09T11:35:28Z</time>
      </trkpt>
      <trkpt lat="41.5648350" lon="1.8313380">
        <ele>331.4</ele>
        <time>2022-04-09T11:35:29Z</time>
      </trkpt>
      <trkpt lat="41.5647170" lon="1.8313740">
        <ele>330.0</ele>
        <time>2022-04-09T11:35:30Z</time>
      </trkpt>
      <trkpt lat="41.5644800" lon="1.8314480">
        <ele>328.2</ele>
        <time>2022-04-09T11:35:32Z</time>
      </trkpt>
      <trkpt lat="41.5642650" lon="1.8314980">
        <ele>327.2</ele>
        <time>2022-04-09T11:35:34Z</time>
      </trkpt>
      <trkpt lat="41.5641600" lon="1.8315010">
        <ele>326.8</ele>
        <time>2022-04-09T11:35:35Z</time>
      </trkpt>
      <trkpt lat="41.5640540" lon="1.8315050">
        <ele>326.8</ele>
        <time>2022-04-09T11:35:36Z</time>
      </trkpt>
      <trkpt lat="41.5638500" lon="1.8315750">
        <ele>325.4</ele>
        <time>2022-04-09T11:35:38Z</time>
      </trkpt>
      <trkpt lat="41.5636440" lon="1.8316140">
        <ele>323.8</ele>
        <time>2022-04-09T11:35:40Z</time>
      </trkpt>
      <trkpt lat="41.5634150" lon="1.8316080">
        <ele>322.0</ele>
        <time>2022-04-09T11:35:42Z</time>
      </trkpt>
      <trkpt lat="41.5631790" lon="1.8315750">
        <ele>320.6</ele>
        <time>2022-04-09T11:35:44Z</time>
      </trkpt>
      <trkpt lat="41.5629360" lon="1.8315060">
        <ele>318.8</ele>
        <time>2022-04-09T11:35:46Z</time>
      </trkpt>
      <trkpt lat="41.5628180" lon="1.8314590">
        <ele>317.2</ele>
        <time>2022-04-09T11:35:47Z</time>
      </trkpt>
      <trkpt lat="41.5625830" lon="1.8313430">
        <ele>315.6</ele>
        <time>2022-04-09T11:35:49Z</time>
      </trkpt>
      <trkpt lat="41.5624610" lon="1.8312790">
        <ele>315.2</ele>
        <time>2022-04-09T11:35:50Z</time>
      </trkpt>
      <trkpt lat="41.5623370" lon="1.8312110">
        <ele>314.2</ele>
        <time>2022-04-09T11:35:51Z</time>
      </trkpt>
      <trkpt lat="41.5620850" lon="1.8310770">
        <ele>311.6</ele>
        <time>2022-04-09T11:35:53Z</time>
      </trkpt>
      <trkpt lat="41.5619610" lon="1.8310110">
        <ele>310.4</ele>
        <time>2022-04-09T11:35:54Z</time>
      </trkpt>
      <trkpt lat="41.5617100" lon="1.8308670">
        <ele>309.0</ele>
        <time>2022-04-09T11:35:56Z</time>
      </trkpt>
      <trkpt lat="41.5615790" lon="1.8307920">
        <ele>308.4</ele>
        <time>2022-04-09T11:35:57Z</time>
      </trkpt>
      <trkpt lat="41.5614430" lon="1.8307130">
        <ele>306.2</ele>
        <time>2022-04-09T11:35:58Z</time>
      </trkpt>
      <trkpt lat="41.5612790" lon="1.8306180">
        <ele>304.8</ele>
        <time>2022-04-09T11:35:59Z</time>
      </trkpt>
      <trkpt lat="41.5611420" lon="1.8305390">
        <ele>302.4</ele>
        <time>2022-04-09T11:36:00Z</time>
      </trkpt>
      <trkpt lat="41.5610110" lon="1.8304630">
        <ele>300.4</ele>
        <time>2022-04-09T11:36:01Z</time>
      </trkpt>
      <trkpt lat="41.5608490" lon="1.8303640">
        <ele>298.2</ele>
        <time>2022-04-09T11:36:03Z</time>
      </trkpt>
      <trkpt lat="41.5607610" lon="1.8303120">
        <ele>297.8</ele>
        <time>2022-04-09T11:36:04Z</time>
      </trkpt>
      <trkpt lat="41.5606070" lon="1.8302200">
        <ele>297.2</ele>
        <time>2022-04-09T11:36:06Z</time>
      </trkpt>
      <trkpt lat="41.5605350" lon="1.8302010">
        <ele>297.2</ele>
        <time>2022-04-09T11:36:07Z</time>
      </trkpt>
      <trkpt lat="41.5604730" lon="1.8302150">
        <ele>297.0</ele>
        <time>2022-04-09T11:36:08Z</time>
      </trkpt>
      <trkpt lat="41.5604250" lon="1.8302560">
        <ele>297.0</ele>
        <time>2022-04-09T11:36:09Z</time>
      </trkpt>
      <trkpt lat="41.5603960" lon="1.8303210">
        <ele>297.0</ele>
        <time>2022-04-09T11:36:10Z</time>
      </trkpt>
      <trkpt lat="41.5603920" lon="1.8303990">
        <ele>297.0</ele>
        <time>2022-04-09T11:36:11Z</time>
      </trkpt>
      <trkpt lat="41.5604390" lon="1.8308640">
        <ele>297.2</ele>
        <time>2022-04-09T11:36:17Z</time>
      </trkpt>
      <trkpt lat="41.5604510" lon="1.8309380">
        <ele>297.2</ele>
        <time>2022-04-09T11:36:18Z</time>
      </trkpt>
      <trkpt lat="41.5604970" lon="1.8310730">
        <ele>297.6</ele>
        <time>2022-04-09T11:36:20Z</time>
      </trkpt>
      <trkpt lat="41.5605320" lon="1.8311330">
        <ele>297.8</ele>
        <time>2022-04-09T11:36:21Z</time>
      </trkpt>
      <trkpt lat="41.5605720" lon="1.8311820">
        <ele>298.2</ele>
        <time>2022-04-09T11:36:22Z</time>
      </trkpt>
      <trkpt lat="41.5607260" lon="1.8313610">
        <ele>299.4</ele>
        <time>2022-04-09T11:36:26Z</time>
      </trkpt>
      <trkpt lat="41.5607540" lon="1.8314200">
        <ele>299.4</ele>
        <time>2022-04-09T11:36:27Z</time>
      </trkpt>
      <trkpt lat="41.5607740" lon="1.8314900">
        <ele>299.6</ele>
        <time>2022-04-09T11:36:28Z</time>
      </trkpt>
      <trkpt lat="41.5607790" lon="1.8315700">
        <ele>299.8</ele>
        <time>2022-04-09T11:36:29Z</time>
      </trkpt>
      <trkpt lat="41.5607770" lon="1.8316540">
        <ele>299.8</ele>
        <time>2022-04-09T11:36:30Z</time>
      </trkpt>
      <trkpt lat="41.5607320" lon="1.8318170">
        <ele>300.0</ele>
        <time>2022-04-09T11:36:32Z</time>
      </trkpt>
      <trkpt lat="41.5605450" lon="1.8322350">
        <ele>299.4</ele>
        <time>2022-04-09T11:36:37Z</time>
      </trkpt>
      <trkpt lat="41.5603250" lon="1.8325990">
        <ele>297.8</ele>
        <time>2022-04-09T11:36:41Z</time>
      </trkpt>
      <trkpt lat="41.5602650" lon="1.8326920">
        <ele>297.4</ele>
        <time>2022-04-09T11:36:42Z</time>
      </trkpt>
      <trkpt lat="41.5602050" lon="1.8327820">
        <ele>296.8</ele>
        <time>2022-04-09T11:36:43Z</time>
      </trkpt>
      <trkpt lat="41.5600740" lon="1.8329640">
        <ele>295.6</ele>
        <time>2022-04-09T11:36:45Z</time>
      </trkpt>
      <trkpt lat="41.5599310" lon="1.8331490">
        <ele>294.4</ele>
        <time>2022-04-09T11:36:47Z</time>
      </trkpt>
      <trkpt lat="41.5598520" lon="1.8332410">
        <ele>293.8</ele>
        <time>2022-04-09T11:36:48Z</time>
      </trkpt>
      <trkpt lat="41.5597730" lon="1.8333340">
        <ele>293.0</ele>
        <time>2022-04-09T11:36:49Z</time>
      </trkpt>
      <trkpt lat="41.5596090" lon="1.8335170">
        <ele>291.6</ele>
        <time>2022-04-09T11:36:51Z</time>
      </trkpt>
      <trkpt lat="41.5594360" lon="1.8336910">
        <ele>290.0</ele>
        <time>2022-04-09T11:36:53Z</time>
      </trkpt>
      <trkpt lat="41.5593460" lon="1.8337760">
        <ele>289.0</ele>
        <time>2022-04-09T11:36:54Z</time>
      </trkpt>
      <trkpt lat="41.5592550" lon="1.8338570">
        <ele>288.8</ele>
        <time>2022-04-09T11:36:55Z</time>
      </trkpt>
      <trkpt lat="41.5589700" lon="1.8340960">
        <ele>287.2</ele>
        <time>2022-04-09T11:36:58Z</time>
      </trkpt>
      <trkpt lat="41.5587730" lon="1.8342420">
        <ele>286.2</ele>
        <time>2022-04-09T11:37:00Z</time>
      </trkpt>
      <trkpt lat="41.5586740" lon="1.8343110">
        <ele>285.6</ele>
        <time>2022-04-09T11:37:01Z</time>
      </trkpt>
      <trkpt lat="41.5585740" lon="1.8343790">
        <ele>284.6</ele>
        <time>2022-04-09T11:37:02Z</time>
      </trkpt>
      <trkpt lat="41.5583720" lon="1.8345130">
        <ele>283.4</ele>
        <time>2022-04-09T11:37:04Z</time>
      </trkpt>
      <trkpt lat="41.5580710" lon="1.8347140">
        <ele>282.2</ele>
        <time>2022-04-09T11:37:07Z</time>
      </trkpt>
      <trkpt lat="41.5579680" lon="1.8347820">
        <ele>281.0</ele>
        <time>2022-04-09T11:37:08Z</time>
      </trkpt>
      <trkpt lat="41.5577490" lon="1.8348930">
        <ele>280.0</ele>
        <time>2022-04-09T11:37:10Z</time>
      </trkpt>
      <trkpt lat="41.5573840" lon="1.8349870">
        <ele>278.8</ele>
        <time>2022-04-09T11:37:13Z</time>
      </trkpt>
      <trkpt lat="41.5572560" lon="1.8349990">
        <ele>278.6</ele>
        <time>2022-04-09T11:37:14Z</time>
      </trkpt>
      <trkpt lat="41.5571260" lon="1.8349980">
        <ele>277.6</ele>
        <time>2022-04-09T11:37:15Z</time>
      </trkpt>
      <trkpt lat="41.5569670" lon="1.8349910">
        <ele>276.6</ele>
        <time>2022-04-09T11:37:16Z</time>
      </trkpt>
      <trkpt lat="41.5567280" lon="1.8349670">
        <ele>275.6</ele>
        <time>2022-04-09T11:37:18Z</time>
      </trkpt>
      <trkpt lat="41.5565980" lon="1.8349560">
        <ele>274.2</ele>
        <time>2022-04-09T11:37:19Z</time>
      </trkpt>
      <trkpt lat="41.5564710" lon="1.8349490">
        <ele>272.4</ele>
        <time>2022-04-09T11:37:20Z</time>
      </trkpt>
      <trkpt lat="41.5563430" lon="1.8349520">
        <ele>271.2</ele>
        <time>2022-04-09T11:37:21Z</time>
      </trkpt>
      <trkpt lat="41.5562190" lon="1.8349710">
        <ele>270.6</ele>
        <time>2022-04-09T11:37:22Z</time>
      </trkpt>
      <trkpt lat="41.5560990" lon="1.8350180">
        <ele>269.0</ele>
        <time>2022-04-09T11:37:23Z</time>
      </trkpt>
      <trkpt lat="41.5559840" lon="1.8350870">
        <ele>268.4</ele>
        <time>2022-04-09T11:37:24Z</time>
      </trkpt>
      <trkpt lat="41.5558800" lon="1.8351750">
        <ele>267.8</ele>
        <time>2022-04-09T11:37:25Z</time>
      </trkpt>
      <trkpt lat="41.5557770" lon="1.8352900">
        <ele>267.6</ele>
        <time>2022-04-09T11:37:26Z</time>
      </trkpt>
      <trkpt lat="41.5556510" lon="1.8355850">
        <ele>265.8</ele>
        <time>2022-04-09T11:37:28Z</time>
      </trkpt>
      <trkpt lat="41.5556020" lon="1.8359130">
        <ele>264.6</ele>
        <time>2022-04-09T11:37:30Z</time>
      </trkpt>
      <trkpt lat="41.5556130" lon="1.8360750">
        <ele>264.2</ele>
        <time>2022-04-09T11:37:31Z</time>
      </trkpt>
      <trkpt lat="41.5556410" lon="1.8362290">
        <ele>263.4</ele>
        <time>2022-04-09T11:37:32Z</time>
      </trkpt>
      <trkpt lat="41.5557450" lon="1.8365070">
        <ele>261.4</ele>
        <time>2022-04-09T11:37:34Z</time>
      </trkpt>
      <trkpt lat="41.5558030" lon="1.8366370">
        <ele>260.4</ele>
        <time>2022-04-09T11:37:35Z</time>
      </trkpt>
      <trkpt lat="41.5559830" lon="1.8370340">
        <ele>259.2</ele>
        <time>2022-04-09T11:37:38Z</time>
      </trkpt>
      <trkpt lat="41.5560280" lon="1.8371600">
        <ele>258.6</ele>
        <time>2022-04-09T11:37:39Z</time>
      </trkpt>
      <trkpt lat="41.5560490" lon="1.8372730">
        <ele>258.6</ele>
        <time>2022-04-09T11:37:40Z</time>
      </trkpt>
      <trkpt lat="41.5560550" lon="1.8374100">
        <ele>257.8</ele>
        <time>2022-04-09T11:37:41Z</time>
      </trkpt>
      <trkpt lat="41.5560560" lon="1.8375390">
        <ele>257.6</ele>
        <time>2022-04-09T11:37:42Z</time>
      </trkpt>
      <trkpt lat="41.5560520" lon="1.8376630">
        <ele>257.2</ele>
        <time>2022-04-09T11:37:43Z</time>
      </trkpt>
      <trkpt lat="41.5560130" lon="1.8379160">
        <ele>256.8</ele>
        <time>2022-04-09T11:37:45Z</time>
      </trkpt>
      <trkpt lat="41.5558730" lon="1.8385040">
        <ele>256.0</ele>
        <time>2022-04-09T11:37:50Z</time>
      </trkpt>
      <trkpt lat="41.5556400" lon="1.8391560">
        <ele>256.0</ele>
        <time>2022-04-09T11:37:56Z</time>
      </trkpt>
      <trkpt lat="41.5554390" lon="1.8395460">
        <ele>256.0</ele>
        <time>2022-04-09T11:38:00Z</time>
      </trkpt>
      <trkpt lat="41.5553080" lon="1.8398370">
        <ele>255.4</ele>
        <time>2022-04-09T11:38:03Z</time>
      </trkpt>
      <trkpt lat="41.5552300" lon="1.8400310">
        <ele>254.8</ele>
        <time>2022-04-09T11:38:05Z</time>
      </trkpt>
      <trkpt lat="41.5551500" lon="1.8402260">
        <ele>254.4</ele>
        <time>2022-04-09T11:38:07Z</time>
      </trkpt>
      <trkpt lat="41.5551120" lon="1.8403240">
        <ele>254.4</ele>
        <time>2022-04-09T11:38:08Z</time>
      </trkpt>
      <trkpt lat="41.5549470" lon="1.8407220">
        <ele>254.0</ele>
        <time>2022-04-09T11:38:12Z</time>
      </trkpt>
      <trkpt lat="41.5547820" lon="1.8411350">
        <ele>253.2</ele>
        <time>2022-04-09T11:38:16Z</time>
      </trkpt>
      <trkpt lat="41.5546340" lon="1.8414970">
        <ele>252.2</ele>
        <time>2022-04-09T11:38:20Z</time>
      </trkpt>
      <trkpt lat="41.5545180" lon="1.8417720">
        <ele>251.0</ele>
        <time>2022-04-09T11:38:23Z</time>
      </trkpt>
      <trkpt lat="41.5544430" lon="1.8419530">
        <ele>250.0</ele>
        <time>2022-04-09T11:38:25Z</time>
      </trkpt>
      <trkpt lat="41.5543620" lon="1.8421320">
        <ele>249.2</ele>
        <time>2022-04-09T11:38:27Z</time>
      </trkpt>
      <trkpt lat="41.5543230" lon="1.8422250">
        <ele>248.8</ele>
        <time>2022-04-09T11:38:28Z</time>
      </trkpt>
      <trkpt lat="41.5541350" lon="1.8426930">
        <ele>247.6</ele>
        <time>2022-04-09T11:38:33Z</time>
      </trkpt>
      <trkpt lat="41.5540490" lon="1.8429010">
        <ele>247.6</ele>
        <time>2022-04-09T11:38:35Z</time>
      </trkpt>
      <trkpt lat="41.5540180" lon="1.8429780">
        <ele>247.0</ele>
        <time>2022-04-09T11:38:36Z</time>
      </trkpt>
      <trkpt lat="41.5539400" lon="1.8431680">
        <ele>246.6</ele>
        <time>2022-04-09T11:38:38Z</time>
      </trkpt>
      <trkpt lat="41.5537810" lon="1.8435330">
        <ele>245.0</ele>
        <time>2022-04-09T11:38:42Z</time>
      </trkpt>
      <trkpt lat="41.5536260" lon="1.8439100">
        <ele>244.4</ele>
        <time>2022-04-09T11:38:46Z</time>
      </trkpt>
      <trkpt lat="41.5535050" lon="1.8441980">
        <ele>243.6</ele>
        <time>2022-04-09T11:38:49Z</time>
      </trkpt>
      <trkpt lat="41.5533410" lon="1.8445930">
        <ele>242.4</ele>
        <time>2022-04-09T11:38:53Z</time>
      </trkpt>
      <trkpt lat="41.5532590" lon="1.8447980">
        <ele>241.8</ele>
        <time>2022-04-09T11:38:55Z</time>
      </trkpt>
      <trkpt lat="41.5532170" lon="1.8449010">
        <ele>241.4</ele>
        <time>2022-04-09T11:38:56Z</time>
      </trkpt>
      <trkpt lat="41.5529970" lon="1.8454410">
        <ele>240.0</ele>
        <time>2022-04-09T11:39:01Z</time>
      </trkpt>
      <trkpt lat="41.5529200" lon="1.8456380">
        <ele>239.6</ele>
        <time>2022-04-09T11:39:03Z</time>
      </trkpt>
      <trkpt lat="41.5528780" lon="1.8457480">
        <ele>239.0</ele>
        <time>2022-04-09T11:39:04Z</time>
      </trkpt>
      <trkpt lat="41.5527150" lon="1.8461910">
        <ele>237.8</ele>
        <time>2022-04-09T11:39:08Z</time>
      </trkpt>
      <trkpt lat="41.5525900" lon="1.8465280">
        <ele>237.0</ele>
        <time>2022-04-09T11:39:11Z</time>
      </trkpt>
      <trkpt lat="41.5525540" lon="1.8466430">
        <ele>236.8</ele>
        <time>2022-04-09T11:39:12Z</time>
      </trkpt>
      <trkpt lat="41.5524490" lon="1.8469800">
        <ele>235.2</ele>
        <time>2022-04-09T11:39:15Z</time>
      </trkpt>
      <trkpt lat="41.5523510" lon="1.8473180">
        <ele>233.8</ele>
        <time>2022-04-09T11:39:18Z</time>
      </trkpt>
      <trkpt lat="41.5522330" lon="1.8477660">
        <ele>232.6</ele>
        <time>2022-04-09T11:39:22Z</time>
      </trkpt>
      <trkpt lat="41.5521530" lon="1.8480940">
        <ele>231.6</ele>
        <time>2022-04-09T11:39:25Z</time>
      </trkpt>
      <trkpt lat="41.5521260" lon="1.8482050">
        <ele>231.6</ele>
        <time>2022-04-09T11:39:26Z</time>
      </trkpt>
      <trkpt lat="41.5520930" lon="1.8483330">
        <ele>231.2</ele>
        <time>2022-04-09T11:39:27Z</time>
      </trkpt>
      <trkpt lat="41.5520030" lon="1.8485030">
        <ele>230.8</ele>
        <time>2022-04-09T11:39:29Z</time>
      </trkpt>
      <trkpt lat="41.5518820" lon="1.8486980">
        <ele>230.4</ele>
        <time>2022-04-09T11:39:31Z</time>
      </trkpt>
      <trkpt lat="41.5518320" lon="1.8487950">
        <ele>230.2</ele>
        <time>2022-04-09T11:39:32Z</time>
      </trkpt>
      <trkpt lat="41.5517690" lon="1.8489860">
        <ele>229.8</ele>
        <time>2022-04-09T11:39:34Z</time>
      </trkpt>
      <trkpt lat="41.5517660" lon="1.8492030">
        <ele>229.0</ele>
        <time>2022-04-09T11:39:36Z</time>
      </trkpt>
      <trkpt lat="41.5517890" lon="1.8493280">
        <ele>228.8</ele>
        <time>2022-04-09T11:39:37Z</time>
      </trkpt>
      <trkpt lat="41.5518380" lon="1.8495280">
        <ele>228.0</ele>
        <time>2022-04-09T11:39:39Z</time>
      </trkpt>
      <trkpt lat="41.5518600" lon="1.8496260">
        <ele>228.0</ele>
        <time>2022-04-09T11:39:40Z</time>
      </trkpt>
      <trkpt lat="41.5518740" lon="1.8498310">
        <ele>227.6</ele>
        <time>2022-04-09T11:39:42Z</time>
      </trkpt>
      <trkpt lat="41.5518480" lon="1.8502480">
        <ele>227.0</ele>
        <time>2022-04-09T11:39:46Z</time>
      </trkpt>
      <trkpt lat="41.5518200" lon="1.8505730">
        <ele>226.0</ele>
        <time>2022-04-09T11:39:49Z</time>
      </trkpt>
      <trkpt lat="41.5518090" lon="1.8507950">
        <ele>225.0</ele>
        <time>2022-04-09T11:39:51Z</time>
      </trkpt>
      <trkpt lat="41.5517810" lon="1.8512450">
        <ele>223.8</ele>
        <time>2022-04-09T11:39:55Z</time>
      </trkpt>
      <trkpt lat="41.5517740" lon="1.8513610">
        <ele>223.6</ele>
        <time>2022-04-09T11:39:56Z</time>
      </trkpt>
      <trkpt lat="41.5517520" lon="1.8517140">
        <ele>222.6</ele>
        <time>2022-04-09T11:39:59Z</time>
      </trkpt>
      <trkpt lat="41.5516970" lon="1.8523130">
        <ele>221.2</ele>
        <time>2022-04-09T11:40:04Z</time>
      </trkpt>
      <trkpt lat="41.5516830" lon="1.8524320">
        <ele>220.4</ele>
        <time>2022-04-09T11:40:05Z</time>
      </trkpt>
      <trkpt lat="41.5516700" lon="1.8525280">
        <ele>220.0</ele>
        <time>2022-04-09T11:40:06Z</time>
      </trkpt>
      <trkpt lat="41.5515760" lon="1.8531290">
        <ele>218.8</ele>
        <time>2022-04-09T11:40:11Z</time>
      </trkpt>
      <trkpt lat="41.5515270" lon="1.8533920">
        <ele>218.4</ele>
        <time>2022-04-09T11:40:13Z</time>
      </trkpt>
      <trkpt lat="41.5514490" lon="1.8537510">
        <ele>217.8</ele>
        <time>2022-04-09T11:40:16Z</time>
      </trkpt>
      <trkpt lat="41.5512910" lon="1.8543060">
        <ele>216.4</ele>
        <time>2022-04-09T11:40:21Z</time>
      </trkpt>
      <trkpt lat="41.5511820" lon="1.8545910">
        <ele>215.2</ele>
        <time>2022-04-09T11:40:24Z</time>
      </trkpt>
      <trkpt lat="41.5510360" lon="1.8550150">
        <ele>214.4</ele>
        <time>2022-04-09T11:40:28Z</time>
      </trkpt>
      <trkpt lat="41.5510020" lon="1.8550950">
        <ele>214.2</ele>
        <time>2022-04-09T11:40:29Z</time>
      </trkpt>
      <trkpt lat="41.5508300" lon="1.8555070">
        <ele>213.0</ele>
        <time>2022-04-09T11:40:33Z</time>
      </trkpt>
      <trkpt lat="41.5506790" lon="1.8558000">
        <ele>212.2</ele>
        <time>2022-04-09T11:40:36Z</time>
      </trkpt>
      <trkpt lat="41.5506290" lon="1.8558980">
        <ele>211.8</ele>
        <time>2022-04-09T11:40:37Z</time>
      </trkpt>
      <trkpt lat="41.5503550" lon="1.8563680">
        <ele>210.6</ele>
        <time>2022-04-09T11:40:42Z</time>
      </trkpt>
      <trkpt lat="41.5502980" lon="1.8564600">
        <ele>210.2</ele>
        <time>2022-04-09T11:40:43Z</time>
      </trkpt>
      <trkpt lat="41.5501830" lon="1.8566410">
        <ele>209.4</ele>
        <time>2022-04-09T11:40:45Z</time>
      </trkpt>
      <trkpt lat="41.5499570" lon="1.8569880">
        <ele>208.2</ele>
        <time>2022-04-09T11:40:49Z</time>
      </trkpt>
      <trkpt lat="41.5498420" lon="1.8571620">
        <ele>207.8</ele>
        <time>2022-04-09T11:40:51Z</time>
      </trkpt>
      <trkpt lat="41.5497950" lon="1.8572310">
        <ele>207.6</ele>
        <time>2022-04-09T11:40:52Z</time>
      </trkpt>
      <trkpt lat="41.5496630" lon="1.8574120">
        <ele>206.8</ele>
        <time>2022-04-09T11:40:54Z</time>
      </trkpt>
      <trkpt lat="41.5494900" lon="1.8576230">
        <ele>206.0</ele>
        <time>2022-04-09T11:40:57Z</time>
      </trkpt>
      <trkpt lat="41.5493390" lon="1.8577590">
        <ele>205.8</ele>
        <time>2022-04-09T11:40:59Z</time>
      </trkpt>
      <trkpt lat="41.5492760" lon="1.8578280">
        <ele>205.8</ele>
        <time>2022-04-09T11:41:00Z</time>
      </trkpt>
      <trkpt lat="41.5489900" lon="1.8581890">
        <ele>206.4</ele>
        <time>2022-04-09T11:41:05Z</time>
      </trkpt>
      <trkpt lat="41.5485440" lon="1.8587460">
        <ele>206.2</ele>
        <time>2022-04-09T11:41:13Z</time>
      </trkpt>
      <trkpt lat="41.5484880" lon="1.8588160">
        <ele>206.2</ele>
        <time>2022-04-09T11:41:14Z</time>
      </trkpt>
      <trkpt lat="41.5480890" lon="1.8593000">
        <ele>205.2</ele>
        <time>2022-04-09T11:41:21Z</time>
      </trkpt>
      <trkpt lat="41.5479160" lon="1.8595120">
        <ele>204.8</ele>
        <time>2022-04-09T11:41:24Z</time>
      </trkpt>
      <trkpt lat="41.5475770" lon="1.8599290">
        <ele>203.8</ele>
        <time>2022-04-09T11:41:30Z</time>
      </trkpt>
      <trkpt lat="41.5474640" lon="1.8600680">
        <ele>203.4</ele>
        <time>2022-04-09T11:41:32Z</time>
      </trkpt>
      <trkpt lat="41.5471240" lon="1.8604870">
        <ele>203.0</ele>
        <time>2022-04-09T11:41:38Z</time>
      </trkpt>
      <trkpt lat="41.5469910" lon="1.8606460">
        <ele>202.6</ele>
        <time>2022-04-09T11:41:40Z</time>
      </trkpt>
      <trkpt lat="41.5465660" lon="1.8611360">
        <ele>201.8</ele>
        <time>2022-04-09T11:41:47Z</time>
      </trkpt>
      <trkpt lat="41.5464460" lon="1.8612670">
        <ele>201.4</ele>
        <time>2022-04-09T11:41:49Z</time>
      </trkpt>
      <trkpt lat="41.5462770" lon="1.8614480">
        <ele>200.8</ele>
        <time>2022-04-09T11:41:52Z</time>
      </trkpt>
      <trkpt lat="41.5459590" lon="1.8617470">
        <ele>199.4</ele>
        <time>2022-04-09T11:41:57Z</time>
      </trkpt>
      <trkpt lat="41.5456370" lon="1.8620340">
        <ele>198.4</ele>
        <time>2022-04-09T11:42:02Z</time>
      </trkpt>
      <trkpt lat="41.5454350" lon="1.8621990">
        <ele>197.6</ele>
        <time>2022-04-09T11:42:05Z</time>
      </trkpt>
      <trkpt lat="41.5453720" lon="1.8622470">
        <ele>197.2</ele>
        <time>2022-04-09T11:42:06Z</time>
      </trkpt>
      <trkpt lat="41.5451010" lon="1.8624440">
        <ele>196.0</ele>
        <time>2022-04-09T11:42:10Z</time>
      </trkpt>
      <trkpt lat="41.5449650" lon="1.8625100">
        <ele>195.6</ele>
        <time>2022-04-09T11:42:12Z</time>
      </trkpt>
      <trkpt lat="41.5448460" lon="1.8625310">
        <ele>195.2</ele>
        <time>2022-04-09T11:42:14Z</time>
      </trkpt>
      <trkpt lat="41.5447860" lon="1.8625500">
        <ele>194.8</ele>
        <time>2022-04-09T11:42:15Z</time>
      </trkpt>
      <trkpt lat="41.5446830" lon="1.8626540">
        <ele>194.2</ele>
        <time>2022-04-09T11:42:17Z</time>
      </trkpt>
      <trkpt lat="41.5446010" lon="1.8627940">
        <ele>193.6</ele>
        <time>2022-04-09T11:42:19Z</time>
      </trkpt>
      <trkpt lat="41.5444530" lon="1.8629730">
        <ele>193.2</ele>
        <time>2022-04-09T11:42:22Z</time>
      </trkpt>
      <trkpt lat="41.5441400" lon="1.8632460">
        <ele>192.4</ele>
        <time>2022-04-09T11:42:27Z</time>
      </trkpt>
      <trkpt lat="41.5440060" lon="1.8633480">
        <ele>191.0</ele>
        <time>2022-04-09T11:42:29Z</time>
      </trkpt>
      <trkpt lat="41.5438540" lon="1.8634610">
        <ele>189.8</ele>
        <time>2022-04-09T11:42:31Z</time>
      </trkpt>
      <trkpt lat="41.5437800" lon="1.8635190">
        <ele>189.4</ele>
        <time>2022-04-09T11:42:32Z</time>
      </trkpt>
      <trkpt lat="41.5434010" lon="1.8637820">
        <ele>188.6</ele>
        <time>2022-04-09T11:42:37Z</time>
      </trkpt>
      <trkpt lat="41.5433250" lon="1.8638140">
        <ele>188.4</ele>
        <time>2022-04-09T11:42:38Z</time>
      </trkpt>
      <trkpt lat="41.5432130" lon="1.8638710">
        <ele>188.0</ele>
        <time>2022-04-09T11:42:40Z</time>
      </trkpt>
      <trkpt lat="41.5431260" lon="1.8639360">
        <ele>187.4</ele>
        <time>2022-04-09T11:42:42Z</time>
      </trkpt>
      <trkpt lat="41.5430840" lon="1.8639680">
        <ele>186.8</ele>
        <time>2022-04-09T11:42:43Z</time>
      </trkpt>
      <trkpt lat="41.5430320" lon="1.8640090">
        <ele>186.4</ele>
        <time>2022-04-09T11:42:44Z</time>
      </trkpt>
      <trkpt lat="41.5428440" lon="1.8641500">
        <ele>185.2</ele>
        <time>2022-04-09T11:42:47Z</time>
      </trkpt>
      <trkpt lat="41.5427710" lon="1.8642020">
        <ele>184.8</ele>
        <time>2022-04-09T11:42:48Z</time>
      </trkpt>
      <trkpt lat="41.5425380" lon="1.8643460">
        <ele>184.2</ele>
        <time>2022-04-09T11:42:51Z</time>
      </trkpt>
      <trkpt lat="41.5422950" lon="1.8645070">
        <ele>183.4</ele>
        <time>2022-04-09T11:42:54Z</time>
      </trkpt>
      <trkpt lat="41.5422200" lon="1.8645600">
        <ele>182.8</ele>
        <time>2022-04-09T11:42:55Z</time>
      </trkpt>
      <trkpt lat="41.5419040" lon="1.8647910">
        <ele>181.6</ele>
        <time>2022-04-09T11:42:59Z</time>
      </trkpt>
      <trkpt lat="41.5417520" lon="1.8648920">
        <ele>180.6</ele>
        <time>2022-04-09T11:43:01Z</time>
      </trkpt>
      <trkpt lat="41.5413730" lon="1.8651710">
        <ele>179.2</ele>
        <time>2022-04-09T11:43:06Z</time>
      </trkpt>
      <trkpt lat="41.5412530" lon="1.8652710">
        <ele>178.2</ele>
        <time>2022-04-09T11:43:08Z</time>
      </trkpt>
      <trkpt lat="41.5410350" lon="1.8654000">
        <ele>177.2</ele>
        <time>2022-04-09T11:43:12Z</time>
      </trkpt>
      <trkpt lat="41.5409460" lon="1.8654590">
        <ele>176.8</ele>
        <time>2022-04-09T11:43:14Z</time>
      </trkpt>
      <trkpt lat="41.5406870" lon="1.8656210">
        <ele>176.0</ele>
        <time>2022-04-09T11:43:18Z</time>
      </trkpt>
      <trkpt lat="41.5405390" lon="1.8657170">
        <ele>175.8</ele>
        <time>2022-04-09T11:43:20Z</time>
      </trkpt>
      <trkpt lat="41.5404110" lon="1.8658150">
        <ele>174.6</ele>
        <time>2022-04-09T11:43:22Z</time>
      </trkpt>
      <trkpt lat="41.5402860" lon="1.8659090">
        <ele>173.8</ele>
        <time>2022-04-09T11:43:24Z</time>
      </trkpt>
      <trkpt lat="41.5402370" lon="1.8659470">
        <ele>173.6</ele>
        <time>2022-04-09T11:43:25Z</time>
      </trkpt>
      <trkpt lat="41.5401700" lon="1.8659970">
        <ele>173.4</ele>
        <time>2022-04-09T11:43:26Z</time>
      </trkpt>
      <trkpt lat="41.5400630" lon="1.8660730">
        <ele>173.0</ele>
        <time>2022-04-09T11:43:28Z</time>
      </trkpt>
      <trkpt lat="41.5399810" lon="1.8661320">
        <ele>172.4</ele>
        <time>2022-04-09T11:43:30Z</time>
      </trkpt>
      <trkpt lat="41.5398980" lon="1.8661840">
        <ele>172.0</ele>
        <time>2022-04-09T11:43:32Z</time>
      </trkpt>
      <trkpt lat="41.5398080" lon="1.8662500">
        <ele>171.4</ele>
        <time>2022-04-09T11:43:34Z</time>
      </trkpt>
      <trkpt lat="41.5397590" lon="1.8662870">
        <ele>170.8</ele>
        <time>2022-04-09T11:43:35Z</time>
      </trkpt>
      <trkpt lat="41.5394970" lon="1.8664890">
        <ele>169.4</ele>
        <time>2022-04-09T11:43:40Z</time>
      </trkpt>
      <trkpt lat="41.5393170" lon="1.8666150">
        <ele>169.0</ele>
        <time>2022-04-09T11:43:43Z</time>
      </trkpt>
      <trkpt lat="41.5390880" lon="1.8667730">
        <ele>168.4</ele>
        <time>2022-04-09T11:43:47Z</time>
      </trkpt>
      <trkpt lat="41.5390410" lon="1.8668000">
        <ele>168.2</ele>
        <time>2022-04-09T11:43:48Z</time>
      </trkpt>
      <trkpt lat="41.5389240" lon="1.8668610">
        <ele>168.0</ele>
        <time>2022-04-09T11:43:50Z</time>
      </trkpt>
      <trkpt lat="41.5387770" lon="1.8669610">
        <ele>167.2</ele>
        <time>2022-04-09T11:43:53Z</time>
      </trkpt>
      <trkpt lat="41.5385960" lon="1.8670920">
        <ele>166.2</ele>
        <time>2022-04-09T11:43:56Z</time>
      </trkpt>
      <trkpt lat="41.5384860" lon="1.8671620">
        <ele>165.6</ele>
        <time>2022-04-09T11:43:58Z</time>
      </trkpt>
      <trkpt lat="41.5383190" lon="1.8672880">
        <ele>165.0</ele>
        <time>2022-04-09T11:44:01Z</time>
      </trkpt>
      <trkpt lat="41.5380670" lon="1.8674560">
        <ele>164.0</ele>
        <time>2022-04-09T11:44:05Z</time>
      </trkpt>
      <trkpt lat="41.5380160" lon="1.8675000">
        <ele>164.0</ele>
        <time>2022-04-09T11:44:06Z</time>
      </trkpt>
      <trkpt lat="41.5379650" lon="1.8675470">
        <ele>164.0</ele>
        <time>2022-04-09T11:44:07Z</time>
      </trkpt>
      <trkpt lat="41.5378290" lon="1.8676070">
        <ele>163.6</ele>
        <time>2022-04-09T11:44:09Z</time>
      </trkpt>
      <trkpt lat="41.5377610" lon="1.8676430">
        <ele>163.4</ele>
        <time>2022-04-09T11:44:10Z</time>
      </trkpt>
      <trkpt lat="41.5375330" lon="1.8678290">
        <ele>163.2</ele>
        <time>2022-04-09T11:44:13Z</time>
      </trkpt>
      <trkpt lat="41.5373860" lon="1.8679430">
        <ele>162.6</ele>
        <time>2022-04-09T11:44:15Z</time>
      </trkpt>
      <trkpt lat="41.5372370" lon="1.8680150">
        <ele>161.8</ele>
        <time>2022-04-09T11:44:18Z</time>
      </trkpt>
      <trkpt lat="41.5371960" lon="1.8680350">
        <ele>161.4</ele>
        <time>2022-04-09T11:44:19Z</time>
      </trkpt>
      <trkpt lat="41.5371270" lon="1.8680740">
        <ele>161.0</ele>
        <time>2022-04-09T11:44:20Z</time>
      </trkpt>
      <trkpt lat="41.5370790" lon="1.8681050">
        <ele>160.8</ele>
        <time>2022-04-09T11:44:21Z</time>
      </trkpt>
      <trkpt lat="41.5370340" lon="1.8681460">
        <ele>160.4</ele>
        <time>2022-04-09T11:44:22Z</time>
      </trkpt>
      <trkpt lat="41.5369540" lon="1.8682290">
        <ele>159.6</ele>
        <time>2022-04-09T11:44:24Z</time>
      </trkpt>
      <trkpt lat="41.5369160" lon="1.8682610">
        <ele>159.4</ele>
        <time>2022-04-09T11:44:25Z</time>
      </trkpt>
      <trkpt lat="41.5368650" lon="1.8683020">
        <ele>158.8</ele>
        <time>2022-04-09T11:44:26Z</time>
      </trkpt>
      <trkpt lat="41.5367530" lon="1.8683920">
        <ele>158.2</ele>
        <time>2022-04-09T11:44:28Z</time>
      </trkpt>
      <trkpt lat="41.5366440" lon="1.8684580">
        <ele>157.6</ele>
        <time>2022-04-09T11:44:30Z</time>
      </trkpt>
      <trkpt lat="41.5365780" lon="1.8685010">
        <ele>157.2</ele>
        <time>2022-04-09T11:44:31Z</time>
      </trkpt>
      <trkpt lat="41.5363700" lon="1.8686800">
        <ele>156.4</ele>
        <time>2022-04-09T11:44:35Z</time>
      </trkpt>
      <trkpt lat="41.5363180" lon="1.8687330">
        <ele>156.2</ele>
        <time>2022-04-09T11:44:36Z</time>
      </trkpt>
      <trkpt lat="41.5361980" lon="1.8688480">
        <ele>155.8</ele>
        <time>2022-04-09T11:44:38Z</time>
      </trkpt>
      <trkpt lat="41.5361590" lon="1.8688890">
        <ele>155.8</ele>
        <time>2022-04-09T11:44:39Z</time>
      </trkpt>
      <trkpt lat="41.5359310" lon="1.8691040">
        <ele>155.6</ele>
        <time>2022-04-09T11:44:43Z</time>
      </trkpt>
      <trkpt lat="41.5358810" lon="1.8691220">
        <ele>155.6</ele>
        <time>2022-04-09T11:44:44Z</time>
      </trkpt>
      <trkpt lat="41.5358390" lon="1.8691050">
        <ele>155.6</ele>
        <time>2022-04-09T11:44:45Z</time>
      </trkpt>
      <trkpt lat="41.5358090" lon="1.8690690">
        <ele>155.6</ele>
        <time>2022-04-09T11:44:46Z</time>
      </trkpt>
      <trkpt lat="41.5357120" lon="1.8688480">
        <ele>155.2</ele>
        <time>2022-04-09T11:44:49Z</time>
      </trkpt>
      <trkpt lat="41.5356800" lon="1.8687860">
        <ele>155.0</ele>
        <time>2022-04-09T11:44:50Z</time>
      </trkpt>
      <trkpt lat="41.5356030" lon="1.8686980">
        <ele>154.0</ele>
        <time>2022-04-09T11:44:52Z</time>
      </trkpt>
      <trkpt lat="41.5355260" lon="1.8686900">
        <ele>153.2</ele>
        <time>2022-04-09T11:44:54Z</time>
      </trkpt>
      <trkpt lat="41.5354560" lon="1.8687080">
        <ele>151.8</ele>
        <time>2022-04-09T11:44:55Z</time>
      </trkpt>
      <trkpt lat="41.5354000" lon="1.8687340">
        <ele>151.4</ele>
        <time>2022-04-09T11:44:56Z</time>
      </trkpt>
      <trkpt lat="41.5353500" lon="1.8687560">
        <ele>150.2</ele>
        <time>2022-04-09T11:44:57Z</time>
      </trkpt>
      <trkpt lat="41.5352470" lon="1.8688100">
        <ele>149.2</ele>
        <time>2022-04-09T11:44:59Z</time>
      </trkpt>
      <trkpt lat="41.5352140" lon="1.8688360">
        <ele>148.6</ele>
        <time>2022-04-09T11:45:00Z</time>
      </trkpt>
      <trkpt lat="41.5351350" lon="1.8688880">
        <ele>147.8</ele>
        <time>2022-04-09T11:45:02Z</time>
      </trkpt>
      <trkpt lat="41.5351080" lon="1.8689010">
        <ele>147.8</ele>
        <time>2022-04-09T11:45:03Z</time>
      </trkpt>
      <trkpt lat="41.5350890" lon="1.8689260">
        <ele>147.4</ele>
        <time>2022-04-09T11:45:04Z</time>
      </trkpt>
      <trkpt lat="41.5350840" lon="1.8689470">
        <ele>147.4</ele>
        <time>2022-04-09T11:45:05Z</time>
      </trkpt>
      <trkpt lat="41.5350930" lon="1.8689790">
        <ele>147.2</ele>
        <time>2022-04-09T11:45:06Z</time>
      </trkpt>
      <trkpt lat="41.5351110" lon="1.8690240">
        <ele>147.2</ele>
        <time>2022-04-09T11:45:07Z</time>
      </trkpt>
      <trkpt lat="41.5351020" lon="1.8690260">
        <ele>147.0</ele>
        <time>2022-04-09T11:45:08Z</time>
      </trkpt>
      <trkpt lat="41.5350860" lon="1.8690060">
        <ele>147.0</ele>
        <time>2022-04-09T11:45:09Z</time>
      </trkpt>
      <trkpt lat="41.5350870" lon="1.8690120">
        <ele>146.8</ele>
        <time>2022-04-09T11:45:10Z</time>
      </trkpt>
      <trkpt lat="41.5350870" lon="1.8690120">
        <ele>146.6</ele>
        <time>2022-04-09T11:45:11Z</time>
      </trkpt>
    </trkseg>
  </trk>
</gpx>
